<?xml version='1.0' encoding='UTF-8'?><gpx version="1.1" creator="JPX - https://github.com/jenetics/jpx" xmlns="http://www.topografix.com/GPX/1/1"><trk><trkseg><trkpt lat="42.069309719182" lon="12.766910395895238"><ele>294.5</ele><time>2026-03-29T06:56:52Z</time></trkpt><trkpt lat="42.06936387774905" lon="12.76682826527134"><ele>295.0</ele><time>2026-03-29T06:56:55Z</time></trkpt><trkpt lat="42.06938754077066" lon="12.76672607210606"><ele>295.5</ele><time>2026-03-29T06:56:58Z</time></trkpt><trkpt lat="42.06945842876262" lon="12.766708697579535"><ele>296.0</ele><time>2026-03-29T06:57:01Z</time></trkpt><trkpt lat="42.069566336833866" lon="12.766669451706086"><ele>296.5</ele><time>2026-03-29T06:57:03Z</time></trkpt><trkpt lat="42.06964722517156" lon="12.766630062805474"><ele>297.0</ele><time>2026-03-29T06:57:04Z</time></trkpt><trkpt lat="42.06974683178996" lon="12.766584782735416"><ele>297.0</ele><time>2026-03-29T06:57:04.999Z</time></trkpt><trkpt lat="42.069859890262144" lon="12.766564365557798"><ele>297.0</ele><time>2026-03-29T06:57:05.999Z</time></trkpt><trkpt lat="42.069990538580576" lon="12.766524349021939"><ele>297.0</ele><time>2026-03-29T06:57:06.999Z</time></trkpt><trkpt lat="42.07012755570442" lon="12.766500808889784"><ele>297.0</ele><time>2026-03-29T06:57:07.999Z</time></trkpt><trkpt lat="42.07024822409237" lon="12.766512569586546"><ele>296.6</ele><time>2026-03-29T06:57:08.999Z</time></trkpt><trkpt lat="42.07035186677446" lon="12.766561036961996"><ele>296.2</ele><time>2026-03-29T06:57:09.999Z</time></trkpt><trkpt lat="42.07045293094999" lon="12.766584083450093"><ele>295.8</ele><time>2026-03-29T06:57:10.999Z</time></trkpt><trkpt lat="42.070558914998884" lon="12.766596006347818"><ele>295.4</ele><time>2026-03-29T06:57:11.999Z</time></trkpt><trkpt lat="42.07066315086876" lon="12.766603460255137"><ele>295.0</ele><time>2026-03-29T06:57:12.999Z</time></trkpt><trkpt lat="42.07076748901102" lon="12.766606968987851"><ele>296.2</ele><time>2026-03-29T06:57:13.999Z</time></trkpt><trkpt lat="42.07087682315039" lon="12.766603201914618"><ele>297.4</ele><time>2026-03-29T06:57:14.999Z</time></trkpt><trkpt lat="42.07096668492178" lon="12.766594302243096"><ele>298.6</ele><time>2026-03-29T06:57:15.999Z</time></trkpt><trkpt lat="42.07105448676023" lon="12.76658372972576"><ele>299.8</ele><time>2026-03-29T06:57:16.999Z</time></trkpt><trkpt lat="42.0711491640631" lon="12.766581590254393"><ele>301.0</ele><time>2026-03-29T06:57:17.999Z</time></trkpt><trkpt lat="42.071243115985446" lon="12.766583920064402"><ele>301.0</ele><time>2026-03-29T06:57:18.999Z</time></trkpt><trkpt lat="42.07133537165818" lon="12.766576944862472"><ele>301.0</ele><time>2026-03-29T06:57:19.999Z</time></trkpt><trkpt lat="42.0714370491557" lon="12.766565662476198"><ele>301.0</ele><time>2026-03-29T06:57:20.999Z</time></trkpt><trkpt lat="42.071544428851105" lon="12.766541491929651"><ele>301.0</ele><time>2026-03-29T06:57:21.999Z</time></trkpt><trkpt lat="42.07165090131172" lon="12.766513170791326"><ele>301.0</ele><time>2026-03-29T06:57:22.999Z</time></trkpt><trkpt lat="42.07175702050383" lon="12.766484079346744"><ele>299.8</ele><time>2026-03-29T06:57:23.999Z</time></trkpt><trkpt lat="42.071861781033185" lon="12.766452769898377"><ele>298.6</ele><time>2026-03-29T06:57:24.999Z</time></trkpt><trkpt lat="42.07196277245815" lon="12.766419872371232"><ele>297.4</ele><time>2026-03-29T06:57:25.999Z</time></trkpt><trkpt lat="42.07204950233967" lon="12.766388664079615"><ele>296.2</ele><time>2026-03-29T06:57:26.999Z</time></trkpt><trkpt lat="42.07214047149932" lon="12.766356932584086"><ele>295.0</ele><time>2026-03-29T06:57:27.999Z</time></trkpt><trkpt lat="42.072232865323535" lon="12.766324281265966"><ele>295.0</ele><time>2026-03-29T06:57:28.999Z</time></trkpt><trkpt lat="42.07232294123226" lon="12.766284041598823"><ele>295.0</ele><time>2026-03-29T06:57:29.999Z</time></trkpt><trkpt lat="42.07240141013599" lon="12.766250299669021"><ele>295.0</ele><time>2026-03-29T06:57:30.999Z</time></trkpt><trkpt lat="42.07246512070397" lon="12.766230461251352"><ele>295.0</ele><time>2026-03-29T06:57:31.999Z</time></trkpt><trkpt lat="42.07256955890852" lon="12.766262461793714"><ele>295.0</ele><time>2026-03-29T06:57:33.999Z</time></trkpt><trkpt lat="42.07261447465211" lon="12.766373990325429"><ele>295.0</ele><time>2026-03-29T06:57:35.999Z</time></trkpt><trkpt lat="42.07257257731098" lon="12.766446326540878"><ele>296.0</ele><time>2026-03-29T06:57:37Z</time></trkpt><trkpt lat="42.07254728775085" lon="12.766528272156718"><ele>297.0</ele><time>2026-03-29T06:57:38Z</time></trkpt><trkpt lat="42.072529304384155" lon="12.766628773486504"><ele>298.0</ele><time>2026-03-29T06:57:39Z</time></trkpt><trkpt lat="42.0725134557545" lon="12.766738578746686"><ele>299.0</ele><time>2026-03-29T06:57:40Z</time></trkpt><trkpt lat="42.07249929773917" lon="12.766864578920893"><ele>300.0</ele><time>2026-03-29T06:57:41Z</time></trkpt><trkpt lat="42.07248417556165" lon="12.766971141444978"><ele>301.0</ele><time>2026-03-29T06:57:42Z</time></trkpt><trkpt lat="42.07246631560657" lon="12.7670887987732"><ele>300.66666666666663</ele><time>2026-03-29T06:57:43Z</time></trkpt><trkpt lat="42.072447693197475" lon="12.767211478975844"><ele>300.3333333333333</ele><time>2026-03-29T06:57:44Z</time></trkpt><trkpt lat="42.07243579512764" lon="12.767311547125315"><ele>300.0</ele><time>2026-03-29T06:57:45Z</time></trkpt><trkpt lat="42.07242750571485" lon="12.76740660675082"><ele>299.6666666666667</ele><time>2026-03-29T06:57:48Z</time></trkpt><trkpt lat="42.07244518129884" lon="12.767564007478363"><ele>299.33333333333337</ele><time>2026-03-29T06:57:50Z</time></trkpt><trkpt lat="42.07251694371762" lon="12.767622521894737"><ele>299.0</ele><time>2026-03-29T06:57:51Z</time></trkpt><trkpt lat="42.07258849392421" lon="12.767664093791204"><ele>301.1666666666667</ele><time>2026-03-29T06:57:52Z</time></trkpt><trkpt lat="42.072654295536" lon="12.767716458277903"><ele>303.33333333333337</ele><time>2026-03-29T06:57:53Z</time></trkpt><trkpt lat="42.072730708214735" lon="12.767783595547714"><ele>305.5</ele><time>2026-03-29T06:57:54Z</time></trkpt><trkpt lat="42.07279732939259" lon="12.767850891494284"><ele>307.6666666666667</ele><time>2026-03-29T06:57:55Z</time></trkpt><trkpt lat="42.072862567420934" lon="12.76792245500472"><ele>309.8333333333333</ele><time>2026-03-29T06:57:56Z</time></trkpt><trkpt lat="42.07292586789961" lon="12.76801306848176"><ele>312.0</ele><time>2026-03-29T06:57:57Z</time></trkpt><trkpt lat="42.073007124112465" lon="12.768118265139822"><ele>312.0</ele><time>2026-03-29T06:57:58Z</time></trkpt><trkpt lat="42.0730891646744" lon="12.76822843501737"><ele>312.0</ele><time>2026-03-29T06:57:59Z</time></trkpt><trkpt lat="42.07317957156172" lon="12.76834050252093"><ele>312.0</ele><time>2026-03-29T06:58:00Z</time></trkpt><trkpt lat="42.07325758994439" lon="12.768485244085728"><ele>312.0</ele><time>2026-03-29T06:58:01Z</time></trkpt><trkpt lat="42.073360805451514" lon="12.768622634407414"><ele>316.2</ele><time>2026-03-29T06:58:02Z</time></trkpt><trkpt lat="42.07346338514533" lon="12.76875628063956"><ele>320.4</ele><time>2026-03-29T06:58:03Z</time></trkpt><trkpt lat="42.07355005169445" lon="12.768840257119884"><ele>324.59999999999997</ele><time>2026-03-29T06:58:04Z</time></trkpt><trkpt lat="42.07359613046688" lon="12.768951636501725"><ele>328.79999999999995</ele><time>2026-03-29T06:58:05Z</time></trkpt><trkpt lat="42.07363282001915" lon="12.769042639506779"><ele>333.0</ele><time>2026-03-29T06:58:06Z</time></trkpt><trkpt lat="42.073678405424225" lon="12.769146627083119"><ele>333.0</ele><time>2026-03-29T06:58:07Z</time></trkpt><trkpt lat="42.07371710643821" lon="12.769234910224952"><ele>333.0</ele><time>2026-03-29T06:58:08Z</time></trkpt><trkpt lat="42.0738444821855" lon="12.769262772364156"><ele>333.0</ele><time>2026-03-29T06:58:10Z</time></trkpt><trkpt lat="42.07391845076468" lon="12.769259115571728"><ele>333.0</ele><time>2026-03-29T06:58:11Z</time></trkpt><trkpt lat="42.07396697842495" lon="12.769401988819732"><ele>333.0</ele><time>2026-03-29T06:58:13Z</time></trkpt><trkpt lat="42.074006894171355" lon="12.76948966399388"><ele>332.79999999999995</ele><time>2026-03-29T06:58:14Z</time></trkpt><trkpt lat="42.07404477357712" lon="12.76956908720787"><ele>332.6</ele><time>2026-03-29T06:58:15Z</time></trkpt><trkpt lat="42.07405221196951" lon="12.769663395645063"><ele>332.4</ele><time>2026-03-29T06:58:16Z</time></trkpt><trkpt lat="42.07401264698363" lon="12.769784861198799"><ele>332.20000000000005</ele><time>2026-03-29T06:58:17Z</time></trkpt><trkpt lat="42.0739985971867" lon="12.769971092053794"><ele>332.0</ele><time>2026-03-29T06:58:18Z</time></trkpt><trkpt lat="42.07402497083378" lon="12.770201778965795"><ele>333.0</ele><time>2026-03-29T06:58:19Z</time></trkpt><trkpt lat="42.07403568637543" lon="12.770460555320366"><ele>334.0</ele><time>2026-03-29T06:58:20Z</time></trkpt><trkpt lat="42.07405639462847" lon="12.770662460748532"><ele>335.0</ele><time>2026-03-29T06:58:21Z</time></trkpt><trkpt lat="42.07409646501543" lon="12.770808144651024"><ele>340.25</ele><time>2026-03-29T06:58:22Z</time></trkpt><trkpt lat="42.07411625902133" lon="12.770926072688127"><ele>345.5</ele><time>2026-03-29T06:58:23Z</time></trkpt><trkpt lat="42.07415569554533" lon="12.7710668916887"><ele>350.75</ele><time>2026-03-29T06:58:24Z</time></trkpt><trkpt lat="42.07423449039734" lon="12.771199198537076"><ele>356.0</ele><time>2026-03-29T06:58:25Z</time></trkpt><trkpt lat="42.07430792239796" lon="12.771338289513785"><ele>356.0</ele><time>2026-03-29T06:58:26Z</time></trkpt><trkpt lat="42.07437634753683" lon="12.77150003329957"><ele>356.0</ele><time>2026-03-29T06:58:27Z</time></trkpt><trkpt lat="42.074459020195626" lon="12.771677162713809"><ele>356.0</ele><time>2026-03-29T06:58:28Z</time></trkpt><trkpt lat="42.074546170510054" lon="12.77184774759082"><ele>356.0</ele><time>2026-03-29T06:58:29Z</time></trkpt><trkpt lat="42.07463822942653" lon="12.7720113796657"><ele>357.33333333333337</ele><time>2026-03-29T06:58:30Z</time></trkpt><trkpt lat="42.07475019777684" lon="12.77225060055222"><ele>358.6666666666667</ele><time>2026-03-29T06:58:31Z</time></trkpt><trkpt lat="42.07485488782214" lon="12.77248549242699"><ele>360.0</ele><time>2026-03-29T06:58:32Z</time></trkpt><trkpt lat="42.07497925187273" lon="12.772719798683047"><ele>367.3333333333333</ele><time>2026-03-29T06:58:33Z</time></trkpt><trkpt lat="42.07509639232535" lon="12.772943785695299"><ele>374.66666666666663</ele><time>2026-03-29T06:58:34Z</time></trkpt><trkpt lat="42.07520286760288" lon="12.773144421749498"><ele>382.0</ele><time>2026-03-29T06:58:35Z</time></trkpt><trkpt lat="42.075289421979704" lon="12.773357022548103"><ele>387.0</ele><time>2026-03-29T06:58:36Z</time></trkpt><trkpt lat="42.07537764114767" lon="12.773526558726081"><ele>392.0</ele><time>2026-03-29T06:58:37Z</time></trkpt><trkpt lat="42.075468829483455" lon="12.773678095401056"><ele>397.0</ele><time>2026-03-29T06:58:38Z</time></trkpt><trkpt lat="42.07553618767522" lon="12.773788822270665"><ele>402.0</ele><time>2026-03-29T06:58:39Z</time></trkpt><trkpt lat="42.075587803411466" lon="12.773877984531033"><ele>402.0</ele><time>2026-03-29T06:58:40Z</time></trkpt><trkpt lat="42.07559616000999" lon="12.773970226503229"><ele>402.0</ele><time>2026-03-29T06:58:42Z</time></trkpt><trkpt lat="42.0756778781528" lon="12.774090807238077"><ele>402.0</ele><time>2026-03-29T06:58:49Z</time></trkpt><trkpt lat="42.075670055179465" lon="12.77420248900202"><ele>402.0</ele><time>2026-03-29T06:58:51Z</time></trkpt><trkpt lat="42.07558944560219" lon="12.774198105609935"><ele>402.0</ele><time>2026-03-29T06:58:52Z</time></trkpt><trkpt lat="42.07584373775319" lon="12.774310573694885"><ele>403.6666666666667</ele><time>2026-03-29T06:58:55Z</time></trkpt><trkpt lat="42.07590725062418" lon="12.77433759393422"><ele>405.33333333333337</ele><time>2026-03-29T06:58:57Z</time></trkpt><trkpt lat="42.07594996311958" lon="12.77443420358948"><ele>407.0</ele><time>2026-03-29T06:58:59Z</time></trkpt><trkpt lat="42.07597318952494" lon="12.774523840133588"><ele>408.6666666666667</ele><time>2026-03-29T06:59:01Z</time></trkpt><trkpt lat="42.07605921893133" lon="12.77456931051559"><ele>410.33333333333337</ele><time>2026-03-29T06:59:03.999Z</time></trkpt><trkpt lat="42.07611712232191" lon="12.774634544688043"><ele>412.0</ele><time>2026-03-29T06:59:06.999Z</time></trkpt><trkpt lat="42.07618188624686" lon="12.774633838267405"><ele>414.99999999999994</ele><time>2026-03-29T06:59:08.999Z</time></trkpt><trkpt lat="42.07625655006579" lon="12.774681904895806"><ele>418.0</ele><time>2026-03-29T06:59:11.999Z</time></trkpt><trkpt lat="42.07629090528199" lon="12.774762787169363"><ele>421.0</ele><time>2026-03-29T06:59:13.999Z</time></trkpt><trkpt lat="42.07634325506194" lon="12.774811261365963"><ele>424.0</ele><time>2026-03-29T06:59:16.999Z</time></trkpt><trkpt lat="42.07638231146239" lon="12.774889943089564"><ele>427.0</ele><time>2026-03-29T06:59:20.999Z</time></trkpt><trkpt lat="42.076423899744725" lon="12.774959234570545"><ele>429.99999999999994</ele><time>2026-03-29T06:59:28.999Z</time></trkpt><trkpt lat="42.07648137074368" lon="12.774918986837838"><ele>433.0</ele><time>2026-03-29T07:00:00Z</time></trkpt><trkpt lat="42.07655048674603" lon="12.77497258700454"><ele>433.0</ele><time>2026-03-29T07:00:03Z</time></trkpt><trkpt lat="42.07654243220526" lon="12.77510263784207"><ele>432.99999999999994</ele><time>2026-03-29T07:00:05Z</time></trkpt><trkpt lat="42.07662452112119" lon="12.775183188183984"><ele>432.99999999999994</ele><time>2026-03-29T07:00:53Z</time></trkpt><trkpt lat="42.0767456677934" lon="12.77525890365519"><ele>433.0</ele><time>2026-03-29T07:00:55Z</time></trkpt><trkpt lat="42.076808175683674" lon="12.775328007409641"><ele>433.0</ele><time>2026-03-29T07:00:56Z</time></trkpt><trkpt lat="42.0768729315054" lon="12.775386140218824"><ele>437.75</ele><time>2026-03-29T07:00:56.999Z</time></trkpt><trkpt lat="42.076940053928666" lon="12.775467991292201"><ele>442.5</ele><time>2026-03-29T07:00:57.999Z</time></trkpt><trkpt lat="42.07701082457697" lon="12.775582352764044"><ele>447.25</ele><time>2026-03-29T07:00:58.999Z</time></trkpt><trkpt lat="42.0770970978384" lon="12.77570921944242"><ele>452.0</ele><time>2026-03-29T07:00:59.999Z</time></trkpt><trkpt lat="42.077202910182244" lon="12.775822006258803"><ele>452.0</ele><time>2026-03-29T07:01:00.999Z</time></trkpt><trkpt lat="42.07731647213526" lon="12.775927655226905"><ele>452.0</ele><time>2026-03-29T07:01:01.999Z</time></trkpt><trkpt lat="42.07742256929181" lon="12.77604045833533"><ele>452.0</ele><time>2026-03-29T07:01:02.999Z</time></trkpt><trkpt lat="42.07752083061117" lon="12.776176258205941"><ele>452.0</ele><time>2026-03-29T07:01:03.999Z</time></trkpt><trkpt lat="42.07762986728964" lon="12.776347766766389"><ele>456.0</ele><time>2026-03-29T07:01:04.999Z</time></trkpt><trkpt lat="42.07775329525007" lon="12.776551671248663"><ele>460.0</ele><time>2026-03-29T07:01:05.999Z</time></trkpt><trkpt lat="42.077854973417196" lon="12.776721259485036"><ele>464.0</ele><time>2026-03-29T07:01:06.999Z</time></trkpt><trkpt lat="42.07795226804229" lon="12.776836161143313"><ele>464.0</ele><time>2026-03-29T07:01:07.999Z</time></trkpt><trkpt lat="42.07803644204342" lon="12.776930404120844"><ele>464.0</ele><time>2026-03-29T07:01:08.999Z</time></trkpt><trkpt lat="42.0781565520842" lon="12.777018302827013"><ele>464.0</ele><time>2026-03-29T07:01:09.999Z</time></trkpt><trkpt lat="42.078272944971225" lon="12.77712690443377"><ele>464.0</ele><time>2026-03-29T07:01:10.999Z</time></trkpt><trkpt lat="42.07840310894198" lon="12.777258225127834"><ele>464.0</ele><time>2026-03-29T07:01:11.999Z</time></trkpt><trkpt lat="42.078539903707934" lon="12.777424788592487"><ele>464.0</ele><time>2026-03-29T07:01:12.999Z</time></trkpt><trkpt lat="42.07869401465244" lon="12.777597973443875"><ele>464.0</ele><time>2026-03-29T07:01:13.999Z</time></trkpt><trkpt lat="42.07879615929157" lon="12.777737619465627"><ele>469.0</ele><time>2026-03-29T07:01:14.999Z</time></trkpt><trkpt lat="42.07883840245046" lon="12.777825260780569"><ele>474.0</ele><time>2026-03-29T07:01:15.999Z</time></trkpt><trkpt lat="42.07891265922167" lon="12.778005143621016"><ele>479.0</ele><time>2026-03-29T07:01:17.999Z</time></trkpt><trkpt lat="42.07894447081939" lon="12.778182867151093"><ele>484.0</ele><time>2026-03-29T07:01:18.999Z</time></trkpt><trkpt lat="42.078991259345706" lon="12.778361838716643"><ele>488.6666666666667</ele><time>2026-03-29T07:01:19.999Z</time></trkpt><trkpt lat="42.079033836286705" lon="12.778601430679423"><ele>493.33333333333337</ele><time>2026-03-29T07:01:20.999Z</time></trkpt><trkpt lat="42.079068434785114" lon="12.778897531633056"><ele>498.0</ele><time>2026-03-29T07:01:21.999Z</time></trkpt><trkpt lat="42.079125438662565" lon="12.779117692595706"><ele>487.25</ele><time>2026-03-29T07:01:22.999Z</time></trkpt><trkpt lat="42.07916174892979" lon="12.779320741999472"><ele>476.5</ele><time>2026-03-29T07:01:23.999Z</time></trkpt><trkpt lat="42.07921577083572" lon="12.779478381529952"><ele>465.75</ele><time>2026-03-29T07:01:24.999Z</time></trkpt><trkpt lat="42.0792785539184" lon="12.779609078118044"><ele>455.0</ele><time>2026-03-29T07:01:25.999Z</time></trkpt><trkpt lat="42.0792860419389" lon="12.779717521719935"><ele>455.0</ele><time>2026-03-29T07:01:26.999Z</time></trkpt><trkpt lat="42.07926263099036" lon="12.779831544345546"><ele>455.0</ele><time>2026-03-29T07:01:27.999Z</time></trkpt><trkpt lat="42.07924739430444" lon="12.779977247337914"><ele>455.0</ele><time>2026-03-29T07:01:28.999Z</time></trkpt><trkpt lat="42.07920413343953" lon="12.780179875524823"><ele>455.0</ele><time>2026-03-29T07:01:29.999Z</time></trkpt><trkpt lat="42.079195748124455" lon="12.78043223624031"><ele>454.75</ele><time>2026-03-29T07:01:30.999Z</time></trkpt><trkpt lat="42.07919910864768" lon="12.78063863710236"><ele>454.5</ele><time>2026-03-29T07:01:31.999Z</time></trkpt><trkpt lat="42.07918298912923" lon="12.780801090569838"><ele>454.25</ele><time>2026-03-29T07:01:32.999Z</time></trkpt><trkpt lat="42.079143889365774" lon="12.78099218078672"><ele>454.0</ele><time>2026-03-29T07:01:33.999Z</time></trkpt><trkpt lat="42.07910877943816" lon="12.781210907255232"><ele>469.6666666666667</ele><time>2026-03-29T07:01:34.999Z</time></trkpt><trkpt lat="42.0790635804427" lon="12.78144991925771"><ele>485.33333333333337</ele><time>2026-03-29T07:01:35.999Z</time></trkpt><trkpt lat="42.07903243495547" lon="12.781656783087383"><ele>501.0</ele><time>2026-03-29T07:01:36.999Z</time></trkpt><trkpt lat="42.0790168597164" lon="12.781818027220918"><ele>499.66666666666663</ele><time>2026-03-29T07:01:37.999Z</time></trkpt><trkpt lat="42.07897036083849" lon="12.781993559724182"><ele>498.3333333333333</ele><time>2026-03-29T07:01:38.999Z</time></trkpt><trkpt lat="42.0789384094133" lon="12.782205863971592"><ele>497.0</ele><time>2026-03-29T07:01:39.999Z</time></trkpt><trkpt lat="42.07892833362777" lon="12.782441003816869"><ele>497.0</ele><time>2026-03-29T07:01:40.999Z</time></trkpt><trkpt lat="42.07891279170925" lon="12.78263962395309"><ele>497.0</ele><time>2026-03-29T07:01:41.999Z</time></trkpt><trkpt lat="42.0789041873389" lon="12.782817515333093"><ele>497.0</ele><time>2026-03-29T07:01:42.999Z</time></trkpt><trkpt lat="42.078877989992705" lon="12.782978025240586"><ele>497.0</ele><time>2026-03-29T07:01:43.999Z</time></trkpt><trkpt lat="42.07883386696379" lon="12.783168979213002"><ele>494.25</ele><time>2026-03-29T07:01:44.999Z</time></trkpt><trkpt lat="42.07881118996187" lon="12.783346479255792"><ele>491.5</ele><time>2026-03-29T07:01:45.999Z</time></trkpt><trkpt lat="42.07878370124939" lon="12.78350494600709"><ele>488.75</ele><time>2026-03-29T07:01:46.999Z</time></trkpt><trkpt lat="42.078762773819335" lon="12.783664836422284"><ele>486.0</ele><time>2026-03-29T07:01:47.999Z</time></trkpt><trkpt lat="42.07872026738754" lon="12.783860403229639"><ele>484.0</ele><time>2026-03-29T07:01:49Z</time></trkpt><trkpt lat="42.07867485843322" lon="12.784046334179155"><ele>482.0</ele><time>2026-03-29T07:01:50Z</time></trkpt><trkpt lat="42.07866388284943" lon="12.784233665930806"><ele>480.0</ele><time>2026-03-29T07:01:51Z</time></trkpt><trkpt lat="42.078673882986465" lon="12.784431234177228"><ele>478.0</ele><time>2026-03-29T07:01:52Z</time></trkpt><trkpt lat="42.078683239865605" lon="12.784587667871916"><ele>476.25</ele><time>2026-03-29T07:01:53Z</time></trkpt><trkpt lat="42.07868065393611" lon="12.784703328057915"><ele>474.5</ele><time>2026-03-29T07:01:54Z</time></trkpt><trkpt lat="42.0786676319023" lon="12.784871007095651"><ele>472.75</ele><time>2026-03-29T07:01:55Z</time></trkpt><trkpt lat="42.07862756199111" lon="12.785048848142365"><ele>471.0</ele><time>2026-03-29T07:01:56Z</time></trkpt><trkpt lat="42.0785632204275" lon="12.785229437758245"><ele>470.25</ele><time>2026-03-29T07:01:57Z</time></trkpt><trkpt lat="42.07851216179968" lon="12.785391672189771"><ele>469.5</ele><time>2026-03-29T07:01:58Z</time></trkpt><trkpt lat="42.07848779770456" lon="12.785584460855322"><ele>468.75</ele><time>2026-03-29T07:01:59Z</time></trkpt><trkpt lat="42.078459601304296" lon="12.78581418286616"><ele>468.0</ele><time>2026-03-29T07:02:00Z</time></trkpt><trkpt lat="42.078426090688595" lon="12.786028958675596"><ele>467.25</ele><time>2026-03-29T07:02:01Z</time></trkpt><trkpt lat="42.07840848588497" lon="12.786195616510103"><ele>466.5</ele><time>2026-03-29T07:02:02Z</time></trkpt><trkpt lat="42.078396062900474" lon="12.786392846039389"><ele>465.75</ele><time>2026-03-29T07:02:03Z</time></trkpt><trkpt lat="42.078409269388395" lon="12.7865875470919"><ele>465.0</ele><time>2026-03-29T07:02:04Z</time></trkpt><trkpt lat="42.07840864578359" lon="12.786755422964077"><ele>465.8</ele><time>2026-03-29T07:02:05Z</time></trkpt><trkpt lat="42.078416034924246" lon="12.786901339626146"><ele>466.6</ele><time>2026-03-29T07:02:06Z</time></trkpt><trkpt lat="42.07839444143758" lon="12.787006428213125"><ele>467.4</ele><time>2026-03-29T07:02:07Z</time></trkpt><trkpt lat="42.07834361392404" lon="12.787088111002118"><ele>468.2</ele><time>2026-03-29T07:02:08Z</time></trkpt><trkpt lat="42.07826693512357" lon="12.787187277640161"><ele>469.0</ele><time>2026-03-29T07:02:09Z</time></trkpt><trkpt lat="42.07816908582085" lon="12.787276157239328"><ele>469.0</ele><time>2026-03-29T07:02:10Z</time></trkpt><trkpt lat="42.07807599709118" lon="12.787340273092434"><ele>469.0</ele><time>2026-03-29T07:02:11Z</time></trkpt><trkpt lat="42.07795672498254" lon="12.787394472749783"><ele>469.0</ele><time>2026-03-29T07:02:12Z</time></trkpt><trkpt lat="42.07785758880625" lon="12.787440204945646"><ele>469.0</ele><time>2026-03-29T07:02:13Z</time></trkpt><trkpt lat="42.07777537265288" lon="12.787534617001977"><ele>469.0</ele><time>2026-03-29T07:02:14Z</time></trkpt><trkpt lat="42.077671643862395" lon="12.787686195602893"><ele>465.5</ele><time>2026-03-29T07:02:15Z</time></trkpt><trkpt lat="42.07757396149101" lon="12.78782926033924"><ele>462.0</ele><time>2026-03-29T07:02:16Z</time></trkpt><trkpt lat="42.07751007401131" lon="12.787921823180177"><ele>458.5</ele><time>2026-03-29T07:02:17Z</time></trkpt><trkpt lat="42.07743784468704" lon="12.788058660340312"><ele>455.0</ele><time>2026-03-29T07:02:18Z</time></trkpt><trkpt lat="42.0773626334727" lon="12.788193404776047"><ele>460.6</ele><time>2026-03-29T07:02:19Z</time></trkpt><trkpt lat="42.07731130196094" lon="12.788316720505849"><ele>466.2</ele><time>2026-03-29T07:02:20Z</time></trkpt><trkpt lat="42.07726132829142" lon="12.78845726328106"><ele>471.79999999999995</ele><time>2026-03-29T07:02:21Z</time></trkpt><trkpt lat="42.07722650404568" lon="12.788611622856063"><ele>477.4</ele><time>2026-03-29T07:02:22Z</time></trkpt><trkpt lat="42.07722254609426" lon="12.788757478354839"><ele>483.0</ele><time>2026-03-29T07:02:23Z</time></trkpt><trkpt lat="42.07722766023392" lon="12.788882588581757"><ele>483.0</ele><time>2026-03-29T07:02:24Z</time></trkpt><trkpt lat="42.077226315457246" lon="12.78900048577352"><ele>482.99999999999994</ele><time>2026-03-29T07:02:25Z</time></trkpt><trkpt lat="42.077221892600775" lon="12.789142435477626"><ele>482.99999999999994</ele><time>2026-03-29T07:02:26Z</time></trkpt><trkpt lat="42.07721275654184" lon="12.789289186161824"><ele>483.0</ele><time>2026-03-29T07:02:27Z</time></trkpt><trkpt lat="42.07719557563194" lon="12.789445083255973"><ele>483.0</ele><time>2026-03-29T07:02:28Z</time></trkpt><trkpt lat="42.07718669754045" lon="12.789606825178208"><ele>484.25</ele><time>2026-03-29T07:02:29Z</time></trkpt><trkpt lat="42.07719547588382" lon="12.78977545454498"><ele>485.5</ele><time>2026-03-29T07:02:30Z</time></trkpt><trkpt lat="42.077222183285585" lon="12.78996501978668"><ele>486.75</ele><time>2026-03-29T07:02:31Z</time></trkpt><trkpt lat="42.0772690084362" lon="12.79014549082442"><ele>488.0</ele><time>2026-03-29T07:02:32Z</time></trkpt><trkpt lat="42.07732922475644" lon="12.7902460709245"><ele>490.75</ele><time>2026-03-29T07:02:33Z</time></trkpt><trkpt lat="42.07740393690839" lon="12.790358340945987"><ele>493.5</ele><time>2026-03-29T07:02:34Z</time></trkpt><trkpt lat="42.0775257105246" lon="12.790491031101055"><ele>496.25</ele><time>2026-03-29T07:02:35Z</time></trkpt><trkpt lat="42.077595378356115" lon="12.790601667683566"><ele>499.0</ele><time>2026-03-29T07:02:36Z</time></trkpt><trkpt lat="42.07766433491817" lon="12.79070262897368"><ele>493.0</ele><time>2026-03-29T07:02:37Z</time></trkpt><trkpt lat="42.07773505523748" lon="12.79079390156337"><ele>487.0</ele><time>2026-03-29T07:02:38Z</time></trkpt><trkpt lat="42.0777809672503" lon="12.79089653046525"><ele>481.0</ele><time>2026-03-29T07:02:39Z</time></trkpt><trkpt lat="42.07782573410122" lon="12.791008806265824"><ele>475.0</ele><time>2026-03-29T07:02:40Z</time></trkpt><trkpt lat="42.07786556159894" lon="12.791144479027546"><ele>469.0</ele><time>2026-03-29T07:02:41Z</time></trkpt><trkpt lat="42.077900532862024" lon="12.791294473432723"><ele>469.0</ele><time>2026-03-29T07:02:42Z</time></trkpt><trkpt lat="42.07793975137927" lon="12.791447892442509"><ele>469.0</ele><time>2026-03-29T07:02:43Z</time></trkpt><trkpt lat="42.07796202146263" lon="12.791593512508099"><ele>469.0</ele><time>2026-03-29T07:02:44Z</time></trkpt><trkpt lat="42.07797748179498" lon="12.791752174413094"><ele>469.0</ele><time>2026-03-29T07:02:45Z</time></trkpt><trkpt lat="42.077987612720456" lon="12.791900041504423"><ele>470.0</ele><time>2026-03-29T07:02:46Z</time></trkpt><trkpt lat="42.0779995385738" lon="12.792048377556041"><ele>471.0</ele><time>2026-03-29T07:02:47Z</time></trkpt><trkpt lat="42.07800442817973" lon="12.792214731089889"><ele>472.0</ele><time>2026-03-29T07:02:48Z</time></trkpt><trkpt lat="42.078012276083406" lon="12.792338748744104"><ele>473.0</ele><time>2026-03-29T07:02:49Z</time></trkpt><trkpt lat="42.07807681563338" lon="12.792404664229208"><ele>474.0</ele><time>2026-03-29T07:02:49.999Z</time></trkpt><trkpt lat="42.07808774525426" lon="12.792502778983247"><ele>474.0</ele><time>2026-03-29T07:02:50.999Z</time></trkpt><trkpt lat="42.07813526292044" lon="12.792621972077324"><ele>474.0</ele><time>2026-03-29T07:02:51.999Z</time></trkpt><trkpt lat="42.078158330463175" lon="12.79275227311002"><ele>474.0</ele><time>2026-03-29T07:02:52.999Z</time></trkpt><trkpt lat="42.07817039575283" lon="12.792849788787338"><ele>474.0</ele><time>2026-03-29T07:02:53.999Z</time></trkpt><trkpt lat="42.07819690431461" lon="12.792969813384726"><ele>474.0</ele><time>2026-03-29T07:02:54.999Z</time></trkpt><trkpt lat="42.078221319416656" lon="12.793096674115658"><ele>475.2</ele><time>2026-03-29T07:02:55.999Z</time></trkpt><trkpt lat="42.078258021701906" lon="12.793199574099344"><ele>476.4</ele><time>2026-03-29T07:02:56.999Z</time></trkpt><trkpt lat="42.07831863921903" lon="12.793341672716712"><ele>477.6</ele><time>2026-03-29T07:02:57.999Z</time></trkpt><trkpt lat="42.07834171888554" lon="12.793477225083686"><ele>478.8</ele><time>2026-03-29T07:02:58.999Z</time></trkpt><trkpt lat="42.07836465401251" lon="12.793573794432222"><ele>480.0</ele><time>2026-03-29T07:02:59.999Z</time></trkpt><trkpt lat="42.07838260977235" lon="12.793668774390994"><ele>476.6666666666667</ele><time>2026-03-29T07:03:00.999Z</time></trkpt><trkpt lat="42.07840189951191" lon="12.793795728241038"><ele>473.33333333333337</ele><time>2026-03-29T07:03:01.999Z</time></trkpt><trkpt lat="42.078417029319915" lon="12.79393743108276"><ele>470.0</ele><time>2026-03-29T07:03:02.999Z</time></trkpt><trkpt lat="42.0784254029224" lon="12.794047855883834"><ele>466.6666666666667</ele><time>2026-03-29T07:03:03.999Z</time></trkpt><trkpt lat="42.078446783670216" lon="12.794133422838275"><ele>463.33333333333337</ele><time>2026-03-29T07:03:04.999Z</time></trkpt><trkpt lat="42.07843586276815" lon="12.794229576312198"><ele>460.0</ele><time>2026-03-29T07:03:05.999Z</time></trkpt><trkpt lat="42.078441290258816" lon="12.794367313401999"><ele>460.0</ele><time>2026-03-29T07:03:06.999Z</time></trkpt><trkpt lat="42.078442690825284" lon="12.79449151442965"><ele>460.0</ele><time>2026-03-29T07:03:07.999Z</time></trkpt><trkpt lat="42.07845076139507" lon="12.79463024811185"><ele>460.0</ele><time>2026-03-29T07:03:08.999Z</time></trkpt><trkpt lat="42.07844094821986" lon="12.794746333159607"><ele>460.0</ele><time>2026-03-29T07:03:09.999Z</time></trkpt><trkpt lat="42.07844329787983" lon="12.794883462771356"><ele>460.0</ele><time>2026-03-29T07:03:10.999Z</time></trkpt><trkpt lat="42.07844563081954" lon="12.79502550271025"><ele>460.0</ele><time>2026-03-29T07:03:11.999Z</time></trkpt><trkpt lat="42.078449607043154" lon="12.795151030539825"><ele>460.0</ele><time>2026-03-29T07:03:12.999Z</time></trkpt><trkpt lat="42.07846061986165" lon="12.795310091091881"><ele>460.0</ele><time>2026-03-29T07:03:13.999Z</time></trkpt><trkpt lat="42.078477574668945" lon="12.79548192233911"><ele>460.0</ele><time>2026-03-29T07:03:14.999Z</time></trkpt><trkpt lat="42.078482733475326" lon="12.795617465257513"><ele>460.0</ele><time>2026-03-29T07:03:15.999Z</time></trkpt><trkpt lat="42.07849063945814" lon="12.795747551825123"><ele>460.0</ele><time>2026-03-29T07:03:16.999Z</time></trkpt><trkpt lat="42.07850025691759" lon="12.795873644259329"><ele>460.0</ele><time>2026-03-29T07:03:17.999Z</time></trkpt><trkpt lat="42.07852816887876" lon="12.796015505859852"><ele>460.0</ele><time>2026-03-29T07:03:18.999Z</time></trkpt><trkpt lat="42.07852738884841" lon="12.796175748465384"><ele>460.0</ele><time>2026-03-29T07:03:19.999Z</time></trkpt><trkpt lat="42.078532185448815" lon="12.796295822859667"><ele>460.0</ele><time>2026-03-29T07:03:20.999Z</time></trkpt><trkpt lat="42.078538255335076" lon="12.796418155760469"><ele>460.0</ele><time>2026-03-29T07:03:22.999Z</time></trkpt><trkpt lat="42.07851243925933" lon="12.796653721147393"><ele>460.0</ele><time>2026-03-29T07:03:24.999Z</time></trkpt><trkpt lat="42.0785151121184" lon="12.796740382300266"><ele>460.0</ele><time>2026-03-29T07:03:25.999Z</time></trkpt><trkpt lat="42.07850235141695" lon="12.796834941557364"><ele>460.0</ele><time>2026-03-29T07:03:27.999Z</time></trkpt><trkpt lat="42.078475211970435" lon="12.796914982607001"><ele>460.0</ele><time>2026-03-29T07:03:30.999Z</time></trkpt><trkpt lat="42.078465267179375" lon="12.797048901457648"><ele>460.0</ele><time>2026-03-29T07:03:33.999Z</time></trkpt><trkpt lat="42.078453655878015" lon="12.797152628815276"><ele>460.0</ele><time>2026-03-29T07:03:34.999Z</time></trkpt><trkpt lat="42.07844646026928" lon="12.797294585554415"><ele>460.0</ele><time>2026-03-29T07:03:35.999Z</time></trkpt><trkpt lat="42.07851584617526" lon="12.797413641162445"><ele>460.0</ele><time>2026-03-29T07:03:36.999Z</time></trkpt><trkpt lat="42.07850761210227" lon="12.797499988330284"><ele>460.0</ele><time>2026-03-29T07:03:37.999Z</time></trkpt><trkpt lat="42.07853107075671" lon="12.797633248169872"><ele>460.42857142857133</ele><time>2026-03-29T07:03:39.999Z</time></trkpt><trkpt lat="42.07853872236957" lon="12.797725647854985"><ele>460.85714285714283</ele><time>2026-03-29T07:03:40.999Z</time></trkpt><trkpt lat="42.078556604938946" lon="12.797812110020963"><ele>461.2857142857142</ele><time>2026-03-29T07:03:42.999Z</time></trkpt><trkpt lat="42.07857990493354" lon="12.797892043198056"><ele>461.71428571428567</ele><time>2026-03-29T07:04:03Z</time></trkpt><trkpt lat="42.07856933671236" lon="12.7979816746107"><ele>462.1428571428571</ele><time>2026-03-29T07:04:05Z</time></trkpt><trkpt lat="42.078529862621814" lon="12.798096562549722"><ele>462.57142857142856</ele><time>2026-03-29T07:04:07Z</time></trkpt><trkpt lat="42.07849782092468" lon="12.798184135946252"><ele>463.0</ele><time>2026-03-29T07:04:08Z</time></trkpt><trkpt lat="42.07851750520215" lon="12.79829423814169"><ele>463.00000000000006</ele><time>2026-03-29T07:04:10Z</time></trkpt><trkpt lat="42.07855514546763" lon="12.798373264692744"><ele>463.0</ele><time>2026-03-29T07:04:11Z</time></trkpt><trkpt lat="42.078599243843335" lon="12.798469640462491"><ele>463.0</ele><time>2026-03-29T07:04:12Z</time></trkpt><trkpt lat="42.07866072270048" lon="12.798570080341234"><ele>463.0</ele><time>2026-03-29T07:04:13Z</time></trkpt><trkpt lat="42.07873732190974" lon="12.798661015112073"><ele>463.00000000000006</ele><time>2026-03-29T07:04:14Z</time></trkpt><trkpt lat="42.07879031613575" lon="12.79871245755735"><ele>463.0</ele><time>2026-03-29T07:04:15Z</time></trkpt><trkpt lat="42.0788586219006" lon="12.79875743339851"><ele>462.6666666666667</ele><time>2026-03-29T07:04:16Z</time></trkpt><trkpt lat="42.07891785143483" lon="12.79883524944196"><ele>462.33333333333337</ele><time>2026-03-29T07:04:17Z</time></trkpt><trkpt lat="42.07898805998531" lon="12.798887927506774"><ele>462.0</ele><time>2026-03-29T07:04:18Z</time></trkpt><trkpt lat="42.07903738411006" lon="12.79896217973152"><ele>461.66666666666663</ele><time>2026-03-29T07:04:19Z</time></trkpt><trkpt lat="42.0790745935848" lon="12.799055864796959"><ele>461.3333333333333</ele><time>2026-03-29T07:04:20Z</time></trkpt><trkpt lat="42.07911722230347" lon="12.79916154901075"><ele>461.0</ele><time>2026-03-29T07:04:21Z</time></trkpt><trkpt lat="42.07917322206695" lon="12.799243512977243"><ele>461.0</ele><time>2026-03-29T07:04:22Z</time></trkpt><trkpt lat="42.079227072153905" lon="12.799302157555784"><ele>461.0</ele><time>2026-03-29T07:04:23Z</time></trkpt><trkpt lat="42.07926915290191" lon="12.79936996895419"><ele>461.0</ele><time>2026-03-29T07:04:24Z</time></trkpt><trkpt lat="42.07930320996541" lon="12.79948790321243"><ele>461.0</ele><time>2026-03-29T07:04:25Z</time></trkpt><trkpt lat="42.079342028217866" lon="12.79958031808049"><ele>461.0</ele><time>2026-03-29T07:04:26Z</time></trkpt><trkpt lat="42.07939036664689" lon="12.799762327613216"><ele>461.99999999999994</ele><time>2026-03-29T07:04:28Z</time></trkpt><trkpt lat="42.079410614674735" lon="12.799860424227914"><ele>463.0</ele><time>2026-03-29T07:04:29Z</time></trkpt><trkpt lat="42.07943502347572" lon="12.799941916178305"><ele>464.0</ele><time>2026-03-29T07:04:30Z</time></trkpt><trkpt lat="42.07948916989141" lon="12.800057142023935"><ele>465.0</ele><time>2026-03-29T07:04:32Z</time></trkpt><trkpt lat="42.07948616789638" lon="12.800174008601525"><ele>465.99999999999994</ele><time>2026-03-29T07:04:34Z</time></trkpt><trkpt lat="42.07947831799279" lon="12.80028499029326"><ele>467.0</ele><time>2026-03-29T07:04:36Z</time></trkpt><trkpt lat="42.079467904031084" lon="12.800403386631197"><ele>467.6</ele><time>2026-03-29T07:04:38Z</time></trkpt><trkpt lat="42.079451338211086" lon="12.80052946483384"><ele>468.20000000000005</ele><time>2026-03-29T07:04:41Z</time></trkpt><trkpt lat="42.079418797232094" lon="12.800670597595436"><ele>468.8</ele><time>2026-03-29T07:04:43Z</time></trkpt><trkpt lat="42.07944494850981" lon="12.800790348447908"><ele>469.4</ele><time>2026-03-29T07:04:45Z</time></trkpt><trkpt lat="42.079453703635245" lon="12.800959846952141"><ele>470.0</ele><time>2026-03-29T07:04:46.999Z</time></trkpt><trkpt lat="42.07945058632511" lon="12.801091818907535"><ele>471.4</ele><time>2026-03-29T07:04:47.999Z</time></trkpt><trkpt lat="42.07945140024417" lon="12.801275564394757"><ele>472.8</ele><time>2026-03-29T07:04:49.999Z</time></trkpt><trkpt lat="42.07944925244331" lon="12.801380587166861"><ele>474.20000000000005</ele><time>2026-03-29T07:04:50.999Z</time></trkpt><trkpt lat="42.079436836036535" lon="12.801471613032545"><ele>475.6</ele><time>2026-03-29T07:04:51.999Z</time></trkpt><trkpt lat="42.079442510403894" lon="12.801640249479176"><ele>477.0</ele><time>2026-03-29T07:04:53.999Z</time></trkpt><trkpt lat="42.079427191647085" lon="12.801782166045301"><ele>477.6</ele><time>2026-03-29T07:04:54.999Z</time></trkpt><trkpt lat="42.07941351196792" lon="12.80192957206743"><ele>478.20000000000005</ele><time>2026-03-29T07:04:55.999Z</time></trkpt><trkpt lat="42.07940367752869" lon="12.802074206984695"><ele>478.8</ele><time>2026-03-29T07:04:56.999Z</time></trkpt><trkpt lat="42.079385961596266" lon="12.802211531718319"><ele>479.4</ele><time>2026-03-29T07:04:57.999Z</time></trkpt><trkpt lat="42.079377085260454" lon="12.80233383712804"><ele>480.0</ele><time>2026-03-29T07:04:58.999Z</time></trkpt><trkpt lat="42.07937220637732" lon="12.80242531562672"><ele>480.0</ele><time>2026-03-29T07:04:59.999Z</time></trkpt><trkpt lat="42.079330716740834" lon="12.80254933314856"><ele>480.0</ele><time>2026-03-29T07:05:02.999Z</time></trkpt><trkpt lat="42.079307342457454" lon="12.802669171990605"><ele>480.0</ele><time>2026-03-29T07:05:03.999Z</time></trkpt><trkpt lat="42.079304188301506" lon="12.802789237603834"><ele>480.0</ele><time>2026-03-29T07:05:04.999Z</time></trkpt><trkpt lat="42.079302992986335" lon="12.802875781844469"><ele>480.0</ele><time>2026-03-29T07:05:05.999Z</time></trkpt><trkpt lat="42.07929481202245" lon="12.803061357836981"><ele>480.1666666666667</ele><time>2026-03-29T07:05:07.999Z</time></trkpt><trkpt lat="42.079292424741745" lon="12.803149947924895"><ele>480.33333333333337</ele><time>2026-03-29T07:05:08.999Z</time></trkpt><trkpt lat="42.079300176827935" lon="12.80328894815375"><ele>480.5</ele><time>2026-03-29T07:05:11.999Z</time></trkpt><trkpt lat="42.07930421546299" lon="12.803405180154368"><ele>480.6666666666667</ele><time>2026-03-29T07:05:12.999Z</time></trkpt><trkpt lat="42.07928244445183" lon="12.80350329610924"><ele>480.83333333333337</ele><time>2026-03-29T07:05:13.999Z</time></trkpt><trkpt lat="42.07926693646302" lon="12.803638579500092"><ele>481.0</ele><time>2026-03-29T07:05:15.999Z</time></trkpt><trkpt lat="42.0792368585574" lon="12.803741122829424"><ele>480.6666666666667</ele><time>2026-03-29T07:05:17.999Z</time></trkpt><trkpt lat="42.07918587879841" lon="12.803795367961444"><ele>480.33333333333337</ele><time>2026-03-29T07:05:18.999Z</time></trkpt><trkpt lat="42.07911976888573" lon="12.803875328652573"><ele>480.0</ele><time>2026-03-29T07:05:19.999Z</time></trkpt><trkpt lat="42.079043309416555" lon="12.803985627631143"><ele>479.66666666666663</ele><time>2026-03-29T07:05:20.999Z</time></trkpt><trkpt lat="42.07902557839177" lon="12.804103148216683"><ele>479.3333333333333</ele><time>2026-03-29T07:05:22.999Z</time></trkpt><trkpt lat="42.079062672102644" lon="12.804188905214104"><ele>479.0</ele><time>2026-03-29T07:05:23.999Z</time></trkpt><trkpt lat="42.07907414596172" lon="12.804335075925865"><ele>478.8333333333333</ele><time>2026-03-29T07:05:25.999Z</time></trkpt><trkpt lat="42.079113489851764" lon="12.804435846357611"><ele>478.66666666666663</ele><time>2026-03-29T07:05:26.999Z</time></trkpt><trkpt lat="42.079151031251584" lon="12.804514557576367"><ele>478.5</ele><time>2026-03-29T07:05:27.999Z</time></trkpt><trkpt lat="42.079135963537915" lon="12.804611795476772"><ele>478.33333333333337</ele><time>2026-03-29T07:05:29.999Z</time></trkpt><trkpt lat="42.07910906857833" lon="12.804759610632875"><ele>478.1666666666667</ele><time>2026-03-29T07:05:31.999Z</time></trkpt><trkpt lat="42.0790527859108" lon="12.804847205412795"><ele>478.0</ele><time>2026-03-29T07:05:34.999Z</time></trkpt><trkpt lat="42.079040170088156" lon="12.804972871899817"><ele>482.4</ele><time>2026-03-29T07:05:38.999Z</time></trkpt><trkpt lat="42.07903805536737" lon="12.805068859954439"><ele>486.79999999999995</ele><time>2026-03-29T07:05:40.999Z</time></trkpt><trkpt lat="42.07901672649447" lon="12.805192237287157"><ele>491.2</ele><time>2026-03-29T07:05:42.999Z</time></trkpt><trkpt lat="42.078993158521996" lon="12.805344099679218"><ele>495.6</ele><time>2026-03-29T07:05:44.999Z</time></trkpt><trkpt lat="42.07897010097272" lon="12.805459788109479"><ele>500.0</ele><time>2026-03-29T07:05:46.999Z</time></trkpt><trkpt lat="42.07889371677652" lon="12.80565310978263"><ele>500.0</ele><time>2026-03-29T07:05:48.999Z</time></trkpt><trkpt lat="42.07884677423171" lon="12.805734899764289"><ele>500.0</ele><time>2026-03-29T07:05:50.999Z</time></trkpt><trkpt lat="42.07882054008815" lon="12.805864124188973"><ele>500.0</ele><time>2026-03-29T07:05:52.999Z</time></trkpt><trkpt lat="42.07880573562725" lon="12.806036255903182"><ele>500.0</ele><time>2026-03-29T07:05:54.999Z</time></trkpt><trkpt lat="42.07880130181144" lon="12.806144986302318"><ele>500.0</ele><time>2026-03-29T07:05:55.999Z</time></trkpt><trkpt lat="42.0787925510133" lon="12.80626664748816"><ele>498.99999999999994</ele><time>2026-03-29T07:05:56.999Z</time></trkpt><trkpt lat="42.07878500611613" lon="12.806370738639238"><ele>498.0</ele><time>2026-03-29T07:05:57.999Z</time></trkpt><trkpt lat="42.07877447409188" lon="12.806469763230297"><ele>497.0</ele><time>2026-03-29T07:05:58.999Z</time></trkpt><trkpt lat="42.07875789299781" lon="12.806559519949396"><ele>496.0</ele><time>2026-03-29T07:05:59.999Z</time></trkpt><trkpt lat="42.07873804948367" lon="12.806652088082753"><ele>494.99999999999994</ele><time>2026-03-29T07:06:01Z</time></trkpt><trkpt lat="42.07869748971234" lon="12.80677852070967"><ele>494.0</ele><time>2026-03-29T07:06:02Z</time></trkpt><trkpt lat="42.07863582762024" lon="12.806893030993"><ele>492.8333333333333</ele><time>2026-03-29T07:06:03Z</time></trkpt><trkpt lat="42.07858308898107" lon="12.806989012994293"><ele>491.66666666666663</ele><time>2026-03-29T07:06:04Z</time></trkpt><trkpt lat="42.07852622980018" lon="12.807083167716595"><ele>490.5</ele><time>2026-03-29T07:06:05Z</time></trkpt><trkpt lat="42.07846819035453" lon="12.807174250675494"><ele>489.33333333333337</ele><time>2026-03-29T07:06:06Z</time></trkpt><trkpt lat="42.07840696472079" lon="12.807258493651082"><ele>488.1666666666667</ele><time>2026-03-29T07:06:07Z</time></trkpt><trkpt lat="42.078344220489534" lon="12.807352141316484"><ele>487.0</ele><time>2026-03-29T07:06:08Z</time></trkpt><trkpt lat="42.07827610794735" lon="12.80747514025582"><ele>490.6666666666667</ele><time>2026-03-29T07:06:09Z</time></trkpt><trkpt lat="42.07823996829646" lon="12.807565735380054"><ele>494.33333333333337</ele><time>2026-03-29T07:06:10Z</time></trkpt><trkpt lat="42.07823145542879" lon="12.807672947588774"><ele>498.0</ele><time>2026-03-29T07:06:11Z</time></trkpt><trkpt lat="42.078244065101096" lon="12.807782352627997"><ele>501.66666666666663</ele><time>2026-03-29T07:06:12Z</time></trkpt><trkpt lat="42.07824068661121" lon="12.80788955711608"><ele>505.3333333333333</ele><time>2026-03-29T07:06:13Z</time></trkpt><trkpt lat="42.07825763775527" lon="12.80798090103867"><ele>509.0</ele><time>2026-03-29T07:06:14Z</time></trkpt><trkpt lat="42.07824163950981" lon="12.808126808749972"><ele>509.79999999999995</ele><time>2026-03-29T07:06:16Z</time></trkpt><trkpt lat="42.078180234546835" lon="12.808177917462045"><ele>510.59999999999997</ele><time>2026-03-29T07:06:18Z</time></trkpt><trkpt lat="42.078157804295984" lon="12.80828223068183"><ele>511.4</ele><time>2026-03-29T07:06:19Z</time></trkpt><trkpt lat="42.07821889401607" lon="12.808438754389718"><ele>512.1999999999999</ele><time>2026-03-29T07:06:21Z</time></trkpt><trkpt lat="42.07828059687759" lon="12.808610751679149"><ele>513.0</ele><time>2026-03-29T07:06:23Z</time></trkpt><trkpt lat="42.07830109041942" lon="12.808713888669155"><ele>510.4</ele><time>2026-03-29T07:06:24Z</time></trkpt><trkpt lat="42.07833295447237" lon="12.808817709151459"><ele>507.79999999999995</ele><time>2026-03-29T07:06:25Z</time></trkpt><trkpt lat="42.07840045081155" lon="12.8088874637177"><ele>505.2</ele><time>2026-03-29T07:06:26Z</time></trkpt><trkpt lat="42.078528620120025" lon="12.808946648396663"><ele>502.6</ele><time>2026-03-29T07:06:28Z</time></trkpt><trkpt lat="42.078603994676385" lon="12.808946019135341"><ele>500.0</ele><time>2026-03-29T07:06:29Z</time></trkpt><trkpt lat="42.07869734856583" lon="12.809023319456216"><ele>500.0</ele><time>2026-03-29T07:06:31Z</time></trkpt><trkpt lat="42.07875297361578" lon="12.809121537756594"><ele>500.0</ele><time>2026-03-29T07:06:32Z</time></trkpt><trkpt lat="42.07881738004252" lon="12.80920230192852"><ele>500.0</ele><time>2026-03-29T07:06:33Z</time></trkpt><trkpt lat="42.07888261084754" lon="12.80925690956175"><ele>500.0</ele><time>2026-03-29T07:06:34Z</time></trkpt><trkpt lat="42.078971251515156" lon="12.80936995010973"><ele>500.0</ele><time>2026-03-29T07:06:36Z</time></trkpt><trkpt lat="42.079019063924974" lon="12.809450105126592"><ele>498.99999999999994</ele><time>2026-03-29T07:06:37Z</time></trkpt><trkpt lat="42.07906682862175" lon="12.80952829183704"><ele>498.0</ele><time>2026-03-29T07:06:38Z</time></trkpt><trkpt lat="42.07910231824542" lon="12.80960186548852"><ele>497.0</ele><time>2026-03-29T07:06:39Z</time></trkpt><trkpt lat="42.079125219254294" lon="12.809738500224432"><ele>496.0</ele><time>2026-03-29T07:06:41Z</time></trkpt><trkpt lat="42.07913890500184" lon="12.809877332192334"><ele>494.99999999999994</ele><time>2026-03-29T07:06:42.999Z</time></trkpt><trkpt lat="42.07915424888756" lon="12.80996972328944"><ele>494.0</ele><time>2026-03-29T07:06:43.999Z</time></trkpt><trkpt lat="42.07917488461386" lon="12.810076080173063"><ele>495.3333333333333</ele><time>2026-03-29T07:06:44.999Z</time></trkpt><trkpt lat="42.079211859707755" lon="12.810201832298677"><ele>496.66666666666663</ele><time>2026-03-29T07:06:45.999Z</time></trkpt><trkpt lat="42.07923798054356" lon="12.81030892347004"><ele>498.0</ele><time>2026-03-29T07:06:46.999Z</time></trkpt><trkpt lat="42.0792659407775" lon="12.81039367288474"><ele>499.33333333333337</ele><time>2026-03-29T07:06:47.999Z</time></trkpt><trkpt lat="42.07929635790223" lon="12.810512871098402"><ele>500.6666666666667</ele><time>2026-03-29T07:06:49.999Z</time></trkpt><trkpt lat="42.07926512990456" lon="12.810634536644864"><ele>502.0</ele><time>2026-03-29T07:06:51.999Z</time></trkpt><trkpt lat="42.07924134011517" lon="12.810718687071457"><ele>502.0</ele><time>2026-03-29T07:06:52.999Z</time></trkpt><trkpt lat="42.079233643050344" lon="12.810869419211521"><ele>502.00000000000006</ele><time>2026-03-29T07:06:54.999Z</time></trkpt><trkpt lat="42.07922700309095" lon="12.810959284988275"><ele>502.00000000000006</ele><time>2026-03-29T07:06:55.999Z</time></trkpt><trkpt lat="42.079193420699454" lon="12.811032204455914"><ele>502.0</ele><time>2026-03-29T07:06:57.999Z</time></trkpt><trkpt lat="42.07920539972635" lon="12.811153457108293"><ele>502.0</ele><time>2026-03-29T07:06:59.999Z</time></trkpt><trkpt lat="42.07929403878499" lon="12.811279906928183"><ele>502.1666666666667</ele><time>2026-03-29T07:08:13Z</time></trkpt><trkpt lat="42.07936602022244" lon="12.811289138910162"><ele>502.33333333333337</ele><time>2026-03-29T07:08:18Z</time></trkpt><trkpt lat="42.07944071571872" lon="12.811286709375707"><ele>502.5</ele><time>2026-03-29T07:08:26Z</time></trkpt><trkpt lat="42.07948091335362" lon="12.811353606060363"><ele>502.66666666666663</ele><time>2026-03-29T07:08:41.999Z</time></trkpt><trkpt lat="42.07954764226113" lon="12.811422188821647"><ele>502.8333333333333</ele><time>2026-03-29T07:08:45.999Z</time></trkpt><trkpt lat="42.079496744751076" lon="12.811513162439184"><ele>503.0</ele><time>2026-03-29T07:09:01.999Z</time></trkpt><trkpt lat="42.0794671733675" lon="12.811696244508726"><ele>503.0</ele><time>2026-03-29T07:09:03.999Z</time></trkpt><trkpt lat="42.07945963246339" lon="12.811792513790031"><ele>502.99999999999994</ele><time>2026-03-29T07:09:04.999Z</time></trkpt><trkpt lat="42.079444743076245" lon="12.811933943993655"><ele>502.99999999999994</ele><time>2026-03-29T07:09:05.999Z</time></trkpt><trkpt lat="42.07941069644645" lon="12.812099973855489"><ele>503.0</ele><time>2026-03-29T07:09:06.999Z</time></trkpt><trkpt lat="42.07938520646286" lon="12.81226315232694"><ele>503.0</ele><time>2026-03-29T07:09:07.999Z</time></trkpt><trkpt lat="42.07936555342664" lon="12.81246240574342"><ele>503.0</ele><time>2026-03-29T07:09:08.999Z</time></trkpt><trkpt lat="42.079353001686776" lon="12.812605616812741"><ele>502.99999999999994</ele><time>2026-03-29T07:09:09.999Z</time></trkpt><trkpt lat="42.07935881612909" lon="12.812702304561062"><ele>502.99999999999994</ele><time>2026-03-29T07:09:10.999Z</time></trkpt><trkpt lat="42.07942919174061" lon="12.812857225820736"><ele>503.0</ele><time>2026-03-29T07:09:12.999Z</time></trkpt><trkpt lat="42.07948570037851" lon="12.812948739575743"><ele>503.0</ele><time>2026-03-29T07:09:13.999Z</time></trkpt><trkpt lat="42.07955689846415" lon="12.813090864846364"><ele>502.79999999999995</ele><time>2026-03-29T07:09:14.999Z</time></trkpt><trkpt lat="42.07961011565343" lon="12.813187807401162"><ele>502.59999999999997</ele><time>2026-03-29T07:09:15.999Z</time></trkpt><trkpt lat="42.079648218990805" lon="12.813297457590407"><ele>502.40000000000003</ele><time>2026-03-29T07:09:16.999Z</time></trkpt><trkpt lat="42.079670693706944" lon="12.813435969390715"><ele>502.20000000000005</ele><time>2026-03-29T07:09:17.999Z</time></trkpt><trkpt lat="42.07970477324808" lon="12.813583725781834"><ele>502.0</ele><time>2026-03-29T07:09:18.999Z</time></trkpt><trkpt lat="42.079719515991336" lon="12.813683376466962"><ele>502.00000000000006</ele><time>2026-03-29T07:09:19.999Z</time></trkpt><trkpt lat="42.079737486388815" lon="12.813777007662454"><ele>502.0</ele><time>2026-03-29T07:09:20.999Z</time></trkpt><trkpt lat="42.07976105712268" lon="12.81385796249439"><ele>502.0</ele><time>2026-03-29T07:09:21.999Z</time></trkpt><trkpt lat="42.07980958924376" lon="12.814028818954187"><ele>502.0</ele><time>2026-03-29T07:09:33.999Z</time></trkpt><trkpt lat="42.079832743850446" lon="12.814121005599583"><ele>502.00000000000006</ele><time>2026-03-29T07:09:34.999Z</time></trkpt><trkpt lat="42.07985330829572" lon="12.814244309161236"><ele>502.0</ele><time>2026-03-29T07:09:35.999Z</time></trkpt><trkpt lat="42.07987863581819" lon="12.81438683485937"><ele>503.0</ele><time>2026-03-29T07:09:36.999Z</time></trkpt><trkpt lat="42.07992188729005" lon="12.814534447263355"><ele>504.0</ele><time>2026-03-29T07:09:37.999Z</time></trkpt><trkpt lat="42.08000183553982" lon="12.81466421780106"><ele>505.0</ele><time>2026-03-29T07:09:38.999Z</time></trkpt><trkpt lat="42.08010580692296" lon="12.81479481714402"><ele>506.0</ele><time>2026-03-29T07:09:39.999Z</time></trkpt><trkpt lat="42.08019588226607" lon="12.814915993502513"><ele>503.6</ele><time>2026-03-29T07:09:40.999Z</time></trkpt><trkpt lat="42.08027221820717" lon="12.815014821111822"><ele>501.20000000000005</ele><time>2026-03-29T07:09:41.999Z</time></trkpt><trkpt lat="42.080340433867356" lon="12.815112363699239"><ele>498.79999999999995</ele><time>2026-03-29T07:09:42.999Z</time></trkpt><trkpt lat="42.0804130011982" lon="12.815204366130995"><ele>496.4</ele><time>2026-03-29T07:09:43.999Z</time></trkpt><trkpt lat="42.0805188901769" lon="12.815273109362428"><ele>494.0</ele><time>2026-03-29T07:09:44.999Z</time></trkpt><trkpt lat="42.080559837358486" lon="12.815403948451927"><ele>494.0</ele><time>2026-03-29T07:09:46.999Z</time></trkpt><trkpt lat="42.08055750914712" lon="12.815490748092376"><ele>494.0</ele><time>2026-03-29T07:09:47.999Z</time></trkpt><trkpt lat="42.08058336843997" lon="12.815596222361501"><ele>494.0</ele><time>2026-03-29T07:09:49.999Z</time></trkpt><trkpt lat="42.08059725926703" lon="12.815709120356892"><ele>494.0</ele><time>2026-03-29T07:09:50.999Z</time></trkpt><trkpt lat="42.08062011120266" lon="12.815851516849403"><ele>494.0</ele><time>2026-03-29T07:09:51.999Z</time></trkpt><trkpt lat="42.08065319400564" lon="12.816021635919071"><ele>495.2</ele><time>2026-03-29T07:09:52.999Z</time></trkpt><trkpt lat="42.0806826031503" lon="12.816179778053415"><ele>496.4</ele><time>2026-03-29T07:09:53.999Z</time></trkpt><trkpt lat="42.08069663032538" lon="12.81628484476706"><ele>497.6</ele><time>2026-03-29T07:09:54.999Z</time></trkpt><trkpt lat="42.080683193442866" lon="12.81638920229298"><ele>498.8</ele><time>2026-03-29T07:09:55.999Z</time></trkpt><trkpt lat="42.080661870255774" lon="12.816522106813203"><ele>500.0</ele><time>2026-03-29T07:09:56.999Z</time></trkpt><trkpt lat="42.08064108894242" lon="12.816646714545596"><ele>500.0</ele><time>2026-03-29T07:09:57.999Z</time></trkpt><trkpt lat="42.08061125132679" lon="12.816769444084056"><ele>500.0</ele><time>2026-03-29T07:09:58.999Z</time></trkpt><trkpt lat="42.080611960498786" lon="12.816885761549841"><ele>500.0</ele><time>2026-03-29T07:09:59.999Z</time></trkpt><trkpt lat="42.08063547999165" lon="12.817007576189827"><ele>500.0</ele><time>2026-03-29T07:10:00.999Z</time></trkpt><trkpt lat="42.08065479012456" lon="12.817118260072812"><ele>500.0</ele><time>2026-03-29T07:10:01.999Z</time></trkpt><trkpt lat="42.080702801710174" lon="12.817238840888985"><ele>500.4</ele><time>2026-03-29T07:10:03.999Z</time></trkpt><trkpt lat="42.080757879136605" lon="12.817398905373672"><ele>500.8</ele><time>2026-03-29T07:10:05.999Z</time></trkpt><trkpt lat="42.08075867455496" lon="12.817531603702717"><ele>501.20000000000005</ele><time>2026-03-29T07:10:06.999Z</time></trkpt><trkpt lat="42.08077661575253" lon="12.81765675775406"><ele>501.6</ele><time>2026-03-29T07:10:07.999Z</time></trkpt><trkpt lat="42.080795249826146" lon="12.817793901872605"><ele>502.0</ele><time>2026-03-29T07:10:08.999Z</time></trkpt><trkpt lat="42.08080562759282" lon="12.817942430478107"><ele>502.25</ele><time>2026-03-29T07:10:09.999Z</time></trkpt><trkpt lat="42.0808024924832" lon="12.818110418848212"><ele>502.5</ele><time>2026-03-29T07:10:10.999Z</time></trkpt><trkpt lat="42.08082573518107" lon="12.818273753204087"><ele>502.75</ele><time>2026-03-29T07:10:11.999Z</time></trkpt><trkpt lat="42.080849229435344" lon="12.818434234980945"><ele>503.0</ele><time>2026-03-29T07:10:13Z</time></trkpt><trkpt lat="42.080901058155945" lon="12.818560493137051"><ele>503.0</ele><time>2026-03-29T07:10:14Z</time></trkpt><trkpt lat="42.08097242361882" lon="12.818671629371444"><ele>503.0</ele><time>2026-03-29T07:10:15Z</time></trkpt><trkpt lat="42.081044397129155" lon="12.818772475358728"><ele>503.0</ele><time>2026-03-29T07:10:16Z</time></trkpt><trkpt lat="42.08112778547989" lon="12.818905444845702"><ele>503.0</ele><time>2026-03-29T07:10:17Z</time></trkpt><trkpt lat="42.08121412767578" lon="12.819036283174073"><ele>503.0</ele><time>2026-03-29T07:10:18Z</time></trkpt><trkpt lat="42.08130170216556" lon="12.819128030228292"><ele>503.0</ele><time>2026-03-29T07:10:19Z</time></trkpt><trkpt lat="42.08140917284518" lon="12.819207667167483"><ele>503.0</ele><time>2026-03-29T07:10:20Z</time></trkpt><trkpt lat="42.08150312736263" lon="12.81930873985502"><ele>503.0</ele><time>2026-03-29T07:10:21Z</time></trkpt><trkpt lat="42.08163216324753" lon="12.819382473153572"><ele>505.0</ele><time>2026-03-29T07:10:22Z</time></trkpt><trkpt lat="42.08176007764269" lon="12.819446817864305"><ele>506.99999999999994</ele><time>2026-03-29T07:10:23Z</time></trkpt><trkpt lat="42.08188458793382" lon="12.819473914430452"><ele>508.99999999999994</ele><time>2026-03-29T07:10:24Z</time></trkpt><trkpt lat="42.08194891400168" lon="12.819473560411085"><ele>511.0</ele><time>2026-03-29T07:10:25Z</time></trkpt><trkpt lat="42.082059899377604" lon="12.81949301248642"><ele>513.0</ele><time>2026-03-29T07:10:26Z</time></trkpt><trkpt lat="42.0821379477778" lon="12.819476096980145"><ele>513.0</ele><time>2026-03-29T07:10:27Z</time></trkpt><trkpt lat="42.08222208896509" lon="12.819424296563204"><ele>513.0</ele><time>2026-03-29T07:10:28Z</time></trkpt><trkpt lat="42.0823247021389" lon="12.819378399798937"><ele>513.0</ele><time>2026-03-29T07:10:29Z</time></trkpt><trkpt lat="42.08242263103779" lon="12.819353590823598"><ele>513.0</ele><time>2026-03-29T07:10:30Z</time></trkpt><trkpt lat="42.08252570358458" lon="12.81935335731969"><ele>513.0</ele><time>2026-03-29T07:10:31Z</time></trkpt><trkpt lat="42.082658482091325" lon="12.819332977946818"><ele>517.25</ele><time>2026-03-29T07:10:32Z</time></trkpt><trkpt lat="42.082776976474975" lon="12.819264541050742"><ele>521.5</ele><time>2026-03-29T07:10:33Z</time></trkpt><trkpt lat="42.08290565611105" lon="12.819190499170828"><ele>525.75</ele><time>2026-03-29T07:10:34Z</time></trkpt><trkpt lat="42.083044763121" lon="12.819161723801255"><ele>530.0</ele><time>2026-03-29T07:10:35Z</time></trkpt><trkpt lat="42.08316253168739" lon="12.819117610483055"><ele>531.5</ele><time>2026-03-29T07:10:36Z</time></trkpt><trkpt lat="42.083296408256686" lon="12.819079674275896"><ele>533.0</ele><time>2026-03-29T07:10:37Z</time></trkpt><trkpt lat="42.08342706812672" lon="12.818998148280357"><ele>534.5</ele><time>2026-03-29T07:10:38Z</time></trkpt><trkpt lat="42.083551326436215" lon="12.818931694704377"><ele>536.0</ele><time>2026-03-29T07:10:39Z</time></trkpt><trkpt lat="42.083677279365794" lon="12.818847144389858"><ele>536.0</ele><time>2026-03-29T07:10:40Z</time></trkpt><trkpt lat="42.083794463456805" lon="12.818755819809619"><ele>536.0</ele><time>2026-03-29T07:10:41Z</time></trkpt><trkpt lat="42.08391199962509" lon="12.818657244047008"><ele>536.0</ele><time>2026-03-29T07:10:42Z</time></trkpt><trkpt lat="42.08404419458181" lon="12.81853827271185"><ele>536.0</ele><time>2026-03-29T07:10:43Z</time></trkpt><trkpt lat="42.084180863148134" lon="12.81846127249551"><ele>539.25</ele><time>2026-03-29T07:10:44Z</time></trkpt><trkpt lat="42.084313494489294" lon="12.818407320647005"><ele>542.5</ele><time>2026-03-29T07:10:45Z</time></trkpt><trkpt lat="42.08443007430786" lon="12.818343850751594"><ele>545.75</ele><time>2026-03-29T07:10:46Z</time></trkpt><trkpt lat="42.08455238252959" lon="12.818284092748762"><ele>549.0</ele><time>2026-03-29T07:10:46.999Z</time></trkpt><trkpt lat="42.08467092911225" lon="12.818194364996387"><ele>549.0</ele><time>2026-03-29T07:10:47.999Z</time></trkpt><trkpt lat="42.084767928936614" lon="12.818121628691484"><ele>549.0</ele><time>2026-03-29T07:10:48.999Z</time></trkpt><trkpt lat="42.08487392720702" lon="12.818018758806344"><ele>549.0</ele><time>2026-03-29T07:10:49.999Z</time></trkpt><trkpt lat="42.08499058697359" lon="12.817934605434052"><ele>549.0</ele><time>2026-03-29T07:10:50.999Z</time></trkpt><trkpt lat="42.085106660906675" lon="12.817832972818342"><ele>549.8</ele><time>2026-03-29T07:10:51.999Z</time></trkpt><trkpt lat="42.08518994059069" lon="12.817712950985676"><ele>550.5999999999999</ele><time>2026-03-29T07:10:52.999Z</time></trkpt><trkpt lat="42.08527660085418" lon="12.817607482926142"><ele>551.4</ele><time>2026-03-29T07:10:53.999Z</time></trkpt><trkpt lat="42.08536085913078" lon="12.817535341022849"><ele>552.1999999999999</ele><time>2026-03-29T07:10:54.999Z</time></trkpt><trkpt lat="42.08544171941789" lon="12.817440524469733"><ele>553.0</ele><time>2026-03-29T07:10:55.999Z</time></trkpt><trkpt lat="42.085518723400256" lon="12.817362887785182"><ele>556.25</ele><time>2026-03-29T07:10:56.999Z</time></trkpt><trkpt lat="42.085630733299524" lon="12.817272418386047"><ele>559.5</ele><time>2026-03-29T07:10:57.999Z</time></trkpt><trkpt lat="42.08570565845273" lon="12.817156395583764"><ele>562.75</ele><time>2026-03-29T07:10:58.999Z</time></trkpt><trkpt lat="42.08577685478845" lon="12.817068306931382"><ele>566.0</ele><time>2026-03-29T07:10:59.999Z</time></trkpt><trkpt lat="42.08586306662853" lon="12.816975795843673"><ele>566.0</ele><time>2026-03-29T07:11:00.999Z</time></trkpt><trkpt lat="42.08594448151759" lon="12.81687762629528"><ele>566.0</ele><time>2026-03-29T07:11:01.999Z</time></trkpt><trkpt lat="42.08601680532241" lon="12.816751487321701"><ele>566.0</ele><time>2026-03-29T07:11:02.999Z</time></trkpt><trkpt lat="42.08609693216029" lon="12.816628558626432"><ele>566.0</ele><time>2026-03-29T07:11:03.999Z</time></trkpt><trkpt lat="42.086195570617846" lon="12.816487847987192"><ele>569.0</ele><time>2026-03-29T07:11:04.999Z</time></trkpt><trkpt lat="42.08629744664763" lon="12.816360619811505"><ele>572.0</ele><time>2026-03-29T07:11:05.999Z</time></trkpt><trkpt lat="42.086415511967395" lon="12.816259515429534"><ele>575.0</ele><time>2026-03-29T07:11:06.999Z</time></trkpt><trkpt lat="42.08655110294277" lon="12.816149056439361"><ele>578.0</ele><time>2026-03-29T07:11:07.999Z</time></trkpt><trkpt lat="42.08666139306423" lon="12.816000857782374"><ele>582.75</ele><time>2026-03-29T07:11:08.999Z</time></trkpt><trkpt lat="42.08677677055352" lon="12.815928840040801"><ele>587.5</ele><time>2026-03-29T07:11:09.999Z</time></trkpt><trkpt lat="42.08693315206533" lon="12.81587190382152"><ele>592.25</ele><time>2026-03-29T07:11:10.999Z</time></trkpt><trkpt lat="42.087028496760546" lon="12.815847919632482"><ele>597.0</ele><time>2026-03-29T07:11:11.999Z</time></trkpt><trkpt lat="42.087154417424415" lon="12.815819718065955"><ele>597.0</ele><time>2026-03-29T07:11:13.999Z</time></trkpt><trkpt lat="42.08727942287072" lon="12.815735001971838"><ele>597.0</ele><time>2026-03-29T07:11:14.999Z</time></trkpt><trkpt lat="42.08740516198252" lon="12.815669239968537"><ele>597.0</ele><time>2026-03-29T07:11:15.999Z</time></trkpt><trkpt lat="42.08751214393517" lon="12.815614587966929"><ele>597.0</ele><time>2026-03-29T07:11:16.999Z</time></trkpt><trkpt lat="42.087611494276686" lon="12.815556221599058"><ele>595.75</ele><time>2026-03-29T07:11:17.999Z</time></trkpt><trkpt lat="42.08772122908309" lon="12.815459522060648"><ele>594.5</ele><time>2026-03-29T07:11:18.999Z</time></trkpt><trkpt lat="42.08782895236787" lon="12.81538490697963"><ele>593.25</ele><time>2026-03-29T07:11:19.999Z</time></trkpt><trkpt lat="42.087937354496454" lon="12.815316833700521"><ele>592.0</ele><time>2026-03-29T07:11:20.999Z</time></trkpt><trkpt lat="42.08804365437345" lon="12.815234271067105"><ele>592.0</ele><time>2026-03-29T07:11:21.999Z</time></trkpt><trkpt lat="42.08815832816786" lon="12.815166689850708"><ele>592.0</ele><time>2026-03-29T07:11:22.999Z</time></trkpt><trkpt lat="42.08826286229853" lon="12.815095606605778"><ele>592.0</ele><time>2026-03-29T07:11:23.999Z</time></trkpt><trkpt lat="42.088381369423615" lon="12.815060513661363"><ele>592.0</ele><time>2026-03-29T07:11:24.999Z</time></trkpt><trkpt lat="42.08850348007021" lon="12.815001109971378"><ele>596.5</ele><time>2026-03-29T07:11:25.999Z</time></trkpt><trkpt lat="42.08863633775629" lon="12.814941721015748"><ele>601.0</ele><time>2026-03-29T07:11:26.999Z</time></trkpt><trkpt lat="42.08876478916103" lon="12.8148794122241"><ele>605.5</ele><time>2026-03-29T07:11:27.999Z</time></trkpt><trkpt lat="42.08888313942802" lon="12.81483791901919"><ele>610.0</ele><time>2026-03-29T07:11:28.999Z</time></trkpt><trkpt lat="42.08900430929889" lon="12.814797787473806"><ele>609.25</ele><time>2026-03-29T07:11:29.999Z</time></trkpt><trkpt lat="42.08911087072616" lon="12.814741052532767"><ele>608.5</ele><time>2026-03-29T07:11:30.999Z</time></trkpt><trkpt lat="42.08922714598314" lon="12.814680592884839"><ele>607.75</ele><time>2026-03-29T07:11:31.999Z</time></trkpt><trkpt lat="42.08934151751833" lon="12.81462438423042"><ele>607.0</ele><time>2026-03-29T07:11:32.999Z</time></trkpt><trkpt lat="42.08945659992745" lon="12.8145739942629"><ele>607.0</ele><time>2026-03-29T07:11:33.999Z</time></trkpt><trkpt lat="42.089576213385776" lon="12.814526114245142"><ele>607.0</ele><time>2026-03-29T07:11:34.999Z</time></trkpt><trkpt lat="42.08968754757543" lon="12.814471537438976"><ele>607.0</ele><time>2026-03-29T07:11:35.999Z</time></trkpt><trkpt lat="42.08980041453199" lon="12.81442650182214"><ele>607.0</ele><time>2026-03-29T07:11:36.999Z</time></trkpt><trkpt lat="42.08993204678464" lon="12.814400088931292"><ele>609.25</ele><time>2026-03-29T07:11:37.999Z</time></trkpt><trkpt lat="42.09008076354255" lon="12.814387630389586"><ele>611.5</ele><time>2026-03-29T07:11:38.999Z</time></trkpt><trkpt lat="42.09022161645972" lon="12.814391068566792"><ele>613.75</ele><time>2026-03-29T07:11:39.999Z</time></trkpt><trkpt lat="42.09036411796588" lon="12.814374189051119"><ele>616.0</ele><time>2026-03-29T07:11:40.999Z</time></trkpt><trkpt lat="42.090498864326705" lon="12.814378822081522"><ele>616.0</ele><time>2026-03-29T07:11:41.999Z</time></trkpt><trkpt lat="42.09062347233607" lon="12.814397175525032"><ele>616.0</ele><time>2026-03-29T07:11:42.999Z</time></trkpt><trkpt lat="42.09073930012803" lon="12.814405622008229"><ele>616.0</ele><time>2026-03-29T07:11:43.999Z</time></trkpt><trkpt lat="42.0908502343267" lon="12.81439376347208"><ele>616.0</ele><time>2026-03-29T07:11:44.999Z</time></trkpt><trkpt lat="42.09097388401103" lon="12.814379931828755"><ele>619.0</ele><time>2026-03-29T07:11:45.999Z</time></trkpt><trkpt lat="42.091097905653655" lon="12.814362866038797"><ele>622.0</ele><time>2026-03-29T07:11:46.999Z</time></trkpt><trkpt lat="42.091219543347755" lon="12.814358902297942"><ele>625.0</ele><time>2026-03-29T07:11:47.999Z</time></trkpt><trkpt lat="42.09133789367533" lon="12.814369529133785"><ele>628.0</ele><time>2026-03-29T07:11:48.999Z</time></trkpt><trkpt lat="42.09144829573102" lon="12.814364320746495"><ele>628.0</ele><time>2026-03-29T07:11:49.999Z</time></trkpt><trkpt lat="42.0915602515129" lon="12.814354598765595"><ele>628.0</ele><time>2026-03-29T07:11:50.999Z</time></trkpt><trkpt lat="42.09167723245142" lon="12.814360081742755"><ele>628.0</ele><time>2026-03-29T07:11:51.999Z</time></trkpt><trkpt lat="42.09180330875322" lon="12.81435935984663"><ele>628.0</ele><time>2026-03-29T07:11:52.999Z</time></trkpt><trkpt lat="42.0919243410357" lon="12.81436400979513"><ele>629.75</ele><time>2026-03-29T07:11:53.999Z</time></trkpt><trkpt lat="42.09204629257466" lon="12.81436650222312"><ele>631.5</ele><time>2026-03-29T07:11:54.999Z</time></trkpt><trkpt lat="42.09215785248039" lon="12.814336170906047"><ele>633.25</ele><time>2026-03-29T07:11:55.999Z</time></trkpt><trkpt lat="42.0922730660256" lon="12.814335375034887"><ele>635.0</ele><time>2026-03-29T07:11:56.999Z</time></trkpt><trkpt lat="42.0923868903757" lon="12.81434251917857"><ele>636.2</ele><time>2026-03-29T07:11:57.999Z</time></trkpt><trkpt lat="42.09247955852805" lon="12.814373474114863"><ele>637.4</ele><time>2026-03-29T07:11:58.999Z</time></trkpt><trkpt lat="42.09255094473051" lon="12.814441862492975"><ele>638.5999999999999</ele><time>2026-03-29T07:11:59.999Z</time></trkpt><trkpt lat="42.092617697803874" lon="12.81454838807618"><ele>639.8</ele><time>2026-03-29T07:12:00.999Z</time></trkpt><trkpt lat="42.09268410835308" lon="12.814662908923136"><ele>641.0</ele><time>2026-03-29T07:12:01.999Z</time></trkpt><trkpt lat="42.09276112830836" lon="12.814739199813692"><ele>641.0</ele><time>2026-03-29T07:12:02.999Z</time></trkpt><trkpt lat="42.092859213112646" lon="12.81478257674387"><ele>641.0</ele><time>2026-03-29T07:12:03.999Z</time></trkpt><trkpt lat="42.09297504807111" lon="12.814828470380657"><ele>641.0</ele><time>2026-03-29T07:12:04.999Z</time></trkpt><trkpt lat="42.09303635063387" lon="12.814902301116541"><ele>641.0</ele><time>2026-03-29T07:12:05.999Z</time></trkpt><trkpt lat="42.09311043073666" lon="12.814968808038726"><ele>641.0</ele><time>2026-03-29T07:12:06.999Z</time></trkpt><trkpt lat="42.093213266604906" lon="12.8150196032596"><ele>645.25</ele><time>2026-03-29T07:12:07.999Z</time></trkpt><trkpt lat="42.09335011114501" lon="12.815058368597878"><ele>649.5</ele><time>2026-03-29T07:12:08.999Z</time></trkpt><trkpt lat="42.09346900908418" lon="12.815082413143175"><ele>653.75</ele><time>2026-03-29T07:12:09.999Z</time></trkpt><trkpt lat="42.09356107299609" lon="12.815109776313058"><ele>658.0</ele><time>2026-03-29T07:12:10.999Z</time></trkpt><trkpt lat="42.093654701141666" lon="12.81514957851789"><ele>656.5999999999999</ele><time>2026-03-29T07:12:11.999Z</time></trkpt><trkpt lat="42.09375008757092" lon="12.815175803770735"><ele>655.1999999999999</ele><time>2026-03-29T07:12:12.999Z</time></trkpt><trkpt lat="42.09384457063873" lon="12.815187456591344"><ele>653.8</ele><time>2026-03-29T07:12:13.999Z</time></trkpt><trkpt lat="42.09392353650394" lon="12.815218197434621"><ele>652.4</ele><time>2026-03-29T07:12:14.999Z</time></trkpt><trkpt lat="42.09399412816293" lon="12.815272561441656"><ele>651.0</ele><time>2026-03-29T07:12:15.999Z</time></trkpt><trkpt lat="42.09407490237778" lon="12.815338016322466"><ele>652.1666666666666</ele><time>2026-03-29T07:12:16.999Z</time></trkpt><trkpt lat="42.094150387377745" lon="12.815405563614158"><ele>653.3333333333334</ele><time>2026-03-29T07:12:17.999Z</time></trkpt><trkpt lat="42.09422191096819" lon="12.81545321941166"><ele>654.5</ele><time>2026-03-29T07:12:19Z</time></trkpt><trkpt lat="42.09428565257279" lon="12.815483088816203"><ele>655.6666666666667</ele><time>2026-03-29T07:12:20Z</time></trkpt><trkpt lat="42.09435065961477" lon="12.815490118576816"><ele>656.8333333333334</ele><time>2026-03-29T07:12:24Z</time></trkpt><trkpt lat="42.09436587040441" lon="12.815405007097082"><ele>658.0</ele><time>2026-03-29T07:12:27Z</time></trkpt><trkpt lat="42.09429429714839" lon="12.815311066197092"><ele>658.0</ele><time>2026-03-29T07:12:30Z</time></trkpt><trkpt lat="42.09423697518558" lon="12.815268578601138"><ele>658.0</ele><time>2026-03-29T07:12:31Z</time></trkpt><trkpt lat="42.094185569236885" lon="12.815206855952383"><ele>658.0</ele><time>2026-03-29T07:12:32Z</time></trkpt><trkpt lat="42.094138996986544" lon="12.81511907665791"><ele>658.0</ele><time>2026-03-29T07:12:33Z</time></trkpt><trkpt lat="42.09408619924431" lon="12.815004155200837"><ele>658.0</ele><time>2026-03-29T07:12:34Z</time></trkpt><trkpt lat="42.09403744376429" lon="12.814884409943032"><ele>658.0</ele><time>2026-03-29T07:12:35Z</time></trkpt><trkpt lat="42.09398096720921" lon="12.814768098578236"><ele>658.0</ele><time>2026-03-29T07:12:36Z</time></trkpt><trkpt lat="42.09390368838915" lon="12.814673791519724"><ele>658.0</ele><time>2026-03-29T07:12:37Z</time></trkpt><trkpt lat="42.09381729389169" lon="12.81457600371259"><ele>658.0</ele><time>2026-03-29T07:12:38Z</time></trkpt><trkpt lat="42.09373463884727" lon="12.814460257275641"><ele>658.0</ele><time>2026-03-29T07:12:39Z</time></trkpt><trkpt lat="42.09366255587029" lon="12.814355372851969"><ele>658.0</ele><time>2026-03-29T07:12:40Z</time></trkpt><trkpt lat="42.09361211184467" lon="12.814260193516828"><ele>660.1666666666667</ele><time>2026-03-29T07:12:41Z</time></trkpt><trkpt lat="42.09358816685312" lon="12.814160684232746"><ele>662.3333333333334</ele><time>2026-03-29T07:12:42Z</time></trkpt><trkpt lat="42.09358412482333" lon="12.81405356988"><ele>664.5</ele><time>2026-03-29T07:12:43Z</time></trkpt><trkpt lat="42.09359212477479" lon="12.813945872813248"><ele>666.6666666666666</ele><time>2026-03-29T07:12:44Z</time></trkpt><trkpt lat="42.09360794830716" lon="12.813837377361951"><ele>668.8333333333333</ele><time>2026-03-29T07:12:44.999Z</time></trkpt><trkpt lat="42.09361781969201" lon="12.81370507141074"><ele>671.0</ele><time>2026-03-29T07:12:45.999Z</time></trkpt><trkpt lat="42.09363541889236" lon="12.813568816628427"><ele>673.0</ele><time>2026-03-29T07:12:46.999Z</time></trkpt><trkpt lat="42.09364374730783" lon="12.813428647362455"><ele>675.0</ele><time>2026-03-29T07:12:47.999Z</time></trkpt><trkpt lat="42.09367123527572" lon="12.813301007804812"><ele>677.0</ele><time>2026-03-29T07:12:48.999Z</time></trkpt><trkpt lat="42.09368960147405" lon="12.813180457250068"><ele>679.0</ele><time>2026-03-29T07:12:49.999Z</time></trkpt><trkpt lat="42.09369555190985" lon="12.813071559882836"><ele>681.0</ele><time>2026-03-29T07:12:50.999Z</time></trkpt><trkpt lat="42.09370408068588" lon="12.812984084030166"><ele>683.0</ele><time>2026-03-29T07:12:51.999Z</time></trkpt><trkpt lat="42.09374822563408" lon="12.812907615934321"><ele>683.0</ele><time>2026-03-29T07:12:53.999Z</time></trkpt><trkpt lat="42.09382166689404" lon="12.812984942117037"><ele>683.0</ele><time>2026-03-29T07:12:56.999Z</time></trkpt><trkpt lat="42.09385487693229" lon="12.813167119544234"><ele>683.0</ele><time>2026-03-29T07:12:58.999Z</time></trkpt><trkpt lat="42.09389263097775" lon="12.813286145991379"><ele>683.0</ele><time>2026-03-29T07:12:59.999Z</time></trkpt><trkpt lat="42.09392540463676" lon="12.813406251463629"><ele>683.0</ele><time>2026-03-29T07:13:00.999Z</time></trkpt><trkpt lat="42.093976659303785" lon="12.813536783554538"><ele>685.0</ele><time>2026-03-29T07:13:01.999Z</time></trkpt><trkpt lat="42.094030580680084" lon="12.81366790560223"><ele>687.0</ele><time>2026-03-29T07:13:02.999Z</time></trkpt><trkpt lat="42.09410156853437" lon="12.813760051652288"><ele>689.0</ele><time>2026-03-29T07:13:03.999Z</time></trkpt><trkpt lat="42.094180355325506" lon="12.813805839519773"><ele>691.0</ele><time>2026-03-29T07:13:04.999Z</time></trkpt><trkpt lat="42.09425911606068" lon="12.813854149325675"><ele>693.0</ele><time>2026-03-29T07:13:05.999Z</time></trkpt><trkpt lat="42.09433266087282" lon="12.813930568876252"><ele>693.0</ele><time>2026-03-29T07:13:06.999Z</time></trkpt><trkpt lat="42.094405941272164" lon="12.814021476454919"><ele>693.0</ele><time>2026-03-29T07:13:07.999Z</time></trkpt><trkpt lat="42.094478202847284" lon="12.814115666188888"><ele>693.0</ele><time>2026-03-29T07:13:08.999Z</time></trkpt><trkpt lat="42.094547423457804" lon="12.814183342993756"><ele>693.0</ele><time>2026-03-29T07:13:09.999Z</time></trkpt><trkpt lat="42.09461211854557" lon="12.81424788372587"><ele>693.0</ele><time>2026-03-29T07:13:10.999Z</time></trkpt><trkpt lat="42.094682290532475" lon="12.814300017221829"><ele>693.0</ele><time>2026-03-29T07:13:11.999Z</time></trkpt><trkpt lat="42.09474881488019" lon="12.814344631577423"><ele>693.3333333333334</ele><time>2026-03-29T07:13:12.999Z</time></trkpt><trkpt lat="42.094810922636185" lon="12.81439233724123"><ele>693.6666666666666</ele><time>2026-03-29T07:13:13.999Z</time></trkpt><trkpt lat="42.094881509161965" lon="12.81445260109767"><ele>694.0</ele><time>2026-03-29T07:13:14.999Z</time></trkpt><trkpt lat="42.09494643610461" lon="12.814523203866361"><ele>694.3333333333333</ele><time>2026-03-29T07:13:15.999Z</time></trkpt><trkpt lat="42.095016258133604" lon="12.81458037454415"><ele>694.6666666666666</ele><time>2026-03-29T07:13:16.999Z</time></trkpt><trkpt lat="42.095095589151924" lon="12.8146251642389"><ele>695.0</ele><time>2026-03-29T07:13:17.999Z</time></trkpt><trkpt lat="42.09518306077919" lon="12.814670588154451"><ele>695.0</ele><time>2026-03-29T07:13:18.999Z</time></trkpt><trkpt lat="42.09526770470756" lon="12.8147186393926"><ele>695.0</ele><time>2026-03-29T07:13:19.999Z</time></trkpt><trkpt lat="42.09535386865402" lon="12.81477571442461"><ele>695.0</ele><time>2026-03-29T07:13:20.999Z</time></trkpt><trkpt lat="42.09543530310484" lon="12.814822330029404"><ele>695.0</ele><time>2026-03-29T07:13:21.999Z</time></trkpt><trkpt lat="42.095519239387244" lon="12.814863900475567"><ele>695.0</ele><time>2026-03-29T07:13:22.999Z</time></trkpt><trkpt lat="42.09559639332658" lon="12.814915882902039"><ele>695.0</ele><time>2026-03-29T07:13:23.999Z</time></trkpt><trkpt lat="42.095676372180165" lon="12.814971411520267"><ele>695.0</ele><time>2026-03-29T07:13:24.999Z</time></trkpt><trkpt lat="42.09577551502065" lon="12.815039810335675"><ele>695.0</ele><time>2026-03-29T07:13:25.999Z</time></trkpt><trkpt lat="42.09587595538974" lon="12.815102233365627"><ele>695.0</ele><time>2026-03-29T07:13:26.999Z</time></trkpt><trkpt lat="42.09598187915823" lon="12.815162494364934"><ele>695.0</ele><time>2026-03-29T07:13:27.999Z</time></trkpt><trkpt lat="42.096091396383386" lon="12.815222593432482"><ele>696.0</ele><time>2026-03-29T07:13:28.999Z</time></trkpt><trkpt lat="42.09618698546053" lon="12.815289884706743"><ele>697.0</ele><time>2026-03-29T07:13:29.999Z</time></trkpt><trkpt lat="42.0962653157979" lon="12.815347016386724"><ele>698.0</ele><time>2026-03-29T07:13:30.999Z</time></trkpt><trkpt lat="42.09632683878896" lon="12.815398501635563"><ele>699.0</ele><time>2026-03-29T07:13:31.999Z</time></trkpt><trkpt lat="42.09638794296197" lon="12.815467050841999"><ele>700.0</ele><time>2026-03-29T07:13:32.999Z</time></trkpt><trkpt lat="42.096454507212435" lon="12.815559835899347"><ele>701.0</ele><time>2026-03-29T07:13:33.999Z</time></trkpt><trkpt lat="42.096526688263346" lon="12.815670110321275"><ele>704.5</ele><time>2026-03-29T07:13:34.999Z</time></trkpt><trkpt lat="42.09659705107424" lon="12.81581235405623"><ele>708.0</ele><time>2026-03-29T07:13:35.999Z</time></trkpt><trkpt lat="42.09667536551147" lon="12.815968090145235"><ele>711.5</ele><time>2026-03-29T07:13:36.999Z</time></trkpt><trkpt lat="42.09675261156151" lon="12.816130160328541"><ele>715.0</ele><time>2026-03-29T07:13:37.999Z</time></trkpt><trkpt lat="42.09683209821831" lon="12.816306852744013"><ele>715.0</ele><time>2026-03-29T07:13:38.999Z</time></trkpt><trkpt lat="42.09691955381134" lon="12.816496629956603"><ele>715.0</ele><time>2026-03-29T07:13:39.999Z</time></trkpt><trkpt lat="42.09701510171121" lon="12.8167047454234"><ele>715.0</ele><time>2026-03-29T07:13:40.999Z</time></trkpt><trkpt lat="42.09711854318391" lon="12.816914411922655"><ele>714.25</ele><time>2026-03-29T07:13:41.999Z</time></trkpt><trkpt lat="42.09720510254495" lon="12.817090026846104"><ele>713.5</ele><time>2026-03-29T07:13:42.999Z</time></trkpt><trkpt lat="42.09727803453195" lon="12.817244292551049"><ele>712.75</ele><time>2026-03-29T07:13:43.999Z</time></trkpt><trkpt lat="42.09732802643224" lon="12.817373837507395"><ele>712.0</ele><time>2026-03-29T07:13:44.999Z</time></trkpt><trkpt lat="42.097354289983755" lon="12.817496381977568"><ele>712.0</ele><time>2026-03-29T07:13:45.999Z</time></trkpt><trkpt lat="42.09736075998222" lon="12.817640119566933"><ele>712.0</ele><time>2026-03-29T07:13:46.999Z</time></trkpt><trkpt lat="42.09735444157779" lon="12.817802074496715"><ele>712.0</ele><time>2026-03-29T07:13:47.999Z</time></trkpt><trkpt lat="42.09733022253194" lon="12.817949798424651"><ele>712.0</ele><time>2026-03-29T07:13:48.999Z</time></trkpt><trkpt lat="42.0972788761159" lon="12.818082197104323"><ele>716.25</ele><time>2026-03-29T07:13:49.999Z</time></trkpt><trkpt lat="42.097210325070456" lon="12.818206013039902"><ele>720.5</ele><time>2026-03-29T07:13:50.999Z</time></trkpt><trkpt lat="42.09713480699326" lon="12.818329147096565"><ele>724.75</ele><time>2026-03-29T07:13:51.999Z</time></trkpt><trkpt lat="42.097051683789076" lon="12.818470390446363"><ele>729.0</ele><time>2026-03-29T07:13:52.999Z</time></trkpt><trkpt lat="42.096963086977176" lon="12.818609006347714"><ele>730.75</ele><time>2026-03-29T07:13:53.999Z</time></trkpt><trkpt lat="42.096869286341885" lon="12.81874408586538"><ele>732.5</ele><time>2026-03-29T07:13:54.999Z</time></trkpt><trkpt lat="42.09677334583313" lon="12.818870144198629"><ele>734.25</ele><time>2026-03-29T07:13:55.999Z</time></trkpt><trkpt lat="42.09667844837188" lon="12.818993619070923"><ele>736.0</ele><time>2026-03-29T07:13:56.999Z</time></trkpt><trkpt lat="42.09657277749108" lon="12.819108686115833"><ele>736.0</ele><time>2026-03-29T07:13:57.999Z</time></trkpt><trkpt lat="42.09648612451709" lon="12.819217721460907"><ele>736.0</ele><time>2026-03-29T07:13:58.999Z</time></trkpt><trkpt lat="42.0964065070961" lon="12.819324821556258"><ele>736.0</ele><time>2026-03-29T07:13:59.999Z</time></trkpt><trkpt lat="42.0963393922645" lon="12.819418822267659"><ele>736.0</ele><time>2026-03-29T07:14:00.999Z</time></trkpt><trkpt lat="42.09630401441899" lon="12.819502481709366"><ele>736.0</ele><time>2026-03-29T07:14:01.999Z</time></trkpt><trkpt lat="42.096301171443784" lon="12.819595427052155"><ele>736.5999999999999</ele><time>2026-03-29T07:14:02.999Z</time></trkpt><trkpt lat="42.09632720538676" lon="12.81970423048566"><ele>737.2</ele><time>2026-03-29T07:14:03.999Z</time></trkpt><trkpt lat="42.09636466151019" lon="12.819822704892708"><ele>737.8</ele><time>2026-03-29T07:14:04.999Z</time></trkpt><trkpt lat="42.096445240675045" lon="12.81992303622264"><ele>738.4000000000001</ele><time>2026-03-29T07:14:05.999Z</time></trkpt><trkpt lat="42.09653723430473" lon="12.820040337031314"><ele>739.0</ele><time>2026-03-29T07:14:06.999Z</time></trkpt><trkpt lat="42.09664210570657" lon="12.820172792312517"><ele>739.0</ele><time>2026-03-29T07:14:07.999Z</time></trkpt><trkpt lat="42.096745903090984" lon="12.820317849882418"><ele>739.0</ele><time>2026-03-29T07:14:08.999Z</time></trkpt><trkpt lat="42.096851170031165" lon="12.820464056151035"><ele>739.0</ele><time>2026-03-29T07:14:09.999Z</time></trkpt><trkpt lat="42.09696092547374" lon="12.820589866518622"><ele>739.0</ele><time>2026-03-29T07:14:10.999Z</time></trkpt><trkpt lat="42.097088066540834" lon="12.820698217053188"><ele>739.0</ele><time>2026-03-29T07:14:11.999Z</time></trkpt><trkpt lat="42.097230847941" lon="12.820788171830163"><ele>739.0</ele><time>2026-03-29T07:14:12.999Z</time></trkpt><trkpt lat="42.09738582415135" lon="12.82088666476702"><ele>739.0</ele><time>2026-03-29T07:14:13.999Z</time></trkpt><trkpt lat="42.09751401203637" lon="12.821008980554724"><ele>741.25</ele><time>2026-03-29T07:14:14.999Z</time></trkpt><trkpt lat="42.09761994560322" lon="12.821151146931502"><ele>743.5</ele><time>2026-03-29T07:14:15.999Z</time></trkpt><trkpt lat="42.09771510367098" lon="12.821291582444138"><ele>745.75</ele><time>2026-03-29T07:14:16.999Z</time></trkpt><trkpt lat="42.09781541540073" lon="12.821421504085222"><ele>748.0</ele><time>2026-03-29T07:14:17.999Z</time></trkpt><trkpt lat="42.09792557709581" lon="12.82155000128653"><ele>748.0</ele><time>2026-03-29T07:14:18.999Z</time></trkpt><trkpt lat="42.09803646321139" lon="12.821681633783966"><ele>748.0</ele><time>2026-03-29T07:14:19.999Z</time></trkpt><trkpt lat="42.09812261519207" lon="12.821813731379992"><ele>748.0</ele><time>2026-03-29T07:14:20.999Z</time></trkpt><trkpt lat="42.09820067326667" lon="12.821948368696832"><ele>748.0</ele><time>2026-03-29T07:14:21.999Z</time></trkpt><trkpt lat="42.09827062255423" lon="12.822093435944641"><ele>755.0</ele><time>2026-03-29T07:14:22.999Z</time></trkpt><trkpt lat="42.09832322122812" lon="12.822249546143649"><ele>762.0</ele><time>2026-03-29T07:14:23.999Z</time></trkpt><trkpt lat="42.09834559487511" lon="12.822385600387342"><ele>769.0</ele><time>2026-03-29T07:14:24.999Z</time></trkpt><trkpt lat="42.09836744785099" lon="12.822530993919544"><ele>776.0</ele><time>2026-03-29T07:14:26Z</time></trkpt><trkpt lat="42.09837962955619" lon="12.822688358648161"><ele>775.1999999999999</ele><time>2026-03-29T07:14:26.999Z</time></trkpt><trkpt lat="42.09837673155701" lon="12.822837465512805"><ele>774.4</ele><time>2026-03-29T07:14:27.999Z</time></trkpt><trkpt lat="42.09835375323792" lon="12.822958075890424"><ele>773.6</ele><time>2026-03-29T07:14:28.999Z</time></trkpt><trkpt lat="42.09830900046234" lon="12.823050670526051"><ele>772.8</ele><time>2026-03-29T07:14:29.999Z</time></trkpt><trkpt lat="42.098242279869325" lon="12.823132900114064"><ele>772.0</ele><time>2026-03-29T07:14:30.999Z</time></trkpt><trkpt lat="42.09815367656667" lon="12.823201360835549"><ele>771.9999999999999</ele><time>2026-03-29T07:14:32Z</time></trkpt><trkpt lat="42.09804984807475" lon="12.823258540432372"><ele>772.0</ele><time>2026-03-29T07:14:33Z</time></trkpt><trkpt lat="42.09798284073852" lon="12.823332391155331"><ele>772.0</ele><time>2026-03-29T07:14:34Z</time></trkpt><trkpt lat="42.0979545143269" lon="12.823434578393282"><ele>772.0</ele><time>2026-03-29T07:14:35Z</time></trkpt><trkpt lat="42.097934977032956" lon="12.823541814697249"><ele>771.9999999999999</ele><time>2026-03-29T07:14:36Z</time></trkpt><trkpt lat="42.097913266098146" lon="12.82365493608141"><ele>772.0</ele><time>2026-03-29T07:14:37Z</time></trkpt><trkpt lat="42.09790391329412" lon="12.823743282335522"><ele>774.4000000000001</ele><time>2026-03-29T07:14:38Z</time></trkpt><trkpt lat="42.09790016993186" lon="12.823836360526936"><ele>776.8000000000001</ele><time>2026-03-29T07:14:39Z</time></trkpt><trkpt lat="42.09790942704466" lon="12.824009348360363"><ele>779.2</ele><time>2026-03-29T07:14:41Z</time></trkpt><trkpt lat="42.0979148635615" lon="12.824147035228513"><ele>781.6</ele><time>2026-03-29T07:14:42Z</time></trkpt><trkpt lat="42.09790668639993" lon="12.824310147602159"><ele>784.0</ele><time>2026-03-29T07:14:43Z</time></trkpt><trkpt lat="42.097896298530436" lon="12.824448614169915"><ele>785.8000000000001</ele><time>2026-03-29T07:14:44Z</time></trkpt><trkpt lat="42.097904562341114" lon="12.824561367032963"><ele>787.6</ele><time>2026-03-29T07:14:45Z</time></trkpt><trkpt lat="42.09793508124868" lon="12.824645141362897"><ele>789.4</ele><time>2026-03-29T07:14:46Z</time></trkpt><trkpt lat="42.0979893575296" lon="12.824736408742867"><ele>791.2</ele><time>2026-03-29T07:14:47Z</time></trkpt><trkpt lat="42.09806738928313" lon="12.824841638182129"><ele>793.0</ele><time>2026-03-29T07:14:48Z</time></trkpt><trkpt lat="42.09816122059594" lon="12.824940175871664"><ele>792.25</ele><time>2026-03-29T07:14:48.999Z</time></trkpt><trkpt lat="42.09826068608185" lon="12.825041157997113"><ele>791.5</ele><time>2026-03-29T07:14:49.999Z</time></trkpt><trkpt lat="42.09836203577285" lon="12.825162703529443"><ele>790.75</ele><time>2026-03-29T07:14:50.999Z</time></trkpt><trkpt lat="42.09844729061993" lon="12.825292049674703"><ele>790.0</ele><time>2026-03-29T07:14:51.999Z</time></trkpt><trkpt lat="42.098531136902025" lon="12.825404871521027"><ele>788.2</ele><time>2026-03-29T07:14:52.999Z</time></trkpt><trkpt lat="42.09861381873991" lon="12.825506871894081"><ele>786.4</ele><time>2026-03-29T07:14:53.999Z</time></trkpt><trkpt lat="42.09869516052508" lon="12.825605525881425"><ele>784.5999999999999</ele><time>2026-03-29T07:14:54.999Z</time></trkpt><trkpt lat="42.09877580386523" lon="12.825698070750441"><ele>782.8</ele><time>2026-03-29T07:14:55.999Z</time></trkpt><trkpt lat="42.09885884135529" lon="12.825783406737331"><ele>781.0</ele><time>2026-03-29T07:14:56.999Z</time></trkpt><trkpt lat="42.09893646887327" lon="12.825864233493292"><ele>780.9999999999999</ele><time>2026-03-29T07:14:57.999Z</time></trkpt><trkpt lat="42.09901460264643" lon="12.825932214602506"><ele>781.0</ele><time>2026-03-29T07:14:58.999Z</time></trkpt><trkpt lat="42.09909445903343" lon="12.825986306799185"><ele>781.0</ele><time>2026-03-29T07:14:59.999Z</time></trkpt><trkpt lat="42.09917047629547" lon="12.826030832900317"><ele>781.0</ele><time>2026-03-29T07:15:00.999Z</time></trkpt><trkpt lat="42.099245023286876" lon="12.826076485861638"><ele>780.9999999999999</ele><time>2026-03-29T07:15:01.999Z</time></trkpt><trkpt lat="42.09930739028203" lon="12.826143624754078"><ele>781.0</ele><time>2026-03-29T07:15:02.999Z</time></trkpt><trkpt lat="42.09935698333919" lon="12.826223040384404"><ele>779.8</ele><time>2026-03-29T07:15:03.999Z</time></trkpt><trkpt lat="42.09941022201417" lon="12.826285353438234"><ele>778.5999999999999</ele><time>2026-03-29T07:15:04.999Z</time></trkpt><trkpt lat="42.09948110745479" lon="12.826338788070172"><ele>777.4</ele><time>2026-03-29T07:15:05.999Z</time></trkpt><trkpt lat="42.099561023149214" lon="12.826416206079964"><ele>776.2</ele><time>2026-03-29T07:15:06.999Z</time></trkpt><trkpt lat="42.099645000275835" lon="12.82651982777096"><ele>775.0</ele><time>2026-03-29T07:15:07.999Z</time></trkpt><trkpt lat="42.09974099646701" lon="12.826635743386014"><ele>775.0</ele><time>2026-03-29T07:15:08.999Z</time></trkpt><trkpt lat="42.09983984136789" lon="12.826748745284638"><ele>775.0</ele><time>2026-03-29T07:15:09.999Z</time></trkpt><trkpt lat="42.09993807629546" lon="12.826872398412354"><ele>775.0</ele><time>2026-03-29T07:15:10.999Z</time></trkpt><trkpt lat="42.10003602285235" lon="12.82695778129435"><ele>775.0</ele><time>2026-03-29T07:15:11.999Z</time></trkpt><trkpt lat="42.100143371037035" lon="12.82701020062057"><ele>774.75</ele><time>2026-03-29T07:15:12.999Z</time></trkpt><trkpt lat="42.10025124733472" lon="12.827020411072866"><ele>774.5</ele><time>2026-03-29T07:15:13.999Z</time></trkpt><trkpt lat="42.10037011207007" lon="12.827005103881126"><ele>774.25</ele><time>2026-03-29T07:15:14.999Z</time></trkpt><trkpt lat="42.10050059057399" lon="12.826972795080593"><ele>774.0</ele><time>2026-03-29T07:15:15.999Z</time></trkpt><trkpt lat="42.1006362850903" lon="12.82693075935652"><ele>773.75</ele><time>2026-03-29T07:15:16.999Z</time></trkpt><trkpt lat="42.10077372765383" lon="12.826865296934876"><ele>773.5</ele><time>2026-03-29T07:15:17.999Z</time></trkpt><trkpt lat="42.100914658296794" lon="12.826788632482804"><ele>773.25</ele><time>2026-03-29T07:15:18.999Z</time></trkpt><trkpt lat="42.10105023392411" lon="12.82675411254741"><ele>773.0</ele><time>2026-03-29T07:15:19.999Z</time></trkpt><trkpt lat="42.101214217898615" lon="12.82670986622785"><ele>771.3333333333334</ele><time>2026-03-29T07:15:20.999Z</time></trkpt><trkpt lat="42.10136852634469" lon="12.82665594115662"><ele>769.6666666666667</ele><time>2026-03-29T07:15:21.999Z</time></trkpt><trkpt lat="42.101518167710076" lon="12.82661628852548"><ele>768.0</ele><time>2026-03-29T07:15:22.999Z</time></trkpt><trkpt lat="42.10165696292703" lon="12.826578744455768"><ele>768.0</ele><time>2026-03-29T07:15:23.999Z</time></trkpt><trkpt lat="42.10177282213652" lon="12.826517597548769"><ele>768.0</ele><time>2026-03-29T07:15:24.999Z</time></trkpt><trkpt lat="42.10189166672595" lon="12.826478585530042"><ele>768.0</ele><time>2026-03-29T07:15:25.999Z</time></trkpt><trkpt lat="42.10203106509112" lon="12.826481431166117"><ele>768.0</ele><time>2026-03-29T07:15:26.999Z</time></trkpt><trkpt lat="42.10217592334086" lon="12.826501812925938"><ele>768.0</ele><time>2026-03-29T07:15:27.999Z</time></trkpt><trkpt lat="42.1023214866617" lon="12.826507927932626"><ele>768.0</ele><time>2026-03-29T07:15:28.999Z</time></trkpt><trkpt lat="42.10247481553761" lon="12.826491018948095"><ele>768.0</ele><time>2026-03-29T07:15:29.999Z</time></trkpt><trkpt lat="42.10263014943863" lon="12.826471356291426"><ele>767.5</ele><time>2026-03-29T07:15:30.999Z</time></trkpt><trkpt lat="42.10276893686176" lon="12.826466093375787"><ele>767.0</ele><time>2026-03-29T07:15:31.999Z</time></trkpt><trkpt lat="42.102904181067245" lon="12.826478687942952"><ele>766.5</ele><time>2026-03-29T07:15:32.999Z</time></trkpt><trkpt lat="42.103030727083464" lon="12.826544952387321"><ele>766.0</ele><time>2026-03-29T07:15:33.999Z</time></trkpt><trkpt lat="42.1031667805522" lon="12.826604699541953"><ele>766.1999999999999</ele><time>2026-03-29T07:15:34.999Z</time></trkpt><trkpt lat="42.10330160618665" lon="12.826638469943813"><ele>766.4</ele><time>2026-03-29T07:15:35.999Z</time></trkpt><trkpt lat="42.10341284913784" lon="12.826683714511592"><ele>766.6</ele><time>2026-03-29T07:15:36.999Z</time></trkpt><trkpt lat="42.10350714860981" lon="12.826708419129385"><ele>766.8</ele><time>2026-03-29T07:15:37.999Z</time></trkpt><trkpt lat="42.103598998797" lon="12.826706735456508"><ele>767.0</ele><time>2026-03-29T07:15:38.999Z</time></trkpt><trkpt lat="42.103687734932485" lon="12.826677979615827"><ele>767.0</ele><time>2026-03-29T07:15:39.999Z</time></trkpt><trkpt lat="42.10379022743498" lon="12.826627481836733"><ele>767.0</ele><time>2026-03-29T07:15:40.999Z</time></trkpt><trkpt lat="42.10390209967592" lon="12.826543380602574"><ele>767.0</ele><time>2026-03-29T07:15:41.999Z</time></trkpt><trkpt lat="42.10402576129777" lon="12.826443850431401"><ele>767.0</ele><time>2026-03-29T07:15:42.999Z</time></trkpt><trkpt lat="42.10416939652872" lon="12.826367360595865"><ele>764.6666666666666</ele><time>2026-03-29T07:15:43.999Z</time></trkpt><trkpt lat="42.1043221269653" lon="12.826359497274538"><ele>762.3333333333334</ele><time>2026-03-29T07:15:44.999Z</time></trkpt><trkpt lat="42.10447594254852" lon="12.82633510713974"><ele>760.0</ele><time>2026-03-29T07:15:45.999Z</time></trkpt><trkpt lat="42.10463117291099" lon="12.826362444358711"><ele>760.0</ele><time>2026-03-29T07:15:46.999Z</time></trkpt><trkpt lat="42.104789791917064" lon="12.826406911611162"><ele>760.0</ele><time>2026-03-29T07:15:47.999Z</time></trkpt><trkpt lat="42.10495019736324" lon="12.82645476405056"><ele>760.0</ele><time>2026-03-29T07:15:48.999Z</time></trkpt><trkpt lat="42.1051068021154" lon="12.826502910151376"><ele>760.75</ele><time>2026-03-29T07:15:49.999Z</time></trkpt><trkpt lat="42.10523957981741" lon="12.82658503451035"><ele>761.5</ele><time>2026-03-29T07:15:50.999Z</time></trkpt><trkpt lat="42.105358203320044" lon="12.826664752997008"><ele>762.25</ele><time>2026-03-29T07:15:51.999Z</time></trkpt><trkpt lat="42.10547009860248" lon="12.82675218354086"><ele>763.0</ele><time>2026-03-29T07:15:52.999Z</time></trkpt><trkpt lat="42.105586601126525" lon="12.826859326119264"><ele>763.25</ele><time>2026-03-29T07:15:53.999Z</time></trkpt><trkpt lat="42.105711024389535" lon="12.826960734459204"><ele>763.5</ele><time>2026-03-29T07:15:54.999Z</time></trkpt><trkpt lat="42.10582889443892" lon="12.827075473742124"><ele>763.75</ele><time>2026-03-29T07:15:55.999Z</time></trkpt><trkpt lat="42.105947787094905" lon="12.827180110678873"><ele>764.0</ele><time>2026-03-29T07:15:56.999Z</time></trkpt><trkpt lat="42.10605556986378" lon="12.827281482974875"><ele>765.0</ele><time>2026-03-29T07:15:57.999Z</time></trkpt><trkpt lat="42.10615617857638" lon="12.82737176459678"><ele>766.0</ele><time>2026-03-29T07:15:58.999Z</time></trkpt><trkpt lat="42.106260001302786" lon="12.8274488226473"><ele>767.0</ele><time>2026-03-29T07:15:59.999Z</time></trkpt><trkpt lat="42.10634085232232" lon="12.827511127662817"><ele>768.0</ele><time>2026-03-29T07:16:00.999Z</time></trkpt><trkpt lat="42.106416842507215" lon="12.827570218105718"><ele>769.0</ele><time>2026-03-29T07:16:01.999Z</time></trkpt><trkpt lat="42.10650923070344" lon="12.827628892423144"><ele>770.0</ele><time>2026-03-29T07:16:02.999Z</time></trkpt><trkpt lat="42.10661706950402" lon="12.827688358363833"><ele>771.0</ele><time>2026-03-29T07:16:03.999Z</time></trkpt><trkpt lat="42.10673574106848" lon="12.827738777578613"><ele>772.0</ele><time>2026-03-29T07:16:04.999Z</time></trkpt><trkpt lat="42.10685584825185" lon="12.827774385169247"><ele>773.0</ele><time>2026-03-29T07:16:05.999Z</time></trkpt><trkpt lat="42.10696097914086" lon="12.82777813889452"><ele>773.0</ele><time>2026-03-29T07:16:06.999Z</time></trkpt><trkpt lat="42.107045831684864" lon="12.827760339218205"><ele>773.0</ele><time>2026-03-29T07:16:07.999Z</time></trkpt><trkpt lat="42.1071190772846" lon="12.827744990718791"><ele>773.0</ele><time>2026-03-29T07:16:08.999Z</time></trkpt><trkpt lat="42.10718441745951" lon="12.827739651532998"><ele>773.0</ele><time>2026-03-29T07:16:09.999Z</time></trkpt><trkpt lat="42.10724926279447" lon="12.827739627856186"><ele>773.0</ele><time>2026-03-29T07:16:10.999Z</time></trkpt><trkpt lat="42.10733267117371" lon="12.8279557592502"><ele>773.0</ele><time>2026-03-29T07:16:12.999Z</time></trkpt><trkpt lat="42.1073735832078" lon="12.828069166142923"><ele>773.0</ele><time>2026-03-29T07:16:13.999Z</time></trkpt><trkpt lat="42.10739787512579" lon="12.82818528766129"><ele>773.0</ele><time>2026-03-29T07:16:14.999Z</time></trkpt><trkpt lat="42.10738455983865" lon="12.828316246088109"><ele>773.0</ele><time>2026-03-29T07:16:15.999Z</time></trkpt><trkpt lat="42.107351064910574" lon="12.828444825756005"><ele>773.0</ele><time>2026-03-29T07:16:16.999Z</time></trkpt><trkpt lat="42.10731018929431" lon="12.828597330600855"><ele>774.75</ele><time>2026-03-29T07:16:17.999Z</time></trkpt><trkpt lat="42.10729580815015" lon="12.82878660499109"><ele>776.5</ele><time>2026-03-29T07:16:18.999Z</time></trkpt><trkpt lat="42.10727643559473" lon="12.828950175409625"><ele>778.25</ele><time>2026-03-29T07:16:19.999Z</time></trkpt><trkpt lat="42.10726243344672" lon="12.829130212276617"><ele>780.0</ele><time>2026-03-29T07:16:20.999Z</time></trkpt><trkpt lat="42.10726446104313" lon="12.829310864088372"><ele>782.0</ele><time>2026-03-29T07:16:21.999Z</time></trkpt><trkpt lat="42.107275266986164" lon="12.829494610932938"><ele>784.0</ele><time>2026-03-29T07:16:22.999Z</time></trkpt><trkpt lat="42.107291051219654" lon="12.829693214926323"><ele>786.0</ele><time>2026-03-29T07:16:23.999Z</time></trkpt><trkpt lat="42.10733008766988" lon="12.829901946983243"><ele>788.0</ele><time>2026-03-29T07:16:24.999Z</time></trkpt><trkpt lat="42.10738985392905" lon="12.830107206783278"><ele>789.3333333333334</ele><time>2026-03-29T07:16:25.999Z</time></trkpt><trkpt lat="42.10747344737697" lon="12.830313757565822"><ele>790.6666666666667</ele><time>2026-03-29T07:16:26.999Z</time></trkpt><trkpt lat="42.10754764701057" lon="12.830543006423037"><ele>792.0</ele><time>2026-03-29T07:16:27.999Z</time></trkpt><trkpt lat="42.10764084241759" lon="12.830765417195465"><ele>792.0</ele><time>2026-03-29T07:16:28.999Z</time></trkpt><trkpt lat="42.107735231381874" lon="12.830985060314122"><ele>792.0</ele><time>2026-03-29T07:16:29.999Z</time></trkpt><trkpt lat="42.10782155613119" lon="12.831185696485866"><ele>792.0</ele><time>2026-03-29T07:16:31Z</time></trkpt><trkpt lat="42.10790087931626" lon="12.83136825646114"><ele>792.0</ele><time>2026-03-29T07:16:32Z</time></trkpt><trkpt lat="42.107982231798225" lon="12.831515008435325"><ele>792.0</ele><time>2026-03-29T07:16:33Z</time></trkpt><trkpt lat="42.10803151865679" lon="12.83164818724636"><ele>792.0</ele><time>2026-03-29T07:16:34Z</time></trkpt><trkpt lat="42.108099121708825" lon="12.83176422516453"><ele>792.0</ele><time>2026-03-29T07:16:35Z</time></trkpt><trkpt lat="42.10818181266659" lon="12.831868578841494"><ele>793.25</ele><time>2026-03-29T07:16:36Z</time></trkpt><trkpt lat="42.108281960784105" lon="12.831950208649626"><ele>794.5</ele><time>2026-03-29T07:16:37Z</time></trkpt><trkpt lat="42.108389675054184" lon="12.832002039731652"><ele>795.75</ele><time>2026-03-29T07:16:38Z</time></trkpt><trkpt lat="42.108497157291175" lon="12.832037035382111"><ele>797.0</ele><time>2026-03-29T07:16:39Z</time></trkpt><trkpt lat="42.10860923520966" lon="12.832045460339172"><ele>797.0</ele><time>2026-03-29T07:16:40Z</time></trkpt><trkpt lat="42.10872145731316" lon="12.832033509588195"><ele>797.0</ele><time>2026-03-29T07:16:41Z</time></trkpt><trkpt lat="42.10883656029749" lon="12.83200049913218"><ele>797.0</ele><time>2026-03-29T07:16:42Z</time></trkpt><trkpt lat="42.108942302210515" lon="12.831953473676386"><ele>797.0</ele><time>2026-03-29T07:16:43Z</time></trkpt><trkpt lat="42.10903162129629" lon="12.831890315398821"><ele>797.0</ele><time>2026-03-29T07:16:44Z</time></trkpt><trkpt lat="42.1091094886594" lon="12.831802238439387"><ele>798.1666666666667</ele><time>2026-03-29T07:16:45Z</time></trkpt><trkpt lat="42.10916679257004" lon="12.831736302860854"><ele>799.3333333333334</ele><time>2026-03-29T07:16:46Z</time></trkpt><trkpt lat="42.109226585208035" lon="12.83168113164589"><ele>800.5</ele><time>2026-03-29T07:16:48Z</time></trkpt><trkpt lat="42.109287974005476" lon="12.83177117286671"><ele>801.6666666666667</ele><time>2026-03-29T07:16:49Z</time></trkpt><trkpt lat="42.109324705870115" lon="12.831840454717193"><ele>802.8333333333334</ele><time>2026-03-29T07:16:50Z</time></trkpt><trkpt lat="42.10935143061376" lon="12.831941146944922"><ele>804.0</ele><time>2026-03-29T07:16:51Z</time></trkpt><trkpt lat="42.10939660652368" lon="12.832059912303949"><ele>804.0</ele><time>2026-03-29T07:16:52Z</time></trkpt><trkpt lat="42.10947055588237" lon="12.832178893776709"><ele>804.0</ele><time>2026-03-29T07:16:53Z</time></trkpt><trkpt lat="42.10956107342004" lon="12.83229385702946"><ele>804.0</ele><time>2026-03-29T07:16:54Z</time></trkpt><trkpt lat="42.10965239467645" lon="12.83242989878254"><ele>804.0</ele><time>2026-03-29T07:16:55Z</time></trkpt><trkpt lat="42.109734884286134" lon="12.832572152427058"><ele>805.0</ele><time>2026-03-29T07:16:56Z</time></trkpt><trkpt lat="42.109814718004294" lon="12.832705554051945"><ele>806.0</ele><time>2026-03-29T07:16:57Z</time></trkpt><trkpt lat="42.109889575502706" lon="12.832847391861243"><ele>807.0</ele><time>2026-03-29T07:16:58Z</time></trkpt><trkpt lat="42.10998737163536" lon="12.832968997820165"><ele>808.0</ele><time>2026-03-29T07:16:59Z</time></trkpt><trkpt lat="42.11009397873844" lon="12.833071159660829"><ele>810.5</ele><time>2026-03-29T07:16:59.999Z</time></trkpt><trkpt lat="42.1102025854192" lon="12.833173340971687"><ele>813.0</ele><time>2026-03-29T07:17:00.999Z</time></trkpt><trkpt lat="42.110306702755295" lon="12.833280649746706"><ele>815.5</ele><time>2026-03-29T07:17:01.999Z</time></trkpt><trkpt lat="42.11040538237722" lon="12.833401555334541"><ele>818.0</ele><time>2026-03-29T07:17:02.999Z</time></trkpt><trkpt lat="42.11050004871195" lon="12.833542046550974"><ele>819.3333333333334</ele><time>2026-03-29T07:17:03.999Z</time></trkpt><trkpt lat="42.11058557269478" lon="12.833693382689523"><ele>820.6666666666667</ele><time>2026-03-29T07:17:04.999Z</time></trkpt><trkpt lat="42.11068140485366" lon="12.83385404677572"><ele>822.0</ele><time>2026-03-29T07:17:05.999Z</time></trkpt><trkpt lat="42.11078497560892" lon="12.834014800905194"><ele>824.6666666666667</ele><time>2026-03-29T07:17:06.999Z</time></trkpt><trkpt lat="42.11089750319778" lon="12.83418281681812"><ele>827.3333333333334</ele><time>2026-03-29T07:17:07.999Z</time></trkpt><trkpt lat="42.11101120394075" lon="12.834348697574123"><ele>830.0</ele><time>2026-03-29T07:17:08.999Z</time></trkpt><trkpt lat="42.111126337642624" lon="12.834507266782497"><ele>830.3333333333334</ele><time>2026-03-29T07:17:09.999Z</time></trkpt><trkpt lat="42.11124299317799" lon="12.834667397526475"><ele>830.6666666666667</ele><time>2026-03-29T07:17:10.999Z</time></trkpt><trkpt lat="42.11135420940989" lon="12.834818383173262"><ele>831.0</ele><time>2026-03-29T07:17:11.999Z</time></trkpt><trkpt lat="42.111474385334986" lon="12.834962799237166"><ele>833.75</ele><time>2026-03-29T07:17:12.999Z</time></trkpt><trkpt lat="42.11158242063217" lon="12.835085942614137"><ele>836.5</ele><time>2026-03-29T07:17:13.999Z</time></trkpt><trkpt lat="42.11170101373211" lon="12.835188955890095"><ele>839.25</ele><time>2026-03-29T07:17:14.999Z</time></trkpt><trkpt lat="42.11181956087516" lon="12.835276396833214"><ele>842.0</ele><time>2026-03-29T07:17:15.999Z</time></trkpt><trkpt lat="42.111947001950526" lon="12.835364546114956"><ele>844.5</ele><time>2026-03-29T07:17:16.999Z</time></trkpt><trkpt lat="42.11207246696398" lon="12.835446132539099"><ele>847.0</ele><time>2026-03-29T07:17:17.999Z</time></trkpt><trkpt lat="42.11219344984893" lon="12.835529897181557"><ele>849.5</ele><time>2026-03-29T07:17:18.999Z</time></trkpt><trkpt lat="42.11230331052415" lon="12.835627551920956"><ele>852.0</ele><time>2026-03-29T07:17:19.999Z</time></trkpt><trkpt lat="42.11240179283015" lon="12.83573406322863"><ele>852.8</ele><time>2026-03-29T07:17:20.999Z</time></trkpt><trkpt lat="42.11248566464432" lon="12.835837284211634"><ele>853.6</ele><time>2026-03-29T07:17:21.999Z</time></trkpt><trkpt lat="42.11255541936896" lon="12.83592762786978"><ele>854.3999999999999</ele><time>2026-03-29T07:17:22.999Z</time></trkpt><trkpt lat="42.11262385098849" lon="12.836022625507814"><ele>855.1999999999999</ele><time>2026-03-29T07:17:23.999Z</time></trkpt><trkpt lat="42.11268698856728" lon="12.836118291301865"><ele>856.0</ele><time>2026-03-29T07:17:24.999Z</time></trkpt><trkpt lat="42.11276854437704" lon="12.836226020426935"><ele>856.0</ele><time>2026-03-29T07:17:25.999Z</time></trkpt><trkpt lat="42.11286401660737" lon="12.836329206794321"><ele>856.0</ele><time>2026-03-29T07:17:26.999Z</time></trkpt><trkpt lat="42.11296116105496" lon="12.836429251143402"><ele>856.0</ele><time>2026-03-29T07:17:27.999Z</time></trkpt><trkpt lat="42.113056036421625" lon="12.83653303899908"><ele>856.0</ele><time>2026-03-29T07:17:28.999Z</time></trkpt><trkpt lat="42.113149757468754" lon="12.836649281126304"><ele>854.0</ele><time>2026-03-29T07:17:29.999Z</time></trkpt><trkpt lat="42.11323932401143" lon="12.836771800071782"><ele>851.9999999999999</ele><time>2026-03-29T07:17:30.999Z</time></trkpt><trkpt lat="42.11332189570955" lon="12.83689374376651"><ele>850.0</ele><time>2026-03-29T07:17:31.999Z</time></trkpt><trkpt lat="42.11337981534317" lon="12.837010420809795"><ele>848.0</ele><time>2026-03-29T07:17:32.999Z</time></trkpt><trkpt lat="42.11343116386233" lon="12.837114588980487"><ele>846.0</ele><time>2026-03-29T07:17:33.999Z</time></trkpt><trkpt lat="42.11348588835509" lon="12.837184837696991"><ele>846.0</ele><time>2026-03-29T07:17:34.999Z</time></trkpt><trkpt lat="42.11360835374035" lon="12.837177104389111"><ele>846.0</ele><time>2026-03-29T07:17:36.999Z</time></trkpt><trkpt lat="42.11369865009496" lon="12.837128821818276"><ele>846.0</ele><time>2026-03-29T07:17:37.999Z</time></trkpt><trkpt lat="42.11380491013171" lon="12.837064021761508"><ele>846.0</ele><time>2026-03-29T07:17:38.999Z</time></trkpt><trkpt lat="42.11390934536036" lon="12.836997299271975"><ele>846.0</ele><time>2026-03-29T07:17:39.999Z</time></trkpt><trkpt lat="42.11398508601295" lon="12.836960388841682"><ele>846.0</ele><time>2026-03-29T07:17:40.999Z</time></trkpt><trkpt lat="42.114067183755616" lon="12.836950488640726"><ele>846.0</ele><time>2026-03-29T07:17:41.999Z</time></trkpt><trkpt lat="42.1141628204698" lon="12.836961410683838"><ele>846.0</ele><time>2026-03-29T07:17:42.999Z</time></trkpt><trkpt lat="42.11427113536839" lon="12.837008506366445"><ele>846.0</ele><time>2026-03-29T07:17:43.999Z</time></trkpt><trkpt lat="42.11438283779271" lon="12.837074118856206"><ele>847.4</ele><time>2026-03-29T07:17:44.999Z</time></trkpt><trkpt lat="42.11449420743085" lon="12.837153163337973"><ele>848.8</ele><time>2026-03-29T07:17:45.999Z</time></trkpt><trkpt lat="42.11460568036783" lon="12.837234584932167"><ele>850.1999999999999</ele><time>2026-03-29T07:17:46.999Z</time></trkpt><trkpt lat="42.11471082944809" lon="12.837286327052501"><ele>851.5999999999999</ele><time>2026-03-29T07:17:47.999Z</time></trkpt><trkpt lat="42.1147878911572" lon="12.837327628742333"><ele>853.0</ele><time>2026-03-29T07:17:48.999Z</time></trkpt><trkpt lat="42.11486071628242" lon="12.83727504064087"><ele>851.4</ele><time>2026-03-29T07:17:49.999Z</time></trkpt><trkpt lat="42.11494047799342" lon="12.837203443808269"><ele>849.8</ele><time>2026-03-29T07:17:50.999Z</time></trkpt><trkpt lat="42.11503225317663" lon="12.83713917632559"><ele>848.2</ele><time>2026-03-29T07:17:51.999Z</time></trkpt><trkpt lat="42.11511342291191" lon="12.83709182645746"><ele>846.6</ele><time>2026-03-29T07:17:52.999Z</time></trkpt><trkpt lat="42.11520493322826" lon="12.837099465370256"><ele>845.0</ele><time>2026-03-29T07:17:53.999Z</time></trkpt><trkpt lat="42.11530074302363" lon="12.837115295642512"><ele>845.0000000000001</ele><time>2026-03-29T07:17:54.999Z</time></trkpt><trkpt lat="42.11536693926529" lon="12.837134319623912"><ele>845.0</ele><time>2026-03-29T07:17:55.999Z</time></trkpt><trkpt lat="42.11540794181056" lon="12.837202092860183"><ele>845.0</ele><time>2026-03-29T07:17:56.999Z</time></trkpt><trkpt lat="42.115422285149165" lon="12.837302684940562"><ele>845.0</ele><time>2026-03-29T07:17:57.999Z</time></trkpt><trkpt lat="42.11545093059646" lon="12.837390074390399"><ele>845.0000000000001</ele><time>2026-03-29T07:17:58.999Z</time></trkpt><trkpt lat="42.11550702633981" lon="12.837532320941348"><ele>845.0</ele><time>2026-03-29T07:17:59.999Z</time></trkpt><trkpt lat="42.11557010236621" lon="12.837676582009236"><ele>847.0</ele><time>2026-03-29T07:18:00.999Z</time></trkpt><trkpt lat="42.115676675377145" lon="12.837790909162614"><ele>849.0</ele><time>2026-03-29T07:18:01.999Z</time></trkpt><trkpt lat="42.11577833059932" lon="12.837899382353223"><ele>851.0</ele><time>2026-03-29T07:18:02.999Z</time></trkpt><trkpt lat="42.11587249297555" lon="12.837985262022686"><ele>853.0</ele><time>2026-03-29T07:18:03.999Z</time></trkpt><trkpt lat="42.1159703245234" lon="12.83808808543261"><ele>853.0</ele><time>2026-03-29T07:18:04.999Z</time></trkpt><trkpt lat="42.11605847106183" lon="12.838204839385254"><ele>853.0</ele><time>2026-03-29T07:18:05.999Z</time></trkpt><trkpt lat="42.11611601151258" lon="12.838331390560056"><ele>853.0</ele><time>2026-03-29T07:18:06.999Z</time></trkpt><trkpt lat="42.11616670666036" lon="12.838466175248"><ele>853.0</ele><time>2026-03-29T07:18:07.999Z</time></trkpt><trkpt lat="42.11619270401492" lon="12.838628672982646"><ele>854.4</ele><time>2026-03-29T07:18:08.999Z</time></trkpt><trkpt lat="42.11620061066918" lon="12.838776242898126"><ele>855.8</ele><time>2026-03-29T07:18:09.999Z</time></trkpt><trkpt lat="42.11618220895736" lon="12.838921550251477"><ele>857.2</ele><time>2026-03-29T07:18:10.999Z</time></trkpt><trkpt lat="42.116156113306886" lon="12.839060770246295"><ele>858.6</ele><time>2026-03-29T07:18:11.999Z</time></trkpt><trkpt lat="42.11613913307053" lon="12.839176946052614"><ele>860.0</ele><time>2026-03-29T07:18:12.999Z</time></trkpt><trkpt lat="42.11615284075582" lon="12.839259951876313"><ele>860.2</ele><time>2026-03-29T07:18:13.999Z</time></trkpt><trkpt lat="42.116268113069516" lon="12.839343474023016"><ele>860.4</ele><time>2026-03-29T07:18:15.999Z</time></trkpt><trkpt lat="42.11636771892624" lon="12.83937553914488"><ele>860.5999999999999</ele><time>2026-03-29T07:18:16.999Z</time></trkpt><trkpt lat="42.116474785965536" lon="12.839413211992026"><ele>860.8</ele><time>2026-03-29T07:18:17.999Z</time></trkpt><trkpt lat="42.11657387693854" lon="12.839462097322684"><ele>861.0</ele><time>2026-03-29T07:18:18.999Z</time></trkpt><trkpt lat="42.116675501296406" lon="12.839496282143068"><ele>861.0</ele><time>2026-03-29T07:18:19.999Z</time></trkpt><trkpt lat="42.11679597727044" lon="12.839520278390761"><ele>861.0</ele><time>2026-03-29T07:18:20.999Z</time></trkpt><trkpt lat="42.11692434008771" lon="12.839554986396879"><ele>861.0</ele><time>2026-03-29T07:18:21.999Z</time></trkpt><trkpt lat="42.11704354356503" lon="12.839617248706011"><ele>861.0</ele><time>2026-03-29T07:18:22.999Z</time></trkpt><trkpt lat="42.11716450576459" lon="12.839683144266454"><ele>861.0</ele><time>2026-03-29T07:18:23.999Z</time></trkpt><trkpt lat="42.11729226971148" lon="12.83972992058883"><ele>861.0</ele><time>2026-03-29T07:18:24.999Z</time></trkpt><trkpt lat="42.11743937922318" lon="12.83975062985414"><ele>861.0</ele><time>2026-03-29T07:18:25.999Z</time></trkpt><trkpt lat="42.117585493177764" lon="12.839741618665984"><ele>861.0</ele><time>2026-03-29T07:18:26.999Z</time></trkpt><trkpt lat="42.11773532326268" lon="12.839716996394776"><ele>864.25</ele><time>2026-03-29T07:18:27.999Z</time></trkpt><trkpt lat="42.11787687976781" lon="12.839669739553502"><ele>867.5</ele><time>2026-03-29T07:18:28.999Z</time></trkpt><trkpt lat="42.118011148966424" lon="12.839597530674624"><ele>870.75</ele><time>2026-03-29T07:18:29.999Z</time></trkpt><trkpt lat="42.11814024258226" lon="12.83957599225269"><ele>874.0</ele><time>2026-03-29T07:18:30.999Z</time></trkpt><trkpt lat="42.118240301193005" lon="12.839581444477426"><ele>877.0</ele><time>2026-03-29T07:18:31.999Z</time></trkpt><trkpt lat="42.11833159397253" lon="12.839601055986165"><ele>880.0</ele><time>2026-03-29T07:18:32.999Z</time></trkpt><trkpt lat="42.1184408224755" lon="12.839624368927065"><ele>883.0</ele><time>2026-03-29T07:18:33.999Z</time></trkpt><trkpt lat="42.118565542521985" lon="12.839647342406053"><ele>886.0</ele><time>2026-03-29T07:18:34.999Z</time></trkpt><trkpt lat="42.11869602416068" lon="12.839645837270306"><ele>886.0</ele><time>2026-03-29T07:18:35.999Z</time></trkpt><trkpt lat="42.11883855724198" lon="12.839641564080383"><ele>886.0</ele><time>2026-03-29T07:18:37Z</time></trkpt><trkpt lat="42.11897307677972" lon="12.839677568488604"><ele>886.0</ele><time>2026-03-29T07:18:38Z</time></trkpt><trkpt lat="42.11911198027654" lon="12.83969662437294"><ele>886.0</ele><time>2026-03-29T07:18:39Z</time></trkpt><trkpt lat="42.11924902518023" lon="12.839709005311459"><ele>887.0</ele><time>2026-03-29T07:18:40Z</time></trkpt><trkpt lat="42.11937339113089" lon="12.839790026839065"><ele>888.0</ele><time>2026-03-29T07:18:41Z</time></trkpt><trkpt lat="42.1194936696735" lon="12.839883641812596"><ele>889.0</ele><time>2026-03-29T07:18:42Z</time></trkpt><trkpt lat="42.119616750655936" lon="12.839967996871763"><ele>890.0</ele><time>2026-03-29T07:18:43Z</time></trkpt><trkpt lat="42.119739509686866" lon="12.8400513087941"><ele>895.5</ele><time>2026-03-29T07:18:44Z</time></trkpt><trkpt lat="42.119857128408455" lon="12.840145256483764"><ele>901.0</ele><time>2026-03-29T07:18:45Z</time></trkpt><trkpt lat="42.119965399241984" lon="12.84025388905233"><ele>906.5</ele><time>2026-03-29T07:18:46Z</time></trkpt><trkpt lat="42.12006916021769" lon="12.840374244577864"><ele>912.0</ele><time>2026-03-29T07:18:47Z</time></trkpt><trkpt lat="42.12018059816853" lon="12.840478216285629"><ele>912.0</ele><time>2026-03-29T07:18:48Z</time></trkpt><trkpt lat="42.12029647867279" lon="12.840575870820047"><ele>912.0</ele><time>2026-03-29T07:18:49Z</time></trkpt><trkpt lat="42.12039593124755" lon="12.840688058661646"><ele>912.0</ele><time>2026-03-29T07:18:50Z</time></trkpt><trkpt lat="42.120506940345045" lon="12.840770562970231"><ele>912.0</ele><time>2026-03-29T07:18:51Z</time></trkpt><trkpt lat="42.120594323632126" lon="12.84087033250131"><ele>912.0</ele><time>2026-03-29T07:18:52Z</time></trkpt><trkpt lat="42.12067206488355" lon="12.840935778027808"><ele>912.0</ele><time>2026-03-29T07:18:53Z</time></trkpt><trkpt lat="42.120754496178556" lon="12.840959787009472"><ele>912.0</ele><time>2026-03-29T07:18:54Z</time></trkpt><trkpt lat="42.12085125727635" lon="12.84090653668656"><ele>912.0</ele><time>2026-03-29T07:18:56Z</time></trkpt><trkpt lat="42.12092293874793" lon="12.840857746871809"><ele>912.0</ele><time>2026-03-29T07:18:57Z</time></trkpt><trkpt lat="42.121024782875374" lon="12.840763467113"><ele>908.75</ele><time>2026-03-29T07:18:58Z</time></trkpt><trkpt lat="42.12111445203809" lon="12.840661114466736"><ele>905.5</ele><time>2026-03-29T07:18:59Z</time></trkpt><trkpt lat="42.121217745401" lon="12.840555161934503"><ele>902.25</ele><time>2026-03-29T07:18:59.999Z</time></trkpt><trkpt lat="42.12129576653731" lon="12.840431551951951"><ele>899.0</ele><time>2026-03-29T07:19:00.999Z</time></trkpt><trkpt lat="42.12130728280918" lon="12.840306147311162"><ele>899.0</ele><time>2026-03-29T07:19:01.999Z</time></trkpt><trkpt lat="42.1213237807394" lon="12.840201327459898"><ele>899.0000000000001</ele><time>2026-03-29T07:19:02.999Z</time></trkpt><trkpt lat="42.121293504823605" lon="12.840056285618509"><ele>899.0000000000001</ele><time>2026-03-29T07:19:03.999Z</time></trkpt><trkpt lat="42.121274214107096" lon="12.839916894268603"><ele>899.0</ele><time>2026-03-29T07:19:04.999Z</time></trkpt><trkpt lat="42.1212671529688" lon="12.839778990165058"><ele>899.0</ele><time>2026-03-29T07:19:05.999Z</time></trkpt><trkpt lat="42.12129809741907" lon="12.839695981957087"><ele>899.1666666666667</ele><time>2026-03-29T07:19:06.999Z</time></trkpt><trkpt lat="42.12138587378312" lon="12.839575369870154"><ele>899.3333333333334</ele><time>2026-03-29T07:19:08.999Z</time></trkpt><trkpt lat="42.121452449056555" lon="12.83953057282161"><ele>899.5</ele><time>2026-03-29T07:19:09.999Z</time></trkpt><trkpt lat="42.12152288037132" lon="12.839519156679223"><ele>899.6666666666667</ele><time>2026-03-29T07:19:10.999Z</time></trkpt><trkpt lat="42.12160006882293" lon="12.839525868615363"><ele>899.8333333333334</ele><time>2026-03-29T07:19:11.999Z</time></trkpt><trkpt lat="42.12166785746371" lon="12.839560586415784"><ele>900.0</ele><time>2026-03-29T07:19:12.999Z</time></trkpt><trkpt lat="42.121724549633576" lon="12.839633833097935"><ele>900.0</ele><time>2026-03-29T07:19:13.999Z</time></trkpt><trkpt lat="42.12176846339906" lon="12.839743322345187"><ele>900.0</ele><time>2026-03-29T07:19:14.999Z</time></trkpt><trkpt lat="42.121822181044095" lon="12.839858653328351"><ele>900.0</ele><time>2026-03-29T07:19:15.999Z</time></trkpt><trkpt lat="42.12184671642669" lon="12.840016175181175"><ele>900.0</ele><time>2026-03-29T07:19:16.999Z</time></trkpt><trkpt lat="42.1218590107666" lon="12.84018774513371"><ele>900.0</ele><time>2026-03-29T07:19:17.999Z</time></trkpt><trkpt lat="42.12185205532139" lon="12.84036176141334"><ele>900.25</ele><time>2026-03-29T07:19:18.999Z</time></trkpt><trkpt lat="42.121834374925534" lon="12.840535988072988"><ele>900.5</ele><time>2026-03-29T07:19:19.999Z</time></trkpt><trkpt lat="42.1218222247897" lon="12.840699323133034"><ele>900.75</ele><time>2026-03-29T07:19:20.999Z</time></trkpt><trkpt lat="42.121807677218754" lon="12.840881156217128"><ele>901.0</ele><time>2026-03-29T07:19:21.999Z</time></trkpt><trkpt lat="42.12176452060207" lon="12.841034653997022"><ele>901.0</ele><time>2026-03-29T07:19:22.999Z</time></trkpt><trkpt lat="42.12172234418763" lon="12.841145190605632"><ele>901.0</ele><time>2026-03-29T07:19:23.999Z</time></trkpt><trkpt lat="42.12164087094916" lon="12.841224797188378"><ele>901.0</ele><time>2026-03-29T07:19:24.999Z</time></trkpt><trkpt lat="42.12142878751273" lon="12.84126931750883"><ele>901.0</ele><time>2026-03-29T07:19:25.999Z</time></trkpt><trkpt lat="42.12137359441044" lon="12.841408136261352"><ele>905.1999999999999</ele><time>2026-03-29T07:19:26.999Z</time></trkpt><trkpt lat="42.121348117042515" lon="12.84152569680087"><ele>909.3999999999999</ele><time>2026-03-29T07:19:27.999Z</time></trkpt><trkpt lat="42.12128867516029" lon="12.841634809447184"><ele>913.6</ele><time>2026-03-29T07:19:28.999Z</time></trkpt><trkpt lat="42.121204883633396" lon="12.841747731937206"><ele>917.8</ele><time>2026-03-29T07:19:29.999Z</time></trkpt><trkpt lat="42.121123729420965" lon="12.841827788852255"><ele>922.0</ele><time>2026-03-29T07:19:30.999Z</time></trkpt><trkpt lat="42.12120339494705" lon="12.842210198501078"><ele>921.75</ele><time>2026-03-29T07:19:31.999Z</time></trkpt><trkpt lat="42.121155883621455" lon="12.842378293546412"><ele>921.5</ele><time>2026-03-29T07:19:32.999Z</time></trkpt><trkpt lat="42.1211121138564" lon="12.842524986197713"><ele>921.25</ele><time>2026-03-29T07:19:33.999Z</time></trkpt><trkpt lat="42.121070588910534" lon="12.842660526016372"><ele>921.0</ele><time>2026-03-29T07:19:34.999Z</time></trkpt><trkpt lat="42.12104775300795" lon="12.842795345799765"><ele>921.0</ele><time>2026-03-29T07:19:35.999Z</time></trkpt><trkpt lat="42.12104699596636" lon="12.842948506383992"><ele>920.9999999999999</ele><time>2026-03-29T07:19:36.999Z</time></trkpt><trkpt lat="42.12106976259343" lon="12.84309004171072"><ele>920.9999999999999</ele><time>2026-03-29T07:19:37.999Z</time></trkpt><trkpt lat="42.121083682329086" lon="12.843215538908451"><ele>921.0</ele><time>2026-03-29T07:19:38.999Z</time></trkpt><trkpt lat="42.1210731513346" lon="12.843344217153271"><ele>921.0</ele><time>2026-03-29T07:19:39.999Z</time></trkpt><trkpt lat="42.12104128383238" lon="12.84346922390229"><ele>918.0</ele><time>2026-03-29T07:19:40.999Z</time></trkpt><trkpt lat="42.1210033644671" lon="12.843589958492489"><ele>915.0</ele><time>2026-03-29T07:19:41.999Z</time></trkpt><trkpt lat="42.12095454660439" lon="12.843691792497934"><ele>912.0</ele><time>2026-03-29T07:19:42.999Z</time></trkpt><trkpt lat="42.120902270463" lon="12.843777346762495"><ele>909.0</ele><time>2026-03-29T07:19:43.999Z</time></trkpt><trkpt lat="42.12085343258165" lon="12.843856774872986"><ele>906.0</ele><time>2026-03-29T07:19:44.999Z</time></trkpt><trkpt lat="42.12080807915969" lon="12.84394516934037"><ele>903.0</ele><time>2026-03-29T07:19:45.999Z</time></trkpt><trkpt lat="42.120773606904336" lon="12.844028272140084"><ele>903.0</ele><time>2026-03-29T07:19:46.999Z</time></trkpt><trkpt lat="42.120742010919365" lon="12.84412145124982"><ele>903.0</ele><time>2026-03-29T07:19:47.999Z</time></trkpt><trkpt lat="42.12072071936739" lon="12.844213973127964"><ele>903.0</ele><time>2026-03-29T07:19:48.999Z</time></trkpt><trkpt lat="42.120711942887155" lon="12.844316207863693"><ele>903.0</ele><time>2026-03-29T07:19:49.999Z</time></trkpt><trkpt lat="42.12070513928248" lon="12.844415932731831"><ele>903.0</ele><time>2026-03-29T07:19:50.999Z</time></trkpt><trkpt lat="42.12070827588976" lon="12.844520817029"><ele>903.0</ele><time>2026-03-29T07:19:51.999Z</time></trkpt><trkpt lat="42.120717891317895" lon="12.844621688474284"><ele>900.6666666666666</ele><time>2026-03-29T07:19:52.999Z</time></trkpt><trkpt lat="42.120725327049435" lon="12.844727056473543"><ele>898.3333333333333</ele><time>2026-03-29T07:19:53.999Z</time></trkpt><trkpt lat="42.120732843463664" lon="12.844836795567648"><ele>896.0</ele><time>2026-03-29T07:19:54.999Z</time></trkpt><trkpt lat="42.12070081130737" lon="12.84497713663063"><ele>893.6666666666666</ele><time>2026-03-29T07:19:56.999Z</time></trkpt><trkpt lat="42.12064486450692" lon="12.845055176599665"><ele>891.3333333333333</ele><time>2026-03-29T07:19:57.999Z</time></trkpt><trkpt lat="42.12057625813144" lon="12.845147526936746"><ele>889.0</ele><time>2026-03-29T07:19:58.999Z</time></trkpt><trkpt lat="42.120501060111536" lon="12.845260528114595"><ele>888.5</ele><time>2026-03-29T07:19:59.999Z</time></trkpt><trkpt lat="42.12042079343036" lon="12.845364985059177"><ele>888.0</ele><time>2026-03-29T07:20:00.999Z</time></trkpt><trkpt lat="42.12032546913802" lon="12.84547659481705"><ele>887.5</ele><time>2026-03-29T07:20:01.999Z</time></trkpt><trkpt lat="42.12021375068527" lon="12.845610462671454"><ele>887.0</ele><time>2026-03-29T07:20:02.999Z</time></trkpt><trkpt lat="42.12006724513925" lon="12.84573653968618"><ele>887.0</ele><time>2026-03-29T07:20:03.999Z</time></trkpt><trkpt lat="42.11990727784482" lon="12.845843427778547"><ele>887.0</ele><time>2026-03-29T07:20:04.999Z</time></trkpt><trkpt lat="42.11974145498103" lon="12.845947505310573"><ele>887.0</ele><time>2026-03-29T07:20:05.999Z</time></trkpt><trkpt lat="42.11956634245404" lon="12.846097007964062"><ele>882.6666666666667</ele><time>2026-03-29T07:20:06.999Z</time></trkpt><trkpt lat="42.11940977418427" lon="12.846237873427976"><ele>878.3333333333333</ele><time>2026-03-29T07:20:07.999Z</time></trkpt><trkpt lat="42.11927276932995" lon="12.846347857703517"><ele>874.0</ele><time>2026-03-29T07:20:08.999Z</time></trkpt><trkpt lat="42.11914705067211" lon="12.846430764788654"><ele>870.25</ele><time>2026-03-29T07:20:09.999Z</time></trkpt><trkpt lat="42.11904078595342" lon="12.846514611306542"><ele>866.5</ele><time>2026-03-29T07:20:10.999Z</time></trkpt><trkpt lat="42.118959518799194" lon="12.84660653421782"><ele>862.75</ele><time>2026-03-29T07:20:11.999Z</time></trkpt><trkpt lat="42.118891873194514" lon="12.846736040870729"><ele>859.0</ele><time>2026-03-29T07:20:12.999Z</time></trkpt><trkpt lat="42.118830440853436" lon="12.846870552014456"><ele>859.0</ele><time>2026-03-29T07:20:13.999Z</time></trkpt><trkpt lat="42.11874762131639" lon="12.846971076608037"><ele>859.0</ele><time>2026-03-29T07:20:14.999Z</time></trkpt><trkpt lat="42.11862425975714" lon="12.84705668344864"><ele>859.0</ele><time>2026-03-29T07:20:15.999Z</time></trkpt><trkpt lat="42.118488580104334" lon="12.847135450737522"><ele>859.0</ele><time>2026-03-29T07:20:16.999Z</time></trkpt><trkpt lat="42.11835909867202" lon="12.847216774922925"><ele>861.3333333333333</ele><time>2026-03-29T07:20:17.999Z</time></trkpt><trkpt lat="42.11822368476678" lon="12.84729235195174"><ele>863.6666666666667</ele><time>2026-03-29T07:20:18.999Z</time></trkpt><trkpt lat="42.118076145449294" lon="12.847384564870678"><ele>866.0</ele><time>2026-03-29T07:20:19.999Z</time></trkpt><trkpt lat="42.117931005608646" lon="12.84747270560991"><ele>866.0</ele><time>2026-03-29T07:20:20.999Z</time></trkpt><trkpt lat="42.11780533165482" lon="12.84753677581963"><ele>866.0</ele><time>2026-03-29T07:20:21.999Z</time></trkpt><trkpt lat="42.11768409036282" lon="12.847580947816066"><ele>866.0</ele><time>2026-03-29T07:20:22.999Z</time></trkpt><trkpt lat="42.11755551823955" lon="12.847608100670813"><ele>866.0</ele><time>2026-03-29T07:20:23.999Z</time></trkpt><trkpt lat="42.117429938276324" lon="12.847614458170082"><ele>864.5</ele><time>2026-03-29T07:20:24.999Z</time></trkpt><trkpt lat="42.1173102662272" lon="12.847603749386028"><ele>863.0</ele><time>2026-03-29T07:20:25.999Z</time></trkpt><trkpt lat="42.11718237278106" lon="12.84758861097481"><ele>861.5</ele><time>2026-03-29T07:20:26.999Z</time></trkpt><trkpt lat="42.1170452737942" lon="12.847559942267031"><ele>860.0</ele><time>2026-03-29T07:20:27.999Z</time></trkpt><trkpt lat="42.11687835580898" lon="12.847542577578794"><ele>860.0</ele><time>2026-03-29T07:20:28.999Z</time></trkpt><trkpt lat="42.116709352105616" lon="12.84750834426043"><ele>860.0</ele><time>2026-03-29T07:20:29.999Z</time></trkpt><trkpt lat="42.11653743499389" lon="12.847490493539267"><ele>860.0</ele><time>2026-03-29T07:20:30.999Z</time></trkpt><trkpt lat="42.11636892522816" lon="12.847482550859683"><ele>860.3333333333334</ele><time>2026-03-29T07:20:31.999Z</time></trkpt><trkpt lat="42.11620272579109" lon="12.847493891764767"><ele>860.6666666666667</ele><time>2026-03-29T07:20:32.999Z</time></trkpt><trkpt lat="42.11604319508211" lon="12.847515945386888"><ele>861.0</ele><time>2026-03-29T07:20:33.999Z</time></trkpt><trkpt lat="42.115884817137704" lon="12.847557103437381"><ele>862.6666666666667</ele><time>2026-03-29T07:20:34.999Z</time></trkpt><trkpt lat="42.115711556557876" lon="12.84762108514519"><ele>864.3333333333334</ele><time>2026-03-29T07:20:35.999Z</time></trkpt><trkpt lat="42.11555357372898" lon="12.847673112334892"><ele>866.0</ele><time>2026-03-29T07:20:36.999Z</time></trkpt><trkpt lat="42.1154171858884" lon="12.847729088231343"><ele>854.5</ele><time>2026-03-29T07:20:37.999Z</time></trkpt><trkpt lat="42.115298948333674" lon="12.847809567242873"><ele>843.0</ele><time>2026-03-29T07:20:38.999Z</time></trkpt><trkpt lat="42.11519691210801" lon="12.84790462929644"><ele>831.5</ele><time>2026-03-29T07:20:39.999Z</time></trkpt><trkpt lat="42.11510287009909" lon="12.847964248726093"><ele>820.0</ele><time>2026-03-29T07:20:40.999Z</time></trkpt><trkpt lat="42.11499292345853" lon="12.847978678724443"><ele>819.0</ele><time>2026-03-29T07:20:41.999Z</time></trkpt><trkpt lat="42.11486042741256" lon="12.847966038953679"><ele>818.0</ele><time>2026-03-29T07:20:42.999Z</time></trkpt><trkpt lat="42.114704181386976" lon="12.847918542762125"><ele>817.0</ele><time>2026-03-29T07:20:43.999Z</time></trkpt><trkpt lat="42.11452487773924" lon="12.847874299657944"><ele>817.0</ele><time>2026-03-29T07:20:44.999Z</time></trkpt><trkpt lat="42.11435346846402" lon="12.847857274675377"><ele>817.0</ele><time>2026-03-29T07:20:45.999Z</time></trkpt><trkpt lat="42.11420925993273" lon="12.847827308077212"><ele>817.0</ele><time>2026-03-29T07:20:46.999Z</time></trkpt><trkpt lat="42.11408366314126" lon="12.847808384904383"><ele>817.0</ele><time>2026-03-29T07:20:47.999Z</time></trkpt><trkpt lat="42.11396257165721" lon="12.847835353899132"><ele>821.0</ele><time>2026-03-29T07:20:48.999Z</time></trkpt><trkpt lat="42.113835255837806" lon="12.847891123864676"><ele>825.0</ele><time>2026-03-29T07:20:49.999Z</time></trkpt><trkpt lat="42.113724614415645" lon="12.847985157975359"><ele>829.0</ele><time>2026-03-29T07:20:50.999Z</time></trkpt><trkpt lat="42.11364083242964" lon="12.848102660806719"><ele>833.0</ele><time>2026-03-29T07:20:51.999Z</time></trkpt><trkpt lat="42.11355529859169" lon="12.848186191857693"><ele>833.0</ele><time>2026-03-29T07:20:52.999Z</time></trkpt><trkpt lat="42.113438447598874" lon="12.848260830745263"><ele>833.0</ele><time>2026-03-29T07:20:53.999Z</time></trkpt><trkpt lat="42.11330039641954" lon="12.848306905440547"><ele>833.0</ele><time>2026-03-29T07:20:54.999Z</time></trkpt><trkpt lat="42.113150054723825" lon="12.84833937654632"><ele>833.0</ele><time>2026-03-29T07:20:55.999Z</time></trkpt><trkpt lat="42.11299264489557" lon="12.848381288449836"><ele>832.6666666666667</ele><time>2026-03-29T07:20:56.999Z</time></trkpt><trkpt lat="42.11283691704501" lon="12.848484380425658"><ele>832.3333333333333</ele><time>2026-03-29T07:20:57.999Z</time></trkpt><trkpt lat="42.11269611709598" lon="12.848584894872586"><ele>832.0</ele><time>2026-03-29T07:20:58.999Z</time></trkpt><trkpt lat="42.11257081529961" lon="12.848667968021946"><ele>832.0</ele><time>2026-03-29T07:20:59.999Z</time></trkpt><trkpt lat="42.11245955987896" lon="12.848751415934752"><ele>832.0</ele><time>2026-03-29T07:21:00.999Z</time></trkpt><trkpt lat="42.11238579638239" lon="12.848819606298974"><ele>832.0</ele><time>2026-03-29T07:21:01.999Z</time></trkpt><trkpt lat="42.1123161725649" lon="12.848947823379069"><ele>832.0</ele><time>2026-03-29T07:21:02.999Z</time></trkpt><trkpt lat="42.112232444176634" lon="12.849112285481876"><ele>835.0</ele><time>2026-03-29T07:21:03.999Z</time></trkpt><trkpt lat="42.112161410171815" lon="12.849281739680146"><ele>838.0</ele><time>2026-03-29T07:21:04.999Z</time></trkpt><trkpt lat="42.11210194616143" lon="12.849441237323099"><ele>841.0</ele><time>2026-03-29T07:21:05.999Z</time></trkpt><trkpt lat="42.11203656727486" lon="12.849557587586528"><ele>844.0</ele><time>2026-03-29T07:21:06.999Z</time></trkpt><trkpt lat="42.11193421763751" lon="12.849652587187489"><ele>844.0</ele><time>2026-03-29T07:21:07.999Z</time></trkpt><trkpt lat="42.11180534331569" lon="12.849738176901814"><ele>844.0</ele><time>2026-03-29T07:21:08.999Z</time></trkpt><trkpt lat="42.11166328808605" lon="12.849838786343755"><ele>844.0</ele><time>2026-03-29T07:21:09.999Z</time></trkpt><trkpt lat="42.11152363352446" lon="12.849946372104148"><ele>846.3333333333333</ele><time>2026-03-29T07:21:10.999Z</time></trkpt><trkpt lat="42.11137146737299" lon="12.850051500494505"><ele>848.6666666666667</ele><time>2026-03-29T07:21:11.999Z</time></trkpt><trkpt lat="42.11122558593484" lon="12.850156671711359"><ele>851.0</ele><time>2026-03-29T07:21:12.999Z</time></trkpt><trkpt lat="42.11110360944735" lon="12.85027974035487"><ele>851.0</ele><time>2026-03-29T07:21:13.999Z</time></trkpt><trkpt lat="42.11098553922665" lon="12.850350779371972"><ele>851.0</ele><time>2026-03-29T07:21:14.999Z</time></trkpt><trkpt lat="42.11084776497809" lon="12.850390606262735"><ele>851.0</ele><time>2026-03-29T07:21:15.999Z</time></trkpt><trkpt lat="42.11068418289775" lon="12.850424876282133"><ele>851.0</ele><time>2026-03-29T07:21:16.999Z</time></trkpt><trkpt lat="42.1105033591375" lon="12.850506871325514"><ele>853.0</ele><time>2026-03-29T07:21:17.999Z</time></trkpt><trkpt lat="42.110331701352585" lon="12.850609741948363"><ele>855.0</ele><time>2026-03-29T07:21:18.999Z</time></trkpt><trkpt lat="42.11017164659445" lon="12.85069547665091"><ele>857.0</ele><time>2026-03-29T07:21:19.999Z</time></trkpt><trkpt lat="42.11001586372652" lon="12.85078767551933"><ele>859.75</ele><time>2026-03-29T07:21:20.999Z</time></trkpt><trkpt lat="42.109875433456686" lon="12.850866203072837"><ele>862.5</ele><time>2026-03-29T07:21:21.999Z</time></trkpt><trkpt lat="42.10974365917152" lon="12.850921364645165"><ele>865.25</ele><time>2026-03-29T07:21:22.999Z</time></trkpt><trkpt lat="42.10961365098198" lon="12.850974814408879"><ele>868.0</ele><time>2026-03-29T07:21:23.999Z</time></trkpt><trkpt lat="42.10949027645375" lon="12.851026389924904"><ele>868.0</ele><time>2026-03-29T07:21:24.999Z</time></trkpt><trkpt lat="42.10939277012295" lon="12.851088097037051"><ele>868.0</ele><time>2026-03-29T07:21:25.999Z</time></trkpt><trkpt lat="42.10931455150845" lon="12.851163071760574"><ele>868.0</ele><time>2026-03-29T07:21:26.999Z</time></trkpt><trkpt lat="42.10926490739181" lon="12.851224709594074"><ele>868.0</ele><time>2026-03-29T07:21:27.999Z</time></trkpt><trkpt lat="42.109255892159155" lon="12.851344210736428"><ele>868.0</ele><time>2026-03-29T07:21:29.999Z</time></trkpt><trkpt lat="42.1093329126124" lon="12.851413752762694"><ele>867.9999999999999</ele><time>2026-03-29T07:21:31.999Z</time></trkpt><trkpt lat="42.10939666438709" lon="12.851418445240144"><ele>868.0</ele><time>2026-03-29T07:21:34.999Z</time></trkpt><trkpt lat="42.10947031361315" lon="12.851379710785148"><ele>868.0</ele><time>2026-03-29T07:21:38.999Z</time></trkpt><trkpt lat="42.1095672151993" lon="12.851369276514784"><ele>868.0</ele><time>2026-03-29T07:21:41.999Z</time></trkpt><trkpt lat="42.10963960801434" lon="12.851385203988483"><ele>867.9999999999999</ele><time>2026-03-29T07:21:42.999Z</time></trkpt><trkpt lat="42.109710859870646" lon="12.851414426923558"><ele>868.0</ele><time>2026-03-29T07:21:43.999Z</time></trkpt><trkpt lat="42.10980030342537" lon="12.851446933506267"><ele>867.9999999999999</ele><time>2026-03-29T07:21:44.999Z</time></trkpt><trkpt lat="42.1098710729855" lon="12.85146086566838"><ele>868.0</ele><time>2026-03-29T07:21:45.999Z</time></trkpt><trkpt lat="42.110001075264876" lon="12.851385009313201"><ele>868.0</ele><time>2026-03-29T07:21:47.999Z</time></trkpt><trkpt lat="42.11006784285983" lon="12.85134390489059"><ele>868.0</ele><time>2026-03-29T07:21:48.999Z</time></trkpt><trkpt lat="42.11013797446542" lon="12.851305582078341"><ele>867.9999999999999</ele><time>2026-03-29T07:21:49.999Z</time></trkpt><trkpt lat="42.11022137623564" lon="12.851274829713502"><ele>868.0</ele><time>2026-03-29T07:21:50.999Z</time></trkpt><trkpt lat="42.110295767214275" lon="12.851248578655731"><ele>867.8571428571429</ele><time>2026-03-29T07:21:51.999Z</time></trkpt><trkpt lat="42.11036438675396" lon="12.851228505713944"><ele>867.7142857142858</ele><time>2026-03-29T07:21:52.999Z</time></trkpt><trkpt lat="42.11043170543577" lon="12.851207914081037"><ele>867.5714285714286</ele><time>2026-03-29T07:21:53.999Z</time></trkpt><trkpt lat="42.11049531578292" lon="12.851182901676687"><ele>867.4285714285714</ele><time>2026-03-29T07:21:54.999Z</time></trkpt><trkpt lat="42.110573694094334" lon="12.851157140578309"><ele>867.2857142857143</ele><time>2026-03-29T07:21:55.999Z</time></trkpt><trkpt lat="42.110642717037216" lon="12.851117266600198"><ele>867.1428571428571</ele><time>2026-03-29T07:21:56.999Z</time></trkpt><trkpt lat="42.110706833223446" lon="12.851083202467104"><ele>867.0</ele><time>2026-03-29T07:21:57.999Z</time></trkpt><trkpt lat="42.110780322751154" lon="12.851055155185577"><ele>867.8</ele><time>2026-03-29T07:21:58.999Z</time></trkpt><trkpt lat="42.110857976591895" lon="12.851030404437019"><ele>868.6</ele><time>2026-03-29T07:21:59.999Z</time></trkpt><trkpt lat="42.11093607888996" lon="12.851007715857072"><ele>869.3999999999999</ele><time>2026-03-29T07:22:00.999Z</time></trkpt><trkpt lat="42.11101569104397" lon="12.85098742846483"><ele>870.1999999999999</ele><time>2026-03-29T07:22:01.999Z</time></trkpt><trkpt lat="42.111113822241904" lon="12.850977900547422"><ele>871.0</ele><time>2026-03-29T07:22:02.999Z</time></trkpt><trkpt lat="42.111233776409954" lon="12.85096602526326"><ele>867.0</ele><time>2026-03-29T07:22:03.999Z</time></trkpt><trkpt lat="42.111343801114046" lon="12.850932155647234"><ele>862.9999999999999</ele><time>2026-03-29T07:22:04.999Z</time></trkpt><trkpt lat="42.11144417157249" lon="12.850886802894971"><ele>859.0</ele><time>2026-03-29T07:22:05.999Z</time></trkpt><trkpt lat="42.11153028170706" lon="12.850862797658431"><ele>855.0</ele><time>2026-03-29T07:22:06.999Z</time></trkpt><trkpt lat="42.111613407353104" lon="12.850840328191904"><ele>851.0</ele><time>2026-03-29T07:22:07.999Z</time></trkpt><trkpt lat="42.111712105941535" lon="12.85079821913884"><ele>850.1999999999999</ele><time>2026-03-29T07:22:08.999Z</time></trkpt><trkpt lat="42.111803777202" lon="12.850782307320914"><ele>849.4</ele><time>2026-03-29T07:22:09.999Z</time></trkpt><trkpt lat="42.11189046394371" lon="12.85076437701885"><ele>848.6</ele><time>2026-03-29T07:22:10.999Z</time></trkpt><trkpt lat="42.11199025991701" lon="12.850756416813098"><ele>847.8</ele><time>2026-03-29T07:22:11.999Z</time></trkpt><trkpt lat="42.11209978054487" lon="12.85073391141783"><ele>847.0</ele><time>2026-03-29T07:22:12.999Z</time></trkpt><trkpt lat="42.112207647696486" lon="12.850698842930868"><ele>847.0</ele><time>2026-03-29T07:22:13.999Z</time></trkpt><trkpt lat="42.11230925339565" lon="12.85066117559286"><ele>847.0</ele><time>2026-03-29T07:22:14.999Z</time></trkpt><trkpt lat="42.11242213484328" lon="12.850581767858479"><ele>847.0</ele><time>2026-03-29T07:22:15.999Z</time></trkpt><trkpt lat="42.11252618631506" lon="12.850491340173797"><ele>847.0</ele><time>2026-03-29T07:22:16.999Z</time></trkpt><trkpt lat="42.11263836020961" lon="12.850392220797408"><ele>845.5</ele><time>2026-03-29T07:22:17.999Z</time></trkpt><trkpt lat="42.1127592395868" lon="12.85034439806444"><ele>844.0</ele><time>2026-03-29T07:22:18.999Z</time></trkpt><trkpt lat="42.112881316269224" lon="12.850323717142548"><ele>842.5</ele><time>2026-03-29T07:22:19.999Z</time></trkpt><trkpt lat="42.11300366119465" lon="12.850337171947006"><ele>841.0</ele><time>2026-03-29T07:22:20.999Z</time></trkpt><trkpt lat="42.11314527262737" lon="12.850369869486517"><ele>839.6666666666666</ele><time>2026-03-29T07:22:21.999Z</time></trkpt><trkpt lat="42.113291980391864" lon="12.85042744326796"><ele>838.3333333333333</ele><time>2026-03-29T07:22:22.999Z</time></trkpt><trkpt lat="42.113445236781935" lon="12.850449376749948"><ele>837.0</ele><time>2026-03-29T07:22:23.999Z</time></trkpt><trkpt lat="42.11359304390727" lon="12.850469969794847"><ele>837.0</ele><time>2026-03-29T07:22:24.999Z</time></trkpt><trkpt lat="42.113729621053984" lon="12.850520295835931"><ele>837.0</ele><time>2026-03-29T07:22:25.999Z</time></trkpt><trkpt lat="42.113855210666436" lon="12.850597122154058"><ele>837.0</ele><time>2026-03-29T07:22:26.999Z</time></trkpt><trkpt lat="42.113974209140515" lon="12.850693581522181"><ele>837.0</ele><time>2026-03-29T07:22:27.999Z</time></trkpt><trkpt lat="42.114099114108676" lon="12.850761442631011"><ele>838.6</ele><time>2026-03-29T07:22:28.999Z</time></trkpt><trkpt lat="42.1142013243576" lon="12.850808606431974"><ele>840.2</ele><time>2026-03-29T07:22:29.999Z</time></trkpt><trkpt lat="42.1142746097556" lon="12.850891917890777"><ele>841.8</ele><time>2026-03-29T07:22:30.999Z</time></trkpt><trkpt lat="42.114334761521484" lon="12.851000071405084"><ele>843.4</ele><time>2026-03-29T07:22:31.999Z</time></trkpt><trkpt lat="42.11438177754385" lon="12.851152641005642"><ele>845.0</ele><time>2026-03-29T07:22:32.999Z</time></trkpt><trkpt lat="42.114410701579686" lon="12.851335394419225"><ele>845.0</ele><time>2026-03-29T07:22:33.999Z</time></trkpt><trkpt lat="42.11444206727771" lon="12.851526158738007"><ele>845.0</ele><time>2026-03-29T07:22:34.999Z</time></trkpt><trkpt lat="42.1144826316091" lon="12.851675577919194"><ele>845.0</ele><time>2026-03-29T07:22:35.999Z</time></trkpt><trkpt lat="42.114500388101945" lon="12.851795237700314"><ele>845.0</ele><time>2026-03-29T07:22:36.999Z</time></trkpt><trkpt lat="42.11456211668645" lon="12.851881149656776"><ele>845.0</ele><time>2026-03-29T07:22:37.999Z</time></trkpt><trkpt lat="42.11466258674242" lon="12.851916967150157"><ele>848.5</ele><time>2026-03-29T07:22:39.999Z</time></trkpt><trkpt lat="42.11479001710286" lon="12.851931777047632"><ele>852.0</ele><time>2026-03-29T07:22:40.999Z</time></trkpt><trkpt lat="42.11489909642479" lon="12.851916177134372"><ele>855.5</ele><time>2026-03-29T07:22:41.999Z</time></trkpt><trkpt lat="42.11502013215478" lon="12.85187543372802"><ele>859.0</ele><time>2026-03-29T07:22:42.999Z</time></trkpt><trkpt lat="42.1151551293865" lon="12.851757605421437"><ele>848.0</ele><time>2026-03-29T07:22:43.999Z</time></trkpt><trkpt lat="42.115272467405546" lon="12.851647294381209"><ele>837.0</ele><time>2026-03-29T07:22:44.999Z</time></trkpt><trkpt lat="42.115446635239714" lon="12.85160527833673"><ele>826.0</ele><time>2026-03-29T07:22:45.999Z</time></trkpt><trkpt lat="42.11562574846696" lon="12.851556957283183"><ele>828.0</ele><time>2026-03-29T07:22:46.999Z</time></trkpt><trkpt lat="42.11579962856723" lon="12.851527632039716"><ele>830.0</ele><time>2026-03-29T07:22:47.999Z</time></trkpt><trkpt lat="42.115939533945564" lon="12.851542895293688"><ele>832.0</ele><time>2026-03-29T07:22:49Z</time></trkpt><trkpt lat="42.11606522118375" lon="12.851568687442555"><ele>834.0</ele><time>2026-03-29T07:22:50Z</time></trkpt><trkpt lat="42.116155941829895" lon="12.851611335619094"><ele>834.0</ele><time>2026-03-29T07:22:51Z</time></trkpt><trkpt lat="42.116236015971836" lon="12.851698565306638"><ele>834.0</ele><time>2026-03-29T07:22:52Z</time></trkpt><trkpt lat="42.1162959994535" lon="12.851809687662973"><ele>834.0</ele><time>2026-03-29T07:22:53Z</time></trkpt><trkpt lat="42.11633273940322" lon="12.851913201604463"><ele>834.0</ele><time>2026-03-29T07:22:54Z</time></trkpt><trkpt lat="42.11635991807629" lon="12.852028785151594"><ele>834.0</ele><time>2026-03-29T07:22:55Z</time></trkpt><trkpt lat="42.11637052900045" lon="12.852177374921006"><ele>840.25</ele><time>2026-03-29T07:22:56Z</time></trkpt><trkpt lat="42.11636890432314" lon="12.852340088472454"><ele>846.5</ele><time>2026-03-29T07:22:57Z</time></trkpt><trkpt lat="42.116376913329255" lon="12.852541738992487"><ele>852.75</ele><time>2026-03-29T07:22:58Z</time></trkpt><trkpt lat="42.116392041649725" lon="12.852738503722419"><ele>859.0</ele><time>2026-03-29T07:22:59Z</time></trkpt><trkpt lat="42.116386920508276" lon="12.852895535483253"><ele>860.8000000000001</ele><time>2026-03-29T07:23:00Z</time></trkpt><trkpt lat="42.11638438167218" lon="12.853015029757637"><ele>862.6000000000001</ele><time>2026-03-29T07:23:01Z</time></trkpt><trkpt lat="42.116352148414364" lon="12.853103471677677"><ele>864.4</ele><time>2026-03-29T07:23:02Z</time></trkpt><trkpt lat="42.11635407859452" lon="12.853189259435041"><ele>866.2</ele><time>2026-03-29T07:23:03Z</time></trkpt><trkpt lat="42.116447502596245" lon="12.853303850414326"><ele>868.0</ele><time>2026-03-29T07:23:05Z</time></trkpt><trkpt lat="42.116543444501964" lon="12.853341887465326"><ele>860.3333333333333</ele><time>2026-03-29T07:23:06Z</time></trkpt><trkpt lat="42.116688604276796" lon="12.853372044565555"><ele>852.6666666666667</ele><time>2026-03-29T07:23:07Z</time></trkpt><trkpt lat="42.116844995602314" lon="12.853410551334836"><ele>845.0</ele><time>2026-03-29T07:23:08Z</time></trkpt><trkpt lat="42.11699123651653" lon="12.853430036013926"><ele>845.0</ele><time>2026-03-29T07:23:08.999Z</time></trkpt><trkpt lat="42.117170259868814" lon="12.85340458547288"><ele>845.0</ele><time>2026-03-29T07:23:09.999Z</time></trkpt><trkpt lat="42.117363491918304" lon="12.853356991747495"><ele>845.0</ele><time>2026-03-29T07:23:10.999Z</time></trkpt><trkpt lat="42.11756818721139" lon="12.853290947337555"><ele>845.0</ele><time>2026-03-29T07:23:11.999Z</time></trkpt><trkpt lat="42.11777984201736" lon="12.853216684797323"><ele>845.0</ele><time>2026-03-29T07:23:12.999Z</time></trkpt><trkpt lat="42.117965621382375" lon="12.853150461692403"><ele>845.0</ele><time>2026-03-29T07:23:13.999Z</time></trkpt><trkpt lat="42.11813488758459" lon="12.853095870572808"><ele>847.25</ele><time>2026-03-29T07:23:14.999Z</time></trkpt><trkpt lat="42.11829229430457" lon="12.85306315684526"><ele>849.5</ele><time>2026-03-29T07:23:15.999Z</time></trkpt><trkpt lat="42.11842193922157" lon="12.853052659932501"><ele>851.75</ele><time>2026-03-29T07:23:16.999Z</time></trkpt><trkpt lat="42.11853626183205" lon="12.853072470039788"><ele>854.0</ele><time>2026-03-29T07:23:17.999Z</time></trkpt><trkpt lat="42.118627535980096" lon="12.85311528088822"><ele>854.0</ele><time>2026-03-29T07:23:18.999Z</time></trkpt><trkpt lat="42.118695698821135" lon="12.853189176815086"><ele>854.0</ele><time>2026-03-29T07:23:19.999Z</time></trkpt><trkpt lat="42.11875982969309" lon="12.853288213502818"><ele>854.0</ele><time>2026-03-29T07:23:20.999Z</time></trkpt><trkpt lat="42.11883012105476" lon="12.853438172254188"><ele>854.0</ele><time>2026-03-29T07:23:21.999Z</time></trkpt><trkpt lat="42.11893730195537" lon="12.853581668333032"><ele>859.25</ele><time>2026-03-29T07:23:22.999Z</time></trkpt><trkpt lat="42.11907041541412" lon="12.853659022095384"><ele>864.5</ele><time>2026-03-29T07:23:23.999Z</time></trkpt><trkpt lat="42.119208362007676" lon="12.853754822364058"><ele>869.75</ele><time>2026-03-29T07:23:24.999Z</time></trkpt><trkpt lat="42.11932845661212" lon="12.85386915299759"><ele>875.0</ele><time>2026-03-29T07:23:25.999Z</time></trkpt><trkpt lat="42.11944795908476" lon="12.853929922894684"><ele>875.0</ele><time>2026-03-29T07:23:26.999Z</time></trkpt><trkpt lat="42.11958825634705" lon="12.853954525149527"><ele>875.0</ele><time>2026-03-29T07:23:27.999Z</time></trkpt><trkpt lat="42.119738364851145" lon="12.853928967874172"><ele>875.0</ele><time>2026-03-29T07:23:28.999Z</time></trkpt><trkpt lat="42.11987299312068" lon="12.853893390606585"><ele>875.0</ele><time>2026-03-29T07:23:29.999Z</time></trkpt><trkpt lat="42.119984151261384" lon="12.853872131743985"><ele>872.75</ele><time>2026-03-29T07:23:30.999Z</time></trkpt><trkpt lat="42.12009948823204" lon="12.853916012693798"><ele>870.5</ele><time>2026-03-29T07:23:31.999Z</time></trkpt><trkpt lat="42.12021343095474" lon="12.85397596929683"><ele>868.25</ele><time>2026-03-29T07:23:32.999Z</time></trkpt><trkpt lat="42.120345510753246" lon="12.854069831476911"><ele>866.0</ele><time>2026-03-29T07:23:33.999Z</time></trkpt><trkpt lat="42.12047148042929" lon="12.854128977884447"><ele>866.0</ele><time>2026-03-29T07:23:34.999Z</time></trkpt><trkpt lat="42.120618886541074" lon="12.854146904751119"><ele>866.0</ele><time>2026-03-29T07:23:35.999Z</time></trkpt><trkpt lat="42.1207534817386" lon="12.854132766509716"><ele>866.0</ele><time>2026-03-29T07:23:36.999Z</time></trkpt><trkpt lat="42.12085489148513" lon="12.854087879728013"><ele>866.0</ele><time>2026-03-29T07:23:37.999Z</time></trkpt><trkpt lat="42.120952048754056" lon="12.85400425832991"><ele>865.6666666666667</ele><time>2026-03-29T07:23:38.999Z</time></trkpt><trkpt lat="42.12107769505748" lon="12.853866235044695"><ele>865.3333333333333</ele><time>2026-03-29T07:23:39.999Z</time></trkpt><trkpt lat="42.121194996774086" lon="12.853731741010751"><ele>865.0</ele><time>2026-03-29T07:23:40.999Z</time></trkpt><trkpt lat="42.12129384434894" lon="12.853599431385069"><ele>865.0</ele><time>2026-03-29T07:23:41.999Z</time></trkpt><trkpt lat="42.121423833817765" lon="12.853492932190472"><ele>865.0</ele><time>2026-03-29T07:23:42.999Z</time></trkpt><trkpt lat="42.12156330534578" lon="12.853360100920467"><ele>865.0</ele><time>2026-03-29T07:23:43.999Z</time></trkpt><trkpt lat="42.12170192694774" lon="12.85330627405527"><ele>863.0</ele><time>2026-03-29T07:23:44.999Z</time></trkpt><trkpt lat="42.12183148795912" lon="12.853238326440886"><ele>861.0</ele><time>2026-03-29T07:23:45.999Z</time></trkpt><trkpt lat="42.12194125625354" lon="12.85317564163848"><ele>859.0</ele><time>2026-03-29T07:23:46.999Z</time></trkpt><trkpt lat="42.1220429901276" lon="12.853168098534416"><ele>857.0</ele><time>2026-03-29T07:23:47.999Z</time></trkpt><trkpt lat="42.12214219858475" lon="12.853139989308378"><ele>857.0</ele><time>2026-03-29T07:23:48.999Z</time></trkpt><trkpt lat="42.12224605126407" lon="12.853180324423215"><ele>857.0</ele><time>2026-03-29T07:23:49.999Z</time></trkpt><trkpt lat="42.12234969490386" lon="12.853262991542877"><ele>857.0</ele><time>2026-03-29T07:23:50.999Z</time></trkpt><trkpt lat="42.12244781689142" lon="12.853338152190211"><ele>857.0</ele><time>2026-03-29T07:23:51.999Z</time></trkpt><trkpt lat="42.12258907185869" lon="12.853395420595541"><ele>860.6666666666667</ele><time>2026-03-29T07:23:52.999Z</time></trkpt><trkpt lat="42.12274631025804" lon="12.853434575637902"><ele>864.3333333333333</ele><time>2026-03-29T07:23:53.999Z</time></trkpt><trkpt lat="42.122904688893165" lon="12.853484249295922"><ele>868.0</ele><time>2026-03-29T07:23:54.999Z</time></trkpt><trkpt lat="42.12306961267014" lon="12.853489077892638"><ele>869.6666666666666</ele><time>2026-03-29T07:23:55.999Z</time></trkpt><trkpt lat="42.12323022669482" lon="12.853492904336687"><ele>871.3333333333333</ele><time>2026-03-29T07:23:56.999Z</time></trkpt><trkpt lat="42.123374785746705" lon="12.85347802093673"><ele>873.0</ele><time>2026-03-29T07:23:57.999Z</time></trkpt><trkpt lat="42.1235468291874" lon="12.853450690797136"><ele>873.0</ele><time>2026-03-29T07:23:58.999Z</time></trkpt><trkpt lat="42.12370071887938" lon="12.853379326235752"><ele>873.0</ele><time>2026-03-29T07:23:59.999Z</time></trkpt><trkpt lat="42.123869720183244" lon="12.85330124894447"><ele>873.0</ele><time>2026-03-29T07:24:00.999Z</time></trkpt><trkpt lat="42.124036096434715" lon="12.8532255929566"><ele>878.0</ele><time>2026-03-29T07:24:01.999Z</time></trkpt><trkpt lat="42.12418062066733" lon="12.853155048734008"><ele>883.0</ele><time>2026-03-29T07:24:02.999Z</time></trkpt><trkpt lat="42.12431675568417" lon="12.853086823199721"><ele>888.0</ele><time>2026-03-29T07:24:03.999Z</time></trkpt><trkpt lat="42.12444457788534" lon="12.853027064956228"><ele>893.0</ele><time>2026-03-29T07:24:04.999Z</time></trkpt><trkpt lat="42.12457904542683" lon="12.852969021491432"><ele>893.0</ele><time>2026-03-29T07:24:05.999Z</time></trkpt><trkpt lat="42.124710181533985" lon="12.852915663241307"><ele>893.0</ele><time>2026-03-29T07:24:06.999Z</time></trkpt><trkpt lat="42.12484327717849" lon="12.852880466478778"><ele>893.0</ele><time>2026-03-29T07:24:07.999Z</time></trkpt><trkpt lat="42.12496851077807" lon="12.852863339805667"><ele>893.0</ele><time>2026-03-29T07:24:08.999Z</time></trkpt><trkpt lat="42.12508949187581" lon="12.852867360744588"><ele>896.0</ele><time>2026-03-29T07:24:09.999Z</time></trkpt><trkpt lat="42.12520146145665" lon="12.852909497290383"><ele>899.0</ele><time>2026-03-29T07:24:10.999Z</time></trkpt><trkpt lat="42.12532174748036" lon="12.85298457896915"><ele>902.0</ele><time>2026-03-29T07:24:11.999Z</time></trkpt><trkpt lat="42.12544342469923" lon="12.85305352030521"><ele>905.0</ele><time>2026-03-29T07:24:12.999Z</time></trkpt><trkpt lat="42.12557914550791" lon="12.853073849875246"><ele>905.0</ele><time>2026-03-29T07:24:13.999Z</time></trkpt><trkpt lat="42.12571685064908" lon="12.853055447527717"><ele>905.0</ele><time>2026-03-29T07:24:14.999Z</time></trkpt><trkpt lat="42.12584361968428" lon="12.853047121579632"><ele>905.0</ele><time>2026-03-29T07:24:15.999Z</time></trkpt><trkpt lat="42.12595525310028" lon="12.853058047583836"><ele>905.0</ele><time>2026-03-29T07:24:16.999Z</time></trkpt><trkpt lat="42.12604148405901" lon="12.853099397676127"><ele>904.1666666666667</ele><time>2026-03-29T07:24:17.999Z</time></trkpt><trkpt lat="42.12610197520499" lon="12.85316580918197"><ele>903.3333333333334</ele><time>2026-03-29T07:24:18.999Z</time></trkpt><trkpt lat="42.12613895417998" lon="12.853243560786463"><ele>902.5</ele><time>2026-03-29T07:24:19.999Z</time></trkpt><trkpt lat="42.1261468324108" lon="12.853392964351514"><ele>901.6666666666667</ele><time>2026-03-29T07:24:21.999Z</time></trkpt><trkpt lat="42.126135665951374" lon="12.85348517984325"><ele>900.8333333333334</ele><time>2026-03-29T07:24:22.999Z</time></trkpt><trkpt lat="42.1261168203294" lon="12.853572218648736"><ele>900.0</ele><time>2026-03-29T07:24:23.999Z</time></trkpt><trkpt lat="42.126099275743776" lon="12.853743026105285"><ele>902.6666666666666</ele><time>2026-03-29T07:24:25.999Z</time></trkpt><trkpt lat="42.12611334635957" lon="12.85386397188098"><ele>905.3333333333333</ele><time>2026-03-29T07:24:26.999Z</time></trkpt><trkpt lat="42.12613402051135" lon="12.853959021003808"><ele>908.0</ele><time>2026-03-29T07:24:27.999Z</time></trkpt><trkpt lat="42.12611991236913" lon="12.854064244095508"><ele>910.6666666666666</ele><time>2026-03-29T07:24:28.999Z</time></trkpt><trkpt lat="42.12607980932095" lon="12.854144645394715"><ele>913.3333333333333</ele><time>2026-03-29T07:24:29.999Z</time></trkpt><trkpt lat="42.12609026601959" lon="12.854265923068521"><ele>916.0</ele><time>2026-03-29T07:24:30.999Z</time></trkpt><trkpt lat="42.1260893640899" lon="12.8543609460346"><ele>916.0</ele><time>2026-03-29T07:24:31.999Z</time></trkpt><trkpt lat="42.12607521218779" lon="12.8544791721065"><ele>915.9999999999999</ele><time>2026-03-29T07:24:32.999Z</time></trkpt><trkpt lat="42.12609750618934" lon="12.85462720064574"><ele>915.9999999999999</ele><time>2026-03-29T07:24:33.999Z</time></trkpt><trkpt lat="42.12610293607656" lon="12.854754446832914"><ele>916.0</ele><time>2026-03-29T07:24:34.999Z</time></trkpt><trkpt lat="42.12612770023653" lon="12.85494209854232"><ele>916.0</ele><time>2026-03-29T07:24:35.999Z</time></trkpt><trkpt lat="42.12614650792055" lon="12.855026317240656"><ele>915.9999999999999</ele><time>2026-03-29T07:24:36.999Z</time></trkpt><trkpt lat="42.12609800840466" lon="12.855097337862748"><ele>916.0</ele><time>2026-03-29T07:24:37.999Z</time></trkpt><trkpt lat="42.12605949441059" lon="12.855181644506228"><ele>916.0</ele><time>2026-03-29T07:24:38.999Z</time></trkpt><trkpt lat="42.125994704771855" lon="12.855222921365158"><ele>916.0</ele><time>2026-03-29T07:24:39.999Z</time></trkpt><trkpt lat="42.125916285274855" lon="12.855220223661387"><ele>915.9999999999999</ele><time>2026-03-29T07:24:40.999Z</time></trkpt><trkpt lat="42.12583523908821" lon="12.8552777118089"><ele>916.0</ele><time>2026-03-29T07:24:41.999Z</time></trkpt><trkpt lat="42.12573443241561" lon="12.855402048555915"><ele>920.75</ele><time>2026-03-29T07:24:42.999Z</time></trkpt><trkpt lat="42.125665459937885" lon="12.855529892181874"><ele>925.5</ele><time>2026-03-29T07:24:43.999Z</time></trkpt><trkpt lat="42.125540049656585" lon="12.855687787677393"><ele>930.25</ele><time>2026-03-29T07:24:44.999Z</time></trkpt><trkpt lat="42.12543531449544" lon="12.855809303294121"><ele>935.0</ele><time>2026-03-29T07:24:45.999Z</time></trkpt><trkpt lat="42.1253119064871" lon="12.855941778393017"><ele>924.0</ele><time>2026-03-29T07:24:46.999Z</time></trkpt><trkpt lat="42.12517679076946" lon="12.856085075622309"><ele>913.0</ele><time>2026-03-29T07:24:47.999Z</time></trkpt><trkpt lat="42.1250607320296" lon="12.85623148649804"><ele>902.0</ele><time>2026-03-29T07:24:48.999Z</time></trkpt><trkpt lat="42.12496354180496" lon="12.856363376428213"><ele>912.0</ele><time>2026-03-29T07:24:49.999Z</time></trkpt><trkpt lat="42.12487896922784" lon="12.856505783725051"><ele>922.0</ele><time>2026-03-29T07:24:50.999Z</time></trkpt><trkpt lat="42.12481788905016" lon="12.856590757120099"><ele>932.0</ele><time>2026-03-29T07:24:51.999Z</time></trkpt><trkpt lat="42.124735033373966" lon="12.856609398478218"><ele>942.0</ele><time>2026-03-29T07:24:52.999Z</time></trkpt><trkpt lat="42.12461959876717" lon="12.856629454477888"><ele>952.0</ele><time>2026-03-29T07:24:53.999Z</time></trkpt><trkpt lat="42.124527304433464" lon="12.856675476763058"><ele>952.0</ele><time>2026-03-29T07:24:55Z</time></trkpt><trkpt lat="42.12446168612741" lon="12.85676927950828"><ele>952.0</ele><time>2026-03-29T07:24:56Z</time></trkpt><trkpt lat="42.12442334867849" lon="12.8568825639369"><ele>952.0</ele><time>2026-03-29T07:24:57Z</time></trkpt><trkpt lat="42.12439273003512" lon="12.857004672939192"><ele>952.0</ele><time>2026-03-29T07:24:58Z</time></trkpt><trkpt lat="42.124347420398756" lon="12.857119997602053"><ele>952.0</ele><time>2026-03-29T07:24:59Z</time></trkpt><trkpt lat="42.12428474124611" lon="12.857227434060407"><ele>953.5</ele><time>2026-03-29T07:25:00Z</time></trkpt><trkpt lat="42.12421476321245" lon="12.85733280811443"><ele>955.0</ele><time>2026-03-29T07:25:01Z</time></trkpt><trkpt lat="42.124154585143415" lon="12.857456815445309"><ele>956.5</ele><time>2026-03-29T07:25:02Z</time></trkpt><trkpt lat="42.12408180224213" lon="12.857578246961513"><ele>958.0</ele><time>2026-03-29T07:25:03Z</time></trkpt><trkpt lat="42.123994503893854" lon="12.857694139869762"><ele>958.0</ele><time>2026-03-29T07:25:04Z</time></trkpt><trkpt lat="42.1238973918119" lon="12.857827179863644"><ele>958.0</ele><time>2026-03-29T07:25:05Z</time></trkpt><trkpt lat="42.12382284105125" lon="12.857945473599283"><ele>958.0</ele><time>2026-03-29T07:25:06Z</time></trkpt><trkpt lat="42.12376586792312" lon="12.85805851724964"><ele>958.0</ele><time>2026-03-29T07:25:07Z</time></trkpt><trkpt lat="42.12372823147234" lon="12.858168782180115"><ele>958.0</ele><time>2026-03-29T07:25:08Z</time></trkpt><trkpt lat="42.123702187743405" lon="12.858282742503764"><ele>957.9999999999999</ele><time>2026-03-29T07:25:09Z</time></trkpt><trkpt lat="42.123696488857675" lon="12.85839504563315"><ele>958.0</ele><time>2026-03-29T07:25:10Z</time></trkpt><trkpt lat="42.12369897791924" lon="12.858523224842916"><ele>958.0</ele><time>2026-03-29T07:25:11Z</time></trkpt><trkpt lat="42.123719927507565" lon="12.858628277518815"><ele>958.0</ele><time>2026-03-29T07:25:12Z</time></trkpt><trkpt lat="42.123726930511765" lon="12.858723433281135"><ele>957.9999999999999</ele><time>2026-03-29T07:25:13Z</time></trkpt><trkpt lat="42.1236783266959" lon="12.858868998372097"><ele>958.0</ele><time>2026-03-29T07:25:14Z</time></trkpt><trkpt lat="42.12359392183921" lon="12.859024525939086"><ele>954.75</ele><time>2026-03-29T07:25:15Z</time></trkpt><trkpt lat="42.12351372639445" lon="12.859180435914261"><ele>951.5</ele><time>2026-03-29T07:25:15.999Z</time></trkpt><trkpt lat="42.12341222353857" lon="12.859295223869863"><ele>948.25</ele><time>2026-03-29T07:25:16.999Z</time></trkpt><trkpt lat="42.12333726693931" lon="12.859386612560126"><ele>945.0</ele><time>2026-03-29T07:25:17.999Z</time></trkpt><trkpt lat="42.123295744270855" lon="12.859478625561493"><ele>944.75</ele><time>2026-03-29T07:25:18.999Z</time></trkpt><trkpt lat="42.12328254521187" lon="12.859615672536172"><ele>944.5</ele><time>2026-03-29T07:25:19.999Z</time></trkpt><trkpt lat="42.12328005246864" lon="12.859731456896304"><ele>944.25</ele><time>2026-03-29T07:25:20.999Z</time></trkpt><trkpt lat="42.12330246077295" lon="12.859886055589262"><ele>944.0</ele><time>2026-03-29T07:25:21.999Z</time></trkpt><trkpt lat="42.12337736432044" lon="12.86007850570777"><ele>945.75</ele><time>2026-03-29T07:25:22.999Z</time></trkpt><trkpt lat="42.12347146737226" lon="12.860290109325424"><ele>947.5</ele><time>2026-03-29T07:25:23.999Z</time></trkpt><trkpt lat="42.12350535289122" lon="12.86045858752789"><ele>949.25</ele><time>2026-03-29T07:25:24.999Z</time></trkpt><trkpt lat="42.12356340875035" lon="12.860624104648842"><ele>951.0</ele><time>2026-03-29T07:25:25.999Z</time></trkpt><trkpt lat="42.12362558920524" lon="12.860779383013243"><ele>949.0</ele><time>2026-03-29T07:25:26.999Z</time></trkpt><trkpt lat="42.123643080992885" lon="12.860968468063803"><ele>947.0</ele><time>2026-03-29T07:25:27.999Z</time></trkpt><trkpt lat="42.123648258315235" lon="12.861114861089266"><ele>945.0</ele><time>2026-03-29T07:25:28.999Z</time></trkpt><trkpt lat="42.12367685483452" lon="12.861280150369367"><ele>943.0</ele><time>2026-03-29T07:25:29.999Z</time></trkpt><trkpt lat="42.12370797217437" lon="12.861452818831905"><ele>943.0</ele><time>2026-03-29T07:25:30.999Z</time></trkpt><trkpt lat="42.12371751455411" lon="12.861594690900226"><ele>943.0</ele><time>2026-03-29T07:25:31.999Z</time></trkpt><trkpt lat="42.12374236864595" lon="12.861740176687743"><ele>943.0</ele><time>2026-03-29T07:25:32.999Z</time></trkpt><trkpt lat="42.12375786610088" lon="12.86187079096075"><ele>943.0</ele><time>2026-03-29T07:25:33.999Z</time></trkpt><trkpt lat="42.12378759502997" lon="12.861986865436728"><ele>943.0</ele><time>2026-03-29T07:25:34.999Z</time></trkpt><trkpt lat="42.123826386386924" lon="12.86208610808281"><ele>939.1666666666666</ele><time>2026-03-29T07:25:35.999Z</time></trkpt><trkpt lat="42.12386234240577" lon="12.862163069958472"><ele>935.3333333333333</ele><time>2026-03-29T07:25:36.999Z</time></trkpt><trkpt lat="42.12386734629294" lon="12.862294474560654"><ele>931.5</ele><time>2026-03-29T07:25:38.999Z</time></trkpt><trkpt lat="42.12386401556507" lon="12.862380640374484"><ele>927.6666666666667</ele><time>2026-03-29T07:25:40.999Z</time></trkpt><trkpt lat="42.1238256055236" lon="12.862459626744398"><ele>923.8333333333334</ele><time>2026-03-29T07:25:42.999Z</time></trkpt><trkpt lat="42.12376135415495" lon="12.862532546365204"><ele>920.0</ele><time>2026-03-29T07:25:44.999Z</time></trkpt><trkpt lat="42.12369351723642" lon="12.86256431406564"><ele>920.0000000000001</ele><time>2026-03-29T07:25:45.999Z</time></trkpt><trkpt lat="42.1236103866767" lon="12.862594748596395"><ele>920.0</ele><time>2026-03-29T07:25:46.999Z</time></trkpt><trkpt lat="42.123517344182886" lon="12.862613944230747"><ele>920.0</ele><time>2026-03-29T07:25:47.999Z</time></trkpt><trkpt lat="42.12342952872977" lon="12.862630900650228"><ele>920.0</ele><time>2026-03-29T07:25:48.999Z</time></trkpt><trkpt lat="42.123360321325805" lon="12.862649644981124"><ele>920.0000000000001</ele><time>2026-03-29T07:25:49.999Z</time></trkpt><trkpt lat="42.12329515941135" lon="12.862652179356795"><ele>920.0</ele><time>2026-03-29T07:25:50.999Z</time></trkpt><trkpt lat="42.12322867224639" lon="12.862649749047819"><ele>918.8333333333334</ele><time>2026-03-29T07:25:51.999Z</time></trkpt><trkpt lat="42.12311826051212" lon="12.86264377098271"><ele>917.6666666666667</ele><time>2026-03-29T07:25:53.999Z</time></trkpt><trkpt lat="42.12305092203045" lon="12.862650574401654"><ele>916.5</ele><time>2026-03-29T07:25:54.999Z</time></trkpt><trkpt lat="42.12298364161402" lon="12.86267201365405"><ele>915.3333333333333</ele><time>2026-03-29T07:25:55.999Z</time></trkpt><trkpt lat="42.12293022673192" lon="12.86272517039018"><ele>914.1666666666666</ele><time>2026-03-29T07:25:56.999Z</time></trkpt><trkpt lat="42.12288246519065" lon="12.862879597633592"><ele>913.0</ele><time>2026-03-29T07:25:58.999Z</time></trkpt><trkpt lat="42.12284688058957" lon="12.862968928657192"><ele>913.0</ele><time>2026-03-29T07:25:59.999Z</time></trkpt><trkpt lat="42.12281261591826" lon="12.863096995177603"><ele>913.0</ele><time>2026-03-29T07:26:00.999Z</time></trkpt><trkpt lat="42.122753474736314" lon="12.863241860747637"><ele>913.0</ele><time>2026-03-29T07:26:01.999Z</time></trkpt><trkpt lat="42.122716694754885" lon="12.863378214865616"><ele>913.0</ele><time>2026-03-29T07:26:02.999Z</time></trkpt><trkpt lat="42.122679804885664" lon="12.863484903672136"><ele>913.0</ele><time>2026-03-29T07:26:03.999Z</time></trkpt><trkpt lat="42.12264511010766" lon="12.863599711475343"><ele>910.0</ele><time>2026-03-29T07:26:04.999Z</time></trkpt><trkpt lat="42.122615726792205" lon="12.863726460731261"><ele>907.0</ele><time>2026-03-29T07:26:05.999Z</time></trkpt><trkpt lat="42.12258043562039" lon="12.863836133117571"><ele>904.0</ele><time>2026-03-29T07:26:06.999Z</time></trkpt><trkpt lat="42.1225655002483" lon="12.86392542752621"><ele>901.0</ele><time>2026-03-29T07:26:07.999Z</time></trkpt><trkpt lat="42.122526376405645" lon="12.864019421840931"><ele>898.0</ele><time>2026-03-29T07:26:09.999Z</time></trkpt><trkpt lat="42.12259240345796" lon="12.864153164911167"><ele>898.0</ele><time>2026-03-29T07:40:47Z</time></trkpt><trkpt lat="42.12259044465894" lon="12.864245960323874"><ele>898.0</ele><time>2026-03-29T07:40:52Z</time></trkpt><trkpt lat="42.12249495330519" lon="12.864356879963019"><ele>898.0</ele><time>2026-03-29T07:40:54Z</time></trkpt><trkpt lat="42.122420251468334" lon="12.864412786597255"><ele>898.0</ele><time>2026-03-29T07:40:56Z</time></trkpt><trkpt lat="42.122331981311866" lon="12.8644639534631"><ele>898.0</ele><time>2026-03-29T07:40:57Z</time></trkpt><trkpt lat="42.12226450267039" lon="12.864526491507723"><ele>898.6666666666666</ele><time>2026-03-29T07:40:58Z</time></trkpt><trkpt lat="42.122211752930255" lon="12.864602057443756"><ele>899.3333333333333</ele><time>2026-03-29T07:40:59Z</time></trkpt><trkpt lat="42.12215071539071" lon="12.864657030078067"><ele>900.0</ele><time>2026-03-29T07:41:00Z</time></trkpt><trkpt lat="42.12211600568943" lon="12.864733569082123"><ele>900.6666666666667</ele><time>2026-03-29T07:41:03Z</time></trkpt><trkpt lat="42.122063309355575" lon="12.864806830462973"><ele>901.3333333333334</ele><time>2026-03-29T07:41:05Z</time></trkpt><trkpt lat="42.12200291224828" lon="12.864900278102137"><ele>902.0</ele><time>2026-03-29T07:41:07Z</time></trkpt><trkpt lat="42.12192965825719" lon="12.864971834977862"><ele>902.0000000000001</ele><time>2026-03-29T07:41:10Z</time></trkpt><trkpt lat="42.12189619694154" lon="12.865074832318907"><ele>902.0</ele><time>2026-03-29T07:41:20Z</time></trkpt><trkpt lat="42.12185138282619" lon="12.86519568648057"><ele>902.0</ele><time>2026-03-29T07:41:22Z</time></trkpt><trkpt lat="42.12181023115137" lon="12.86527618343191"><ele>902.0</ele><time>2026-03-29T07:41:24Z</time></trkpt><trkpt lat="42.12176939441787" lon="12.865363230413081"><ele>902.0000000000001</ele><time>2026-03-29T07:41:26Z</time></trkpt><trkpt lat="42.1218105635328" lon="12.86543926602055"><ele>902.0</ele><time>2026-03-29T07:41:29Z</time></trkpt><trkpt lat="42.121854371466945" lon="12.86550790635062"><ele>901.1428571428571</ele><time>2026-03-29T07:41:34Z</time></trkpt><trkpt lat="42.121898630755304" lon="12.865568768710906"><ele>900.2857142857143</ele><time>2026-03-29T07:41:43Z</time></trkpt><trkpt lat="42.121914199222665" lon="12.865680685945957"><ele>899.4285714285714</ele><time>2026-03-29T07:41:47Z</time></trkpt><trkpt lat="42.12189805955508" lon="12.865785127597485"><ele>898.5714285714286</ele><time>2026-03-29T07:41:51Z</time></trkpt><trkpt lat="42.12192375995214" lon="12.86586670349642"><ele>897.7142857142858</ele><time>2026-03-29T07:41:54Z</time></trkpt><trkpt lat="42.12193564837252" lon="12.865951665363642"><ele>896.8571428571429</ele><time>2026-03-29T07:41:59Z</time></trkpt><trkpt lat="42.121958094303174" lon="12.866033244819235"><ele>896.0</ele><time>2026-03-29T07:42:02Z</time></trkpt><trkpt lat="42.12197773842555" lon="12.866148389378983"><ele>894.6666666666667</ele><time>2026-03-29T07:42:06Z</time></trkpt><trkpt lat="42.121990099362066" lon="12.866257709730606"><ele>893.3333333333334</ele><time>2026-03-29T07:42:10Z</time></trkpt><trkpt lat="42.12204742039017" lon="12.866352121535568"><ele>892.0</ele><time>2026-03-29T07:42:13Z</time></trkpt><trkpt lat="42.12211896216785" lon="12.866465121711366"><ele>890.6666666666667</ele><time>2026-03-29T07:42:16Z</time></trkpt><trkpt lat="42.122163548074504" lon="12.86656059901061"><ele>889.3333333333334</ele><time>2026-03-29T07:42:19Z</time></trkpt><trkpt lat="42.1221893384265" lon="12.866646718208694"><ele>888.0</ele><time>2026-03-29T07:42:22Z</time></trkpt><trkpt lat="42.12221066305973" lon="12.866746331438819"><ele>887.5</ele><time>2026-03-29T07:42:24Z</time></trkpt><trkpt lat="42.12233784805915" lon="12.866961356318948"><ele>887.0</ele><time>2026-03-29T07:42:27Z</time></trkpt><trkpt lat="42.12240797219406" lon="12.867068018572375"><ele>886.5</ele><time>2026-03-29T07:42:28Z</time></trkpt><trkpt lat="42.12247080143565" lon="12.867156403131228"><ele>886.0</ele><time>2026-03-29T07:42:30Z</time></trkpt><trkpt lat="42.12252205307684" lon="12.867260744915994"><ele>882.4</ele><time>2026-03-29T07:42:32Z</time></trkpt><trkpt lat="42.12257748970999" lon="12.86739645607815"><ele>878.8</ele><time>2026-03-29T07:42:34Z</time></trkpt><trkpt lat="42.12263101763445" lon="12.867511751371165"><ele>875.1999999999999</ele><time>2026-03-29T07:42:36Z</time></trkpt><trkpt lat="42.12270149850995" lon="12.867583807757988"><ele>871.5999999999999</ele><time>2026-03-29T07:42:38Z</time></trkpt><trkpt lat="42.122771448168336" lon="12.867641481678987"><ele>868.0</ele><time>2026-03-29T07:42:40Z</time></trkpt><trkpt lat="42.12284050762718" lon="12.867709742684449"><ele>866.9999999999999</ele><time>2026-03-29T07:42:43Z</time></trkpt><trkpt lat="42.122843348375966" lon="12.867844501938634"><ele>866.0</ele><time>2026-03-29T07:42:47Z</time></trkpt><trkpt lat="42.12278408424384" lon="12.867895950750203"><ele>865.0</ele><time>2026-03-29T07:42:49Z</time></trkpt><trkpt lat="42.122784399944194" lon="12.867994556846366"><ele>864.0</ele><time>2026-03-29T07:42:51Z</time></trkpt><trkpt lat="42.122836420733606" lon="12.868110627480483"><ele>862.9999999999999</ele><time>2026-03-29T07:42:54Z</time></trkpt><trkpt lat="42.12287244391482" lon="12.868189679916846"><ele>862.0</ele><time>2026-03-29T07:42:56Z</time></trkpt><trkpt lat="42.12288392108164" lon="12.868280572212962"><ele>861.9999999999999</ele><time>2026-03-29T07:42:58Z</time></trkpt><trkpt lat="42.12284032421833" lon="12.868405679162036"><ele>862.0</ele><time>2026-03-29T07:43:00Z</time></trkpt><trkpt lat="42.122806486977275" lon="12.86847739597476"><ele>862.0</ele><time>2026-03-29T07:43:01Z</time></trkpt><trkpt lat="42.12275550780175" lon="12.868598725107464"><ele>862.0</ele><time>2026-03-29T07:43:03Z</time></trkpt><trkpt lat="42.12271610380844" lon="12.868730806114995"><ele>861.9999999999999</ele><time>2026-03-29T07:43:05Z</time></trkpt><trkpt lat="42.12268451108607" lon="12.868810008736281"><ele>862.0</ele><time>2026-03-29T07:43:07Z</time></trkpt><trkpt lat="42.122630453366604" lon="12.86893820154228"><ele>862.4285714285714</ele><time>2026-03-29T07:43:09Z</time></trkpt><trkpt lat="42.122620366746546" lon="12.869041463698611"><ele>862.8571428571428</ele><time>2026-03-29T07:43:10Z</time></trkpt><trkpt lat="42.12263767943172" lon="12.869125098296541"><ele>863.2857142857142</ele><time>2026-03-29T07:43:11Z</time></trkpt><trkpt lat="42.122659491383324" lon="12.869216815639374"><ele>863.7142857142858</ele><time>2026-03-29T07:43:12Z</time></trkpt><trkpt lat="42.12268161611483" lon="12.869296385676805"><ele>864.1428571428571</ele><time>2026-03-29T07:43:13Z</time></trkpt><trkpt lat="42.122694374154584" lon="12.869390950467448"><ele>864.5714285714286</ele><time>2026-03-29T07:43:14Z</time></trkpt><trkpt lat="42.122699204068546" lon="12.86948585834637"><ele>865.0</ele><time>2026-03-29T07:43:15Z</time></trkpt><trkpt lat="42.12269969238679" lon="12.869576356571951"><ele>865.8</ele><time>2026-03-29T07:43:17Z</time></trkpt><trkpt lat="42.12273351947172" lon="12.869683235006677"><ele>866.6</ele><time>2026-03-29T07:43:19Z</time></trkpt><trkpt lat="42.12271474151508" lon="12.869860986488348"><ele>867.4000000000001</ele><time>2026-03-29T07:43:21Z</time></trkpt><trkpt lat="42.122762338937335" lon="12.869991602287017"><ele>868.2</ele><time>2026-03-29T07:43:23Z</time></trkpt><trkpt lat="42.122792222515514" lon="12.870088258268403"><ele>869.0</ele><time>2026-03-29T07:43:26Z</time></trkpt><trkpt lat="42.1228942845982" lon="12.870159890709518"><ele>869.8333333333334</ele><time>2026-03-29T07:43:28Z</time></trkpt><trkpt lat="42.122937112121825" lon="12.8702580383384"><ele>870.6666666666667</ele><time>2026-03-29T07:43:30Z</time></trkpt><trkpt lat="42.12300485936801" lon="12.870279849322355"><ele>871.5</ele><time>2026-03-29T07:43:32Z</time></trkpt><trkpt lat="42.12311032182037" lon="12.870285807058796"><ele>872.3333333333333</ele><time>2026-03-29T07:43:34Z</time></trkpt><trkpt lat="42.12312585964618" lon="12.870441429223046"><ele>873.1666666666666</ele><time>2026-03-29T07:43:36.999Z</time></trkpt><trkpt lat="42.12313668197896" lon="12.870533820824093"><ele>874.0</ele><time>2026-03-29T07:43:37.999Z</time></trkpt><trkpt lat="42.12324551259027" lon="12.8706198715823"><ele>874.8000000000001</ele><time>2026-03-29T07:43:39.999Z</time></trkpt><trkpt lat="42.12330468321477" lon="12.870662653737842"><ele>875.6000000000001</ele><time>2026-03-29T07:43:40.999Z</time></trkpt><trkpt lat="42.123426109002466" lon="12.870641664862939"><ele>876.4</ele><time>2026-03-29T07:43:42.999Z</time></trkpt><trkpt lat="42.123517849822676" lon="12.870633666649047"><ele>877.2</ele><time>2026-03-29T07:43:45.999Z</time></trkpt><trkpt lat="42.12359833976412" lon="12.87069107520995"><ele>878.0</ele><time>2026-03-29T07:43:49Z</time></trkpt><trkpt lat="42.12396482632453" lon="12.87061135751712"><ele>878.0000000000001</ele><time>2026-03-29T07:43:53Z</time></trkpt><trkpt lat="42.12403060666998" lon="12.870532324264426"><ele>878.0</ele><time>2026-03-29T07:43:55Z</time></trkpt><trkpt lat="42.12410106770631" lon="12.870504041794153"><ele>878.0</ele><time>2026-03-29T07:43:57Z</time></trkpt><trkpt lat="42.12416641053269" lon="12.870488663187482"><ele>878.0</ele><time>2026-03-29T07:44:00Z</time></trkpt><trkpt lat="42.12425568127361" lon="12.870487090758475"><ele>878.0000000000001</ele><time>2026-03-29T07:44:03Z</time></trkpt><trkpt lat="42.12434557249541" lon="12.870496730546707"><ele>878.0</ele><time>2026-03-29T07:44:05Z</time></trkpt><trkpt lat="42.12440811641245" lon="12.870509260382072"><ele>881.1666666666667</ele><time>2026-03-29T07:44:06Z</time></trkpt><trkpt lat="42.124479693011054" lon="12.870530109217652"><ele>884.3333333333334</ele><time>2026-03-29T07:44:07Z</time></trkpt><trkpt lat="42.12456030987787" lon="12.870560700896174"><ele>887.5</ele><time>2026-03-29T07:44:08Z</time></trkpt><trkpt lat="42.12464568483432" lon="12.870586669602599"><ele>890.6666666666667</ele><time>2026-03-29T07:44:09Z</time></trkpt><trkpt lat="42.12472530543735" lon="12.8706088379286"><ele>893.8333333333334</ele><time>2026-03-29T07:44:10Z</time></trkpt><trkpt lat="42.12479713800914" lon="12.870635239111838"><ele>897.0</ele><time>2026-03-29T07:44:11Z</time></trkpt><trkpt lat="42.124915000959575" lon="12.870667555425475"><ele>901.0</ele><time>2026-03-29T07:44:12Z</time></trkpt><trkpt lat="42.124962039378595" lon="12.87072751742452"><ele>905.0</ele><time>2026-03-29T07:44:13Z</time></trkpt><trkpt lat="42.1250677187562" lon="12.870669708191022"><ele>909.0</ele><time>2026-03-29T07:44:16Z</time></trkpt><trkpt lat="42.12511561542587" lon="12.870554310091862"><ele>913.0</ele><time>2026-03-29T07:44:18Z</time></trkpt><trkpt lat="42.12512287929697" lon="12.87046417823494"><ele>917.0</ele><time>2026-03-29T07:44:19Z</time></trkpt><trkpt lat="42.12513388947724" lon="12.870371983052124"><ele>921.0</ele><time>2026-03-29T07:44:20Z</time></trkpt><trkpt lat="42.12513940699719" lon="12.870251821128118"><ele>921.0</ele><time>2026-03-29T07:44:22Z</time></trkpt><trkpt lat="42.12517637847876" lon="12.870157922608955"><ele>921.0</ele><time>2026-03-29T07:44:25Z</time></trkpt><trkpt lat="42.125313279865594" lon="12.869604172149053"><ele>922.0</ele><time>2026-03-29T07:44:29Z</time></trkpt><trkpt lat="42.12535872188859" lon="12.86952164209208"><ele>923.0</ele><time>2026-03-29T07:44:30Z</time></trkpt><trkpt lat="42.12541120576514" lon="12.869441426811026"><ele>924.0</ele><time>2026-03-29T07:44:31Z</time></trkpt><trkpt lat="42.12546020612376" lon="12.869371364792967"><ele>925.0</ele><time>2026-03-29T07:44:32Z</time></trkpt><trkpt lat="42.1255105195501" lon="12.86930337541375"><ele>926.0</ele><time>2026-03-29T07:44:33Z</time></trkpt><trkpt lat="42.12558297918475" lon="12.869251505398589"><ele>927.0</ele><time>2026-03-29T07:44:34Z</time></trkpt><trkpt lat="42.1256614084726" lon="12.869228803010065"><ele>930.6</ele><time>2026-03-29T07:44:35Z</time></trkpt><trkpt lat="42.125738078300635" lon="12.86925364921676"><ele>934.2</ele><time>2026-03-29T07:44:36Z</time></trkpt><trkpt lat="42.125760709171" lon="12.869339235139389"><ele>937.8</ele><time>2026-03-29T07:44:37Z</time></trkpt><trkpt lat="42.12584282718846" lon="12.86947964760823"><ele>941.4</ele><time>2026-03-29T07:44:39Z</time></trkpt><trkpt lat="42.12590390153201" lon="12.869542849698353"><ele>945.0</ele><time>2026-03-29T07:44:40Z</time></trkpt><trkpt lat="42.125989968797136" lon="12.869625602647192"><ele>945.75</ele><time>2026-03-29T07:44:41Z</time></trkpt><trkpt lat="42.12610284455856" lon="12.869728208653926"><ele>946.5</ele><time>2026-03-29T07:44:42Z</time></trkpt><trkpt lat="42.12623185899499" lon="12.869848214205138"><ele>947.25</ele><time>2026-03-29T07:44:43Z</time></trkpt><trkpt lat="42.12633195037721" lon="12.869951730814376"><ele>948.0</ele><time>2026-03-29T07:44:44Z</time></trkpt><trkpt lat="42.126404989293356" lon="12.870049496054623"><ele>946.75</ele><time>2026-03-29T07:44:45Z</time></trkpt><trkpt lat="42.12644935842037" lon="12.870177953939821"><ele>945.5</ele><time>2026-03-29T07:44:46Z</time></trkpt><trkpt lat="42.12651348573153" lon="12.87030564801913"><ele>944.25</ele><time>2026-03-29T07:44:47Z</time></trkpt><trkpt lat="42.126591057616864" lon="12.870482679365498"><ele>943.0</ele><time>2026-03-29T07:44:48Z</time></trkpt><trkpt lat="42.126646033598156" lon="12.870719489225017"><ele>953.0</ele><time>2026-03-29T07:44:49Z</time></trkpt><trkpt lat="42.12671665494949" lon="12.870900969668265"><ele>963.0</ele><time>2026-03-29T07:44:50Z</time></trkpt><trkpt lat="42.12680328115826" lon="12.871096812025941"><ele>973.0</ele><time>2026-03-29T07:44:51Z</time></trkpt><trkpt lat="42.1268793514559" lon="12.871271740695153"><ele>973.2</ele><time>2026-03-29T07:44:52Z</time></trkpt><trkpt lat="42.126932479782084" lon="12.871426534982993"><ele>973.4</ele><time>2026-03-29T07:44:53Z</time></trkpt><trkpt lat="42.12696321249456" lon="12.871546489705112"><ele>973.6000000000001</ele><time>2026-03-29T07:44:54Z</time></trkpt><trkpt lat="42.126994582253886" lon="12.871650196891235"><ele>973.8000000000001</ele><time>2026-03-29T07:44:55Z</time></trkpt><trkpt lat="42.12703368226872" lon="12.871738547809043"><ele>974.0</ele><time>2026-03-29T07:44:56Z</time></trkpt><trkpt lat="42.1270783477823" lon="12.871823785318002"><ele>976.1666666666667</ele><time>2026-03-29T07:44:57Z</time></trkpt><trkpt lat="42.127138570324455" lon="12.87192147244074"><ele>978.3333333333334</ele><time>2026-03-29T07:44:58Z</time></trkpt><trkpt lat="42.12718588692813" lon="12.872016489866013"><ele>980.5</ele><time>2026-03-29T07:44:59Z</time></trkpt><trkpt lat="42.12723765175387" lon="12.872098622297552"><ele>982.6666666666667</ele><time>2026-03-29T07:45:00Z</time></trkpt><trkpt lat="42.12728033567917" lon="12.872191125828415"><ele>984.8333333333334</ele><time>2026-03-29T07:45:01Z</time></trkpt><trkpt lat="42.12730627453276" lon="12.872294584618245"><ele>987.0</ele><time>2026-03-29T07:45:02Z</time></trkpt><trkpt lat="42.12734165031642" lon="12.87238839230355"><ele>987.0</ele><time>2026-03-29T07:45:03Z</time></trkpt><trkpt lat="42.1273587899571" lon="12.872480191396779"><ele>987.0</ele><time>2026-03-29T07:45:04Z</time></trkpt><trkpt lat="42.12736006180398" lon="12.872574491588194"><ele>987.0</ele><time>2026-03-29T07:45:05Z</time></trkpt><trkpt lat="42.12737624477901" lon="12.872659916166063"><ele>987.0</ele><time>2026-03-29T07:45:06Z</time></trkpt><trkpt lat="42.127475888608004" lon="12.872732647305682"><ele>987.0</ele><time>2026-03-29T07:45:08Z</time></trkpt><trkpt lat="42.12754399339011" lon="12.87275856284721"><ele>987.0</ele><time>2026-03-29T07:45:09Z</time></trkpt><trkpt lat="42.127621603450656" lon="12.872740576716357"><ele>994.2</ele><time>2026-03-29T07:45:10Z</time></trkpt><trkpt lat="42.12772606284811" lon="12.87280098882712"><ele>1001.4000000000001</ele><time>2026-03-29T07:45:12Z</time></trkpt><trkpt lat="42.12781133425575" lon="12.872886446364289"><ele>1008.5999999999999</ele><time>2026-03-29T07:45:14Z</time></trkpt><trkpt lat="42.127858522994686" lon="12.872952090925892"><ele>1015.8</ele><time>2026-03-29T07:45:19Z</time></trkpt><trkpt lat="42.12790002136108" lon="12.873056794557852"><ele>1023.0</ele><time>2026-03-29T07:45:45.999Z</time></trkpt><trkpt lat="42.12792819926545" lon="12.873153026136812"><ele>1023.0</ele><time>2026-03-29T07:45:47.999Z</time></trkpt><trkpt lat="42.12795110548314" lon="12.873254189124893"><ele>1023.0</ele><time>2026-03-29T07:45:49.999Z</time></trkpt><trkpt lat="42.127957461472796" lon="12.873351600588066"><ele>1023.0</ele><time>2026-03-29T07:45:51.999Z</time></trkpt><trkpt lat="42.12796004502202" lon="12.873461150886438"><ele>1023.0</ele><time>2026-03-29T07:45:55Z</time></trkpt><trkpt lat="42.12799964634744" lon="12.873567561879932"><ele>1023.0</ele><time>2026-03-29T07:45:57Z</time></trkpt><trkpt lat="42.12800625400311" lon="12.873679867190576"><ele>1023.0</ele><time>2026-03-29T07:45:59Z</time></trkpt><trkpt lat="42.12801455273146" lon="12.873800119166193"><ele>1023.5</ele><time>2026-03-29T07:46:02Z</time></trkpt><trkpt lat="42.12804953735224" lon="12.873917979585185"><ele>1024.0</ele><time>2026-03-29T07:46:04Z</time></trkpt><trkpt lat="42.128062686294314" lon="12.874003100196536"><ele>1024.5</ele><time>2026-03-29T07:46:06Z</time></trkpt><trkpt lat="42.12804114303343" lon="12.874087333587378"><ele>1025.0</ele><time>2026-03-29T07:46:08Z</time></trkpt><trkpt lat="42.128020743963084" lon="12.874190884592254"><ele>1025.5</ele><time>2026-03-29T07:46:10Z</time></trkpt><trkpt lat="42.128029329137746" lon="12.874306948836976"><ele>1026.0</ele><time>2026-03-29T07:46:13Z</time></trkpt><trkpt lat="42.128036080920744" lon="12.874402677347218"><ele>1026.0</ele><time>2026-03-29T07:46:15Z</time></trkpt><trkpt lat="42.128123285903605" lon="12.874652687977166"><ele>1026.0</ele><time>2026-03-29T07:46:18Z</time></trkpt><trkpt lat="42.12816301539619" lon="12.874765687779481"><ele>1026.0</ele><time>2026-03-29T07:46:21Z</time></trkpt><trkpt lat="42.12816548452579" lon="12.874899501848748"><ele>1026.0</ele><time>2026-03-29T07:46:23Z</time></trkpt><trkpt lat="42.12822707949628" lon="12.875023446679782"><ele>1023.5999999999999</ele><time>2026-03-29T07:46:25Z</time></trkpt><trkpt lat="42.12827353797428" lon="12.875150290819127"><ele>1021.1999999999999</ele><time>2026-03-29T07:46:27Z</time></trkpt><trkpt lat="42.12827199225901" lon="12.875279136173226"><ele>1018.8000000000001</ele><time>2026-03-29T07:46:29Z</time></trkpt><trkpt lat="42.12823772550073" lon="12.875398803270595"><ele>1016.4000000000001</ele><time>2026-03-29T07:46:31Z</time></trkpt><trkpt lat="42.12822273814047" lon="12.87554106149066"><ele>1014.0</ele><time>2026-03-29T07:46:33Z</time></trkpt><trkpt lat="42.12822551096056" lon="12.875665682141845"><ele>1014.0</ele><time>2026-03-29T07:46:35Z</time></trkpt><trkpt lat="42.128208892975096" lon="12.875812675787609"><ele>1014.0000000000001</ele><time>2026-03-29T07:46:37Z</time></trkpt><trkpt lat="42.128241713451345" lon="12.875969977908236"><ele>1014.0000000000001</ele><time>2026-03-29T07:46:39Z</time></trkpt><trkpt lat="42.1281937230138" lon="12.87608838728239"><ele>1014.0</ele><time>2026-03-29T07:46:41Z</time></trkpt><trkpt lat="42.12814974154392" lon="12.876204904243872"><ele>1014.0</ele><time>2026-03-29T07:46:43Z</time></trkpt><trkpt lat="42.12807618778636" lon="12.876337898739045"><ele>1008.4000000000001</ele><time>2026-03-29T07:46:45Z</time></trkpt><trkpt lat="42.12801059279707" lon="12.876518606647334"><ele>1002.8000000000001</ele><time>2026-03-29T07:46:47Z</time></trkpt><trkpt lat="42.127987389832896" lon="12.87660569411767"><ele>997.1999999999999</ele><time>2026-03-29T07:46:48Z</time></trkpt><trkpt lat="42.12797623979515" lon="12.876702091530367"><ele>991.5999999999999</ele><time>2026-03-29T07:46:49Z</time></trkpt><trkpt lat="42.12797072923119" lon="12.876824742144057"><ele>986.0</ele><time>2026-03-29T07:46:50Z</time></trkpt><trkpt lat="42.127975835187186" lon="12.876933523923187"><ele>981.0</ele><time>2026-03-29T07:46:51Z</time></trkpt><trkpt lat="42.12797674855003" lon="12.877042090555767"><ele>975.9999999999999</ele><time>2026-03-29T07:46:52Z</time></trkpt><trkpt lat="42.127971741216655" lon="12.87719245042929"><ele>970.9999999999999</ele><time>2026-03-29T07:46:54Z</time></trkpt><trkpt lat="42.12795125512151" lon="12.877338857423359"><ele>966.0</ele><time>2026-03-29T07:46:56Z</time></trkpt><trkpt lat="42.12790342392477" lon="12.877451007909636"><ele>961.0</ele><time>2026-03-29T07:46:58Z</time></trkpt><trkpt lat="42.127848060245945" lon="12.877565857592092"><ele>956.5</ele><time>2026-03-29T07:46:59Z</time></trkpt><trkpt lat="42.127839126552544" lon="12.8776799825415"><ele>952.0</ele><time>2026-03-29T07:47:00Z</time></trkpt><trkpt lat="42.127832655668364" lon="12.877771177790182"><ele>947.5</ele><time>2026-03-29T07:47:01Z</time></trkpt><trkpt lat="42.12784132451547" lon="12.877888377773488"><ele>943.0</ele><time>2026-03-29T07:47:02Z</time></trkpt><trkpt lat="42.127801053049176" lon="12.8781823737787"><ele>942.9999999999999</ele><time>2026-03-29T07:47:04Z</time></trkpt><trkpt lat="42.127810687779835" lon="12.878323078629872"><ele>943.0</ele><time>2026-03-29T07:47:06Z</time></trkpt><trkpt lat="42.127854323065534" lon="12.878398136843796"><ele>943.0</ele><time>2026-03-29T07:47:10Z</time></trkpt><trkpt lat="42.12786755828455" lon="12.878507744467417"><ele>943.0</ele><time>2026-03-29T07:47:17Z</time></trkpt><trkpt lat="42.12791842973677" lon="12.878574933081733"><ele>942.9999999999999</ele><time>2026-03-29T07:47:21Z</time></trkpt><trkpt lat="42.127981479167204" lon="12.878684255626178"><ele>943.0</ele><time>2026-03-29T07:47:24Z</time></trkpt><trkpt lat="42.12801674052979" lon="12.878846603835726"><ele>941.9999999999999</ele><time>2026-03-29T07:47:26Z</time></trkpt><trkpt lat="42.12803732837281" lon="12.878962325167002"><ele>941.0</ele><time>2026-03-29T07:47:27Z</time></trkpt><trkpt lat="42.1280559872266" lon="12.879101041026525"><ele>940.0</ele><time>2026-03-29T07:47:28Z</time></trkpt><trkpt lat="42.12808798598588" lon="12.879216045359307"><ele>939.0</ele><time>2026-03-29T07:47:29Z</time></trkpt><trkpt lat="42.1280938225209" lon="12.87931663831859"><ele>937.9999999999999</ele><time>2026-03-29T07:47:30Z</time></trkpt><trkpt lat="42.12809306504538" lon="12.879432264064688"><ele>937.0</ele><time>2026-03-29T07:47:35Z</time></trkpt><trkpt lat="42.12807859851074" lon="12.879535878187959"><ele>936.8333333333333</ele><time>2026-03-29T07:47:39Z</time></trkpt><trkpt lat="42.12806620004193" lon="12.87966245407338"><ele>936.6666666666666</ele><time>2026-03-29T07:47:41.999Z</time></trkpt><trkpt lat="42.12808276079688" lon="12.879750432042549"><ele>936.5</ele><time>2026-03-29T07:47:43.999Z</time></trkpt><trkpt lat="42.12808013680665" lon="12.879888966392842"><ele>936.3333333333333</ele><time>2026-03-29T07:47:45.999Z</time></trkpt><trkpt lat="42.12805594194633" lon="12.88004170483634"><ele>936.1666666666666</ele><time>2026-03-29T07:47:47.999Z</time></trkpt><trkpt lat="42.1280310191164" lon="12.880119834683128"><ele>936.0</ele><time>2026-03-29T07:47:48.999Z</time></trkpt><trkpt lat="42.12801396625088" lon="12.880201979759018"><ele>935.8</ele><time>2026-03-29T07:47:49.999Z</time></trkpt><trkpt lat="42.127993613818944" lon="12.880303336886195"><ele>935.5999999999999</ele><time>2026-03-29T07:47:50.999Z</time></trkpt><trkpt lat="42.12800678163884" lon="12.880415568622068"><ele>935.4</ele><time>2026-03-29T07:47:51.999Z</time></trkpt><trkpt lat="42.12799627376862" lon="12.880586714401996"><ele>935.2</ele><time>2026-03-29T07:47:53.999Z</time></trkpt><trkpt lat="42.12798862695355" lon="12.880703793082722"><ele>935.0</ele><time>2026-03-29T07:47:54.999Z</time></trkpt><trkpt lat="42.127975758028306" lon="12.880831432282072"><ele>935.0000000000001</ele><time>2026-03-29T07:47:55.999Z</time></trkpt><trkpt lat="42.12795397105178" lon="12.880928860296683"><ele>935.0</ele><time>2026-03-29T07:47:56.999Z</time></trkpt><trkpt lat="42.12792987007488" lon="12.88101985076976"><ele>935.0</ele><time>2026-03-29T07:47:57.999Z</time></trkpt><trkpt lat="42.12790600707722" lon="12.881128671181159"><ele>935.0</ele><time>2026-03-29T07:47:59Z</time></trkpt><trkpt lat="42.12786202659445" lon="12.881248350053191"><ele>935.0000000000001</ele><time>2026-03-29T07:48:00Z</time></trkpt><trkpt lat="42.12783470985357" lon="12.881389490546136"><ele>935.0</ele><time>2026-03-29T07:48:01Z</time></trkpt><trkpt lat="42.1278139092142" lon="12.881495231728792"><ele>934.5000000000001</ele><time>2026-03-29T07:48:02Z</time></trkpt><trkpt lat="42.12778559395183" lon="12.881583577697144"><ele>934.0</ele><time>2026-03-29T07:48:03Z</time></trkpt><trkpt lat="42.12779888717752" lon="12.881676776082728"><ele>933.5</ele><time>2026-03-29T07:48:06Z</time></trkpt><trkpt lat="42.1278836947241" lon="12.881713776437046"><ele>933.0</ele><time>2026-03-29T07:48:08Z</time></trkpt><trkpt lat="42.127961197623556" lon="12.881707797797814"><ele>932.5000000000001</ele><time>2026-03-29T07:48:10Z</time></trkpt><trkpt lat="42.12802920426534" lon="12.881702716872155"><ele>932.0</ele><time>2026-03-29T07:48:11Z</time></trkpt><trkpt lat="42.128123566376175" lon="12.881667287304655"><ele>932.0000000000001</ele><time>2026-03-29T07:48:12Z</time></trkpt><trkpt lat="42.12819908254334" lon="12.881668382038097"><ele>932.0</ele><time>2026-03-29T07:48:14Z</time></trkpt><trkpt lat="42.12824277578027" lon="12.881746746104042"><ele>932.0</ele><time>2026-03-29T07:48:15Z</time></trkpt><trkpt lat="42.128257643775164" lon="12.881839305932774"><ele>932.0</ele><time>2026-03-29T07:48:16Z</time></trkpt><trkpt lat="42.128294796095375" lon="12.881966895027565"><ele>932.0000000000001</ele><time>2026-03-29T07:48:17Z</time></trkpt><trkpt lat="42.12831436190911" lon="12.882094098391262"><ele>932.0</ele><time>2026-03-29T07:48:18Z</time></trkpt><trkpt lat="42.128365127932426" lon="12.882224782542217"><ele>932.6</ele><time>2026-03-29T07:48:19Z</time></trkpt><trkpt lat="42.12842803256608" lon="12.882333473812324"><ele>933.2</ele><time>2026-03-29T07:48:20Z</time></trkpt><trkpt lat="42.128490285046965" lon="12.882398998598344"><ele>933.8</ele><time>2026-03-29T07:48:21Z</time></trkpt><trkpt lat="42.128562544165824" lon="12.882478005307386"><ele>934.4</ele><time>2026-03-29T07:48:22Z</time></trkpt><trkpt lat="42.12865871860459" lon="12.882563595863566"><ele>935.0</ele><time>2026-03-29T07:48:23Z</time></trkpt><trkpt lat="42.128712722641914" lon="12.882652035230375"><ele>935.0</ele><time>2026-03-29T07:48:24Z</time></trkpt><trkpt lat="42.128787756990505" lon="12.882749419903398"><ele>935.0</ele><time>2026-03-29T07:48:25Z</time></trkpt><trkpt lat="42.12885018890314" lon="12.882853289348692"><ele>935.0</ele><time>2026-03-29T07:48:26Z</time></trkpt><trkpt lat="42.12892268189808" lon="12.882959036737274"><ele>935.0</ele><time>2026-03-29T07:48:27Z</time></trkpt><trkpt lat="42.12898628932435" lon="12.883023301123176"><ele>935.0</ele><time>2026-03-29T07:48:28Z</time></trkpt><trkpt lat="42.12904459620064" lon="12.883091665509497"><ele>934.0</ele><time>2026-03-29T07:48:29Z</time></trkpt><trkpt lat="42.12911464253094" lon="12.88318012352681"><ele>933.0</ele><time>2026-03-29T07:48:30Z</time></trkpt><trkpt lat="42.129181376408745" lon="12.883285318347857"><ele>932.0</ele><time>2026-03-29T07:48:31Z</time></trkpt><trkpt lat="42.12925466653607" lon="12.88338741513057"><ele>931.0</ele><time>2026-03-29T07:48:32Z</time></trkpt><trkpt lat="42.1293355215905" lon="12.88347017447929"><ele>930.0</ele><time>2026-03-29T07:48:33Z</time></trkpt><trkpt lat="42.129414729937565" lon="12.88353913616462"><ele>932.4</ele><time>2026-03-29T07:48:34Z</time></trkpt><trkpt lat="42.129510354790966" lon="12.88358448241675"><ele>934.8</ele><time>2026-03-29T07:48:35Z</time></trkpt><trkpt lat="42.1296109395635" lon="12.883612048964721"><ele>937.2</ele><time>2026-03-29T07:48:36Z</time></trkpt><trkpt lat="42.12968830538383" lon="12.883649072621195"><ele>939.6</ele><time>2026-03-29T07:48:37Z</time></trkpt><trkpt lat="42.12970148212711" lon="12.883755299504413"><ele>942.0</ele><time>2026-03-29T07:48:39Z</time></trkpt><trkpt lat="42.12960908563777" lon="12.883794806501772"><ele>942.0</ele><time>2026-03-29T07:48:41Z</time></trkpt><trkpt lat="42.1295427564679" lon="12.883779188962245"><ele>942.0</ele><time>2026-03-29T07:48:42Z</time></trkpt><trkpt lat="42.12947467113946" lon="12.883779226756461"><ele>942.0</ele><time>2026-03-29T07:48:43Z</time></trkpt><trkpt lat="42.129390193044316" lon="12.883798172685042"><ele>942.0</ele><time>2026-03-29T07:48:44Z</time></trkpt><trkpt lat="42.12928181658158" lon="12.883807877787115"><ele>942.0</ele><time>2026-03-29T07:48:45Z</time></trkpt><trkpt lat="42.12918692992783" lon="12.883800866378019"><ele>942.0</ele><time>2026-03-29T07:48:46Z</time></trkpt><trkpt lat="42.12911116946113" lon="12.883855226404899"><ele>942.0</ele><time>2026-03-29T07:48:48Z</time></trkpt><trkpt lat="42.12911795680749" lon="12.883956960203971"><ele>942.0</ele><time>2026-03-29T07:48:49Z</time></trkpt><trkpt lat="42.12916156176237" lon="12.884025360083339"><ele>942.0</ele><time>2026-03-29T07:48:50Z</time></trkpt><trkpt lat="42.129225364321854" lon="12.884091962658914"><ele>942.0</ele><time>2026-03-29T07:48:51Z</time></trkpt><trkpt lat="42.1293155393188" lon="12.884138448247384"><ele>942.0</ele><time>2026-03-29T07:48:52Z</time></trkpt><trkpt lat="42.12946840603055" lon="12.884181165987524"><ele>942.0</ele><time>2026-03-29T07:48:53Z</time></trkpt><trkpt lat="42.12959047655471" lon="12.884247554826452"><ele>942.0</ele><time>2026-03-29T07:48:54Z</time></trkpt><trkpt lat="42.12970746146269" lon="12.884294542407671"><ele>942.0</ele><time>2026-03-29T07:48:55Z</time></trkpt><trkpt lat="42.129796236156274" lon="12.884369036514553"><ele>942.0</ele><time>2026-03-29T07:48:56Z</time></trkpt><trkpt lat="42.12984671655491" lon="12.884430329412513"><ele>942.0</ele><time>2026-03-29T07:48:57Z</time></trkpt><trkpt lat="42.12986161116785" lon="12.884567072749139"><ele>944.1666666666666</ele><time>2026-03-29T07:48:59Z</time></trkpt><trkpt lat="42.12978246024991" lon="12.884669608084021"><ele>946.3333333333333</ele><time>2026-03-29T07:49:01Z</time></trkpt><trkpt lat="42.12971251955752" lon="12.884677846558594"><ele>948.5</ele><time>2026-03-29T07:49:02Z</time></trkpt><trkpt lat="42.12964207455652" lon="12.884684474699267"><ele>950.6666666666666</ele><time>2026-03-29T07:49:03Z</time></trkpt><trkpt lat="42.129562346345374" lon="12.884676008481659"><ele>952.8333333333333</ele><time>2026-03-29T07:49:04Z</time></trkpt><trkpt lat="42.129472738006655" lon="12.884680912514"><ele>955.0</ele><time>2026-03-29T07:49:05Z</time></trkpt><trkpt lat="42.12938376597263" lon="12.884700508300423"><ele>954.9999999999999</ele><time>2026-03-29T07:49:06Z</time></trkpt><trkpt lat="42.12929825509231" lon="12.884730662448945"><ele>955.0</ele><time>2026-03-29T07:49:07Z</time></trkpt><trkpt lat="42.12923863582017" lon="12.884801992492884"><ele>955.0</ele><time>2026-03-29T07:49:08Z</time></trkpt><trkpt lat="42.129224016575364" lon="12.884892814737242"><ele>955.0</ele><time>2026-03-29T07:49:09Z</time></trkpt><trkpt lat="42.129232145149395" lon="12.884988415586768"><ele>954.9999999999999</ele><time>2026-03-29T07:49:10Z</time></trkpt><trkpt lat="42.12926681827458" lon="12.885095140310769"><ele>955.0</ele><time>2026-03-29T07:49:11Z</time></trkpt><trkpt lat="42.129328670649585" lon="12.885182575364123"><ele>957.0</ele><time>2026-03-29T07:49:12Z</time></trkpt><trkpt lat="42.129398930750426" lon="12.885247545521214"><ele>959.0</ele><time>2026-03-29T07:49:13Z</time></trkpt><trkpt lat="42.129491797876774" lon="12.885310755433634"><ele>961.0</ele><time>2026-03-29T07:49:14Z</time></trkpt><trkpt lat="42.12959576327525" lon="12.885407363102813"><ele>963.0</ele><time>2026-03-29T07:49:15Z</time></trkpt><trkpt lat="42.12965742607599" lon="12.885522589888673"><ele>965.0</ele><time>2026-03-29T07:49:16Z</time></trkpt><trkpt lat="42.129702002589546" lon="12.885619107671713"><ele>965.0</ele><time>2026-03-29T07:49:17Z</time></trkpt><trkpt lat="42.12971337181624" lon="12.88571323044477"><ele>965.0</ele><time>2026-03-29T07:49:18Z</time></trkpt><trkpt lat="42.12969760526391" lon="12.885834394616941"><ele>965.0</ele><time>2026-03-29T07:49:19Z</time></trkpt><trkpt lat="42.129669957858844" lon="12.885972075284277"><ele>965.0</ele><time>2026-03-29T07:49:20Z</time></trkpt><trkpt lat="42.12964178667506" lon="12.88613443615474"><ele>965.0</ele><time>2026-03-29T07:49:21Z</time></trkpt><trkpt lat="42.129639756871796" lon="12.88632910746416"><ele>967.75</ele><time>2026-03-29T07:49:22Z</time></trkpt><trkpt lat="42.12962076425634" lon="12.886523118783472"><ele>970.5</ele><time>2026-03-29T07:49:23Z</time></trkpt><trkpt lat="42.12962649939238" lon="12.886723918948693"><ele>973.25</ele><time>2026-03-29T07:49:24Z</time></trkpt><trkpt lat="42.12962354708197" lon="12.886920840848276"><ele>976.0</ele><time>2026-03-29T07:49:25Z</time></trkpt><trkpt lat="42.12961898183491" lon="12.887127539130734"><ele>976.4</ele><time>2026-03-29T07:49:26Z</time></trkpt><trkpt lat="42.12960551414478" lon="12.887308091657042"><ele>976.8</ele><time>2026-03-29T07:49:27Z</time></trkpt><trkpt lat="42.12959996865088" lon="12.887479937397176"><ele>977.1999999999999</ele><time>2026-03-29T07:49:28Z</time></trkpt><trkpt lat="42.1296132711773" lon="12.887607799320868"><ele>977.5999999999999</ele><time>2026-03-29T07:49:29Z</time></trkpt><trkpt lat="42.12961374972672" lon="12.88769501939823"><ele>978.0</ele><time>2026-03-29T07:49:30Z</time></trkpt><trkpt lat="42.129579247021695" lon="12.887816918104892"><ele>978.0</ele><time>2026-03-29T07:49:31Z</time></trkpt><trkpt lat="42.12952973888149" lon="12.88793530923367"><ele>978.0</ele><time>2026-03-29T07:49:32Z</time></trkpt><trkpt lat="42.129463530906925" lon="12.888053325664035"><ele>978.0</ele><time>2026-03-29T07:49:33Z</time></trkpt><trkpt lat="42.1293733889054" lon="12.888162436826681"><ele>978.0</ele><time>2026-03-29T07:49:34Z</time></trkpt><trkpt lat="42.12925600740288" lon="12.888262464734009"><ele>978.0</ele><time>2026-03-29T07:49:35Z</time></trkpt><trkpt lat="42.12917158528013" lon="12.888377124474706"><ele>978.0</ele><time>2026-03-29T07:49:36Z</time></trkpt><trkpt lat="42.12912180197852" lon="12.888540011321876"><ele>978.0</ele><time>2026-03-29T07:49:37Z</time></trkpt><trkpt lat="42.12912073835397" lon="12.888726657239255"><ele>978.0</ele><time>2026-03-29T07:49:38Z</time></trkpt><trkpt lat="42.12911987969457" lon="12.888875640258137"><ele>978.0</ele><time>2026-03-29T07:49:39Z</time></trkpt><trkpt lat="42.12913171888467" lon="12.889015755110412"><ele>978.0</ele><time>2026-03-29T07:49:40Z</time></trkpt><trkpt lat="42.12916983520846" lon="12.889169402288351"><ele>978.0</ele><time>2026-03-29T07:49:41Z</time></trkpt><trkpt lat="42.12920568905357" lon="12.889320004972143"><ele>978.0</ele><time>2026-03-29T07:49:42Z</time></trkpt><trkpt lat="42.129262734653" lon="12.889465190573194"><ele>978.5999999999999</ele><time>2026-03-29T07:49:43Z</time></trkpt><trkpt lat="42.129330623992246" lon="12.889593276263104"><ele>979.1999999999999</ele><time>2026-03-29T07:49:44Z</time></trkpt><trkpt lat="42.129404307560264" lon="12.889703604109025"><ele>979.8</ele><time>2026-03-29T07:49:45Z</time></trkpt><trkpt lat="42.129472007599915" lon="12.889781135132889"><ele>980.4</ele><time>2026-03-29T07:49:45.999Z</time></trkpt><trkpt lat="42.1295433666339" lon="12.889849902798014"><ele>981.0</ele><time>2026-03-29T07:49:46.999Z</time></trkpt><trkpt lat="42.129592679869624" lon="12.889912874054282"><ele>981.0</ele><time>2026-03-29T07:49:47.999Z</time></trkpt><trkpt lat="42.12963738090864" lon="12.890016994020014"><ele>980.9999999999999</ele><time>2026-03-29T07:49:48.999Z</time></trkpt><trkpt lat="42.12967234735568" lon="12.890141140375102"><ele>980.9999999999999</ele><time>2026-03-29T07:49:49.999Z</time></trkpt><trkpt lat="42.129685746592095" lon="12.890281041653347"><ele>981.0</ele><time>2026-03-29T07:49:50.999Z</time></trkpt><trkpt lat="42.12967840043778" lon="12.890415246117493"><ele>981.0</ele><time>2026-03-29T07:49:51.999Z</time></trkpt><trkpt lat="42.12965370206749" lon="12.890558121029576"><ele>979.75</ele><time>2026-03-29T07:49:52.999Z</time></trkpt><trkpt lat="42.12960882981677" lon="12.890702255916652"><ele>978.5</ele><time>2026-03-29T07:49:53.999Z</time></trkpt><trkpt lat="42.129548883750594" lon="12.890852961946162"><ele>977.25</ele><time>2026-03-29T07:49:54.999Z</time></trkpt><trkpt lat="42.129495781308364" lon="12.891008394326152"><ele>976.0</ele><time>2026-03-29T07:49:55.999Z</time></trkpt><trkpt lat="42.12944659085755" lon="12.891150878940635"><ele>974.25</ele><time>2026-03-29T07:49:56.999Z</time></trkpt><trkpt lat="42.12942014828204" lon="12.891297117970877"><ele>972.5</ele><time>2026-03-29T07:49:57.999Z</time></trkpt><trkpt lat="42.12941677953926" lon="12.891461637606788"><ele>970.75</ele><time>2026-03-29T07:49:58.999Z</time></trkpt><trkpt lat="42.12941318238032" lon="12.891643057259817"><ele>969.0</ele><time>2026-03-29T07:49:59.999Z</time></trkpt><trkpt lat="42.129408960991675" lon="12.89179545104339"><ele>968.8000000000001</ele><time>2026-03-29T07:50:00.999Z</time></trkpt><trkpt lat="42.12940771808313" lon="12.891920816517874"><ele>968.6000000000001</ele><time>2026-03-29T07:50:01.999Z</time></trkpt><trkpt lat="42.12939527769462" lon="12.892042221793014"><ele>968.4</ele><time>2026-03-29T07:50:02.999Z</time></trkpt><trkpt lat="42.12935227249496" lon="12.892173111919622"><ele>968.2</ele><time>2026-03-29T07:50:03.999Z</time></trkpt><trkpt lat="42.129299962847064" lon="12.892314664459477"><ele>968.0</ele><time>2026-03-29T07:50:05Z</time></trkpt><trkpt lat="42.12924841433181" lon="12.892474710546486"><ele>969.0</ele><time>2026-03-29T07:50:06Z</time></trkpt><trkpt lat="42.12921570284683" lon="12.892641121853934"><ele>970.0</ele><time>2026-03-29T07:50:07Z</time></trkpt><trkpt lat="42.129221436391404" lon="12.892788514706067"><ele>971.0</ele><time>2026-03-29T07:50:08Z</time></trkpt><trkpt lat="42.1292450354242" lon="12.892936277532916"><ele>972.0</ele><time>2026-03-29T07:50:09Z</time></trkpt><trkpt lat="42.129283253305374" lon="12.893065429703936"><ele>972.0</ele><time>2026-03-29T07:50:10Z</time></trkpt><trkpt lat="42.12934323160941" lon="12.893180413318083"><ele>972.0</ele><time>2026-03-29T07:50:11Z</time></trkpt><trkpt lat="42.12942952560998" lon="12.893275997365073"><ele>972.0</ele><time>2026-03-29T07:50:12Z</time></trkpt><trkpt lat="42.12954303546015" lon="12.893354982793738"><ele>972.0</ele><time>2026-03-29T07:50:13Z</time></trkpt><trkpt lat="42.12966642972228" lon="12.893423881111987"><ele>973.75</ele><time>2026-03-29T07:50:14Z</time></trkpt><trkpt lat="42.129790123058186" lon="12.893492678904636"><ele>975.5</ele><time>2026-03-29T07:50:15Z</time></trkpt><trkpt lat="42.129896948116524" lon="12.893562955117225"><ele>977.25</ele><time>2026-03-29T07:50:16Z</time></trkpt><trkpt lat="42.129980092391726" lon="12.893643683413751"><ele>979.0</ele><time>2026-03-29T07:50:17Z</time></trkpt><trkpt lat="42.13003193933299" lon="12.893762137971587"><ele>974.5</ele><time>2026-03-29T07:50:18Z</time></trkpt><trkpt lat="42.13004952759937" lon="12.893898051306245"><ele>970.0</ele><time>2026-03-29T07:50:19Z</time></trkpt><trkpt lat="42.13004929780857" lon="12.894053843983322"><ele>965.5</ele><time>2026-03-29T07:50:20Z</time></trkpt><trkpt lat="42.130025310198555" lon="12.894233515756618"><ele>961.0</ele><time>2026-03-29T07:50:21Z</time></trkpt><trkpt lat="42.12998010712807" lon="12.894425538724136"><ele>961.0</ele><time>2026-03-29T07:50:22Z</time></trkpt><trkpt lat="42.12993541234363" lon="12.894611189638963"><ele>961.0</ele><time>2026-03-29T07:50:23Z</time></trkpt><trkpt lat="42.129923092706065" lon="12.894782820704737"><ele>961.0</ele><time>2026-03-29T07:50:24Z</time></trkpt><trkpt lat="42.12995324041928" lon="12.894940040343176"><ele>961.0</ele><time>2026-03-29T07:50:25Z</time></trkpt><trkpt lat="42.13002151829515" lon="12.895073980733013"><ele>963.75</ele><time>2026-03-29T07:50:26Z</time></trkpt><trkpt lat="42.13011141867923" lon="12.89518200150706"><ele>966.5</ele><time>2026-03-29T07:50:27Z</time></trkpt><trkpt lat="42.13022319494012" lon="12.895278940804678"><ele>969.25</ele><time>2026-03-29T07:50:28Z</time></trkpt><trkpt lat="42.1303504117569" lon="12.895369128234577"><ele>972.0</ele><time>2026-03-29T07:50:29Z</time></trkpt><trkpt lat="42.13048223012572" lon="12.895442847609875"><ele>972.0</ele><time>2026-03-29T07:50:30Z</time></trkpt><trkpt lat="42.13062287806848" lon="12.895528205606443"><ele>972.0</ele><time>2026-03-29T07:50:31Z</time></trkpt><trkpt lat="42.13076361697389" lon="12.895597624555688"><ele>972.0</ele><time>2026-03-29T07:50:32Z</time></trkpt><trkpt lat="42.13088316628222" lon="12.895672680605585"><ele>972.0</ele><time>2026-03-29T07:50:33Z</time></trkpt><trkpt lat="42.13096755726603" lon="12.895770711646902"><ele>969.8</ele><time>2026-03-29T07:50:34Z</time></trkpt><trkpt lat="42.131010505090465" lon="12.89589074635808"><ele>967.6</ele><time>2026-03-29T07:50:35Z</time></trkpt><trkpt lat="42.13101673101221" lon="12.896026912735579"><ele>965.3999999999999</ele><time>2026-03-29T07:50:36Z</time></trkpt><trkpt lat="42.13099576018896" lon="12.896182153645741"><ele>963.1999999999999</ele><time>2026-03-29T07:50:37Z</time></trkpt><trkpt lat="42.13096926434175" lon="12.896350579566425"><ele>961.0</ele><time>2026-03-29T07:50:38Z</time></trkpt><trkpt lat="42.1309698708807" lon="12.8965337881971"><ele>961.0</ele><time>2026-03-29T07:50:39Z</time></trkpt><trkpt lat="42.130971763794896" lon="12.896735407300321"><ele>961.0</ele><time>2026-03-29T07:50:40Z</time></trkpt><trkpt lat="42.13096070599364" lon="12.896940900493847"><ele>961.0</ele><time>2026-03-29T07:50:41Z</time></trkpt><trkpt lat="42.130972326888916" lon="12.897139010773774"><ele>962.5999999999999</ele><time>2026-03-29T07:50:42Z</time></trkpt><trkpt lat="42.13099668497805" lon="12.897299999029205"><ele>964.1999999999999</ele><time>2026-03-29T07:50:43Z</time></trkpt><trkpt lat="42.131042879283896" lon="12.897419035695219"><ele>965.8000000000001</ele><time>2026-03-29T07:50:44Z</time></trkpt><trkpt lat="42.13111138720021" lon="12.897495426739825"><ele>967.4000000000001</ele><time>2026-03-29T07:50:45Z</time></trkpt><trkpt lat="42.13118818436494" lon="12.897535286386951"><ele>969.0</ele><time>2026-03-29T07:50:46Z</time></trkpt><trkpt lat="42.13127019694899" lon="12.8975411540586"><ele>969.0</ele><time>2026-03-29T07:50:47Z</time></trkpt><trkpt lat="42.13137525444971" lon="12.897546066755526"><ele>969.0</ele><time>2026-03-29T07:50:48Z</time></trkpt><trkpt lat="42.13147031560651" lon="12.897604132692795"><ele>969.0</ele><time>2026-03-29T07:50:49Z</time></trkpt><trkpt lat="42.131565367370236" lon="12.897703964538662"><ele>969.0</ele><time>2026-03-29T07:50:50Z</time></trkpt><trkpt lat="42.13167433372706" lon="12.8978093482804"><ele>970.0</ele><time>2026-03-29T07:50:51Z</time></trkpt><trkpt lat="42.13180721662648" lon="12.897920188345875"><ele>971.0</ele><time>2026-03-29T07:50:52Z</time></trkpt><trkpt lat="42.1319503943566" lon="12.89805263694774"><ele>972.0</ele><time>2026-03-29T07:50:53Z</time></trkpt><trkpt lat="42.13207843020062" lon="12.898181452331189"><ele>972.0</ele><time>2026-03-29T07:50:54Z</time></trkpt><trkpt lat="42.13220088728693" lon="12.89832305794012"><ele>972.0</ele><time>2026-03-29T07:50:55Z</time></trkpt><trkpt lat="42.13229773330683" lon="12.898494232838438"><ele>972.0</ele><time>2026-03-29T07:50:56Z</time></trkpt><trkpt lat="42.132372926540214" lon="12.898683539466138"><ele>973.5</ele><time>2026-03-29T07:50:57Z</time></trkpt><trkpt lat="42.13246187649755" lon="12.898845042533402"><ele>975.0</ele><time>2026-03-29T07:50:58Z</time></trkpt><trkpt lat="42.13257528844159" lon="12.898967023435533"><ele>976.5</ele><time>2026-03-29T07:50:59Z</time></trkpt><trkpt lat="42.13269346982928" lon="12.899070870669359"><ele>978.0</ele><time>2026-03-29T07:51:00Z</time></trkpt><trkpt lat="42.13279413203917" lon="12.899209278009971"><ele>980.0</ele><time>2026-03-29T07:51:01Z</time></trkpt><trkpt lat="42.13287263799983" lon="12.899363667368258"><ele>982.0</ele><time>2026-03-29T07:51:02Z</time></trkpt><trkpt lat="42.132951250812205" lon="12.899532650394296"><ele>984.0</ele><time>2026-03-29T07:51:03Z</time></trkpt><trkpt lat="42.13304775959263" lon="12.899690198912358"><ele>986.0</ele><time>2026-03-29T07:51:04Z</time></trkpt><trkpt lat="42.13314430642709" lon="12.899856115339887"><ele>983.3333333333334</ele><time>2026-03-29T07:51:05Z</time></trkpt><trkpt lat="42.1332385678797" lon="12.90001919309103"><ele>980.6666666666667</ele><time>2026-03-29T07:51:06Z</time></trkpt><trkpt lat="42.13334179055641" lon="12.900180912713411"><ele>978.0</ele><time>2026-03-29T07:51:07Z</time></trkpt><trkpt lat="42.13344412630712" lon="12.900334859784037"><ele>978.0</ele><time>2026-03-29T07:51:08Z</time></trkpt><trkpt lat="42.133529973342995" lon="12.900484060453001"><ele>978.0</ele><time>2026-03-29T07:51:09Z</time></trkpt><trkpt lat="42.13360621493993" lon="12.900626645513418"><ele>978.0</ele><time>2026-03-29T07:51:10Z</time></trkpt><trkpt lat="42.13368431952456" lon="12.900758433032497"><ele>978.0</ele><time>2026-03-29T07:51:11Z</time></trkpt><trkpt lat="42.133762689264856" lon="12.900883031115466"><ele>978.75</ele><time>2026-03-29T07:51:12Z</time></trkpt><trkpt lat="42.133838676718106" lon="12.901012765970746"><ele>979.5</ele><time>2026-03-29T07:51:13Z</time></trkpt><trkpt lat="42.133933649803836" lon="12.901159537145489"><ele>980.25</ele><time>2026-03-29T07:51:14Z</time></trkpt><trkpt lat="42.13403672340409" lon="12.901326440409296"><ele>981.0</ele><time>2026-03-29T07:51:15Z</time></trkpt><trkpt lat="42.134138585390154" lon="12.901499408174928"><ele>974.0</ele><time>2026-03-29T07:51:16Z</time></trkpt><trkpt lat="42.13423757444513" lon="12.901677618768659"><ele>967.0</ele><time>2026-03-29T07:51:17Z</time></trkpt><trkpt lat="42.13433120521054" lon="12.901859985406022"><ele>960.0</ele><time>2026-03-29T07:51:18Z</time></trkpt><trkpt lat="42.134418640705185" lon="12.90205813108536"><ele>959.3333333333333</ele><time>2026-03-29T07:51:19Z</time></trkpt><trkpt lat="42.13449298665557" lon="12.9022715919568"><ele>958.6666666666666</ele><time>2026-03-29T07:51:20Z</time></trkpt><trkpt lat="42.134558066150944" lon="12.902481113509573"><ele>958.0</ele><time>2026-03-29T07:51:21Z</time></trkpt><trkpt lat="42.13461878287335" lon="12.902682616308544"><ele>956.6666666666666</ele><time>2026-03-29T07:51:22Z</time></trkpt><trkpt lat="42.134683054430475" lon="12.902876630644181"><ele>955.3333333333333</ele><time>2026-03-29T07:51:23Z</time></trkpt><trkpt lat="42.13474344129857" lon="12.903060889889161"><ele>954.0</ele><time>2026-03-29T07:51:24Z</time></trkpt><trkpt lat="42.134805044295646" lon="12.90325318434685"><ele>952.6666666666667</ele><time>2026-03-29T07:51:25Z</time></trkpt><trkpt lat="42.13486428400774" lon="12.903454352162287"><ele>951.3333333333334</ele><time>2026-03-29T07:51:26Z</time></trkpt><trkpt lat="42.13493835915733" lon="12.903656446236763"><ele>950.0</ele><time>2026-03-29T07:51:27Z</time></trkpt><trkpt lat="42.135020570320826" lon="12.903864825955994"><ele>947.3333333333334</ele><time>2026-03-29T07:51:28Z</time></trkpt><trkpt lat="42.13510428453302" lon="12.90407512730128"><ele>944.6666666666667</ele><time>2026-03-29T07:51:29Z</time></trkpt><trkpt lat="42.13517893453014" lon="12.904291877022114"><ele>942.0</ele><time>2026-03-29T07:51:30Z</time></trkpt><trkpt lat="42.13525216099453" lon="12.904512532442384"><ele>939.6666666666667</ele><time>2026-03-29T07:51:31Z</time></trkpt><trkpt lat="42.1353082975939" lon="12.90472424574811"><ele>937.3333333333334</ele><time>2026-03-29T07:51:32Z</time></trkpt><trkpt lat="42.13535947396351" lon="12.9049206672072"><ele>935.0</ele><time>2026-03-29T07:51:33Z</time></trkpt><trkpt lat="42.13541966642248" lon="12.905110023107326"><ele>931.3333333333334</ele><time>2026-03-29T07:51:34Z</time></trkpt><trkpt lat="42.13548409604665" lon="12.905307422757593"><ele>927.6666666666667</ele><time>2026-03-29T07:51:35Z</time></trkpt><trkpt lat="42.135556149368995" lon="12.905506211915824"><ele>924.0</ele><time>2026-03-29T07:51:36Z</time></trkpt><trkpt lat="42.13563904469378" lon="12.905704841426145"><ele>923.6666666666667</ele><time>2026-03-29T07:51:37Z</time></trkpt><trkpt lat="42.1357312601696" lon="12.905883353996314"><ele>923.3333333333334</ele><time>2026-03-29T07:51:38Z</time></trkpt><trkpt lat="42.13583090239479" lon="12.9060429460154"><ele>923.0</ele><time>2026-03-29T07:51:39Z</time></trkpt><trkpt lat="42.135945477792674" lon="12.906189315598867"><ele>922.0</ele><time>2026-03-29T07:51:40Z</time></trkpt><trkpt lat="42.136059334146694" lon="12.906306831291856"><ele>921.0</ele><time>2026-03-29T07:51:41Z</time></trkpt><trkpt lat="42.13617085276342" lon="12.906416247641785"><ele>920.0</ele><time>2026-03-29T07:51:42Z</time></trkpt><trkpt lat="42.13628529785845" lon="12.906521930560752"><ele>919.0</ele><time>2026-03-29T07:51:43Z</time></trkpt><trkpt lat="42.136410532426524" lon="12.906620826642166"><ele>919.0</ele><time>2026-03-29T07:51:44Z</time></trkpt><trkpt lat="42.136545712220304" lon="12.906721205850703"><ele>919.0</ele><time>2026-03-29T07:51:45Z</time></trkpt><trkpt lat="42.13669269130749" lon="12.90682784274353"><ele>919.0</ele><time>2026-03-29T07:51:46Z</time></trkpt><trkpt lat="42.13683486583155" lon="12.906935172316292"><ele>918.75</ele><time>2026-03-29T07:51:46.999Z</time></trkpt><trkpt lat="42.136970439674464" lon="12.907041690127496"><ele>918.5</ele><time>2026-03-29T07:51:47.999Z</time></trkpt><trkpt lat="42.137099114213406" lon="12.907135196907584"><ele>918.25</ele><time>2026-03-29T07:51:48.999Z</time></trkpt><trkpt lat="42.13722652073312" lon="12.907227184866683"><ele>918.0</ele><time>2026-03-29T07:51:49.999Z</time></trkpt><trkpt lat="42.137354953847165" lon="12.907321275504025"><ele>917.75</ele><time>2026-03-29T07:51:50.999Z</time></trkpt><trkpt lat="42.137485196949456" lon="12.907415695236857"><ele>917.5</ele><time>2026-03-29T07:51:51.999Z</time></trkpt><trkpt lat="42.137605826381495" lon="12.907501303456055"><ele>917.25</ele><time>2026-03-29T07:51:52.999Z</time></trkpt><trkpt lat="42.13772224224111" lon="12.907588172816018"><ele>917.0</ele><time>2026-03-29T07:51:53.999Z</time></trkpt><trkpt lat="42.13784111105479" lon="12.907679516371617"><ele>915.25</ele><time>2026-03-29T07:51:54.999Z</time></trkpt><trkpt lat="42.13796721181719" lon="12.907769604586967"><ele>913.5</ele><time>2026-03-29T07:51:55.999Z</time></trkpt><trkpt lat="42.13809585156251" lon="12.90786719063218"><ele>911.75</ele><time>2026-03-29T07:51:56.999Z</time></trkpt><trkpt lat="42.13822510271922" lon="12.907965365361058"><ele>910.0</ele><time>2026-03-29T07:51:57.999Z</time></trkpt><trkpt lat="42.13834581713212" lon="12.908061488771432"><ele>910.0</ele><time>2026-03-29T07:51:58.999Z</time></trkpt><trkpt lat="42.138451890783415" lon="12.908160496543012"><ele>910.0</ele><time>2026-03-29T07:51:59.999Z</time></trkpt><trkpt lat="42.138551329268616" lon="12.908264642748746"><ele>910.0</ele><time>2026-03-29T07:52:00.999Z</time></trkpt><trkpt lat="42.13863210245974" lon="12.90838361482484"><ele>910.0</ele><time>2026-03-29T07:52:01.999Z</time></trkpt><trkpt lat="42.13869258928087" lon="12.908522751148668"><ele>908.25</ele><time>2026-03-29T07:52:02.999Z</time></trkpt><trkpt lat="42.13872757678848" lon="12.90868863786369"><ele>906.5</ele><time>2026-03-29T07:52:03.999Z</time></trkpt><trkpt lat="42.13873655267522" lon="12.908875114117542"><ele>904.75</ele><time>2026-03-29T07:52:04.999Z</time></trkpt><trkpt lat="42.13873119976302" lon="12.909073642330311"><ele>903.0</ele><time>2026-03-29T07:52:05.999Z</time></trkpt><trkpt lat="42.13872736798208" lon="12.909285887260689"><ele>901.0</ele><time>2026-03-29T07:52:06.999Z</time></trkpt><trkpt lat="42.138724251500825" lon="12.90950452058231"><ele>899.0</ele><time>2026-03-29T07:52:07.999Z</time></trkpt><trkpt lat="42.13872080308524" lon="12.909708933121868"><ele>897.0</ele><time>2026-03-29T07:52:08.999Z</time></trkpt><trkpt lat="42.13871528145474" lon="12.909909381869944"><ele>896.25</ele><time>2026-03-29T07:52:09.999Z</time></trkpt><trkpt lat="42.13870192885267" lon="12.91010425725578"><ele>895.5</ele><time>2026-03-29T07:52:11Z</time></trkpt><trkpt lat="42.138676404548356" lon="12.910291324679989"><ele>894.75</ele><time>2026-03-29T07:52:12Z</time></trkpt><trkpt lat="42.13863308320155" lon="12.910475786997262"><ele>894.0</ele><time>2026-03-29T07:52:13Z</time></trkpt><trkpt lat="42.13856851023629" lon="12.910665676016547"><ele>894.0</ele><time>2026-03-29T07:52:14Z</time></trkpt><trkpt lat="42.13850099006172" lon="12.910862955375832"><ele>894.0</ele><time>2026-03-29T07:52:15Z</time></trkpt><trkpt lat="42.138433006108855" lon="12.911068120732791"><ele>894.0</ele><time>2026-03-29T07:52:16Z</time></trkpt><trkpt lat="42.13836287864264" lon="12.911253343466287"><ele>894.5</ele><time>2026-03-29T07:52:17Z</time></trkpt><trkpt lat="42.13829800020864" lon="12.911428414076777"><ele>895.0</ele><time>2026-03-29T07:52:18Z</time></trkpt><trkpt lat="42.13823035304735" lon="12.91159725997397"><ele>895.5</ele><time>2026-03-29T07:52:19Z</time></trkpt><trkpt lat="42.138161737481404" lon="12.91177466149546"><ele>896.0</ele><time>2026-03-29T07:52:20Z</time></trkpt><trkpt lat="42.138093077964974" lon="12.911956766796017"><ele>890.0</ele><time>2026-03-29T07:52:21Z</time></trkpt><trkpt lat="42.13802386831246" lon="12.912142414223952"><ele>884.0</ele><time>2026-03-29T07:52:22Z</time></trkpt><trkpt lat="42.13795620158088" lon="12.912332901519346"><ele>878.0</ele><time>2026-03-29T07:52:23Z</time></trkpt><trkpt lat="42.13789258818664" lon="12.912513725238409"><ele>878.0</ele><time>2026-03-29T07:52:24Z</time></trkpt><trkpt lat="42.13784007414109" lon="12.912703597624738"><ele>878.0</ele><time>2026-03-29T07:52:25Z</time></trkpt><trkpt lat="42.1377922782938" lon="12.912907465863569"><ele>878.0</ele><time>2026-03-29T07:52:26Z</time></trkpt><trkpt lat="42.13774587768379" lon="12.913109724782856"><ele>878.0</ele><time>2026-03-29T07:52:27Z</time></trkpt><trkpt lat="42.137701724500474" lon="12.913312597018859"><ele>878.0</ele><time>2026-03-29T07:52:28Z</time></trkpt><trkpt lat="42.137657926039246" lon="12.913518564481425"><ele>878.0</ele><time>2026-03-29T07:52:29Z</time></trkpt><trkpt lat="42.137613764057015" lon="12.913727181624227"><ele>878.0</ele><time>2026-03-29T07:52:30Z</time></trkpt><trkpt lat="42.137568077390945" lon="12.913930833425662"><ele>878.0</ele><time>2026-03-29T07:52:31Z</time></trkpt><trkpt lat="42.13752695555115" lon="12.914133394463589"><ele>878.0</ele><time>2026-03-29T07:52:32Z</time></trkpt><trkpt lat="42.13748466682843" lon="12.914335097846886"><ele>877.25</ele><time>2026-03-29T07:52:33Z</time></trkpt><trkpt lat="42.137450645033375" lon="12.914531524730476"><ele>876.5</ele><time>2026-03-29T07:52:34Z</time></trkpt><trkpt lat="42.137424521091134" lon="12.914736331765365"><ele>875.75</ele><time>2026-03-29T07:52:35Z</time></trkpt><trkpt lat="42.137416763288314" lon="12.914930120353036"><ele>875.0</ele><time>2026-03-29T07:52:36Z</time></trkpt><trkpt lat="42.13740345509965" lon="12.91511231911097"><ele>872.25</ele><time>2026-03-29T07:52:37Z</time></trkpt><trkpt lat="42.13737747929544" lon="12.915287985447504"><ele>869.5</ele><time>2026-03-29T07:52:38Z</time></trkpt><trkpt lat="42.13734683470104" lon="12.915473088057647"><ele>866.75</ele><time>2026-03-29T07:52:39Z</time></trkpt><trkpt lat="42.137316872123066" lon="12.915659922288508"><ele>864.0</ele><time>2026-03-29T07:52:40Z</time></trkpt><trkpt lat="42.1372862811645" lon="12.915846931826467"><ele>862.5</ele><time>2026-03-29T07:52:41Z</time></trkpt><trkpt lat="42.13725265003131" lon="12.916019235967042"><ele>861.0</ele><time>2026-03-29T07:52:42Z</time></trkpt><trkpt lat="42.13721012177488" lon="12.916181390986388"><ele>859.5</ele><time>2026-03-29T07:52:43Z</time></trkpt><trkpt lat="42.137153146408565" lon="12.916334411552148"><ele>858.0</ele><time>2026-03-29T07:52:44Z</time></trkpt><trkpt lat="42.137076614312285" lon="12.916484303577164"><ele>858.0</ele><time>2026-03-29T07:52:45Z</time></trkpt><trkpt lat="42.1370248852323" lon="12.916648697570743"><ele>858.0</ele><time>2026-03-29T07:52:46Z</time></trkpt><trkpt lat="42.13699432182576" lon="12.916815082229439"><ele>858.0</ele><time>2026-03-29T07:52:47Z</time></trkpt><trkpt lat="42.13698687713588" lon="12.916978806636516"><ele>858.0</ele><time>2026-03-29T07:52:48Z</time></trkpt><trkpt lat="42.13699565888315" lon="12.917148101055087"><ele>855.5</ele><time>2026-03-29T07:52:49Z</time></trkpt><trkpt lat="42.13700491323753" lon="12.917325725123167"><ele>853.0</ele><time>2026-03-29T07:52:50Z</time></trkpt><trkpt lat="42.136995803661684" lon="12.917509409264628"><ele>850.5</ele><time>2026-03-29T07:52:51Z</time></trkpt><trkpt lat="42.13697551561286" lon="12.917684468997498"><ele>848.0</ele><time>2026-03-29T07:52:52Z</time></trkpt><trkpt lat="42.13697347051282" lon="12.917859486002211"><ele>845.75</ele><time>2026-03-29T07:52:53Z</time></trkpt><trkpt lat="42.13698268049608" lon="12.91801792663537"><ele>843.5</ele><time>2026-03-29T07:52:54Z</time></trkpt><trkpt lat="42.13699212728679" lon="12.918189629257597"><ele>841.25</ele><time>2026-03-29T07:52:55Z</time></trkpt><trkpt lat="42.13700607348303" lon="12.91837776920249"><ele>839.0</ele><time>2026-03-29T07:52:56Z</time></trkpt><trkpt lat="42.137023144895714" lon="12.918579883369574"><ele>836.75</ele><time>2026-03-29T07:52:57Z</time></trkpt><trkpt lat="42.13703627481311" lon="12.918781355133408"><ele>834.5</ele><time>2026-03-29T07:52:58Z</time></trkpt><trkpt lat="42.13705552184043" lon="12.918969096882208"><ele>832.25</ele><time>2026-03-29T07:52:59Z</time></trkpt><trkpt lat="42.13708609956263" lon="12.919146638338296"><ele>830.0</ele><time>2026-03-29T07:53:00Z</time></trkpt><trkpt lat="42.13711741049561" lon="12.919300515700593"><ele>828.8</ele><time>2026-03-29T07:53:01Z</time></trkpt><trkpt lat="42.13715609097366" lon="12.919420507357113"><ele>827.6</ele><time>2026-03-29T07:53:02Z</time></trkpt><trkpt lat="42.13720003218334" lon="12.919516024498176"><ele>826.4000000000001</ele><time>2026-03-29T07:53:03Z</time></trkpt><trkpt lat="42.137188304543855" lon="12.919664366700514"><ele>825.2</ele><time>2026-03-29T07:53:05Z</time></trkpt><trkpt lat="42.137078991516844" lon="12.91964627687899"><ele>824.0</ele><time>2026-03-29T07:53:07Z</time></trkpt><trkpt lat="42.13704203173375" lon="12.919554230906074"><ele>824.0</ele><time>2026-03-29T07:53:08Z</time></trkpt><trkpt lat="42.136998641643395" lon="12.91944554152922"><ele>824.0</ele><time>2026-03-29T07:53:09Z</time></trkpt><trkpt lat="42.13696321076143" lon="12.919324622709166"><ele>824.0</ele><time>2026-03-29T07:53:10Z</time></trkpt><trkpt lat="42.13691814998126" lon="12.919216670068174"><ele>824.0</ele><time>2026-03-29T07:53:11Z</time></trkpt><trkpt lat="42.136854595900004" lon="12.919156972452134"><ele>824.0</ele><time>2026-03-29T07:53:12Z</time></trkpt><trkpt lat="42.13674619246238" lon="12.91919749689773"><ele>824.0</ele><time>2026-03-29T07:53:14Z</time></trkpt><trkpt lat="42.13673306642478" lon="12.919307892493096"><ele>824.0</ele><time>2026-03-29T07:53:15Z</time></trkpt><trkpt lat="42.136740864486946" lon="12.919427664549875"><ele>824.0</ele><time>2026-03-29T07:53:16Z</time></trkpt><trkpt lat="42.13676668615317" lon="12.919576105538447"><ele>824.0</ele><time>2026-03-29T07:53:17Z</time></trkpt><trkpt lat="42.13677644095103" lon="12.919753547251968"><ele>824.0</ele><time>2026-03-29T07:53:18Z</time></trkpt><trkpt lat="42.13676300614724" lon="12.919953149352022"><ele>823.0</ele><time>2026-03-29T07:53:19Z</time></trkpt><trkpt lat="42.13673788973499" lon="12.920171198384178"><ele>822.0</ele><time>2026-03-29T07:53:20Z</time></trkpt><trkpt lat="42.136704868521896" lon="12.920399760680507"><ele>821.0</ele><time>2026-03-29T07:53:21Z</time></trkpt><trkpt lat="42.13665222006068" lon="12.92063298566045"><ele>821.0</ele><time>2026-03-29T07:53:22Z</time></trkpt><trkpt lat="42.13657883956721" lon="12.920871090353986"><ele>821.0</ele><time>2026-03-29T07:53:23Z</time></trkpt><trkpt lat="42.136498494320016" lon="12.921109055443539"><ele>821.0</ele><time>2026-03-29T07:53:24Z</time></trkpt><trkpt lat="42.1364271995133" lon="12.92135097873078"><ele>813.6666666666667</ele><time>2026-03-29T07:53:25Z</time></trkpt><trkpt lat="42.136357944995325" lon="12.921579545114017"><ele>806.3333333333333</ele><time>2026-03-29T07:53:26Z</time></trkpt><trkpt lat="42.13628735045517" lon="12.921798390818257"><ele>799.0</ele><time>2026-03-29T07:53:27Z</time></trkpt><trkpt lat="42.13621668885395" lon="12.922009460287207"><ele>798.5</ele><time>2026-03-29T07:53:28Z</time></trkpt><trkpt lat="42.13614713231482" lon="12.922211881258857"><ele>798.0</ele><time>2026-03-29T07:53:29Z</time></trkpt><trkpt lat="42.136087350377366" lon="12.922383181476757"><ele>797.5</ele><time>2026-03-29T07:53:30Z</time></trkpt><trkpt lat="42.136029739969366" lon="12.922558712794315"><ele>797.0</ele><time>2026-03-29T07:53:31Z</time></trkpt><trkpt lat="42.13598003396716" lon="12.922739601949985"><ele>796.25</ele><time>2026-03-29T07:53:32Z</time></trkpt><trkpt lat="42.13594271654457" lon="12.922910788697918"><ele>795.5</ele><time>2026-03-29T07:53:33Z</time></trkpt><trkpt lat="42.13591050121302" lon="12.923064791487779"><ele>794.75</ele><time>2026-03-29T07:53:34Z</time></trkpt><trkpt lat="42.135864283412005" lon="12.923191277401548"><ele>794.0</ele><time>2026-03-29T07:53:35Z</time></trkpt><trkpt lat="42.13579574027982" lon="12.923310358021503"><ele>793.4000000000001</ele><time>2026-03-29T07:53:36Z</time></trkpt><trkpt lat="42.135711855808324" lon="12.923416159655101"><ele>792.8</ele><time>2026-03-29T07:53:37Z</time></trkpt><trkpt lat="42.135625498356625" lon="12.923520376412732"><ele>792.2</ele><time>2026-03-29T07:53:38Z</time></trkpt><trkpt lat="42.135562391323425" lon="12.923625351606187"><ele>791.5999999999999</ele><time>2026-03-29T07:53:39Z</time></trkpt><trkpt lat="42.13553589400096" lon="12.923723272839206"><ele>791.0</ele><time>2026-03-29T07:53:40Z</time></trkpt><trkpt lat="42.135532996006695" lon="12.92384664681055"><ele>791.0</ele><time>2026-03-29T07:53:41Z</time></trkpt><trkpt lat="42.13554495017743" lon="12.923987363908237"><ele>791.0</ele><time>2026-03-29T07:53:42Z</time></trkpt><trkpt lat="42.13554158103921" lon="12.924144379224185"><ele>791.0</ele><time>2026-03-29T07:53:43Z</time></trkpt><trkpt lat="42.13551211601678" lon="12.924301709353651"><ele>791.0</ele><time>2026-03-29T07:53:44Z</time></trkpt><trkpt lat="42.135449030159144" lon="12.924464213801363"><ele>791.0</ele><time>2026-03-29T07:53:45Z</time></trkpt><trkpt lat="42.13535687925103" lon="12.92462460011937"><ele>791.0</ele><time>2026-03-29T07:53:46Z</time></trkpt><trkpt lat="42.135241900131085" lon="12.924783380863985"><ele>791.0</ele><time>2026-03-29T07:53:46.999Z</time></trkpt><trkpt lat="42.135122963844296" lon="12.924961887751254"><ele>791.0</ele><time>2026-03-29T07:53:47.999Z</time></trkpt><trkpt lat="42.135009257811774" lon="12.925148555907507"><ele>791.0</ele><time>2026-03-29T07:53:48.999Z</time></trkpt><trkpt lat="42.13489531024277" lon="12.925344258126135"><ele>791.0</ele><time>2026-03-29T07:53:49.999Z</time></trkpt><trkpt lat="42.13477793744269" lon="12.925536017104248"><ele>791.0</ele><time>2026-03-29T07:53:50.999Z</time></trkpt><trkpt lat="42.13465961747569" lon="12.925733725320251"><ele>791.0</ele><time>2026-03-29T07:53:51.999Z</time></trkpt><trkpt lat="42.13454048678577" lon="12.925930282271558"><ele>791.0</ele><time>2026-03-29T07:53:52.999Z</time></trkpt><trkpt lat="42.13441805123265" lon="12.926127684232847"><ele>792.0</ele><time>2026-03-29T07:53:53.999Z</time></trkpt><trkpt lat="42.134299858129275" lon="12.92632758991464"><ele>793.0</ele><time>2026-03-29T07:53:54.999Z</time></trkpt><trkpt lat="42.13419378639758" lon="12.926495235923822"><ele>794.0</ele><time>2026-03-29T07:53:55.999Z</time></trkpt><trkpt lat="42.134097898198696" lon="12.92663456768706"><ele>797.0</ele><time>2026-03-29T07:53:56.999Z</time></trkpt><trkpt lat="42.13400927947746" lon="12.92676670997745"><ele>800.0</ele><time>2026-03-29T07:53:57.999Z</time></trkpt><trkpt lat="42.13392888013808" lon="12.926917147515452"><ele>803.0</ele><time>2026-03-29T07:53:58.999Z</time></trkpt><trkpt lat="42.13385457762013" lon="12.927069739877787"><ele>806.0</ele><time>2026-03-29T07:53:59.999Z</time></trkpt><trkpt lat="42.13378857109525" lon="12.927233684150051"><ele>806.0</ele><time>2026-03-29T07:54:00.999Z</time></trkpt><trkpt lat="42.13374778167769" lon="12.927373024209796"><ele>806.0</ele><time>2026-03-29T07:54:01.999Z</time></trkpt><trkpt lat="42.13367422711745" lon="12.927476815648767"><ele>806.0</ele><time>2026-03-29T07:54:02.999Z</time></trkpt><trkpt lat="42.133613687883255" lon="12.927591204243232"><ele>806.0</ele><time>2026-03-29T07:54:03.999Z</time></trkpt><trkpt lat="42.13364733986627" lon="12.92780371449181"><ele>808.5999999999999</ele><time>2026-03-29T07:54:04.999Z</time></trkpt><trkpt lat="42.1336112780149" lon="12.927927920964185"><ele>811.2</ele><time>2026-03-29T07:54:05.999Z</time></trkpt><trkpt lat="42.13359225687716" lon="12.928068079131835"><ele>813.8</ele><time>2026-03-29T07:54:06.999Z</time></trkpt><trkpt lat="42.13358857073722" lon="12.928230571133822"><ele>816.4000000000001</ele><time>2026-03-29T07:54:07.999Z</time></trkpt><trkpt lat="42.13358475372452" lon="12.928378280833146"><ele>819.0</ele><time>2026-03-29T07:54:08.999Z</time></trkpt><trkpt lat="42.133581861734356" lon="12.928490816494216"><ele>821.6</ele><time>2026-03-29T07:54:09.999Z</time></trkpt><trkpt lat="42.133587404215405" lon="12.928634879418006"><ele>824.2</ele><time>2026-03-29T07:54:11.999Z</time></trkpt><trkpt lat="42.13362995347716" lon="12.928723498977577"><ele>826.8000000000001</ele><time>2026-03-29T07:54:12.999Z</time></trkpt><trkpt lat="42.13365804545616" lon="12.928832330526289"><ele>829.4000000000001</ele><time>2026-03-29T07:54:13.999Z</time></trkpt><trkpt lat="42.13367896795355" lon="12.928973887989388"><ele>832.0</ele><time>2026-03-29T07:54:14.999Z</time></trkpt><trkpt lat="42.13370531126053" lon="12.929145316376887"><ele>832.5</ele><time>2026-03-29T07:54:15.999Z</time></trkpt><trkpt lat="42.13369720990773" lon="12.92931923667003"><ele>833.0</ele><time>2026-03-29T07:54:17Z</time></trkpt><trkpt lat="42.13366200465476" lon="12.929514313662287"><ele>833.5</ele><time>2026-03-29T07:54:18Z</time></trkpt><trkpt lat="42.133602750412" lon="12.929687981204781"><ele>834.0</ele><time>2026-03-29T07:54:19Z</time></trkpt><trkpt lat="42.1335289246119" lon="12.929866340522475"><ele>834.0</ele><time>2026-03-29T07:54:20Z</time></trkpt><trkpt lat="42.13344741516054" lon="12.930025658783364"><ele>834.0</ele><time>2026-03-29T07:54:21Z</time></trkpt><trkpt lat="42.133389663237494" lon="12.93016190595774"><ele>834.0</ele><time>2026-03-29T07:54:22Z</time></trkpt><trkpt lat="42.13337186998929" lon="12.930316023747642"><ele>834.0</ele><time>2026-03-29T07:54:23Z</time></trkpt><trkpt lat="42.133379444670084" lon="12.930473509345912"><ele>834.5</ele><time>2026-03-29T07:54:24Z</time></trkpt><trkpt lat="42.13340599295016" lon="12.930630440715131"><ele>835.0</ele><time>2026-03-29T07:54:25Z</time></trkpt><trkpt lat="42.133444965168714" lon="12.930795264704951"><ele>835.5</ele><time>2026-03-29T07:54:26Z</time></trkpt><trkpt lat="42.1334940989878" lon="12.930961595970603"><ele>836.0</ele><time>2026-03-29T07:54:27Z</time></trkpt><trkpt lat="42.13353955917907" lon="12.931128216254146"><ele>838.0</ele><time>2026-03-29T07:54:28Z</time></trkpt><trkpt lat="42.13356598888559" lon="12.93130954708435"><ele>840.0</ele><time>2026-03-29T07:54:29Z</time></trkpt><trkpt lat="42.13358544672676" lon="12.931498724834698"><ele>842.0</ele><time>2026-03-29T07:54:30Z</time></trkpt><trkpt lat="42.133615921292844" lon="12.931689888910453"><ele>844.0</ele><time>2026-03-29T07:54:31Z</time></trkpt><trkpt lat="42.13367799517745" lon="12.931868924511273"><ele>845.25</ele><time>2026-03-29T07:54:32Z</time></trkpt><trkpt lat="42.133763433860835" lon="12.932036602680707"><ele>846.5</ele><time>2026-03-29T07:54:33Z</time></trkpt><trkpt lat="42.13385385174797" lon="12.932198036187248"><ele>847.75</ele><time>2026-03-29T07:54:34Z</time></trkpt><trkpt lat="42.13391268546939" lon="12.932354198117322"><ele>849.0</ele><time>2026-03-29T07:54:35Z</time></trkpt><trkpt lat="42.1339329657624" lon="12.932488463495247"><ele>849.75</ele><time>2026-03-29T07:54:36Z</time></trkpt><trkpt lat="42.13392142449695" lon="12.932620136303026"><ele>850.5</ele><time>2026-03-29T07:54:37Z</time></trkpt><trkpt lat="42.133884234856936" lon="12.932769544664245"><ele>851.25</ele><time>2026-03-29T07:54:38Z</time></trkpt><trkpt lat="42.13385531788924" lon="12.932939585284728"><ele>852.0</ele><time>2026-03-29T07:54:39Z</time></trkpt><trkpt lat="42.1338478455094" lon="12.933133653971307"><ele>852.0</ele><time>2026-03-29T07:54:40Z</time></trkpt><trkpt lat="42.133845743047516" lon="12.933339464444492"><ele>852.0</ele><time>2026-03-29T07:54:41Z</time></trkpt><trkpt lat="42.13384110584328" lon="12.93353797496755"><ele>852.0</ele><time>2026-03-29T07:54:42Z</time></trkpt><trkpt lat="42.13382276163572" lon="12.933716326674615"><ele>852.0</ele><time>2026-03-29T07:54:43Z</time></trkpt><trkpt lat="42.13378101470984" lon="12.933862789699642"><ele>851.2</ele><time>2026-03-29T07:54:44Z</time></trkpt><trkpt lat="42.13372954576445" lon="12.9339597974685"><ele>850.4000000000001</ele><time>2026-03-29T07:54:45Z</time></trkpt><trkpt lat="42.1336434215356" lon="12.93399151733965"><ele>849.5999999999999</ele><time>2026-03-29T07:54:46Z</time></trkpt><trkpt lat="42.13356785487574" lon="12.934019944547304"><ele>848.8</ele><time>2026-03-29T07:54:47Z</time></trkpt><trkpt lat="42.13347498139945" lon="12.934088231729307"><ele>848.0</ele><time>2026-03-29T07:54:48Z</time></trkpt><trkpt lat="42.13336190931054" lon="12.934136358094696"><ele>848.0</ele><time>2026-03-29T07:54:49Z</time></trkpt><trkpt lat="42.13324292106696" lon="12.934212896340075"><ele>848.0</ele><time>2026-03-29T07:54:50Z</time></trkpt><trkpt lat="42.133109381676135" lon="12.934269591714177"><ele>848.0</ele><time>2026-03-29T07:54:51Z</time></trkpt><trkpt lat="42.13299790814544" lon="12.934371041566056"><ele>848.0</ele><time>2026-03-29T07:54:52Z</time></trkpt><trkpt lat="42.13293425216566" lon="12.934525405807248"><ele>847.25</ele><time>2026-03-29T07:54:53Z</time></trkpt><trkpt lat="42.132878618487325" lon="12.934655832356917"><ele>846.5</ele><time>2026-03-29T07:54:54Z</time></trkpt><trkpt lat="42.13285876068097" lon="12.934803654650874"><ele>845.75</ele><time>2026-03-29T07:54:55Z</time></trkpt><trkpt lat="42.13286881684312" lon="12.934957042823154"><ele>845.0</ele><time>2026-03-29T07:54:56Z</time></trkpt><trkpt lat="42.13290303904142" lon="12.935128091179132"><ele>845.0</ele><time>2026-03-29T07:54:57Z</time></trkpt><trkpt lat="42.132945073514364" lon="12.935317722900177"><ele>845.0</ele><time>2026-03-29T07:54:58Z</time></trkpt><trkpt lat="42.132977525891775" lon="12.935498414655992"><ele>845.0</ele><time>2026-03-29T07:54:59Z</time></trkpt><trkpt lat="42.13298376747645" lon="12.935661792890333"><ele>845.0</ele><time>2026-03-29T07:55:00Z</time></trkpt><trkpt lat="42.13295933949275" lon="12.935818064097367"><ele>842.5</ele><time>2026-03-29T07:55:01Z</time></trkpt><trkpt lat="42.13291721842066" lon="12.935980486864745"><ele>840.0</ele><time>2026-03-29T07:55:02Z</time></trkpt><trkpt lat="42.13287041475841" lon="12.936157483484138"><ele>837.5</ele><time>2026-03-29T07:55:03Z</time></trkpt><trkpt lat="42.13282713355564" lon="12.93632025968209"><ele>835.0</ele><time>2026-03-29T07:55:04Z</time></trkpt><trkpt lat="42.1327827410347" lon="12.936444441014812"><ele>835.0</ele><time>2026-03-29T07:55:05Z</time></trkpt><trkpt lat="42.132717448244684" lon="12.936541015835424"><ele>835.0</ele><time>2026-03-29T07:55:06Z</time></trkpt><trkpt lat="42.13261927323015" lon="12.936580658383336"><ele>835.0</ele><time>2026-03-29T07:55:07Z</time></trkpt><trkpt lat="42.132516114737086" lon="12.93663755344365"><ele>835.0</ele><time>2026-03-29T07:55:08Z</time></trkpt><trkpt lat="42.13240456539151" lon="12.93669680930269"><ele>835.0</ele><time>2026-03-29T07:55:09Z</time></trkpt><trkpt lat="42.132273513157465" lon="12.936680395004787"><ele>833.4</ele><time>2026-03-29T07:55:10Z</time></trkpt><trkpt lat="42.13214241649125" lon="12.936684405355567"><ele>831.8</ele><time>2026-03-29T07:55:11Z</time></trkpt><trkpt lat="42.132024678063985" lon="12.936688005509232"><ele>830.2</ele><time>2026-03-29T07:55:12Z</time></trkpt><trkpt lat="42.13191958303506" lon="12.936693103261799"><ele>828.6</ele><time>2026-03-29T07:55:13Z</time></trkpt><trkpt lat="42.13182857075489" lon="12.936699945081767"><ele>827.0</ele><time>2026-03-29T07:55:14Z</time></trkpt><trkpt lat="42.1317478419512" lon="12.936710975873634"><ele>825.4000000000001</ele><time>2026-03-29T07:55:15Z</time></trkpt><trkpt lat="42.13168920705542" lon="12.936744318632961"><ele>823.8000000000001</ele><time>2026-03-29T07:55:16Z</time></trkpt><trkpt lat="42.13159935702017" lon="12.936811823425895"><ele>822.2</ele><time>2026-03-29T07:55:18Z</time></trkpt><trkpt lat="42.13155097986883" lon="12.936877591063254"><ele>820.6</ele><time>2026-03-29T07:55:19Z</time></trkpt><trkpt lat="42.13162677841516" lon="12.937108701266949"><ele>819.0</ele><time>2026-03-29T07:55:20Z</time></trkpt><trkpt lat="42.13163107947382" lon="12.93723109557274"><ele>819.0</ele><time>2026-03-29T07:55:21Z</time></trkpt><trkpt lat="42.13162740893423" lon="12.937349537047961"><ele>819.0</ele><time>2026-03-29T07:55:22Z</time></trkpt><trkpt lat="42.13163992062556" lon="12.937447740744854"><ele>819.0</ele><time>2026-03-29T07:55:23Z</time></trkpt><trkpt lat="42.13164421064638" lon="12.937583162358356"><ele>819.0</ele><time>2026-03-29T07:55:25Z</time></trkpt><trkpt lat="42.13158114304286" lon="12.937612680121806"><ele>819.0</ele><time>2026-03-29T07:55:29Z</time></trkpt><trkpt lat="42.13162802639021" lon="12.937684123580029"><ele>819.0</ele><time>2026-03-29T07:59:14Z</time></trkpt><trkpt lat="42.13158974254395" lon="12.937605714627901"><ele>818.0</ele><time>2026-03-29T08:04:39.999Z</time></trkpt><trkpt lat="42.131536110404475" lon="12.937650607103569"><ele>817.0</ele><time>2026-03-29T08:15:52Z</time></trkpt><trkpt lat="42.131571722372215" lon="12.937577538831999"><ele>816.0</ele><time>2026-03-29T08:23:20.999Z</time></trkpt><trkpt lat="42.13153854514452" lon="12.937677689942456"><ele>815.0</ele><time>2026-03-29T08:28:26.999Z</time></trkpt><trkpt lat="42.13145861281615" lon="12.937685851516694"><ele>814.0</ele><time>2026-03-29T08:28:29.999Z</time></trkpt><trkpt lat="42.13138958118952" lon="12.937693346512471"><ele>813.0</ele><time>2026-03-29T08:28:31.999Z</time></trkpt><trkpt lat="42.131264331125266" lon="12.937692612056479"><ele>810.5999999999999</ele><time>2026-03-29T08:28:33.999Z</time></trkpt><trkpt lat="42.13118414213134" lon="12.937698064322655"><ele>808.1999999999999</ele><time>2026-03-29T08:28:34.999Z</time></trkpt><trkpt lat="42.13108989105973" lon="12.937703689836296"><ele>805.8</ele><time>2026-03-29T08:28:35.999Z</time></trkpt><trkpt lat="42.13098549907024" lon="12.937677181143838"><ele>803.4</ele><time>2026-03-29T08:28:36.999Z</time></trkpt><trkpt lat="42.1308828119665" lon="12.937676330298014"><ele>801.0</ele><time>2026-03-29T08:28:37.999Z</time></trkpt><trkpt lat="42.130779679293276" lon="12.937668682667853"><ele>800.5999999999999</ele><time>2026-03-29T08:28:38.999Z</time></trkpt><trkpt lat="42.13067834860955" lon="12.937650674444564"><ele>800.2</ele><time>2026-03-29T08:28:39.999Z</time></trkpt><trkpt lat="42.13058259107442" lon="12.937622168164832"><ele>799.8</ele><time>2026-03-29T08:28:40.999Z</time></trkpt><trkpt lat="42.13047956172415" lon="12.937581663017681"><ele>799.4000000000001</ele><time>2026-03-29T08:28:41.999Z</time></trkpt><trkpt lat="42.130381641960696" lon="12.937538549952324"><ele>799.0</ele><time>2026-03-29T08:28:42.999Z</time></trkpt><trkpt lat="42.130286287912604" lon="12.937503325454625"><ele>799.75</ele><time>2026-03-29T08:28:43.999Z</time></trkpt><trkpt lat="42.13018585500652" lon="12.937437833669941"><ele>800.5</ele><time>2026-03-29T08:28:44.999Z</time></trkpt><trkpt lat="42.13009046423863" lon="12.937353042430724"><ele>801.25</ele><time>2026-03-29T08:28:45.999Z</time></trkpt><trkpt lat="42.129989764697854" lon="12.937277997231325"><ele>802.0</ele><time>2026-03-29T08:28:46.999Z</time></trkpt><trkpt lat="42.12988425874324" lon="12.93719937009539"><ele>802.0</ele><time>2026-03-29T08:28:47.999Z</time></trkpt><trkpt lat="42.12976926849603" lon="12.937138919843319"><ele>802.0</ele><time>2026-03-29T08:28:48.999Z</time></trkpt><trkpt lat="42.12965984996293" lon="12.937052486851153"><ele>802.0</ele><time>2026-03-29T08:28:49.999Z</time></trkpt><trkpt lat="42.1295654400645" lon="12.93696445968471"><ele>802.0</ele><time>2026-03-29T08:28:50.999Z</time></trkpt><trkpt lat="42.12946955837582" lon="12.936862536421303"><ele>802.0</ele><time>2026-03-29T08:28:51.999Z</time></trkpt><trkpt lat="42.12937155156406" lon="12.936742302346763"><ele>802.0</ele><time>2026-03-29T08:28:52.999Z</time></trkpt><trkpt lat="42.12928935460184" lon="12.936622681596473"><ele>802.0</ele><time>2026-03-29T08:28:53.999Z</time></trkpt><trkpt lat="42.12921409913354" lon="12.936473850280402"><ele>802.0</ele><time>2026-03-29T08:28:54.999Z</time></trkpt><trkpt lat="42.12914437440192" lon="12.93633888439075"><ele>802.25</ele><time>2026-03-29T08:28:55.999Z</time></trkpt><trkpt lat="42.12906376921536" lon="12.936197822198478"><ele>802.5</ele><time>2026-03-29T08:28:56.999Z</time></trkpt><trkpt lat="42.12898924819862" lon="12.936060176043918"><ele>802.75</ele><time>2026-03-29T08:28:57.999Z</time></trkpt><trkpt lat="42.128919462778136" lon="12.935911979604949"><ele>803.0</ele><time>2026-03-29T08:28:58.999Z</time></trkpt><trkpt lat="42.128857972052074" lon="12.935769569804974"><ele>803.0</ele><time>2026-03-29T08:28:59.999Z</time></trkpt><trkpt lat="42.12880496074542" lon="12.935613855979877"><ele>803.0</ele><time>2026-03-29T08:29:00.999Z</time></trkpt><trkpt lat="42.12875990333945" lon="12.935453036063482"><ele>803.0</ele><time>2026-03-29T08:29:01.999Z</time></trkpt><trkpt lat="42.12872425167781" lon="12.935284153997317"><ele>803.0</ele><time>2026-03-29T08:29:02.999Z</time></trkpt><trkpt lat="42.128678449741294" lon="12.935137816530204"><ele>807.0</ele><time>2026-03-29T08:29:03.999Z</time></trkpt><trkpt lat="42.12861100748753" lon="12.935025322915477"><ele>811.0</ele><time>2026-03-29T08:29:04.999Z</time></trkpt><trkpt lat="42.128520504062394" lon="12.934939778740258"><ele>815.0</ele><time>2026-03-29T08:29:05.999Z</time></trkpt><trkpt lat="42.128411833877806" lon="12.934898051517914"><ele>819.0</ele><time>2026-03-29T08:29:06.999Z</time></trkpt><trkpt lat="42.128289891299666" lon="12.93487146878002"><ele>817.75</ele><time>2026-03-29T08:29:07.999Z</time></trkpt><trkpt lat="42.128158987101834" lon="12.934853442394889"><ele>816.5</ele><time>2026-03-29T08:29:08.999Z</time></trkpt><trkpt lat="42.12802155799462" lon="12.934842010246891"><ele>815.25</ele><time>2026-03-29T08:29:09.999Z</time></trkpt><trkpt lat="42.12788853674472" lon="12.934840143078159"><ele>814.0</ele><time>2026-03-29T08:29:10.999Z</time></trkpt><trkpt lat="42.12775980038859" lon="12.93483990531621"><ele>814.0</ele><time>2026-03-29T08:29:11.999Z</time></trkpt><trkpt lat="42.12762764588291" lon="12.934829001266989"><ele>814.0</ele><time>2026-03-29T08:29:12.999Z</time></trkpt><trkpt lat="42.12750238807713" lon="12.93480840930411"><ele>814.0</ele><time>2026-03-29T08:29:13.999Z</time></trkpt><trkpt lat="42.12739492841514" lon="12.934769944307565"><ele>814.0</ele><time>2026-03-29T08:29:14.999Z</time></trkpt><trkpt lat="42.12729817334943" lon="12.934698766302594"><ele>812.5</ele><time>2026-03-29T08:29:15.999Z</time></trkpt><trkpt lat="42.12722954696511" lon="12.934588623386004"><ele>811.0</ele><time>2026-03-29T08:29:16.999Z</time></trkpt><trkpt lat="42.12717437054907" lon="12.934432648124123"><ele>809.5</ele><time>2026-03-29T08:29:17.999Z</time></trkpt><trkpt lat="42.127128920730804" lon="12.934262224056566"><ele>808.0</ele><time>2026-03-29T08:29:18.999Z</time></trkpt><trkpt lat="42.12710886103842" lon="12.93407337503932"><ele>808.0</ele><time>2026-03-29T08:29:19.999Z</time></trkpt><trkpt lat="42.127098293842046" lon="12.933874080654032"><ele>808.0</ele><time>2026-03-29T08:29:20.999Z</time></trkpt><trkpt lat="42.12707003180602" lon="12.9336770105968"><ele>808.0</ele><time>2026-03-29T08:29:21.999Z</time></trkpt><trkpt lat="42.127016151507306" lon="12.933499604735037"><ele>808.0</ele><time>2026-03-29T08:29:22.999Z</time></trkpt><trkpt lat="42.12693147933925" lon="12.933375783404207"><ele>811.0</ele><time>2026-03-29T08:29:23.999Z</time></trkpt><trkpt lat="42.12682926304601" lon="12.933270855631063"><ele>814.0</ele><time>2026-03-29T08:29:24.999Z</time></trkpt><trkpt lat="42.1267222496173" lon="12.933174296541651"><ele>817.0</ele><time>2026-03-29T08:29:25.999Z</time></trkpt><trkpt lat="42.12664248376123" lon="12.933056819233327"><ele>820.0</ele><time>2026-03-29T08:29:26.999Z</time></trkpt><trkpt lat="42.1266219404731" lon="12.932927096240883"><ele>820.0</ele><time>2026-03-29T08:29:27.999Z</time></trkpt><trkpt lat="42.12666073006967" lon="12.932797053283752"><ele>820.0</ele><time>2026-03-29T08:29:28.999Z</time></trkpt><trkpt lat="42.1267100703424" lon="12.93264955710588"><ele>820.0</ele><time>2026-03-29T08:29:29.999Z</time></trkpt><trkpt lat="42.1267454182282" lon="12.932466458928532"><ele>820.0</ele><time>2026-03-29T08:29:30.999Z</time></trkpt><trkpt lat="42.12675055534789" lon="12.932267885152587"><ele>820.3333333333333</ele><time>2026-03-29T08:29:31.999Z</time></trkpt><trkpt lat="42.126720043704815" lon="12.932045957781598"><ele>820.6666666666667</ele><time>2026-03-29T08:29:32.999Z</time></trkpt><trkpt lat="42.12671854175665" lon="12.931842661844687"><ele>821.0</ele><time>2026-03-29T08:29:33.999Z</time></trkpt><trkpt lat="42.12675064928835" lon="12.931615558234812"><ele>821.0</ele><time>2026-03-29T08:29:34.999Z</time></trkpt><trkpt lat="42.12681483998906" lon="12.931406943914578"><ele>821.0</ele><time>2026-03-29T08:29:35.999Z</time></trkpt><trkpt lat="42.12687400179528" lon="12.931177606061151"><ele>821.0</ele><time>2026-03-29T08:29:36.999Z</time></trkpt><trkpt lat="42.12694000684043" lon="12.930935036942174"><ele>820.0</ele><time>2026-03-29T08:29:37.999Z</time></trkpt><trkpt lat="42.12700159542363" lon="12.930712298561666"><ele>819.0</ele><time>2026-03-29T08:29:38.999Z</time></trkpt><trkpt lat="42.1270467643025" lon="12.930511755099213"><ele>818.0</ele><time>2026-03-29T08:29:39.999Z</time></trkpt><trkpt lat="42.127068209238246" lon="12.930344668182641"><ele>818.0</ele><time>2026-03-29T08:29:40.999Z</time></trkpt><trkpt lat="42.12705472049083" lon="12.930208468163613"><ele>818.0</ele><time>2026-03-29T08:29:41.999Z</time></trkpt><trkpt lat="42.1270082351779" lon="12.930087455342958"><ele>818.0</ele><time>2026-03-29T08:29:42.999Z</time></trkpt><trkpt lat="42.126929739950846" lon="12.929987841927378"><ele>818.0</ele><time>2026-03-29T08:29:43.999Z</time></trkpt><trkpt lat="42.126829217613356" lon="12.929913384163745"><ele>818.0</ele><time>2026-03-29T08:29:44.999Z</time></trkpt><trkpt lat="42.12670666329755" lon="12.929861008469006"><ele>817.75</ele><time>2026-03-29T08:29:45.999Z</time></trkpt><trkpt lat="42.126567515839625" lon="12.929828359385784"><ele>817.5</ele><time>2026-03-29T08:29:46.999Z</time></trkpt><trkpt lat="42.12642516249714" lon="12.929797182450988"><ele>817.25</ele><time>2026-03-29T08:29:47.999Z</time></trkpt><trkpt lat="42.126290597483084" lon="12.92974356651619"><ele>817.0</ele><time>2026-03-29T08:29:48.999Z</time></trkpt><trkpt lat="42.126175872638505" lon="12.929662181128908"><ele>817.0</ele><time>2026-03-29T08:29:49.999Z</time></trkpt><trkpt lat="42.12609918946083" lon="12.92953996556598"><ele>817.0</ele><time>2026-03-29T08:29:50.999Z</time></trkpt><trkpt lat="42.12603302689187" lon="12.929377898369859"><ele>817.0</ele><time>2026-03-29T08:29:51.999Z</time></trkpt><trkpt lat="42.125966728057904" lon="12.929194426614544"><ele>817.0</ele><time>2026-03-29T08:29:52.999Z</time></trkpt><trkpt lat="42.125882063747575" lon="12.929031879365217"><ele>819.0</ele><time>2026-03-29T08:29:53.999Z</time></trkpt><trkpt lat="42.1257657780493" lon="12.928915883317329"><ele>821.0</ele><time>2026-03-29T08:29:54.999Z</time></trkpt><trkpt lat="42.12563049432316" lon="12.928842903200964"><ele>823.0</ele><time>2026-03-29T08:29:55.998Z</time></trkpt><trkpt lat="42.12548162067322" lon="12.92879932102686"><ele>825.0</ele><time>2026-03-29T08:29:57Z</time></trkpt><trkpt lat="42.12532642635129" lon="12.928776304166416"><ele>825.0</ele><time>2026-03-29T08:29:58Z</time></trkpt><trkpt lat="42.12516222598149" lon="12.928752645384986"><ele>825.0</ele><time>2026-03-29T08:29:59Z</time></trkpt><trkpt lat="42.125000706111905" lon="12.928702083855939"><ele>825.0</ele><time>2026-03-29T08:30:00Z</time></trkpt><trkpt lat="42.12485653045597" lon="12.928632124009866"><ele>825.0</ele><time>2026-03-29T08:30:01Z</time></trkpt><trkpt lat="42.12471533869248" lon="12.928562271383807"><ele>825.0</ele><time>2026-03-29T08:30:02Z</time></trkpt><trkpt lat="42.12459318203317" lon="12.928514352944125"><ele>825.0</ele><time>2026-03-29T08:30:03Z</time></trkpt><trkpt lat="42.12446543073196" lon="12.928472796016644"><ele>825.0</ele><time>2026-03-29T08:30:04Z</time></trkpt><trkpt lat="42.12433223526798" lon="12.928420261822223"><ele>826.5</ele><time>2026-03-29T08:30:05Z</time></trkpt><trkpt lat="42.124200216319366" lon="12.928364307238146"><ele>828.0</ele><time>2026-03-29T08:30:06Z</time></trkpt><trkpt lat="42.124088857556316" lon="12.928316469460263"><ele>829.5</ele><time>2026-03-29T08:30:07Z</time></trkpt><trkpt lat="42.12398592780021" lon="12.928264857307632"><ele>831.0</ele><time>2026-03-29T08:30:08Z</time></trkpt><trkpt lat="42.123888879036784" lon="12.928194386422001"><ele>833.0</ele><time>2026-03-29T08:30:09Z</time></trkpt><trkpt lat="42.12379844817965" lon="12.928148898551987"><ele>835.0</ele><time>2026-03-29T08:30:10Z</time></trkpt><trkpt lat="42.12372012966597" lon="12.928108682702222"><ele>837.0</ele><time>2026-03-29T08:30:11Z</time></trkpt><trkpt lat="42.12360352072631" lon="12.92816066547165"><ele>839.0</ele><time>2026-03-29T08:30:12Z</time></trkpt><trkpt lat="42.12350090406591" lon="12.928130764985317"><ele>841.0</ele><time>2026-03-29T08:30:13Z</time></trkpt><trkpt lat="42.123383371986634" lon="12.928101142193338"><ele>841.0</ele><time>2026-03-29T08:30:14Z</time></trkpt><trkpt lat="42.12327120256965" lon="12.928097777219783"><ele>841.0</ele><time>2026-03-29T08:30:15Z</time></trkpt><trkpt lat="42.123156999782374" lon="12.928121558445174"><ele>841.0</ele><time>2026-03-29T08:30:16Z</time></trkpt><trkpt lat="42.123057182941636" lon="12.928161523270347"><ele>841.0</ele><time>2026-03-29T08:30:17Z</time></trkpt><trkpt lat="42.12295939692447" lon="12.928210939840058"><ele>841.0</ele><time>2026-03-29T08:30:18Z</time></trkpt><trkpt lat="42.12287782909289" lon="12.928281554216852"><ele>844.4</ele><time>2026-03-29T08:30:19Z</time></trkpt><trkpt lat="42.122837437589446" lon="12.928389525644112"><ele>847.8</ele><time>2026-03-29T08:30:20Z</time></trkpt><trkpt lat="42.12281070267005" lon="12.928498031354536"><ele>851.1999999999999</ele><time>2026-03-29T08:30:21Z</time></trkpt><trkpt lat="42.122760431586165" lon="12.928614522785091"><ele>854.5999999999999</ele><time>2026-03-29T08:30:22Z</time></trkpt><trkpt lat="42.122738158640075" lon="12.928736032131694"><ele>858.0</ele><time>2026-03-29T08:30:23Z</time></trkpt><trkpt lat="42.12268876566252" lon="12.928841801268671"><ele>858.0</ele><time>2026-03-29T08:30:23.999Z</time></trkpt><trkpt lat="42.1226294203316" lon="12.928922266831625"><ele>858.0</ele><time>2026-03-29T08:30:24.999Z</time></trkpt><trkpt lat="42.122562172083505" lon="12.928978073605395"><ele>858.0</ele><time>2026-03-29T08:30:25.999Z</time></trkpt><trkpt lat="42.12246881550311" lon="12.929013478759163"><ele>858.0</ele><time>2026-03-29T08:30:26.999Z</time></trkpt><trkpt lat="42.12237153402163" lon="12.929012943183292"><ele>858.0</ele><time>2026-03-29T08:30:27.999Z</time></trkpt><trkpt lat="42.12227532591121" lon="12.929059655809041"><ele>857.5999999999999</ele><time>2026-03-29T08:30:28.999Z</time></trkpt><trkpt lat="42.12219498494843" lon="12.929098569938034"><ele>857.1999999999999</ele><time>2026-03-29T08:30:29.999Z</time></trkpt><trkpt lat="42.122051368912814" lon="12.929051879384481"><ele>856.8</ele><time>2026-03-29T08:30:31.999Z</time></trkpt><trkpt lat="42.122000245409446" lon="12.928950944646115"><ele>856.4</ele><time>2026-03-29T08:30:32.999Z</time></trkpt><trkpt lat="42.12193196983216" lon="12.928832665259252"><ele>856.0</ele><time>2026-03-29T08:30:33.999Z</time></trkpt><trkpt lat="42.121858623582995" lon="12.928690109562996"><ele>856.0</ele><time>2026-03-29T08:30:34.999Z</time></trkpt><trkpt lat="42.12179047257641" lon="12.928542869904122"><ele>856.0</ele><time>2026-03-29T08:30:35.999Z</time></trkpt><trkpt lat="42.121713548438905" lon="12.928419718563013"><ele>856.0</ele><time>2026-03-29T08:30:36.999Z</time></trkpt><trkpt lat="42.12167602460133" lon="12.928278375698076"><ele>856.0</ele><time>2026-03-29T08:30:37.999Z</time></trkpt><trkpt lat="42.12160501240016" lon="12.92819579386723"><ele>858.4</ele><time>2026-03-29T08:30:38.999Z</time></trkpt><trkpt lat="42.12154458848902" lon="12.92807133154568"><ele>860.8</ele><time>2026-03-29T08:30:39.999Z</time></trkpt><trkpt lat="42.12148902587002" lon="12.927979007127918"><ele>863.1999999999999</ele><time>2026-03-29T08:30:40.999Z</time></trkpt><trkpt lat="42.12142925003714" lon="12.927872958013971"><ele>865.5999999999999</ele><time>2026-03-29T08:30:41.999Z</time></trkpt><trkpt lat="42.121360436089255" lon="12.927759347969358"><ele>868.0</ele><time>2026-03-29T08:30:42.999Z</time></trkpt><trkpt lat="42.12128496456205" lon="12.927662265850733"><ele>868.0</ele><time>2026-03-29T08:30:43.999Z</time></trkpt><trkpt lat="42.121192956490255" lon="12.927602977989485"><ele>868.0</ele><time>2026-03-29T08:30:44.999Z</time></trkpt><trkpt lat="42.12108969826123" lon="12.927539448353677"><ele>868.0</ele><time>2026-03-29T08:30:45.999Z</time></trkpt><trkpt lat="42.12099219340899" lon="12.927502526088228"><ele>868.0</ele><time>2026-03-29T08:30:46.999Z</time></trkpt><trkpt lat="42.120913223756595" lon="12.927455336575827"><ele>868.0</ele><time>2026-03-29T08:30:47.999Z</time></trkpt><trkpt lat="42.12088283471245" lon="12.927380827906967"><ele>869.5999999999999</ele><time>2026-03-29T08:30:48.999Z</time></trkpt><trkpt lat="42.12087268192721" lon="12.927251316240904"><ele>871.1999999999999</ele><time>2026-03-29T08:30:50.999Z</time></trkpt><trkpt lat="42.1208764275502" lon="12.927139766147281"><ele>872.8</ele><time>2026-03-29T08:30:51.999Z</time></trkpt><trkpt lat="42.12086746150412" lon="12.927006255075753"><ele>874.4</ele><time>2026-03-29T08:30:52.999Z</time></trkpt><trkpt lat="42.1208744576352" lon="12.926855552701763"><ele>876.0</ele><time>2026-03-29T08:30:53.999Z</time></trkpt><trkpt lat="42.12088574328332" lon="12.926698352093794"><ele>876.6666666666666</ele><time>2026-03-29T08:30:54.999Z</time></trkpt><trkpt lat="42.12088805469844" lon="12.92658908602929"><ele>877.3333333333333</ele><time>2026-03-29T08:30:55.999Z</time></trkpt><trkpt lat="42.12088487778127" lon="12.926500510398727"><ele>878.0</ele><time>2026-03-29T08:30:57.999Z</time></trkpt><trkpt lat="42.12088791893313" lon="12.926405051568086"><ele>878.6666666666666</ele><time>2026-03-29T08:30:59.999Z</time></trkpt><trkpt lat="42.12089667784573" lon="12.926251578447069"><ele>879.3333333333333</ele><time>2026-03-29T08:31:01.999Z</time></trkpt><trkpt lat="42.12088670817209" lon="12.926159047011717"><ele>880.0</ele><time>2026-03-29T08:31:02.999Z</time></trkpt><trkpt lat="42.12084869988766" lon="12.926019978684549"><ele>880.4</ele><time>2026-03-29T08:31:03.999Z</time></trkpt><trkpt lat="42.12082211788855" lon="12.925865112224905"><ele>880.8</ele><time>2026-03-29T08:31:04.999Z</time></trkpt><trkpt lat="42.120801730613685" lon="12.925728902340307"><ele>881.2</ele><time>2026-03-29T08:31:05.999Z</time></trkpt><trkpt lat="42.12079582742722" lon="12.925591814561963"><ele>881.6</ele><time>2026-03-29T08:31:06.999Z</time></trkpt><trkpt lat="42.12075699295659" lon="12.925493405124222"><ele>882.0</ele><time>2026-03-29T08:31:07.999Z</time></trkpt><trkpt lat="42.120648390524764" lon="12.925427703954155"><ele>880.75</ele><time>2026-03-29T08:31:08.999Z</time></trkpt><trkpt lat="42.12054449633243" lon="12.925354569384034"><ele>879.5</ele><time>2026-03-29T08:31:09.999Z</time></trkpt><trkpt lat="42.120417301896474" lon="12.925304924347168"><ele>878.25</ele><time>2026-03-29T08:31:10.999Z</time></trkpt><trkpt lat="42.12029212945097" lon="12.925254430910197"><ele>877.0</ele><time>2026-03-29T08:31:11.999Z</time></trkpt><trkpt lat="42.120195522441904" lon="12.92517150764185"><ele>877.0</ele><time>2026-03-29T08:31:12.999Z</time></trkpt><trkpt lat="42.120086830418266" lon="12.925103211014019"><ele>877.0</ele><time>2026-03-29T08:31:13.999Z</time></trkpt><trkpt lat="42.11994224769296" lon="12.92503142462108"><ele>877.0</ele><time>2026-03-29T08:31:14.999Z</time></trkpt><trkpt lat="42.11982161373586" lon="12.924998360006235"><ele>877.0</ele><time>2026-03-29T08:31:15.999Z</time></trkpt><trkpt lat="42.11973406982597" lon="12.924996797717288"><ele>878.6</ele><time>2026-03-29T08:31:16.999Z</time></trkpt><trkpt lat="42.11966695973017" lon="12.92498046074711"><ele>880.2</ele><time>2026-03-29T08:31:17.999Z</time></trkpt><trkpt lat="42.119629954645895" lon="12.924888106314855"><ele>881.8</ele><time>2026-03-29T08:31:18.999Z</time></trkpt><trkpt lat="42.119563253319576" lon="12.924812833801802"><ele>883.4</ele><time>2026-03-29T08:31:19.999Z</time></trkpt><trkpt lat="42.11946345278585" lon="12.924756624994002"><ele>885.0</ele><time>2026-03-29T08:31:20.999Z</time></trkpt><trkpt lat="42.119359122982516" lon="12.924667844431353"><ele>885.0</ele><time>2026-03-29T08:31:21.999Z</time></trkpt><trkpt lat="42.119270178666234" lon="12.924548046018378"><ele>885.0</ele><time>2026-03-29T08:31:22.999Z</time></trkpt><trkpt lat="42.11920178930424" lon="12.924443996711139"><ele>885.0</ele><time>2026-03-29T08:31:23.999Z</time></trkpt><trkpt lat="42.11917365065942" lon="12.924358611161436"><ele>885.0</ele><time>2026-03-29T08:31:24.999Z</time></trkpt><trkpt lat="42.11914502349347" lon="12.924253876646045"><ele>885.0</ele><time>2026-03-29T08:31:25.999Z</time></trkpt><trkpt lat="42.11912418713767" lon="12.924106014171215"><ele>885.2</ele><time>2026-03-29T08:31:26.999Z</time></trkpt><trkpt lat="42.11911965090854" lon="12.923935139140859"><ele>885.4</ele><time>2026-03-29T08:31:27.999Z</time></trkpt><trkpt lat="42.11912701500748" lon="12.923816311215536"><ele>885.5999999999999</ele><time>2026-03-29T08:31:28.999Z</time></trkpt><trkpt lat="42.11915177507301" lon="12.923719855038053"><ele>885.8</ele><time>2026-03-29T08:31:30.999Z</time></trkpt><trkpt lat="42.11918308743676" lon="12.923569116965"><ele>886.0</ele><time>2026-03-29T08:31:33.999Z</time></trkpt><trkpt lat="42.11919223414004" lon="12.923459107686218"><ele>886.1999999999999</ele><time>2026-03-29T08:31:34.999Z</time></trkpt><trkpt lat="42.119230575652054" lon="12.923348991560514"><ele>886.3999999999999</ele><time>2026-03-29T08:31:35.999Z</time></trkpt><trkpt lat="42.11926564194569" lon="12.923224329073838"><ele>886.6</ele><time>2026-03-29T08:31:36.999Z</time></trkpt><trkpt lat="42.119292593822934" lon="12.923103243356783"><ele>886.8</ele><time>2026-03-29T08:31:37.999Z</time></trkpt><trkpt lat="42.119312881191476" lon="12.922980955073893"><ele>887.0</ele><time>2026-03-29T08:31:38.999Z</time></trkpt><trkpt lat="42.11930102840216" lon="12.92286711287157"><ele>887.0</ele><time>2026-03-29T08:31:39.999Z</time></trkpt><trkpt lat="42.11926692711031" lon="12.922734872721959"><ele>887.0</ele><time>2026-03-29T08:31:40.999Z</time></trkpt><trkpt lat="42.11919949223841" lon="12.922588429531112"><ele>887.0</ele><time>2026-03-29T08:31:41.999Z</time></trkpt><trkpt lat="42.11911616220379" lon="12.922483028208543"><ele>887.0</ele><time>2026-03-29T08:31:42.999Z</time></trkpt><trkpt lat="42.119045703898976" lon="12.92238608531216"><ele>887.0</ele><time>2026-03-29T08:31:43.999Z</time></trkpt><trkpt lat="42.11892813590214" lon="12.92233822404112"><ele>888.5</ele><time>2026-03-29T08:31:44.999Z</time></trkpt><trkpt lat="42.11881326051917" lon="12.922268681184002"><ele>890.0</ele><time>2026-03-29T08:31:45.999Z</time></trkpt><trkpt lat="42.118696958179065" lon="12.922240135043506"><ele>891.5</ele><time>2026-03-29T08:31:46.999Z</time></trkpt><trkpt lat="42.118598708157656" lon="12.922177830468506"><ele>893.0</ele><time>2026-03-29T08:31:47.999Z</time></trkpt><trkpt lat="42.11849619804083" lon="12.922153218027752"><ele>893.0</ele><time>2026-03-29T08:31:48.999Z</time></trkpt><trkpt lat="42.11839085426136" lon="12.922115932537189"><ele>893.0</ele><time>2026-03-29T08:31:49.999Z</time></trkpt><trkpt lat="42.11827220552168" lon="12.922085766276323"><ele>893.0</ele><time>2026-03-29T08:31:50.999Z</time></trkpt><trkpt lat="42.11815995226958" lon="12.922031030925492"><ele>893.0</ele><time>2026-03-29T08:31:51.999Z</time></trkpt><trkpt lat="42.11805988221301" lon="12.921997800555191"><ele>893.25</ele><time>2026-03-29T08:31:52.999Z</time></trkpt><trkpt lat="42.117966164281555" lon="12.921966969674838"><ele>893.5</ele><time>2026-03-29T08:31:53.999Z</time></trkpt><trkpt lat="42.11786643029855" lon="12.921886099162094"><ele>893.75</ele><time>2026-03-29T08:31:54.999Z</time></trkpt><trkpt lat="42.117759080239935" lon="12.921813783436846"><ele>894.0</ele><time>2026-03-29T08:31:55.999Z</time></trkpt><trkpt lat="42.117649375166714" lon="12.921711099514395"><ele>894.0</ele><time>2026-03-29T08:31:56.999Z</time></trkpt><trkpt lat="42.11752646511746" lon="12.92160497639385"><ele>894.0</ele><time>2026-03-29T08:31:57.999Z</time></trkpt><trkpt lat="42.11739372682535" lon="12.92166371028128"><ele>894.0</ele><time>2026-03-29T08:31:58.999Z</time></trkpt><trkpt lat="42.117311938104876" lon="12.921606596385704"><ele>894.0</ele><time>2026-03-29T08:31:59.999Z</time></trkpt><trkpt lat="42.1171817523437" lon="12.921553955752868"><ele>893.5</ele><time>2026-03-29T08:32:01.999Z</time></trkpt><trkpt lat="42.11710155703153" lon="12.921521192613632"><ele>893.0</ele><time>2026-03-29T08:32:03Z</time></trkpt><trkpt lat="42.116995752792484" lon="12.921486866811113"><ele>892.5</ele><time>2026-03-29T08:32:04Z</time></trkpt><trkpt lat="42.116924974410196" lon="12.921480964583742"><ele>892.0</ele><time>2026-03-29T08:32:05Z</time></trkpt><trkpt lat="42.11683330188681" lon="12.921486630585262"><ele>891.5</ele><time>2026-03-29T08:32:06Z</time></trkpt><trkpt lat="42.1167505043283" lon="12.921504453100848"><ele>891.0</ele><time>2026-03-29T08:32:07Z</time></trkpt><trkpt lat="42.11666464936553" lon="12.92153028521042"><ele>891.0</ele><time>2026-03-29T08:32:08Z</time></trkpt><trkpt lat="42.11659157637103" lon="12.921536159733916"><ele>891.0</ele><time>2026-03-29T08:32:09Z</time></trkpt><trkpt lat="42.11651771738606" lon="12.921521231878032"><ele>891.0</ele><time>2026-03-29T08:32:11Z</time></trkpt><trkpt lat="42.11642077961837" lon="12.920856055289285"><ele>893.0</ele><time>2026-03-29T08:32:23Z</time></trkpt><trkpt lat="42.11635771545742" lon="12.920862338710515"><ele>895.0</ele><time>2026-03-29T08:32:29.999Z</time></trkpt><trkpt lat="42.11627244679488" lon="12.920881581034433"><ele>897.0</ele><time>2026-03-29T08:35:19.999Z</time></trkpt><trkpt lat="42.116191285208494" lon="12.920884384473016"><ele>899.0</ele><time>2026-03-29T08:35:21.999Z</time></trkpt><trkpt lat="42.116075888007224" lon="12.920880835408573"><ele>901.0</ele><time>2026-03-29T08:35:23.999Z</time></trkpt><trkpt lat="42.115994682141725" lon="12.920857226266223"><ele>903.0</ele><time>2026-03-29T08:35:24.999Z</time></trkpt><trkpt lat="42.115909677649896" lon="12.920823812253959"><ele>903.0</ele><time>2026-03-29T08:35:25.999Z</time></trkpt><trkpt lat="42.115840802038036" lon="12.920823294908049"><ele>903.0</ele><time>2026-03-29T08:35:26.999Z</time></trkpt><trkpt lat="42.11578479404533" lon="12.920863492700962"><ele>903.0</ele><time>2026-03-29T08:35:27.999Z</time></trkpt><trkpt lat="42.115694872641015" lon="12.920924731699552"><ele>903.0</ele><time>2026-03-29T08:35:29.999Z</time></trkpt><trkpt lat="42.115623002714806" lon="12.920976575201006"><ele>903.0</ele><time>2026-03-29T08:35:30.999Z</time></trkpt><trkpt lat="42.1155544968766" lon="12.921019139075147"><ele>903.0</ele><time>2026-03-29T08:35:31.999Z</time></trkpt><trkpt lat="42.11547869916614" lon="12.921065802061447"><ele>904.4</ele><time>2026-03-29T08:35:32.999Z</time></trkpt><trkpt lat="42.11541053973426" lon="12.92110289273686"><ele>905.8</ele><time>2026-03-29T08:35:33.999Z</time></trkpt><trkpt lat="42.11529017962908" lon="12.921133387481033"><ele>907.2</ele><time>2026-03-29T08:35:35.999Z</time></trkpt><trkpt lat="42.11519579133631" lon="12.921091419178085"><ele>908.6</ele><time>2026-03-29T08:35:36.999Z</time></trkpt><trkpt lat="42.11510426836922" lon="12.921070821718375"><ele>910.0</ele><time>2026-03-29T08:35:37.999Z</time></trkpt><trkpt lat="42.11503085892975" lon="12.921071317739163"><ele>910.0</ele><time>2026-03-29T08:35:38.999Z</time></trkpt><trkpt lat="42.1149446510623" lon="12.921085412235024"><ele>910.0</ele><time>2026-03-29T08:35:39.999Z</time></trkpt><trkpt lat="42.11485379346666" lon="12.92109337890905"><ele>910.0</ele><time>2026-03-29T08:35:40.999Z</time></trkpt><trkpt lat="42.11474863398485" lon="12.921096418942415"><ele>910.0</ele><time>2026-03-29T08:35:41.999Z</time></trkpt><trkpt lat="42.11464434753508" lon="12.921087779550483"><ele>910.0</ele><time>2026-03-29T08:35:42.999Z</time></trkpt><trkpt lat="42.11454020625056" lon="12.921073919204135"><ele>913.2</ele><time>2026-03-29T08:35:43.999Z</time></trkpt><trkpt lat="42.11443420690379" lon="12.921063718467376"><ele>916.4</ele><time>2026-03-29T08:35:44.999Z</time></trkpt><trkpt lat="42.11432242136619" lon="12.921041076990058"><ele>919.5999999999999</ele><time>2026-03-29T08:35:45.999Z</time></trkpt><trkpt lat="42.11423275413819" lon="12.921014616778763"><ele>922.8</ele><time>2026-03-29T08:35:46.999Z</time></trkpt><trkpt lat="42.11414886459634" lon="12.920986401375947"><ele>926.0</ele><time>2026-03-29T08:35:47.999Z</time></trkpt><trkpt lat="42.11406603629514" lon="12.920970753074162"><ele>928.0</ele><time>2026-03-29T08:35:48.999Z</time></trkpt><trkpt lat="42.11396031060347" lon="12.920959209817017"><ele>929.9999999999999</ele><time>2026-03-29T08:35:49.999Z</time></trkpt><trkpt lat="42.113848409380644" lon="12.920932246221437"><ele>931.9999999999999</ele><time>2026-03-29T08:35:50.999Z</time></trkpt><trkpt lat="42.11376419124028" lon="12.92090397103283"><ele>934.0</ele><time>2026-03-29T08:35:51.999Z</time></trkpt><trkpt lat="42.11367371592864" lon="12.920883378817631"><ele>936.0</ele><time>2026-03-29T08:35:52.999Z</time></trkpt><trkpt lat="42.11358421138605" lon="12.920888557978211"><ele>936.0</ele><time>2026-03-29T08:35:53.999Z</time></trkpt><trkpt lat="42.11347093781533" lon="12.920904757546262"><ele>935.9999999999999</ele><time>2026-03-29T08:35:54.999Z</time></trkpt><trkpt lat="42.113362101364544" lon="12.920912028647429"><ele>935.9999999999999</ele><time>2026-03-29T08:35:55.999Z</time></trkpt><trkpt lat="42.11329367975086" lon="12.920929090416186"><ele>936.0</ele><time>2026-03-29T08:35:56.999Z</time></trkpt><trkpt lat="42.113245397955104" lon="12.921008081620878"><ele>936.0</ele><time>2026-03-29T08:35:58.999Z</time></trkpt><trkpt lat="42.11330796022446" lon="12.921110813027825"><ele>936.0</ele><time>2026-03-29T08:36:00.999Z</time></trkpt><trkpt lat="42.113370329926504" lon="12.921230750637967"><ele>936.0</ele><time>2026-03-29T08:36:02.998Z</time></trkpt><trkpt lat="42.11339919311404" lon="12.921327633761816"><ele>936.0</ele><time>2026-03-29T08:36:03.998Z</time></trkpt><trkpt lat="42.11343588102877" lon="12.921425453652583"><ele>936.0</ele><time>2026-03-29T08:36:04.998Z</time></trkpt><trkpt lat="42.11349467515327" lon="12.921495779710947"><ele>936.0</ele><time>2026-03-29T08:36:05.998Z</time></trkpt><trkpt lat="42.113577656338336" lon="12.921533761827515"><ele>936.0</ele><time>2026-03-29T08:36:06.998Z</time></trkpt><trkpt lat="42.11366085656624" lon="12.921548947132338"><ele>936.0</ele><time>2026-03-29T08:36:07.998Z</time></trkpt><trkpt lat="42.11377452129365" lon="12.921615535940369"><ele>935.9999999999999</ele><time>2026-03-29T08:36:09.998Z</time></trkpt><trkpt lat="42.113779126574094" lon="12.921731671845263"><ele>935.9999999999999</ele><time>2026-03-29T08:36:11.998Z</time></trkpt><trkpt lat="42.11373132572003" lon="12.921853372955376"><ele>936.0</ele><time>2026-03-29T08:36:13.999Z</time></trkpt><trkpt lat="42.11374451162602" lon="12.921989715704477"><ele>936.0</ele><time>2026-03-29T08:36:15.999Z</time></trkpt><trkpt lat="42.113733213494314" lon="12.92208817203549"><ele>939.0</ele><time>2026-03-29T08:36:17.999Z</time></trkpt><trkpt lat="42.113629973560286" lon="12.922192632615308"><ele>941.9999999999999</ele><time>2026-03-29T08:36:20.999Z</time></trkpt><trkpt lat="42.11352357091769" lon="12.92221407027254"><ele>944.9999999999999</ele><time>2026-03-29T08:36:22.999Z</time></trkpt><trkpt lat="42.11347346423003" lon="12.92231197338956"><ele>948.0</ele><time>2026-03-29T08:36:24.999Z</time></trkpt><trkpt lat="42.113440672032205" lon="12.922463906616379"><ele>951.0</ele><time>2026-03-29T08:36:26.999Z</time></trkpt><trkpt lat="42.11341382132861" lon="12.922548639535941"><ele>951.0</ele><time>2026-03-29T08:36:27.999Z</time></trkpt><trkpt lat="42.11332140729535" lon="12.922578550433412"><ele>950.9999999999999</ele><time>2026-03-29T08:36:29.999Z</time></trkpt><trkpt lat="42.11320335390741" lon="12.922542284786948"><ele>950.9999999999999</ele><time>2026-03-29T08:36:31.999Z</time></trkpt><trkpt lat="42.11312561474776" lon="12.922537140470991"><ele>951.0</ele><time>2026-03-29T08:36:32.999Z</time></trkpt><trkpt lat="42.11303329484888" lon="12.922570511898604"><ele>951.0</ele><time>2026-03-29T08:36:34.999Z</time></trkpt><trkpt lat="42.11291112759036" lon="12.922675437948035"><ele>950.8</ele><time>2026-03-29T08:36:40.999Z</time></trkpt><trkpt lat="42.11280369560646" lon="12.922750164994975"><ele>950.5999999999999</ele><time>2026-03-29T08:36:42.999Z</time></trkpt><trkpt lat="42.11272062830438" lon="12.922788850340051"><ele>950.4</ele><time>2026-03-29T08:36:43.999Z</time></trkpt><trkpt lat="42.11264622547918" lon="12.92282595445474"><ele>950.2</ele><time>2026-03-29T08:36:44.999Z</time></trkpt><trkpt lat="42.11256320095202" lon="12.92287248999504"><ele>950.0</ele><time>2026-03-29T08:36:45.999Z</time></trkpt><trkpt lat="42.11247708845391" lon="12.922932746070039"><ele>950.0000000000001</ele><time>2026-03-29T08:36:46.999Z</time></trkpt><trkpt lat="42.11241759087527" lon="12.923001479222153"><ele>950.0</ele><time>2026-03-29T08:36:47.999Z</time></trkpt><trkpt lat="42.11237665866412" lon="12.923072677754831"><ele>950.0</ele><time>2026-03-29T08:36:48.999Z</time></trkpt><trkpt lat="42.11233159298032" lon="12.923160801128935"><ele>950.0</ele><time>2026-03-29T08:36:49.999Z</time></trkpt><trkpt lat="42.112265915951625" lon="12.923252529990677"><ele>950.0000000000001</ele><time>2026-03-29T08:36:50.999Z</time></trkpt><trkpt lat="42.112197187953704" lon="12.923332011217632"><ele>950.0</ele><time>2026-03-29T08:36:51.999Z</time></trkpt><trkpt lat="42.1121208841103" lon="12.923422292227432"><ele>951.3333333333334</ele><time>2026-03-29T08:36:52.999Z</time></trkpt><trkpt lat="42.11206084207455" lon="12.923524019538608"><ele>952.6666666666667</ele><time>2026-03-29T08:36:53.999Z</time></trkpt><trkpt lat="42.112006025255404" lon="12.923593852610578"><ele>954.0</ele><time>2026-03-29T08:36:54.999Z</time></trkpt><trkpt lat="42.11196326503989" lon="12.923657233983837"><ele>955.3333333333333</ele><time>2026-03-29T08:36:55.999Z</time></trkpt><trkpt lat="42.11193324133549" lon="12.923736572627503"><ele>956.6666666666666</ele><time>2026-03-29T08:36:56.999Z</time></trkpt><trkpt lat="42.111879218581194" lon="12.92387909794283"><ele>958.0</ele><time>2026-03-29T08:36:58.999Z</time></trkpt><trkpt lat="42.11181425621614" lon="12.923910989436797"><ele>958.0</ele><time>2026-03-29T08:36:59.999Z</time></trkpt><trkpt lat="42.11174885984073" lon="12.923938182677343"><ele>958.0</ele><time>2026-03-29T08:37:00.999Z</time></trkpt><trkpt lat="42.111686078999035" lon="12.923966238556499"><ele>958.0</ele><time>2026-03-29T08:37:01.999Z</time></trkpt><trkpt lat="42.111565968441525" lon="12.924017813758853"><ele>958.0</ele><time>2026-03-29T08:37:03.999Z</time></trkpt><trkpt lat="42.11146653384224" lon="12.92407819690312"><ele>958.0</ele><time>2026-03-29T08:37:05.999Z</time></trkpt><trkpt lat="42.11135965976508" lon="12.924148974099795"><ele>957.5999999999999</ele><time>2026-03-29T08:37:07.999Z</time></trkpt><trkpt lat="42.111256274167104" lon="12.924216528706099"><ele>957.1999999999999</ele><time>2026-03-29T08:37:09.999Z</time></trkpt><trkpt lat="42.11120553260465" lon="12.924268050351692"><ele>956.8</ele><time>2026-03-29T08:37:10.999Z</time></trkpt><trkpt lat="42.11112261101434" lon="12.92433562266474"><ele>956.4</ele><time>2026-03-29T08:37:12.999Z</time></trkpt><trkpt lat="42.11104105245651" lon="12.924390470666784"><ele>956.0</ele><time>2026-03-29T08:37:14.999Z</time></trkpt><trkpt lat="42.11095064313048" lon="12.924462782048968"><ele>956.0</ele><time>2026-03-29T08:37:16.999Z</time></trkpt><trkpt lat="42.11087821871687" lon="12.924562143660415"><ele>955.9999999999999</ele><time>2026-03-29T08:37:18.999Z</time></trkpt><trkpt lat="42.11084814288857" lon="12.924666654146561"><ele>955.9999999999999</ele><time>2026-03-29T08:37:20.999Z</time></trkpt><trkpt lat="42.11083984286357" lon="12.92479815743324"><ele>956.0</ele><time>2026-03-29T08:37:22.999Z</time></trkpt><trkpt lat="42.11089417636321" lon="12.92486739005848"><ele>956.0</ele><time>2026-03-29T08:37:25.999Z</time></trkpt><trkpt lat="42.11095641181246" lon="12.924977065355577"><ele>955.6666666666667</ele><time>2026-03-29T08:37:27.999Z</time></trkpt><trkpt lat="42.110970973644264" lon="12.925067779616867"><ele>955.3333333333334</ele><time>2026-03-29T08:37:28.999Z</time></trkpt><trkpt lat="42.110987628392046" lon="12.925159002994054"><ele>955.0</ele><time>2026-03-29T08:37:29.999Z</time></trkpt><trkpt lat="42.11099795523449" lon="12.925311335776243"><ele>954.6666666666667</ele><time>2026-03-29T08:37:31.999Z</time></trkpt><trkpt lat="42.11094288273335" lon="12.925382977489402"><ele>954.3333333333334</ele><time>2026-03-29T08:37:34.999Z</time></trkpt><trkpt lat="42.11087747427993" lon="12.92542342393312"><ele>954.0</ele><time>2026-03-29T08:37:37.999Z</time></trkpt><trkpt lat="42.11085549288349" lon="12.925515233801926"><ele>954.0</ele><time>2026-03-29T08:37:39.999Z</time></trkpt><trkpt lat="42.11083743694394" lon="12.925605145544555"><ele>954.0000000000001</ele><time>2026-03-29T08:37:40.999Z</time></trkpt><trkpt lat="42.11084360319509" lon="12.925771799365197"><ele>954.0000000000001</ele><time>2026-03-29T08:37:42.999Z</time></trkpt><trkpt lat="42.110823914825346" lon="12.925872283612033"><ele>954.0</ele><time>2026-03-29T08:37:44.999Z</time></trkpt><trkpt lat="42.11075483701816" lon="12.925944974554803"><ele>954.0</ele><time>2026-03-29T08:37:46.999Z</time></trkpt><trkpt lat="42.110651422329504" lon="12.926011658403764"><ele>950.4000000000001</ele><time>2026-03-29T08:37:48.999Z</time></trkpt><trkpt lat="42.110588541255254" lon="12.92603360565831"><ele>946.8000000000001</ele><time>2026-03-29T08:37:49.999Z</time></trkpt><trkpt lat="42.11051596102436" lon="12.926073299515508"><ele>943.1999999999999</ele><time>2026-03-29T08:37:50.999Z</time></trkpt><trkpt lat="42.11041165470954" lon="12.926146849747134"><ele>939.5999999999999</ele><time>2026-03-29T08:37:52.999Z</time></trkpt><trkpt lat="42.110338640120325" lon="12.926282143881458"><ele>936.0</ele><time>2026-03-29T08:37:54.999Z</time></trkpt><trkpt lat="42.11030460795022" lon="12.926376467678162"><ele>936.0</ele><time>2026-03-29T08:37:55.999Z</time></trkpt><trkpt lat="42.11028071324741" lon="12.926545706857802"><ele>935.9999999999999</ele><time>2026-03-29T08:37:57.999Z</time></trkpt><trkpt lat="42.11029702000619" lon="12.926662971475256"><ele>935.9999999999999</ele><time>2026-03-29T08:37:58.999Z</time></trkpt><trkpt lat="42.110325642994425" lon="12.926766223517768"><ele>936.0</ele><time>2026-03-29T08:37:59.999Z</time></trkpt><trkpt lat="42.11035339918096" lon="12.926918662927228"><ele>936.0</ele><time>2026-03-29T08:38:01.999Z</time></trkpt><trkpt lat="42.1103295970776" lon="12.927045735584143"><ele>936.8333333333334</ele><time>2026-03-29T08:38:03.999Z</time></trkpt><trkpt lat="42.11031940959621" lon="12.927188913148294"><ele>937.6666666666667</ele><time>2026-03-29T08:38:05.999Z</time></trkpt><trkpt lat="42.11030268184467" lon="12.92727570750268"><ele>938.5</ele><time>2026-03-29T08:38:07.998Z</time></trkpt><trkpt lat="42.11029980280541" lon="12.927377317647904"><ele>939.3333333333334</ele><time>2026-03-29T08:38:10.998Z</time></trkpt><trkpt lat="42.11028680309224" lon="12.927461029982606"><ele>940.1666666666667</ele><time>2026-03-29T08:38:19.999Z</time></trkpt><trkpt lat="42.110278154745146" lon="12.92761604101066"><ele>941.0</ele><time>2026-03-29T08:38:35Z</time></trkpt><trkpt lat="42.110256123243396" lon="12.92773882835289"><ele>942.5714285714284</ele><time>2026-03-29T08:38:37Z</time></trkpt><trkpt lat="42.110215494559" lon="12.927834688761546"><ele>944.1428571428571</ele><time>2026-03-29T08:38:39Z</time></trkpt><trkpt lat="42.11016178972396" lon="12.927923842258833"><ele>945.7142857142857</ele><time>2026-03-29T08:38:41Z</time></trkpt><trkpt lat="42.11010896677106" lon="12.927970939094946"><ele>947.2857142857142</ele><time>2026-03-29T08:38:47Z</time></trkpt><trkpt lat="42.110059970611005" lon="12.928042589979917"><ele>948.8571428571429</ele><time>2026-03-29T08:38:53Z</time></trkpt><trkpt lat="42.110015198067636" lon="12.928113280431631"><ele>950.4285714285714</ele><time>2026-03-29T08:39:08.999Z</time></trkpt><trkpt lat="42.10996072318983" lon="12.928182027367459"><ele>952.0</ele><time>2026-03-29T08:39:15.999Z</time></trkpt><trkpt lat="42.10989768895598" lon="12.928236948579755"><ele>952.3333333333333</ele><time>2026-03-29T08:39:19.999Z</time></trkpt><trkpt lat="42.1098346367107" lon="12.928277247518324"><ele>952.6666666666666</ele><time>2026-03-29T08:39:21.999Z</time></trkpt><trkpt lat="42.109770438221" lon="12.92835678366957"><ele>953.0</ele><time>2026-03-29T08:39:26.999Z</time></trkpt><trkpt lat="42.109712295446876" lon="12.9284471412553"><ele>953.3333333333333</ele><time>2026-03-29T08:39:29.999Z</time></trkpt><trkpt lat="42.10965891816318" lon="12.928506419843552"><ele>953.6666666666666</ele><time>2026-03-29T08:39:31.999Z</time></trkpt><trkpt lat="42.109610035678564" lon="12.928567659460567"><ele>954.0</ele><time>2026-03-29T08:39:33.999Z</time></trkpt><trkpt lat="42.109517731820304" lon="12.928634672252125"><ele>956.6666666666666</ele><time>2026-03-29T08:39:36.999Z</time></trkpt><trkpt lat="42.109478557803016" lon="12.928712277993773"><ele>959.3333333333333</ele><time>2026-03-29T08:39:39.999Z</time></trkpt><trkpt lat="42.10940186577563" lon="12.92882387491315"><ele>962.0</ele><time>2026-03-29T08:40:10.999Z</time></trkpt><trkpt lat="42.10933352540989" lon="12.92884684759081"><ele>964.6666666666666</ele><time>2026-03-29T08:43:18Z</time></trkpt><trkpt lat="42.10926832783559" lon="12.928912745629"><ele>967.3333333333333</ele><time>2026-03-29T08:43:21Z</time></trkpt><trkpt lat="42.10922521364194" lon="12.9289984924834"><ele>970.0</ele><time>2026-03-29T08:43:24Z</time></trkpt><trkpt lat="42.10917930565542" lon="12.929088407482778"><ele>970.0000000000001</ele><time>2026-03-29T08:43:27Z</time></trkpt><trkpt lat="42.10914725215088" lon="12.92916555318697"><ele>970.0</ele><time>2026-03-29T08:43:30Z</time></trkpt><trkpt lat="42.10911966540998" lon="12.929255792280946"><ele>970.0000000000001</ele><time>2026-03-29T08:44:02Z</time></trkpt><trkpt lat="42.109108892732415" lon="12.929341467508788"><ele>970.0000000000001</ele><time>2026-03-29T08:45:02Z</time></trkpt><trkpt lat="42.10906162359582" lon="12.929437911506657"><ele>970.0</ele><time>2026-03-29T08:45:49Z</time></trkpt><trkpt lat="42.10902478974681" lon="12.929518162954412"><ele>970.0000000000001</ele><time>2026-03-29T08:45:58Z</time></trkpt><trkpt lat="42.109003555645955" lon="12.929611791767126"><ele>970.0000000000001</ele><time>2026-03-29T08:46:01Z</time></trkpt><trkpt lat="42.108968876593735" lon="12.929702661228962"><ele>972.3333333333333</ele><time>2026-03-29T08:46:05Z</time></trkpt><trkpt lat="42.10893381855365" lon="12.929803210015525"><ele>974.6666666666666</ele><time>2026-03-29T08:46:21Z</time></trkpt><trkpt lat="42.108869258167246" lon="12.929807472977451"><ele>977.0</ele><time>2026-03-29T08:47:33Z</time></trkpt><trkpt lat="42.108806009390655" lon="12.929847418147713"><ele>979.3333333333333</ele><time>2026-03-29T08:48:48.999Z</time></trkpt><trkpt lat="42.108719188309145" lon="12.929927166795627"><ele>981.6666666666666</ele><time>2026-03-29T08:49:03Z</time></trkpt><trkpt lat="42.10864503529397" lon="12.929952242383548"><ele>984.0</ele><time>2026-03-29T08:49:08Z</time></trkpt><trkpt lat="42.10856367508177" lon="12.92995407604927"><ele>984.0</ele><time>2026-03-29T08:49:10Z</time></trkpt><trkpt lat="42.10849081220821" lon="12.930001282710736"><ele>984.0</ele><time>2026-03-29T08:49:12Z</time></trkpt><trkpt lat="42.108432470292136" lon="12.930045897031638"><ele>984.0</ele><time>2026-03-29T08:49:13Z</time></trkpt><trkpt lat="42.108348986798305" lon="12.9300771358874"><ele>984.0</ele><time>2026-03-29T08:49:15Z</time></trkpt><trkpt lat="42.108267953492565" lon="12.930121362900918"><ele>984.0</ele><time>2026-03-29T08:49:20Z</time></trkpt><trkpt lat="42.10822335332349" lon="12.930184880398004"><ele>984.0</ele><time>2026-03-29T08:49:23Z</time></trkpt><trkpt lat="42.10814390754241" lon="12.930241142462279"><ele>985.5714285714287</ele><time>2026-03-29T08:49:30Z</time></trkpt><trkpt lat="42.10806937706527" lon="12.930262278894514"><ele>987.1428571428571</ele><time>2026-03-29T08:49:32Z</time></trkpt><trkpt lat="42.107991746951356" lon="12.930316754362359"><ele>988.7142857142858</ele><time>2026-03-29T08:49:34Z</time></trkpt><trkpt lat="42.10796579724862" lon="12.930403775682539"><ele>990.2857142857143</ele><time>2026-03-29T08:49:38Z</time></trkpt><trkpt lat="42.1078986070595" lon="12.930449720912165"><ele>991.8571428571429</ele><time>2026-03-29T08:49:42Z</time></trkpt><trkpt lat="42.10784795674971" lon="12.930500256868065"><ele>993.4285714285714</ele><time>2026-03-29T08:49:45Z</time></trkpt><trkpt lat="42.10777077489057" lon="12.930509728644338"><ele>995.0</ele><time>2026-03-29T08:49:48Z</time></trkpt><trkpt lat="42.10771593695343" lon="12.93056533937416"><ele>995.0</ele><time>2026-03-29T08:49:51Z</time></trkpt><trkpt lat="42.10764370825415" lon="12.930616843626131"><ele>995.0</ele><time>2026-03-29T08:49:55Z</time></trkpt><trkpt lat="42.10757682862986" lon="12.930655696659217"><ele>995.0</ele><time>2026-03-29T08:50:01Z</time></trkpt><trkpt lat="42.10751221091218" lon="12.930697522440875"><ele>995.0</ele><time>2026-03-29T08:50:12Z</time></trkpt><trkpt lat="42.10747043351527" lon="12.930771699015171"><ele>995.0</ele><time>2026-03-29T08:50:23Z</time></trkpt><trkpt lat="42.107402705947194" lon="12.930828068650364"><ele>995.0</ele><time>2026-03-29T08:50:27Z</time></trkpt><trkpt lat="42.10736033698976" lon="12.930892250551816"><ele>995.0</ele><time>2026-03-29T08:50:30Z</time></trkpt><trkpt lat="42.10731107380405" lon="12.930955844174195"><ele>995.6666666666667</ele><time>2026-03-29T08:50:32.999Z</time></trkpt><trkpt lat="42.107254923742644" lon="12.931032731461535"><ele>996.3333333333334</ele><time>2026-03-29T08:50:34.999Z</time></trkpt><trkpt lat="42.10720806171692" lon="12.931119016329372"><ele>997.0</ele><time>2026-03-29T08:50:37.999Z</time></trkpt><trkpt lat="42.10715387912939" lon="12.931208335453919"><ele>997.6666666666667</ele><time>2026-03-29T08:50:41.999Z</time></trkpt><trkpt lat="42.10709447198631" lon="12.931303654569001"><ele>998.3333333333334</ele><time>2026-03-29T08:50:46.999Z</time></trkpt><trkpt lat="42.10703963315178" lon="12.931369004013987"><ele>999.0</ele><time>2026-03-29T08:50:49.999Z</time></trkpt><trkpt lat="42.10695295714675" lon="12.931439201250972"><ele>999.0</ele><time>2026-03-29T08:50:51.999Z</time></trkpt><trkpt lat="42.106906188764086" lon="12.931499692098642"><ele>999.0</ele><time>2026-03-29T08:50:53.999Z</time></trkpt><trkpt lat="42.10685410504299" lon="12.931550914066852"><ele>999.0</ele><time>2026-03-29T08:50:56Z</time></trkpt><trkpt lat="42.10676622676433" lon="12.931588974145518"><ele>999.0</ele><time>2026-03-29T08:50:58Z</time></trkpt><trkpt lat="42.106675000995736" lon="12.931645510948048"><ele>999.0</ele><time>2026-03-29T08:51:00Z</time></trkpt><trkpt lat="42.10662252783531" lon="12.931696029497145"><ele>999.0</ele><time>2026-03-29T08:51:02Z</time></trkpt><trkpt lat="42.10657036047673" lon="12.931760006069691"><ele>998.5714285714287</ele><time>2026-03-29T08:51:05Z</time></trkpt><trkpt lat="42.10652746959665" lon="12.931847050954671"><ele>998.1428571428572</ele><time>2026-03-29T08:51:08Z</time></trkpt><trkpt lat="42.1064797909054" lon="12.931910493937686"><ele>997.7142857142858</ele><time>2026-03-29T08:51:16Z</time></trkpt><trkpt lat="42.10642705390875" lon="12.931971715733681"><ele>997.2857142857142</ele><time>2026-03-29T08:51:19Z</time></trkpt><trkpt lat="42.106388662972556" lon="12.93205024063482"><ele>996.8571428571428</ele><time>2026-03-29T08:51:22Z</time></trkpt><trkpt lat="42.10634303530094" lon="12.932114147369283"><ele>996.4285714285713</ele><time>2026-03-29T08:51:26Z</time></trkpt><trkpt lat="42.10626189326925" lon="12.932174200388031"><ele>996.0</ele><time>2026-03-29T08:51:36Z</time></trkpt><trkpt lat="42.106207706746936" lon="12.93222121715899"><ele>996.0</ele><time>2026-03-29T08:52:07Z</time></trkpt><trkpt lat="42.106144556255536" lon="12.93226030155722"><ele>996.0</ele><time>2026-03-29T08:52:24Z</time></trkpt><trkpt lat="42.10607345375827" lon="12.932273176565042"><ele>996.0</ele><time>2026-03-29T08:52:33Z</time></trkpt><trkpt lat="42.10599521260688" lon="12.932360917599794"><ele>996.0</ele><time>2026-03-29T08:53:20Z</time></trkpt><trkpt lat="42.105942739779145" lon="12.932411967145711"><ele>996.0</ele><time>2026-03-29T08:53:33Z</time></trkpt><trkpt lat="42.10590982780942" lon="12.932506304351248"><ele>996.0</ele><time>2026-03-29T08:53:35Z</time></trkpt><trkpt lat="42.10585376191326" lon="12.932590921185765"><ele>995.3333333333334</ele><time>2026-03-29T08:53:47Z</time></trkpt><trkpt lat="42.10578122093597" lon="12.932605957174697"><ele>994.6666666666667</ele><time>2026-03-29T08:53:53Z</time></trkpt><trkpt lat="42.105705079368455" lon="12.932618716650083"><ele>994.0</ele><time>2026-03-29T08:53:55Z</time></trkpt><trkpt lat="42.10563847516447" lon="12.932667389706692"><ele>993.3333333333334</ele><time>2026-03-29T08:53:57Z</time></trkpt><trkpt lat="42.10555249170457" lon="12.93272687769976"><ele>992.6666666666667</ele><time>2026-03-29T08:54:00Z</time></trkpt><trkpt lat="42.10548284771738" lon="12.932768024201348"><ele>992.0</ele><time>2026-03-29T08:54:02Z</time></trkpt><trkpt lat="42.10540084065794" lon="12.9327928261025"><ele>992.0000000000001</ele><time>2026-03-29T08:54:05Z</time></trkpt><trkpt lat="42.105320323205284" lon="12.932823291114058"><ele>992.0</ele><time>2026-03-29T08:54:07Z</time></trkpt><trkpt lat="42.10525406690149" lon="12.932847393419232"><ele>992.0</ele><time>2026-03-29T08:54:09Z</time></trkpt><trkpt lat="42.10515829623682" lon="12.932863833555162"><ele>992.0</ele><time>2026-03-29T08:54:11Z</time></trkpt><trkpt lat="42.10508337322627" lon="12.932895025437325"><ele>992.0000000000001</ele><time>2026-03-29T08:54:13Z</time></trkpt><trkpt lat="42.105027505863575" lon="12.932938400917747"><ele>992.0</ele><time>2026-03-29T08:54:16Z</time></trkpt><trkpt lat="42.10496014582369" lon="12.93301408470807"><ele>990.0</ele><time>2026-03-29T08:54:18Z</time></trkpt><trkpt lat="42.104900445507035" lon="12.93307928458598"><ele>988.0000000000001</ele><time>2026-03-29T08:54:21Z</time></trkpt><trkpt lat="42.10483915687657" lon="12.933115734634574"><ele>986.0</ele><time>2026-03-29T08:54:24Z</time></trkpt><trkpt lat="42.104762269780366" lon="12.933172074514923"><ele>984.0</ele><time>2026-03-29T08:54:28Z</time></trkpt><trkpt lat="42.10471137200609" lon="12.933230063076772"><ele>982.0000000000001</ele><time>2026-03-29T08:54:49.999Z</time></trkpt><trkpt lat="42.10464687814291" lon="12.93327204246855"><ele>980.0</ele><time>2026-03-29T08:54:57.999Z</time></trkpt><trkpt lat="42.10460380776721" lon="12.933334516964697"><ele>978.0</ele><time>2026-03-29T08:55:00.999Z</time></trkpt><trkpt lat="42.10455457385707" lon="12.933388354449947"><ele>978.8333333333334</ele><time>2026-03-29T08:55:04.999Z</time></trkpt><trkpt lat="42.10447816250993" lon="12.93344687747569"><ele>979.6666666666667</ele><time>2026-03-29T08:55:08Z</time></trkpt><trkpt lat="42.10442863637293" lon="12.933509656477012"><ele>980.5</ele><time>2026-03-29T08:55:11Z</time></trkpt><trkpt lat="42.10435981364145" lon="12.933580952104993"><ele>981.3333333333334</ele><time>2026-03-29T08:55:14Z</time></trkpt><trkpt lat="42.10430248892818" lon="12.933640823662369"><ele>982.1666666666667</ele><time>2026-03-29T08:55:17Z</time></trkpt><trkpt lat="42.10423019882809" lon="12.933686344857563"><ele>983.0</ele><time>2026-03-29T08:55:21Z</time></trkpt><trkpt lat="42.10419297721224" lon="12.933758376883166"><ele>983.0000000000001</ele><time>2026-03-29T08:55:28Z</time></trkpt><trkpt lat="42.10412006911399" lon="12.933822237352564"><ele>983.0</ele><time>2026-03-29T08:55:31Z</time></trkpt><trkpt lat="42.104075894316544" lon="12.933901205328633"><ele>983.0</ele><time>2026-03-29T08:55:35Z</time></trkpt><trkpt lat="42.104010097477925" lon="12.933958085915016"><ele>983.0</ele><time>2026-03-29T08:55:40Z</time></trkpt><trkpt lat="42.103934020380734" lon="12.934012470497825"><ele>983.0000000000001</ele><time>2026-03-29T08:55:44Z</time></trkpt><trkpt lat="42.10386220798423" lon="12.93407725714852"><ele>983.0</ele><time>2026-03-29T08:55:47Z</time></trkpt><trkpt lat="42.10371544296405" lon="12.934261617707017"><ele>982.0000000000001</ele><time>2026-03-29T08:55:49Z</time></trkpt><trkpt lat="42.103649082793375" lon="12.93430370617069"><ele>981.0</ele><time>2026-03-29T08:55:51Z</time></trkpt><trkpt lat="42.103569603824766" lon="12.934364086791469"><ele>980.0</ele><time>2026-03-29T08:58:15Z</time></trkpt><trkpt lat="42.1035385697306" lon="12.934451573485527"><ele>979.0</ele><time>2026-03-29T08:58:19Z</time></trkpt><trkpt lat="42.10350433669475" lon="12.934525282064978"><ele>978.0000000000001</ele><time>2026-03-29T08:58:21Z</time></trkpt><trkpt lat="42.103443006879715" lon="12.934586048285741"><ele>977.0</ele><time>2026-03-29T08:58:22Z</time></trkpt><trkpt lat="42.1033674609754" lon="12.9346773320986"><ele>977.0</ele><time>2026-03-29T08:58:24Z</time></trkpt><trkpt lat="42.103309467303106" lon="12.934740586784088"><ele>977.0</ele><time>2026-03-29T08:58:27Z</time></trkpt><trkpt lat="42.103246803024284" lon="12.934805440116126"><ele>977.0</ele><time>2026-03-29T08:58:29Z</time></trkpt><trkpt lat="42.10316973805902" lon="12.93486926953633"><ele>977.0</ele><time>2026-03-29T08:58:32Z</time></trkpt><trkpt lat="42.10305224475251" lon="12.93489331843996"><ele>977.0</ele><time>2026-03-29T08:58:34Z</time></trkpt><trkpt lat="42.10295274753863" lon="12.934958713395483"><ele>975.6666666666667</ele><time>2026-03-29T08:58:36Z</time></trkpt><trkpt lat="42.10289411226235" lon="12.934990103820004"><ele>974.3333333333334</ele><time>2026-03-29T08:58:37Z</time></trkpt><trkpt lat="42.10279200281652" lon="12.935048613806163"><ele>973.0</ele><time>2026-03-29T08:58:39Z</time></trkpt><trkpt lat="42.10271964669288" lon="12.935134373995819"><ele>971.6666666666667</ele><time>2026-03-29T08:58:40.999Z</time></trkpt><trkpt lat="42.10266117686853" lon="12.93518075624687"><ele>970.3333333333334</ele><time>2026-03-29T08:58:43.999Z</time></trkpt><trkpt lat="42.102585834219646" lon="12.935197075057712"><ele>969.0</ele><time>2026-03-29T08:58:47.999Z</time></trkpt><trkpt lat="42.10249305208139" lon="12.935220897887357"><ele>968.1666666666666</ele><time>2026-03-29T08:58:49.999Z</time></trkpt><trkpt lat="42.102420069879734" lon="12.935259577814069"><ele>967.3333333333333</ele><time>2026-03-29T08:58:51.999Z</time></trkpt><trkpt lat="42.10235717224615" lon="12.935339017276629"><ele>966.5</ele><time>2026-03-29T08:58:53.999Z</time></trkpt><trkpt lat="42.102279400679244" lon="12.935376011938736"><ele>965.6666666666666</ele><time>2026-03-29T08:58:55.999Z</time></trkpt><trkpt lat="42.10218801758761" lon="12.935443472299857"><ele>964.8333333333333</ele><time>2026-03-29T08:58:57.999Z</time></trkpt><trkpt lat="42.10211191104426" lon="12.93550487613358"><ele>964.0</ele><time>2026-03-29T08:58:59.999Z</time></trkpt><trkpt lat="42.10200292532268" lon="12.93556024240841"><ele>963.0</ele><time>2026-03-29T08:59:01.999Z</time></trkpt><trkpt lat="42.10191849299465" lon="12.935618733148255"><ele>962.0000000000001</ele><time>2026-03-29T08:59:03.999Z</time></trkpt><trkpt lat="42.10187321983325" lon="12.935681512367125"><ele>961.0000000000001</ele><time>2026-03-29T08:59:04.999Z</time></trkpt><trkpt lat="42.10174941107311" lon="12.935741171181743"><ele>960.0</ele><time>2026-03-29T08:59:06.999Z</time></trkpt><trkpt lat="42.10168585731903" lon="12.935734880509829"><ele>959.0</ele><time>2026-03-29T08:59:07.999Z</time></trkpt><trkpt lat="42.10158198881003" lon="12.93581339709694"><ele>957.6666666666667</ele><time>2026-03-29T08:59:09.999Z</time></trkpt><trkpt lat="42.10154651500658" lon="12.935896793133695"><ele>956.3333333333334</ele><time>2026-03-29T08:59:10.999Z</time></trkpt><trkpt lat="42.10145396541109" lon="12.93594811282388"><ele>955.0</ele><time>2026-03-29T08:59:12.999Z</time></trkpt><trkpt lat="42.101383775111735" lon="12.935999987778365"><ele>953.6666666666667</ele><time>2026-03-29T08:59:14.999Z</time></trkpt><trkpt lat="42.10131180739721" lon="12.93604892563748"><ele>952.3333333333334</ele><time>2026-03-29T08:59:17.999Z</time></trkpt><trkpt lat="42.1012566561105" lon="12.93609929832781"><ele>951.0</ele><time>2026-03-29T08:59:20Z</time></trkpt><trkpt lat="42.10117094331388" lon="12.936145270997665"><ele>951.0</ele><time>2026-03-29T08:59:24Z</time></trkpt><trkpt lat="42.101085031004914" lon="12.936240860681162"><ele>950.9999999999999</ele><time>2026-03-29T08:59:26Z</time></trkpt><trkpt lat="42.101007574576" lon="12.936313818794758"><ele>950.9999999999999</ele><time>2026-03-29T08:59:28Z</time></trkpt><trkpt lat="42.10091005573208" lon="12.936402409191544"><ele>951.0</ele><time>2026-03-29T08:59:30Z</time></trkpt><trkpt lat="42.1008580664578" lon="12.93645786749174"><ele>951.0</ele><time>2026-03-29T08:59:31Z</time></trkpt><trkpt lat="42.100769130854395" lon="12.936562290286743"><ele>950.1999999999999</ele><time>2026-03-29T08:59:33Z</time></trkpt><trkpt lat="42.100668729838226" lon="12.936637078489811"><ele>949.3999999999999</ele><time>2026-03-29T08:59:35Z</time></trkpt><trkpt lat="42.100595531659145" lon="12.936674902336458"><ele>948.6</ele><time>2026-03-29T08:59:36Z</time></trkpt><trkpt lat="42.10050841395669" lon="12.93674424253511"><ele>947.8</ele><time>2026-03-29T08:59:37Z</time></trkpt><trkpt lat="42.1004423674595" lon="12.936804722073973"><ele>947.0</ele><time>2026-03-29T08:59:38Z</time></trkpt><trkpt lat="42.10036522739026" lon="12.936874176598792"><ele>947.0000000000001</ele><time>2026-03-29T08:59:39Z</time></trkpt><trkpt lat="42.100289664762805" lon="12.9369523783414"><ele>947.0</ele><time>2026-03-29T08:59:40Z</time></trkpt><trkpt lat="42.100228149695695" lon="12.937020964366335"><ele>947.0</ele><time>2026-03-29T08:59:41Z</time></trkpt><trkpt lat="42.100172279629476" lon="12.937095082073816"><ele>947.0</ele><time>2026-03-29T08:59:42Z</time></trkpt><trkpt lat="42.1001086138552" lon="12.937171406309739"><ele>947.0000000000001</ele><time>2026-03-29T08:59:44Z</time></trkpt><trkpt lat="42.10005835875006" lon="12.937233609043806"><ele>947.0</ele><time>2026-03-29T08:59:46Z</time></trkpt><trkpt lat="42.100010826463006" lon="12.937295504044418"><ele>947.0</ele><time>2026-03-29T08:59:48Z</time></trkpt><trkpt lat="42.099942699679154" lon="12.937338422385722"><ele>947.0</ele><time>2026-03-29T08:59:50Z</time></trkpt><trkpt lat="42.09987448510996" lon="12.937406862558186"><ele>947.0</ele><time>2026-03-29T08:59:52Z</time></trkpt><trkpt lat="42.09978705121673" lon="12.937468262545229"><ele>947.0</ele><time>2026-03-29T08:59:54Z</time></trkpt><trkpt lat="42.099682416525525" lon="12.937562060614702"><ele>947.0</ele><time>2026-03-29T08:59:56Z</time></trkpt><trkpt lat="42.099631313748695" lon="12.937618236026955"><ele>948.3333333333334</ele><time>2026-03-29T08:59:57Z</time></trkpt><trkpt lat="42.09953903600118" lon="12.93767573993093"><ele>949.6666666666667</ele><time>2026-03-29T08:59:59Z</time></trkpt><trkpt lat="42.099450524028526" lon="12.937721784139242"><ele>951.0</ele><time>2026-03-29T09:00:01Z</time></trkpt><trkpt lat="42.09940053536333" lon="12.937780428616684"><ele>952.3333333333333</ele><time>2026-03-29T09:00:02Z</time></trkpt><trkpt lat="42.099320426545425" lon="12.937859148265513"><ele>953.6666666666666</ele><time>2026-03-29T09:00:04Z</time></trkpt><trkpt lat="42.09924228290578" lon="12.937911863185448"><ele>955.0</ele><time>2026-03-29T09:00:06Z</time></trkpt><trkpt lat="42.09918214587299" lon="12.93794999419609"><ele>955.0</ele><time>2026-03-29T09:00:08Z</time></trkpt><trkpt lat="42.099102096923076" lon="12.937976459476124"><ele>955.0</ele><time>2026-03-29T09:00:11Z</time></trkpt><trkpt lat="42.09902408607537" lon="12.93800699229068"><ele>955.0</ele><time>2026-03-29T09:00:14Z</time></trkpt><trkpt lat="42.09888035919784" lon="12.938092270633552"><ele>955.0</ele><time>2026-03-29T09:00:16Z</time></trkpt><trkpt lat="42.09878855595808" lon="12.938113017323769"><ele>955.0</ele><time>2026-03-29T09:00:18Z</time></trkpt><trkpt lat="42.09871979912748" lon="12.93809769516546"><ele>956.7142857142856</ele><time>2026-03-29T09:00:21Z</time></trkpt><trkpt lat="42.098656225058456" lon="12.938088259497585"><ele>958.4285714285713</ele><time>2026-03-29T09:00:44.999Z</time></trkpt><trkpt lat="42.09859289551841" lon="12.938091253295575"><ele>960.1428571428571</ele><time>2026-03-29T09:00:48.999Z</time></trkpt><trkpt lat="42.09851886659728" lon="12.93809437082373"><ele>961.8571428571428</ele><time>2026-03-29T09:00:51.999Z</time></trkpt><trkpt lat="42.09843848219753" lon="12.938061760689717"><ele>963.5714285714284</ele><time>2026-03-29T09:01:08.999Z</time></trkpt><trkpt lat="42.0983649686283" lon="12.93809725898093"><ele>965.2857142857143</ele><time>2026-03-29T09:01:14.999Z</time></trkpt><trkpt lat="42.098293900150516" lon="12.938130221279112"><ele>967.0</ele><time>2026-03-29T09:01:16.999Z</time></trkpt><trkpt lat="42.098219789893655" lon="12.93815958252141"><ele>967.0</ele><time>2026-03-29T09:01:19.999Z</time></trkpt><trkpt lat="42.09813895951054" lon="12.938178902018493"><ele>967.0</ele><time>2026-03-29T09:01:22.999Z</time></trkpt><trkpt lat="42.098094497176405" lon="12.938251463905168"><ele>967.0</ele><time>2026-03-29T09:01:27Z</time></trkpt><trkpt lat="42.098048612527386" lon="12.938318246402163"><ele>967.0</ele><time>2026-03-29T09:01:30Z</time></trkpt><trkpt lat="42.097974172031904" lon="12.938368551610735"><ele>967.0</ele><time>2026-03-29T09:01:33Z</time></trkpt><trkpt lat="42.097922945081386" lon="12.93844893148869"><ele>967.0</ele><time>2026-03-29T09:01:36Z</time></trkpt><trkpt lat="42.097885757957684" lon="12.938524447413283"><ele>967.0</ele><time>2026-03-29T09:01:39Z</time></trkpt><trkpt lat="42.09782419034694" lon="12.938584876725901"><ele>967.3333333333333</ele><time>2026-03-29T09:01:42Z</time></trkpt><trkpt lat="42.097723434346484" lon="12.93862072523883"><ele>967.6666666666666</ele><time>2026-03-29T09:01:45Z</time></trkpt><trkpt lat="42.097641331514325" lon="12.93863250481359"><ele>968.0</ele><time>2026-03-29T09:01:47Z</time></trkpt><trkpt lat="42.09757720584916" lon="12.938673078306111"><ele>968.3333333333333</ele><time>2026-03-29T09:01:49Z</time></trkpt><trkpt lat="42.097502698319644" lon="12.938730343319712"><ele>968.6666666666666</ele><time>2026-03-29T09:01:51Z</time></trkpt><trkpt lat="42.0974180988945" lon="12.938790571239835"><ele>969.0</ele><time>2026-03-29T09:01:54Z</time></trkpt><trkpt lat="42.097342690842105" lon="12.93881140622212"><ele>969.5</ele><time>2026-03-29T09:01:56Z</time></trkpt><trkpt lat="42.09724665573681" lon="12.93886364482928"><ele>970.0</ele><time>2026-03-29T09:01:58Z</time></trkpt><trkpt lat="42.09718550520996" lon="12.938903636805628"><ele>970.5</ele><time>2026-03-29T09:01:59Z</time></trkpt><trkpt lat="42.097141504090565" lon="12.93899883419441"><ele>971.0</ele><time>2026-03-29T09:02:03Z</time></trkpt><trkpt lat="42.09707792251918" lon="12.939067261660758"><ele>971.5</ele><time>2026-03-29T09:02:06Z</time></trkpt><trkpt lat="42.0970051719315" lon="12.939088778341663"><ele>972.0</ele><time>2026-03-29T09:02:08Z</time></trkpt><trkpt lat="42.09693540063517" lon="12.939142934011175"><ele>972.0</ele><time>2026-03-29T09:02:11Z</time></trkpt><trkpt lat="42.096884147250584" lon="12.93919937512403"><ele>972.0</ele><time>2026-03-29T09:02:17Z</time></trkpt><trkpt lat="42.09683178496658" lon="12.939248206117197"><ele>972.0</ele><time>2026-03-29T09:02:25Z</time></trkpt><trkpt lat="42.09675813374775" lon="12.939289088826637"><ele>972.0</ele><time>2026-03-29T09:02:32Z</time></trkpt><trkpt lat="42.09669841052033" lon="12.939335709202696"><ele>972.0</ele><time>2026-03-29T09:02:37Z</time></trkpt><trkpt lat="42.09662978211624" lon="12.939384139079879"><ele>972.0</ele><time>2026-03-29T09:02:40Z</time></trkpt><trkpt lat="42.09658113343139" lon="12.939456595835386"><ele>972.0</ele><time>2026-03-29T09:02:42Z</time></trkpt><trkpt lat="42.09652352792928" lon="12.93950598998801"><ele>970.0</ele><time>2026-03-29T09:02:46Z</time></trkpt><trkpt lat="42.09645927637785" lon="12.939582723793821"><ele>968.0</ele><time>2026-03-29T09:02:48.999Z</time></trkpt><trkpt lat="42.09640050240423" lon="12.939648103511763"><ele>966.0</ele><time>2026-03-29T09:02:50.999Z</time></trkpt><trkpt lat="42.096341029619346" lon="12.939697368343376"><ele>964.0</ele><time>2026-03-29T09:02:52.999Z</time></trkpt><trkpt lat="42.096298072146254" lon="12.939762552144387"><ele>962.0</ele><time>2026-03-29T09:02:54.999Z</time></trkpt><trkpt lat="42.096250287970044" lon="12.939840971253238"><ele>960.0</ele><time>2026-03-29T09:02:56.999Z</time></trkpt><trkpt lat="42.096213009905945" lon="12.93991230876699"><ele>958.0</ele><time>2026-03-29T09:02:57.999Z</time></trkpt><trkpt lat="42.09618543918364" lon="12.939997274268821"><ele>957.6666666666666</ele><time>2026-03-29T09:02:58.999Z</time></trkpt><trkpt lat="42.09615238565056" lon="12.940074376997183"><ele>957.3333333333333</ele><time>2026-03-29T09:02:59.999Z</time></trkpt><trkpt lat="42.09612811325567" lon="12.940154304520084"><ele>957.0</ele><time>2026-03-29T09:03:00.999Z</time></trkpt><trkpt lat="42.09606685181007" lon="12.940232816503732"><ele>956.6666666666667</ele><time>2026-03-29T09:03:02.999Z</time></trkpt><trkpt lat="42.096005970105544" lon="12.940346706992049"><ele>956.3333333333334</ele><time>2026-03-29T09:03:04.999Z</time></trkpt><trkpt lat="42.09593051202967" lon="12.940408053651584"><ele>956.0</ele><time>2026-03-29T09:03:07.999Z</time></trkpt><trkpt lat="42.09585860363021" lon="12.940461825177904"><ele>956.0000000000001</ele><time>2026-03-29T09:03:09.999Z</time></trkpt><trkpt lat="42.09581038066202" lon="12.940574761095673"><ele>956.0</ele><time>2026-03-29T09:03:12.999Z</time></trkpt><trkpt lat="42.095782803333236" lon="12.940676961693093"><ele>956.0</ele><time>2026-03-29T09:03:14.999Z</time></trkpt><trkpt lat="42.09576489423025" lon="12.940775949479608"><ele>956.0</ele><time>2026-03-29T09:03:16.999Z</time></trkpt><trkpt lat="42.095751926304565" lon="12.940905298920937"><ele>956.0000000000001</ele><time>2026-03-29T09:03:18.999Z</time></trkpt><trkpt lat="42.095682362508356" lon="12.940979675853598"><ele>956.0</ele><time>2026-03-29T09:03:21.999Z</time></trkpt><trkpt lat="42.09562568851717" lon="12.941055038092962"><ele>956.3333333333334</ele><time>2026-03-29T09:03:24.999Z</time></trkpt><trkpt lat="42.09557337210238" lon="12.941134309003267"><ele>956.6666666666667</ele><time>2026-03-29T09:03:27.999Z</time></trkpt><trkpt lat="42.09553034433042" lon="12.941222198505441"><ele>957.0</ele><time>2026-03-29T09:03:29.999Z</time></trkpt><trkpt lat="42.0954598892769" lon="12.94128860554919"><ele>957.3333333333333</ele><time>2026-03-29T09:03:33Z</time></trkpt><trkpt lat="42.09539150327046" lon="12.94135168947756"><ele>957.6666666666666</ele><time>2026-03-29T09:03:36Z</time></trkpt><trkpt lat="42.095351392561206" lon="12.941418882293794"><ele>958.0</ele><time>2026-03-29T09:03:38Z</time></trkpt><trkpt lat="42.09527512088448" lon="12.941512154933852"><ele>957.9999999999999</ele><time>2026-03-29T09:03:40Z</time></trkpt><trkpt lat="42.09520246094066" lon="12.941557190241411"><ele>958.0</ele><time>2026-03-29T09:03:41Z</time></trkpt><trkpt lat="42.095120923739366" lon="12.941597981126282"><ele>958.0</ele><time>2026-03-29T09:03:43Z</time></trkpt><trkpt lat="42.095045088731474" lon="12.941679519820863"><ele>958.0</ele><time>2026-03-29T09:03:46Z</time></trkpt><trkpt lat="42.094996014776434" lon="12.941734988054892"><ele>957.9999999999999</ele><time>2026-03-29T09:03:48Z</time></trkpt><trkpt lat="42.09492219307543" lon="12.941797742985642"><ele>958.0</ele><time>2026-03-29T09:03:51Z</time></trkpt><trkpt lat="42.09485611930361" lon="12.941868378104244"><ele>959.8</ele><time>2026-03-29T09:03:54Z</time></trkpt><trkpt lat="42.09473459409809" lon="12.941963876704476"><ele>961.5999999999999</ele><time>2026-03-29T09:03:56Z</time></trkpt><trkpt lat="42.09465712385999" lon="12.942043308820054"><ele>963.4000000000001</ele><time>2026-03-29T09:03:58Z</time></trkpt><trkpt lat="42.09459677600049" lon="12.94212122933874"><ele>965.2</ele><time>2026-03-29T09:04:00Z</time></trkpt><trkpt lat="42.09453281184816" lon="12.942183011794045"><ele>967.0</ele><time>2026-03-29T09:04:04Z</time></trkpt><trkpt lat="42.09446628656049" lon="12.942225196609295"><ele>966.9999999999999</ele><time>2026-03-29T09:04:06Z</time></trkpt><trkpt lat="42.09439526799632" lon="12.942272074311926"><ele>967.0</ele><time>2026-03-29T09:04:08Z</time></trkpt><trkpt lat="42.09430879370226" lon="12.942350559026453"><ele>967.0</ele><time>2026-03-29T09:04:10Z</time></trkpt><trkpt lat="42.09425163954835" lon="12.942427940414222"><ele>967.0</ele><time>2026-03-29T09:04:12Z</time></trkpt><trkpt lat="42.09419677536194" lon="12.942481710190624"><ele>966.9999999999999</ele><time>2026-03-29T09:04:15Z</time></trkpt><trkpt lat="42.09413173755741" lon="12.942554950828802"><ele>967.0</ele><time>2026-03-29T09:04:18Z</time></trkpt><trkpt lat="42.09406873328512" lon="12.94264076598146"><ele>964.8333333333333</ele><time>2026-03-29T09:04:21Z</time></trkpt><trkpt lat="42.09401552157358" lon="12.942749404929112"><ele>962.6666666666666</ele><time>2026-03-29T09:04:23Z</time></trkpt><trkpt lat="42.093970293156055" lon="12.942853921987068"><ele>960.5</ele><time>2026-03-29T09:04:25Z</time></trkpt><trkpt lat="42.093936825403695" lon="12.942960968867565"><ele>958.3333333333333</ele><time>2026-03-29T09:04:28Z</time></trkpt><trkpt lat="42.093929437630564" lon="12.943064892152098"><ele>956.1666666666666</ele><time>2026-03-29T09:04:31Z</time></trkpt><trkpt lat="42.093923893344844" lon="12.943182324876615"><ele>954.0</ele><time>2026-03-29T09:04:34Z</time></trkpt><trkpt lat="42.093913245982264" lon="12.943268658596901"><ele>953.2</ele><time>2026-03-29T09:04:36Z</time></trkpt><trkpt lat="42.093878399723756" lon="12.943404295234586"><ele>952.4000000000001</ele><time>2026-03-29T09:04:37Z</time></trkpt><trkpt lat="42.09384836208289" lon="12.94351721916017"><ele>951.6</ele><time>2026-03-29T09:04:39Z</time></trkpt><trkpt lat="42.09376603243977" lon="12.943636484467117"><ele>950.8</ele><time>2026-03-29T09:04:41Z</time></trkpt><trkpt lat="42.09372758239264" lon="12.943713035667594"><ele>950.0</ele><time>2026-03-29T09:04:42Z</time></trkpt><trkpt lat="42.093685988744255" lon="12.943792937625307"><ele>950.0</ele><time>2026-03-29T09:04:43Z</time></trkpt><trkpt lat="42.09365676356589" lon="12.943883261204006"><ele>950.0000000000001</ele><time>2026-03-29T09:04:44Z</time></trkpt><trkpt lat="42.093629808304854" lon="12.943967702864025"><ele>950.0</ele><time>2026-03-29T09:04:45Z</time></trkpt><trkpt lat="42.09359015278274" lon="12.944046476938233"><ele>950.0</ele><time>2026-03-29T09:04:46Z</time></trkpt><trkpt lat="42.09356183317145" lon="12.94412323251136"><ele>950.0000000000001</ele><time>2026-03-29T09:04:47Z</time></trkpt><trkpt lat="42.09350893335222" lon="12.944189856917143"><ele>950.0</ele><time>2026-03-29T09:04:49Z</time></trkpt><trkpt lat="42.09345187150912" lon="12.944229588181607"><ele>950.0</ele><time>2026-03-29T09:04:50.999Z</time></trkpt><trkpt lat="42.093371949392" lon="12.944278664703434"><ele>947.2</ele><time>2026-03-29T09:04:52.999Z</time></trkpt><trkpt lat="42.093315651955706" lon="12.944359062819045"><ele>944.4</ele><time>2026-03-29T09:04:54.999Z</time></trkpt><trkpt lat="42.093297582741314" lon="12.944472164197528"><ele>941.5999999999999</ele><time>2026-03-29T09:04:56.999Z</time></trkpt><trkpt lat="42.093235012864504" lon="12.94458125398602"><ele>938.8</ele><time>2026-03-29T09:04:58.999Z</time></trkpt><trkpt lat="42.093194291610146" lon="12.944647753655202"><ele>936.0</ele><time>2026-03-29T09:04:59.999Z</time></trkpt><trkpt lat="42.09312818298576" lon="12.944776535281559"><ele>935.1666666666666</ele><time>2026-03-29T09:05:01.999Z</time></trkpt><trkpt lat="42.09308980721646" lon="12.944853267699246"><ele>934.3333333333333</ele><time>2026-03-29T09:05:02.999Z</time></trkpt><trkpt lat="42.093034077677046" lon="12.944957092004017"><ele>933.5</ele><time>2026-03-29T09:05:04.999Z</time></trkpt><trkpt lat="42.09297296102424" lon="12.945054264153367"><ele>932.6666666666666</ele><time>2026-03-29T09:05:06.999Z</time></trkpt><trkpt lat="42.09291347787059" lon="12.945097894564052"><ele>931.8333333333333</ele><time>2026-03-29T09:05:09.999Z</time></trkpt><trkpt lat="42.09285547760225" lon="12.945149050552601"><ele>931.0</ele><time>2026-03-29T09:05:12.999Z</time></trkpt><trkpt lat="42.092784603184484" lon="12.945253570342745"><ele>931.0</ele><time>2026-03-29T09:05:17.999Z</time></trkpt><trkpt lat="42.09273236939065" lon="12.945342071146273"><ele>931.0</ele><time>2026-03-29T09:05:21.999Z</time></trkpt><trkpt lat="42.0926943352739" lon="12.94541492016547"><ele>931.0</ele><time>2026-03-29T09:05:26.999Z</time></trkpt><trkpt lat="42.09264918408879" lon="12.945483855156569"><ele>931.0</ele><time>2026-03-29T09:05:34.999Z</time></trkpt><trkpt lat="42.09260668823239" lon="12.945570139631243"><ele>931.0</ele><time>2026-03-29T09:05:44Z</time></trkpt><trkpt lat="42.09254636400356" lon="12.945612907657832"><ele>931.0</ele><time>2026-03-29T09:05:49Z</time></trkpt><trkpt lat="42.092477771743376" lon="12.945628817973665"><ele>931.0</ele><time>2026-03-29T09:05:58Z</time></trkpt><trkpt lat="42.09242359382907" lon="12.945689402903385"><ele>930.9999999999999</ele><time>2026-03-29T09:06:02Z</time></trkpt><trkpt lat="42.09236775582473" lon="12.945741465131022"><ele>931.0</ele><time>2026-03-29T09:06:06Z</time></trkpt><trkpt lat="42.092289327573084" lon="12.945765579622156"><ele>931.0</ele><time>2026-03-29T09:06:10Z</time></trkpt><trkpt lat="42.092208066925664" lon="12.945788187672777"><ele>931.0</ele><time>2026-03-29T09:06:14Z</time></trkpt><trkpt lat="42.09213346537655" lon="12.945812230781018"><ele>930.9999999999999</ele><time>2026-03-29T09:06:17Z</time></trkpt><trkpt lat="42.09206964153841" lon="12.945793550185355"><ele>931.0</ele><time>2026-03-29T09:06:20Z</time></trkpt><trkpt lat="42.09197975699901" lon="12.945792523412978"><ele>930.9999999999999</ele><time>2026-03-29T09:06:24Z</time></trkpt><trkpt lat="42.09190366282357" lon="12.945810912927838"><ele>931.0</ele><time>2026-03-29T09:06:28Z</time></trkpt><trkpt lat="42.09183784029972" lon="12.945837622465366"><ele>931.0</ele><time>2026-03-29T09:06:31Z</time></trkpt><trkpt lat="42.09177759804446" lon="12.945872024737366"><ele>931.0</ele><time>2026-03-29T09:06:39Z</time></trkpt><trkpt lat="42.0917019561399" lon="12.945878015534928"><ele>930.9999999999999</ele><time>2026-03-29T09:07:36.999Z</time></trkpt><trkpt lat="42.09160727030263" lon="12.945935499303374"><ele>931.0</ele><time>2026-03-29T09:07:39.999Z</time></trkpt><trkpt lat="42.09153234472219" lon="12.94598478824266"><ele>931.4</ele><time>2026-03-29T09:07:42.999Z</time></trkpt><trkpt lat="42.09145844156354" lon="12.946052568364271"><ele>931.8</ele><time>2026-03-29T09:07:45Z</time></trkpt><trkpt lat="42.09137272888763" lon="12.946163717832675"><ele>932.1999999999999</ele><time>2026-03-29T09:07:47Z</time></trkpt><trkpt lat="42.091291158552885" lon="12.946261632478011"><ele>932.5999999999999</ele><time>2026-03-29T09:07:49Z</time></trkpt><trkpt lat="42.091221974015994" lon="12.946333580019948"><ele>933.0</ele><time>2026-03-29T09:07:51Z</time></trkpt><trkpt lat="42.091147810669256" lon="12.946409113335722"><ele>933.0</ele><time>2026-03-29T09:07:54Z</time></trkpt><trkpt lat="42.09107965909398" lon="12.946458041250558"><ele>933.0</ele><time>2026-03-29T09:07:56Z</time></trkpt><trkpt lat="42.09101503743893" lon="12.946512569554082"><ele>933.0</ele><time>2026-03-29T09:07:59Z</time></trkpt><trkpt lat="42.090942707572125" lon="12.946599075856154"><ele>933.0</ele><time>2026-03-29T09:08:01Z</time></trkpt><trkpt lat="42.090866917422865" lon="12.94672917915587"><ele>933.0</ele><time>2026-03-29T09:08:03Z</time></trkpt><trkpt lat="42.09084632673502" lon="12.946821711939553"><ele>933.0</ele><time>2026-03-29T09:08:05Z</time></trkpt><trkpt lat="42.09081587534542" lon="12.946909191410862"><ele>931.1666666666666</ele><time>2026-03-29T09:08:07Z</time></trkpt><trkpt lat="42.090784775407535" lon="12.94698936895702"><ele>929.3333333333333</ele><time>2026-03-29T09:08:08Z</time></trkpt><trkpt lat="42.09073660575275" lon="12.94706597914165"><ele>927.5</ele><time>2026-03-29T09:08:09Z</time></trkpt><trkpt lat="42.09068465827887" lon="12.947151984791448"><ele>925.6666666666666</ele><time>2026-03-29T09:08:10Z</time></trkpt><trkpt lat="42.09062604909488" lon="12.947262079845888"><ele>923.8333333333333</ele><time>2026-03-29T09:08:11Z</time></trkpt><trkpt lat="42.09056639938085" lon="12.947349575456286"><ele>922.0</ele><time>2026-03-29T09:08:13Z</time></trkpt><trkpt lat="42.090496401544534" lon="12.947409154473965"><ele>921.9999999999999</ele><time>2026-03-29T09:08:17Z</time></trkpt><trkpt lat="42.09041974272802" lon="12.947477503525992"><ele>922.0</ele><time>2026-03-29T09:08:20Z</time></trkpt><trkpt lat="42.09035228971388" lon="12.947512614709908"><ele>922.0</ele><time>2026-03-29T09:08:22Z</time></trkpt><trkpt lat="42.09028711399349" lon="12.947562494966414"><ele>922.0</ele><time>2026-03-29T09:08:24Z</time></trkpt><trkpt lat="42.09016986835421" lon="12.947600482716886"><ele>921.9999999999999</ele><time>2026-03-29T09:08:26Z</time></trkpt><trkpt lat="42.09009632552402" lon="12.947636269302958"><ele>922.0</ele><time>2026-03-29T09:08:28Z</time></trkpt><trkpt lat="42.09002391736091" lon="12.947687296583803"><ele>919.9999999999999</ele><time>2026-03-29T09:08:30Z</time></trkpt><trkpt lat="42.0899502523539" lon="12.947739253095765"><ele>918.0</ele><time>2026-03-29T09:08:32Z</time></trkpt><trkpt lat="42.08989328065524" lon="12.947781676174479"><ele>916.0</ele><time>2026-03-29T09:08:34Z</time></trkpt><trkpt lat="42.08981928377747" lon="12.947834855351934"><ele>914.0</ele><time>2026-03-29T09:08:37Z</time></trkpt><trkpt lat="42.089727536926816" lon="12.94781320225669"><ele>911.9999999999999</ele><time>2026-03-29T09:08:40Z</time></trkpt><trkpt lat="42.08965481328304" lon="12.94782130833765"><ele>910.0</ele><time>2026-03-29T09:08:42Z</time></trkpt><trkpt lat="42.08955277254417" lon="12.947855244444558"><ele>909.6666666666666</ele><time>2026-03-29T09:08:45Z</time></trkpt><trkpt lat="42.089464730375106" lon="12.947844788555583"><ele>909.3333333333333</ele><time>2026-03-29T09:08:47Z</time></trkpt><trkpt lat="42.0894014505894" lon="12.947822379379435"><ele>909.0</ele><time>2026-03-29T09:08:49Z</time></trkpt><trkpt lat="42.089303654160375" lon="12.94780636945039"><ele>908.6666666666667</ele><time>2026-03-29T09:08:51Z</time></trkpt><trkpt lat="42.08924097662021" lon="12.947835997021722"><ele>908.3333333333334</ele><time>2026-03-29T09:08:52Z</time></trkpt><trkpt lat="42.08913898824168" lon="12.947888322764813"><ele>908.0</ele><time>2026-03-29T09:08:54Z</time></trkpt><trkpt lat="42.08906791103358" lon="12.947882813460097"><ele>907.6666666666667</ele><time>2026-03-29T09:08:55.999Z</time></trkpt><trkpt lat="42.089011477888675" lon="12.947936706998286"><ele>907.3333333333334</ele><time>2026-03-29T09:08:57.999Z</time></trkpt><trkpt lat="42.088940922444856" lon="12.947962133465845"><ele>907.0</ele><time>2026-03-29T09:09:07.999Z</time></trkpt><trkpt lat="42.08886495956479" lon="12.948019932995686"><ele>906.6666666666667</ele><time>2026-03-29T09:10:01Z</time></trkpt><trkpt lat="42.088772583767735" lon="12.948020030416723"><ele>906.3333333333334</ele><time>2026-03-29T09:10:04Z</time></trkpt><trkpt lat="42.0887116295927" lon="12.948081875584661"><ele>906.0</ele><time>2026-03-29T09:10:07Z</time></trkpt><trkpt lat="42.08864177735106" lon="12.948184396676725"><ele>905.9999999999999</ele><time>2026-03-29T09:10:09Z</time></trkpt><trkpt lat="42.08857070354106" lon="12.948219775687443"><ele>906.0</ele><time>2026-03-29T09:10:10Z</time></trkpt><trkpt lat="42.088524101244175" lon="12.948279311273579"><ele>905.9999999999999</ele><time>2026-03-29T09:10:11Z</time></trkpt><trkpt lat="42.08849394916165" lon="12.948370865762552"><ele>905.9999999999999</ele><time>2026-03-29T09:10:12Z</time></trkpt><trkpt lat="42.08847642636422" lon="12.948463877495216"><ele>906.0</ele><time>2026-03-29T09:10:13Z</time></trkpt><trkpt lat="42.088430161871386" lon="12.948559505691124"><ele>905.9999999999999</ele><time>2026-03-29T09:10:14Z</time></trkpt><trkpt lat="42.08839870906178" lon="12.948638801245888"><ele>905.9999999999999</ele><time>2026-03-29T09:10:15Z</time></trkpt><trkpt lat="42.08834335628661" lon="12.948706413063604"><ele>906.3333333333334</ele><time>2026-03-29T09:10:16Z</time></trkpt><trkpt lat="42.08827712074433" lon="12.94878972985221"><ele>906.6666666666667</ele><time>2026-03-29T09:10:18Z</time></trkpt><trkpt lat="42.0882086456493" lon="12.948830950841517"><ele>907.0</ele><time>2026-03-29T09:10:36Z</time></trkpt><trkpt lat="42.08810007076314" lon="12.948839793454626"><ele>907.3333333333334</ele><time>2026-03-29T09:10:38Z</time></trkpt><trkpt lat="42.088030204908364" lon="12.948848555634212"><ele>907.6666666666667</ele><time>2026-03-29T09:10:39Z</time></trkpt><trkpt lat="42.08796047268947" lon="12.94888431570142"><ele>908.0</ele><time>2026-03-29T09:10:40Z</time></trkpt><trkpt lat="42.087901653470105" lon="12.948929156422373"><ele>907.3333333333334</ele><time>2026-03-29T09:10:41Z</time></trkpt><trkpt lat="42.08782855520315" lon="12.94894719858475"><ele>906.6666666666667</ele><time>2026-03-29T09:10:43Z</time></trkpt><trkpt lat="42.0877731037829" lon="12.94901647763964"><ele>906.0</ele><time>2026-03-29T09:10:48Z</time></trkpt><trkpt lat="42.08775039096026" lon="12.949142377449013"><ele>905.3333333333333</ele><time>2026-03-29T09:10:50Z</time></trkpt><trkpt lat="42.08768156234258" lon="12.949244893151368"><ele>904.6666666666666</ele><time>2026-03-29T09:10:52Z</time></trkpt><trkpt lat="42.08764275500563" lon="12.949346324191202"><ele>904.0</ele><time>2026-03-29T09:10:54Z</time></trkpt><trkpt lat="42.08760635769317" lon="12.949419835261418"><ele>904.8333333333333</ele><time>2026-03-29T09:10:56Z</time></trkpt><trkpt lat="42.08755574285413" lon="12.949483154930244"><ele>905.6666666666666</ele><time>2026-03-29T09:10:58Z</time></trkpt><trkpt lat="42.08747960969265" lon="12.949555308318152"><ele>906.5</ele><time>2026-03-29T09:10:59.999Z</time></trkpt><trkpt lat="42.08740018826221" lon="12.949515315449707"><ele>907.3333333333333</ele><time>2026-03-29T09:11:02.999Z</time></trkpt><trkpt lat="42.08732662910674" lon="12.949569174812925"><ele>908.1666666666666</ele><time>2026-03-29T09:11:05.999Z</time></trkpt><trkpt lat="42.08725708228788" lon="12.949586019216495"><ele>909.0</ele><time>2026-03-29T09:11:08.999Z</time></trkpt><trkpt lat="42.08718066511689" lon="12.949608534942765"><ele>909.0</ele><time>2026-03-29T09:11:11.999Z</time></trkpt><trkpt lat="42.08709179997967" lon="12.949648093788186"><ele>909.0</ele><time>2026-03-29T09:11:15.999Z</time></trkpt><trkpt lat="42.08696440874508" lon="12.94972809901383"><ele>909.0</ele><time>2026-03-29T09:11:17.999Z</time></trkpt><trkpt lat="42.08691437997986" lon="12.949791072668623"><ele>909.0</ele><time>2026-03-29T09:11:18.999Z</time></trkpt><trkpt lat="42.086875787433215" lon="12.949871217107306"><ele>909.0</ele><time>2026-03-29T09:11:20.999Z</time></trkpt><trkpt lat="42.086837512822555" lon="12.949944080893001"><ele>909.0</ele><time>2026-03-29T09:11:22.999Z</time></trkpt><trkpt lat="42.08677413286878" lon="12.950010586665405"><ele>909.4000000000001</ele><time>2026-03-29T09:11:26.999Z</time></trkpt><trkpt lat="42.086705931581" lon="12.950092454943098"><ele>909.8000000000001</ele><time>2026-03-29T09:11:28.999Z</time></trkpt><trkpt lat="42.08663300097146" lon="12.950233853880919"><ele>910.1999999999999</ele><time>2026-03-29T09:11:30.999Z</time></trkpt><trkpt lat="42.086589308394394" lon="12.950371051856463"><ele>910.5999999999999</ele><time>2026-03-29T09:11:32.999Z</time></trkpt><trkpt lat="42.086562537144744" lon="12.950487522031784"><ele>911.0</ele><time>2026-03-29T09:11:34.999Z</time></trkpt><trkpt lat="42.08655463941781" lon="12.950581443058523"><ele>910.1666666666667</ele><time>2026-03-29T09:11:35.999Z</time></trkpt><trkpt lat="42.08651612543186" lon="12.950658537076762"><ele>909.3333333333334</ele><time>2026-03-29T09:11:36.999Z</time></trkpt><trkpt lat="42.086442363226915" lon="12.95072242301752"><ele>908.5</ele><time>2026-03-29T09:11:37.999Z</time></trkpt><trkpt lat="42.08636849026494" lon="12.950808260058414"><ele>907.6666666666667</ele><time>2026-03-29T09:11:39.999Z</time></trkpt><trkpt lat="42.086289408856544" lon="12.950874205613829"><ele>906.8333333333334</ele><time>2026-03-29T09:11:42.999Z</time></trkpt><trkpt lat="42.086209492762485" lon="12.950954455195985"><ele>906.0</ele><time>2026-03-29T09:11:45.999Z</time></trkpt><trkpt lat="42.08612108760315" lon="12.951017111649708"><ele>906.3333333333334</ele><time>2026-03-29T09:11:47.999Z</time></trkpt><trkpt lat="42.08606956977819" lon="12.951083187475728"><ele>906.6666666666667</ele><time>2026-03-29T09:11:50.999Z</time></trkpt><trkpt lat="42.086025552658455" lon="12.95115188491767"><ele>907.0</ele><time>2026-03-29T09:11:52.999Z</time></trkpt><trkpt lat="42.085965174178625" lon="12.951192489626228"><ele>907.3333333333334</ele><time>2026-03-29T09:11:54.999Z</time></trkpt><trkpt lat="42.08588939323725" lon="12.951234714062966"><ele>907.6666666666667</ele><time>2026-03-29T09:11:57Z</time></trkpt><trkpt lat="42.08579494271608" lon="12.951287118459737"><ele>908.0</ele><time>2026-03-29T09:11:59Z</time></trkpt><trkpt lat="42.085708207620314" lon="12.951315463777878"><ele>908.0000000000001</ele><time>2026-03-29T09:12:02Z</time></trkpt><trkpt lat="42.08565489451907" lon="12.951371686419511"><ele>908.0</ele><time>2026-03-29T09:12:04Z</time></trkpt><trkpt lat="42.0855147056153" lon="12.951407850912556"><ele>908.0</ele><time>2026-03-29T09:12:07Z</time></trkpt><trkpt lat="42.08543412060946" lon="12.951447822534897"><ele>908.0</ele><time>2026-03-29T09:12:09Z</time></trkpt><trkpt lat="42.08536698698459" lon="12.951461068486536"><ele>908.0000000000001</ele><time>2026-03-29T09:12:10Z</time></trkpt><trkpt lat="42.0852993537985" lon="12.951488498461527"><ele>908.0</ele><time>2026-03-29T09:12:13Z</time></trkpt><trkpt lat="42.08524091870251" lon="12.95154266033073"><ele>908.0000000000001</ele><time>2026-03-29T09:33:09Z</time></trkpt><trkpt lat="42.08521484016959" lon="12.951629728137199"><ele>908.0</ele><time>2026-03-29T09:33:11Z</time></trkpt><trkpt lat="42.08519519958223" lon="12.951748954492066"><ele>908.0</ele><time>2026-03-29T09:33:13Z</time></trkpt><trkpt lat="42.08518077457834" lon="12.951860913878585"><ele>908.0</ele><time>2026-03-29T09:33:15Z</time></trkpt><trkpt lat="42.08516332591379" lon="12.951946874723063"><ele>908.0000000000001</ele><time>2026-03-29T09:33:17Z</time></trkpt><trkpt lat="42.0851786928846" lon="12.952040074838223"><ele>908.0</ele><time>2026-03-29T09:33:19Z</time></trkpt><trkpt lat="42.08518534965293" lon="12.952132561002292"><ele>907.2</ele><time>2026-03-29T09:33:21Z</time></trkpt><trkpt lat="42.085161844641036" lon="12.952249510983513"><ele>906.4</ele><time>2026-03-29T09:33:23Z</time></trkpt><trkpt lat="42.08516209433685" lon="12.952362286971788"><ele>905.6000000000001</ele><time>2026-03-29T09:33:25Z</time></trkpt><trkpt lat="42.0851304493307" lon="12.952527733444272"><ele>904.8000000000001</ele><time>2026-03-29T09:33:27Z</time></trkpt><trkpt lat="42.08513830999276" lon="12.952647687492272"><ele>904.0</ele><time>2026-03-29T09:33:29Z</time></trkpt><trkpt lat="42.085165729106734" lon="12.952736094638214"><ele>903.4000000000001</ele><time>2026-03-29T09:33:30Z</time></trkpt><trkpt lat="42.085153131934355" lon="12.952915661280977"><ele>902.8000000000001</ele><time>2026-03-29T09:33:32Z</time></trkpt><trkpt lat="42.08514787263063" lon="12.953008923207314"><ele>902.1999999999999</ele><time>2026-03-29T09:33:33Z</time></trkpt><trkpt lat="42.08517069442286" lon="12.953171090964236"><ele>901.5999999999999</ele><time>2026-03-29T09:33:35Z</time></trkpt><trkpt lat="42.08519951076738" lon="12.953262525420628"><ele>901.0</ele><time>2026-03-29T09:33:36Z</time></trkpt><trkpt lat="42.085230743388145" lon="12.953344344381227"><ele>900.4999999999999</ele><time>2026-03-29T09:33:37Z</time></trkpt><trkpt lat="42.085252554120665" lon="12.95346853802918"><ele>900.0</ele><time>2026-03-29T09:33:38.999Z</time></trkpt><trkpt lat="42.08528432901572" lon="12.953545594147755"><ele>899.5</ele><time>2026-03-29T09:33:39.999Z</time></trkpt><trkpt lat="42.0853142005881" lon="12.953639038410309"><ele>899.0</ele><time>2026-03-29T09:33:40.999Z</time></trkpt><trkpt lat="42.08530619303494" lon="12.95377599214452"><ele>898.4999999999999</ele><time>2026-03-29T09:33:42.999Z</time></trkpt><trkpt lat="42.08524180345278" lon="12.953895009380448"><ele>898.0</ele><time>2026-03-29T09:33:44.999Z</time></trkpt><trkpt lat="42.08523204976751" lon="12.953985070765341"><ele>898.0</ele><time>2026-03-29T09:33:45.999Z</time></trkpt><trkpt lat="42.085228939703036" lon="12.954101438491339"><ele>897.9999999999999</ele><time>2026-03-29T09:33:46.999Z</time></trkpt><trkpt lat="42.08522671956855" lon="12.954202926632133"><ele>898.0</ele><time>2026-03-29T09:33:47.999Z</time></trkpt><trkpt lat="42.08522592768982" lon="12.954289749413652"><ele>898.0</ele><time>2026-03-29T09:33:48.999Z</time></trkpt><trkpt lat="42.0852137437361" lon="12.95438137150367"><ele>897.9999999999999</ele><time>2026-03-29T09:33:49.999Z</time></trkpt><trkpt lat="42.085175322661065" lon="12.954461303897185"><ele>898.0</ele><time>2026-03-29T09:33:50.999Z</time></trkpt><trkpt lat="42.08513168731065" lon="12.954554660329004"><ele>898.0</ele><time>2026-03-29T09:33:52.999Z</time></trkpt><trkpt lat="42.08512027105764" lon="12.954685524803333"><ele>899.2</ele><time>2026-03-29T09:33:57.999Z</time></trkpt><trkpt lat="42.085096730638384" lon="12.954812827100708"><ele>900.4</ele><time>2026-03-29T09:33:59.999Z</time></trkpt><trkpt lat="42.08505000462628" lon="12.954935948865042"><ele>901.6000000000001</ele><time>2026-03-29T09:34:02.999Z</time></trkpt><trkpt lat="42.084964409862266" lon="12.955028570219028"><ele>902.8000000000001</ele><time>2026-03-29T09:34:04.999Z</time></trkpt><trkpt lat="42.084879270716236" lon="12.955096191925952"><ele>904.0</ele><time>2026-03-29T09:34:06.999Z</time></trkpt><trkpt lat="42.08479447333111" lon="12.955197548306769"><ele>908.3333333333333</ele><time>2026-03-29T09:34:08.999Z</time></trkpt><trkpt lat="42.084758884599694" lon="12.955272304245062"><ele>912.6666666666666</ele><time>2026-03-29T09:34:09.999Z</time></trkpt><trkpt lat="42.084757202200045" lon="12.955362413841215"><ele>917.0</ele><time>2026-03-29T09:34:10.999Z</time></trkpt><trkpt lat="42.08476952305037" lon="12.955471160635511"><ele>921.3333333333333</ele><time>2026-03-29T09:34:11.999Z</time></trkpt><trkpt lat="42.08479607175876" lon="12.95559260771939"><ele>925.6666666666666</ele><time>2026-03-29T09:34:12.999Z</time></trkpt><trkpt lat="42.08484708770693" lon="12.955703482129596"><ele>930.0</ele><time>2026-03-29T09:34:13.999Z</time></trkpt><trkpt lat="42.0848930979437" lon="12.955806845312727"><ele>930.6666666666666</ele><time>2026-03-29T09:34:14.999Z</time></trkpt><trkpt lat="42.08493395238301" lon="12.955899674995026"><ele>931.3333333333333</ele><time>2026-03-29T09:34:15.999Z</time></trkpt><trkpt lat="42.08499323611054" lon="12.95598034885277"><ele>932.0</ele><time>2026-03-29T09:34:16.999Z</time></trkpt><trkpt lat="42.08506695852057" lon="12.956046965583448"><ele>932.6666666666666</ele><time>2026-03-29T09:34:17.999Z</time></trkpt><trkpt lat="42.08516524584704" lon="12.956099959390802"><ele>933.3333333333333</ele><time>2026-03-29T09:34:18.999Z</time></trkpt><trkpt lat="42.08523629401079" lon="12.956157504986505"><ele>934.0</ele><time>2026-03-29T09:34:19.999Z</time></trkpt><trkpt lat="42.08528830528774" lon="12.956215340275108"><ele>934.0</ele><time>2026-03-29T09:34:20.999Z</time></trkpt><trkpt lat="42.08531426667241" lon="12.956362474345031"><ele>934.0000000000001</ele><time>2026-03-29T09:34:22.999Z</time></trkpt><trkpt lat="42.08532207801753" lon="12.956452400614664"><ele>934.0000000000001</ele><time>2026-03-29T09:34:23.999Z</time></trkpt><trkpt lat="42.085304519081795" lon="12.9565720970388"><ele>934.0</ele><time>2026-03-29T09:34:24.999Z</time></trkpt><trkpt lat="42.08525788664491" lon="12.956716087621901"><ele>934.0</ele><time>2026-03-29T09:34:25.999Z</time></trkpt><trkpt lat="42.08518823216189" lon="12.956878971077641"><ele>932.0</ele><time>2026-03-29T09:34:26.999Z</time></trkpt><trkpt lat="42.08513552393684" lon="12.957039969253373"><ele>930.0</ele><time>2026-03-29T09:34:27.999Z</time></trkpt><trkpt lat="42.08508128159362" lon="12.957258017331831"><ele>928.0</ele><time>2026-03-29T09:34:28.999Z</time></trkpt><trkpt lat="42.08505014571634" lon="12.957482008186796"><ele>925.5999999999999</ele><time>2026-03-29T09:34:29.999Z</time></trkpt><trkpt lat="42.085020016068306" lon="12.957627371765604"><ele>923.1999999999999</ele><time>2026-03-29T09:34:30.999Z</time></trkpt><trkpt lat="42.08498274621117" lon="12.957746234156954"><ele>920.8</ele><time>2026-03-29T09:34:31.999Z</time></trkpt><trkpt lat="42.08493889583489" lon="12.957832418262411"><ele>918.4</ele><time>2026-03-29T09:34:32.999Z</time></trkpt><trkpt lat="42.08486906826712" lon="12.95790911893294"><ele>916.0</ele><time>2026-03-29T09:34:33.999Z</time></trkpt><trkpt lat="42.084779884402465" lon="12.957986483118578"><ele>919.25</ele><time>2026-03-29T09:34:34.999Z</time></trkpt><trkpt lat="42.08465681408202" lon="12.95806905756121"><ele>922.5</ele><time>2026-03-29T09:34:35.999Z</time></trkpt><trkpt lat="42.08452788977956" lon="12.958157288609135"><ele>925.75</ele><time>2026-03-29T09:34:36.999Z</time></trkpt><trkpt lat="42.084460835872235" lon="12.958262378142788"><ele>929.0</ele><time>2026-03-29T09:34:37.999Z</time></trkpt><trkpt lat="42.084405995035674" lon="12.95843154693324"><ele>929.0</ele><time>2026-03-29T09:34:38.999Z</time></trkpt><trkpt lat="42.084360759414636" lon="12.95858168385845"><ele>929.0000000000001</ele><time>2026-03-29T09:34:39.999Z</time></trkpt><trkpt lat="42.08428731162185" lon="12.958681711771494"><ele>929.0000000000001</ele><time>2026-03-29T09:34:40.999Z</time></trkpt><trkpt lat="42.084212725755656" lon="12.958761314708614"><ele>929.0</ele><time>2026-03-29T09:34:41.999Z</time></trkpt><trkpt lat="42.08413692477521" lon="12.95888715806172"><ele>929.0</ele><time>2026-03-29T09:34:42.999Z</time></trkpt><trkpt lat="42.08405897088175" lon="12.959043076404264"><ele>931.5</ele><time>2026-03-29T09:34:43.999Z</time></trkpt><trkpt lat="42.083975622897626" lon="12.959216888865926"><ele>934.0</ele><time>2026-03-29T09:34:44.999Z</time></trkpt><trkpt lat="42.08386955671825" lon="12.95937816655875"><ele>936.5</ele><time>2026-03-29T09:34:45.999Z</time></trkpt><trkpt lat="42.08377353852741" lon="12.959498657364234"><ele>939.0</ele><time>2026-03-29T09:34:46.999Z</time></trkpt><trkpt lat="42.08369222052742" lon="12.959618209286331"><ele>939.0</ele><time>2026-03-29T09:34:47.999Z</time></trkpt><trkpt lat="42.08362586995528" lon="12.959760918175117"><ele>939.0000000000001</ele><time>2026-03-29T09:34:48.999Z</time></trkpt><trkpt lat="42.08357221809965" lon="12.959861002260094"><ele>939.0000000000001</ele><time>2026-03-29T09:34:49.999Z</time></trkpt><trkpt lat="42.08351108179925" lon="12.959921195130002"><ele>939.0</ele><time>2026-03-29T09:34:50.999Z</time></trkpt><trkpt lat="42.083430194781705" lon="12.959941846914765"><ele>939.0</ele><time>2026-03-29T09:34:51.999Z</time></trkpt><trkpt lat="42.08332898850338" lon="12.95993686097019"><ele>942.6</ele><time>2026-03-29T09:34:52.999Z</time></trkpt><trkpt lat="42.0832215238098" lon="12.959915555200832"><ele>946.2</ele><time>2026-03-29T09:34:53.999Z</time></trkpt><trkpt lat="42.083108063533416" lon="12.959898290506253"><ele>949.8000000000001</ele><time>2026-03-29T09:34:54.999Z</time></trkpt><trkpt lat="42.0829980101557" lon="12.959908960109608"><ele>953.4000000000001</ele><time>2026-03-29T09:34:55.999Z</time></trkpt><trkpt lat="42.08290019552605" lon="12.959937505882246"><ele>957.0</ele><time>2026-03-29T09:34:56.999Z</time></trkpt><trkpt lat="42.08280018521567" lon="12.95999554711339"><ele>954.6</ele><time>2026-03-29T09:34:57.999Z</time></trkpt><trkpt lat="42.082708954829464" lon="12.960076408907748"><ele>952.2</ele><time>2026-03-29T09:34:58.999Z</time></trkpt><trkpt lat="42.08261409942822" lon="12.960119970447447"><ele>949.8</ele><time>2026-03-29T09:34:59.999Z</time></trkpt><trkpt lat="42.08252433568997" lon="12.960149050834653"><ele>947.4</ele><time>2026-03-29T09:35:00.999Z</time></trkpt><trkpt lat="42.08244308131496" lon="12.96019959008355"><ele>945.0</ele><time>2026-03-29T09:35:02Z</time></trkpt><trkpt lat="42.082403617956516" lon="12.960269656349245"><ele>945.0</ele><time>2026-03-29T09:35:03Z</time></trkpt><trkpt lat="42.082411894345334" lon="12.960448359840775"><ele>945.0</ele><time>2026-03-29T09:35:05Z</time></trkpt><trkpt lat="42.08244203005921" lon="12.96058360742454"><ele>945.0</ele><time>2026-03-29T09:35:06Z</time></trkpt><trkpt lat="42.08246802746002" lon="12.960716562427931"><ele>945.0</ele><time>2026-03-29T09:35:07Z</time></trkpt><trkpt lat="42.082488023724785" lon="12.960824569488139"><ele>945.0</ele><time>2026-03-29T09:35:08Z</time></trkpt><trkpt lat="42.08249886765724" lon="12.960924307619324"><ele>944.0</ele><time>2026-03-29T09:35:09Z</time></trkpt><trkpt lat="42.082501608968144" lon="12.961022098896374"><ele>943.0</ele><time>2026-03-29T09:35:10Z</time></trkpt><trkpt lat="42.08247139476479" lon="12.96112415706493"><ele>942.0</ele><time>2026-03-29T09:35:11Z</time></trkpt><trkpt lat="42.082441272378475" lon="12.961252848711233"><ele>941.0</ele><time>2026-03-29T09:35:12Z</time></trkpt><trkpt lat="42.08242022542603" lon="12.961378575696816"><ele>940.0</ele><time>2026-03-29T09:35:13Z</time></trkpt><trkpt lat="42.08242550907572" lon="12.96150024045922"><ele>939.0</ele><time>2026-03-29T09:35:14Z</time></trkpt><trkpt lat="42.08245186107599" lon="12.961654635507596"><ele>938.25</ele><time>2026-03-29T09:35:15Z</time></trkpt><trkpt lat="42.08247081911531" lon="12.961823958808942"><ele>937.5</ele><time>2026-03-29T09:35:16Z</time></trkpt><trkpt lat="42.08246900115317" lon="12.96198651715562"><ele>936.75</ele><time>2026-03-29T09:35:17Z</time></trkpt><trkpt lat="42.08245213113176" lon="12.962130676169057"><ele>936.0</ele><time>2026-03-29T09:35:18Z</time></trkpt><trkpt lat="42.08241866078618" lon="12.962251429397558"><ele>942.25</ele><time>2026-03-29T09:35:19Z</time></trkpt><trkpt lat="42.0823646718761" lon="12.962393749201622"><ele>948.5</ele><time>2026-03-29T09:35:20Z</time></trkpt><trkpt lat="42.08231322255737" lon="12.962535402679364"><ele>954.75</ele><time>2026-03-29T09:35:21Z</time></trkpt><trkpt lat="42.08228667552045" lon="12.962672530508549"><ele>961.0</ele><time>2026-03-29T09:35:22Z</time></trkpt><trkpt lat="42.08229113292602" lon="12.962843106086947"><ele>961.0</ele><time>2026-03-29T09:35:23Z</time></trkpt><trkpt lat="42.08232677930194" lon="12.963026972988251"><ele>961.0</ele><time>2026-03-29T09:35:24Z</time></trkpt><trkpt lat="42.08235167546078" lon="12.963217642864205"><ele>961.0</ele><time>2026-03-29T09:35:25Z</time></trkpt><trkpt lat="42.08234978124979" lon="12.963417680134855"><ele>961.0</ele><time>2026-03-29T09:35:26Z</time></trkpt><trkpt lat="42.082327342070805" lon="12.963554094329167"><ele>958.25</ele><time>2026-03-29T09:35:27Z</time></trkpt><trkpt lat="42.08230193158603" lon="12.963679964070659"><ele>955.5</ele><time>2026-03-29T09:35:28Z</time></trkpt><trkpt lat="42.08225158699943" lon="12.96382774213719"><ele>952.75</ele><time>2026-03-29T09:35:29Z</time></trkpt><trkpt lat="42.08218563069541" lon="12.963993506907551"><ele>950.0</ele><time>2026-03-29T09:35:30Z</time></trkpt><trkpt lat="42.08213937336953" lon="12.964122766609904"><ele>949.5</ele><time>2026-03-29T09:35:31Z</time></trkpt><trkpt lat="42.082087715848715" lon="12.964221202087254"><ele>949.0</ele><time>2026-03-29T09:35:32Z</time></trkpt><trkpt lat="42.081997024148066" lon="12.964322976097746"><ele>948.5</ele><time>2026-03-29T09:35:33Z</time></trkpt><trkpt lat="42.0818938891861" lon="12.964431806925456"><ele>948.0</ele><time>2026-03-29T09:35:34Z</time></trkpt><trkpt lat="42.08179124062465" lon="12.96458160523242"><ele>948.0</ele><time>2026-03-29T09:35:35Z</time></trkpt><trkpt lat="42.08170923052657" lon="12.964737950891799"><ele>948.0</ele><time>2026-03-29T09:35:36Z</time></trkpt><trkpt lat="42.08166541397669" lon="12.964879959155342"><ele>948.0</ele><time>2026-03-29T09:35:37Z</time></trkpt><trkpt lat="42.081672184884965" lon="12.964991264517757"><ele>948.0</ele><time>2026-03-29T09:35:38Z</time></trkpt><trkpt lat="42.08170445865052" lon="12.965111921838265"><ele>948.0</ele><time>2026-03-29T09:35:39Z</time></trkpt><trkpt lat="42.08176377148054" lon="12.965226431265181"><ele>947.5999999999999</ele><time>2026-03-29T09:35:40Z</time></trkpt><trkpt lat="42.08183101685335" lon="12.965310437101408"><ele>947.1999999999999</ele><time>2026-03-29T09:35:40.999Z</time></trkpt><trkpt lat="42.08190441747454" lon="12.965348304742635"><ele>946.8</ele><time>2026-03-29T09:35:41.999Z</time></trkpt><trkpt lat="42.08198551627751" lon="12.965432845229113"><ele>946.4</ele><time>2026-03-29T09:35:42.999Z</time></trkpt><trkpt lat="42.082048025887495" lon="12.965518924081348"><ele>946.0</ele><time>2026-03-29T09:35:43.999Z</time></trkpt><trkpt lat="42.082046013035715" lon="12.965662957329922"><ele>946.0</ele><time>2026-03-29T09:35:45.999Z</time></trkpt><trkpt lat="42.08198643767448" lon="12.96576404941114"><ele>945.9999999999999</ele><time>2026-03-29T09:35:46.999Z</time></trkpt><trkpt lat="42.08189576805683" lon="12.965884507121919"><ele>945.9999999999999</ele><time>2026-03-29T09:35:47.999Z</time></trkpt><trkpt lat="42.08181691211667" lon="12.965992781770426"><ele>946.0</ele><time>2026-03-29T09:35:48.999Z</time></trkpt><trkpt lat="42.08177912266434" lon="12.9661122572766"><ele>946.0</ele><time>2026-03-29T09:35:49.999Z</time></trkpt><trkpt lat="42.081768930729105" lon="12.966247705749234"><ele>944.8333333333333</ele><time>2026-03-29T09:35:50.999Z</time></trkpt><trkpt lat="42.081809149014305" lon="12.966375909112848"><ele>943.6666666666666</ele><time>2026-03-29T09:35:51.999Z</time></trkpt><trkpt lat="42.08187450024383" lon="12.966456587809553"><ele>942.5</ele><time>2026-03-29T09:35:52.999Z</time></trkpt><trkpt lat="42.08195342118718" lon="12.966512280923249"><ele>941.3333333333333</ele><time>2026-03-29T09:35:53.999Z</time></trkpt><trkpt lat="42.08200828141775" lon="12.966559781381651"><ele>940.1666666666666</ele><time>2026-03-29T09:35:54.999Z</time></trkpt><trkpt lat="42.082028392812845" lon="12.96668491853295"><ele>939.0</ele><time>2026-03-29T09:35:56.999Z</time></trkpt><trkpt lat="42.08196393096999" lon="12.966789793337242"><ele>938.6666666666666</ele><time>2026-03-29T09:35:58.999Z</time></trkpt><trkpt lat="42.08189727750137" lon="12.966832927718013"><ele>938.3333333333333</ele><time>2026-03-29T09:35:59.999Z</time></trkpt><trkpt lat="42.08181475065975" lon="12.96688606212039"><ele>938.0</ele><time>2026-03-29T09:36:00.999Z</time></trkpt><trkpt lat="42.081731731860366" lon="12.966939853823348"><ele>937.6666666666666</ele><time>2026-03-29T09:36:01.999Z</time></trkpt><trkpt lat="42.081668982166036" lon="12.966998284194371"><ele>937.3333333333333</ele><time>2026-03-29T09:36:02.999Z</time></trkpt><trkpt lat="42.08163525961995" lon="12.96708656019397"><ele>937.0</ele><time>2026-03-29T09:36:03.999Z</time></trkpt><trkpt lat="42.08163035635248" lon="12.967177701795313"><ele>937.0</ele><time>2026-03-29T09:36:04.999Z</time></trkpt><trkpt lat="42.08165271588217" lon="12.967265107844403"><ele>937.0</ele><time>2026-03-29T09:36:05.999Z</time></trkpt><trkpt lat="42.081713121081954" lon="12.967364285848275"><ele>937.0</ele><time>2026-03-29T09:36:06.999Z</time></trkpt><trkpt lat="42.08179884587431" lon="12.96746525369466"><ele>937.0</ele><time>2026-03-29T09:36:07.999Z</time></trkpt><trkpt lat="42.08189612087828" lon="12.967568895403275"><ele>937.0</ele><time>2026-03-29T09:36:08.999Z</time></trkpt><trkpt lat="42.081963290876494" lon="12.967662290493381"><ele>937.25</ele><time>2026-03-29T09:36:09.999Z</time></trkpt><trkpt lat="42.08198101041359" lon="12.96784544415927"><ele>937.5</ele><time>2026-03-29T09:36:11.999Z</time></trkpt><trkpt lat="42.08196156579467" lon="12.967981459853858"><ele>937.75</ele><time>2026-03-29T09:36:12.999Z</time></trkpt><trkpt lat="42.08191995195802" lon="12.968125526168143"><ele>938.0</ele><time>2026-03-29T09:36:13.999Z</time></trkpt><trkpt lat="42.08189370637929" lon="12.968252556567299"><ele>940.4</ele><time>2026-03-29T09:36:14.999Z</time></trkpt><trkpt lat="42.08188715134449" lon="12.968370371562262"><ele>942.8</ele><time>2026-03-29T09:36:15.999Z</time></trkpt><trkpt lat="42.08191988775918" lon="12.96847395261074"><ele>945.2</ele><time>2026-03-29T09:36:16.999Z</time></trkpt><trkpt lat="42.08198299846987" lon="12.968568846562048"><ele>947.6</ele><time>2026-03-29T09:36:17.999Z</time></trkpt><trkpt lat="42.08208132563833" lon="12.968641719778633"><ele>950.0</ele><time>2026-03-29T09:36:18.999Z</time></trkpt><trkpt lat="42.08218560270786" lon="12.968690408453028"><ele>950.0000000000001</ele><time>2026-03-29T09:36:19.999Z</time></trkpt><trkpt lat="42.08227826214858" lon="12.968700875437161"><ele>950.0</ele><time>2026-03-29T09:36:20.999Z</time></trkpt><trkpt lat="42.08237373918719" lon="12.968705001221794"><ele>950.0</ele><time>2026-03-29T09:36:21.999Z</time></trkpt><trkpt lat="42.082451532770484" lon="12.968703439214181"><ele>950.0</ele><time>2026-03-29T09:36:22.999Z</time></trkpt><trkpt lat="42.08251966651408" lon="12.968698130961599"><ele>950.0000000000001</ele><time>2026-03-29T09:36:23.999Z</time></trkpt><trkpt lat="42.08259217500294" lon="12.968696828835633"><ele>950.0</ele><time>2026-03-29T09:36:24.999Z</time></trkpt><trkpt lat="42.08269681751163" lon="12.968706733536814"><ele>949.1428571428572</ele><time>2026-03-29T09:36:26.999Z</time></trkpt><trkpt lat="42.08275889028503" lon="12.968726578626814"><ele>948.2857142857144</ele><time>2026-03-29T09:36:29.999Z</time></trkpt><trkpt lat="42.082813093975766" lon="12.9687929334564"><ele>947.4285714285714</ele><time>2026-03-29T09:36:31.999Z</time></trkpt><trkpt lat="42.08285942482192" lon="12.968854841940797"><ele>946.5714285714287</ele><time>2026-03-29T09:36:34.999Z</time></trkpt><trkpt lat="42.082869825291844" lon="12.968950874175542"><ele>945.7142857142858</ele><time>2026-03-29T09:36:36.999Z</time></trkpt><trkpt lat="42.082818879592196" lon="12.96902507477913"><ele>944.8571428571429</ele><time>2026-03-29T09:36:38.999Z</time></trkpt><trkpt lat="42.08278976420629" lon="12.969150850137726"><ele>944.0</ele><time>2026-03-29T09:36:40.999Z</time></trkpt><trkpt lat="42.08276322108366" lon="12.969291077134566"><ele>944.0000000000001</ele><time>2026-03-29T09:36:42.999Z</time></trkpt><trkpt lat="42.082706739748225" lon="12.969361202123697"><ele>944.0</ele><time>2026-03-29T09:36:44.999Z</time></trkpt><trkpt lat="42.08265170248638" lon="12.969428355861874"><ele>944.0</ele><time>2026-03-29T09:36:46.999Z</time></trkpt><trkpt lat="42.08257631059798" lon="12.969411904131702"><ele>944.0</ele><time>2026-03-29T09:36:48.999Z</time></trkpt><trkpt lat="42.082512915843964" lon="12.969383621246374"><ele>944.0000000000001</ele><time>2026-03-29T09:36:51.999Z</time></trkpt><trkpt lat="42.082431523824035" lon="12.969350399638426"><ele>944.0</ele><time>2026-03-29T09:36:59.999Z</time></trkpt><trkpt lat="42.082340475427664" lon="12.969320242254813"><ele>945.4000000000001</ele><time>2026-03-29T09:37:02.999Z</time></trkpt><trkpt lat="42.08227537596774" lon="12.969309187809118"><ele>946.8000000000001</ele><time>2026-03-29T09:37:04.999Z</time></trkpt><trkpt lat="42.08219907804421" lon="12.969252132268743"><ele>948.1999999999999</ele><time>2026-03-29T09:37:08Z</time></trkpt><trkpt lat="42.082081012532356" lon="12.969303624261293"><ele>949.5999999999999</ele><time>2026-03-29T09:37:10Z</time></trkpt><trkpt lat="42.081969471313776" lon="12.969335025722632"><ele>951.0</ele><time>2026-03-29T09:37:12Z</time></trkpt><trkpt lat="42.081970573837445" lon="12.969425162368232"><ele>951.0</ele><time>2026-03-29T09:37:17Z</time></trkpt><trkpt lat="42.08194722412224" lon="12.969510681757075"><ele>950.9999999999999</ele><time>2026-03-29T09:37:22Z</time></trkpt><trkpt lat="42.08191033806989" lon="12.969669898905817"><ele>950.9999999999999</ele><time>2026-03-29T09:37:24Z</time></trkpt><trkpt lat="42.08186908598735" lon="12.969814992431408"><ele>951.0</ele><time>2026-03-29T09:37:26Z</time></trkpt><trkpt lat="42.08182275183379" lon="12.96989663220241"><ele>951.0</ele><time>2026-03-29T09:37:28Z</time></trkpt><trkpt lat="42.08175482201043" lon="12.969951856612614"><ele>949.8333333333334</ele><time>2026-03-29T09:37:32Z</time></trkpt><trkpt lat="42.081694559634876" lon="12.970039804863276"><ele>948.6666666666667</ele><time>2026-03-29T09:37:34Z</time></trkpt><trkpt lat="42.081642059348425" lon="12.970098970710985"><ele>947.5</ele><time>2026-03-29T09:37:36Z</time></trkpt><trkpt lat="42.08159680982302" lon="12.970176787803384"><ele>946.3333333333334</ele><time>2026-03-29T09:37:39Z</time></trkpt><trkpt lat="42.08150162012949" lon="12.97023742085906"><ele>945.1666666666667</ele><time>2026-03-29T09:37:41Z</time></trkpt><trkpt lat="42.08142422058551" lon="12.970275284183566"><ele>944.0</ele><time>2026-03-29T09:37:43Z</time></trkpt><trkpt lat="42.081351210572144" lon="12.970233475645138"><ele>944.0000000000001</ele><time>2026-03-29T09:37:45Z</time></trkpt><trkpt lat="42.08128873393865" lon="12.970165352168829"><ele>944.0</ele><time>2026-03-29T09:37:48Z</time></trkpt><trkpt lat="42.081210083183564" lon="12.97005991870066"><ele>944.0</ele><time>2026-03-29T09:37:49.999Z</time></trkpt><trkpt lat="42.081183657667275" lon="12.969942413246573"><ele>944.0</ele><time>2026-03-29T09:37:52.999Z</time></trkpt><trkpt lat="42.08113875284077" lon="12.969848187815263"><ele>944.0000000000001</ele><time>2026-03-29T09:37:54.999Z</time></trkpt><trkpt lat="42.08107677138648" lon="12.969828818153006"><ele>944.0</ele><time>2026-03-29T09:37:55.999Z</time></trkpt><trkpt lat="42.08097241173669" lon="12.969834357132132"><ele>947.0000000000001</ele><time>2026-03-29T09:37:57.999Z</time></trkpt><trkpt lat="42.080904111498015" lon="12.969768493956485"><ele>950.0</ele><time>2026-03-29T09:37:58.999Z</time></trkpt><trkpt lat="42.08085762292974" lon="12.969701905443463"><ele>953.0</ele><time>2026-03-29T09:37:59.999Z</time></trkpt><trkpt lat="42.080781710285635" lon="12.969676377312219"><ele>956.0</ele><time>2026-03-29T09:38:01.999Z</time></trkpt><trkpt lat="42.08069701145218" lon="12.96970887607958"><ele>959.0000000000001</ele><time>2026-03-29T09:38:03.999Z</time></trkpt><trkpt lat="42.08061493856913" lon="12.96971853976118"><ele>962.0</ele><time>2026-03-29T09:38:05.999Z</time></trkpt><trkpt lat="42.08054245418376" lon="12.969649877284272"><ele>963.3333333333334</ele><time>2026-03-29T09:38:08.999Z</time></trkpt><trkpt lat="42.08046557707849" lon="12.969567992394468"><ele>964.6666666666667</ele><time>2026-03-29T09:38:11.999Z</time></trkpt><trkpt lat="42.08038321018261" lon="12.96963511419958"><ele>966.0</ele><time>2026-03-29T09:38:13.999Z</time></trkpt><trkpt lat="42.080340804159164" lon="12.969711066881183"><ele>967.3333333333333</ele><time>2026-03-29T09:38:15.999Z</time></trkpt><trkpt lat="42.08031452095444" lon="12.969797364673337"><ele>968.6666666666666</ele><time>2026-03-29T09:38:18.999Z</time></trkpt><trkpt lat="42.08026417941043" lon="12.969923387962913"><ele>970.0</ele><time>2026-03-29T09:38:20.999Z</time></trkpt><trkpt lat="42.08022228934387" lon="12.970016445298752"><ele>969.3333333333333</ele><time>2026-03-29T09:38:22.999Z</time></trkpt><trkpt lat="42.08015872486514" lon="12.970079553997472"><ele>968.6666666666666</ele><time>2026-03-29T09:38:35.999Z</time></trkpt><trkpt lat="42.08009332755549" lon="12.970111476207418"><ele>968.0</ele><time>2026-03-29T09:38:40.999Z</time></trkpt><trkpt lat="42.08004685434003" lon="12.970196746118704"><ele>967.3333333333333</ele><time>2026-03-29T09:38:49.999Z</time></trkpt><trkpt lat="42.07997685798296" lon="12.97025956261404"><ele>966.6666666666666</ele><time>2026-03-29T09:38:51.999Z</time></trkpt><trkpt lat="42.079903184407975" lon="12.970276511101677"><ele>966.0</ele><time>2026-03-29T09:38:53.999Z</time></trkpt><trkpt lat="42.07978452394062" lon="12.970336690541869"><ele>966.0</ele><time>2026-03-29T09:38:54.999Z</time></trkpt><trkpt lat="42.079692389818455" lon="12.970373508542973"><ele>965.9999999999999</ele><time>2026-03-29T09:38:56.999Z</time></trkpt><trkpt lat="42.079620508140515" lon="12.970420648732691"><ele>965.9999999999999</ele><time>2026-03-29T09:39:42Z</time></trkpt><trkpt lat="42.07951921721615" lon="12.970448049799595"><ele>966.0</ele><time>2026-03-29T09:39:44Z</time></trkpt><trkpt lat="42.07947340765535" lon="12.970356285123211"><ele>966.0</ele><time>2026-03-29T09:39:47Z</time></trkpt><trkpt lat="42.07946015589233" lon="12.970238790297511"><ele>966.0</ele><time>2026-03-29T09:39:49Z</time></trkpt><trkpt lat="42.079442646425036" lon="12.97013618574493"><ele>965.9999999999999</ele><time>2026-03-29T09:39:51Z</time></trkpt><trkpt lat="42.07942339774132" lon="12.969997120713817"><ele>965.9999999999999</ele><time>2026-03-29T09:39:52.999Z</time></trkpt><trkpt lat="42.07935077959183" lon="12.969909206045653"><ele>966.0</ele><time>2026-03-29T09:39:54.999Z</time></trkpt><trkpt lat="42.07929191199423" lon="12.969846377260403"><ele>966.0</ele><time>2026-03-29T09:39:56.999Z</time></trkpt><trkpt lat="42.0792129969847" lon="12.969777849556358"><ele>969.1999999999999</ele><time>2026-03-29T09:39:58.999Z</time></trkpt><trkpt lat="42.07912061552344" lon="12.969730576570683"><ele>972.3999999999999</ele><time>2026-03-29T09:40:01.999Z</time></trkpt><trkpt lat="42.07904297625804" lon="12.969664785398537"><ele>975.6</ele><time>2026-03-29T09:40:03.999Z</time></trkpt><trkpt lat="42.078946276184205" lon="12.969615222356476"><ele>978.8</ele><time>2026-03-29T09:40:05.999Z</time></trkpt><trkpt lat="42.078825802904795" lon="12.969633391528703"><ele>982.0</ele><time>2026-03-29T09:40:07.999Z</time></trkpt><trkpt lat="42.078730601724914" lon="12.969637912273857"><ele>982.3333333333333</ele><time>2026-03-29T09:40:09.999Z</time></trkpt><trkpt lat="42.078666370928694" lon="12.969675091583907"><ele>982.6666666666666</ele><time>2026-03-29T09:40:11.999Z</time></trkpt><trkpt lat="42.078581935292796" lon="12.969738589073833"><ele>983.0</ele><time>2026-03-29T09:40:13.999Z</time></trkpt><trkpt lat="42.07850352072445" lon="12.969878996167333"><ele>983.3333333333333</ele><time>2026-03-29T09:40:15.999Z</time></trkpt><trkpt lat="42.07847729803243" lon="12.969975534220557"><ele>983.6666666666666</ele><time>2026-03-29T09:40:16.999Z</time></trkpt><trkpt lat="42.07846017948084" lon="12.970069182839817"><ele>984.0</ele><time>2026-03-29T09:40:17.999Z</time></trkpt><trkpt lat="42.07843970186139" lon="12.970157237099368"><ele>982.8000000000001</ele><time>2026-03-29T09:40:18.999Z</time></trkpt><trkpt lat="42.078431555865706" lon="12.97030586098519"><ele>981.6000000000001</ele><time>2026-03-29T09:40:19.999Z</time></trkpt><trkpt lat="42.078416766452634" lon="12.970452435611744"><ele>980.4</ele><time>2026-03-29T09:40:20.999Z</time></trkpt><trkpt lat="42.07838090680918" lon="12.970572816237299"><ele>979.2</ele><time>2026-03-29T09:40:21.999Z</time></trkpt><trkpt lat="42.078328277619235" lon="12.970646949563438"><ele>978.0</ele><time>2026-03-29T09:40:22.999Z</time></trkpt><trkpt lat="42.07827248586204" lon="12.970733057771975"><ele>976.0</ele><time>2026-03-29T09:40:23.999Z</time></trkpt><trkpt lat="42.07823481030842" lon="12.970823922495896"><ele>974.0</ele><time>2026-03-29T09:40:24.999Z</time></trkpt><trkpt lat="42.078217725732856" lon="12.970957863988838"><ele>972.0</ele><time>2026-03-29T09:40:26.999Z</time></trkpt><trkpt lat="42.078153124684114" lon="12.970994669561374"><ele>970.0</ele><time>2026-03-29T09:40:32.999Z</time></trkpt><trkpt lat="42.07805833760284" lon="12.971002621771529"><ele>968.0</ele><time>2026-03-29T09:40:34.999Z</time></trkpt><trkpt lat="42.07798403054746" lon="12.971030928370645"><ele>966.0</ele><time>2026-03-29T09:40:35.999Z</time></trkpt><trkpt lat="42.07779751246766" lon="12.97107968224925"><ele>964.8</ele><time>2026-03-29T09:40:38.999Z</time></trkpt><trkpt lat="42.077717533052926" lon="12.971135335818945"><ele>963.5999999999999</ele><time>2026-03-29T09:40:40.999Z</time></trkpt><trkpt lat="42.07776210596454" lon="12.971207951180224"><ele>962.4</ele><time>2026-03-29T09:40:43.999Z</time></trkpt><trkpt lat="42.077754274036025" lon="12.971318908806639"><ele>961.2</ele><time>2026-03-29T09:40:46.999Z</time></trkpt><trkpt lat="42.07768225079198" lon="12.971269292517615"><ele>960.0</ele><time>2026-03-29T09:40:48.999Z</time></trkpt><trkpt lat="42.07757142519218" lon="12.971188034431947"><ele>960.0</ele><time>2026-03-29T09:40:50.999Z</time></trkpt><trkpt lat="42.07749503602509" lon="12.971186883785068"><ele>960.0</ele><time>2026-03-29T09:40:51.999Z</time></trkpt><trkpt lat="42.07742890685572" lon="12.971271057954977"><ele>960.0</ele><time>2026-03-29T09:40:53.999Z</time></trkpt><trkpt lat="42.07737365542052" lon="12.971335940894567"><ele>960.0</ele><time>2026-03-29T09:40:55.999Z</time></trkpt><trkpt lat="42.07730917282824" lon="12.97130164605583"><ele>960.0</ele><time>2026-03-29T09:41:01.999Z</time></trkpt><trkpt lat="42.0773019272525" lon="12.971182596085129"><ele>960.0</ele><time>2026-03-29T09:41:03.999Z</time></trkpt><trkpt lat="42.077288027618124" lon="12.971094001365204"><ele>960.6666666666666</ele><time>2026-03-29T09:41:05.999Z</time></trkpt><trkpt lat="42.07727709590774" lon="12.971001523089527"><ele>961.3333333333333</ele><time>2026-03-29T09:41:07.999Z</time></trkpt><trkpt lat="42.077321521137705" lon="12.97087879060955"><ele>962.0</ele><time>2026-03-29T09:41:11.999Z</time></trkpt><trkpt lat="42.07734599506763" lon="12.97079183171346"><ele>962.6666666666666</ele><time>2026-03-29T09:41:13.999Z</time></trkpt><trkpt lat="42.077335604988974" lon="12.970669615138595"><ele>963.3333333333333</ele><time>2026-03-29T09:41:17.999Z</time></trkpt><trkpt lat="42.07725159718322" lon="12.970636235259093"><ele>964.0</ele><time>2026-03-29T09:41:21Z</time></trkpt><trkpt lat="42.077187326134386" lon="12.970689066567404"><ele>963.9999999999999</ele><time>2026-03-29T09:41:24Z</time></trkpt><trkpt lat="42.07711567455164" lon="12.970704524894549"><ele>964.0</ele><time>2026-03-29T09:42:00.999Z</time></trkpt><trkpt lat="42.077082288478024" lon="12.970779403003156"><ele>964.0</ele><time>2026-03-29T09:42:15.999Z</time></trkpt><trkpt lat="42.07706741948685" lon="12.97086826279901"><ele>964.0</ele><time>2026-03-29T09:42:34.999Z</time></trkpt><trkpt lat="42.07701960919114" lon="12.971026343348818"><ele>963.9999999999999</ele><time>2026-03-29T09:43:11.999Z</time></trkpt><trkpt lat="42.07700089585434" lon="12.971131901044348"><ele>964.0</ele><time>2026-03-29T09:43:23.999Z</time></trkpt><trkpt lat="42.07693135709904" lon="12.9712037812827"><ele>962.1428571428572</ele><time>2026-03-29T09:43:46Z</time></trkpt><trkpt lat="42.076909702106605" lon="12.971301919516495"><ele>960.2857142857144</ele><time>2026-03-29T09:43:53.999Z</time></trkpt><trkpt lat="42.076874391939015" lon="12.971390707273104"><ele>958.4285714285714</ele><time>2026-03-29T09:44:05.999Z</time></trkpt><trkpt lat="42.07684531364276" lon="12.971480926300414"><ele>956.5714285714287</ele><time>2026-03-29T09:44:12.999Z</time></trkpt><trkpt lat="42.07680693160724" lon="12.971550323804163"><ele>954.7142857142858</ele><time>2026-03-29T09:44:16.999Z</time></trkpt><trkpt lat="42.07680579479533" lon="12.971640787035275"><ele>952.8571428571429</ele><time>2026-03-29T09:44:26.999Z</time></trkpt><trkpt lat="42.07680950280043" lon="12.971760036170553"><ele>951.0</ele><time>2026-03-29T09:44:30.999Z</time></trkpt><trkpt lat="42.07682329681749" lon="12.971847397559445"><ele>951.2857142857142</ele><time>2026-03-29T09:44:32.999Z</time></trkpt><trkpt lat="42.076766470607296" lon="12.971932817563632"><ele>951.5714285714287</ele><time>2026-03-29T09:44:35.999Z</time></trkpt><trkpt lat="42.07676358010386" lon="12.972029445873586"><ele>951.8571428571429</ele><time>2026-03-29T09:44:38.999Z</time></trkpt><trkpt lat="42.07668822977261" lon="12.972064670340266"><ele>952.1428571428571</ele><time>2026-03-29T09:44:45.999Z</time></trkpt><trkpt lat="42.076648578303455" lon="12.97213843271774"><ele>952.4285714285713</ele><time>2026-03-29T09:44:50.999Z</time></trkpt><trkpt lat="42.07660040468874" lon="12.972204001207885"><ele>952.7142857142858</ele><time>2026-03-29T09:44:57.999Z</time></trkpt><trkpt lat="42.07658580546728" lon="12.972300234745992"><ele>953.0</ele><time>2026-03-29T09:45:02.999Z</time></trkpt><trkpt lat="42.076587458519256" lon="12.972386318708994"><ele>953.0000000000001</ele><time>2026-03-29T09:45:05.999Z</time></trkpt><trkpt lat="42.076562405628295" lon="12.972492042099866"><ele>953.0</ele><time>2026-03-29T09:45:08.999Z</time></trkpt><trkpt lat="42.076536920324145" lon="12.972618322736112"><ele>953.0</ele><time>2026-03-29T09:45:32Z</time></trkpt><trkpt lat="42.07656679254238" lon="12.972708154801056"><ele>953.0</ele><time>2026-03-29T09:45:40Z</time></trkpt><trkpt lat="42.07658834248119" lon="12.972833454297342"><ele>953.0000000000001</ele><time>2026-03-29T09:45:47Z</time></trkpt><trkpt lat="42.07665458363405" lon="12.972854666487112"><ele>953.0</ele><time>2026-03-29T09:45:54Z</time></trkpt><trkpt lat="42.07668932026291" lon="12.972931975388178"><ele>953.1428571428571</ele><time>2026-03-29T09:45:57.999Z</time></trkpt><trkpt lat="42.076709852691316" lon="12.973025246286761"><ele>953.2857142857142</ele><time>2026-03-29T09:46:10.999Z</time></trkpt><trkpt lat="42.07668152906217" lon="12.97312074610949"><ele>953.4285714285713</ele><time>2026-03-29T09:46:29.999Z</time></trkpt><trkpt lat="42.07661595245045" lon="12.97312723074733"><ele>953.5714285714286</ele><time>2026-03-29T09:46:50.999Z</time></trkpt><trkpt lat="42.076598963668346" lon="12.973031452808023"><ele>953.7142857142856</ele><time>2026-03-29T09:46:54.999Z</time></trkpt><trkpt lat="42.076592722944085" lon="12.972940525230452"><ele>953.8571428571428</ele><time>2026-03-29T09:47:01.999Z</time></trkpt><trkpt lat="42.0765322695369" lon="12.972892615048595"><ele>954.0</ele><time>2026-03-29T09:47:08.999Z</time></trkpt><trkpt lat="42.07650433527419" lon="12.972792946170564"><ele>954.0</ele><time>2026-03-29T09:47:17.999Z</time></trkpt><trkpt lat="42.07643074333052" lon="12.972846882756672"><ele>954.0</ele><time>2026-03-29T09:47:20.999Z</time></trkpt><trkpt lat="42.07636943728583" lon="12.972790946554476"><ele>954.0</ele><time>2026-03-29T09:47:29.999Z</time></trkpt><trkpt lat="42.07630089467323" lon="12.972800560729604"><ele>954.0</ele><time>2026-03-29T09:47:40Z</time></trkpt><trkpt lat="42.07624176276087" lon="12.972705393019254"><ele>954.0</ele><time>2026-03-29T09:47:43Z</time></trkpt><trkpt lat="42.07615735601008" lon="12.972708566609294"><ele>954.0</ele><time>2026-03-29T09:47:46Z</time></trkpt><trkpt lat="42.07608712397125" lon="12.972638065401576"><ele>954.0</ele><time>2026-03-29T09:47:50Z</time></trkpt><trkpt lat="42.07610549837159" lon="12.972533290984234"><ele>953.9999999999999</ele><time>2026-03-29T09:47:52Z</time></trkpt><trkpt lat="42.07607860341075" lon="12.972441715189953"><ele>954.0</ele><time>2026-03-29T09:48:20.999Z</time></trkpt><trkpt lat="42.07600690471095" lon="12.972433181457616"><ele>954.0</ele><time>2026-03-29T09:48:23.999Z</time></trkpt><trkpt lat="42.075939252940664" lon="12.972403736646454"><ele>953.9999999999999</ele><time>2026-03-29T09:48:28.999Z</time></trkpt><trkpt lat="42.0758664885595" lon="12.972407589079733"><ele>954.0</ele><time>2026-03-29T09:48:31.999Z</time></trkpt><trkpt lat="42.075802491689934" lon="12.972344486079235"><ele>954.0</ele><time>2026-03-29T09:48:35.999Z</time></trkpt><trkpt lat="42.07575245612615" lon="12.972261351985246"><ele>957.1666666666666</ele><time>2026-03-29T09:48:39.999Z</time></trkpt><trkpt lat="42.07573787676642" lon="12.972171997679489"><ele>960.3333333333333</ele><time>2026-03-29T09:48:44.999Z</time></trkpt><trkpt lat="42.075648197115484" lon="12.972125545838002"><ele>963.5</ele><time>2026-03-29T09:48:48.999Z</time></trkpt><trkpt lat="42.07552332266587" lon="12.97209181053772"><ele>966.6666666666666</ele><time>2026-03-29T09:48:51.999Z</time></trkpt><trkpt lat="42.07546550987972" lon="12.972044313103003"><ele>969.8333333333333</ele><time>2026-03-29T09:48:54.999Z</time></trkpt><trkpt lat="42.07538883830025" lon="12.972011055677065"><ele>973.0</ele><time>2026-03-29T09:48:56.999Z</time></trkpt><trkpt lat="42.07532042827737" lon="12.971961853022506"><ele>972.9999999999999</ele><time>2026-03-29T09:48:58.999Z</time></trkpt><trkpt lat="42.07529270998965" lon="12.971872991990304"><ele>973.0</ele><time>2026-03-29T09:49:01.999Z</time></trkpt><trkpt lat="42.07527434546959" lon="12.97178087970803"><ele>973.0</ele><time>2026-03-29T09:49:03.999Z</time></trkpt><trkpt lat="42.07527118542442" lon="12.971670179612648"><ele>973.0</ele><time>2026-03-29T09:49:05.999Z</time></trkpt><trkpt lat="42.075214205360105" lon="12.971607965170868"><ele>972.9999999999999</ele><time>2026-03-29T09:49:07.999Z</time></trkpt><trkpt lat="42.0751564887876" lon="12.971536719360746"><ele>973.0</ele><time>2026-03-29T09:49:09.999Z</time></trkpt><trkpt lat="42.07501857230808" lon="12.971315524036743"><ele>973.8333333333333</ele><time>2026-03-29T09:49:12.999Z</time></trkpt><trkpt lat="42.07504880791269" lon="12.971221564155842"><ele>974.6666666666666</ele><time>2026-03-29T09:49:14.999Z</time></trkpt><trkpt lat="42.07507635205687" lon="12.971321023091388"><ele>975.5</ele><time>2026-03-29T09:49:36.998Z</time></trkpt><trkpt lat="42.07503061465127" lon="12.971407457954522"><ele>976.3333333333333</ele><time>2026-03-29T09:49:38.998Z</time></trkpt><trkpt lat="42.075093107404655" lon="12.971462138021026"><ele>977.1666666666666</ele><time>2026-03-29T09:49:40.998Z</time></trkpt><trkpt lat="42.07514315105655" lon="12.971527958782005"><ele>978.0</ele><time>2026-03-29T09:49:42.998Z</time></trkpt><trkpt lat="42.07519815271867" lon="12.971618931795978"><ele>977.1666666666666</ele><time>2026-03-29T09:49:45.999Z</time></trkpt><trkpt lat="42.075229857929706" lon="12.97170226717891"><ele>976.3333333333333</ele><time>2026-03-29T09:49:49Z</time></trkpt><trkpt lat="42.0752458168263" lon="12.97179942173037"><ele>975.5</ele><time>2026-03-29T09:49:52Z</time></trkpt><trkpt lat="42.07517775402675" lon="12.971846323808029"><ele>974.6666666666666</ele><time>2026-03-29T09:49:55Z</time></trkpt><trkpt lat="42.07509858768779" lon="12.971809489177936"><ele>973.8333333333333</ele><time>2026-03-29T09:49:58Z</time></trkpt><trkpt lat="42.07500992357375" lon="12.971772016417036"><ele>973.0</ele><time>2026-03-29T09:50:00Z</time></trkpt><trkpt lat="42.07491895073302" lon="12.971812888254574"><ele>976.4999999999999</ele><time>2026-03-29T09:50:01.999Z</time></trkpt><trkpt lat="42.07482847396912" lon="12.971804072382618"><ele>980.0</ele><time>2026-03-29T09:50:04.999Z</time></trkpt><trkpt lat="42.074737142127724" lon="12.971802180459735"><ele>983.5</ele><time>2026-03-29T09:50:07.999Z</time></trkpt><trkpt lat="42.07465711443521" lon="12.97174751172538"><ele>987.0</ele><time>2026-03-29T09:50:10.999Z</time></trkpt><trkpt lat="42.07457605302865" lon="12.971708563314063"><ele>990.4999999999999</ele><time>2026-03-29T09:50:12.999Z</time></trkpt><trkpt lat="42.07448915286024" lon="12.971678788677368"><ele>994.0</ele><time>2026-03-29T09:50:14.999Z</time></trkpt><trkpt lat="42.07442145568103" lon="12.971677551297407"><ele>995.3333333333333</ele><time>2026-03-29T09:50:16.999Z</time></trkpt><trkpt lat="42.074346546676566" lon="12.97163862387052"><ele>996.6666666666666</ele><time>2026-03-29T09:50:18.999Z</time></trkpt><trkpt lat="42.07428677647494" lon="12.97159279639041"><ele>998.0</ele><time>2026-03-29T09:50:20.999Z</time></trkpt><trkpt lat="42.07421744779461" lon="12.971530633912064"><ele>999.3333333333333</ele><time>2026-03-29T09:50:22.999Z</time></trkpt><trkpt lat="42.07413786787725" lon="12.971479928014228"><ele>1000.6666666666666</ele><time>2026-03-29T09:50:25.999Z</time></trkpt><trkpt lat="42.074055268931836" lon="12.9715145042124"><ele>1002.0</ele><time>2026-03-29T09:50:27.999Z</time></trkpt><trkpt lat="42.07397117014114" lon="12.9715778616048"><ele>1003.8</ele><time>2026-03-29T09:51:16.999Z</time></trkpt><trkpt lat="42.07392880181225" lon="12.971708731420033"><ele>1005.6</ele><time>2026-03-29T09:51:18.999Z</time></trkpt><trkpt lat="42.073884783064464" lon="12.97186312802591"><ele>1007.3999999999999</ele><time>2026-03-29T09:51:20.999Z</time></trkpt><trkpt lat="42.07386351826319" lon="12.971974427159433"><ele>1009.1999999999999</ele><time>2026-03-29T09:51:21.999Z</time></trkpt><trkpt lat="42.07385875801697" lon="12.97211563072732"><ele>1011.0</ele><time>2026-03-29T09:51:22.999Z</time></trkpt><trkpt lat="42.07386046915186" lon="12.972247873851883"><ele>1011.0</ele><time>2026-03-29T09:51:23.999Z</time></trkpt><trkpt lat="42.07387352165011" lon="12.972365704219715"><ele>1011.0</ele><time>2026-03-29T09:51:24.999Z</time></trkpt><trkpt lat="42.07387943777468" lon="12.97246847241557"><ele>1011.0</ele><time>2026-03-29T09:51:25.999Z</time></trkpt><trkpt lat="42.07386026539571" lon="12.972575558865662"><ele>1011.0</ele><time>2026-03-29T09:51:26.999Z</time></trkpt><trkpt lat="42.07385659688831" lon="12.972661136692977"><ele>1011.0</ele><time>2026-03-29T09:51:27.999Z</time></trkpt><trkpt lat="42.073873830247585" lon="12.972754470268638"><ele>1011.0</ele><time>2026-03-29T09:51:31.999Z</time></trkpt><trkpt lat="42.07384883123605" lon="12.972632817877868"><ele>1011.0</ele><time>2026-03-29T09:51:58.001Z</time></trkpt><trkpt lat="42.07382357373924" lon="12.97255081963744"><ele>1011.0</ele><time>2026-03-29T09:52:00.001Z</time></trkpt><trkpt lat="42.07377669723705" lon="12.972460806024669"><ele>1011.0</ele><time>2026-03-29T09:52:03.001Z</time></trkpt><trkpt lat="42.07370222059326" lon="12.97252739246641"><ele>1011.0</ele><time>2026-03-29T09:52:05Z</time></trkpt><trkpt lat="42.0736442860418" lon="12.972600772322155"><ele>1011.0</ele><time>2026-03-29T09:52:08Z</time></trkpt><trkpt lat="42.073586312064926" lon="12.97268787021811"><ele>1011.0</ele><time>2026-03-29T09:52:11Z</time></trkpt><trkpt lat="42.07352251477258" lon="12.972696473845915"><ele>1011.0</ele><time>2026-03-29T09:52:13Z</time></trkpt><trkpt lat="42.073499122606115" lon="12.97260740810817"><ele>1011.0</ele><time>2026-03-29T09:52:15Z</time></trkpt><trkpt lat="42.07342636174992" lon="12.972557559016419"><ele>1011.0</ele><time>2026-03-29T09:52:19Z</time></trkpt><trkpt lat="42.07334463939103" lon="12.972494964066707"><ele>1011.0</ele><time>2026-03-29T09:52:21Z</time></trkpt><trkpt lat="42.07325960568656" lon="12.972544057842272"><ele>1011.0</ele><time>2026-03-29T09:52:23Z</time></trkpt><trkpt lat="42.073226833408356" lon="12.972621020122991"><ele>1011.0</ele><time>2026-03-29T09:52:24Z</time></trkpt><trkpt lat="42.0731794657338" lon="12.972770307091968"><ele>1009.5</ele><time>2026-03-29T09:52:26Z</time></trkpt><trkpt lat="42.07315649487658" lon="12.97286264406824"><ele>1008.0</ele><time>2026-03-29T09:52:30Z</time></trkpt><trkpt lat="42.073132777063535" lon="12.97298735226943"><ele>1006.5</ele><time>2026-03-29T09:52:32Z</time></trkpt><trkpt lat="42.0731167017681" lon="12.973312525714357"><ele>1005.0</ele><time>2026-03-29T09:52:34Z</time></trkpt><trkpt lat="42.07312572143691" lon="12.97348090314364"><ele>1004.4</ele><time>2026-03-29T09:52:35Z</time></trkpt><trkpt lat="42.073126919878376" lon="12.973614514404801"><ele>1003.8</ele><time>2026-03-29T09:52:36Z</time></trkpt><trkpt lat="42.07308502752548" lon="12.973712286505569"><ele>1003.2</ele><time>2026-03-29T09:52:37Z</time></trkpt><trkpt lat="42.073026587299736" lon="12.973803147454632"><ele>1002.6</ele><time>2026-03-29T09:52:38Z</time></trkpt><trkpt lat="42.07298660524564" lon="12.973935239124586"><ele>1002.0</ele><time>2026-03-29T09:52:39Z</time></trkpt><trkpt lat="42.07296610439805" lon="12.974057387568726"><ele>1002.2</ele><time>2026-03-29T09:52:40Z</time></trkpt><trkpt lat="42.0729595880841" lon="12.974190542058071"><ele>1002.4000000000001</ele><time>2026-03-29T09:52:41Z</time></trkpt><trkpt lat="42.072953441028986" lon="12.974311980340481"><ele>1002.5999999999999</ele><time>2026-03-29T09:52:42Z</time></trkpt><trkpt lat="42.07295850430542" lon="12.974447949537609"><ele>1002.8</ele><time>2026-03-29T09:52:43Z</time></trkpt><trkpt lat="42.07295771029034" lon="12.97458286110715"><ele>1003.0</ele><time>2026-03-29T09:52:44Z</time></trkpt><trkpt lat="42.07296198111614" lon="12.974714356261714"><ele>1002.9999999999999</ele><time>2026-03-29T09:52:45Z</time></trkpt><trkpt lat="42.07295898940135" lon="12.974830651562634"><ele>1003.0</ele><time>2026-03-29T09:52:46Z</time></trkpt><trkpt lat="42.07294095091511" lon="12.974944687839816"><ele>1003.0</ele><time>2026-03-29T09:52:47Z</time></trkpt><trkpt lat="42.07294111753004" lon="12.9750501648466"><ele>1003.0</ele><time>2026-03-29T09:52:48Z</time></trkpt><trkpt lat="42.07296852330195" lon="12.975157325764775"><ele>1002.9999999999999</ele><time>2026-03-29T09:52:49Z</time></trkpt><trkpt lat="42.07299107509388" lon="12.975265970313917"><ele>1003.0</ele><time>2026-03-29T09:52:50Z</time></trkpt><trkpt lat="42.073017300467605" lon="12.975372141542707"><ele>1001.8</ele><time>2026-03-29T09:52:51Z</time></trkpt><trkpt lat="42.07304240363795" lon="12.97551004068571"><ele>1000.5999999999999</ele><time>2026-03-29T09:52:52Z</time></trkpt><trkpt lat="42.07307608683337" lon="12.97563253228448"><ele>999.4000000000001</ele><time>2026-03-29T09:52:53Z</time></trkpt><trkpt lat="42.07310522056345" lon="12.975764781761574"><ele>998.2</ele><time>2026-03-29T09:52:54Z</time></trkpt><trkpt lat="42.07315027224029" lon="12.975892901076142"><ele>997.0</ele><time>2026-03-29T09:52:55Z</time></trkpt><trkpt lat="42.07322530801368" lon="12.976039766587263"><ele>1002.4000000000001</ele><time>2026-03-29T09:52:56Z</time></trkpt><trkpt lat="42.07329635967586" lon="12.976217509736374"><ele>1007.8000000000001</ele><time>2026-03-29T09:52:57Z</time></trkpt><trkpt lat="42.07334596834892" lon="12.9763566093134"><ele>1013.2</ele><time>2026-03-29T09:52:58Z</time></trkpt><trkpt lat="42.07337524589448" lon="12.976451386336887"><ele>1018.6</ele><time>2026-03-29T09:52:59Z</time></trkpt><trkpt lat="42.07340830904067" lon="12.976576639682165"><ele>1024.0</ele><time>2026-03-29T09:53:00Z</time></trkpt><trkpt lat="42.07342794693492" lon="12.976697837378264"><ele>1024.0</ele><time>2026-03-29T09:53:01Z</time></trkpt><trkpt lat="42.07346232168379" lon="12.976817623733286"><ele>1024.0</ele><time>2026-03-29T09:53:02Z</time></trkpt><trkpt lat="42.07349874868536" lon="12.976930106458854"><ele>1024.0</ele><time>2026-03-29T09:53:03Z</time></trkpt><trkpt lat="42.073549508584705" lon="12.977057275181167"><ele>1024.0</ele><time>2026-03-29T09:53:04Z</time></trkpt><trkpt lat="42.073594139830334" lon="12.977190973077654"><ele>1024.0</ele><time>2026-03-29T09:53:05Z</time></trkpt><trkpt lat="42.07363959674392" lon="12.977320482961849"><ele>1024.0</ele><time>2026-03-29T09:53:06Z</time></trkpt><trkpt lat="42.07369186928954" lon="12.97744283899823"><ele>1024.0</ele><time>2026-03-29T09:53:07Z</time></trkpt><trkpt lat="42.073723677833364" lon="12.977584412523925"><ele>1024.0</ele><time>2026-03-29T09:53:08Z</time></trkpt><trkpt lat="42.07373738975472" lon="12.97772672281961"><ele>1024.0</ele><time>2026-03-29T09:53:09Z</time></trkpt><trkpt lat="42.07376461674129" lon="12.977856654802347"><ele>1024.0</ele><time>2026-03-29T09:53:10Z</time></trkpt><trkpt lat="42.07380507424249" lon="12.977956817698574"><ele>1024.1666666666665</ele><time>2026-03-29T09:53:11Z</time></trkpt><trkpt lat="42.07385462837545" lon="12.978058653327368"><ele>1024.3333333333333</ele><time>2026-03-29T09:53:12Z</time></trkpt><trkpt lat="42.073909231353085" lon="12.97814061722294"><ele>1024.5</ele><time>2026-03-29T09:53:13Z</time></trkpt><trkpt lat="42.0739598830267" lon="12.978194387209033"><ele>1024.6666666666667</ele><time>2026-03-29T09:53:14Z</time></trkpt><trkpt lat="42.074043951807624" lon="12.978304739324946"><ele>1024.8333333333335</ele><time>2026-03-29T09:53:16Z</time></trkpt><trkpt lat="42.07407750316061" lon="12.978399289146049"><ele>1025.0</ele><time>2026-03-29T09:53:17Z</time></trkpt><trkpt lat="42.07409723386656" lon="12.978491371797885"><ele>1024.6666666666667</ele><time>2026-03-29T09:53:18Z</time></trkpt><trkpt lat="42.074088893442806" lon="12.978591054137743"><ele>1024.3333333333335</ele><time>2026-03-29T09:53:41.999Z</time></trkpt><trkpt lat="42.074012929285345" lon="12.978564986966353"><ele>1024.0</ele><time>2026-03-29T09:53:56Z</time></trkpt><trkpt lat="42.07398907809927" lon="12.97865761741579"><ele>1023.6666666666667</ele><time>2026-03-29T09:53:59Z</time></trkpt><trkpt lat="42.07394124322322" lon="12.978739397147459"><ele>1023.3333333333334</ele><time>2026-03-29T09:54:01Z</time></trkpt><trkpt lat="42.073885364319594" lon="12.97883518938632"><ele>1023.0</ele><time>2026-03-29T09:54:03Z</time></trkpt><trkpt lat="42.07384463295696" lon="12.978929939142859"><ele>1023.0</ele><time>2026-03-29T09:54:05Z</time></trkpt><trkpt lat="42.073792317617404" lon="12.979067397248148"><ele>1023.0</ele><time>2026-03-29T09:54:07Z</time></trkpt><trkpt lat="42.0737500412256" lon="12.979216576913167"><ele>1023.0</ele><time>2026-03-29T09:54:09Z</time></trkpt><trkpt lat="42.073714025271364" lon="12.979337274890275"><ele>1023.0</ele><time>2026-03-29T09:54:11Z</time></trkpt><trkpt lat="42.073653362538614" lon="12.979459531757051"><ele>1023.0</ele><time>2026-03-29T09:54:13Z</time></trkpt><trkpt lat="42.073618053557496" lon="12.97961325063102"><ele>1022.0</ele><time>2026-03-29T09:54:15Z</time></trkpt><trkpt lat="42.07358287501594" lon="12.979728139852003"><ele>1021.0</ele><time>2026-03-29T09:54:17Z</time></trkpt><trkpt lat="42.07349290588186" lon="12.979819081341567"><ele>1020.0</ele><time>2026-03-29T09:54:19Z</time></trkpt><trkpt lat="42.0734597822462" lon="12.979906552826064"><ele>1019.0</ele><time>2026-03-29T09:54:20Z</time></trkpt><trkpt lat="42.073431601436056" lon="12.979992202906786"><ele>1018.0</ele><time>2026-03-29T09:54:21Z</time></trkpt><trkpt lat="42.07341682793959" lon="12.98008153278125"><ele>1017.0</ele><time>2026-03-29T09:54:22Z</time></trkpt><trkpt lat="42.07342050754112" lon="12.980181280202608"><ele>1016.8333333333334</ele><time>2026-03-29T09:54:23Z</time></trkpt><trkpt lat="42.07343490659552" lon="12.980290879064531"><ele>1016.6666666666667</ele><time>2026-03-29T09:54:24Z</time></trkpt><trkpt lat="42.07345381124074" lon="12.980405912379815"><ele>1016.5</ele><time>2026-03-29T09:54:25Z</time></trkpt><trkpt lat="42.07346721637369" lon="12.980523989178872"><ele>1016.3333333333334</ele><time>2026-03-29T09:54:26Z</time></trkpt><trkpt lat="42.073479310927496" lon="12.98062747553358"><ele>1016.1666666666667</ele><time>2026-03-29T09:54:27Z</time></trkpt><trkpt lat="42.07349305509128" lon="12.980722962217056"><ele>1016.0</ele><time>2026-03-29T09:54:28Z</time></trkpt><trkpt lat="42.073516478574774" lon="12.980837848243404"><ele>1016.0</ele><time>2026-03-29T09:54:29Z</time></trkpt><trkpt lat="42.07354342464092" lon="12.98094925344295"><ele>1015.9999999999999</ele><time>2026-03-29T09:54:30Z</time></trkpt><trkpt lat="42.073579807790395" lon="12.981067691032894"><ele>1015.9999999999999</ele><time>2026-03-29T09:54:31Z</time></trkpt><trkpt lat="42.07361388652639" lon="12.981174585001513"><ele>1016.0</ele><time>2026-03-29T09:54:32Z</time></trkpt><trkpt lat="42.07364032714489" lon="12.981268605285832"><ele>1016.0</ele><time>2026-03-29T09:54:33Z</time></trkpt><trkpt lat="42.07366267811362" lon="12.981422750064151"><ele>1016.0000000000001</ele><time>2026-03-29T09:54:35Z</time></trkpt><trkpt lat="42.073689462339765" lon="12.981510716804003"><ele>1016.0</ele><time>2026-03-29T09:54:51Z</time></trkpt><trkpt lat="42.07375922464759" lon="12.98153931529018"><ele>1016.0</ele><time>2026-03-29T09:54:55Z</time></trkpt><trkpt lat="42.07384327674557" lon="12.981542567442522"><ele>1016.0</ele><time>2026-03-29T09:54:58Z</time></trkpt><trkpt lat="42.07392612215949" lon="12.981564980833696"><ele>1016.0000000000001</ele><time>2026-03-29T09:55:01Z</time></trkpt><trkpt lat="42.073988843373506" lon="12.981608482008948"><ele>1016.0</ele><time>2026-03-29T09:55:03Z</time></trkpt><trkpt lat="42.07407741892552" lon="12.98166414020253"><ele>1016.1999999999999</ele><time>2026-03-29T09:55:05Z</time></trkpt><trkpt lat="42.07415013742283" lon="12.981729983012874"><ele>1016.3999999999999</ele><time>2026-03-29T09:55:07Z</time></trkpt><trkpt lat="42.07422656664086" lon="12.981799759337923"><ele>1016.6</ele><time>2026-03-29T09:55:09Z</time></trkpt><trkpt lat="42.07432165413869" lon="12.981839740676788"><ele>1016.8</ele><time>2026-03-29T09:55:11Z</time></trkpt><trkpt lat="42.074396508539905" lon="12.981912342360992"><ele>1017.0</ele><time>2026-03-29T09:55:13Z</time></trkpt><trkpt lat="42.07449953688638" lon="12.981997377488488"><ele>1017.0</ele><time>2026-03-29T09:55:15Z</time></trkpt><trkpt lat="42.07454905372867" lon="12.982068849434649"><ele>1016.9999999999999</ele><time>2026-03-29T09:55:16Z</time></trkpt><trkpt lat="42.074605603435266" lon="12.982134277679682"><ele>1017.0</ele><time>2026-03-29T09:55:17Z</time></trkpt><trkpt lat="42.07466015579812" lon="12.982192456916"><ele>1017.0</ele><time>2026-03-29T09:55:18Z</time></trkpt><trkpt lat="42.07471126215192" lon="12.982266362615134"><ele>1016.9999999999999</ele><time>2026-03-29T09:55:19Z</time></trkpt><trkpt lat="42.074747932484435" lon="12.982338699644734"><ele>1017.0</ele><time>2026-03-29T09:55:20Z</time></trkpt><trkpt lat="42.074803914813984" lon="12.982402301535757"><ele>1017.0</ele><time>2026-03-29T09:55:21Z</time></trkpt><trkpt lat="42.07484468689405" lon="12.982479820993484"><ele>1016.6666666666666</ele><time>2026-03-29T09:55:22Z</time></trkpt><trkpt lat="42.07488665832912" lon="12.982561463135061"><ele>1016.3333333333333</ele><time>2026-03-29T09:55:23Z</time></trkpt><trkpt lat="42.074923640631354" lon="12.98264241057955"><ele>1016.0</ele><time>2026-03-29T09:55:24Z</time></trkpt><trkpt lat="42.074965925105744" lon="12.982741984823077"><ele>1015.6666666666666</ele><time>2026-03-29T09:55:26Z</time></trkpt><trkpt lat="42.07502639110977" lon="12.98281304130634"><ele>1015.3333333333333</ele><time>2026-03-29T09:55:28Z</time></trkpt><trkpt lat="42.0750657844461" lon="12.982923052141993"><ele>1015.0</ele><time>2026-03-29T09:55:30Z</time></trkpt><trkpt lat="42.07514137608884" lon="12.983039462236073"><ele>1020.4</ele><time>2026-03-29T09:55:32Z</time></trkpt><trkpt lat="42.07524656605117" lon="12.983123326043577"><ele>1025.8</ele><time>2026-03-29T09:55:34Z</time></trkpt><trkpt lat="42.075321013392355" lon="12.983111398282956"><ele>1031.2</ele><time>2026-03-29T09:55:35Z</time></trkpt><trkpt lat="42.07539545260833" lon="12.983062770676392"><ele>1036.6</ele><time>2026-03-29T09:55:36Z</time></trkpt><trkpt lat="42.07550709735789" lon="12.983057881547365"><ele>1042.0</ele><time>2026-03-29T09:55:38Z</time></trkpt><trkpt lat="42.07557651200774" lon="12.983093854734696"><ele>1042.0</ele><time>2026-03-29T09:55:39Z</time></trkpt><trkpt lat="42.07567119736099" lon="12.983118490266934"><ele>1042.0</ele><time>2026-03-29T09:55:40.999Z</time></trkpt><trkpt lat="42.075775351658464" lon="12.983169604496208"><ele>1042.0</ele><time>2026-03-29T09:55:42.999Z</time></trkpt><trkpt lat="42.075840735974765" lon="12.983239695969504"><ele>1042.0</ele><time>2026-03-29T09:55:44.999Z</time></trkpt><trkpt lat="42.075822062795716" lon="12.983331632054947"><ele>1042.0</ele><time>2026-03-29T10:03:58.999Z</time></trkpt><trkpt lat="42.07575998805856" lon="12.983363120726978"><ele>1042.0</ele><time>2026-03-29T10:04:00.999Z</time></trkpt><trkpt lat="42.07567071568332" lon="12.983347377192157"><ele>1040.4</ele><time>2026-03-29T10:04:02.999Z</time></trkpt><trkpt lat="42.075582328331784" lon="12.98337863687319"><ele>1038.8000000000002</ele><time>2026-03-29T10:04:04.999Z</time></trkpt><trkpt lat="42.07548990963915" lon="12.983398275449998"><ele>1037.2</ele><time>2026-03-29T10:04:06.999Z</time></trkpt><trkpt lat="42.07538889799791" lon="12.983484691327934"><ele>1035.6000000000001</ele><time>2026-03-29T10:04:08.999Z</time></trkpt><trkpt lat="42.07532217133789" lon="12.983592217592046"><ele>1034.0</ele><time>2026-03-29T10:04:10.999Z</time></trkpt><trkpt lat="42.075220257798335" lon="12.983629813923987"><ele>1034.0</ele><time>2026-03-29T10:04:12.999Z</time></trkpt><trkpt lat="42.07513726724846" lon="12.983709999179787"><ele>1034.0</ele><time>2026-03-29T10:04:14.999Z</time></trkpt><trkpt lat="42.07511878044994" lon="12.983802769136965"><ele>1034.0</ele><time>2026-03-29T10:04:16.999Z</time></trkpt><trkpt lat="42.075102390291306" lon="12.983912465457887"><ele>1034.0</ele><time>2026-03-29T10:04:19.999Z</time></trkpt><trkpt lat="42.07506797009252" lon="12.984031450150516"><ele>1034.0</ele><time>2026-03-29T10:04:21.999Z</time></trkpt><trkpt lat="42.07502350948756" lon="12.98416278616715"><ele>1033.0</ele><time>2026-03-29T10:04:24Z</time></trkpt><trkpt lat="42.07494846231096" lon="12.984262045419573"><ele>1032.0</ele><time>2026-03-29T10:04:26Z</time></trkpt><trkpt lat="42.074861465576014" lon="12.984356904167225"><ele>1031.0</ele><time>2026-03-29T10:04:28Z</time></trkpt><trkpt lat="42.07481453780588" lon="12.98442875015836"><ele>1030.0</ele><time>2026-03-29T10:04:29Z</time></trkpt><trkpt lat="42.07476385684587" lon="12.984502103241097"><ele>1029.0</ele><time>2026-03-29T10:04:30Z</time></trkpt><trkpt lat="42.07471450529167" lon="12.984578087674757"><ele>1028.0</ele><time>2026-03-29T10:04:31Z</time></trkpt><trkpt lat="42.07463140340095" lon="12.98467421732633"><ele>1025.8</ele><time>2026-03-29T10:04:33Z</time></trkpt><trkpt lat="42.074557679129846" lon="12.984709122278785"><ele>1023.5999999999999</ele><time>2026-03-29T10:04:35Z</time></trkpt><trkpt lat="42.07447409168901" lon="12.984761324109172"><ele>1021.4000000000001</ele><time>2026-03-29T10:04:37Z</time></trkpt><trkpt lat="42.074382157456434" lon="12.984845751746647"><ele>1019.2</ele><time>2026-03-29T10:04:39Z</time></trkpt><trkpt lat="42.0742954822367" lon="12.984893335886703"><ele>1017.0</ele><time>2026-03-29T10:04:41Z</time></trkpt><trkpt lat="42.074213349168005" lon="12.984941796794885"><ele>1017.2</ele><time>2026-03-29T10:04:43Z</time></trkpt><trkpt lat="42.07412691210012" lon="12.985054308404942"><ele>1017.4000000000001</ele><time>2026-03-29T10:04:45Z</time></trkpt><trkpt lat="42.07406337241249" lon="12.985099997957828"><ele>1017.5999999999999</ele><time>2026-03-29T10:04:46Z</time></trkpt><trkpt lat="42.0739862845618" lon="12.985142664589636"><ele>1017.8</ele><time>2026-03-29T10:04:47Z</time></trkpt><trkpt lat="42.073900561873494" lon="12.985194701867558"><ele>1018.0</ele><time>2026-03-29T10:04:48Z</time></trkpt><trkpt lat="42.07381868500162" lon="12.985235269919206"><ele>1020.4999999999999</ele><time>2026-03-29T10:04:49Z</time></trkpt><trkpt lat="42.07369215325956" lon="12.98529464854007"><ele>1023.0</ele><time>2026-03-29T10:04:51Z</time></trkpt><trkpt lat="42.07361864480528" lon="12.985335115326984"><ele>1025.5</ele><time>2026-03-29T10:04:52Z</time></trkpt><trkpt lat="42.07355634842102" lon="12.985392357694138"><ele>1028.0</ele><time>2026-03-29T10:04:53Z</time></trkpt><trkpt lat="42.07349326273399" lon="12.985445755259288"><ele>1030.5</ele><time>2026-03-29T10:04:54Z</time></trkpt><trkpt lat="42.07343188940066" lon="12.98549516780439"><ele>1033.0</ele><time>2026-03-29T10:04:55Z</time></trkpt><trkpt lat="42.073359911036086" lon="12.9855486026524"><ele>1033.0000000000002</ele><time>2026-03-29T10:04:56Z</time></trkpt><trkpt lat="42.07329451840719" lon="12.985595763743243"><ele>1033.0</ele><time>2026-03-29T10:04:57Z</time></trkpt><trkpt lat="42.07323627222408" lon="12.985645506120704"><ele>1033.0</ele><time>2026-03-29T10:04:58Z</time></trkpt><trkpt lat="42.07317666841386" lon="12.985703681299304"><ele>1033.0</ele><time>2026-03-29T10:04:59Z</time></trkpt><trkpt lat="42.073113438492356" lon="12.985753206402467"><ele>1033.0</ele><time>2026-03-29T10:05:00Z</time></trkpt><trkpt lat="42.07306095558968" lon="12.985810766324915"><ele>1033.0000000000002</ele><time>2026-03-29T10:05:01Z</time></trkpt><trkpt lat="42.073013061859754" lon="12.985882279210374"><ele>1033.0</ele><time>2026-03-29T10:05:02Z</time></trkpt><trkpt lat="42.072938486778455" lon="12.986020593425353"><ele>1030.1666666666665</ele><time>2026-03-29T10:05:04Z</time></trkpt><trkpt lat="42.07289828862997" lon="12.986170582966642"><ele>1027.3333333333333</ele><time>2026-03-29T10:05:06Z</time></trkpt><trkpt lat="42.07285580032476" lon="12.986323909229247"><ele>1024.5</ele><time>2026-03-29T10:05:08Z</time></trkpt><trkpt lat="42.072841996170006" lon="12.986406748952362"><ele>1021.6666666666667</ele><time>2026-03-29T10:05:09Z</time></trkpt><trkpt lat="42.07282622531556" lon="12.986493311896561"><ele>1018.8333333333334</ele><time>2026-03-29T10:05:10Z</time></trkpt><trkpt lat="42.07281067265667" lon="12.986578350204981"><ele>1016.0</ele><time>2026-03-29T10:05:11Z</time></trkpt><trkpt lat="42.07280185866744" lon="12.98672898686629"><ele>1014.5000000000001</ele><time>2026-03-29T10:05:13Z</time></trkpt><trkpt lat="42.07279468771644" lon="12.986814292042919"><ele>1013.0</ele><time>2026-03-29T10:05:14Z</time></trkpt><trkpt lat="42.072773694383216" lon="12.986903048597053"><ele>1011.5</ele><time>2026-03-29T10:05:15Z</time></trkpt><trkpt lat="42.072755275044926" lon="12.98706729204088"><ele>1010.0</ele><time>2026-03-29T10:05:17Z</time></trkpt><trkpt lat="42.07274429693719" lon="12.987159694212332"><ele>1008.5000000000001</ele><time>2026-03-29T10:05:18Z</time></trkpt><trkpt lat="42.07272423435252" lon="12.987259052688845"><ele>1007.0</ele><time>2026-03-29T10:05:19Z</time></trkpt><trkpt lat="42.07268863251664" lon="12.98738142962504"><ele>1007.0000000000001</ele><time>2026-03-29T10:05:20Z</time></trkpt><trkpt lat="42.07265783772887" lon="12.987491336959662"><ele>1007.0</ele><time>2026-03-29T10:05:21Z</time></trkpt><trkpt lat="42.07262648352896" lon="12.987590133499415"><ele>1007.0</ele><time>2026-03-29T10:05:22Z</time></trkpt><trkpt lat="42.0725995028168" lon="12.987690003292863"><ele>1007.0</ele><time>2026-03-29T10:05:23Z</time></trkpt><trkpt lat="42.07258299249402" lon="12.987777468780363"><ele>1007.0000000000001</ele><time>2026-03-29T10:05:24Z</time></trkpt><trkpt lat="42.07256545307775" lon="12.987862353912606"><ele>1007.0</ele><time>2026-03-29T10:05:25Z</time></trkpt><trkpt lat="42.07252142841244" lon="12.9880019106547"><ele>1005.8333333333334</ele><time>2026-03-29T10:05:27Z</time></trkpt><trkpt lat="42.07249324924655" lon="12.988086612518313"><ele>1004.6666666666667</ele><time>2026-03-29T10:05:28Z</time></trkpt><trkpt lat="42.07247128446846" lon="12.988190073086672"><ele>1003.5</ele><time>2026-03-29T10:05:29Z</time></trkpt><trkpt lat="42.07245267449012" lon="12.988298028466904"><ele>1002.3333333333333</ele><time>2026-03-29T10:05:30Z</time></trkpt><trkpt lat="42.072424224039665" lon="12.988393886287572"><ele>1001.1666666666666</ele><time>2026-03-29T10:05:31Z</time></trkpt><trkpt lat="42.07239203090012" lon="12.988490483798103"><ele>1000.0</ele><time>2026-03-29T10:05:32Z</time></trkpt><trkpt lat="42.07234853705692" lon="12.98856597496979"><ele>995.3333333333333</ele><time>2026-03-29T10:05:33Z</time></trkpt><trkpt lat="42.07230882013725" lon="12.9886731037932"><ele>990.6666666666666</ele><time>2026-03-29T10:05:34Z</time></trkpt><trkpt lat="42.07227196597618" lon="12.988770606390913"><ele>986.0</ele><time>2026-03-29T10:05:35Z</time></trkpt><trkpt lat="42.07224370749599" lon="12.988868591080678"><ele>981.3333333333333</ele><time>2026-03-29T10:05:36Z</time></trkpt><trkpt lat="42.07222138939347" lon="12.988954365583517"><ele>976.6666666666666</ele><time>2026-03-29T10:05:37Z</time></trkpt><trkpt lat="42.07220499617327" lon="12.989058398821312"><ele>972.0</ele><time>2026-03-29T10:05:38Z</time></trkpt><trkpt lat="42.07219724586858" lon="12.989167943941204"><ele>973.0</ele><time>2026-03-29T10:05:39Z</time></trkpt><trkpt lat="42.07217819373843" lon="12.989281552000593"><ele>974.0</ele><time>2026-03-29T10:05:40Z</time></trkpt><trkpt lat="42.07214412031262" lon="12.989374565499395"><ele>975.0</ele><time>2026-03-29T10:05:41Z</time></trkpt><trkpt lat="42.07210473871616" lon="12.989444497193476"><ele>976.0</ele><time>2026-03-29T10:05:42Z</time></trkpt><trkpt lat="42.072041596659695" lon="12.989565931782755"><ele>977.0</ele><time>2026-03-29T10:05:44Z</time></trkpt><trkpt lat="42.072024847621634" lon="12.989667605004946"><ele>978.0</ele><time>2026-03-29T10:05:46Z</time></trkpt><trkpt lat="42.07200764379676" lon="12.989753330024236"><ele>978.0</ele><time>2026-03-29T10:05:49Z</time></trkpt><trkpt lat="42.0719592334225" lon="12.989819350537593"><ele>978.0</ele><time>2026-03-29T10:06:05.999Z</time></trkpt><trkpt lat="42.07191316897137" lon="12.989900605353933"><ele>978.0</ele><time>2026-03-29T10:06:10.999Z</time></trkpt><trkpt lat="42.07185730135603" lon="12.989999185405878"><ele>978.0</ele><time>2026-03-29T10:06:17.999Z</time></trkpt><trkpt lat="42.07182311421624" lon="12.990080147324019"><ele>978.0</ele><time>2026-03-29T10:06:19.999Z</time></trkpt><trkpt lat="42.071782715063854" lon="12.990189506256753"><ele>978.0</ele><time>2026-03-29T10:06:21.999Z</time></trkpt><trkpt lat="42.071734986137415" lon="12.990261362676964"><ele>978.3333333333334</ele><time>2026-03-29T10:06:24.999Z</time></trkpt><trkpt lat="42.07163705648072" lon="12.990349969008646"><ele>978.6666666666667</ele><time>2026-03-29T10:06:26.999Z</time></trkpt><trkpt lat="42.07158511352211" lon="12.990417513907342"><ele>979.0</ele><time>2026-03-29T10:06:27.999Z</time></trkpt><trkpt lat="42.07153993230393" lon="12.990480366353221"><ele>979.3333333333334</ele><time>2026-03-29T10:06:28.999Z</time></trkpt><trkpt lat="42.07147623695121" lon="12.99050834968988"><ele>979.6666666666667</ele><time>2026-03-29T10:06:31Z</time></trkpt><trkpt lat="42.071385191396914" lon="12.990507019865408"><ele>980.0</ele><time>2026-03-29T10:06:33Z</time></trkpt><trkpt lat="42.071275941960224" lon="12.990535465938311"><ele>977.1666666666667</ele><time>2026-03-29T10:06:35Z</time></trkpt><trkpt lat="42.07121352979248" lon="12.990571363408725"><ele>974.3333333333334</ele><time>2026-03-29T10:06:36Z</time></trkpt><trkpt lat="42.07114668655745" lon="12.990615575278847"><ele>971.5</ele><time>2026-03-29T10:06:37Z</time></trkpt><trkpt lat="42.071041087986586" lon="12.990679467848167"><ele>968.6666666666667</ele><time>2026-03-29T10:06:39Z</time></trkpt><trkpt lat="42.070965764124345" lon="12.990690231809987"><ele>965.8333333333334</ele><time>2026-03-29T10:06:41Z</time></trkpt><trkpt lat="42.07090782883978" lon="12.990770297910148"><ele>963.0</ele><time>2026-03-29T10:06:43Z</time></trkpt><trkpt lat="42.07081054505592" lon="12.990796560530162"><ele>958.2</ele><time>2026-03-29T10:06:45Z</time></trkpt><trkpt lat="42.07074078713564" lon="12.99079893698414"><ele>953.4</ele><time>2026-03-29T10:06:46Z</time></trkpt><trkpt lat="42.07065236523383" lon="12.990711434848446"><ele>948.6000000000001</ele><time>2026-03-29T10:06:48Z</time></trkpt><trkpt lat="42.070613879931315" lon="12.990625673363088"><ele>943.8000000000001</ele><time>2026-03-29T10:06:49Z</time></trkpt><trkpt lat="42.07051322118103" lon="12.990551295280724"><ele>939.0</ele><time>2026-03-29T10:06:51Z</time></trkpt><trkpt lat="42.0704290310256" lon="12.990507812022518"><ele>939.0</ele><time>2026-03-29T10:06:53Z</time></trkpt><trkpt lat="42.07033733082318" lon="12.990487932546703"><ele>939.0</ele><time>2026-03-29T10:06:55Z</time></trkpt><trkpt lat="42.070255526282565" lon="12.990540360552536"><ele>939.0</ele><time>2026-03-29T10:06:57Z</time></trkpt><trkpt lat="42.07022046970723" lon="12.990636495360578"><ele>939.0</ele><time>2026-03-29T10:06:59Z</time></trkpt><trkpt lat="42.07014050388827" lon="12.990595197403307"><ele>939.0</ele><time>2026-03-29T10:07:02Z</time></trkpt><trkpt lat="42.07008614495275" lon="12.9905293381613"><ele>939.0</ele><time>2026-03-29T10:07:04Z</time></trkpt><trkpt lat="42.070019596837355" lon="12.990459965057877"><ele>939.0</ele><time>2026-03-29T10:07:06Z</time></trkpt><trkpt lat="42.06997686303525" lon="12.990303934046585"><ele>939.0000000000001</ele><time>2026-03-29T10:07:08Z</time></trkpt><trkpt lat="42.06994867851387" lon="12.99021342180785"><ele>939.0000000000001</ele><time>2026-03-29T10:07:09Z</time></trkpt><trkpt lat="42.06991446199187" lon="12.990060296371256"><ele>939.0</ele><time>2026-03-29T10:07:11Z</time></trkpt><trkpt lat="42.06992370337799" lon="12.989955524504781"><ele>939.0</ele><time>2026-03-29T10:07:12Z</time></trkpt><trkpt lat="42.069921908787485" lon="12.989817043804287"><ele>935.0</ele><time>2026-03-29T10:07:14Z</time></trkpt><trkpt lat="42.069926700179685" lon="12.989721547999398"><ele>931.0</ele><time>2026-03-29T10:07:16Z</time></trkpt><trkpt lat="42.06986954953123" lon="12.989590349276938"><ele>927.0</ele><time>2026-03-29T10:07:30Z</time></trkpt><trkpt lat="42.06981298652999" lon="12.989521338348128"><ele>923.0</ele><time>2026-03-29T10:07:31Z</time></trkpt><trkpt lat="42.06977365826552" lon="12.989448324799387"><ele>919.0</ele><time>2026-03-29T10:07:34Z</time></trkpt><trkpt lat="42.06982811970536" lon="12.98951132543561"><ele>915.0</ele><time>2026-03-29T10:07:55Z</time></trkpt><trkpt lat="42.06984793482437" lon="12.989604980429311"><ele>915.0</ele><time>2026-03-29T10:07:57Z</time></trkpt><trkpt lat="42.06989543369091" lon="12.989663358367904"><ele>915.0</ele><time>2026-03-29T10:07:58.999Z</time></trkpt><trkpt lat="42.06997198362772" lon="12.98970026532824"><ele>915.0</ele><time>2026-03-29T10:08:00.999Z</time></trkpt><trkpt lat="42.07004673150129" lon="12.989680283881677"><ele>915.0</ele><time>2026-03-29T10:08:02.999Z</time></trkpt><trkpt lat="42.07010878347384" lon="12.989626593081761"><ele>915.0</ele><time>2026-03-29T10:08:06.999Z</time></trkpt><trkpt lat="42.070165598707916" lon="12.989568153188786"><ele>915.0</ele><time>2026-03-29T10:08:08.999Z</time></trkpt><trkpt lat="42.07016823082411" lon="12.989454071193027"><ele>914.1666666666666</ele><time>2026-03-29T10:08:10.999Z</time></trkpt><trkpt lat="42.070111539059965" lon="12.989387559890528"><ele>913.3333333333333</ele><time>2026-03-29T10:08:12.999Z</time></trkpt><trkpt lat="42.070042946333615" lon="12.989395591403815"><ele>912.5</ele><time>2026-03-29T10:08:14.999Z</time></trkpt><trkpt lat="42.06999984812012" lon="12.989313366034324"><ele>911.6666666666666</ele><time>2026-03-29T10:08:17.999Z</time></trkpt><trkpt lat="42.069948606073325" lon="12.989258019567767"><ele>910.8333333333333</ele><time>2026-03-29T10:08:41Z</time></trkpt><trkpt lat="42.069882522976854" lon="12.989121102119796"><ele>910.0</ele><time>2026-03-29T10:08:44Z</time></trkpt><trkpt lat="42.06983937767825" lon="12.98904168190062"><ele>910.0</ele><time>2026-03-29T10:08:45Z</time></trkpt><trkpt lat="42.06979913634974" lon="12.988915380326976"><ele>910.0</ele><time>2026-03-29T10:08:47Z</time></trkpt><trkpt lat="42.06987388083529" lon="12.988806601373083"><ele>910.0</ele><time>2026-03-29T10:08:49Z</time></trkpt><trkpt lat="42.069860359185334" lon="12.988720555107703"><ele>910.0</ele><time>2026-03-29T10:08:51Z</time></trkpt><trkpt lat="42.069771453650496" lon="12.98862296939925"><ele>910.0</ele><time>2026-03-29T10:08:53Z</time></trkpt><trkpt lat="42.06970169142259" lon="12.988535748608033"><ele>909.9999999999999</ele><time>2026-03-29T10:08:55Z</time></trkpt><trkpt lat="42.06964267500181" lon="12.9883743816343"><ele>910.0</ele><time>2026-03-29T10:08:57Z</time></trkpt><trkpt lat="42.06959481255531" lon="12.98829567744726"><ele>910.0</ele><time>2026-03-29T10:08:58Z</time></trkpt><trkpt lat="42.06956002208471" lon="12.988216197579032"><ele>910.0</ele><time>2026-03-29T10:08:59Z</time></trkpt><trkpt lat="42.06951046597058" lon="12.988111219413344"><ele>909.9999999999999</ele><time>2026-03-29T10:09:01Z</time></trkpt><trkpt lat="42.069449877117" lon="12.988052058757939"><ele>910.0</ele><time>2026-03-29T10:09:03Z</time></trkpt><trkpt lat="42.06937618351225" lon="12.988055973804421"><ele>909.4999999999999</ele><time>2026-03-29T10:09:05Z</time></trkpt><trkpt lat="42.06931073343364" lon="12.988101983788434"><ele>909.0</ele><time>2026-03-29T10:09:06Z</time></trkpt><trkpt lat="42.069245799987094" lon="12.988116794639083"><ele>908.5</ele><time>2026-03-29T10:09:07Z</time></trkpt><trkpt lat="42.06918086890193" lon="12.988064005069797"><ele>908.0</ele><time>2026-03-29T10:09:09Z</time></trkpt><trkpt lat="42.069113421590416" lon="12.988097784691137"><ele>907.4999999999999</ele><time>2026-03-29T10:09:16Z</time></trkpt><trkpt lat="42.06897591452115" lon="12.988083188953745"><ele>907.0</ele><time>2026-03-29T10:09:18Z</time></trkpt><trkpt lat="42.06890916236076" lon="12.988068626504074"><ele>907.0</ele><time>2026-03-29T10:09:19Z</time></trkpt><trkpt lat="42.06883831765764" lon="12.988054484306248"><ele>907.0</ele><time>2026-03-29T10:09:20Z</time></trkpt><trkpt lat="42.06874801291028" lon="12.988034304047169"><ele>907.0</ele><time>2026-03-29T10:09:22Z</time></trkpt><trkpt lat="42.06864438687757" lon="12.988071919125899"><ele>907.0</ele><time>2026-03-29T10:09:24Z</time></trkpt><trkpt lat="42.06855042624538" lon="12.98804410545338"><ele>907.0</ele><time>2026-03-29T10:09:26Z</time></trkpt><trkpt lat="42.06846008219216" lon="12.98806260831121"><ele>906.9999999999999</ele><time>2026-03-29T10:09:29Z</time></trkpt><trkpt lat="42.06834999621092" lon="12.988109614789598"><ele>907.0</ele><time>2026-03-29T10:09:31Z</time></trkpt><trkpt lat="42.06828365719931" lon="12.988153917167242"><ele>907.0</ele><time>2026-03-29T10:09:33Z</time></trkpt><trkpt lat="42.06821421442443" lon="12.988119992712619"><ele>907.0</ele><time>2026-03-29T10:09:36Z</time></trkpt><trkpt lat="42.06816788722564" lon="12.98805670810557"><ele>906.9999999999999</ele><time>2026-03-29T10:09:38Z</time></trkpt><trkpt lat="42.06810853232681" lon="12.987998374080323"><ele>907.0</ele><time>2026-03-29T10:09:40Z</time></trkpt><trkpt lat="42.068053693705615" lon="12.987936770748375"><ele>903.857142857143</ele><time>2026-03-29T10:09:43Z</time></trkpt><trkpt lat="42.067982597837016" lon="12.987920506687951"><ele>900.7142857142858</ele><time>2026-03-29T10:09:45Z</time></trkpt><trkpt lat="42.06790372249202" lon="12.987905053364306"><ele>897.5714285714287</ele><time>2026-03-29T10:09:46Z</time></trkpt><trkpt lat="42.067868181302444" lon="12.987818603762978"><ele>894.4285714285716</ele><time>2026-03-29T10:10:02.999Z</time></trkpt><trkpt lat="42.06783754042088" lon="12.987735442263196"><ele>891.2857142857142</ele><time>2026-03-29T10:10:05.999Z</time></trkpt><trkpt lat="42.0678119849163" lon="12.987654595307788"><ele>888.1428571428571</ele><time>2026-03-29T10:10:07.999Z</time></trkpt><trkpt lat="42.06774577596324" lon="12.987633571560446"><ele>885.0</ele><time>2026-03-29T10:10:09.999Z</time></trkpt><trkpt lat="42.06766638151945" lon="12.98767187253267"><ele>885.0</ele><time>2026-03-29T10:10:11.999Z</time></trkpt><trkpt lat="42.067588107762674" lon="12.987742628415898"><ele>885.0</ele><time>2026-03-29T10:10:13.999Z</time></trkpt><trkpt lat="42.0675177858656" lon="12.987806469625909"><ele>885.0</ele><time>2026-03-29T10:10:15.999Z</time></trkpt><trkpt lat="42.067457565087864" lon="12.987857207862085"><ele>885.0</ele><time>2026-03-29T10:10:17.999Z</time></trkpt><trkpt lat="42.067391696739506" lon="12.987919613637295"><ele>885.0</ele><time>2026-03-29T10:10:20.999Z</time></trkpt><trkpt lat="42.06732574120669" lon="12.987952173755982"><ele>885.0</ele><time>2026-03-29T10:10:54Z</time></trkpt><trkpt lat="42.06725517935844" lon="12.987950837121915"><ele>881.4285714285714</ele><time>2026-03-29T10:10:58Z</time></trkpt><trkpt lat="42.06719658807912" lon="12.987913437702618"><ele>877.8571428571429</ele><time>2026-03-29T10:11:01Z</time></trkpt><trkpt lat="42.06713228198994" lon="12.987917230156059"><ele>874.2857142857142</ele><time>2026-03-29T10:11:03Z</time></trkpt><trkpt lat="42.067084293041304" lon="12.98797252679101"><ele>870.7142857142858</ele><time>2026-03-29T10:11:05Z</time></trkpt><trkpt lat="42.06701852132562" lon="12.988021610936793"><ele>867.1428571428572</ele><time>2026-03-29T10:11:07Z</time></trkpt><trkpt lat="42.06696157205132" lon="12.98797468184576"><ele>863.5714285714286</ele><time>2026-03-29T10:11:11Z</time></trkpt><trkpt lat="42.066880600568666" lon="12.988012218980604"><ele>860.0</ele><time>2026-03-29T10:11:13Z</time></trkpt><trkpt lat="42.066822132464125" lon="12.988075859532872"><ele>860.0000000000001</ele><time>2026-03-29T10:11:16Z</time></trkpt><trkpt lat="42.06675619564309" lon="12.98806244324277"><ele>860.0</ele><time>2026-03-29T10:11:19Z</time></trkpt><trkpt lat="42.0666729508211" lon="12.98807918897478"><ele>860.0</ele><time>2026-03-29T10:11:22Z</time></trkpt><trkpt lat="42.06660263704047" lon="12.988124160558842"><ele>860.0</ele><time>2026-03-29T10:11:25Z</time></trkpt><trkpt lat="42.0665512532634" lon="12.988175212463945"><ele>860.0000000000001</ele><time>2026-03-29T10:11:27Z</time></trkpt><trkpt lat="42.066466384703624" lon="12.988205904669602"><ele>860.0</ele><time>2026-03-29T10:11:30Z</time></trkpt><trkpt lat="42.06627453382357" lon="12.988238860385996"><ele>854.75</ele><time>2026-03-29T10:11:32Z</time></trkpt><trkpt lat="42.06618659261948" lon="12.988299409375742"><ele>849.5</ele><time>2026-03-29T10:11:34Z</time></trkpt><trkpt lat="42.06607026027162" lon="12.98835418761782"><ele>844.25</ele><time>2026-03-29T10:11:36Z</time></trkpt><trkpt lat="42.065953298827935" lon="12.98838083595795"><ele>839.0</ele><time>2026-03-29T10:11:38Z</time></trkpt><trkpt lat="42.0658230215807" lon="12.988405271820008"><ele>835.4000000000001</ele><time>2026-03-29T10:11:40Z</time></trkpt><trkpt lat="42.0657430809059" lon="12.988367428270468"><ele>831.8</ele><time>2026-03-29T10:11:42Z</time></trkpt><trkpt lat="42.06570741790878" lon="12.988270677033956"><ele>828.2</ele><time>2026-03-29T10:11:45Z</time></trkpt><trkpt lat="42.065708317936746" lon="12.988170128211161"><ele>824.5999999999999</ele><time>2026-03-29T10:11:47Z</time></trkpt><trkpt lat="42.06570499414247" lon="12.987977087869005"><ele>821.0</ele><time>2026-03-29T10:11:49Z</time></trkpt><trkpt lat="42.065717162678006" lon="12.987884514433466"><ele>819.8</ele><time>2026-03-29T10:11:50Z</time></trkpt><trkpt lat="42.0656738891545" lon="12.987764902345617"><ele>818.5999999999999</ele><time>2026-03-29T10:11:52Z</time></trkpt><trkpt lat="42.06567095795092" lon="12.987617927508541"><ele>817.4</ele><time>2026-03-29T10:11:54Z</time></trkpt><trkpt lat="42.065686404499985" lon="12.987478976148127"><ele>816.2</ele><time>2026-03-29T10:11:55Z</time></trkpt><trkpt lat="42.06568634727219" lon="12.987370586189652"><ele>815.0</ele><time>2026-03-29T10:11:56Z</time></trkpt><trkpt lat="42.065681079155354" lon="12.98727837263054"><ele>813.2</ele><time>2026-03-29T10:11:57Z</time></trkpt><trkpt lat="42.065661404192895" lon="12.987131834223"><ele>811.4</ele><time>2026-03-29T10:11:59Z</time></trkpt><trkpt lat="42.06560889963007" lon="12.987017339766345"><ele>809.5999999999999</ele><time>2026-03-29T10:12:01Z</time></trkpt><trkpt lat="42.06559112278388" lon="12.986868566882894"><ele>807.8</ele><time>2026-03-29T10:12:03Z</time></trkpt><trkpt lat="42.06557406761856" lon="12.98673520765307"><ele>806.0</ele><time>2026-03-29T10:12:04.999Z</time></trkpt><trkpt lat="42.065582082456096" lon="12.986623948134092"><ele>805.0000000000001</ele><time>2026-03-29T10:12:06.999Z</time></trkpt><trkpt lat="42.06558802472996" lon="12.986490923992166"><ele>804.0</ele><time>2026-03-29T10:12:08.999Z</time></trkpt><trkpt lat="42.06559706455041" lon="12.986404116037336"><ele>803.0</ele><time>2026-03-29T10:12:09.999Z</time></trkpt><trkpt lat="42.06560951116666" lon="12.9862861792753"><ele>802.0</ele><time>2026-03-29T10:12:10.999Z</time></trkpt><trkpt lat="42.06563321679151" lon="12.98619824571892"><ele>801.0000000000001</ele><time>2026-03-29T10:12:11.999Z</time></trkpt><trkpt lat="42.06567212428673" lon="12.986056374785951"><ele>800.0</ele><time>2026-03-29T10:12:13.999Z</time></trkpt><trkpt lat="42.06564035545565" lon="12.985909899494422"><ele>800.0</ele><time>2026-03-29T10:12:15.999Z</time></trkpt><trkpt lat="42.065566561371995" lon="12.985887607208475"><ele>800.0</ele><time>2026-03-29T10:12:17.999Z</time></trkpt><trkpt lat="42.065486161023514" lon="12.985838443712048"><ele>800.0</ele><time>2026-03-29T10:12:19.999Z</time></trkpt><trkpt lat="42.06542342437717" lon="12.985757299977122"><ele>800.0</ele><time>2026-03-29T10:12:21.999Z</time></trkpt><trkpt lat="42.0653221566879" lon="12.98573243434059"><ele>800.0</ele><time>2026-03-29T10:12:23.999Z</time></trkpt><trkpt lat="42.06521863760662" lon="12.985677866144039"><ele>799.6666666666667</ele><time>2026-03-29T10:12:25.999Z</time></trkpt><trkpt lat="42.06512340411738" lon="12.985674175269379"><ele>799.3333333333334</ele><time>2026-03-29T10:12:27.999Z</time></trkpt><trkpt lat="42.06503766046323" lon="12.985753394297785"><ele>799.0</ele><time>2026-03-29T10:12:29.999Z</time></trkpt><trkpt lat="42.064957588621176" lon="12.985821195048974"><ele>798.6666666666667</ele><time>2026-03-29T10:12:31.999Z</time></trkpt><trkpt lat="42.06488379324547" lon="12.98585188342216"><ele>798.3333333333334</ele><time>2026-03-29T10:12:34.999Z</time></trkpt><trkpt lat="42.06481037241117" lon="12.98588212724224"><ele>798.0</ele><time>2026-03-29T10:12:36.999Z</time></trkpt><trkpt lat="42.06473407500348" lon="12.985891685587289"><ele>793.2</ele><time>2026-03-29T10:12:37.999Z</time></trkpt><trkpt lat="42.06468512148592" lon="12.985809918724398"><ele>788.4</ele><time>2026-03-29T10:12:39.999Z</time></trkpt><trkpt lat="42.064598954267716" lon="12.985707215475896"><ele>783.6</ele><time>2026-03-29T10:12:40.999Z</time></trkpt><trkpt lat="42.064524494663786" lon="12.985612704104188"><ele>778.8000000000001</ele><time>2026-03-29T10:12:41.999Z</time></trkpt><trkpt lat="42.06441176704552" lon="12.985510475103014"><ele>774.0</ele><time>2026-03-29T10:12:43.999Z</time></trkpt><trkpt lat="42.064324796608446" lon="12.985494050938794"><ele>774.0</ele><time>2026-03-29T10:12:44.999Z</time></trkpt><trkpt lat="42.06425372341444" lon="12.98547143083717"><ele>774.0</ele><time>2026-03-29T10:12:45.999Z</time></trkpt><trkpt lat="42.064156910101296" lon="12.985426626754345"><ele>774.0</ele><time>2026-03-29T10:12:48Z</time></trkpt><trkpt lat="42.06410301749703" lon="12.985365100954972"><ele>774.0</ele><time>2026-03-29T10:12:50Z</time></trkpt><trkpt lat="42.06404179873612" lon="12.98533733848078"><ele>774.0</ele><time>2026-03-29T10:12:51Z</time></trkpt><trkpt lat="42.06395664077587" lon="12.985292779640872"><ele>774.0</ele><time>2026-03-29T10:12:53Z</time></trkpt><trkpt lat="42.06387280010668" lon="12.985234228999094"><ele>770.4000000000001</ele><time>2026-03-29T10:12:55Z</time></trkpt><trkpt lat="42.063757502572365" lon="12.985196115688051"><ele>766.8</ele><time>2026-03-29T10:12:57Z</time></trkpt><trkpt lat="42.063658586125676" lon="12.98519769488373"><ele>763.2</ele><time>2026-03-29T10:12:58Z</time></trkpt><trkpt lat="42.063567103561766" lon="12.985212543287457"><ele>759.5999999999999</ele><time>2026-03-29T10:12:59Z</time></trkpt><trkpt lat="42.06348581901155" lon="12.985245515194913"><ele>756.0</ele><time>2026-03-29T10:13:00Z</time></trkpt><trkpt lat="42.06341525629172" lon="12.985283047922817"><ele>756.0</ele><time>2026-03-29T10:13:01Z</time></trkpt><trkpt lat="42.06334682835576" lon="12.985298997642404"><ele>756.0</ele><time>2026-03-29T10:13:02Z</time></trkpt><trkpt lat="42.0632733079432" lon="12.985302750677691"><ele>756.0</ele><time>2026-03-29T10:13:03Z</time></trkpt><trkpt lat="42.06320872264452" lon="12.985301520563956"><ele>756.0</ele><time>2026-03-29T10:13:04Z</time></trkpt><trkpt lat="42.063093865007474" lon="12.985331279624587"><ele>756.0</ele><time>2026-03-29T10:13:06Z</time></trkpt><trkpt lat="42.062997591457915" lon="12.985411395134847"><ele>756.0</ele><time>2026-03-29T10:13:08Z</time></trkpt><trkpt lat="42.06295053146296" lon="12.985549389354178"><ele>755.0</ele><time>2026-03-29T10:13:10Z</time></trkpt><trkpt lat="42.062860881893485" lon="12.9856412537078"><ele>754.0</ele><time>2026-03-29T10:13:12Z</time></trkpt><trkpt lat="42.0627813361752" lon="12.985736768725086"><ele>753.0</ele><time>2026-03-29T10:13:14Z</time></trkpt><trkpt lat="42.062739735782095" lon="12.985807310474723"><ele>752.0</ele><time>2026-03-29T10:13:15Z</time></trkpt><trkpt lat="42.062654612140314" lon="12.985900588398593"><ele>751.0</ele><time>2026-03-29T10:13:17Z</time></trkpt><trkpt lat="42.06255613544014" lon="12.985995656533461"><ele>749.5999999999999</ele><time>2026-03-29T10:13:19Z</time></trkpt><trkpt lat="42.06248573140755" lon="12.986074967775547"><ele>748.2</ele><time>2026-03-29T10:13:20Z</time></trkpt><trkpt lat="42.062405707333234" lon="12.98616427194034"><ele>746.8</ele><time>2026-03-29T10:13:21Z</time></trkpt><trkpt lat="42.062323041879935" lon="12.986256523831386"><ele>745.4000000000001</ele><time>2026-03-29T10:13:22Z</time></trkpt><trkpt lat="42.06225171725189" lon="12.98633494269637"><ele>744.0</ele><time>2026-03-29T10:13:23Z</time></trkpt><trkpt lat="42.06219120160129" lon="12.986397752545326"><ele>744.0</ele><time>2026-03-29T10:13:24Z</time></trkpt><trkpt lat="42.06208795240234" lon="12.98648166707194"><ele>744.0</ele><time>2026-03-29T10:13:26Z</time></trkpt><trkpt lat="42.061983303626" lon="12.986551342360096"><ele>744.0</ele><time>2026-03-29T10:13:28Z</time></trkpt><trkpt lat="42.06192296268688" lon="12.986590913596876"><ele>744.0</ele><time>2026-03-29T10:13:29Z</time></trkpt><trkpt lat="42.06186189072372" lon="12.986675158137897"><ele>744.0</ele><time>2026-03-29T10:13:30Z</time></trkpt><trkpt lat="42.06178412188299" lon="12.986751286604825"><ele>743.1666666666666</ele><time>2026-03-29T10:13:31Z</time></trkpt><trkpt lat="42.061711108679376" lon="12.986850085889012"><ele>742.3333333333334</ele><time>2026-03-29T10:13:32Z</time></trkpt><trkpt lat="42.06165536957418" lon="12.986960988190615"><ele>741.5</ele><time>2026-03-29T10:13:33Z</time></trkpt><trkpt lat="42.061618814536416" lon="12.98707093809654"><ele>740.6666666666667</ele><time>2026-03-29T10:13:34Z</time></trkpt><trkpt lat="42.06158938407984" lon="12.98717097255152"><ele>739.8333333333334</ele><time>2026-03-29T10:13:35Z</time></trkpt><trkpt lat="42.06157402182456" lon="12.987266013444259"><ele>739.0</ele><time>2026-03-29T10:13:36Z</time></trkpt><trkpt lat="42.06160577014287" lon="12.987374504292122"><ele>739.0</ele><time>2026-03-29T10:13:37Z</time></trkpt><trkpt lat="42.061569784918596" lon="12.987496742108656"><ele>739.0</ele><time>2026-03-29T10:13:38Z</time></trkpt><trkpt lat="42.06151177435318" lon="12.987653678706167"><ele>739.0</ele><time>2026-03-29T10:13:39Z</time></trkpt><trkpt lat="42.06145248119412" lon="12.987835277940983"><ele>739.0</ele><time>2026-03-29T10:13:40Z</time></trkpt><trkpt lat="42.06139834411335" lon="12.988004699472178"><ele>737.0</ele><time>2026-03-29T10:13:41Z</time></trkpt><trkpt lat="42.061350005078" lon="12.988156740444692"><ele>735.0</ele><time>2026-03-29T10:13:42Z</time></trkpt><trkpt lat="42.06130366316209" lon="12.988302499878928"><ele>733.0</ele><time>2026-03-29T10:13:43Z</time></trkpt><trkpt lat="42.061261176070126" lon="12.988436134474886"><ele>731.0</ele><time>2026-03-29T10:13:44Z</time></trkpt><trkpt lat="42.061242328779024" lon="12.9885759168915"><ele>729.8</ele><time>2026-03-29T10:13:45Z</time></trkpt><trkpt lat="42.06121636240582" lon="12.988717162995771"><ele>728.5999999999999</ele><time>2026-03-29T10:13:46Z</time></trkpt><trkpt lat="42.061189264714436" lon="12.988849541078569"><ele>727.4</ele><time>2026-03-29T10:13:47Z</time></trkpt><trkpt lat="42.06116620578134" lon="12.98896333966245"><ele>726.2</ele><time>2026-03-29T10:13:48Z</time></trkpt><trkpt lat="42.06114588107267" lon="12.989065447541485"><ele>725.0</ele><time>2026-03-29T10:13:49Z</time></trkpt><trkpt lat="42.06112761917602" lon="12.989169074814509"><ele>724.1666666666666</ele><time>2026-03-29T10:13:50Z</time></trkpt><trkpt lat="42.06111762391734" lon="12.989262913883328"><ele>723.3333333333333</ele><time>2026-03-29T10:13:51Z</time></trkpt><trkpt lat="42.061121977008156" lon="12.989361272812282"><ele>722.5</ele><time>2026-03-29T10:13:52Z</time></trkpt><trkpt lat="42.06109319755881" lon="12.989474228090197"><ele>721.6666666666666</ele><time>2026-03-29T10:13:53Z</time></trkpt><trkpt lat="42.061071287737185" lon="12.989590629672819"><ele>720.8333333333334</ele><time>2026-03-29T10:13:54Z</time></trkpt><trkpt lat="42.0610507067789" lon="12.989696503168675"><ele>720.0</ele><time>2026-03-29T10:13:55Z</time></trkpt><trkpt lat="42.06102975661489" lon="12.989797469692704"><ele>720.0</ele><time>2026-03-29T10:13:56Z</time></trkpt><trkpt lat="42.061009521121896" lon="12.989894991932783"><ele>720.0</ele><time>2026-03-29T10:13:57Z</time></trkpt><trkpt lat="42.06099175615733" lon="12.989997242198015"><ele>720.0</ele><time>2026-03-29T10:13:58Z</time></trkpt><trkpt lat="42.06101666438612" lon="12.990112222564125"><ele>720.0</ele><time>2026-03-29T10:13:59Z</time></trkpt><trkpt lat="42.0610328416222" lon="12.990226797230648"><ele>720.0</ele><time>2026-03-29T10:14:00Z</time></trkpt><trkpt lat="42.06102266872566" lon="12.990356096203717"><ele>720.0</ele><time>2026-03-29T10:14:01Z</time></trkpt><trkpt lat="42.06098950623676" lon="12.990462108268858"><ele>718.2</ele><time>2026-03-29T10:14:02Z</time></trkpt><trkpt lat="42.060956344450915" lon="12.99058403055488"><ele>716.4</ele><time>2026-03-29T10:14:03Z</time></trkpt><trkpt lat="42.06091691623951" lon="12.990713428277683"><ele>714.5999999999999</ele><time>2026-03-29T10:14:04Z</time></trkpt><trkpt lat="42.06088071252715" lon="12.990830804190638"><ele>712.8</ele><time>2026-03-29T10:14:05Z</time></trkpt><trkpt lat="42.06084453541807" lon="12.990942772643757"><ele>711.0</ele><time>2026-03-29T10:14:06Z</time></trkpt><trkpt lat="42.06080350466846" lon="12.991048393263316"><ele>709.1999999999999</ele><time>2026-03-29T10:14:07Z</time></trkpt><trkpt lat="42.06076025028479" lon="12.991163297688155"><ele>707.4</ele><time>2026-03-29T10:14:07.999Z</time></trkpt><trkpt lat="42.060723978025734" lon="12.991289832637092"><ele>705.6</ele><time>2026-03-29T10:14:08.999Z</time></trkpt><trkpt lat="42.060701960668254" lon="12.991415573631102"><ele>703.8</ele><time>2026-03-29T10:14:09.999Z</time></trkpt><trkpt lat="42.06064803199103" lon="12.991517789848345"><ele>702.0</ele><time>2026-03-29T10:14:10.999Z</time></trkpt><trkpt lat="42.06059420925457" lon="12.99164390288675"><ele>700.0</ele><time>2026-03-29T10:14:11.999Z</time></trkpt><trkpt lat="42.0605379403736" lon="12.991783064108805"><ele>698.0</ele><time>2026-03-29T10:14:12.999Z</time></trkpt><trkpt lat="42.06049536982369" lon="12.991934867937994"><ele>696.0</ele><time>2026-03-29T10:14:13.999Z</time></trkpt><trkpt lat="42.060471881514786" lon="12.992064361123898"><ele>694.0</ele><time>2026-03-29T10:14:14.999Z</time></trkpt><trkpt lat="42.060474748471954" lon="12.992188008924241"><ele>692.0</ele><time>2026-03-29T10:14:15.999Z</time></trkpt><trkpt lat="42.06047304097493" lon="12.992311026491159"><ele>692.0</ele><time>2026-03-29T10:14:16.999Z</time></trkpt><trkpt lat="42.06036695433968" lon="12.992439319408494"><ele>692.0</ele><time>2026-03-29T10:14:17.999Z</time></trkpt><trkpt lat="42.06030343478196" lon="12.992588874292721"><ele>692.0</ele><time>2026-03-29T10:14:18.999Z</time></trkpt><trkpt lat="42.06027375111391" lon="12.992749942491432"><ele>692.0</ele><time>2026-03-29T10:14:19.999Z</time></trkpt><trkpt lat="42.060246361592206" lon="12.992887404517976"><ele>691.4000000000001</ele><time>2026-03-29T10:14:20.999Z</time></trkpt><trkpt lat="42.060227251812925" lon="12.993023815951348"><ele>690.8000000000001</ele><time>2026-03-29T10:14:21.999Z</time></trkpt><trkpt lat="42.060200029244434" lon="12.993149044348304"><ele>690.2</ele><time>2026-03-29T10:14:22.999Z</time></trkpt><trkpt lat="42.06016962561221" lon="12.993267455179662"><ele>689.6</ele><time>2026-03-29T10:14:23.999Z</time></trkpt><trkpt lat="42.06012976848922" lon="12.993383609111875"><ele>689.0</ele><time>2026-03-29T10:14:24.999Z</time></trkpt><trkpt lat="42.06008435221922" lon="12.993491515684658"><ele>687.8000000000001</ele><time>2026-03-29T10:14:25.999Z</time></trkpt><trkpt lat="42.060045494136354" lon="12.993600507435541"><ele>686.6</ele><time>2026-03-29T10:14:26.999Z</time></trkpt><trkpt lat="42.06000544315727" lon="12.993705403393568"><ele>685.4</ele><time>2026-03-29T10:14:27.999Z</time></trkpt><trkpt lat="42.059986066994185" lon="12.993832722174059"><ele>684.2</ele><time>2026-03-29T10:14:28.999Z</time></trkpt><trkpt lat="42.059973570484374" lon="12.993959442905602"><ele>683.0</ele><time>2026-03-29T10:14:29.999Z</time></trkpt><trkpt lat="42.059960870257285" lon="12.994101640314025"><ele>683.0</ele><time>2026-03-29T10:14:30.999Z</time></trkpt><trkpt lat="42.05994093892869" lon="12.994238326840211"><ele>683.0</ele><time>2026-03-29T10:14:31.999Z</time></trkpt><trkpt lat="42.05992035807603" lon="12.994366140478945"><ele>683.0</ele><time>2026-03-29T10:14:32.999Z</time></trkpt><trkpt lat="42.05989810893968" lon="12.994480214110256"><ele>683.0</ele><time>2026-03-29T10:14:33.999Z</time></trkpt><trkpt lat="42.05987712378847" lon="12.994584654396009"><ele>683.0</ele><time>2026-03-29T10:14:34.999Z</time></trkpt><trkpt lat="42.05985631918299" lon="12.994686425573676"><ele>683.0</ele><time>2026-03-29T10:14:35.999Z</time></trkpt><trkpt lat="42.059836835258814" lon="12.994783209954898"><ele>683.0</ele><time>2026-03-29T10:14:36.999Z</time></trkpt><trkpt lat="42.059816406133976" lon="12.994877931772237"><ele>683.0</ele><time>2026-03-29T10:14:37.999Z</time></trkpt><trkpt lat="42.05979912745814" lon="12.994971573797812"><ele>683.0</ele><time>2026-03-29T10:14:38.999Z</time></trkpt><trkpt lat="42.05976603358199" lon="12.995055593345311"><ele>683.0</ele><time>2026-03-29T10:14:39.999Z</time></trkpt><trkpt lat="42.05974982931109" lon="12.995140850164015"><ele>683.0</ele><time>2026-03-29T10:14:40.999Z</time></trkpt><trkpt lat="42.05972093859662" lon="12.995298947074252"><ele>683.0</ele><time>2026-03-29T10:14:42.999Z</time></trkpt><trkpt lat="42.05970972931621" lon="12.995468232385795"><ele>682.0</ele><time>2026-03-29T10:14:44.999Z</time></trkpt><trkpt lat="42.059689147217824" lon="12.995583013255636"><ele>681.0</ele><time>2026-03-29T10:14:45.999Z</time></trkpt><trkpt lat="42.05967659859032" lon="12.995706935914445"><ele>680.0</ele><time>2026-03-29T10:14:46.999Z</time></trkpt><trkpt lat="42.0596741777643" lon="12.995818108794996"><ele>679.0</ele><time>2026-03-29T10:14:47.999Z</time></trkpt><trkpt lat="42.059668691130746" lon="12.995919185654081"><ele>678.0</ele><time>2026-03-29T10:14:48.999Z</time></trkpt><trkpt lat="42.059659418195984" lon="12.996010829058312"><ele>677.0</ele><time>2026-03-29T10:14:49.999Z</time></trkpt><trkpt lat="42.059648373348836" lon="12.99610228715923"><ele>675.9999999999999</ele><time>2026-03-29T10:14:50.999Z</time></trkpt><trkpt lat="42.0596318421369" lon="12.996199287126181"><ele>675.0</ele><time>2026-03-29T10:14:51.999Z</time></trkpt><trkpt lat="42.05961822577675" lon="12.996290632650197"><ele>674.0</ele><time>2026-03-29T10:14:53Z</time></trkpt><trkpt lat="42.05960464212642" lon="12.99638261046286"><ele>673.0</ele><time>2026-03-29T10:14:54Z</time></trkpt><trkpt lat="42.05959608031905" lon="12.996485759418706"><ele>672.0</ele><time>2026-03-29T10:14:55Z</time></trkpt><trkpt lat="42.05958354174404" lon="12.996576933416861"><ele>670.9999999999999</ele><time>2026-03-29T10:14:56Z</time></trkpt><trkpt lat="42.05957148152505" lon="12.996662727901745"><ele>670.0</ele><time>2026-03-29T10:14:57Z</time></trkpt><trkpt lat="42.05956865739543" lon="12.996763039201346"><ele>669.8</ele><time>2026-03-29T10:14:58Z</time></trkpt><trkpt lat="42.05956398921125" lon="12.99687641705587"><ele>669.6</ele><time>2026-03-29T10:14:59Z</time></trkpt><trkpt lat="42.05954191376947" lon="12.997005221619707"><ele>669.4000000000001</ele><time>2026-03-29T10:15:00Z</time></trkpt><trkpt lat="42.05953475666794" lon="12.997144427536204"><ele>669.2</ele><time>2026-03-29T10:15:01Z</time></trkpt><trkpt lat="42.05953278154949" lon="12.99728842342984"><ele>669.0</ele><time>2026-03-29T10:15:02Z</time></trkpt><trkpt lat="42.059553874791696" lon="12.997438512482876"><ele>672.5</ele><time>2026-03-29T10:15:03Z</time></trkpt><trkpt lat="42.059578231315996" lon="12.99758853400424"><ele>676.0</ele><time>2026-03-29T10:15:04Z</time></trkpt><trkpt lat="42.059627360185935" lon="12.997729556515283"><ele>679.5</ele><time>2026-03-29T10:15:05Z</time></trkpt><trkpt lat="42.05969397866039" lon="12.997857123233088"><ele>683.0</ele><time>2026-03-29T10:15:06Z</time></trkpt><trkpt lat="42.05977305893234" lon="12.997968881795362"><ele>683.0</ele><time>2026-03-29T10:15:07Z</time></trkpt><trkpt lat="42.05986225145627" lon="12.998034125580736"><ele>683.0</ele><time>2026-03-29T10:15:08Z</time></trkpt><trkpt lat="42.059966349609965" lon="12.998089224640763"><ele>683.0</ele><time>2026-03-29T10:15:09Z</time></trkpt><trkpt lat="42.06007778423957" lon="12.998143990394231"><ele>683.0</ele><time>2026-03-29T10:15:10Z</time></trkpt><trkpt lat="42.06019009087152" lon="12.998208909956757"><ele>681.5</ele><time>2026-03-29T10:15:11Z</time></trkpt><trkpt lat="42.060300921016506" lon="12.998277056098631"><ele>680.0</ele><time>2026-03-29T10:15:12Z</time></trkpt><trkpt lat="42.06040810431408" lon="12.998360461071073"><ele>678.5</ele><time>2026-03-29T10:15:13Z</time></trkpt><trkpt lat="42.06051157791839" lon="12.998446869791405"><ele>677.0</ele><time>2026-03-29T10:15:14Z</time></trkpt><trkpt lat="42.060607777102675" lon="12.998530437634392"><ele>677.0</ele><time>2026-03-29T10:15:15Z</time></trkpt><trkpt lat="42.06069878395884" lon="12.998615064766907"><ele>677.0</ele><time>2026-03-29T10:15:16Z</time></trkpt><trkpt lat="42.060786099629965" lon="12.998689016812591"><ele>677.0</ele><time>2026-03-29T10:15:17Z</time></trkpt><trkpt lat="42.06086404980493" lon="12.998747117476224"><ele>677.0</ele><time>2026-03-29T10:15:18Z</time></trkpt><trkpt lat="42.06093244070418" lon="12.998796844125803"><ele>677.0</ele><time>2026-03-29T10:15:19Z</time></trkpt><trkpt lat="42.061001784717966" lon="12.998844159545657"><ele>677.5</ele><time>2026-03-29T10:15:20Z</time></trkpt><trkpt lat="42.06109330552294" lon="12.998918896867178"><ele>678.0</ele><time>2026-03-29T10:15:22Z</time></trkpt><trkpt lat="42.061164686444144" lon="12.998968673971337"><ele>678.5</ele><time>2026-03-29T10:15:24Z</time></trkpt><trkpt lat="42.06123041804219" lon="12.999029105628434"><ele>679.0</ele><time>2026-03-29T10:15:26Z</time></trkpt><trkpt lat="42.0612974144077" lon="12.999098622727752"><ele>679.5</ele><time>2026-03-29T10:15:28Z</time></trkpt><trkpt lat="42.06136464008217" lon="12.999163884655605"><ele>680.0</ele><time>2026-03-29T10:15:30Z</time></trkpt><trkpt lat="42.0614163901997" lon="12.99923790120166"><ele>680.0</ele><time>2026-03-29T10:15:32Z</time></trkpt><trkpt lat="42.061442241031806" lon="12.999339606148764"><ele>680.0</ele><time>2026-03-29T10:15:35Z</time></trkpt><trkpt lat="42.06146617722731" lon="12.99943164203717"><ele>680.0</ele><time>2026-03-29T10:16:00Z</time></trkpt><trkpt lat="42.06147947387584" lon="12.999336861953449"><ele>680.0</ele><time>2026-03-29T10:17:26Z</time></trkpt><trkpt lat="42.06146719310588" lon="12.99924289890568"><ele>680.0</ele><time>2026-03-29T10:17:33Z</time></trkpt><trkpt lat="42.06146337205937" lon="12.99915823701016"><ele>680.0</ele><time>2026-03-29T10:17:42Z</time></trkpt><trkpt lat="42.06147964294558" lon="12.999071189937304"><ele>680.0</ele><time>2026-03-29T10:17:53Z</time></trkpt><trkpt lat="42.06150484657101" lon="12.998984864488747"><ele>675.3333333333333</ele><time>2026-03-29T10:18:03Z</time></trkpt><trkpt lat="42.06125369373468" lon="12.999099464445546"><ele>670.6666666666666</ele><time>2026-03-29T10:25:45.017Z</time></trkpt><trkpt lat="42.061372101351594" lon="12.99906743870188"><ele>666.0</ele><time>2026-03-29T10:25:48.995Z</time></trkpt><trkpt lat="42.06139545125912" lon="12.999155130520693"><ele>668.8</ele><time>2026-03-29T10:26:00Z</time></trkpt><trkpt lat="42.061399267355654" lon="12.999252221483927"><ele>671.5999999999999</ele><time>2026-03-29T10:26:07Z</time></trkpt><trkpt lat="42.06142246725909" lon="12.999339543309716"><ele>674.4</ele><time>2026-03-29T10:26:16Z</time></trkpt><trkpt lat="42.06146010699776" lon="12.999411843071272"><ele>677.2</ele><time>2026-03-29T10:30:11Z</time></trkpt><trkpt lat="42.06152001041498" lon="12.999552826026079"><ele>680.0</ele><time>2026-03-29T10:36:41Z</time></trkpt><trkpt lat="42.06155015979255" lon="12.9997266702324"><ele>680.0</ele><time>2026-03-29T10:36:43Z</time></trkpt><trkpt lat="42.06157255528851" lon="12.99986855506029"><ele>680.0</ele><time>2026-03-29T10:36:44Z</time></trkpt><trkpt lat="42.06160257102" lon="13.000027968217276"><ele>680.0</ele><time>2026-03-29T10:36:45Z</time></trkpt><trkpt lat="42.06166220615854" lon="13.000209872683238"><ele>680.0</ele><time>2026-03-29T10:36:46Z</time></trkpt><trkpt lat="42.061746134115864" lon="13.000398055342329"><ele>678.3333333333333</ele><time>2026-03-29T10:36:47Z</time></trkpt><trkpt lat="42.06179144218342" lon="13.000609089311777"><ele>676.6666666666666</ele><time>2026-03-29T10:36:48Z</time></trkpt><trkpt lat="42.061759630807614" lon="13.000831372894734"><ele>675.0</ele><time>2026-03-29T10:36:49Z</time></trkpt><trkpt lat="42.061772260732084" lon="13.001034617353868"><ele>674.8</ele><time>2026-03-29T10:36:50Z</time></trkpt><trkpt lat="42.061768815012385" lon="13.00120105693765"><ele>674.6</ele><time>2026-03-29T10:36:51Z</time></trkpt><trkpt lat="42.06175856218554" lon="13.001357892781181"><ele>674.4000000000001</ele><time>2026-03-29T10:36:52Z</time></trkpt><trkpt lat="42.06174766027032" lon="13.001474624240043"><ele>674.2</ele><time>2026-03-29T10:36:53Z</time></trkpt><trkpt lat="42.06170444828532" lon="13.001613031844073"><ele>674.0</ele><time>2026-03-29T10:36:55Z</time></trkpt><trkpt lat="42.06169038614605" lon="13.00175053229034"><ele>673.5</ele><time>2026-03-29T10:36:57Z</time></trkpt><trkpt lat="42.06164897464679" lon="13.001891451681852"><ele>673.0</ele><time>2026-03-29T10:36:59Z</time></trkpt><trkpt lat="42.06161984364257" lon="13.001971567659865"><ele>672.5</ele><time>2026-03-29T10:37:00Z</time></trkpt><trkpt lat="42.06158834635997" lon="13.002051549122717"><ele>672.0</ele><time>2026-03-29T10:37:01Z</time></trkpt><trkpt lat="42.06155456742982" lon="13.002131605195126"><ele>671.5</ele><time>2026-03-29T10:37:02Z</time></trkpt><trkpt lat="42.06151532606618" lon="13.002221744131344"><ele>671.0</ele><time>2026-03-29T10:37:03Z</time></trkpt><trkpt lat="42.06147878420566" lon="13.002305682221994"><ele>671.0</ele><time>2026-03-29T10:37:04Z</time></trkpt><trkpt lat="42.06142136811148" lon="13.002440522167795"><ele>671.0</ele><time>2026-03-29T10:37:06Z</time></trkpt><trkpt lat="42.06138362174712" lon="13.00252941347509"><ele>671.0</ele><time>2026-03-29T10:37:07Z</time></trkpt><trkpt lat="42.06134105562307" lon="13.002670024054932"><ele>671.0</ele><time>2026-03-29T10:37:09Z</time></trkpt><trkpt lat="42.06131816096662" lon="13.002805452941018"><ele>671.0</ele><time>2026-03-29T10:37:11Z</time></trkpt><trkpt lat="42.061337630855746" lon="13.00293202148738"><ele>665.4</ele><time>2026-03-29T10:37:14Z</time></trkpt><trkpt lat="42.061341492216215" lon="13.00304072272463"><ele>659.8</ele><time>2026-03-29T10:37:15Z</time></trkpt><trkpt lat="42.061310300019876" lon="13.003253668282941"><ele>654.1999999999999</ele><time>2026-03-29T10:37:15.999Z</time></trkpt><trkpt lat="42.061266946494" lon="13.00338431521442"><ele>648.5999999999999</ele><time>2026-03-29T10:37:16.999Z</time></trkpt><trkpt lat="42.06122923572256" lon="13.003492190275297"><ele>643.0</ele><time>2026-03-29T10:37:17.999Z</time></trkpt><trkpt lat="42.06119216200602" lon="13.003597081807042"><ele>641.8</ele><time>2026-03-29T10:37:20.999Z</time></trkpt><trkpt lat="42.06115555091401" lon="13.003718717702775"><ele>640.5999999999999</ele><time>2026-03-29T10:37:22.999Z</time></trkpt><trkpt lat="42.06111671036153" lon="13.003847386753241"><ele>639.4000000000001</ele><time>2026-03-29T10:37:24.999Z</time></trkpt><trkpt lat="42.061148564445794" lon="13.003985207248416"><ele>638.2</ele><time>2026-03-29T10:37:29.999Z</time></trkpt><trkpt lat="42.06115138953712" lon="13.004094714269105"><ele>637.0</ele><time>2026-03-29T10:37:30.999Z</time></trkpt><trkpt lat="42.061141444265566" lon="13.004184144627994"><ele>637.0</ele><time>2026-03-29T10:37:31.999Z</time></trkpt><trkpt lat="42.06112929780536" lon="13.0042818414941"><ele>637.0</ele><time>2026-03-29T10:37:32.999Z</time></trkpt><trkpt lat="42.061112241483706" lon="13.00437684933038"><ele>637.0</ele><time>2026-03-29T10:37:33.999Z</time></trkpt><trkpt lat="42.06106988655962" lon="13.004622473280403"><ele>637.0</ele><time>2026-03-29T10:37:34.999Z</time></trkpt><trkpt lat="42.06101799302123" lon="13.004740446447748"><ele>637.0</ele><time>2026-03-29T10:37:35.999Z</time></trkpt><trkpt lat="42.06096586437485" lon="13.004846049777418"><ele>637.0</ele><time>2026-03-29T10:37:36.999Z</time></trkpt><trkpt lat="42.06091227313281" lon="13.004931663982992"><ele>637.0</ele><time>2026-03-29T10:37:37.999Z</time></trkpt><trkpt lat="42.060345843861185" lon="13.004855372999792"><ele>637.5</ele><time>2026-03-29T10:37:38.999Z</time></trkpt><trkpt lat="42.06029656868525" lon="13.004988624198356"><ele>638.0</ele><time>2026-03-29T10:37:40.999Z</time></trkpt><trkpt lat="42.0602534136517" lon="13.005075813972201"><ele>638.5</ele><time>2026-03-29T10:37:42.999Z</time></trkpt><trkpt lat="42.06018836919526" lon="13.005089867239938"><ele>639.0</ele><time>2026-03-29T10:37:45.999Z</time></trkpt><trkpt lat="42.06013644662526" lon="13.004990882983092"><ele>639.5</ele><time>2026-03-29T10:37:47.999Z</time></trkpt><trkpt lat="42.060066088931656" lon="13.005017424663935"><ele>640.0</ele><time>2026-03-29T10:37:50.999Z</time></trkpt><trkpt lat="42.0600029243125" lon="13.005082493848667"><ele>640.3333333333334</ele><time>2026-03-29T10:37:52.999Z</time></trkpt><trkpt lat="42.05996828727049" lon="13.005185226701355"><ele>640.6666666666667</ele><time>2026-03-29T10:37:54.999Z</time></trkpt><trkpt lat="42.05988890201283" lon="13.005242013246269"><ele>641.0</ele><time>2026-03-29T10:37:56.999Z</time></trkpt><trkpt lat="42.05981995724114" lon="13.005291854438546"><ele>641.3333333333334</ele><time>2026-03-29T10:37:57.999Z</time></trkpt><trkpt lat="42.05976778690463" lon="13.005343423955834"><ele>641.6666666666666</ele><time>2026-03-29T10:38:02.999Z</time></trkpt><trkpt lat="42.05969128322535" lon="13.005373889337463"><ele>642.0</ele><time>2026-03-29T10:38:07.999Z</time></trkpt><trkpt lat="42.05961791816757" lon="13.005399332958854"><ele>641.9999999999999</ele><time>2026-03-29T10:38:11.999Z</time></trkpt><trkpt lat="42.05957597912819" lon="13.005464247506453"><ele>642.0</ele><time>2026-03-29T10:38:14.999Z</time></trkpt><trkpt lat="42.059523748759176" lon="13.005536775920447"><ele>642.0</ele><time>2026-03-29T10:38:21.999Z</time></trkpt><trkpt lat="42.059477875373624" lon="13.005612908408096"><ele>642.0</ele><time>2026-03-29T10:38:24.999Z</time></trkpt><trkpt lat="42.059417539363395" lon="13.00566390523755"><ele>642.0</ele><time>2026-03-29T10:38:27Z</time></trkpt><trkpt lat="42.05937970004621" lon="13.005734719030249"><ele>641.9999999999999</ele><time>2026-03-29T10:38:29Z</time></trkpt><trkpt lat="42.05931765748726" lon="13.005779254944127"><ele>642.0</ele><time>2026-03-29T10:38:38Z</time></trkpt><trkpt lat="42.0592632361806" lon="13.005832349406349"><ele>637.7142857142857</ele><time>2026-03-29T10:38:48Z</time></trkpt><trkpt lat="42.059208596971324" lon="13.005884533710883"><ele>633.4285714285714</ele><time>2026-03-29T10:38:58Z</time></trkpt><trkpt lat="42.05915554034727" lon="13.00595741123893"><ele>629.1428571428571</ele><time>2026-03-29T10:39:00Z</time></trkpt><trkpt lat="42.05910205758713" lon="13.006015467165403"><ele>624.8571428571429</ele><time>2026-03-29T10:39:06Z</time></trkpt><trkpt lat="42.05904153571386" lon="13.00605026492555"><ele>620.5714285714286</ele><time>2026-03-29T10:39:08Z</time></trkpt><trkpt lat="42.059000484986264" lon="13.00613887063927"><ele>616.2857142857142</ele><time>2026-03-29T10:39:17.999Z</time></trkpt><trkpt lat="42.05894928623671" lon="13.006195561011854"><ele>612.0</ele><time>2026-03-29T10:39:21.999Z</time></trkpt><trkpt lat="42.05887346020593" lon="13.006234014410442"><ele>612.0</ele><time>2026-03-29T10:39:23.999Z</time></trkpt><trkpt lat="42.05881635681038" lon="13.006286297330663"><ele>612.0</ele><time>2026-03-29T10:39:25.999Z</time></trkpt><trkpt lat="42.05874392841537" lon="13.00633364152323"><ele>612.0</ele><time>2026-03-29T10:39:29.999Z</time></trkpt><trkpt lat="42.05872820744398" lon="13.006420820361756"><ele>612.0</ele><time>2026-03-29T10:39:33.999Z</time></trkpt><trkpt lat="42.05865787385667" lon="13.00650280788945"><ele>612.0</ele><time>2026-03-29T10:39:35.999Z</time></trkpt><trkpt lat="42.05858127576669" lon="13.00654306315159"><ele>612.0</ele><time>2026-03-29T10:39:36.999Z</time></trkpt><trkpt lat="42.058496400661916" lon="13.006601467409183"><ele>612.0</ele><time>2026-03-29T10:39:37.999Z</time></trkpt><trkpt lat="42.0584453051839" lon="13.006658973705264"><ele>612.0</ele><time>2026-03-29T10:39:38.999Z</time></trkpt><trkpt lat="42.05840410316741" lon="13.006735037738126"><ele>612.0</ele><time>2026-03-29T10:39:40.999Z</time></trkpt><trkpt lat="42.05837275314419" lon="13.006850402573843"><ele>612.0</ele><time>2026-03-29T10:39:42.999Z</time></trkpt><trkpt lat="42.0583262976464" lon="13.006951107784918"><ele>612.0</ele><time>2026-03-29T10:39:44.999Z</time></trkpt><trkpt lat="42.05831266526613" lon="13.007036979300498"><ele>612.0</ele><time>2026-03-29T10:39:51.999Z</time></trkpt><trkpt lat="42.058264593478384" lon="13.007126629826034"><ele>617.0</ele><time>2026-03-29T10:39:58.999Z</time></trkpt><trkpt lat="42.058233648206134" lon="13.007238128105747"><ele>622.0</ele><time>2026-03-29T10:40:02.999Z</time></trkpt><trkpt lat="42.058247115882764" lon="13.007374857178155"><ele>627.0</ele><time>2026-03-29T10:40:04.999Z</time></trkpt><trkpt lat="42.05826657666881" lon="13.007490420067237"><ele>632.0</ele><time>2026-03-29T10:40:05.999Z</time></trkpt><trkpt lat="42.05825674278436" lon="13.007631496829102"><ele>637.0</ele><time>2026-03-29T10:40:06.999Z</time></trkpt><trkpt lat="42.05821893026352" lon="13.007820672138536"><ele>637.0</ele><time>2026-03-29T10:40:07.999Z</time></trkpt><trkpt lat="42.05817667885709" lon="13.00794963965495"><ele>637.0</ele><time>2026-03-29T10:40:08.999Z</time></trkpt><trkpt lat="42.05814067695364" lon="13.008060347858565"><ele>637.0</ele><time>2026-03-29T10:40:09.999Z</time></trkpt><trkpt lat="42.05812912547938" lon="13.008168469350741"><ele>637.0</ele><time>2026-03-29T10:40:10.999Z</time></trkpt><trkpt lat="42.05813773177088" lon="13.00828848518385"><ele>637.0</ele><time>2026-03-29T10:40:11.999Z</time></trkpt><trkpt lat="42.05815293748462" lon="13.0084385371448"><ele>636.0</ele><time>2026-03-29T10:40:12.999Z</time></trkpt><trkpt lat="42.05815537732306" lon="13.008550143019972"><ele>635.0</ele><time>2026-03-29T10:40:13.999Z</time></trkpt><trkpt lat="42.05816134465105" lon="13.008652482886747"><ele>634.0</ele><time>2026-03-29T10:40:14.999Z</time></trkpt><trkpt lat="42.058148561084984" lon="13.00876158148965"><ele>633.0</ele><time>2026-03-29T10:40:15.999Z</time></trkpt><trkpt lat="42.058127929558424" lon="13.008880787992538"><ele>632.0</ele><time>2026-03-29T10:40:16.999Z</time></trkpt><trkpt lat="42.05812599046888" lon="13.009044782238798"><ele>628.8000000000001</ele><time>2026-03-29T10:40:17.999Z</time></trkpt><trkpt lat="42.05811004765313" lon="13.0092193211866"><ele>625.6</ele><time>2026-03-29T10:40:18.999Z</time></trkpt><trkpt lat="42.058088816653104" lon="13.009345986595017"><ele>622.4000000000001</ele><time>2026-03-29T10:40:19.999Z</time></trkpt><trkpt lat="42.05803708004416" lon="13.0094634194182"><ele>619.2</ele><time>2026-03-29T10:40:20.999Z</time></trkpt><trkpt lat="42.05799442027914" lon="13.009580472148366"><ele>616.0</ele><time>2026-03-29T10:40:21.999Z</time></trkpt><trkpt lat="42.05801007609932" lon="13.00966320173884"><ele>616.0</ele><time>2026-03-29T10:40:22.999Z</time></trkpt><trkpt lat="42.0580634856033" lon="13.009812395786179"><ele>616.0</ele><time>2026-03-29T10:40:23.999Z</time></trkpt><trkpt lat="42.058121012471915" lon="13.009986003312648"><ele>616.0</ele><time>2026-03-29T10:40:24.999Z</time></trkpt><trkpt lat="42.058148754652095" lon="13.010174050816548"><ele>616.0</ele><time>2026-03-29T10:40:25.999Z</time></trkpt><trkpt lat="42.05817674409721" lon="13.010357698816426"><ele>612.6</ele><time>2026-03-29T10:40:26.999Z</time></trkpt><trkpt lat="42.058197637648036" lon="13.010488238694565"><ele>609.2</ele><time>2026-03-29T10:40:27.999Z</time></trkpt><trkpt lat="42.058196869027014" lon="13.010612169475076"><ele>605.8</ele><time>2026-03-29T10:40:28.999Z</time></trkpt><trkpt lat="42.058155059904664" lon="13.010764749837278"><ele>602.4</ele><time>2026-03-29T10:40:30.999Z</time></trkpt><trkpt lat="42.05810414622295" lon="13.010844472039835"><ele>599.0</ele><time>2026-03-29T10:40:32Z</time></trkpt><trkpt lat="42.05806026728446" lon="13.010941426724932"><ele>597.0</ele><time>2026-03-29T10:40:33Z</time></trkpt><trkpt lat="42.05800099583376" lon="13.011047226858222"><ele>595.0</ele><time>2026-03-29T10:40:34Z</time></trkpt><trkpt lat="42.057979570979256" lon="13.011172759477615"><ele>593.0</ele><time>2026-03-29T10:40:35Z</time></trkpt><trkpt lat="42.057964698257386" lon="13.011295874276135"><ele>591.0</ele><time>2026-03-29T10:40:36Z</time></trkpt><trkpt lat="42.05794251687509" lon="13.01141491632137"><ele>589.0</ele><time>2026-03-29T10:40:37Z</time></trkpt><trkpt lat="42.05791539817666" lon="13.011509256249914"><ele>589.0</ele><time>2026-03-29T10:40:38Z</time></trkpt><trkpt lat="42.05790044520269" lon="13.011625558038201"><ele>589.0</ele><time>2026-03-29T10:40:40Z</time></trkpt><trkpt lat="42.05786272690391" lon="13.011756094973608"><ele>589.0</ele><time>2026-03-29T10:40:44Z</time></trkpt><trkpt lat="42.05786023209634" lon="13.011914378702558"><ele>589.0</ele><time>2026-03-29T10:40:46Z</time></trkpt><trkpt lat="42.057704119776034" lon="13.012009523892317"><ele>588.0</ele><time>2026-03-29T10:40:47Z</time></trkpt><trkpt lat="42.057652162420744" lon="13.01210175775785"><ele>587.0</ele><time>2026-03-29T10:40:48Z</time></trkpt><trkpt lat="42.057555960463" lon="13.012144533318622"><ele>586.0</ele><time>2026-03-29T10:40:49Z</time></trkpt><trkpt lat="42.057454089120924" lon="13.012188255540234"><ele>585.0</ele><time>2026-03-29T10:40:50Z</time></trkpt><trkpt lat="42.057371910122896" lon="13.012281155863498"><ele>584.0</ele><time>2026-03-29T10:40:51Z</time></trkpt><trkpt lat="42.057303128059715" lon="13.012395918939006"><ele>583.8</ele><time>2026-03-29T10:40:52Z</time></trkpt><trkpt lat="42.05725320262226" lon="13.012511074334403"><ele>583.5999999999999</ele><time>2026-03-29T10:40:53Z</time></trkpt><trkpt lat="42.05723870861101" lon="13.012666875731565"><ele>583.4</ele><time>2026-03-29T10:40:55Z</time></trkpt><trkpt lat="42.057183998293574" lon="13.012800401567658"><ele>583.1999999999999</ele><time>2026-03-29T10:40:57Z</time></trkpt><trkpt lat="42.0571317230732" lon="13.012886796824535"><ele>583.0</ele><time>2026-03-29T10:40:58Z</time></trkpt><trkpt lat="42.057087187836046" lon="13.012980720605489"><ele>583.0</ele><time>2026-03-29T10:40:59Z</time></trkpt><trkpt lat="42.05704141729291" lon="13.013067154621984"><ele>583.0</ele><time>2026-03-29T10:41:00Z</time></trkpt><trkpt lat="42.05699448723129" lon="13.013163121579684"><ele>583.0</ele><time>2026-03-29T10:41:01Z</time></trkpt><trkpt lat="42.05694341351384" lon="13.013278136380329"><ele>583.0</ele><time>2026-03-29T10:41:02Z</time></trkpt><trkpt lat="42.056900973265314" lon="13.013365858787745"><ele>583.0</ele><time>2026-03-29T10:41:03Z</time></trkpt><trkpt lat="42.05682149137663" lon="13.01341793110317"><ele>583.0</ele><time>2026-03-29T10:41:05Z</time></trkpt><trkpt lat="42.056699851723145" lon="13.013395149503452"><ele>583.3333333333334</ele><time>2026-03-29T10:41:07Z</time></trkpt><trkpt lat="42.05662257157119" lon="13.013415727270369"><ele>583.6666666666667</ele><time>2026-03-29T10:41:08Z</time></trkpt><trkpt lat="42.05656793549642" lon="13.01345831732798"><ele>584.0</ele><time>2026-03-29T10:41:09Z</time></trkpt><trkpt lat="42.05653279952526" lon="13.013584866910952"><ele>584.3333333333334</ele><time>2026-03-29T10:41:12Z</time></trkpt><trkpt lat="42.056585558537236" lon="13.013687204800721"><ele>584.6666666666666</ele><time>2026-03-29T10:41:13Z</time></trkpt><trkpt lat="42.05664863263499" lon="13.013802143598747"><ele>585.0</ele><time>2026-03-29T10:41:14Z</time></trkpt><trkpt lat="42.0567016083734" lon="13.013900626861664"><ele>583.2</ele><time>2026-03-29T10:41:15Z</time></trkpt><trkpt lat="42.05675354521679" lon="13.014047616322568"><ele>581.4</ele><time>2026-03-29T10:41:16.999Z</time></trkpt><trkpt lat="42.05676803986504" lon="13.014195903315779"><ele>579.6</ele><time>2026-03-29T10:41:18.999Z</time></trkpt><trkpt lat="42.05677501567572" lon="13.014333485239899"><ele>577.8</ele><time>2026-03-29T10:41:20.999Z</time></trkpt><trkpt lat="42.05683162377512" lon="13.014444123283154"><ele>576.0</ele><time>2026-03-29T10:41:22.999Z</time></trkpt><trkpt lat="42.05686493519282" lon="13.014547798813455"><ele>575.5</ele><time>2026-03-29T10:41:24.999Z</time></trkpt><trkpt lat="42.056862531321066" lon="13.014650977763898"><ele>575.0</ele><time>2026-03-29T10:41:28.999Z</time></trkpt><trkpt lat="42.05680095083975" lon="13.014699859523937"><ele>574.5</ele><time>2026-03-29T10:41:30.999Z</time></trkpt><trkpt lat="42.056715939914845" lon="13.014839973618361"><ele>574.0</ele><time>2026-03-29T10:41:32.999Z</time></trkpt><trkpt lat="42.05664217314184" lon="13.014884929844895"><ele>573.5</ele><time>2026-03-29T10:41:33.999Z</time></trkpt><trkpt lat="42.05661234294223" lon="13.014964909867706"><ele>573.0</ele><time>2026-03-29T10:41:35.999Z</time></trkpt><trkpt lat="42.05658937281692" lon="13.015064965136428"><ele>572.6</ele><time>2026-03-29T10:41:37.999Z</time></trkpt><trkpt lat="42.05651834955853" lon="13.015136567765023"><ele>572.1999999999999</ele><time>2026-03-29T10:41:39.999Z</time></trkpt><trkpt lat="42.05643279751007" lon="13.015240887395173"><ele>571.8</ele><time>2026-03-29T10:41:41.999Z</time></trkpt><trkpt lat="42.05639418817939" lon="13.015342926259429"><ele>571.4</ele><time>2026-03-29T10:41:43.999Z</time></trkpt><trkpt lat="42.05637183244981" lon="13.015480153759691"><ele>571.0</ele><time>2026-03-29T10:41:47.999Z</time></trkpt><trkpt lat="42.05631038041894" lon="13.01563136838203"><ele>571.0</ele><time>2026-03-29T10:41:50.999Z</time></trkpt><trkpt lat="42.05622097716531" lon="13.015606251075464"><ele>571.0</ele><time>2026-03-29T10:41:51.999Z</time></trkpt><trkpt lat="42.05604858649252" lon="13.01549054150715"><ele>571.0</ele><time>2026-03-29T10:41:53.999Z</time></trkpt><trkpt lat="42.05595437113524" lon="13.015500756805396"><ele>571.0</ele><time>2026-03-29T10:41:55.999Z</time></trkpt><trkpt lat="42.05586031824534" lon="13.015507720464308"><ele>571.0</ele><time>2026-03-29T10:41:57.999Z</time></trkpt><trkpt lat="42.05579732258865" lon="13.015512776339444"><ele>571.0</ele><time>2026-03-29T10:42:00.999Z</time></trkpt><trkpt lat="42.05563359721967" lon="13.015522686560757"><ele>571.0</ele><time>2026-03-29T10:42:04.999Z</time></trkpt><trkpt lat="42.05554421145461" lon="13.015524572057592"><ele>571.0</ele><time>2026-03-29T10:42:06.999Z</time></trkpt><trkpt lat="42.055478890462744" lon="13.015536307550642"><ele>571.0</ele><time>2026-03-29T10:42:08.999Z</time></trkpt><trkpt lat="42.05539865314362" lon="13.01556358293374"><ele>571.0</ele><time>2026-03-29T10:42:10.999Z</time></trkpt><trkpt lat="42.05530608963735" lon="13.015512763834865"><ele>571.0</ele><time>2026-03-29T10:42:12.999Z</time></trkpt><trkpt lat="42.05519447081143" lon="13.015498014203418"><ele>571.0</ele><time>2026-03-29T10:42:14.999Z</time></trkpt><trkpt lat="42.05511057852539" lon="13.015485525540091"><ele>571.0</ele><time>2026-03-29T10:42:16.999Z</time></trkpt><trkpt lat="42.054997658334365" lon="13.015462861968121"><ele>571.0</ele><time>2026-03-29T10:42:18.999Z</time></trkpt><trkpt lat="42.05492798139627" lon="13.015447442267922"><ele>576.6666666666667</ele><time>2026-03-29T10:42:21.999Z</time></trkpt><trkpt lat="42.05485974561246" lon="13.015829308152775"><ele>582.3333333333334</ele><time>2026-03-29T10:42:22.999Z</time></trkpt><trkpt lat="42.05478582670267" lon="13.015841043172772"><ele>588.0</ele><time>2026-03-29T10:42:25.999Z</time></trkpt><trkpt lat="42.05469156984963" lon="13.01583393867749"><ele>588.0</ele><time>2026-03-29T10:42:27.999Z</time></trkpt><trkpt lat="42.05462892207062" lon="13.015861683387898"><ele>588.0</ele><time>2026-03-29T10:42:28.999Z</time></trkpt><trkpt lat="42.054571279642545" lon="13.015899255665019"><ele>588.0</ele><time>2026-03-29T10:42:29.999Z</time></trkpt><trkpt lat="42.05449283099316" lon="13.015913423734872"><ele>588.0</ele><time>2026-03-29T10:42:30.999Z</time></trkpt><trkpt lat="42.05438699554718" lon="13.01597391868092"><ele>588.0</ele><time>2026-03-29T10:42:32.999Z</time></trkpt><trkpt lat="42.054294142731216" lon="13.016037896216384"><ele>588.0</ele><time>2026-03-29T10:42:35.999Z</time></trkpt><trkpt lat="42.05421844312207" lon="13.016084350037907"><ele>588.0</ele><time>2026-03-29T10:42:36.999Z</time></trkpt><trkpt lat="42.05414805354426" lon="13.016144931139932"><ele>588.0</ele><time>2026-03-29T10:42:39Z</time></trkpt><trkpt lat="42.054100203712274" lon="13.016208442489441"><ele>588.0</ele><time>2026-03-29T10:42:41Z</time></trkpt><trkpt lat="42.05400009387655" lon="13.01633828303145"><ele>588.0</ele><time>2026-03-29T10:42:43Z</time></trkpt><trkpt lat="42.05393766789963" lon="13.016440741091362"><ele>588.0</ele><time>2026-03-29T10:42:45Z</time></trkpt><trkpt lat="42.053854358876265" lon="13.016529297692252"><ele>586.8</ele><time>2026-03-29T10:42:47Z</time></trkpt><trkpt lat="42.053829859266386" lon="13.016609050491576"><ele>585.5999999999999</ele><time>2026-03-29T10:42:48Z</time></trkpt><trkpt lat="42.05376538622701" lon="13.016723600341235"><ele>584.4000000000001</ele><time>2026-03-29T10:42:50Z</time></trkpt><trkpt lat="42.053725615326826" lon="13.016818609570896"><ele>583.2</ele><time>2026-03-29T10:42:52Z</time></trkpt><trkpt lat="42.05370048222705" lon="13.016957349150264"><ele>582.0</ele><time>2026-03-29T10:42:54Z</time></trkpt><trkpt lat="42.053687323405526" lon="13.017104910024488"><ele>584.8333333333334</ele><time>2026-03-29T10:42:56Z</time></trkpt><trkpt lat="42.05366044799974" lon="13.017185655273623"><ele>587.6666666666666</ele><time>2026-03-29T10:42:58Z</time></trkpt><trkpt lat="42.053646230472665" lon="13.017295456971338"><ele>590.5</ele><time>2026-03-29T10:43:01Z</time></trkpt><trkpt lat="42.05358750423444" lon="13.017329988986411"><ele>593.3333333333333</ele><time>2026-03-29T10:43:03Z</time></trkpt><trkpt lat="42.05353279376915" lon="13.017384646626683"><ele>596.1666666666666</ele><time>2026-03-29T10:43:05Z</time></trkpt><trkpt lat="42.053461033982394" lon="13.017458920289638"><ele>599.0</ele><time>2026-03-29T10:43:08Z</time></trkpt><trkpt lat="42.053382694467196" lon="13.01742238498354"><ele>599.0</ele><time>2026-03-29T10:43:10Z</time></trkpt><trkpt lat="42.05330926036385" lon="13.017363043293011"><ele>599.0</ele><time>2026-03-29T10:43:12Z</time></trkpt><trkpt lat="42.053196787067805" lon="13.017372529391094"><ele>599.0</ele><time>2026-03-29T10:43:14Z</time></trkpt><trkpt lat="42.053100693351745" lon="13.017319957922872"><ele>599.0</ele><time>2026-03-29T10:43:16Z</time></trkpt><trkpt lat="42.053041102571264" lon="13.017290580774315"><ele>599.0</ele><time>2026-03-29T10:43:17Z</time></trkpt><trkpt lat="42.05294011425096" lon="13.017297276457622"><ele>600.3333333333333</ele><time>2026-03-29T10:43:19Z</time></trkpt><trkpt lat="42.05286109464884" lon="13.017288364759684"><ele>601.6666666666666</ele><time>2026-03-29T10:43:21.999Z</time></trkpt><trkpt lat="42.05274165398186" lon="13.017269052797396"><ele>603.0</ele><time>2026-03-29T10:43:25.999Z</time></trkpt><trkpt lat="42.05265865991794" lon="13.017247719308102"><ele>604.3333333333334</ele><time>2026-03-29T10:43:27.999Z</time></trkpt><trkpt lat="42.052589145437416" lon="13.017237083344359"><ele>605.6666666666667</ele><time>2026-03-29T10:43:29.999Z</time></trkpt><trkpt lat="42.052526039915875" lon="13.017219162348317"><ele>607.0</ele><time>2026-03-29T10:43:33.999Z</time></trkpt><trkpt lat="42.05244558180444" lon="13.017187427907443"><ele>609.8333333333334</ele><time>2026-03-29T10:43:36.999Z</time></trkpt><trkpt lat="42.05236931857586" lon="13.017163493436886"><ele>612.6666666666667</ele><time>2026-03-29T10:43:39.999Z</time></trkpt><trkpt lat="42.05230214857948" lon="13.01714671430681"><ele>615.5</ele><time>2026-03-29T10:43:42.999Z</time></trkpt><trkpt lat="42.052214208338825" lon="13.017131990172356"><ele>618.3333333333334</ele><time>2026-03-29T10:43:46.999Z</time></trkpt><trkpt lat="42.05212535566511" lon="13.017128259659355"><ele>621.1666666666666</ele><time>2026-03-29T10:43:50.999Z</time></trkpt><trkpt lat="42.05204420500932" lon="13.017051743677008"><ele>624.0</ele><time>2026-03-29T10:43:54.999Z</time></trkpt><trkpt lat="42.05198702544422" lon="13.017005467185818"><ele>624.0</ele><time>2026-03-29T10:43:56.999Z</time></trkpt><trkpt lat="42.051895602683516" lon="13.016972606161662"><ele>624.0</ele><time>2026-03-29T10:43:58.999Z</time></trkpt><trkpt lat="42.051793821146546" lon="13.016923503024005"><ele>624.0</ele><time>2026-03-29T10:44:00.999Z</time></trkpt><trkpt lat="42.05172883073854" lon="13.016903870426466"><ele>624.0</ele><time>2026-03-29T10:44:02.999Z</time></trkpt><trkpt lat="42.05164415404393" lon="13.016893503201981"><ele>624.0</ele><time>2026-03-29T10:44:04.999Z</time></trkpt><trkpt lat="42.051544969394996" lon="13.016896405017642"><ele>626.3333333333334</ele><time>2026-03-29T10:44:07.999Z</time></trkpt><trkpt lat="42.0514697413478" lon="13.016895515932259"><ele>628.6666666666666</ele><time>2026-03-29T10:44:09.999Z</time></trkpt><trkpt lat="42.05136808282881" lon="13.016857145949468"><ele>631.0</ele><time>2026-03-29T10:44:11.999Z</time></trkpt><trkpt lat="42.05127383890183" lon="13.016792005478942"><ele>633.3333333333333</ele><time>2026-03-29T10:44:13.999Z</time></trkpt><trkpt lat="42.05120940219423" lon="13.016765407656393"><ele>635.6666666666666</ele><time>2026-03-29T10:44:15.999Z</time></trkpt><trkpt lat="42.05113775223316" lon="13.016688208291827"><ele>638.0</ele><time>2026-03-29T10:44:19.999Z</time></trkpt><trkpt lat="42.051069923041474" lon="13.016672969737352"><ele>638.0</ele><time>2026-03-29T10:44:22.999Z</time></trkpt><trkpt lat="42.05096201591387" lon="13.016652445958302"><ele>638.0</ele><time>2026-03-29T10:44:24.999Z</time></trkpt><trkpt lat="42.05090480724326" lon="13.016696794773562"><ele>638.0</ele><time>2026-03-29T10:44:26.999Z</time></trkpt><trkpt lat="42.05084567953379" lon="13.016799208564386"><ele>638.0</ele><time>2026-03-29T10:44:28.999Z</time></trkpt><trkpt lat="42.050797559708" lon="13.016891023312157"><ele>638.0</ele><time>2026-03-29T10:44:30.999Z</time></trkpt><trkpt lat="42.05076186964643" lon="13.016996030086112"><ele>638.0</ele><time>2026-03-29T10:44:32.999Z</time></trkpt><trkpt lat="42.05073255453481" lon="13.017106280545022"><ele>638.0</ele><time>2026-03-29T10:44:34.999Z</time></trkpt><trkpt lat="42.05071958108454" lon="13.017239733717053"><ele>638.0</ele><time>2026-03-29T10:44:37.999Z</time></trkpt><trkpt lat="42.05078066192825" lon="13.017345320943402"><ele>638.0</ele><time>2026-03-29T10:44:40.999Z</time></trkpt><trkpt lat="42.05084069455476" lon="13.017467224049446"><ele>638.0</ele><time>2026-03-29T10:44:42.999Z</time></trkpt><trkpt lat="42.05086943211261" lon="13.017548123608872"><ele>638.0</ele><time>2026-03-29T10:44:44Z</time></trkpt><trkpt lat="42.05091092957275" lon="13.017712537381446"><ele>642.0</ele><time>2026-03-29T10:44:46Z</time></trkpt><trkpt lat="42.050935167572554" lon="13.017823029029055"><ele>646.0</ele><time>2026-03-29T10:44:47Z</time></trkpt><trkpt lat="42.05095547660362" lon="13.01792175570259"><ele>650.0</ele><time>2026-03-29T10:44:48Z</time></trkpt><trkpt lat="42.0509947589283" lon="13.018045978872337"><ele>654.0</ele><time>2026-03-29T10:44:50Z</time></trkpt><trkpt lat="42.05101131218536" lon="13.018136629333577"><ele>658.0</ele><time>2026-03-29T10:44:57Z</time></trkpt><trkpt lat="42.051003328899256" lon="13.018286955661935"><ele>662.0</ele><time>2026-03-29T10:45:00Z</time></trkpt><trkpt lat="42.05098178115358" lon="13.018491719610775"><ele>666.6</ele><time>2026-03-29T10:45:02Z</time></trkpt><trkpt lat="42.05096936675639" lon="13.01860505613173"><ele>671.2</ele><time>2026-03-29T10:45:04Z</time></trkpt><trkpt lat="42.050929019820586" lon="13.018712949444902"><ele>675.8</ele><time>2026-03-29T10:45:06Z</time></trkpt><trkpt lat="42.050943316267706" lon="13.018858913428272"><ele>680.4</ele><time>2026-03-29T10:45:08Z</time></trkpt><trkpt lat="42.05094198025326" lon="13.018996925984066"><ele>685.0</ele><time>2026-03-29T10:45:11Z</time></trkpt><trkpt lat="42.050926147034836" lon="13.01912354237552"><ele>685.0</ele><time>2026-03-29T10:45:13Z</time></trkpt><trkpt lat="42.05091909314031" lon="13.019242517081365"><ele>685.0</ele><time>2026-03-29T10:45:15Z</time></trkpt><trkpt lat="42.05084222539442" lon="13.019379860906788"><ele>685.0</ele><time>2026-03-29T10:45:17Z</time></trkpt><trkpt lat="42.05081688206523" lon="13.01950451742795"><ele>685.0</ele><time>2026-03-29T10:45:19Z</time></trkpt><trkpt lat="42.050789773061716" lon="13.019606316564678"><ele>685.0</ele><time>2026-03-29T10:45:21Z</time></trkpt><trkpt lat="42.050763016023396" lon="13.019736949330705"><ele>685.0</ele><time>2026-03-29T10:45:22.999Z</time></trkpt><trkpt lat="42.05075246108999" lon="13.019835571705118"><ele>685.0</ele><time>2026-03-29T10:45:23.999Z</time></trkpt><trkpt lat="42.050748625127795" lon="13.019939540988483"><ele>685.0</ele><time>2026-03-29T10:45:24.999Z</time></trkpt><trkpt lat="42.05074841028086" lon="13.020070125074618"><ele>685.0</ele><time>2026-03-29T10:45:25.999Z</time></trkpt><trkpt lat="42.050742977700274" lon="13.020198646427636"><ele>685.0</ele><time>2026-03-29T10:45:26.999Z</time></trkpt><trkpt lat="42.05074354220684" lon="13.020289240343756"><ele>685.0</ele><time>2026-03-29T10:45:27.999Z</time></trkpt><trkpt lat="42.05075549023032" lon="13.020382165554777"><ele>690.3333333333334</ele><time>2026-03-29T10:45:29.999Z</time></trkpt><trkpt lat="42.050842343053155" lon="13.020483287456287"><ele>695.6666666666667</ele><time>2026-03-29T10:45:31.999Z</time></trkpt><trkpt lat="42.05088790707665" lon="13.020544800111008"><ele>701.0</ele><time>2026-03-29T10:45:32.999Z</time></trkpt><trkpt lat="42.050893275020655" lon="13.020642412341516"><ele>706.3333333333334</ele><time>2026-03-29T10:45:35.999Z</time></trkpt><trkpt lat="42.050885328618676" lon="13.020770585393672"><ele>711.6666666666666</ele><time>2026-03-29T10:45:37.999Z</time></trkpt><trkpt lat="42.05091022244012" lon="13.020882025365392"><ele>717.0</ele><time>2026-03-29T10:45:39.999Z</time></trkpt><trkpt lat="42.05092708463352" lon="13.020991048342044"><ele>717.0</ele><time>2026-03-29T10:45:41.999Z</time></trkpt><trkpt lat="42.05093158120875" lon="13.02110541800313"><ele>717.0</ele><time>2026-03-29T10:45:42.999Z</time></trkpt><trkpt lat="42.050930208594835" lon="13.021195564516475"><ele>717.0</ele><time>2026-03-29T10:45:43.999Z</time></trkpt><trkpt lat="42.05093523710446" lon="13.02129561177025"><ele>717.0</ele><time>2026-03-29T10:45:44.999Z</time></trkpt><trkpt lat="42.05094248014075" lon="13.021393659203609"><ele>717.0</ele><time>2026-03-29T10:45:45.999Z</time></trkpt><trkpt lat="42.05095409786416" lon="13.021479990917012"><ele>717.0</ele><time>2026-03-29T10:45:46.999Z</time></trkpt><trkpt lat="42.050971072031494" lon="13.02156467878491"><ele>717.0</ele><time>2026-03-29T10:45:47.999Z</time></trkpt><trkpt lat="42.05097464550299" lon="13.021721353537728"><ele>717.4000000000001</ele><time>2026-03-29T10:45:49.999Z</time></trkpt><trkpt lat="42.05101191162002" lon="13.021855850485867"><ele>717.8000000000001</ele><time>2026-03-29T10:45:51.999Z</time></trkpt><trkpt lat="42.05104592120161" lon="13.02201691582032"><ele>718.2</ele><time>2026-03-29T10:45:53.999Z</time></trkpt><trkpt lat="42.05107647663254" lon="13.022183646055783"><ele>718.6</ele><time>2026-03-29T10:45:55.999Z</time></trkpt><trkpt lat="42.05110909988663" lon="13.022279078791867"><ele>719.0</ele><time>2026-03-29T10:45:56.999Z</time></trkpt><trkpt lat="42.05114760713447" lon="13.02236756237281"><ele>719.0</ele><time>2026-03-29T10:45:57.999Z</time></trkpt><trkpt lat="42.051180636841366" lon="13.022479625763193"><ele>719.0</ele><time>2026-03-29T10:45:58.999Z</time></trkpt><trkpt lat="42.051209886244536" lon="13.022563070254954"><ele>719.0</ele><time>2026-03-29T10:45:59.999Z</time></trkpt><trkpt lat="42.05121680738939" lon="13.022661393248212"><ele>719.0</ele><time>2026-03-29T10:46:00.999Z</time></trkpt><trkpt lat="42.0511510910288" lon="13.022698680431704"><ele>719.0</ele><time>2026-03-29T10:46:01.999Z</time></trkpt><trkpt lat="42.05106138628907" lon="13.022842173409899"><ele>719.0</ele><time>2026-03-29T10:46:05.999Z</time></trkpt><trkpt lat="42.05101796801252" lon="13.022947370289652"><ele>720.3333333333333</ele><time>2026-03-29T10:46:07.999Z</time></trkpt><trkpt lat="42.0509826209156" lon="13.02307162154006"><ele>721.6666666666666</ele><time>2026-03-29T10:46:09.999Z</time></trkpt><trkpt lat="42.05098143619479" lon="13.023190779016513"><ele>723.0</ele><time>2026-03-29T10:46:11.999Z</time></trkpt><trkpt lat="42.050956579603884" lon="13.023342122485118"><ele>724.3333333333334</ele><time>2026-03-29T10:46:13.999Z</time></trkpt><trkpt lat="42.05094468945659" lon="13.02343488768706"><ele>725.6666666666667</ele><time>2026-03-29T10:46:14.999Z</time></trkpt><trkpt lat="42.05093732094085" lon="13.023520028192602"><ele>727.0</ele><time>2026-03-29T10:46:15.999Z</time></trkpt><trkpt lat="42.050921797954466" lon="13.023612326194561"><ele>728.8333333333334</ele><time>2026-03-29T10:46:16.999Z</time></trkpt><trkpt lat="42.050907346170014" lon="13.023706996173757"><ele>730.6666666666667</ele><time>2026-03-29T10:46:17.999Z</time></trkpt><trkpt lat="42.05088631406164" lon="13.023794591512063"><ele>732.5</ele><time>2026-03-29T10:46:18.999Z</time></trkpt><trkpt lat="42.050865166252976" lon="13.02388019552168"><ele>734.3333333333334</ele><time>2026-03-29T10:46:19.999Z</time></trkpt><trkpt lat="42.050849478292484" lon="13.024030815929386"><ele>736.1666666666666</ele><time>2026-03-29T10:46:21.999Z</time></trkpt><trkpt lat="42.05082205263849" lon="13.024175718095055"><ele>738.0</ele><time>2026-03-29T10:46:23.999Z</time></trkpt><trkpt lat="42.05079183102402" lon="13.024328126135286"><ele>735.8</ele><time>2026-03-29T10:46:25.999Z</time></trkpt><trkpt lat="42.050758040551706" lon="13.0244856202071"><ele>733.5999999999999</ele><time>2026-03-29T10:46:27.999Z</time></trkpt><trkpt lat="42.05072837463839" lon="13.024576232946153"><ele>731.4000000000001</ele><time>2026-03-29T10:46:28.999Z</time></trkpt><trkpt lat="42.0507022082998" lon="13.024691808403968"><ele>729.2</ele><time>2026-03-29T10:46:29.999Z</time></trkpt><trkpt lat="42.05068007105103" lon="13.024810239449312"><ele>727.0</ele><time>2026-03-29T10:46:30.999Z</time></trkpt><trkpt lat="42.050642599881286" lon="13.024915163159967"><ele>730.3333333333334</ele><time>2026-03-29T10:46:31.999Z</time></trkpt><trkpt lat="42.0505920542876" lon="13.025029632590755"><ele>733.6666666666667</ele><time>2026-03-29T10:46:32.999Z</time></trkpt><trkpt lat="42.050540344508576" lon="13.025131366649802"><ele>737.0</ele><time>2026-03-29T10:46:33.999Z</time></trkpt><trkpt lat="42.05048582451102" lon="13.02521788973247"><ele>740.3333333333334</ele><time>2026-03-29T10:46:34.999Z</time></trkpt><trkpt lat="42.050423789883645" lon="13.0252794253416"><ele>743.6666666666666</ele><time>2026-03-29T10:46:35.999Z</time></trkpt><trkpt lat="42.050347099332456" lon="13.025309001904736"><ele>747.0</ele><time>2026-03-29T10:46:36.999Z</time></trkpt><trkpt lat="42.05026459324805" lon="13.025361975842504"><ele>746.9999999999999</ele><time>2026-03-29T10:46:37.999Z</time></trkpt><trkpt lat="42.05019645255395" lon="13.025415803812308"><ele>747.0</ele><time>2026-03-29T10:46:38.999Z</time></trkpt><trkpt lat="42.050146623679474" lon="13.025483983718633"><ele>747.0</ele><time>2026-03-29T10:46:39.999Z</time></trkpt><trkpt lat="42.050118153608146" lon="13.025569769151472"><ele>747.0</ele><time>2026-03-29T10:46:40.999Z</time></trkpt><trkpt lat="42.05009841353802" lon="13.025661977610751"><ele>747.0</ele><time>2026-03-29T10:46:41.999Z</time></trkpt><trkpt lat="42.050094261391436" lon="13.025761124202774"><ele>746.9999999999999</ele><time>2026-03-29T10:46:42.999Z</time></trkpt><trkpt lat="42.05007832148703" lon="13.025862056018136"><ele>747.0</ele><time>2026-03-29T10:46:43.999Z</time></trkpt><trkpt lat="42.05006897303238" lon="13.025949829450044"><ele>749.4000000000001</ele><time>2026-03-29T10:46:44.999Z</time></trkpt><trkpt lat="42.05006861153476" lon="13.026119667127118"><ele>751.8000000000001</ele><time>2026-03-29T10:46:46.999Z</time></trkpt><trkpt lat="42.05004291138722" lon="13.02621748843314"><ele>754.2</ele><time>2026-03-29T10:46:47.999Z</time></trkpt><trkpt lat="42.050018930080824" lon="13.026303703447327"><ele>756.6</ele><time>2026-03-29T10:46:49Z</time></trkpt><trkpt lat="42.05001082835543" lon="13.026459127920551"><ele>759.0</ele><time>2026-03-29T10:46:51Z</time></trkpt><trkpt lat="42.04999433597823" lon="13.026549099035208"><ele>758.5</ele><time>2026-03-29T10:46:52Z</time></trkpt><trkpt lat="42.04997652401111" lon="13.02664813503867"><ele>758.0</ele><time>2026-03-29T10:46:53Z</time></trkpt><trkpt lat="42.04995896608226" lon="13.026770063419988"><ele>757.5</ele><time>2026-03-29T10:46:55Z</time></trkpt><trkpt lat="42.04989223271854" lon="13.026819171721428"><ele>757.0</ele><time>2026-03-29T10:46:57Z</time></trkpt><trkpt lat="42.04984728250984" lon="13.02690071374447"><ele>756.5</ele><time>2026-03-29T10:46:59Z</time></trkpt><trkpt lat="42.04983388851121" lon="13.026986046428053"><ele>756.0</ele><time>2026-03-29T10:47:01Z</time></trkpt><trkpt lat="42.04983359023975" lon="13.027087792988683"><ele>753.4</ele><time>2026-03-29T10:47:03Z</time></trkpt><trkpt lat="42.049742720317965" lon="13.02719357686041"><ele>750.8</ele><time>2026-03-29T10:47:05Z</time></trkpt><trkpt lat="42.0496938435768" lon="13.027268711782792"><ele>748.1999999999999</ele><time>2026-03-29T10:47:06Z</time></trkpt><trkpt lat="42.049592058378195" lon="13.027395045414533"><ele>745.5999999999999</ele><time>2026-03-29T10:47:07Z</time></trkpt><trkpt lat="42.049547516282715" lon="13.027474897482358"><ele>743.0</ele><time>2026-03-29T10:47:08Z</time></trkpt><trkpt lat="42.049497676900444" lon="13.02756411918415"><ele>743.0</ele><time>2026-03-29T10:47:10Z</time></trkpt><trkpt lat="42.04944279217577" lon="13.02768051698351"><ele>743.0</ele><time>2026-03-29T10:47:12Z</time></trkpt><trkpt lat="42.04941162021076" lon="13.02779509583182"><ele>743.0</ele><time>2026-03-29T10:47:14Z</time></trkpt><trkpt lat="42.049365258357625" lon="13.027941866632169"><ele>743.0</ele><time>2026-03-29T10:47:16Z</time></trkpt><trkpt lat="42.04931682089172" lon="13.028050818865973"><ele>743.0</ele><time>2026-03-29T10:47:18Z</time></trkpt><trkpt lat="42.04926296773541" lon="13.028194623672494"><ele>745.2</ele><time>2026-03-29T10:47:20Z</time></trkpt><trkpt lat="42.04922765790166" lon="13.028352017739076"><ele>747.4</ele><time>2026-03-29T10:47:22Z</time></trkpt><trkpt lat="42.04916318277796" lon="13.028499863151762"><ele>749.6</ele><time>2026-03-29T10:47:23.999Z</time></trkpt><trkpt lat="42.04912134324849" lon="13.028573259843476"><ele>751.8000000000001</ele><time>2026-03-29T10:47:24.999Z</time></trkpt><trkpt lat="42.04903075964235" lon="13.028683379556444"><ele>754.0</ele><time>2026-03-29T10:47:26.999Z</time></trkpt><trkpt lat="42.04896766880772" lon="13.028778447173805"><ele>747.6666666666667</ele><time>2026-03-29T10:47:28.999Z</time></trkpt><trkpt lat="42.048916030786486" lon="13.028865776020659"><ele>741.3333333333334</ele><time>2026-03-29T10:47:29.999Z</time></trkpt><trkpt lat="42.0488493728957" lon="13.028895440555994"><ele>735.0</ele><time>2026-03-29T10:47:30.999Z</time></trkpt><trkpt lat="42.04876370043883" lon="13.028929661529702"><ele>728.6666666666666</ele><time>2026-03-29T10:47:32.999Z</time></trkpt><trkpt lat="42.04868923324597" lon="13.028921966431856"><ele>722.3333333333333</ele><time>2026-03-29T10:47:34.999Z</time></trkpt><trkpt lat="42.04857865550555" lon="13.028972228263612"><ele>716.0</ele><time>2026-03-29T10:47:37.999Z</time></trkpt><trkpt lat="42.04848568345503" lon="13.029047954647105"><ele>716.0</ele><time>2026-03-29T10:47:39.999Z</time></trkpt><trkpt lat="42.04843703173094" lon="13.029105232233615"><ele>716.0</ele><time>2026-03-29T10:47:40.999Z</time></trkpt><trkpt lat="42.048386552384144" lon="13.029177117320916"><ele>716.0</ele><time>2026-03-29T10:47:41.999Z</time></trkpt><trkpt lat="42.048331747302974" lon="13.029260768268061"><ele>716.0</ele><time>2026-03-29T10:47:42.999Z</time></trkpt><trkpt lat="42.048284253313575" lon="13.029328750828927"><ele>716.0</ele><time>2026-03-29T10:47:43.999Z</time></trkpt><trkpt lat="42.04820984357821" lon="13.029439986306564"><ele>716.0</ele><time>2026-03-29T10:47:45.999Z</time></trkpt><trkpt lat="42.048157885547006" lon="13.029517715237706"><ele>713.5999999999999</ele><time>2026-03-29T10:47:47.999Z</time></trkpt><trkpt lat="42.048100840435644" lon="13.029671270900767"><ele>711.2</ele><time>2026-03-29T10:47:49.999Z</time></trkpt><trkpt lat="42.048055817798534" lon="13.029750786342365"><ele>708.8</ele><time>2026-03-29T10:47:50.999Z</time></trkpt><trkpt lat="42.04802386767299" lon="13.02982517595597"><ele>706.4000000000001</ele><time>2026-03-29T10:47:51.999Z</time></trkpt><trkpt lat="42.04797415027072" lon="13.02997744567645"><ele>704.0</ele><time>2026-03-29T10:47:53.999Z</time></trkpt><trkpt lat="42.04794830266747" lon="13.030075779157428"><ele>704.0</ele><time>2026-03-29T10:47:54.999Z</time></trkpt><trkpt lat="42.047927204528094" lon="13.030222729004313"><ele>704.0</ele><time>2026-03-29T10:47:56.999Z</time></trkpt><trkpt lat="42.04790536257768" lon="13.030325024739406"><ele>704.0</ele><time>2026-03-29T10:47:58.999Z</time></trkpt><trkpt lat="42.047868192272" lon="13.030419984299192"><ele>704.0</ele><time>2026-03-29T10:48:00.999Z</time></trkpt><trkpt lat="42.04786250017602" lon="13.030541794797413"><ele>704.0</ele><time>2026-03-29T10:48:02.999Z</time></trkpt><trkpt lat="42.04786569788875" lon="13.030636176265281"><ele>704.0</ele><time>2026-03-29T10:48:03.999Z</time></trkpt><trkpt lat="42.04787354047229" lon="13.030761402994312"><ele>703.4000000000001</ele><time>2026-03-29T10:48:05.999Z</time></trkpt><trkpt lat="42.04792649947907" lon="13.030856618293551"><ele>702.8</ele><time>2026-03-29T10:48:07.999Z</time></trkpt><trkpt lat="42.04801727925015" lon="13.030970781648227"><ele>702.2</ele><time>2026-03-29T10:48:09.999Z</time></trkpt><trkpt lat="42.04805583049219" lon="13.03105229090078"><ele>701.5999999999999</ele><time>2026-03-29T10:48:10.999Z</time></trkpt><trkpt lat="42.0481096144216" lon="13.031182800359627"><ele>701.0</ele><time>2026-03-29T10:48:12.999Z</time></trkpt><trkpt lat="42.04812660527483" lon="13.031317211576908"><ele>701.0</ele><time>2026-03-29T10:48:14.999Z</time></trkpt><trkpt lat="42.04816280275827" lon="13.031405781180673"><ele>701.0</ele><time>2026-03-29T10:48:16.999Z</time></trkpt><trkpt lat="42.04818521494172" lon="13.031488165688952"><ele>701.0</ele><time>2026-03-29T10:48:18.999Z</time></trkpt><trkpt lat="42.048218420763384" lon="13.031579725537037"><ele>701.0</ele><time>2026-03-29T10:48:20.999Z</time></trkpt><trkpt lat="42.04821684364988" lon="13.031675012324737"><ele>701.0</ele><time>2026-03-29T10:48:22.999Z</time></trkpt><trkpt lat="42.048257860619714" lon="13.03179717308365"><ele>701.0</ele><time>2026-03-29T10:48:24.999Z</time></trkpt><trkpt lat="42.04822280578657" lon="13.031947690640324"><ele>700.4</ele><time>2026-03-29T10:48:26.999Z</time></trkpt><trkpt lat="42.04817996249325" lon="13.03203632813348"><ele>699.8</ele><time>2026-03-29T10:48:27.999Z</time></trkpt><trkpt lat="42.04817057356805" lon="13.032126461648522"><ele>699.1999999999999</ele><time>2026-03-29T10:48:30.999Z</time></trkpt><trkpt lat="42.04819949919187" lon="13.032230084337826"><ele>698.5999999999999</ele><time>2026-03-29T10:48:32.999Z</time></trkpt><trkpt lat="42.048218905537254" lon="13.03238434665025"><ele>698.0</ele><time>2026-03-29T10:48:34.999Z</time></trkpt><trkpt lat="42.0482249466294" lon="13.03254011451338"><ele>698.0</ele><time>2026-03-29T10:48:36.999Z</time></trkpt><trkpt lat="42.048218216604944" lon="13.032707703484572"><ele>698.0</ele><time>2026-03-29T10:48:38.999Z</time></trkpt><trkpt lat="42.04824813277209" lon="13.032857812173786"><ele>698.0</ele><time>2026-03-29T10:48:40.999Z</time></trkpt><trkpt lat="42.04826896054462" lon="13.032939886819221"><ele>698.0</ele><time>2026-03-29T10:48:41.999Z</time></trkpt><trkpt lat="42.0483032353756" lon="13.03304885682386"><ele>698.0</ele><time>2026-03-29T10:48:42.999Z</time></trkpt><trkpt lat="42.048331712721506" lon="13.033188117343087"><ele>704.0</ele><time>2026-03-29T10:48:43.999Z</time></trkpt><trkpt lat="42.04834912011951" lon="13.033312618905338"><ele>710.0</ele><time>2026-03-29T10:48:44.999Z</time></trkpt><trkpt lat="42.04834864198308" lon="13.033434241267335"><ele>716.0</ele><time>2026-03-29T10:48:45.999Z</time></trkpt><trkpt lat="42.04834192314859" lon="13.033561471049138"><ele>722.0</ele><time>2026-03-29T10:48:46.999Z</time></trkpt><trkpt lat="42.04831991086551" lon="13.033681694695577"><ele>728.0</ele><time>2026-03-29T10:48:47.999Z</time></trkpt><trkpt lat="42.04830454090301" lon="13.033794480113007"><ele>728.0</ele><time>2026-03-29T10:48:48.999Z</time></trkpt><trkpt lat="42.048296410081406" lon="13.033909695237309"><ele>728.0</ele><time>2026-03-29T10:48:49.999Z</time></trkpt><trkpt lat="42.04828941535055" lon="13.034022183499609"><ele>728.0</ele><time>2026-03-29T10:48:50.999Z</time></trkpt><trkpt lat="42.048276705056246" lon="13.034144409146542"><ele>728.0</ele><time>2026-03-29T10:48:51.999Z</time></trkpt><trkpt lat="42.04824327440655" lon="13.034265150110553"><ele>728.0</ele><time>2026-03-29T10:48:52.999Z</time></trkpt><trkpt lat="42.0482016523016" lon="13.034368215203708"><ele>728.0</ele><time>2026-03-29T10:48:53.999Z</time></trkpt><trkpt lat="42.04815582616043" lon="13.034465615962453"><ele>723.0</ele><time>2026-03-29T10:48:55Z</time></trkpt><trkpt lat="42.04811485666392" lon="13.034565299769511"><ele>718.0</ele><time>2026-03-29T10:48:56Z</time></trkpt><trkpt lat="42.04807944926905" lon="13.034651497592915"><ele>713.0</ele><time>2026-03-29T10:48:57Z</time></trkpt><trkpt lat="42.04801171741129" lon="13.034767729617096"><ele>708.0</ele><time>2026-03-29T10:48:59Z</time></trkpt><trkpt lat="42.04794501809065" lon="13.034771011752342"><ele>703.0</ele><time>2026-03-29T10:49:01Z</time></trkpt><trkpt lat="42.0478832808033" lon="13.034799884932434"><ele>698.0</ele><time>2026-03-29T10:49:04Z</time></trkpt><trkpt lat="42.04780141416592" lon="13.034852229826015"><ele>698.0</ele><time>2026-03-29T10:49:43.999Z</time></trkpt><trkpt lat="42.04773670888112" lon="13.034913748104275"><ele>698.0</ele><time>2026-03-29T10:49:45.999Z</time></trkpt><trkpt lat="42.04767468472686" lon="13.034951649929463"><ele>698.0</ele><time>2026-03-29T10:49:47.999Z</time></trkpt><trkpt lat="42.04763825503304" lon="13.035052664392323"><ele>698.0</ele><time>2026-03-29T10:51:35.999Z</time></trkpt><trkpt lat="42.04769395396481" lon="13.035191946888665"><ele>698.0</ele><time>2026-03-29T10:51:37.999Z</time></trkpt><trkpt lat="42.04781959088447" lon="13.035228387166077"><ele>698.8</ele><time>2026-03-29T10:51:39.999Z</time></trkpt><trkpt lat="42.04791239807802" lon="13.035214936831558"><ele>699.5999999999999</ele><time>2026-03-29T10:51:40.999Z</time></trkpt><trkpt lat="42.04801488169525" lon="13.035157521614046"><ele>700.4000000000001</ele><time>2026-03-29T10:51:41.999Z</time></trkpt><trkpt lat="42.048129012416496" lon="13.035144677483022"><ele>701.2</ele><time>2026-03-29T10:51:42.999Z</time></trkpt><trkpt lat="42.0482517770929" lon="13.035114976034606"><ele>702.0</ele><time>2026-03-29T10:51:43.999Z</time></trkpt><trkpt lat="42.048375818762466" lon="13.035069477606006"><ele>702.75</ele><time>2026-03-29T10:51:44.999Z</time></trkpt><trkpt lat="42.04850130741988" lon="13.035083124948398"><ele>703.5</ele><time>2026-03-29T10:51:45.999Z</time></trkpt><trkpt lat="42.0486193678334" lon="13.035089518317129"><ele>704.25</ele><time>2026-03-29T10:51:46.999Z</time></trkpt><trkpt lat="42.04872638836336" lon="13.035113675051202"><ele>705.0</ele><time>2026-03-29T10:51:47.999Z</time></trkpt><trkpt lat="42.048833624303846" lon="13.035149756255644"><ele>705.0</ele><time>2026-03-29T10:51:48.999Z</time></trkpt><trkpt lat="42.04893604758642" lon="13.035185031688961"><ele>705.0</ele><time>2026-03-29T10:51:49.999Z</time></trkpt><trkpt lat="42.04903458285906" lon="13.035217825659196"><ele>705.0</ele><time>2026-03-29T10:51:50.999Z</time></trkpt><trkpt lat="42.049127995977514" lon="13.035248796540895"><ele>705.0</ele><time>2026-03-29T10:51:51.999Z</time></trkpt><trkpt lat="42.049221528846864" lon="13.035279235022026"><ele>705.0</ele><time>2026-03-29T10:51:52.999Z</time></trkpt><trkpt lat="42.049313594427844" lon="13.03530489635144"><ele>704.25</ele><time>2026-03-29T10:51:53.999Z</time></trkpt><trkpt lat="42.049407106128506" lon="13.035332370739837"><ele>703.5</ele><time>2026-03-29T10:51:54.999Z</time></trkpt><trkpt lat="42.04951489693124" lon="13.03536217768103"><ele>702.75</ele><time>2026-03-29T10:51:55.999Z</time></trkpt><trkpt lat="42.049641143074865" lon="13.035393843602744"><ele>702.0</ele><time>2026-03-29T10:51:56.999Z</time></trkpt><trkpt lat="42.04978100419185" lon="13.035416430068354"><ele>702.0</ele><time>2026-03-29T10:51:57.999Z</time></trkpt><trkpt lat="42.04992521034828" lon="13.035434445297005"><ele>702.0</ele><time>2026-03-29T10:51:58.999Z</time></trkpt><trkpt lat="42.050081446601624" lon="13.035442107458707"><ele>702.0</ele><time>2026-03-29T10:51:59.999Z</time></trkpt><trkpt lat="42.050250820975926" lon="13.035455824051576"><ele>701.0</ele><time>2026-03-29T10:52:00.999Z</time></trkpt><trkpt lat="42.050416742431686" lon="13.035470561785141"><ele>700.0</ele><time>2026-03-29T10:52:01.999Z</time></trkpt><trkpt lat="42.05058013155508" lon="13.03550762575163"><ele>699.0</ele><time>2026-03-29T10:52:02.999Z</time></trkpt><trkpt lat="42.050738637588516" lon="13.035567306828787"><ele>694.6666666666666</ele><time>2026-03-29T10:52:03.999Z</time></trkpt><trkpt lat="42.050899252036125" lon="13.035628178629269"><ele>690.3333333333333</ele><time>2026-03-29T10:52:04.999Z</time></trkpt><trkpt lat="42.051057571219964" lon="13.035672228310723"><ele>686.0</ele><time>2026-03-29T10:52:05.999Z</time></trkpt><trkpt lat="42.05122436555628" lon="13.035691514865738"><ele>686.0</ele><time>2026-03-29T10:52:06.999Z</time></trkpt><trkpt lat="42.051399484496976" lon="13.035688770749651"><ele>686.0</ele><time>2026-03-29T10:52:07.999Z</time></trkpt><trkpt lat="42.05158142851821" lon="13.035675995650559"><ele>686.0</ele><time>2026-03-29T10:52:08.999Z</time></trkpt><trkpt lat="42.051751596142424" lon="13.03565637799755"><ele>680.0</ele><time>2026-03-29T10:52:09.999Z</time></trkpt><trkpt lat="42.05193580685542" lon="13.035652114170887"><ele>674.0</ele><time>2026-03-29T10:52:10.999Z</time></trkpt><trkpt lat="42.05210300874791" lon="13.035648318970305"><ele>668.0</ele><time>2026-03-29T10:52:11.999Z</time></trkpt><trkpt lat="42.052266595810046" lon="13.035647802244734"><ele>668.0</ele><time>2026-03-29T10:52:12.999Z</time></trkpt><trkpt lat="42.05243158847323" lon="13.035651682316066"><ele>668.0</ele><time>2026-03-29T10:52:13.999Z</time></trkpt><trkpt lat="42.05260897140042" lon="13.035668577047174"><ele>668.0</ele><time>2026-03-29T10:52:14.999Z</time></trkpt><trkpt lat="42.05278751643854" lon="13.035694443700367"><ele>666.0</ele><time>2026-03-29T10:52:15.999Z</time></trkpt><trkpt lat="42.05296415821818" lon="13.035730645358438"><ele>664.0</ele><time>2026-03-29T10:52:16.999Z</time></trkpt><trkpt lat="42.05313726922623" lon="13.035770108889434"><ele>662.0</ele><time>2026-03-29T10:52:17.999Z</time></trkpt><trkpt lat="42.05329780620406" lon="13.035812351814606"><ele>656.3333333333333</ele><time>2026-03-29T10:52:18.999Z</time></trkpt><trkpt lat="42.053452234905734" lon="13.035848229015523"><ele>650.6666666666666</ele><time>2026-03-29T10:52:19.999Z</time></trkpt><trkpt lat="42.05360066415433" lon="13.035891563175106"><ele>645.0</ele><time>2026-03-29T10:52:20.999Z</time></trkpt><trkpt lat="42.05374718780567" lon="13.035950895263637"><ele>645.0</ele><time>2026-03-29T10:52:21.999Z</time></trkpt><trkpt lat="42.05389389455527" lon="13.036027085812215"><ele>645.0</ele><time>2026-03-29T10:52:22.999Z</time></trkpt><trkpt lat="42.054039736914575" lon="13.036115398429034"><ele>645.0</ele><time>2026-03-29T10:52:23.999Z</time></trkpt><trkpt lat="42.05418457111115" lon="13.03621227558852"><ele>644.6666666666666</ele><time>2026-03-29T10:52:24.999Z</time></trkpt><trkpt lat="42.05432226855896" lon="13.036312719047014"><ele>644.3333333333333</ele><time>2026-03-29T10:52:25.999Z</time></trkpt><trkpt lat="42.054451394570144" lon="13.03641823005149"><ele>644.0</ele><time>2026-03-29T10:52:26.999Z</time></trkpt><trkpt lat="42.0545750861323" lon="13.036529370458725"><ele>642.75</ele><time>2026-03-29T10:52:27.999Z</time></trkpt><trkpt lat="42.05469316934896" lon="13.036643696760745"><ele>641.5</ele><time>2026-03-29T10:52:28.999Z</time></trkpt><trkpt lat="42.05480819581581" lon="13.03676440464829"><ele>640.25</ele><time>2026-03-29T10:52:29.999Z</time></trkpt><trkpt lat="42.05492446103359" lon="13.0368843039929"><ele>639.0</ele><time>2026-03-29T10:52:30.999Z</time></trkpt><trkpt lat="42.05504243879969" lon="13.036992414673554"><ele>639.0</ele><time>2026-03-29T10:52:31.999Z</time></trkpt><trkpt lat="42.05516974890361" lon="13.037074091103545"><ele>639.0</ele><time>2026-03-29T10:52:32.999Z</time></trkpt><trkpt lat="42.05531097233022" lon="13.037128989394702"><ele>639.0</ele><time>2026-03-29T10:52:33.999Z</time></trkpt><trkpt lat="42.05545359413646" lon="13.037180967397344"><ele>639.0</ele><time>2026-03-29T10:52:34.999Z</time></trkpt><trkpt lat="42.05559079534538" lon="13.037227950635033"><ele>639.0</ele><time>2026-03-29T10:52:35.999Z</time></trkpt><trkpt lat="42.05572106591103" lon="13.037279278894177"><ele>639.0</ele><time>2026-03-29T10:52:36.999Z</time></trkpt><trkpt lat="42.05584768138162" lon="13.037340243894427"><ele>639.0</ele><time>2026-03-29T10:52:37.999Z</time></trkpt><trkpt lat="42.05598288274737" lon="13.037424220150104"><ele>639.0</ele><time>2026-03-29T10:52:38.999Z</time></trkpt><trkpt lat="42.05612337933985" lon="13.03753857407483"><ele>639.0</ele><time>2026-03-29T10:52:39.999Z</time></trkpt><trkpt lat="42.056264899562635" lon="13.037661251340246"><ele>639.0</ele><time>2026-03-29T10:52:40.999Z</time></trkpt><trkpt lat="42.05640815435153" lon="13.037774619637952"><ele>639.0</ele><time>2026-03-29T10:52:41.999Z</time></trkpt><trkpt lat="42.05656533420426" lon="13.037867585439221"><ele>636.3333333333334</ele><time>2026-03-29T10:52:42.999Z</time></trkpt><trkpt lat="42.05673053214609" lon="13.037944242575776"><ele>633.6666666666667</ele><time>2026-03-29T10:52:43.999Z</time></trkpt><trkpt lat="42.05689242566893" lon="13.038027354001168"><ele>631.0</ele><time>2026-03-29T10:52:44.999Z</time></trkpt><trkpt lat="42.057043016542906" lon="13.038133200875725"><ele>631.0</ele><time>2026-03-29T10:52:45.999Z</time></trkpt><trkpt lat="42.0571961819869" lon="13.038250669544997"><ele>631.0</ele><time>2026-03-29T10:52:46.999Z</time></trkpt><trkpt lat="42.057343288212756" lon="13.038367115481826"><ele>631.0</ele><time>2026-03-29T10:52:47.999Z</time></trkpt><trkpt lat="42.05749456680129" lon="13.03847992462521"><ele>632.3333333333334</ele><time>2026-03-29T10:52:48.999Z</time></trkpt><trkpt lat="42.05764751032432" lon="13.03856369437907"><ele>633.6666666666666</ele><time>2026-03-29T10:52:49.999Z</time></trkpt><trkpt lat="42.057796009253686" lon="13.038613447054578"><ele>635.0</ele><time>2026-03-29T10:52:50.999Z</time></trkpt><trkpt lat="42.057951430041086" lon="13.038640169977283"><ele>635.0</ele><time>2026-03-29T10:52:51.999Z</time></trkpt><trkpt lat="42.05811490313141" lon="13.038651936210059"><ele>635.0</ele><time>2026-03-29T10:52:52.999Z</time></trkpt><trkpt lat="42.058281606082446" lon="13.038656889354574"><ele>635.0</ele><time>2026-03-29T10:52:53.999Z</time></trkpt><trkpt lat="42.05844026739877" lon="13.03866988294981"><ele>633.6666666666666</ele><time>2026-03-29T10:52:54.999Z</time></trkpt><trkpt lat="42.058594560359765" lon="13.038695765135321"><ele>632.3333333333334</ele><time>2026-03-29T10:52:55.999Z</time></trkpt><trkpt lat="42.058748707160845" lon="13.038726845018523"><ele>631.0</ele><time>2026-03-29T10:52:56.998Z</time></trkpt><trkpt lat="42.05889958468253" lon="13.038764500019502"><ele>631.0</ele><time>2026-03-29T10:52:57.998Z</time></trkpt><trkpt lat="42.05904831951426" lon="13.038821836620782"><ele>631.0</ele><time>2026-03-29T10:52:58.998Z</time></trkpt><trkpt lat="42.059211515340536" lon="13.038901305242648"><ele>631.0</ele><time>2026-03-29T10:52:59.998Z</time></trkpt><trkpt lat="42.059384657990286" lon="13.038998770633578"><ele>627.0</ele><time>2026-03-29T10:53:00.998Z</time></trkpt><trkpt lat="42.059558650849596" lon="13.039097965853967"><ele>623.0</ele><time>2026-03-29T10:53:01.998Z</time></trkpt><trkpt lat="42.05972779879467" lon="13.039200077775245"><ele>619.0</ele><time>2026-03-29T10:53:02.998Z</time></trkpt><trkpt lat="42.05989981953871" lon="13.039310226816323"><ele>617.0</ele><time>2026-03-29T10:53:03.998Z</time></trkpt><trkpt lat="42.060067684059405" lon="13.039431532722338"><ele>615.0</ele><time>2026-03-29T10:53:04.998Z</time></trkpt><trkpt lat="42.06023092808228" lon="13.03955669840074"><ele>613.0</ele><time>2026-03-29T10:53:05.998Z</time></trkpt><trkpt lat="42.060394230050825" lon="13.039672235514928"><ele>613.0</ele><time>2026-03-29T10:53:07Z</time></trkpt><trkpt lat="42.06055619655958" lon="13.039775817162337"><ele>613.0</ele><time>2026-03-29T10:53:08Z</time></trkpt><trkpt lat="42.06070837226309" lon="13.0398838028868"><ele>613.0</ele><time>2026-03-29T10:53:08.999Z</time></trkpt><trkpt lat="42.06085506053244" lon="13.039990503042436"><ele>614.0</ele><time>2026-03-29T10:53:10Z</time></trkpt><trkpt lat="42.06099881826271" lon="13.040091978936962"><ele>615.0</ele><time>2026-03-29T10:53:11Z</time></trkpt><trkpt lat="42.06113869880096" lon="13.04018716406115"><ele>616.0</ele><time>2026-03-29T10:53:12Z</time></trkpt><trkpt lat="42.061277900737075" lon="13.040281052607934"><ele>616.0</ele><time>2026-03-29T10:53:13Z</time></trkpt><trkpt lat="42.06141870598089" lon="13.040359924541951"><ele>616.0</ele><time>2026-03-29T10:53:14Z</time></trkpt><trkpt lat="42.06156107387063" lon="13.040416827665343"><ele>616.0</ele><time>2026-03-29T10:53:15Z</time></trkpt><trkpt lat="42.06168427533874" lon="13.040483717419617"><ele>616.0</ele><time>2026-03-29T10:53:16Z</time></trkpt><trkpt lat="42.0618004409362" lon="13.040573709806202"><ele>617.75</ele><time>2026-03-29T10:53:17Z</time></trkpt><trkpt lat="42.061921045178885" lon="13.040680512050622"><ele>619.5</ele><time>2026-03-29T10:53:18Z</time></trkpt><trkpt lat="42.06202979191768" lon="13.040778094644532"><ele>621.25</ele><time>2026-03-29T10:53:19Z</time></trkpt><trkpt lat="42.06212829453747" lon="13.040861921781206"><ele>623.0</ele><time>2026-03-29T10:53:20Z</time></trkpt><trkpt lat="42.06222295140701" lon="13.040945532312833"><ele>623.75</ele><time>2026-03-29T10:53:21Z</time></trkpt><trkpt lat="42.06233131788665" lon="13.04103879404763"><ele>624.5</ele><time>2026-03-29T10:53:22Z</time></trkpt><trkpt lat="42.0624540457511" lon="13.041157055409197"><ele>625.25</ele><time>2026-03-29T10:53:23Z</time></trkpt><trkpt lat="42.062584028030834" lon="13.041281046576342"><ele>626.0</ele><time>2026-03-29T10:53:24Z</time></trkpt><trkpt lat="42.06271184999436" lon="13.041401522386279"><ele>626.0</ele><time>2026-03-29T10:53:25Z</time></trkpt><trkpt lat="42.06283118222534" lon="13.041508987507074"><ele>626.0</ele><time>2026-03-29T10:53:26Z</time></trkpt><trkpt lat="42.06294253382419" lon="13.04160429868517"><ele>626.0</ele><time>2026-03-29T10:53:27Z</time></trkpt><trkpt lat="42.063041536141746" lon="13.041691681262588"><ele>626.0</ele><time>2026-03-29T10:53:27.999Z</time></trkpt><trkpt lat="42.06312478752588" lon="13.041764564255415"><ele>626.0</ele><time>2026-03-29T10:53:28.999Z</time></trkpt><trkpt lat="42.063183193294336" lon="13.04183462589211"><ele>626.0</ele><time>2026-03-29T10:53:29.999Z</time></trkpt><trkpt lat="42.06320724693363" lon="13.041924724371789"><ele>626.0</ele><time>2026-03-29T10:53:30.999Z</time></trkpt><trkpt lat="42.06322141217063" lon="13.0420177257474"><ele>626.0</ele><time>2026-03-29T10:53:31.999Z</time></trkpt><trkpt lat="42.06323449672702" lon="13.042102633439995"><ele>626.0</ele><time>2026-03-29T10:53:32.999Z</time></trkpt><trkpt lat="42.0632908607218" lon="13.042208460094836"><ele>626.0</ele><time>2026-03-29T10:53:34.999Z</time></trkpt><trkpt lat="42.06337333637896" lon="13.042333038410296"><ele>626.0</ele><time>2026-03-29T10:58:01.999Z</time></trkpt><trkpt lat="42.063440508531286" lon="13.04224795510542"><ele>626.0</ele><time>2026-03-29T10:58:03.999Z</time></trkpt><trkpt lat="42.06337360929147" lon="13.042119860334543"><ele>626.0</ele><time>2026-03-29T10:58:05.999Z</time></trkpt><trkpt lat="42.063300026882786" lon="13.042073978884776"><ele>626.0</ele><time>2026-03-29T10:58:06.999Z</time></trkpt><trkpt lat="42.06322548965539" lon="13.042005410824029"><ele>626.0</ele><time>2026-03-29T10:58:07.999Z</time></trkpt><trkpt lat="42.06319196706514" lon="13.041917026885784"><ele>626.0</ele><time>2026-03-29T10:58:08.999Z</time></trkpt><trkpt lat="42.063164276413396" lon="13.041795434841738"><ele>626.0</ele><time>2026-03-29T10:58:10.999Z</time></trkpt><trkpt lat="42.06311428130114" lon="13.041670947191475"><ele>626.0</ele><time>2026-03-29T10:58:11.999Z</time></trkpt><trkpt lat="42.06301205890785" lon="13.041578696542835"><ele>626.0</ele><time>2026-03-29T10:58:12.999Z</time></trkpt><trkpt lat="42.062878886716376" lon="13.041459422036501"><ele>626.0</ele><time>2026-03-29T10:58:13.999Z</time></trkpt><trkpt lat="42.06273912053824" lon="13.041334298923529"><ele>626.0</ele><time>2026-03-29T10:58:14.999Z</time></trkpt><trkpt lat="42.062577940538745" lon="13.041196084148464"><ele>626.0</ele><time>2026-03-29T10:58:15.999Z</time></trkpt><trkpt lat="42.06241440860375" lon="13.041030199821822"><ele>626.25</ele><time>2026-03-29T10:58:16.999Z</time></trkpt><trkpt lat="42.06229167274942" lon="13.040916407224325"><ele>626.5</ele><time>2026-03-29T10:58:17.999Z</time></trkpt><trkpt lat="42.06221798695306" lon="13.040794684706016"><ele>626.75</ele><time>2026-03-29T10:58:18.999Z</time></trkpt><trkpt lat="42.06206425775622" lon="13.040758989438691"><ele>627.0</ele><time>2026-03-29T10:58:19.999Z</time></trkpt><trkpt lat="42.061935784727346" lon="13.040652043610093"><ele>625.6666666666666</ele><time>2026-03-29T10:58:20.999Z</time></trkpt><trkpt lat="42.06180208855125" lon="13.040527838118459"><ele>624.3333333333333</ele><time>2026-03-29T10:58:21.999Z</time></trkpt><trkpt lat="42.06166770243631" lon="13.040412527080797"><ele>623.0</ele><time>2026-03-29T10:58:22.999Z</time></trkpt><trkpt lat="42.06151365636078" lon="13.040366386405196"><ele>620.6666666666666</ele><time>2026-03-29T10:58:23.999Z</time></trkpt><trkpt lat="42.06135561942631" lon="13.040273198569649"><ele>618.3333333333334</ele><time>2026-03-29T10:58:24.999Z</time></trkpt><trkpt lat="42.06119632610799" lon="13.040166754795267"><ele>616.0</ele><time>2026-03-29T10:58:25.999Z</time></trkpt><trkpt lat="42.06103908447536" lon="13.040058119182932"><ele>615.3333333333334</ele><time>2026-03-29T10:58:26.999Z</time></trkpt><trkpt lat="42.06088231629612" lon="13.03994981079196"><ele>614.6666666666666</ele><time>2026-03-29T10:58:27.999Z</time></trkpt><trkpt lat="42.06072313090795" lon="13.0398396013329"><ele>614.0</ele><time>2026-03-29T10:58:28.999Z</time></trkpt><trkpt lat="42.060569527160474" lon="13.039732056614888"><ele>613.6666666666666</ele><time>2026-03-29T10:58:29.999Z</time></trkpt><trkpt lat="42.06042708974915" lon="13.039631325395039"><ele>613.3333333333334</ele><time>2026-03-29T10:58:30.999Z</time></trkpt><trkpt lat="42.06029234375821" lon="13.039533708324731"><ele>613.0</ele><time>2026-03-29T10:58:31.999Z</time></trkpt><trkpt lat="42.060155921975536" lon="13.03943487720096"><ele>613.0</ele><time>2026-03-29T10:58:32.999Z</time></trkpt><trkpt lat="42.0600152856696" lon="13.039332992263997"><ele>613.0</ele><time>2026-03-29T10:58:33.999Z</time></trkpt><trkpt lat="42.05987276646858" lon="13.039233252405609"><ele>613.0</ele><time>2026-03-29T10:58:34.999Z</time></trkpt><trkpt lat="42.05972346173305" lon="13.039133905375467"><ele>614.0</ele><time>2026-03-29T10:58:35.999Z</time></trkpt><trkpt lat="42.05957563761027" lon="13.039041369579225"><ele>615.0</ele><time>2026-03-29T10:58:36.999Z</time></trkpt><trkpt lat="42.05942856688059" lon="13.038957611814006"><ele>616.0</ele><time>2026-03-29T10:58:37.999Z</time></trkpt><trkpt lat="42.05928572716499" lon="13.038878191294394"><ele>616.0</ele><time>2026-03-29T10:58:38.999Z</time></trkpt><trkpt lat="42.0591431407488" lon="13.03880119485826"><ele>616.0</ele><time>2026-03-29T10:58:39.999Z</time></trkpt><trkpt lat="42.05899727416451" lon="13.038735786007848"><ele>616.0</ele><time>2026-03-29T10:58:40.999Z</time></trkpt><trkpt lat="42.05887078244709" lon="13.038694079383534"><ele>616.0</ele><time>2026-03-29T10:58:41.999Z</time></trkpt><trkpt lat="42.05873529214811" lon="13.038679337797616"><ele>619.75</ele><time>2026-03-29T10:58:42.999Z</time></trkpt><trkpt lat="42.05859767141226" lon="13.038627749330674"><ele>623.5</ele><time>2026-03-29T10:58:43.999Z</time></trkpt><trkpt lat="42.05845883816236" lon="13.038605311096068"><ele>627.25</ele><time>2026-03-29T10:58:44.999Z</time></trkpt><trkpt lat="42.05832367416288" lon="13.038615130894465"><ele>631.0</ele><time>2026-03-29T10:58:45.999Z</time></trkpt><trkpt lat="42.05819053665165" lon="13.038600849578652"><ele>632.0</ele><time>2026-03-29T10:58:46.999Z</time></trkpt><trkpt lat="42.05804934590488" lon="13.038603012742124"><ele>633.0</ele><time>2026-03-29T10:58:47.999Z</time></trkpt><trkpt lat="42.057908234369066" lon="13.038569934882872"><ele>634.0</ele><time>2026-03-29T10:58:48.999Z</time></trkpt><trkpt lat="42.0577665339496" lon="13.038544036466716"><ele>635.0</ele><time>2026-03-29T10:58:49.999Z</time></trkpt><trkpt lat="42.05762675250209" lon="13.038499502314924"><ele>635.0</ele><time>2026-03-29T10:58:50.999Z</time></trkpt><trkpt lat="42.05749801982288" lon="13.038427981254534"><ele>635.0</ele><time>2026-03-29T10:58:51.999Z</time></trkpt><trkpt lat="42.05737162817615" lon="13.038327038484873"><ele>635.0</ele><time>2026-03-29T10:58:52.999Z</time></trkpt><trkpt lat="42.05723871954625" lon="13.038216805934008"><ele>635.0</ele><time>2026-03-29T10:58:53.999Z</time></trkpt><trkpt lat="42.05710045076552" lon="13.038105039689547"><ele>633.6666666666666</ele><time>2026-03-29T10:58:54.999Z</time></trkpt><trkpt lat="42.05695085188295" lon="13.038000917544577"><ele>632.3333333333334</ele><time>2026-03-29T10:58:55.999Z</time></trkpt><trkpt lat="42.05678244994515" lon="13.037904232118724"><ele>631.0</ele><time>2026-03-29T10:58:56.999Z</time></trkpt><trkpt lat="42.056595417850446" lon="13.037825039003776"><ele>633.6666666666667</ele><time>2026-03-29T10:58:57.999Z</time></trkpt><trkpt lat="42.05641605178285" lon="13.037736486978249"><ele>636.3333333333334</ele><time>2026-03-29T10:58:58.999Z</time></trkpt><trkpt lat="42.05625710422815" lon="13.03761759052207"><ele>639.0</ele><time>2026-03-29T10:58:59.999Z</time></trkpt><trkpt lat="42.05611355866518" lon="13.037473449697238"><ele>639.0</ele><time>2026-03-29T10:59:00.999Z</time></trkpt><trkpt lat="42.0559636008664" lon="13.037345187367741"><ele>639.0</ele><time>2026-03-29T10:59:01.999Z</time></trkpt><trkpt lat="42.05580238235988" lon="13.037252120274161"><ele>639.0</ele><time>2026-03-29T10:59:02.999Z</time></trkpt><trkpt lat="42.05563138483818" lon="13.037179229241252"><ele>639.0</ele><time>2026-03-29T10:59:03.999Z</time></trkpt><trkpt lat="42.05546309786347" lon="13.037117721072068"><ele>639.0</ele><time>2026-03-29T10:59:04.999Z</time></trkpt><trkpt lat="42.055289941854" lon="13.037069195002973"><ele>639.0</ele><time>2026-03-29T10:59:05.999Z</time></trkpt><trkpt lat="42.055128621558346" lon="13.036993238534471"><ele>639.0</ele><time>2026-03-29T10:59:06.999Z</time></trkpt><trkpt lat="42.0549801171321" lon="13.036887017950004"><ele>639.0</ele><time>2026-03-29T10:59:07.999Z</time></trkpt><trkpt lat="42.05484962243767" lon="13.036743255191126"><ele>639.0</ele><time>2026-03-29T10:59:08.999Z</time></trkpt><trkpt lat="42.05471214890453" lon="13.036598255044815"><ele>640.6666666666666</ele><time>2026-03-29T10:59:09.999Z</time></trkpt><trkpt lat="42.05456957616462" lon="13.036461965006039"><ele>642.3333333333333</ele><time>2026-03-29T10:59:10.999Z</time></trkpt><trkpt lat="42.05441816745764" lon="13.036327590758985"><ele>644.0</ele><time>2026-03-29T10:59:11.999Z</time></trkpt><trkpt lat="42.05425990718266" lon="13.036202992254138"><ele>644.3333333333333</ele><time>2026-03-29T10:59:12.999Z</time></trkpt><trkpt lat="42.054098965091896" lon="13.036096522671627"><ele>644.6666666666666</ele><time>2026-03-29T10:59:13.999Z</time></trkpt><trkpt lat="42.053937055054895" lon="13.035997872977672"><ele>645.0</ele><time>2026-03-29T10:59:14.999Z</time></trkpt><trkpt lat="42.053770640252345" lon="13.035905741832618"><ele>645.0</ele><time>2026-03-29T10:59:15.999Z</time></trkpt><trkpt lat="42.05360140431957" lon="13.035828921633769"><ele>645.0</ele><time>2026-03-29T10:59:16.999Z</time></trkpt><trkpt lat="42.05342474797801" lon="13.035778639361828"><ele>645.0</ele><time>2026-03-29T10:59:17.998Z</time></trkpt><trkpt lat="42.05324868871616" lon="13.035735937949557"><ele>650.6666666666666</ele><time>2026-03-29T10:59:18.998Z</time></trkpt><trkpt lat="42.05307520376081" lon="13.035698042372598"><ele>656.3333333333333</ele><time>2026-03-29T10:59:19.998Z</time></trkpt><trkpt lat="42.05290521269211" lon="13.035661787409477"><ele>662.0</ele><time>2026-03-29T10:59:20.998Z</time></trkpt><trkpt lat="42.05273328713761" lon="13.035628196825213"><ele>662.0</ele><time>2026-03-29T10:59:21.998Z</time></trkpt><trkpt lat="42.05255957427764" lon="13.03559945434136"><ele>662.0</ele><time>2026-03-29T10:59:22.998Z</time></trkpt><trkpt lat="42.05238435579578" lon="13.035585181154943"><ele>662.0</ele><time>2026-03-29T10:59:23.998Z</time></trkpt><trkpt lat="42.052205643896286" lon="13.035581413785199"><ele>664.0</ele><time>2026-03-29T10:59:25Z</time></trkpt><trkpt lat="42.05202462982355" lon="13.035586167241462"><ele>666.0</ele><time>2026-03-29T10:59:26Z</time></trkpt><trkpt lat="42.0518431730622" lon="13.035595718038099"><ele>668.0</ele><time>2026-03-29T10:59:27Z</time></trkpt><trkpt lat="42.05166498728043" lon="13.035607684995705"><ele>674.0</ele><time>2026-03-29T10:59:28Z</time></trkpt><trkpt lat="42.05149205277787" lon="13.035619676578387"><ele>680.0</ele><time>2026-03-29T10:59:29Z</time></trkpt><trkpt lat="42.05132220766976" lon="13.03563145393905"><ele>686.0</ele><time>2026-03-29T10:59:30Z</time></trkpt><trkpt lat="42.051152385058316" lon="13.035638009160854"><ele>686.0</ele><time>2026-03-29T10:59:31Z</time></trkpt><trkpt lat="42.05099222527876" lon="13.035614001076285"><ele>686.0</ele><time>2026-03-29T10:59:32Z</time></trkpt><trkpt lat="42.05083849658997" lon="13.035562841623289"><ele>686.0</ele><time>2026-03-29T10:59:33Z</time></trkpt><trkpt lat="42.050668645196914" lon="13.035484000008172"><ele>690.3333333333333</ele><time>2026-03-29T10:59:34Z</time></trkpt><trkpt lat="42.050502299378486" lon="13.035435169718854"><ele>694.6666666666666</ele><time>2026-03-29T10:59:35Z</time></trkpt><trkpt lat="42.05034013941129" lon="13.035402637467154"><ele>699.0</ele><time>2026-03-29T10:59:36Z</time></trkpt><trkpt lat="42.05018404056664" lon="13.035389907404683"><ele>699.0</ele><time>2026-03-29T10:59:37Z</time></trkpt><trkpt lat="42.0500323980014" lon="13.035379357113785"><ele>699.0</ele><time>2026-03-29T10:59:38Z</time></trkpt><trkpt lat="42.049883453158394" lon="13.035363331412645"><ele>699.0</ele><time>2026-03-29T10:59:39Z</time></trkpt><trkpt lat="42.04973518892548" lon="13.03534517182053"><ele>700.0</ele><time>2026-03-29T10:59:39.999Z</time></trkpt><trkpt lat="42.04958548212837" lon="13.035319242448505"><ele>701.0</ele><time>2026-03-29T10:59:40.999Z</time></trkpt><trkpt lat="42.0494384388296" lon="13.035281200735849"><ele>702.0</ele><time>2026-03-29T10:59:41.999Z</time></trkpt><trkpt lat="42.049291286417215" lon="13.035239514926623"><ele>702.0</ele><time>2026-03-29T10:59:42.999Z</time></trkpt><trkpt lat="42.04913451825974" lon="13.035189577691266"><ele>702.0</ele><time>2026-03-29T10:59:43.999Z</time></trkpt><trkpt lat="42.0489780592132" lon="13.035139740620556"><ele>702.0</ele><time>2026-03-29T10:59:44.999Z</time></trkpt><trkpt lat="42.048826741079566" lon="13.035091539502123"><ele>703.0</ele><time>2026-03-29T10:59:45.999Z</time></trkpt><trkpt lat="42.04867468850521" lon="13.035040556932291"><ele>704.0</ele><time>2026-03-29T10:59:46.999Z</time></trkpt><trkpt lat="42.04852445114389" lon="13.0350019225556"><ele>705.0</ele><time>2026-03-29T10:59:47.999Z</time></trkpt><trkpt lat="42.04837576987302" lon="13.03500248030501"><ele>704.25</ele><time>2026-03-29T10:59:48.999Z</time></trkpt><trkpt lat="42.04823258543931" lon="13.035047560106452"><ele>703.5</ele><time>2026-03-29T10:59:49.999Z</time></trkpt><trkpt lat="42.048087327162825" lon="13.035076350115165"><ele>702.75</ele><time>2026-03-29T10:59:50.999Z</time></trkpt><trkpt lat="42.04794205547365" lon="13.035124147386401"><ele>702.0</ele><time>2026-03-29T10:59:51.999Z</time></trkpt><trkpt lat="42.0477957671224" lon="13.035184190939184"><ele>702.0</ele><time>2026-03-29T10:59:52.999Z</time></trkpt><trkpt lat="42.047644885906436" lon="13.035209301862658"><ele>702.0</ele><time>2026-03-29T10:59:53.999Z</time></trkpt><trkpt lat="42.04750761103213" lon="13.035286786062402"><ele>702.0</ele><time>2026-03-29T10:59:54.999Z</time></trkpt><trkpt lat="42.04738486280343" lon="13.035396223021301"><ele>702.0</ele><time>2026-03-29T10:59:55.999Z</time></trkpt><trkpt lat="42.047272644133805" lon="13.03552204451332"><ele>703.6666666666666</ele><time>2026-03-29T10:59:56.999Z</time></trkpt><trkpt lat="42.04715332844554" lon="13.035657558893183"><ele>705.3333333333333</ele><time>2026-03-29T10:59:57.999Z</time></trkpt><trkpt lat="42.04703750553222" lon="13.035799615529928"><ele>707.0</ele><time>2026-03-29T10:59:58.999Z</time></trkpt><trkpt lat="42.04693247863324" lon="13.0359485806919"><ele>707.0</ele><time>2026-03-29T10:59:59.999Z</time></trkpt><trkpt lat="42.04683965108245" lon="13.036095595712833"><ele>707.0</ele><time>2026-03-29T11:00:00.999Z</time></trkpt><trkpt lat="42.04678230612406" lon="13.036241732895332"><ele>707.0</ele><time>2026-03-29T11:00:01.999Z</time></trkpt><trkpt lat="42.0467332846475" lon="13.036349071931491"><ele>707.0</ele><time>2026-03-29T11:00:02.999Z</time></trkpt><trkpt lat="42.04674710547029" lon="13.036510618562076"><ele>707.0</ele><time>2026-03-29T11:00:04.999Z</time></trkpt><trkpt lat="42.04680283022209" lon="13.036570324643517"><ele>707.0</ele><time>2026-03-29T11:00:05.999Z</time></trkpt><trkpt lat="42.046855164243254" lon="13.036662705375779"><ele>707.0</ele><time>2026-03-29T11:00:06.999Z</time></trkpt><trkpt lat="42.04691677581228" lon="13.036767543781316"><ele>707.0</ele><time>2026-03-29T11:00:07.999Z</time></trkpt><trkpt lat="42.047008655042504" lon="13.036811902311369"><ele>707.0</ele><time>2026-03-29T11:00:08.999Z</time></trkpt><trkpt lat="42.04709880136775" lon="13.036798257450407"><ele>707.0</ele><time>2026-03-29T11:00:09.999Z</time></trkpt><trkpt lat="42.0471867450755" lon="13.036747569748703"><ele>707.0</ele><time>2026-03-29T11:00:10.999Z</time></trkpt><trkpt lat="42.04727685286942" lon="13.036677208408726"><ele>707.0</ele><time>2026-03-29T11:00:11.999Z</time></trkpt><trkpt lat="42.047376291013656" lon="13.036624433703315"><ele>707.0</ele><time>2026-03-29T11:00:12.999Z</time></trkpt><trkpt lat="42.04748647608311" lon="13.03659383640449"><ele>707.0</ele><time>2026-03-29T11:00:13.999Z</time></trkpt><trkpt lat="42.04759645007716" lon="13.036594618819587"><ele>707.0</ele><time>2026-03-29T11:00:14.999Z</time></trkpt><trkpt lat="42.04767406882271" lon="13.036636614709616"><ele>711.6</ele><time>2026-03-29T11:00:15.999Z</time></trkpt><trkpt lat="42.04772536397917" lon="13.036711752131152"><ele>716.2</ele><time>2026-03-29T11:00:16.999Z</time></trkpt><trkpt lat="42.047754473510736" lon="13.036813104045025"><ele>720.8</ele><time>2026-03-29T11:00:17.999Z</time></trkpt><trkpt lat="42.04776880147913" lon="13.036928048212692"><ele>725.4</ele><time>2026-03-29T11:00:18.999Z</time></trkpt><trkpt lat="42.047796075439294" lon="13.037052729077226"><ele>730.0</ele><time>2026-03-29T11:00:19.999Z</time></trkpt><trkpt lat="42.04783837191482" lon="13.03720126778312"><ele>730.0</ele><time>2026-03-29T11:00:20.999Z</time></trkpt><trkpt lat="42.04788325211145" lon="13.037360824661125"><ele>730.0</ele><time>2026-03-29T11:00:21.999Z</time></trkpt><trkpt lat="42.04792081908234" lon="13.03752127166844"><ele>730.0</ele><time>2026-03-29T11:00:22.999Z</time></trkpt><trkpt lat="42.047923862840236" lon="13.037690908524377"><ele>730.0</ele><time>2026-03-29T11:00:23.999Z</time></trkpt><trkpt lat="42.047943893225664" lon="13.037874531217424"><ele>732.0</ele><time>2026-03-29T11:00:24.999Z</time></trkpt><trkpt lat="42.04794374073127" lon="13.038060993300821"><ele>734.0</ele><time>2026-03-29T11:00:25.999Z</time></trkpt><trkpt lat="42.04794090757073" lon="13.038244720108912"><ele>736.0</ele><time>2026-03-29T11:00:26.999Z</time></trkpt><trkpt lat="42.047944454421135" lon="13.038417131602012"><ele>738.0</ele><time>2026-03-29T11:00:27.999Z</time></trkpt><trkpt lat="42.047978761548876" lon="13.038573296660548"><ele>740.0</ele><time>2026-03-29T11:00:28.999Z</time></trkpt><trkpt lat="42.04804201832515" lon="13.038698047492726"><ele>742.0</ele><time>2026-03-29T11:00:29.999Z</time></trkpt><trkpt lat="42.04806222396129" lon="13.038842579191149"><ele>744.0</ele><time>2026-03-29T11:00:30.999Z</time></trkpt><trkpt lat="42.04809381798173" lon="13.038962241669172"><ele>746.0</ele><time>2026-03-29T11:00:31.999Z</time></trkpt><trkpt lat="42.04812364587959" lon="13.039123463937447"><ele>748.0</ele><time>2026-03-29T11:00:32.999Z</time></trkpt><trkpt lat="42.048132727701145" lon="13.039282936189828"><ele>749.4</ele><time>2026-03-29T11:00:33.999Z</time></trkpt><trkpt lat="42.04813723384413" lon="13.039439406891148"><ele>750.8</ele><time>2026-03-29T11:00:34.999Z</time></trkpt><trkpt lat="42.04807154759477" lon="13.039575815490485"><ele>752.2</ele><time>2026-03-29T11:00:35.999Z</time></trkpt><trkpt lat="42.048056423915384" lon="13.039697308397471"><ele>753.6</ele><time>2026-03-29T11:00:36.999Z</time></trkpt><trkpt lat="42.04805617506211" lon="13.039790741436638"><ele>755.0</ele><time>2026-03-29T11:00:37.999Z</time></trkpt><trkpt lat="42.048061633637474" lon="13.039955052870791"><ele>756.0</ele><time>2026-03-29T11:00:39.999Z</time></trkpt><trkpt lat="42.048047658636435" lon="13.040067761813855"><ele>757.0</ele><time>2026-03-29T11:00:40.999Z</time></trkpt><trkpt lat="42.04803534254949" lon="13.040203086287319"><ele>758.0</ele><time>2026-03-29T11:00:41.999Z</time></trkpt><trkpt lat="42.04804638380304" lon="13.04035047289223"><ele>759.0</ele><time>2026-03-29T11:00:42.999Z</time></trkpt><trkpt lat="42.04804952956369" lon="13.040490624690058"><ele>760.0</ele><time>2026-03-29T11:00:43.999Z</time></trkpt><trkpt lat="42.04803162641752" lon="13.040622112495656"><ele>760.0</ele><time>2026-03-29T11:00:44.999Z</time></trkpt><trkpt lat="42.04796775630891" lon="13.040723185898441"><ele>760.0</ele><time>2026-03-29T11:00:45.999Z</time></trkpt><trkpt lat="42.04789345009658" lon="13.040777413116029"><ele>760.0</ele><time>2026-03-29T11:00:46.999Z</time></trkpt><trkpt lat="42.04782013018286" lon="13.040838057458942"><ele>760.0</ele><time>2026-03-29T11:00:47.999Z</time></trkpt><trkpt lat="42.04774077741011" lon="13.040872189129301"><ele>760.0</ele><time>2026-03-29T11:00:48.999Z</time></trkpt><trkpt lat="42.047639523460596" lon="13.040891399335685"><ele>761.25</ele><time>2026-03-29T11:00:49.999Z</time></trkpt><trkpt lat="42.047518293679545" lon="13.040881806381005"><ele>762.5</ele><time>2026-03-29T11:00:50.999Z</time></trkpt><trkpt lat="42.04737653386779" lon="13.04088283565729"><ele>763.75</ele><time>2026-03-29T11:00:51.999Z</time></trkpt><trkpt lat="42.04723185945393" lon="13.040882428717945"><ele>765.0</ele><time>2026-03-29T11:00:52.999Z</time></trkpt><trkpt lat="42.04710692669901" lon="13.040880827176949"><ele>766.0</ele><time>2026-03-29T11:00:53.999Z</time></trkpt><trkpt lat="42.04702784954767" lon="13.040848569705117"><ele>767.0</ele><time>2026-03-29T11:00:54.999Z</time></trkpt><trkpt lat="42.04698014109907" lon="13.04078486225324"><ele>768.0</ele><time>2026-03-29T11:00:55.999Z</time></trkpt><trkpt lat="42.04692686018245" lon="13.040678812142817"><ele>769.0</ele><time>2026-03-29T11:00:56.999Z</time></trkpt><trkpt lat="42.04686228882345" lon="13.040592490826626"><ele>770.0</ele><time>2026-03-29T11:00:57.999Z</time></trkpt><trkpt lat="42.0467836587865" lon="13.040554258927502"><ele>771.0</ele><time>2026-03-29T11:00:58.999Z</time></trkpt><trkpt lat="42.04668435817254" lon="13.040575751384917"><ele>769.5</ele><time>2026-03-29T11:00:59.999Z</time></trkpt><trkpt lat="42.04659408894843" lon="13.040684332951283"><ele>768.0</ele><time>2026-03-29T11:01:00.999Z</time></trkpt><trkpt lat="42.046521270912415" lon="13.040788943173999"><ele>766.5</ele><time>2026-03-29T11:01:01.999Z</time></trkpt><trkpt lat="42.0464592293651" lon="13.040917876654879"><ele>765.0</ele><time>2026-03-29T11:01:02.999Z</time></trkpt><trkpt lat="42.0463742750205" lon="13.041020124432137"><ele>765.0</ele><time>2026-03-29T11:01:03.999Z</time></trkpt><trkpt lat="42.04630374914813" lon="13.041142000778144"><ele>765.0</ele><time>2026-03-29T11:01:04.999Z</time></trkpt><trkpt lat="42.04624745555397" lon="13.041285420070034"><ele>765.0</ele><time>2026-03-29T11:01:05.999Z</time></trkpt><trkpt lat="42.04617631817709" lon="13.041421922551617"><ele>765.0</ele><time>2026-03-29T11:01:06.999Z</time></trkpt><trkpt lat="42.04611807642125" lon="13.04155640884367"><ele>768.6</ele><time>2026-03-29T11:01:07.999Z</time></trkpt><trkpt lat="42.04605465529857" lon="13.04165894932626"><ele>772.2</ele><time>2026-03-29T11:01:08.999Z</time></trkpt><trkpt lat="42.045977222190565" lon="13.041736255040568"><ele>775.8</ele><time>2026-03-29T11:01:09.999Z</time></trkpt><trkpt lat="42.04586540388642" lon="13.04171717316272"><ele>779.4</ele><time>2026-03-29T11:01:10.999Z</time></trkpt><trkpt lat="42.04574881348838" lon="13.041746715309499"><ele>783.0</ele><time>2026-03-29T11:01:11.999Z</time></trkpt><trkpt lat="42.045628533501514" lon="13.041783473040562"><ele>783.25</ele><time>2026-03-29T11:01:12.999Z</time></trkpt><trkpt lat="42.04551267474704" lon="13.041825669418536"><ele>783.5</ele><time>2026-03-29T11:01:13.999Z</time></trkpt><trkpt lat="42.045398882244065" lon="13.0418697363484"><ele>783.75</ele><time>2026-03-29T11:01:14.999Z</time></trkpt><trkpt lat="42.045285945121414" lon="13.041909524100442"><ele>784.0</ele><time>2026-03-29T11:01:15.999Z</time></trkpt><trkpt lat="42.045181229462784" lon="13.041936880664634"><ele>784.0</ele><time>2026-03-29T11:01:16.999Z</time></trkpt><trkpt lat="42.04508813428148" lon="13.041955987630008"><ele>784.0</ele><time>2026-03-29T11:01:17.999Z</time></trkpt><trkpt lat="42.04500502470405" lon="13.041971739657036"><ele>784.0</ele><time>2026-03-29T11:01:18.999Z</time></trkpt><trkpt lat="42.04491483088911" lon="13.0419840977186"><ele>784.0</ele><time>2026-03-29T11:01:19.998Z</time></trkpt><trkpt lat="42.04481722583853" lon="13.041999946476398"><ele>784.0</ele><time>2026-03-29T11:01:20.998Z</time></trkpt><trkpt lat="42.044709172718335" lon="13.04202701562281"><ele>780.0</ele><time>2026-03-29T11:01:21.998Z</time></trkpt><trkpt lat="42.04459572719029" lon="13.042081805878203"><ele>776.0</ele><time>2026-03-29T11:01:22.998Z</time></trkpt><trkpt lat="42.04447468997544" lon="13.042151300024816"><ele>772.0</ele><time>2026-03-29T11:01:23.998Z</time></trkpt><trkpt lat="42.044351044789934" lon="13.042231480169372"><ele>768.0</ele><time>2026-03-29T11:01:24.998Z</time></trkpt><trkpt lat="42.04422397884288" lon="13.04231943324111"><ele>767.75</ele><time>2026-03-29T11:01:25.998Z</time></trkpt><trkpt lat="42.0440998154823" lon="13.042404313411375"><ele>767.5</ele><time>2026-03-29T11:01:26.998Z</time></trkpt><trkpt lat="42.04398210720037" lon="13.042481305419747"><ele>767.25</ele><time>2026-03-29T11:01:27.998Z</time></trkpt><trkpt lat="42.04387311081783" lon="13.04256622212504"><ele>767.0</ele><time>2026-03-29T11:01:28.998Z</time></trkpt><trkpt lat="42.043771602498055" lon="13.042657072452162"><ele>769.5</ele><time>2026-03-29T11:01:29.998Z</time></trkpt><trkpt lat="42.0436750733172" lon="13.042753704326866"><ele>772.0</ele><time>2026-03-29T11:01:30.999Z</time></trkpt><trkpt lat="42.04358297142615" lon="13.042850795225501"><ele>774.5</ele><time>2026-03-29T11:01:31.999Z</time></trkpt><trkpt lat="42.04348223806589" lon="13.042953199895159"><ele>777.0</ele><time>2026-03-29T11:01:32.999Z</time></trkpt><trkpt lat="42.04338121564106" lon="13.043039528448176"><ele>779.75</ele><time>2026-03-29T11:01:33.999Z</time></trkpt><trkpt lat="42.043265736825205" lon="13.043084158959433"><ele>782.5</ele><time>2026-03-29T11:01:34.999Z</time></trkpt><trkpt lat="42.043142034141184" lon="13.043083304955406"><ele>785.25</ele><time>2026-03-29T11:01:36Z</time></trkpt><trkpt lat="42.043021838166624" lon="13.043077327444387"><ele>788.0</ele><time>2026-03-29T11:01:37Z</time></trkpt><trkpt lat="42.042917968749094" lon="13.043033923192132"><ele>788.0000000000001</ele><time>2026-03-29T11:01:38Z</time></trkpt><trkpt lat="42.04284356253725" lon="13.04295873596068"><ele>788.0</ele><time>2026-03-29T11:01:39Z</time></trkpt><trkpt lat="42.04279844351798" lon="13.042865569765956"><ele>788.0</ele><time>2026-03-29T11:01:40Z</time></trkpt><trkpt lat="42.042793538271646" lon="13.042776473357153"><ele>788.0</ele><time>2026-03-29T11:01:41Z</time></trkpt><trkpt lat="42.042799697893535" lon="13.04266577802732"><ele>788.0000000000001</ele><time>2026-03-29T11:01:42Z</time></trkpt><trkpt lat="42.04282189283972" lon="13.042523753088782"><ele>788.0</ele><time>2026-03-29T11:01:43Z</time></trkpt><trkpt lat="42.042797843063674" lon="13.042342531615205"><ele>789.5</ele><time>2026-03-29T11:01:44Z</time></trkpt><trkpt lat="42.042725552374975" lon="13.042181694142206"><ele>791.0</ele><time>2026-03-29T11:01:45Z</time></trkpt><trkpt lat="42.04263351604671" lon="13.04204656267838"><ele>792.5</ele><time>2026-03-29T11:01:46Z</time></trkpt><trkpt lat="42.04250653736061" lon="13.041900257125217"><ele>794.0</ele><time>2026-03-29T11:01:47Z</time></trkpt><trkpt lat="42.04235137357258" lon="13.04185918706839"><ele>794.0</ele><time>2026-03-29T11:01:48Z</time></trkpt><trkpt lat="42.04222583171215" lon="13.04174360877492"><ele>794.0</ele><time>2026-03-29T11:01:49Z</time></trkpt><trkpt lat="42.042093284020915" lon="13.041621580653118"><ele>794.0</ele><time>2026-03-29T11:01:50Z</time></trkpt><trkpt lat="42.04203326545255" lon="13.041306523793397"><ele>792.25</ele><time>2026-03-29T11:01:51Z</time></trkpt><trkpt lat="42.04183412758941" lon="13.041245657893231"><ele>790.5</ele><time>2026-03-29T11:01:52Z</time></trkpt><trkpt lat="42.041694687308734" lon="13.041159183219053"><ele>788.75</ele><time>2026-03-29T11:01:53Z</time></trkpt><trkpt lat="42.04172499545534" lon="13.041059155512572"><ele>787.0</ele><time>2026-03-29T11:01:54Z</time></trkpt><trkpt lat="42.041299132321775" lon="13.041368873455905"><ele>787.0</ele><time>2026-03-29T11:01:55Z</time></trkpt><trkpt lat="42.04117691308879" lon="13.041359766866305"><ele>787.0</ele><time>2026-03-29T11:01:56Z</time></trkpt><trkpt lat="42.041069856475794" lon="13.041395940357889"><ele>787.0</ele><time>2026-03-29T11:01:57Z</time></trkpt><trkpt lat="42.040971951544975" lon="13.041472182094799"><ele>787.0</ele><time>2026-03-29T11:01:58Z</time></trkpt><trkpt lat="42.04087520680315" lon="13.04156851372597"><ele>788.25</ele><time>2026-03-29T11:01:59Z</time></trkpt><trkpt lat="42.04077415697995" lon="13.041674537168246"><ele>789.5</ele><time>2026-03-29T11:02:00Z</time></trkpt><trkpt lat="42.04066401434452" lon="13.04177943077229"><ele>790.75</ele><time>2026-03-29T11:02:01Z</time></trkpt><trkpt lat="42.040550790905236" lon="13.041880990424534"><ele>792.0</ele><time>2026-03-29T11:02:02Z</time></trkpt><trkpt lat="42.0404372968864" lon="13.041998710760897"><ele>792.0</ele><time>2026-03-29T11:02:03Z</time></trkpt><trkpt lat="42.04032683152601" lon="13.042137202776077"><ele>792.0</ele><time>2026-03-29T11:02:04Z</time></trkpt><trkpt lat="42.04022477666393" lon="13.042298588541046"><ele>792.0</ele><time>2026-03-29T11:02:05Z</time></trkpt><trkpt lat="42.04014128635275" lon="13.04246453872713"><ele>796.75</ele><time>2026-03-29T11:02:06Z</time></trkpt><trkpt lat="42.040056709940075" lon="13.042624557652207"><ele>801.5</ele><time>2026-03-29T11:02:07Z</time></trkpt><trkpt lat="42.039960949983026" lon="13.04276166634563"><ele>806.25</ele><time>2026-03-29T11:02:08Z</time></trkpt><trkpt lat="42.03986091904164" lon="13.042854250071539"><ele>811.0</ele><time>2026-03-29T11:02:09Z</time></trkpt><trkpt lat="42.03976389482088" lon="13.042894651461461"><ele>812.0</ele><time>2026-03-29T11:02:10Z</time></trkpt><trkpt lat="42.03967109574255" lon="13.042896216184051"><ele>813.0</ele><time>2026-03-29T11:02:11Z</time></trkpt><trkpt lat="42.0395711004208" lon="13.042852837268711"><ele>814.0</ele><time>2026-03-29T11:02:12Z</time></trkpt><trkpt lat="42.0394679437996" lon="13.042791654191202"><ele>815.0</ele><time>2026-03-29T11:02:13Z</time></trkpt><trkpt lat="42.03936126235363" lon="13.042745314362287"><ele>816.0</ele><time>2026-03-29T11:02:14Z</time></trkpt><trkpt lat="42.0392651611284" lon="13.042729418665097"><ele>816.0</ele><time>2026-03-29T11:02:15Z</time></trkpt><trkpt lat="42.03919075554082" lon="13.042705700749506"><ele>816.0</ele><time>2026-03-29T11:02:16Z</time></trkpt><trkpt lat="42.0391028574692" lon="13.042680398879439"><ele>816.0</ele><time>2026-03-29T11:02:18Z</time></trkpt><trkpt lat="42.03903557793733" lon="13.042711346131599"><ele>816.0</ele><time>2026-03-29T11:02:20Z</time></trkpt><trkpt lat="42.03896202804388" lon="13.04273094463652"><ele>816.0</ele><time>2026-03-29T11:02:23Z</time></trkpt><trkpt lat="42.03889215247773" lon="13.042821897430592"><ele>816.0</ele><time>2026-03-29T11:02:25Z</time></trkpt><trkpt lat="42.038836569161106" lon="13.042869018014619"><ele>816.8</ele><time>2026-03-29T11:02:26Z</time></trkpt><trkpt lat="42.03874441865975" lon="13.042916645045464"><ele>817.5999999999999</ele><time>2026-03-29T11:02:27Z</time></trkpt><trkpt lat="42.03864248716544" lon="13.042960463164034"><ele>818.4</ele><time>2026-03-29T11:02:28Z</time></trkpt><trkpt lat="42.03854467178087" lon="13.042992430722196"><ele>819.2</ele><time>2026-03-29T11:02:29Z</time></trkpt><trkpt lat="42.03845771938822" lon="13.043018909808533"><ele>820.0</ele><time>2026-03-29T11:02:30Z</time></trkpt><trkpt lat="42.0383897110463" lon="13.043036460382261"><ele>818.4</ele><time>2026-03-29T11:02:31Z</time></trkpt><trkpt lat="42.03829037462262" lon="13.04311814575428"><ele>816.8</ele><time>2026-03-29T11:02:33Z</time></trkpt><trkpt lat="42.03823606022143" lon="13.043166401052039"><ele>815.2</ele><time>2026-03-29T11:02:35Z</time></trkpt><trkpt lat="42.03817156690421" lon="13.043187553492478"><ele>813.6</ele><time>2026-03-29T11:02:39Z</time></trkpt><trkpt lat="42.03811093200578" lon="13.043252745320045"><ele>812.0</ele><time>2026-03-29T11:02:43Z</time></trkpt><trkpt lat="42.03795598536277" lon="13.04343649173074"><ele>815.3333333333334</ele><time>2026-03-29T11:02:45Z</time></trkpt><trkpt lat="42.037874694101305" lon="13.04351887522628"><ele>818.6666666666667</ele><time>2026-03-29T11:02:46Z</time></trkpt><trkpt lat="42.03778573536904" lon="13.043580677671022"><ele>822.0</ele><time>2026-03-29T11:02:47Z</time></trkpt><trkpt lat="42.03770548802809" lon="13.043622841704384"><ele>825.3333333333333</ele><time>2026-03-29T11:02:48Z</time></trkpt><trkpt lat="42.0376287663237" lon="13.043645831184664"><ele>828.6666666666666</ele><time>2026-03-29T11:02:49Z</time></trkpt><trkpt lat="42.03757746647317" lon="13.043695345522956"><ele>832.0</ele><time>2026-03-29T11:02:50Z</time></trkpt><trkpt lat="42.0375463640989" lon="13.043782235815469"><ele>831.9999999999999</ele><time>2026-03-29T11:02:51Z</time></trkpt><trkpt lat="42.03748933281848" lon="13.043908834693333"><ele>832.0</ele><time>2026-03-29T11:02:53Z</time></trkpt><trkpt lat="42.037486355536736" lon="13.043996661948805"><ele>832.0</ele><time>2026-03-29T11:02:55Z</time></trkpt><trkpt lat="42.03747692519972" lon="13.044107254208045"><ele>832.0</ele><time>2026-03-29T11:02:57Z</time></trkpt><trkpt lat="42.03746496060408" lon="13.044193491456573"><ele>831.9999999999999</ele><time>2026-03-29T11:02:59Z</time></trkpt><trkpt lat="42.03744484033077" lon="13.044305127202303"><ele>832.0</ele><time>2026-03-29T11:03:03Z</time></trkpt><trkpt lat="42.03737004018402" lon="13.044367510294991"><ele>834.9999999999999</ele><time>2026-03-29T11:05:10Z</time></trkpt><trkpt lat="42.0372841969034" lon="13.044433893248964"><ele>838.0</ele><time>2026-03-29T11:05:12Z</time></trkpt><trkpt lat="42.03721528462933" lon="13.044463641527976"><ele>841.0</ele><time>2026-03-29T11:05:13Z</time></trkpt><trkpt lat="42.03713521010868" lon="13.044487769505633"><ele>844.0</ele><time>2026-03-29T11:05:14Z</time></trkpt><trkpt lat="42.0370510736747" lon="13.044481621222058"><ele>846.9999999999999</ele><time>2026-03-29T11:05:15Z</time></trkpt><trkpt lat="42.03698412611893" lon="13.044453895088013"><ele>850.0</ele><time>2026-03-29T11:05:16Z</time></trkpt><trkpt lat="42.03691452850676" lon="13.044449958245334"><ele>849.9999999999999</ele><time>2026-03-29T11:05:18Z</time></trkpt><trkpt lat="42.03689477031103" lon="13.044545437861075"><ele>850.0</ele><time>2026-03-29T11:05:25Z</time></trkpt><trkpt lat="42.03681328897031" lon="13.044581078108704"><ele>850.0</ele><time>2026-03-29T11:05:27.999Z</time></trkpt><trkpt lat="42.03673888960033" lon="13.044592188455821"><ele>850.0</ele><time>2026-03-29T11:05:30.999Z</time></trkpt><trkpt lat="42.03667583705981" lon="13.044597137482423"><ele>849.9999999999999</ele><time>2026-03-29T11:05:33.999Z</time></trkpt><trkpt lat="42.03662304131612" lon="13.044665175569385"><ele>850.0</ele><time>2026-03-29T11:05:35.999Z</time></trkpt><trkpt lat="42.036579565025" lon="13.044764431917867"><ele>850.6</ele><time>2026-03-29T11:05:38.999Z</time></trkpt><trkpt lat="42.03652251262242" lon="13.04487532444817"><ele>851.2</ele><time>2026-03-29T11:05:40.999Z</time></trkpt><trkpt lat="42.0364792793997" lon="13.04499606886876"><ele>851.8</ele><time>2026-03-29T11:05:43Z</time></trkpt><trkpt lat="42.03643280113264" lon="13.045072883493692"><ele>852.4</ele><time>2026-03-29T11:05:45Z</time></trkpt><trkpt lat="42.03635648813488" lon="13.045157322815248"><ele>853.0</ele><time>2026-03-29T11:05:47Z</time></trkpt><trkpt lat="42.03628033274899" lon="13.045277563488078"><ele>855.8333333333333</ele><time>2026-03-29T11:05:49Z</time></trkpt><trkpt lat="42.03623552014835" lon="13.045353888862977"><ele>858.6666666666666</ele><time>2026-03-29T11:05:50Z</time></trkpt><trkpt lat="42.03618657516901" lon="13.045437260388082"><ele>861.5</ele><time>2026-03-29T11:05:51Z</time></trkpt><trkpt lat="42.03613854381556" lon="13.045510940415204"><ele>864.3333333333333</ele><time>2026-03-29T11:05:52Z</time></trkpt><trkpt lat="42.03609055799441" lon="13.045589836968984"><ele>867.1666666666666</ele><time>2026-03-29T11:05:53Z</time></trkpt><trkpt lat="42.03600949817824" lon="13.045688311298955"><ele>870.0</ele><time>2026-03-29T11:05:55Z</time></trkpt><trkpt lat="42.035963136604124" lon="13.04574893117162"><ele>873.6</ele><time>2026-03-29T11:05:57Z</time></trkpt><trkpt lat="42.035925642285115" lon="13.045822238802899"><ele>877.2</ele><time>2026-03-29T11:06:00Z</time></trkpt><trkpt lat="42.03582114348306" lon="13.04594575848492"><ele>880.8</ele><time>2026-03-29T11:06:01Z</time></trkpt><trkpt lat="42.03575586451802" lon="13.045986125588351"><ele>884.4</ele><time>2026-03-29T11:06:03Z</time></trkpt><trkpt lat="42.03568084772144" lon="13.046056217903518"><ele>888.0</ele><time>2026-03-29T11:06:06Z</time></trkpt><trkpt lat="42.0355917946753" lon="13.046115280325804"><ele>889.1666666666666</ele><time>2026-03-29T11:06:08Z</time></trkpt><trkpt lat="42.035560919321355" lon="13.046193239218633"><ele>890.3333333333333</ele><time>2026-03-29T11:06:09Z</time></trkpt><trkpt lat="42.03553185677963" lon="13.046272174110767"><ele>891.5</ele><time>2026-03-29T11:06:10Z</time></trkpt><trkpt lat="42.035476406933896" lon="13.046384255227954"><ele>892.6666666666666</ele><time>2026-03-29T11:06:11Z</time></trkpt><trkpt lat="42.03540951546619" lon="13.046502197460523"><ele>893.8333333333333</ele><time>2026-03-29T11:06:12Z</time></trkpt><trkpt lat="42.035357783622466" lon="13.046576185618664"><ele>895.0</ele><time>2026-03-29T11:06:13Z</time></trkpt><trkpt lat="42.035300127645066" lon="13.046633896314459"><ele>896.9999999999999</ele><time>2026-03-29T11:06:14Z</time></trkpt><trkpt lat="42.035226808689146" lon="13.04664807544942"><ele>899.0</ele><time>2026-03-29T11:06:15Z</time></trkpt><trkpt lat="42.03515370198912" lon="13.04670114628857"><ele>901.0</ele><time>2026-03-29T11:06:16Z</time></trkpt><trkpt lat="42.03510391880838" lon="13.046779547837522"><ele>903.0</ele><time>2026-03-29T11:06:17Z</time></trkpt><trkpt lat="42.03508586381194" lon="13.046898232204128"><ele>904.9999999999999</ele><time>2026-03-29T11:06:19Z</time></trkpt><trkpt lat="42.03502157228239" lon="13.047011439039656"><ele>907.0</ele><time>2026-03-29T11:06:21Z</time></trkpt><trkpt lat="42.034971702824" lon="13.04707885761703"><ele>907.4999999999999</ele><time>2026-03-29T11:06:24Z</time></trkpt><trkpt lat="42.03491005608797" lon="13.047100965800736"><ele>908.0</ele><time>2026-03-29T11:06:27Z</time></trkpt><trkpt lat="42.03483148573409" lon="13.047132220449194"><ele>908.5</ele><time>2026-03-29T11:06:31Z</time></trkpt><trkpt lat="42.03471422250405" lon="13.04715697762404"><ele>909.0</ele><time>2026-03-29T11:06:33Z</time></trkpt><trkpt lat="42.03464059022091" lon="13.047189790513368"><ele>909.4999999999999</ele><time>2026-03-29T11:06:34Z</time></trkpt><trkpt lat="42.03456019305627" lon="13.04721258556229"><ele>910.0</ele><time>2026-03-29T11:06:36Z</time></trkpt><trkpt lat="42.03448159222498" lon="13.047244703563225"><ele>909.9999999999999</ele><time>2026-03-29T11:06:38Z</time></trkpt><trkpt lat="42.034371452746356" lon="13.047248088267283"><ele>910.0</ele><time>2026-03-29T11:06:40Z</time></trkpt><trkpt lat="42.0342907116867" lon="13.04723150559884"><ele>910.0</ele><time>2026-03-29T11:06:42Z</time></trkpt><trkpt lat="42.03422276768493" lon="13.04718586515369"><ele>910.0</ele><time>2026-03-29T11:06:44Z</time></trkpt><trkpt lat="42.03413614735021" lon="13.0472019644065"><ele>909.9999999999999</ele><time>2026-03-29T11:06:46Z</time></trkpt><trkpt lat="42.034063738975625" lon="13.04721493359224"><ele>910.0</ele><time>2026-03-29T11:06:47Z</time></trkpt><trkpt lat="42.03400279025844" lon="13.047242598724077"><ele>909.7142857142858</ele><time>2026-03-29T11:06:48Z</time></trkpt><trkpt lat="42.03393846795563" lon="13.047298580690699"><ele>909.4285714285714</ele><time>2026-03-29T11:06:51Z</time></trkpt><trkpt lat="42.033871726787915" lon="13.04734870292662"><ele>909.1428571428571</ele><time>2026-03-29T11:06:54Z</time></trkpt><trkpt lat="42.03382032287643" lon="13.047408336814609"><ele>908.8571428571429</ele><time>2026-03-29T11:06:57Z</time></trkpt><trkpt lat="42.033752317389514" lon="13.047449496654092"><ele>908.5714285714287</ele><time>2026-03-29T11:07:01Z</time></trkpt><trkpt lat="42.03368590951246" lon="13.047447863098084"><ele>908.2857142857143</ele><time>2026-03-29T11:07:11Z</time></trkpt><trkpt lat="42.033618908835145" lon="13.047484485988987"><ele>908.0</ele><time>2026-03-29T11:07:13Z</time></trkpt><trkpt lat="42.03355272197345" lon="13.047506645529731"><ele>910.25</ele><time>2026-03-29T11:07:15Z</time></trkpt><trkpt lat="42.03332016670409" lon="13.047565372091906"><ele>912.5</ele><time>2026-03-29T11:07:18Z</time></trkpt><trkpt lat="42.03325508938851" lon="13.047572719086201"><ele>914.75</ele><time>2026-03-29T11:07:19Z</time></trkpt><trkpt lat="42.03315719445042" lon="13.04757950594894"><ele>917.0</ele><time>2026-03-29T11:07:21Z</time></trkpt><trkpt lat="42.033064151290745" lon="13.047588850591382"><ele>917.8333333333334</ele><time>2026-03-29T11:07:24Z</time></trkpt><trkpt lat="42.032991863110475" lon="13.047594419670187"><ele>918.6666666666667</ele><time>2026-03-29T11:07:26Z</time></trkpt><trkpt lat="42.03289912727983" lon="13.047608866944755"><ele>919.5</ele><time>2026-03-29T11:07:28Z</time></trkpt><trkpt lat="42.03281564615715" lon="13.04764814890585"><ele>920.3333333333333</ele><time>2026-03-29T11:07:30Z</time></trkpt><trkpt lat="42.032724653571776" lon="13.04770472361955"><ele>921.1666666666666</ele><time>2026-03-29T11:07:31.999Z</time></trkpt><trkpt lat="42.03267188387527" lon="13.04779941865235"><ele>922.0</ele><time>2026-03-29T11:07:33.999Z</time></trkpt><trkpt lat="42.03274019336372" lon="13.04779622616793"><ele>921.9999999999999</ele><time>2026-03-29T11:07:35.999Z</time></trkpt><trkpt lat="42.03266127148947" lon="13.047847930554685"><ele>922.0</ele><time>2026-03-29T11:08:11Z</time></trkpt><trkpt lat="42.032607932527995" lon="13.047907845703348"><ele>922.0</ele><time>2026-03-29T11:08:13Z</time></trkpt><trkpt lat="42.03253140704838" lon="13.047937936038979"><ele>922.0</ele><time>2026-03-29T11:08:15Z</time></trkpt><trkpt lat="42.03246355400556" lon="13.048052964684882"><ele>921.9999999999999</ele><time>2026-03-29T11:08:17Z</time></trkpt><trkpt lat="42.032415441470164" lon="13.048144587337227"><ele>922.0</ele><time>2026-03-29T11:08:18Z</time></trkpt><trkpt lat="42.03236245178049" lon="13.048256509968725"><ele>923.0</ele><time>2026-03-29T11:08:19Z</time></trkpt><trkpt lat="42.03231942150712" lon="13.048361077877088"><ele>924.0</ele><time>2026-03-29T11:08:20Z</time></trkpt><trkpt lat="42.03228321050409" lon="13.048494196200929"><ele>925.0</ele><time>2026-03-29T11:08:21Z</time></trkpt><trkpt lat="42.032232366824" lon="13.048641752323677"><ele>926.0</ele><time>2026-03-29T11:08:22Z</time></trkpt><trkpt lat="42.032173516414346" lon="13.04879040011707"><ele>927.0</ele><time>2026-03-29T11:08:23Z</time></trkpt><trkpt lat="42.03212668448407" lon="13.04889514106027"><ele>927.0</ele><time>2026-03-29T11:08:24Z</time></trkpt><trkpt lat="42.03205791840234" lon="13.04900450326369"><ele>927.0</ele><time>2026-03-29T11:08:26Z</time></trkpt><trkpt lat="42.031984745948655" lon="13.049066349974709"><ele>927.0</ele><time>2026-03-29T11:08:28Z</time></trkpt><trkpt lat="42.031967667554774" lon="13.049163637914358"><ele>927.0</ele><time>2026-03-29T11:08:41Z</time></trkpt><trkpt lat="42.03188488369201" lon="13.049167898495003"><ele>927.0</ele><time>2026-03-29T11:08:43Z</time></trkpt><trkpt lat="42.031827878290606" lon="13.049274335202497"><ele>927.0</ele><time>2026-03-29T11:08:46Z</time></trkpt><trkpt lat="42.03177029836223" lon="13.049370533876736"><ele>926.3333333333334</ele><time>2026-03-29T11:08:48Z</time></trkpt><trkpt lat="42.031736661588404" lon="13.049456652194571"><ele>925.6666666666667</ele><time>2026-03-29T11:08:50Z</time></trkpt><trkpt lat="42.03169128620222" lon="13.049532984544186"><ele>925.0</ele><time>2026-03-29T11:08:53Z</time></trkpt><trkpt lat="42.0316161714447" lon="13.04963043673983"><ele>924.3333333333334</ele><time>2026-03-29T11:08:55Z</time></trkpt><trkpt lat="42.03155564100507" lon="13.049677821731857"><ele>923.6666666666667</ele><time>2026-03-29T11:08:56Z</time></trkpt><trkpt lat="42.031473710953456" lon="13.049769843854218"><ele>923.0</ele><time>2026-03-29T11:08:58Z</time></trkpt><trkpt lat="42.03142471731993" lon="13.049843487483637"><ele>923.0</ele><time>2026-03-29T11:08:59Z</time></trkpt><trkpt lat="42.03135911057461" lon="13.04992296618855"><ele>923.0</ele><time>2026-03-29T11:09:00Z</time></trkpt><trkpt lat="42.03128464985315" lon="13.04999674429748"><ele>923.0</ele><time>2026-03-29T11:09:01Z</time></trkpt><trkpt lat="42.03120749140547" lon="13.050055664171303"><ele>923.0</ele><time>2026-03-29T11:09:02Z</time></trkpt><trkpt lat="42.031139116015844" lon="13.050108802563297"><ele>923.0</ele><time>2026-03-29T11:09:03Z</time></trkpt><trkpt lat="42.0310510446715" lon="13.050186305695796"><ele>922.5000000000001</ele><time>2026-03-29T11:09:05Z</time></trkpt><trkpt lat="42.03100508497208" lon="13.050252717635512"><ele>922.0</ele><time>2026-03-29T11:13:12Z</time></trkpt><trkpt lat="42.030939632061546" lon="13.050332976782572"><ele>921.5</ele><time>2026-03-29T11:13:14Z</time></trkpt><trkpt lat="42.030857094168866" lon="13.050451965264072"><ele>921.0</ele><time>2026-03-29T11:13:16Z</time></trkpt><trkpt lat="42.030806102945945" lon="13.050506139029835"><ele>920.5000000000001</ele><time>2026-03-29T11:13:17Z</time></trkpt><trkpt lat="42.03073299421808" lon="13.050566399931848"><ele>920.0</ele><time>2026-03-29T11:13:18Z</time></trkpt><trkpt lat="42.0306433903682" lon="13.050605269906855"><ele>920.0000000000001</ele><time>2026-03-29T11:13:19Z</time></trkpt><trkpt lat="42.03054384712707" lon="13.050680088807193"><ele>920.0</ele><time>2026-03-29T11:13:21Z</time></trkpt><trkpt lat="42.03047906699004" lon="13.050713294090588"><ele>920.0</ele><time>2026-03-29T11:13:22Z</time></trkpt><trkpt lat="42.03040270567995" lon="13.050738170352819"><ele>920.0</ele><time>2026-03-29T11:13:23Z</time></trkpt><trkpt lat="42.030318317395356" lon="13.050771533277139"><ele>920.0000000000001</ele><time>2026-03-29T11:13:24Z</time></trkpt><trkpt lat="42.03023171557514" lon="13.050820882584867"><ele>920.0</ele><time>2026-03-29T11:13:25Z</time></trkpt><trkpt lat="42.0301405692329" lon="13.050865727994355"><ele>922.0000000000001</ele><time>2026-03-29T11:13:26Z</time></trkpt><trkpt lat="42.030051686242345" lon="13.050909753551442"><ele>924.0</ele><time>2026-03-29T11:13:27Z</time></trkpt><trkpt lat="42.02998271324408" lon="13.050930530610676"><ele>926.0</ele><time>2026-03-29T11:13:28Z</time></trkpt><trkpt lat="42.029868170144944" lon="13.050980544374779"><ele>928.0</ele><time>2026-03-29T11:13:30Z</time></trkpt><trkpt lat="42.02980162836155" lon="13.051018937068283"><ele>930.0000000000001</ele><time>2026-03-29T11:13:31Z</time></trkpt><trkpt lat="42.02972203478292" lon="13.051056355447063"><ele>932.0</ele><time>2026-03-29T11:13:32Z</time></trkpt><trkpt lat="42.029656264115026" lon="13.051076758209344"><ele>932.0</ele><time>2026-03-29T11:13:33Z</time></trkpt><trkpt lat="42.02955267047972" lon="13.051134467593089"><ele>932.0</ele><time>2026-03-29T11:13:35Z</time></trkpt><trkpt lat="42.02947175478518" lon="13.05119357714404"><ele>932.0</ele><time>2026-03-29T11:13:37Z</time></trkpt><trkpt lat="42.029374911784956" lon="13.051291757211976"><ele>932.0</ele><time>2026-03-29T11:13:39Z</time></trkpt><trkpt lat="42.029272117907254" lon="13.051370617494117"><ele>932.0</ele><time>2026-03-29T11:13:40.999Z</time></trkpt><trkpt lat="42.02916851967162" lon="13.051431551574474"><ele>933.0000000000001</ele><time>2026-03-29T11:13:42.999Z</time></trkpt><trkpt lat="42.02907338567302" lon="13.051485002080936"><ele>934.0</ele><time>2026-03-29T11:13:44.999Z</time></trkpt><trkpt lat="42.02901035365446" lon="13.051537564900968"><ele>935.0</ele><time>2026-03-29T11:13:45.999Z</time></trkpt><trkpt lat="42.028944522118245" lon="13.051591912965481"><ele>936.0</ele><time>2026-03-29T11:13:46.999Z</time></trkpt><trkpt lat="42.02888489143839" lon="13.051639412699151"><ele>937.0000000000001</ele><time>2026-03-29T11:13:47.999Z</time></trkpt><trkpt lat="42.02881444434111" lon="13.051697556632496"><ele>938.0</ele><time>2026-03-29T11:13:49.999Z</time></trkpt><trkpt lat="42.02874218405583" lon="13.05179488013172"><ele>938.0</ele><time>2026-03-29T11:13:52.999Z</time></trkpt><trkpt lat="42.02865835394481" lon="13.051895972359667"><ele>938.0</ele><time>2026-03-29T11:13:54.999Z</time></trkpt><trkpt lat="42.028570832049965" lon="13.051965020200122"><ele>938.0</ele><time>2026-03-29T11:13:56.999Z</time></trkpt><trkpt lat="42.02852629162253" lon="13.052034864384375"><ele>938.0</ele><time>2026-03-29T11:13:58.999Z</time></trkpt><trkpt lat="42.02845483942957" lon="13.052122127644994"><ele>938.0</ele><time>2026-03-29T11:13:59.999Z</time></trkpt><trkpt lat="42.02839119781257" lon="13.052196997035347"><ele>938.0000000000001</ele><time>2026-03-29T11:14:00.999Z</time></trkpt><trkpt lat="42.02834424281719" lon="13.05226387729468"><ele>938.0</ele><time>2026-03-29T11:14:01.999Z</time></trkpt><trkpt lat="42.02829968789661" lon="13.052342324172258"><ele>938.0</ele><time>2026-03-29T11:14:02.999Z</time></trkpt><trkpt lat="42.028239200180025" lon="13.052428845723979"><ele>938.0</ele><time>2026-03-29T11:14:03.999Z</time></trkpt><trkpt lat="42.028183255985816" lon="13.052548684660836"><ele>938.0000000000001</ele><time>2026-03-29T11:14:06Z</time></trkpt><trkpt lat="42.02812824164537" lon="13.052673319237774"><ele>938.0</ele><time>2026-03-29T11:14:07Z</time></trkpt><trkpt lat="42.02808960013884" lon="13.052760118790022"><ele>939.2</ele><time>2026-03-29T11:14:08Z</time></trkpt><trkpt lat="42.02805067796885" lon="13.052888784404614"><ele>940.4</ele><time>2026-03-29T11:14:10Z</time></trkpt><trkpt lat="42.02801319248522" lon="13.052989510380726"><ele>941.6000000000001</ele><time>2026-03-29T11:14:12Z</time></trkpt><trkpt lat="42.02792677308195" lon="13.053075229556546"><ele>942.8000000000001</ele><time>2026-03-29T11:14:14Z</time></trkpt><trkpt lat="42.02783188388875" lon="13.053209458922938"><ele>944.0</ele><time>2026-03-29T11:14:16Z</time></trkpt><trkpt lat="42.02773136556059" lon="13.053300378465195"><ele>944.0</ele><time>2026-03-29T11:14:18Z</time></trkpt><trkpt lat="42.02766368837466" lon="13.053390733441327"><ele>944.0000000000001</ele><time>2026-03-29T11:14:20Z</time></trkpt><trkpt lat="42.0276167191749" lon="13.05346502910825"><ele>944.0000000000001</ele><time>2026-03-29T11:14:22Z</time></trkpt><trkpt lat="42.02757176534159" lon="13.05354296080853"><ele>944.0</ele><time>2026-03-29T11:14:25Z</time></trkpt><trkpt lat="42.027520684722006" lon="13.05364157930859"><ele>944.0</ele><time>2026-03-29T11:14:27Z</time></trkpt><trkpt lat="42.02744301854294" lon="13.053782579785997"><ele>944.8000000000001</ele><time>2026-03-29T11:14:29Z</time></trkpt><trkpt lat="42.02738353398941" lon="13.05388807458555"><ele>945.6000000000001</ele><time>2026-03-29T11:14:31Z</time></trkpt><trkpt lat="42.02729170890078" lon="13.053981218059675"><ele>946.4</ele><time>2026-03-29T11:14:33Z</time></trkpt><trkpt lat="42.02722614660678" lon="13.054030359828692"><ele>947.2</ele><time>2026-03-29T11:14:34Z</time></trkpt><trkpt lat="42.02711815553893" lon="13.054070093534515"><ele>948.0</ele><time>2026-03-29T11:14:36Z</time></trkpt><trkpt lat="42.02705779404879" lon="13.054209533182778"><ele>948.0</ele><time>2026-03-29T11:14:38Z</time></trkpt><trkpt lat="42.027092120422815" lon="13.054312406863062"><ele>948.0</ele><time>2026-03-29T11:14:40Z</time></trkpt><trkpt lat="42.02717889994351" lon="13.054353158833193"><ele>948.0</ele><time>2026-03-29T11:14:42Z</time></trkpt><trkpt lat="42.027265261783384" lon="13.054388740938487"><ele>948.0</ele><time>2026-03-29T11:14:44Z</time></trkpt><trkpt lat="42.027384708054065" lon="13.054424596787412"><ele>948.0</ele><time>2026-03-29T11:14:46Z</time></trkpt><trkpt lat="42.027443938546526" lon="13.05449696486288"><ele>948.1666666666666</ele><time>2026-03-29T11:14:47Z</time></trkpt><trkpt lat="42.027491463830934" lon="13.054582492566176"><ele>948.3333333333333</ele><time>2026-03-29T11:14:48Z</time></trkpt><trkpt lat="42.027507605863526" lon="13.054674207683075"><ele>948.5</ele><time>2026-03-29T11:14:49Z</time></trkpt><trkpt lat="42.02752154867899" lon="13.054794428206081"><ele>948.6666666666666</ele><time>2026-03-29T11:14:50Z</time></trkpt><trkpt lat="42.027546112437705" lon="13.054904658569951"><ele>948.8333333333333</ele><time>2026-03-29T11:14:51Z</time></trkpt><trkpt lat="42.027578175227475" lon="13.055000733853785"><ele>949.0</ele><time>2026-03-29T11:14:52Z</time></trkpt><trkpt lat="42.02761885373968" lon="13.055084797946346"><ele>947.4999999999999</ele><time>2026-03-29T11:14:53Z</time></trkpt><trkpt lat="42.02768562731249" lon="13.055228590372227"><ele>946.0</ele><time>2026-03-29T11:14:55Z</time></trkpt><trkpt lat="42.02771155081487" lon="13.055338068724772"><ele>944.5</ele><time>2026-03-29T11:14:56Z</time></trkpt><trkpt lat="42.027726386726556" lon="13.055445866790027"><ele>943.0</ele><time>2026-03-29T11:14:57Z</time></trkpt><trkpt lat="42.02773889973779" lon="13.055549160744038"><ele>941.4999999999999</ele><time>2026-03-29T11:14:58Z</time></trkpt><trkpt lat="42.02774697444635" lon="13.055637439137707"><ele>940.0</ele><time>2026-03-29T11:14:59Z</time></trkpt><trkpt lat="42.027761769202264" lon="13.055727882539497"><ele>937.3333333333333</ele><time>2026-03-29T11:15:00Z</time></trkpt><trkpt lat="42.02778584003376" lon="13.055859665973468"><ele>934.6666666666666</ele><time>2026-03-29T11:15:02Z</time></trkpt><trkpt lat="42.02781109430338" lon="13.055967184115598"><ele>932.0</ele><time>2026-03-29T11:15:04Z</time></trkpt><trkpt lat="42.02777294618384" lon="13.056056910738892"><ele>929.3333333333333</ele><time>2026-03-29T11:15:07Z</time></trkpt><trkpt lat="42.0277034050888" lon="13.056041258880262"><ele>926.6666666666666</ele><time>2026-03-29T11:15:08Z</time></trkpt><trkpt lat="42.027619694476485" lon="13.056033722623269"><ele>924.0</ele><time>2026-03-29T11:15:09Z</time></trkpt><trkpt lat="42.02755848911896" lon="13.056054612302212"><ele>924.0</ele><time>2026-03-29T11:15:10Z</time></trkpt><trkpt lat="42.02750937647769" lon="13.056169054843975"><ele>924.0000000000001</ele><time>2026-03-29T11:15:12Z</time></trkpt><trkpt lat="42.02748298088399" lon="13.056303514930782"><ele>924.0000000000001</ele><time>2026-03-29T11:15:14Z</time></trkpt><trkpt lat="42.02749873142497" lon="13.056398284203688"><ele>924.0</ele><time>2026-03-29T11:15:15Z</time></trkpt><trkpt lat="42.027523506468214" lon="13.056489285528738"><ele>924.0</ele><time>2026-03-29T11:15:16Z</time></trkpt><trkpt lat="42.02755993663945" lon="13.056623852929262"><ele>922.1428571428571</ele><time>2026-03-29T11:15:18Z</time></trkpt><trkpt lat="42.0275527320487" lon="13.056713883157455"><ele>920.2857142857142</ele><time>2026-03-29T11:15:21Z</time></trkpt><trkpt lat="42.027512801315694" lon="13.056779556463242"><ele>918.4285714285714</ele><time>2026-03-29T11:15:26Z</time></trkpt><trkpt lat="42.02743052161354" lon="13.05676009562383"><ele>916.5714285714286</ele><time>2026-03-29T11:15:30Z</time></trkpt><trkpt lat="42.027373450352094" lon="13.056704029066605"><ele>914.7142857142857</ele><time>2026-03-29T11:15:32Z</time></trkpt><trkpt lat="42.02730245630641" lon="13.056699355053187"><ele>912.8571428571429</ele><time>2026-03-29T11:15:33Z</time></trkpt><trkpt lat="42.027233074299126" lon="13.05671965923258"><ele>911.0</ele><time>2026-03-29T11:15:34Z</time></trkpt><trkpt lat="42.027143091722266" lon="13.056820951833624"><ele>910.0</ele><time>2026-03-29T11:15:36Z</time></trkpt><trkpt lat="42.02709052112691" lon="13.056966960627841"><ele>908.9999999999999</ele><time>2026-03-29T11:15:38Z</time></trkpt><trkpt lat="42.027082719115135" lon="13.057080648998154"><ele>907.9999999999999</ele><time>2026-03-29T11:15:39.999Z</time></trkpt><trkpt lat="42.02700802338388" lon="13.057178963593651"><ele>907.0</ele><time>2026-03-29T11:15:42.999Z</time></trkpt><trkpt lat="42.027002469939404" lon="13.057286672472614"><ele>906.0</ele><time>2026-03-29T11:15:44.999Z</time></trkpt><trkpt lat="42.0270237026407" lon="13.057422241248535"><ele>903.5</ele><time>2026-03-29T11:15:48.999Z</time></trkpt><trkpt lat="42.027037202721736" lon="13.057688227643927"><ele>901.0</ele><time>2026-03-29T11:15:50.999Z</time></trkpt><trkpt lat="42.026962342051384" lon="13.057801291987756"><ele>898.5</ele><time>2026-03-29T11:15:52.999Z</time></trkpt><trkpt lat="42.02691184892261" lon="13.0578794299139"><ele>896.0</ele><time>2026-03-29T11:15:53.999Z</time></trkpt><trkpt lat="42.02683813502187" lon="13.05797822169774"><ele>896.0</ele><time>2026-03-29T11:15:55.999Z</time></trkpt><trkpt lat="42.02679115884995" lon="13.058085753375348"><ele>896.0</ele><time>2026-03-29T11:15:57.999Z</time></trkpt><trkpt lat="42.02680422851846" lon="13.058296579831431"><ele>896.0</ele><time>2026-03-29T11:15:59.999Z</time></trkpt><trkpt lat="42.026800521876254" lon="13.058465324488454"><ele>896.0</ele><time>2026-03-29T11:16:01.999Z</time></trkpt><trkpt lat="42.02677038587181" lon="13.058662670106576"><ele>895.1999999999999</ele><time>2026-03-29T11:16:03.999Z</time></trkpt><trkpt lat="42.02677371970244" lon="13.058803435152226"><ele>894.3999999999999</ele><time>2026-03-29T11:16:04.999Z</time></trkpt><trkpt lat="42.02675573494493" lon="13.058933225722324"><ele>893.6</ele><time>2026-03-29T11:16:05.999Z</time></trkpt><trkpt lat="42.02673602991478" lon="13.059066112145853"><ele>892.8</ele><time>2026-03-29T11:16:06.999Z</time></trkpt><trkpt lat="42.026714793766" lon="13.059188002629439"><ele>892.0</ele><time>2026-03-29T11:16:07.999Z</time></trkpt><trkpt lat="42.0267027302012" lon="13.059305869374924"><ele>891.3333333333333</ele><time>2026-03-29T11:16:08.999Z</time></trkpt><trkpt lat="42.02669158379461" lon="13.059488116120628"><ele>890.6666666666666</ele><time>2026-03-29T11:16:10.999Z</time></trkpt><trkpt lat="42.02668289552607" lon="13.059586271472806"><ele>890.0</ele><time>2026-03-29T11:16:12Z</time></trkpt><trkpt lat="42.02670962704806" lon="13.059696628574722"><ele>889.3333333333333</ele><time>2026-03-29T11:16:13Z</time></trkpt><trkpt lat="42.02671275582009" lon="13.059789024071575"><ele>888.6666666666666</ele><time>2026-03-29T11:16:14Z</time></trkpt><trkpt lat="42.02673600284297" lon="13.05989739182072"><ele>888.0</ele><time>2026-03-29T11:16:15Z</time></trkpt><trkpt lat="42.02674025783092" lon="13.059987199630392"><ele>885.8</ele><time>2026-03-29T11:16:16Z</time></trkpt><trkpt lat="42.02672928306601" lon="13.060153810205366"><ele>883.5999999999999</ele><time>2026-03-29T11:16:18Z</time></trkpt><trkpt lat="42.02672704568462" lon="13.060241222694282"><ele>881.4000000000001</ele><time>2026-03-29T11:16:19Z</time></trkpt><trkpt lat="42.02669017262827" lon="13.060399964407791"><ele>879.2</ele><time>2026-03-29T11:16:21Z</time></trkpt><trkpt lat="42.02662061377116" lon="13.060484136356393"><ele>877.0</ele><time>2026-03-29T11:16:22Z</time></trkpt><trkpt lat="42.02658362956457" lon="13.060572055479524"><ele>878.8333333333333</ele><time>2026-03-29T11:16:23Z</time></trkpt><trkpt lat="42.02657157316148" lon="13.06071948805363"><ele>880.6666666666666</ele><time>2026-03-29T11:16:25Z</time></trkpt><trkpt lat="42.026550864545" lon="13.060803948088095"><ele>882.5</ele><time>2026-03-29T11:16:26Z</time></trkpt><trkpt lat="42.026517433038954" lon="13.060877195263505"><ele>884.3333333333333</ele><time>2026-03-29T11:16:27Z</time></trkpt><trkpt lat="42.02645172579028" lon="13.061032022984735"><ele>886.1666666666666</ele><time>2026-03-29T11:16:29Z</time></trkpt><trkpt lat="42.02640059479896" lon="13.061108616498709"><ele>888.0</ele><time>2026-03-29T11:16:30Z</time></trkpt><trkpt lat="42.02635147982916" lon="13.061179030610695"><ele>888.0</ele><time>2026-03-29T11:16:31Z</time></trkpt><trkpt lat="42.02627365908707" lon="13.061302350513808"><ele>888.0</ele><time>2026-03-29T11:16:33Z</time></trkpt><trkpt lat="42.02616682820004" lon="13.061392877566176"><ele>888.0</ele><time>2026-03-29T11:16:35Z</time></trkpt><trkpt lat="42.02610997129154" lon="13.06145718278969"><ele>888.0</ele><time>2026-03-29T11:16:36Z</time></trkpt><trkpt lat="42.02607047089024" lon="13.061533443108496"><ele>888.0</ele><time>2026-03-29T11:16:37Z</time></trkpt><trkpt lat="42.02607061918185" lon="13.061697915034948"><ele>885.1666666666666</ele><time>2026-03-29T11:16:39Z</time></trkpt><trkpt lat="42.026093614017064" lon="13.06179778772577"><ele>882.3333333333333</ele><time>2026-03-29T11:16:40Z</time></trkpt><trkpt lat="42.02614871729828" lon="13.061890476911646"><ele>879.5</ele><time>2026-03-29T11:16:41Z</time></trkpt><trkpt lat="42.02619747837809" lon="13.061990158878103"><ele>876.6666666666666</ele><time>2026-03-29T11:16:42Z</time></trkpt><trkpt lat="42.0262378817125" lon="13.062100677104619"><ele>873.8333333333333</ele><time>2026-03-29T11:16:44Z</time></trkpt><trkpt lat="42.02630292393121" lon="13.062147984108297"><ele>871.0</ele><time>2026-03-29T11:17:06Z</time></trkpt><trkpt lat="42.0263628193574" lon="13.06221559231512"><ele>870.9999999999999</ele><time>2026-03-29T11:17:08Z</time></trkpt><trkpt lat="42.02645273879206" lon="13.062271518353008"><ele>871.0</ele><time>2026-03-29T11:17:11Z</time></trkpt><trkpt lat="42.02654064189425" lon="13.062324463222694"><ele>871.0</ele><time>2026-03-29T11:17:13Z</time></trkpt><trkpt lat="42.0265591757829" lon="13.062440664801452"><ele>871.0</ele><time>2026-03-29T11:17:15Z</time></trkpt><trkpt lat="42.02655660919469" lon="13.062525843783794"><ele>870.9999999999999</ele><time>2026-03-29T11:17:16Z</time></trkpt><trkpt lat="42.02654776599951" lon="13.06263210352494"><ele>871.0</ele><time>2026-03-29T11:17:19Z</time></trkpt><trkpt lat="42.026506196177095" lon="13.06275341966697"><ele>869.8333333333333</ele><time>2026-03-29T11:17:22Z</time></trkpt><trkpt lat="42.026483842035255" lon="13.062881105122033"><ele>868.6666666666666</ele><time>2026-03-29T11:17:24Z</time></trkpt><trkpt lat="42.02643899526352" lon="13.062943893209555"><ele>867.5</ele><time>2026-03-29T11:17:27Z</time></trkpt><trkpt lat="42.02639680271307" lon="13.063035502752198"><ele>866.3333333333333</ele><time>2026-03-29T11:17:30Z</time></trkpt><trkpt lat="42.02638839162103" lon="13.063129508072237"><ele>865.1666666666666</ele><time>2026-03-29T11:17:33Z</time></trkpt><trkpt lat="42.02637997297969" lon="13.063261030021817"><ele>864.0</ele><time>2026-03-29T11:17:42.999Z</time></trkpt><trkpt lat="42.02634378918555" lon="13.06335143174452"><ele>862.2</ele><time>2026-03-29T11:17:58.999Z</time></trkpt><trkpt lat="42.02629425635854" lon="13.063412952680995"><ele>860.4000000000001</ele><time>2026-03-29T11:18:01.999Z</time></trkpt><trkpt lat="42.02631271194153" lon="13.06353136848211"><ele>858.6</ele><time>2026-03-29T11:18:04.999Z</time></trkpt><trkpt lat="42.026355789819476" lon="13.06368168465116"><ele>856.8</ele><time>2026-03-29T11:18:06.999Z</time></trkpt><trkpt lat="42.02637493079119" lon="13.063809264975148"><ele>855.0</ele><time>2026-03-29T11:18:08.999Z</time></trkpt><trkpt lat="42.02645662091233" lon="13.06391248008434"><ele>855.0</ele><time>2026-03-29T11:18:10.999Z</time></trkpt><trkpt lat="42.02649052678781" lon="13.063984974465821"><ele>855.0</ele><time>2026-03-29T11:18:11.999Z</time></trkpt><trkpt lat="42.02651988609341" lon="13.064069958023493"><ele>855.0</ele><time>2026-03-29T11:18:12.999Z</time></trkpt><trkpt lat="42.02656253626747" lon="13.06414446783836"><ele>855.0</ele><time>2026-03-29T11:18:13.999Z</time></trkpt><trkpt lat="42.02659611489763" lon="13.06423766119924"><ele>855.0</ele><time>2026-03-29T11:18:14.999Z</time></trkpt><trkpt lat="42.02661245024276" lon="13.064324504921078"><ele>855.0</ele><time>2026-03-29T11:18:15.999Z</time></trkpt><trkpt lat="42.02666657071165" lon="13.064435366999145"><ele>855.0</ele><time>2026-03-29T11:18:18Z</time></trkpt><trkpt lat="42.02669045398288" lon="13.06453742795649"><ele>854.5</ele><time>2026-03-29T11:18:20Z</time></trkpt><trkpt lat="42.02667569254457" lon="13.064674376699356"><ele>854.0</ele><time>2026-03-29T11:18:22Z</time></trkpt><trkpt lat="42.026667373496345" lon="13.064775887781137"><ele>853.5</ele><time>2026-03-29T11:18:23Z</time></trkpt><trkpt lat="42.026667538783684" lon="13.064887039651447"><ele>853.0</ele><time>2026-03-29T11:18:25Z</time></trkpt><trkpt lat="42.02665641617467" lon="13.06499808133583"><ele>852.5</ele><time>2026-03-29T11:18:27Z</time></trkpt><trkpt lat="42.026654105981386" lon="13.065100936392165"><ele>852.0</ele><time>2026-03-29T11:18:29Z</time></trkpt><trkpt lat="42.02663666608997" lon="13.06519527943956"><ele>852.0</ele><time>2026-03-29T11:18:32Z</time></trkpt><trkpt lat="42.0265747738668" lon="13.06525309952251"><ele>852.0</ele><time>2026-03-29T11:18:34Z</time></trkpt><trkpt lat="42.02649097509147" lon="13.065298209689526"><ele>852.0</ele><time>2026-03-29T11:18:36Z</time></trkpt><trkpt lat="42.026424497473364" lon="13.065383208335243"><ele>852.0</ele><time>2026-03-29T11:18:38Z</time></trkpt><trkpt lat="42.02629895626064" lon="13.065380006562124"><ele>852.0</ele><time>2026-03-29T11:18:40Z</time></trkpt><trkpt lat="42.02622040215054" lon="13.06537377326571"><ele>852.0</ele><time>2026-03-29T11:18:41Z</time></trkpt><trkpt lat="42.02607960624992" lon="13.065359334638815"><ele>852.0</ele><time>2026-03-29T11:18:43Z</time></trkpt><trkpt lat="42.02597471018854" lon="13.06533101636395"><ele>852.0</ele><time>2026-03-29T11:18:44Z</time></trkpt><trkpt lat="42.025882743953005" lon="13.065306713403572"><ele>852.0</ele><time>2026-03-29T11:18:45Z</time></trkpt><trkpt lat="42.025814669053894" lon="13.065234245040083"><ele>852.0</ele><time>2026-03-29T11:18:46Z</time></trkpt><trkpt lat="42.02574897579933" lon="13.065170117196216"><ele>853.8333333333334</ele><time>2026-03-29T11:18:47Z</time></trkpt><trkpt lat="42.025669535114496" lon="13.06512541682438"><ele>855.6666666666667</ele><time>2026-03-29T11:18:48Z</time></trkpt><trkpt lat="42.025587701988684" lon="13.065081295766728"><ele>857.5</ele><time>2026-03-29T11:18:49Z</time></trkpt><trkpt lat="42.02552048210278" lon="13.065030368784434"><ele>859.3333333333334</ele><time>2026-03-29T11:18:50Z</time></trkpt><trkpt lat="42.025449884021825" lon="13.064976588210152"><ele>861.1666666666667</ele><time>2026-03-29T11:18:51Z</time></trkpt><trkpt lat="42.02536298882761" lon="13.064938270753672"><ele>863.0</ele><time>2026-03-29T11:18:52Z</time></trkpt><trkpt lat="42.025245120050506" lon="13.064915355608118"><ele>866.5000000000001</ele><time>2026-03-29T11:18:53Z</time></trkpt><trkpt lat="42.02514106711539" lon="13.064848146260802"><ele>870.0</ele><time>2026-03-29T11:18:54Z</time></trkpt><trkpt lat="42.025042986702765" lon="13.064787940758489"><ele>873.5</ele><time>2026-03-29T11:18:55Z</time></trkpt><trkpt lat="42.024969712786955" lon="13.064742565109803"><ele>877.0</ele><time>2026-03-29T11:18:56Z</time></trkpt><trkpt lat="42.024902401395394" lon="13.064723240302396"><ele>880.5000000000001</ele><time>2026-03-29T11:18:57Z</time></trkpt><trkpt lat="42.024838574651405" lon="13.064702905355174"><ele>884.0</ele><time>2026-03-29T11:18:58Z</time></trkpt><trkpt lat="42.024753582505504" lon="13.064686763139742"><ele>886.8000000000001</ele><time>2026-03-29T11:18:59Z</time></trkpt><trkpt lat="42.02462634359018" lon="13.064618810687989"><ele>889.6000000000001</ele><time>2026-03-29T11:19:01Z</time></trkpt><trkpt lat="42.02454877552973" lon="13.064555985828118"><ele>892.4</ele><time>2026-03-29T11:19:03Z</time></trkpt><trkpt lat="42.024497400132326" lon="13.064494668843846"><ele>895.2</ele><time>2026-03-29T11:19:04Z</time></trkpt><trkpt lat="42.02444160864813" lon="13.06443838528728"><ele>898.0</ele><time>2026-03-29T11:19:05Z</time></trkpt><trkpt lat="42.02435220268165" lon="13.064351142879582"><ele>897.9999999999999</ele><time>2026-03-29T11:19:07Z</time></trkpt><trkpt lat="42.02438182470416" lon="13.064253324843126"><ele>898.0</ele><time>2026-03-29T11:19:12Z</time></trkpt><trkpt lat="42.02438381384538" lon="13.064168155184213"><ele>898.0</ele><time>2026-03-29T11:19:23Z</time></trkpt><trkpt lat="42.024313740880245" lon="13.064187958274687"><ele>898.0</ele><time>2026-03-29T11:19:30Z</time></trkpt><trkpt lat="42.02421379318816" lon="13.064165036600247"><ele>897.9999999999999</ele><time>2026-03-29T11:19:33Z</time></trkpt><trkpt lat="42.02414144614574" lon="13.064178451031193"><ele>898.0</ele><time>2026-03-29T11:19:35Z</time></trkpt><trkpt lat="42.024052773836324" lon="13.064274683826238"><ele>905.8</ele><time>2026-03-29T11:19:37Z</time></trkpt><trkpt lat="42.024013400668636" lon="13.064419706868986"><ele>913.5999999999999</ele><time>2026-03-29T11:19:39Z</time></trkpt><trkpt lat="42.023964615767255" lon="13.06456866484389"><ele>921.4000000000001</ele><time>2026-03-29T11:19:41Z</time></trkpt><trkpt lat="42.02395544297341" lon="13.064677126365575"><ele>929.2</ele><time>2026-03-29T11:19:42Z</time></trkpt><trkpt lat="42.02394562009758" lon="13.064786861346521"><ele>937.0</ele><time>2026-03-29T11:19:43Z</time></trkpt><trkpt lat="42.023910877871614" lon="13.064921304976714"><ele>936.2</ele><time>2026-03-29T11:19:45Z</time></trkpt><trkpt lat="42.02387621795469" lon="13.065079377231573"><ele>935.4000000000001</ele><time>2026-03-29T11:19:47Z</time></trkpt><trkpt lat="42.02384914292419" lon="13.065163987742126"><ele>934.5999999999999</ele><time>2026-03-29T11:19:48Z</time></trkpt><trkpt lat="42.02382200022367" lon="13.06524710552905"><ele>933.8</ele><time>2026-03-29T11:19:49Z</time></trkpt><trkpt lat="42.023790253803895" lon="13.065339424880023"><ele>933.0</ele><time>2026-03-29T11:19:50Z</time></trkpt><trkpt lat="42.02377934762321" lon="13.065498821642763"><ele>933.0</ele><time>2026-03-29T11:19:51.999Z</time></trkpt><trkpt lat="42.02379604375228" lon="13.065582650608478"><ele>933.0</ele><time>2026-03-29T11:19:52.999Z</time></trkpt><trkpt lat="42.02381932322718" lon="13.065677542698873"><ele>933.0</ele><time>2026-03-29T11:19:53.999Z</time></trkpt><trkpt lat="42.02386111296048" lon="13.065771917787798"><ele>933.0</ele><time>2026-03-29T11:19:54.999Z</time></trkpt><trkpt lat="42.023889252120796" lon="13.065862106509021"><ele>933.0</ele><time>2026-03-29T11:19:55.999Z</time></trkpt><trkpt lat="42.023915361294414" lon="13.066030880592706"><ele>933.0</ele><time>2026-03-29T11:19:57.999Z</time></trkpt><trkpt lat="42.0239180953074" lon="13.06613693425263"><ele>931.1666666666666</ele><time>2026-03-29T11:19:59.999Z</time></trkpt><trkpt lat="42.02397110058156" lon="13.066255424744462"><ele>929.3333333333333</ele><time>2026-03-29T11:20:01.999Z</time></trkpt><trkpt lat="42.02397704870769" lon="13.066351384491812"><ele>927.5</ele><time>2026-03-29T11:20:03.999Z</time></trkpt><trkpt lat="42.023911767902995" lon="13.06638867730688"><ele>925.6666666666666</ele><time>2026-03-29T11:20:06.999Z</time></trkpt><trkpt lat="42.0238507966322" lon="13.066446067759056"><ele>923.8333333333333</ele><time>2026-03-29T11:20:09.999Z</time></trkpt><trkpt lat="42.02379763046614" lon="13.066491635833971"><ele>922.0</ele><time>2026-03-29T11:20:11.999Z</time></trkpt><trkpt lat="42.023734378805784" lon="13.066532642604722"><ele>921.9999999999999</ele><time>2026-03-29T11:20:37Z</time></trkpt><trkpt lat="42.02367016179523" lon="13.06655993655999"><ele>922.0</ele><time>2026-03-29T11:20:45Z</time></trkpt><trkpt lat="42.02359961750592" lon="13.066604442429627"><ele>922.0</ele><time>2026-03-29T11:20:51Z</time></trkpt><trkpt lat="42.02354032313859" lon="13.066647910859508"><ele>922.0</ele><time>2026-03-29T11:20:55Z</time></trkpt><trkpt lat="42.0234451355968" lon="13.066698592545984"><ele>921.9999999999999</ele><time>2026-03-29T11:20:58Z</time></trkpt><trkpt lat="42.023366491857395" lon="13.06668408965798"><ele>922.0</ele><time>2026-03-29T11:21:01Z</time></trkpt><trkpt lat="42.0232749447763" lon="13.066679892075346"><ele>922.0</ele><time>2026-03-29T11:21:04Z</time></trkpt><trkpt lat="42.023206632975715" lon="13.066651685015499"><ele>922.0000000000001</ele><time>2026-03-29T11:21:07Z</time></trkpt><trkpt lat="42.02313338483766" lon="13.066562032090856"><ele>922.0</ele><time>2026-03-29T11:22:08.999Z</time></trkpt><trkpt lat="42.0230672311309" lon="13.066574545990171"><ele>922.0</ele><time>2026-03-29T11:22:42Z</time></trkpt><trkpt lat="42.023025976765155" lon="13.06650447082751"><ele>922.0000000000001</ele><time>2026-03-29T11:22:55Z</time></trkpt><trkpt lat="42.02296585624576" lon="13.066474766957361"><ele>922.0</ele><time>2026-03-29T11:23:02Z</time></trkpt><trkpt lat="42.02291053079239" lon="13.06652247140373"><ele>922.0</ele><time>2026-03-29T11:23:09Z</time></trkpt><trkpt lat="42.022846215648634" lon="13.066530860414868"><ele>921.9999999999999</ele><time>2026-03-29T11:23:15Z</time></trkpt><trkpt lat="42.022769071535855" lon="13.066527711460841"><ele>922.0</ele><time>2026-03-29T11:23:34Z</time></trkpt><trkpt lat="42.02269255038112" lon="13.066539240918082"><ele>922.0</ele><time>2026-03-29T11:23:38Z</time></trkpt><trkpt lat="42.02261689261477" lon="13.066589248836495"><ele>922.0</ele><time>2026-03-29T11:23:48Z</time></trkpt><trkpt lat="42.022549967384236" lon="13.066598096143126"><ele>921.9999999999999</ele><time>2026-03-29T11:23:50Z</time></trkpt><trkpt lat="42.02246877911495" lon="13.066637126821117"><ele>922.0</ele><time>2026-03-29T11:23:53Z</time></trkpt><trkpt lat="42.02240466681967" lon="13.06669015352466"><ele>920.0</ele><time>2026-03-29T11:23:59.999Z</time></trkpt><trkpt lat="42.022359180015215" lon="13.066768502828738"><ele>918.0000000000001</ele><time>2026-03-29T11:24:04.999Z</time></trkpt><trkpt lat="42.0222906461524" lon="13.066828056768514"><ele>916.0</ele><time>2026-03-29T11:25:12Z</time></trkpt><trkpt lat="42.02220965758165" lon="13.066828992588883"><ele>914.0</ele><time>2026-03-29T11:25:15Z</time></trkpt><trkpt lat="42.022151416671285" lon="13.06679123600178"><ele>912.0000000000001</ele><time>2026-03-29T11:25:43Z</time></trkpt><trkpt lat="42.022089227519785" lon="13.06673064215729"><ele>910.0</ele><time>2026-03-29T11:25:46Z</time></trkpt><trkpt lat="42.02203476248167" lon="13.066687931472503"><ele>908.0</ele><time>2026-03-29T11:25:48Z</time></trkpt><trkpt lat="42.02193522291166" lon="13.066624277828085"><ele>908.4</ele><time>2026-03-29T11:25:50Z</time></trkpt><trkpt lat="42.021870093452826" lon="13.066579306597509"><ele>908.8</ele><time>2026-03-29T11:25:51Z</time></trkpt><trkpt lat="42.0218070416477" lon="13.066514305146011"><ele>909.2</ele><time>2026-03-29T11:25:51.999Z</time></trkpt><trkpt lat="42.021729843480884" lon="13.066410440498943"><ele>909.6</ele><time>2026-03-29T11:25:53.999Z</time></trkpt><trkpt lat="42.02163758834107" lon="13.066381020758932"><ele>910.0</ele><time>2026-03-29T11:25:55.999Z</time></trkpt><trkpt lat="42.02151895723725" lon="13.066334375719855"><ele>912.2</ele><time>2026-03-29T11:25:57.999Z</time></trkpt><trkpt lat="42.02145834629917" lon="13.066305349226337"><ele>914.4</ele><time>2026-03-29T11:25:58.999Z</time></trkpt><trkpt lat="42.021350020351846" lon="13.066249195338788"><ele>916.5999999999999</ele><time>2026-03-29T11:26:00.999Z</time></trkpt><trkpt lat="42.021231033612814" lon="13.06619725183319"><ele>918.8</ele><time>2026-03-29T11:26:02.999Z</time></trkpt><trkpt lat="42.02116405644207" lon="13.066162310048355"><ele>921.0</ele><time>2026-03-29T11:26:03.999Z</time></trkpt><trkpt lat="42.02109304890571" lon="13.066131334041263"><ele>921.0</ele><time>2026-03-29T11:26:04.999Z</time></trkpt><trkpt lat="42.021021797275324" lon="13.066078524572113"><ele>920.9999999999999</ele><time>2026-03-29T11:26:05.999Z</time></trkpt><trkpt lat="42.02094210322678" lon="13.066029014866162"><ele>920.9999999999999</ele><time>2026-03-29T11:26:06.999Z</time></trkpt><trkpt lat="42.02086131033844" lon="13.065982445960444"><ele>921.0</ele><time>2026-03-29T11:26:07.999Z</time></trkpt><trkpt lat="42.02076987914988" lon="13.065940539499024"><ele>921.0</ele><time>2026-03-29T11:26:08.999Z</time></trkpt><trkpt lat="42.02066934904361" lon="13.06590758621773"><ele>926.0</ele><time>2026-03-29T11:26:09.999Z</time></trkpt><trkpt lat="42.02056790391735" lon="13.065843589603"><ele>931.0</ele><time>2026-03-29T11:26:10.999Z</time></trkpt><trkpt lat="42.02047466764982" lon="13.065751152899864"><ele>936.0</ele><time>2026-03-29T11:26:11.999Z</time></trkpt><trkpt lat="42.02036723759984" lon="13.065655691802244"><ele>941.0</ele><time>2026-03-29T11:26:12.999Z</time></trkpt><trkpt lat="42.02026607020992" lon="13.06554910741917"><ele>941.0</ele><time>2026-03-29T11:26:13.999Z</time></trkpt><trkpt lat="42.020154610356535" lon="13.065439654295094"><ele>941.0</ele><time>2026-03-29T11:26:14.999Z</time></trkpt><trkpt lat="42.020043895727675" lon="13.065346050264688"><ele>941.0</ele><time>2026-03-29T11:26:15.999Z</time></trkpt><trkpt lat="42.019935322498036" lon="13.065268324553013"><ele>941.0</ele><time>2026-03-29T11:26:16.999Z</time></trkpt><trkpt lat="42.01985577011429" lon="13.065190278609515"><ele>946.0</ele><time>2026-03-29T11:26:17.999Z</time></trkpt><trkpt lat="42.01978361061636" lon="13.065112847638092"><ele>950.9999999999999</ele><time>2026-03-29T11:26:18.999Z</time></trkpt><trkpt lat="42.01969987043108" lon="13.065033809720637"><ele>955.9999999999999</ele><time>2026-03-29T11:26:19.999Z</time></trkpt><trkpt lat="42.0196036389943" lon="13.06496875131576"><ele>961.0</ele><time>2026-03-29T11:26:20.999Z</time></trkpt><trkpt lat="42.01950784086027" lon="13.064881764408726"><ele>966.0</ele><time>2026-03-29T11:26:21.999Z</time></trkpt><trkpt lat="42.0194440832216" lon="13.064770827873499"><ele>966.0</ele><time>2026-03-29T11:26:22.999Z</time></trkpt><trkpt lat="42.01938003576033" lon="13.064648858799082"><ele>965.9999999999999</ele><time>2026-03-29T11:26:23.999Z</time></trkpt><trkpt lat="42.01930916652579" lon="13.064539986605196"><ele>965.9999999999999</ele><time>2026-03-29T11:26:24.999Z</time></trkpt><trkpt lat="42.01923293027187" lon="13.06444185883589"><ele>966.0</ele><time>2026-03-29T11:26:25.999Z</time></trkpt><trkpt lat="42.01916767677274" lon="13.064376988858783"><ele>966.0</ele><time>2026-03-29T11:26:26.999Z</time></trkpt><trkpt lat="42.01912293148709" lon="13.064287143781455"><ele>970.8333333333334</ele><time>2026-03-29T11:26:27.999Z</time></trkpt><trkpt lat="42.01906915335575" lon="13.064192879672131"><ele>975.6666666666667</ele><time>2026-03-29T11:26:28.999Z</time></trkpt><trkpt lat="42.01901029325212" lon="13.064106450910737"><ele>980.5</ele><time>2026-03-29T11:26:29.999Z</time></trkpt><trkpt lat="42.01894942881561" lon="13.064019422189238"><ele>985.3333333333334</ele><time>2026-03-29T11:26:30.999Z</time></trkpt><trkpt lat="42.01890570841982" lon="13.06393752542933"><ele>990.1666666666667</ele><time>2026-03-29T11:26:31.999Z</time></trkpt><trkpt lat="42.01886449899072" lon="13.063858255234994"><ele>995.0</ele><time>2026-03-29T11:26:32.999Z</time></trkpt><trkpt lat="42.01880999282123" lon="13.06379209368065"><ele>995.0000000000001</ele><time>2026-03-29T11:26:33.999Z</time></trkpt><trkpt lat="42.01875646454237" lon="13.0636946770423"><ele>995.0</ele><time>2026-03-29T11:26:34.999Z</time></trkpt><trkpt lat="42.01869142336369" lon="13.063622522457456"><ele>995.0</ele><time>2026-03-29T11:26:35.999Z</time></trkpt><trkpt lat="42.01861652753819" lon="13.063556285120905"><ele>995.0</ele><time>2026-03-29T11:26:36.999Z</time></trkpt><trkpt lat="42.01855209227448" lon="13.06350149286578"><ele>995.0000000000001</ele><time>2026-03-29T11:26:37.999Z</time></trkpt><trkpt lat="42.01851115656397" lon="13.063427109867588"><ele>995.0</ele><time>2026-03-29T11:26:39Z</time></trkpt><trkpt lat="42.01846429581752" lon="13.06336460686237"><ele>995.0</ele><time>2026-03-29T11:26:40Z</time></trkpt><trkpt lat="42.01836214256114" lon="13.063297771349228"><ele>995.0</ele><time>2026-03-29T11:26:42Z</time></trkpt><trkpt lat="42.01828122261848" lon="13.063177267962908"><ele>995.0</ele><time>2026-03-29T11:26:44Z</time></trkpt><trkpt lat="42.018233396268116" lon="13.063118981285958"><ele>995.0</ele><time>2026-03-29T11:26:45Z</time></trkpt><trkpt lat="42.01816075470383" lon="13.063050346550085"><ele>995.0</ele><time>2026-03-29T11:26:46Z</time></trkpt><trkpt lat="42.018096218161126" lon="13.06300404485721"><ele>998.0000000000001</ele><time>2026-03-29T11:26:47Z</time></trkpt><trkpt lat="42.018047204842766" lon="13.062947090174394"><ele>1001.0</ele><time>2026-03-29T11:26:48Z</time></trkpt><trkpt lat="42.01800413613091" lon="13.062885035811675"><ele>1004.0</ele><time>2026-03-29T11:26:49Z</time></trkpt><trkpt lat="42.01798571361313" lon="13.062797835101719"><ele>1007.0</ele><time>2026-03-29T11:26:50Z</time></trkpt><trkpt lat="42.0180046774001" lon="13.062648955045056"><ele>1010.0000000000001</ele><time>2026-03-29T11:26:52Z</time></trkpt><trkpt lat="42.01792871953197" lon="13.062562440940505"><ele>1013.0</ele><time>2026-03-29T11:26:54Z</time></trkpt><trkpt lat="42.01781464782376" lon="13.062595468077461"><ele>1013.0</ele><time>2026-03-29T11:26:56Z</time></trkpt><trkpt lat="42.01766438799017" lon="13.062615008024787"><ele>1013.0</ele><time>2026-03-29T11:26:58Z</time></trkpt><trkpt lat="42.01758581177407" lon="13.062604442401021"><ele>1013.0</ele><time>2026-03-29T11:26:59Z</time></trkpt><trkpt lat="42.01750803327545" lon="13.062579574034784"><ele>1013.0</ele><time>2026-03-29T11:27:01Z</time></trkpt><trkpt lat="42.017461497172356" lon="13.06249305678418"><ele>1013.0</ele><time>2026-03-29T11:27:03Z</time></trkpt><trkpt lat="42.01740109933014" lon="13.062420107163835"><ele>1013.3333333333334</ele><time>2026-03-29T11:27:05Z</time></trkpt><trkpt lat="42.017328100773" lon="13.06235591201374"><ele>1013.6666666666667</ele><time>2026-03-29T11:27:07Z</time></trkpt><trkpt lat="42.01724373542498" lon="13.062304341319804"><ele>1014.0</ele><time>2026-03-29T11:27:09Z</time></trkpt><trkpt lat="42.01716494161065" lon="13.062256356249154"><ele>1014.3333333333333</ele><time>2026-03-29T11:27:11Z</time></trkpt><trkpt lat="42.01708734737547" lon="13.062244979270057"><ele>1014.6666666666666</ele><time>2026-03-29T11:28:37.999Z</time></trkpt><trkpt lat="42.01702402650241" lon="13.062216552968412"><ele>1015.0</ele><time>2026-03-29T11:28:39.999Z</time></trkpt><trkpt lat="42.0170655654311" lon="13.062287043655994"><ele>1015.0</ele><time>2026-03-29T11:28:42.999Z</time></trkpt><trkpt lat="42.01703678524511" lon="13.062377497458954"><ele>1015.0</ele><time>2026-03-29T11:28:47Z</time></trkpt><trkpt lat="42.0169212814566" lon="13.062365965641947"><ele>1015.0</ele><time>2026-03-29T11:28:49Z</time></trkpt><trkpt lat="42.016831327757366" lon="13.06237230699415"><ele>1015.0</ele><time>2026-03-29T11:28:50Z</time></trkpt><trkpt lat="42.01672142095395" lon="13.062388983233879"><ele>1015.0</ele><time>2026-03-29T11:28:51Z</time></trkpt><trkpt lat="42.01664521297337" lon="13.062427988870787"><ele>1017.1666666666666</ele><time>2026-03-29T11:28:52Z</time></trkpt><trkpt lat="42.01658214637594" lon="13.062430466420762"><ele>1019.3333333333333</ele><time>2026-03-29T11:28:53Z</time></trkpt><trkpt lat="42.016531518713265" lon="13.062367304338359"><ele>1021.5</ele><time>2026-03-29T11:28:54Z</time></trkpt><trkpt lat="42.016500226365714" lon="13.0622641467291"><ele>1023.6666666666667</ele><time>2026-03-29T11:28:55Z</time></trkpt><trkpt lat="42.01643378198018" lon="13.062212815436425"><ele>1025.8333333333335</ele><time>2026-03-29T11:28:57Z</time></trkpt><trkpt lat="42.01634726763568" lon="13.062246428740767"><ele>1028.0</ele><time>2026-03-29T11:28:59Z</time></trkpt><trkpt lat="42.01632404738328" lon="13.062353810867718"><ele>1029.0</ele><time>2026-03-29T11:29:01Z</time></trkpt><trkpt lat="42.01632867839999" lon="13.062480350868208"><ele>1030.0</ele><time>2026-03-29T11:29:04Z</time></trkpt><trkpt lat="42.01629273766129" lon="13.062561048361749"><ele>1031.0</ele><time>2026-03-29T11:29:06Z</time></trkpt><trkpt lat="42.01626998802206" lon="13.06265997272086"><ele>1032.0</ele><time>2026-03-29T11:29:08Z</time></trkpt><trkpt lat="42.016243206110744" lon="13.062770541585918"><ele>1033.0</ele><time>2026-03-29T11:29:10Z</time></trkpt><trkpt lat="42.016134767589676" lon="13.062974003166907"><ele>1033.0</ele><time>2026-03-29T11:29:13Z</time></trkpt><trkpt lat="42.01605223267676" lon="13.063071074270141"><ele>1033.0</ele><time>2026-03-29T11:29:15Z</time></trkpt><trkpt lat="42.01594136390687" lon="13.063122413204043"><ele>1033.0</ele><time>2026-03-29T11:29:17Z</time></trkpt><trkpt lat="42.01586273462424" lon="13.063156820210471"><ele>1033.0</ele><time>2026-03-29T11:29:18Z</time></trkpt><trkpt lat="42.015791653987584" lon="13.063207157249144"><ele>1033.0</ele><time>2026-03-29T11:29:19Z</time></trkpt><trkpt lat="42.01573659889788" lon="13.063257627151824"><ele>1039.5</ele><time>2026-03-29T11:29:20Z</time></trkpt><trkpt lat="42.01567785776355" lon="13.063346252028868"><ele>1046.0</ele><time>2026-03-29T11:29:22Z</time></trkpt><trkpt lat="42.015625251509405" lon="13.063446607272425"><ele>1052.5</ele><time>2026-03-29T11:29:25Z</time></trkpt><trkpt lat="42.01557824379755" lon="13.06351162783998"><ele>1059.0</ele><time>2026-03-29T11:29:27Z</time></trkpt><trkpt lat="42.01550719812934" lon="13.063559925873074"><ele>1065.5</ele><time>2026-03-29T11:29:30Z</time></trkpt><trkpt lat="42.01547825798391" lon="13.063681977922393"><ele>1072.0</ele><time>2026-03-29T11:29:31Z</time></trkpt><trkpt lat="42.01533048010787" lon="13.063755529766684"><ele>1072.0</ele><time>2026-03-29T11:29:34Z</time></trkpt><trkpt lat="42.01525117377226" lon="13.063824036189772"><ele>1072.0</ele><time>2026-03-29T11:29:36Z</time></trkpt><trkpt lat="42.01519057045303" lon="13.063854557507558"><ele>1072.0</ele><time>2026-03-29T11:29:37Z</time></trkpt><trkpt lat="42.015065021892525" lon="13.063929413653508"><ele>1072.0</ele><time>2026-03-29T11:29:38Z</time></trkpt><trkpt lat="42.014968607106724" lon="13.063982996105649"><ele>1072.0</ele><time>2026-03-29T11:29:39Z</time></trkpt><trkpt lat="42.01488569043547" lon="13.064016970687456"><ele>1075.6666666666665</ele><time>2026-03-29T11:29:40Z</time></trkpt><trkpt lat="42.014800579889396" lon="13.064023832152836"><ele>1079.3333333333333</ele><time>2026-03-29T11:29:41Z</time></trkpt><trkpt lat="42.01472682052059" lon="13.06404309244307"><ele>1083.0</ele><time>2026-03-29T11:29:42Z</time></trkpt><trkpt lat="42.01462535604665" lon="13.06409585954656"><ele>1086.6666666666667</ele><time>2026-03-29T11:29:44Z</time></trkpt><trkpt lat="42.01456587051133" lon="13.064162356706099"><ele>1090.3333333333335</ele><time>2026-03-29T11:29:45Z</time></trkpt><trkpt lat="42.01449284781026" lon="13.064238749459049"><ele>1094.0</ele><time>2026-03-29T11:29:46Z</time></trkpt><trkpt lat="42.014406795614846" lon="13.064307912377274"><ele>1094.1666666666667</ele><time>2026-03-29T11:29:47Z</time></trkpt><trkpt lat="42.01432374710056" lon="13.064384228548846"><ele>1094.3333333333335</ele><time>2026-03-29T11:29:48Z</time></trkpt><trkpt lat="42.01426697419884" lon="13.064484085587628"><ele>1094.5</ele><time>2026-03-29T11:29:49Z</time></trkpt><trkpt lat="42.0142287353089" lon="13.064586103999932"><ele>1094.6666666666667</ele><time>2026-03-29T11:29:50Z</time></trkpt><trkpt lat="42.01422034840902" lon="13.064690473599592"><ele>1094.8333333333333</ele><time>2026-03-29T11:29:51Z</time></trkpt><trkpt lat="42.014252872665544" lon="13.06479262755651"><ele>1095.0</ele><time>2026-03-29T11:29:52Z</time></trkpt><trkpt lat="42.01430228952373" lon="13.064894378180893"><ele>1095.0</ele><time>2026-03-29T11:29:54Z</time></trkpt><trkpt lat="42.01428288936587" lon="13.06499389980287"><ele>1095.0</ele><time>2026-03-29T11:29:55Z</time></trkpt><trkpt lat="42.014219881874695" lon="13.064928056200367"><ele>1095.0</ele><time>2026-03-29T11:30:03.999Z</time></trkpt><trkpt lat="42.01416064142224" lon="13.064977276334675"><ele>1095.0</ele><time>2026-03-29T11:30:06.999Z</time></trkpt><trkpt lat="42.01407597924306" lon="13.065033497449196"><ele>1095.0</ele><time>2026-03-29T11:30:08.999Z</time></trkpt><trkpt lat="42.014018778449625" lon="13.065129875115494"><ele>1095.0</ele><time>2026-03-29T11:30:10.999Z</time></trkpt><trkpt lat="42.01402663905037" lon="13.065287840931376"><ele>1093.6</ele><time>2026-03-29T11:30:12.999Z</time></trkpt><trkpt lat="42.01400448990855" lon="13.06544730093209"><ele>1092.2</ele><time>2026-03-29T11:30:14.999Z</time></trkpt><trkpt lat="42.01397697587501" lon="13.065526835293342"><ele>1090.8</ele><time>2026-03-29T11:30:15.999Z</time></trkpt><trkpt lat="42.01392217274157" lon="13.065625379898751"><ele>1089.4</ele><time>2026-03-29T11:30:16.999Z</time></trkpt><trkpt lat="42.01385136537827" lon="13.065722794451458"><ele>1088.0</ele><time>2026-03-29T11:30:17.999Z</time></trkpt><trkpt lat="42.01378715017483" lon="13.065824553326745"><ele>1087.5</ele><time>2026-03-29T11:30:18.999Z</time></trkpt><trkpt lat="42.01373412107935" lon="13.065904581238629"><ele>1087.0</ele><time>2026-03-29T11:30:19.999Z</time></trkpt><trkpt lat="42.0136896661361" lon="13.065971753283378"><ele>1086.5</ele><time>2026-03-29T11:30:20.999Z</time></trkpt><trkpt lat="42.01364301930264" lon="13.066044091854893"><ele>1086.0</ele><time>2026-03-29T11:30:22.999Z</time></trkpt><trkpt lat="42.01364918730147" lon="13.066142915172769"><ele>1085.5</ele><time>2026-03-29T11:30:25.999Z</time></trkpt><trkpt lat="42.013670103633075" lon="13.066259273233443"><ele>1085.0</ele><time>2026-03-29T11:30:27.999Z</time></trkpt><trkpt lat="42.013670654738" lon="13.06636581056144"><ele>1085.0</ele><time>2026-03-29T11:30:28.999Z</time></trkpt><trkpt lat="42.013566450915235" lon="13.066505694989887"><ele>1085.0</ele><time>2026-03-29T11:30:30.999Z</time></trkpt><trkpt lat="42.01345749687695" lon="13.066560586854546"><ele>1085.0</ele><time>2026-03-29T11:30:31.999Z</time></trkpt><trkpt lat="42.013314339924754" lon="13.066622633741721"><ele>1085.0</ele><time>2026-03-29T11:30:32.999Z</time></trkpt><trkpt lat="42.013175023431735" lon="13.066709231546625"><ele>1087.75</ele><time>2026-03-29T11:30:33.999Z</time></trkpt><trkpt lat="42.01306909314862" lon="13.066774725633781"><ele>1090.5</ele><time>2026-03-29T11:30:34.999Z</time></trkpt><trkpt lat="42.012958916886575" lon="13.066860360256781"><ele>1093.25</ele><time>2026-03-29T11:30:35.999Z</time></trkpt><trkpt lat="42.01285304986447" lon="13.066950113551774"><ele>1096.0</ele><time>2026-03-29T11:30:36.999Z</time></trkpt><trkpt lat="42.012752596981" lon="13.067068129568561"><ele>1096.0</ele><time>2026-03-29T11:30:37.999Z</time></trkpt><trkpt lat="42.01266866935964" lon="13.067192294850424"><ele>1096.0</ele><time>2026-03-29T11:30:38.999Z</time></trkpt><trkpt lat="42.01258661765827" lon="13.067326451200556"><ele>1096.0</ele><time>2026-03-29T11:30:39.999Z</time></trkpt><trkpt lat="42.012530615139134" lon="13.067416554203007"><ele>1096.0</ele><time>2026-03-29T11:30:40.999Z</time></trkpt><trkpt lat="42.012469583814756" lon="13.067472868303254"><ele>1096.0</ele><time>2026-03-29T11:30:41.999Z</time></trkpt><trkpt lat="42.0123857321938" lon="13.067506052631"><ele>1096.1666666666665</ele><time>2026-03-29T11:30:42.999Z</time></trkpt><trkpt lat="42.01229550446121" lon="13.067532976896526"><ele>1096.3333333333333</ele><time>2026-03-29T11:30:43.999Z</time></trkpt><trkpt lat="42.012215442528905" lon="13.067559727429572"><ele>1096.5</ele><time>2026-03-29T11:30:44.999Z</time></trkpt><trkpt lat="42.01215863417459" lon="13.067614107799885"><ele>1096.6666666666667</ele><time>2026-03-29T11:30:45.999Z</time></trkpt><trkpt lat="42.01209764367582" lon="13.0676980126752"><ele>1096.8333333333335</ele><time>2026-03-29T11:30:46.999Z</time></trkpt><trkpt lat="42.01203658132601" lon="13.067815453257785"><ele>1097.0</ele><time>2026-03-29T11:30:47.999Z</time></trkpt><trkpt lat="42.01199359880466" lon="13.067928038590823"><ele>1097.0</ele><time>2026-03-29T11:30:48.999Z</time></trkpt><trkpt lat="42.01197473811117" lon="13.068088115731832"><ele>1097.0</ele><time>2026-03-29T11:30:50Z</time></trkpt><trkpt lat="42.01192880699636" lon="13.068235420629344"><ele>1097.0</ele><time>2026-03-29T11:30:51Z</time></trkpt><trkpt lat="42.01188033824739" lon="13.068369836615602"><ele>1097.0</ele><time>2026-03-29T11:30:52Z</time></trkpt><trkpt lat="42.01184845775893" lon="13.068480996007061"><ele>1097.0</ele><time>2026-03-29T11:30:53Z</time></trkpt><trkpt lat="42.011828742962024" lon="13.068566932417044"><ele>1097.1666666666667</ele><time>2026-03-29T11:30:54Z</time></trkpt><trkpt lat="42.01183428974999" lon="13.06865871004551"><ele>1097.3333333333335</ele><time>2026-03-29T11:30:55Z</time></trkpt><trkpt lat="42.01183830525397" lon="13.06878521518316"><ele>1097.5</ele><time>2026-03-29T11:30:56Z</time></trkpt><trkpt lat="42.01181340095881" lon="13.068927101874802"><ele>1097.6666666666667</ele><time>2026-03-29T11:30:57Z</time></trkpt><trkpt lat="42.01179672046616" lon="13.069050393828986"><ele>1097.8333333333333</ele><time>2026-03-29T11:30:58Z</time></trkpt><trkpt lat="42.01177762454959" lon="13.069144850743374"><ele>1098.0</ele><time>2026-03-29T11:30:59Z</time></trkpt><trkpt lat="42.0117324284525" lon="13.069274122124588"><ele>1098.0</ele><time>2026-03-29T11:31:01Z</time></trkpt><trkpt lat="42.01172031704776" lon="13.069359672317233"><ele>1098.0</ele><time>2026-03-29T11:31:02Z</time></trkpt><trkpt lat="42.01173475214055" lon="13.06950749264274"><ele>1098.0</ele><time>2026-03-29T11:31:04Z</time></trkpt><trkpt lat="42.011729975330866" lon="13.069682600119398"><ele>1098.0</ele><time>2026-03-29T11:31:06Z</time></trkpt><trkpt lat="42.01171070516924" lon="13.069811870795009"><ele>1098.0</ele><time>2026-03-29T11:31:07Z</time></trkpt><trkpt lat="42.011680466984934" lon="13.069957011371669"><ele>1098.4</ele><time>2026-03-29T11:31:08Z</time></trkpt><trkpt lat="42.01166191150623" lon="13.070107349966914"><ele>1098.8</ele><time>2026-03-29T11:31:09Z</time></trkpt><trkpt lat="42.01164624930714" lon="13.07025389706807"><ele>1099.2</ele><time>2026-03-29T11:31:10Z</time></trkpt><trkpt lat="42.01163194138278" lon="13.070384076106537"><ele>1099.6</ele><time>2026-03-29T11:31:11Z</time></trkpt><trkpt lat="42.011611577526914" lon="13.070522526406691"><ele>1100.0</ele><time>2026-03-29T11:31:12Z</time></trkpt><trkpt lat="42.01158981678709" lon="13.070658181026579"><ele>1100.0</ele><time>2026-03-29T11:31:13Z</time></trkpt><trkpt lat="42.011593512945915" lon="13.07077028368611"><ele>1100.0</ele><time>2026-03-29T11:31:14Z</time></trkpt><trkpt lat="42.01161724914343" lon="13.07086768122803"><ele>1100.0</ele><time>2026-03-29T11:31:15Z</time></trkpt><trkpt lat="42.01161519164214" lon="13.070955042511683"><ele>1100.0</ele><time>2026-03-29T11:31:16Z</time></trkpt><trkpt lat="42.01163087377918" lon="13.07106669143664"><ele>1100.0</ele><time>2026-03-29T11:31:18Z</time></trkpt><trkpt lat="42.0117046943803" lon="13.071127567885146"><ele>1100.0</ele><time>2026-03-29T11:31:20Z</time></trkpt><trkpt lat="42.01177931860817" lon="13.071208021075796"><ele>1100.0</ele><time>2026-03-29T11:31:22Z</time></trkpt><trkpt lat="42.01179817212575" lon="13.07134225910718"><ele>1100.0</ele><time>2026-03-29T11:31:24Z</time></trkpt><trkpt lat="42.011843192189524" lon="13.071478475494583"><ele>1100.0</ele><time>2026-03-29T11:31:26Z</time></trkpt><trkpt lat="42.01189004261887" lon="13.071639693103718"><ele>1100.0</ele><time>2026-03-29T11:31:28Z</time></trkpt><trkpt lat="42.011905634188274" lon="13.07173331062629"><ele>1100.0</ele><time>2026-03-29T11:31:29Z</time></trkpt><trkpt lat="42.011916020433425" lon="13.07181764280701"><ele>1100.3333333333335</ele><time>2026-03-29T11:31:30Z</time></trkpt><trkpt lat="42.011934114837466" lon="13.071911400164145"><ele>1100.6666666666667</ele><time>2026-03-29T11:31:31Z</time></trkpt><trkpt lat="42.0119403605823" lon="13.072010899270845"><ele>1101.0</ele><time>2026-03-29T11:31:32Z</time></trkpt><trkpt lat="42.011943125108054" lon="13.07211491565951"><ele>1101.3333333333333</ele><time>2026-03-29T11:31:33Z</time></trkpt><trkpt lat="42.01197888848939" lon="13.072231395551682"><ele>1101.6666666666665</ele><time>2026-03-29T11:31:35Z</time></trkpt><trkpt lat="42.01208463093995" lon="13.072217099813004"><ele>1102.0</ele><time>2026-03-29T11:31:37Z</time></trkpt><trkpt lat="42.012183653652514" lon="13.072260706989994"><ele>1102.0</ele><time>2026-03-29T11:31:39Z</time></trkpt><trkpt lat="42.01229012295951" lon="13.07231396522188"><ele>1102.0</ele><time>2026-03-29T11:31:41Z</time></trkpt><trkpt lat="42.01237408378798" lon="13.072358470745852"><ele>1102.0</ele><time>2026-03-29T11:31:43Z</time></trkpt><trkpt lat="42.01246185623326" lon="13.072365943493592"><ele>1102.0</ele><time>2026-03-29T11:31:45Z</time></trkpt><trkpt lat="42.012553169516906" lon="13.072397678025133"><ele>1102.0</ele><time>2026-03-29T11:31:48Z</time></trkpt><trkpt lat="42.012627051701294" lon="13.072488128232463"><ele>1099.0</ele><time>2026-03-29T11:31:50Z</time></trkpt><trkpt lat="42.01267479635988" lon="13.072554334415436"><ele>1096.0</ele><time>2026-03-29T11:31:52Z</time></trkpt><trkpt lat="42.01272433206686" lon="13.072638389533985"><ele>1093.0</ele><time>2026-03-29T11:31:54Z</time></trkpt><trkpt lat="42.012772514088915" lon="13.072730400934347"><ele>1090.0</ele><time>2026-03-29T11:31:56Z</time></trkpt><trkpt lat="42.01281625732249" lon="13.072794791294905"><ele>1087.0</ele><time>2026-03-29T11:31:59.999Z</time></trkpt><trkpt lat="42.01286420542738" lon="13.072922184809123"><ele>1084.0</ele><time>2026-03-29T11:32:01.999Z</time></trkpt><trkpt lat="42.01287390813494" lon="13.073023939804887"><ele>1084.0</ele><time>2026-03-29T11:32:02.999Z</time></trkpt><trkpt lat="42.01294699749996" lon="13.073137233516775"><ele>1084.0</ele><time>2026-03-29T11:32:04.999Z</time></trkpt><trkpt lat="42.013023406788285" lon="13.073176263744335"><ele>1084.0</ele><time>2026-03-29T11:32:06.999Z</time></trkpt><trkpt lat="42.013092175002775" lon="13.073250791490418"><ele>1084.0</ele><time>2026-03-29T11:32:10.999Z</time></trkpt><trkpt lat="42.013172853899576" lon="13.073306488911571"><ele>1084.0</ele><time>2026-03-29T11:32:12.999Z</time></trkpt><trkpt lat="42.01323594540821" lon="13.073406391234672"><ele>1085.0</ele><time>2026-03-29T11:32:14.999Z</time></trkpt><trkpt lat="42.013285550428066" lon="13.07357492212035"><ele>1086.0</ele><time>2026-03-29T11:32:16.999Z</time></trkpt><trkpt lat="42.01333920586673" lon="13.073650939141691"><ele>1087.0</ele><time>2026-03-29T11:32:17.999Z</time></trkpt><trkpt lat="42.01335981143473" lon="13.073784285040263"><ele>1088.0</ele><time>2026-03-29T11:32:19.999Z</time></trkpt><trkpt lat="42.013354195356314" lon="13.073930670621174"><ele>1089.0</ele><time>2026-03-29T11:32:21.999Z</time></trkpt><trkpt lat="42.01336150991485" lon="13.07403586261249"><ele>1082.4</ele><time>2026-03-29T11:32:24.999Z</time></trkpt><trkpt lat="42.01337217626109" lon="13.074206229456061"><ele>1075.8000000000002</ele><time>2026-03-29T11:32:26.999Z</time></trkpt><trkpt lat="42.01344165757779" lon="13.074285285859364"><ele>1069.1999999999998</ele><time>2026-03-29T11:32:29.999Z</time></trkpt><trkpt lat="42.01348556194439" lon="13.074389157026424"><ele>1062.6</ele><time>2026-03-29T11:32:31.999Z</time></trkpt><trkpt lat="42.013545432458834" lon="13.074497501188494"><ele>1056.0</ele><time>2026-03-29T11:32:33.999Z</time></trkpt><trkpt lat="42.01361567042935" lon="13.07455494403989"><ele>1056.0</ele><time>2026-03-29T11:32:35.999Z</time></trkpt><trkpt lat="42.01365633169864" lon="13.074633951716773"><ele>1056.0</ele><time>2026-03-29T11:32:36.999Z</time></trkpt><trkpt lat="42.013769858093255" lon="13.074705398070558"><ele>1056.0</ele><time>2026-03-29T11:32:38.999Z</time></trkpt><trkpt lat="42.0138775615996" lon="13.074691007778988"><ele>1056.0</ele><time>2026-03-29T11:32:40.999Z</time></trkpt><trkpt lat="42.013940419206676" lon="13.07467548047712"><ele>1056.0</ele><time>2026-03-29T11:32:42.999Z</time></trkpt><trkpt lat="42.014021020722076" lon="13.074707231358127"><ele>1056.0</ele><time>2026-03-29T11:32:45.999Z</time></trkpt><trkpt lat="42.01411122190022" lon="13.074739448635158"><ele>1056.0</ele><time>2026-03-29T11:32:48.999Z</time></trkpt><trkpt lat="42.014186444680874" lon="13.074715900286586"><ele>1056.0</ele><time>2026-03-29T11:32:50.999Z</time></trkpt><trkpt lat="42.01425350542428" lon="13.074718853464681"><ele>1056.0</ele><time>2026-03-29T11:32:52.999Z</time></trkpt><trkpt lat="42.01432539752485" lon="13.074736533201543"><ele>1056.0</ele><time>2026-03-29T11:32:57Z</time></trkpt><trkpt lat="42.01439932133558" lon="13.074782727074782"><ele>1056.0</ele><time>2026-03-29T11:33:00Z</time></trkpt><trkpt lat="42.01448639442215" lon="13.074798383693459"><ele>1054.1666666666667</ele><time>2026-03-29T11:33:03Z</time></trkpt><trkpt lat="42.01456014069992" lon="13.074860264809796"><ele>1052.3333333333333</ele><time>2026-03-29T11:33:06Z</time></trkpt><trkpt lat="42.0146309063413" lon="13.0748625621407"><ele>1050.5</ele><time>2026-03-29T11:33:09Z</time></trkpt><trkpt lat="42.01471048183366" lon="13.074870817288197"><ele>1048.6666666666665</ele><time>2026-03-29T11:33:11Z</time></trkpt><trkpt lat="42.01479355414544" lon="13.074900901290917"><ele>1046.8333333333333</ele><time>2026-03-29T11:33:13Z</time></trkpt><trkpt lat="42.01485958414631" lon="13.074937309710569"><ele>1045.0</ele><time>2026-03-29T11:33:15Z</time></trkpt><trkpt lat="42.01492738468175" lon="13.074976581272457"><ele>1038.6666666666665</ele><time>2026-03-29T11:33:18Z</time></trkpt><trkpt lat="42.01500196166003" lon="13.075036302293576"><ele>1032.3333333333333</ele><time>2026-03-29T11:33:23Z</time></trkpt><trkpt lat="42.01507222170783" lon="13.075076729273217"><ele>1026.0</ele><time>2026-03-29T11:33:28Z</time></trkpt><trkpt lat="42.01515604169032" lon="13.0751002293485"><ele>1019.6666666666667</ele><time>2026-03-29T11:33:32Z</time></trkpt><trkpt lat="42.015215561197486" lon="13.075140114888029"><ele>1013.3333333333334</ele><time>2026-03-29T11:33:36Z</time></trkpt><trkpt lat="42.01528036190825" lon="13.075177954096823"><ele>1007.0</ele><time>2026-03-29T11:33:44Z</time></trkpt><trkpt lat="42.01535385712917" lon="13.075212085271847"><ele>1007.0</ele><time>2026-03-29T11:33:51Z</time></trkpt><trkpt lat="42.01541272312848" lon="13.075251345881723"><ele>1007.0</ele><time>2026-03-29T11:33:55Z</time></trkpt><trkpt lat="42.015471918833114" lon="13.07528616410377"><ele>1007.0</ele><time>2026-03-29T11:33:59Z</time></trkpt><trkpt lat="42.01553559006816" lon="13.075283258243944"><ele>1007.0</ele><time>2026-03-29T11:34:04.999Z</time></trkpt><trkpt lat="42.0156165930295" lon="13.075273694845164"><ele>1007.0</ele><time>2026-03-29T11:34:07.999Z</time></trkpt><trkpt lat="42.01568914334508" lon="13.075341533544444"><ele>1007.0</ele><time>2026-03-29T11:34:10.999Z</time></trkpt><trkpt lat="42.01574294763764" lon="13.075422004574898"><ele>1007.0</ele><time>2026-03-29T11:34:14.999Z</time></trkpt><trkpt lat="42.015757183697445" lon="13.07550979231408"><ele>1007.0000000000001</ele><time>2026-03-29T11:34:16.999Z</time></trkpt><trkpt lat="42.015802443787564" lon="13.075577706315693"><ele>1007.0</ele><time>2026-03-29T11:34:18.999Z</time></trkpt><trkpt lat="42.01585123611504" lon="13.075663132542358"><ele>1007.0</ele><time>2026-03-29T11:34:22.999Z</time></trkpt><trkpt lat="42.01589287449431" lon="13.075763963674184"><ele>1007.0</ele><time>2026-03-29T11:34:26.999Z</time></trkpt><trkpt lat="42.01595063636156" lon="13.075861227496775"><ele>1007.0000000000001</ele><time>2026-03-29T11:34:28.999Z</time></trkpt><trkpt lat="42.01597351158417" lon="13.075954401679683"><ele>1007.0</ele><time>2026-03-29T11:34:30.999Z</time></trkpt><trkpt lat="42.016013591164025" lon="13.076047266058698"><ele>1002.1428571428571</ele><time>2026-03-29T11:34:33.999Z</time></trkpt><trkpt lat="42.016047620192694" lon="13.076118741022645"><ele>997.2857142857143</ele><time>2026-03-29T11:34:35.999Z</time></trkpt><trkpt lat="42.01609673982317" lon="13.076196719874167"><ele>992.4285714285714</ele><time>2026-03-29T11:34:38.999Z</time></trkpt><trkpt lat="42.01611584872649" lon="13.07630178837917"><ele>987.5714285714286</ele><time>2026-03-29T11:34:42.999Z</time></trkpt><trkpt lat="42.01615520740097" lon="13.076372051083558"><ele>982.7142857142858</ele><time>2026-03-29T11:34:44.999Z</time></trkpt><trkpt lat="42.016183111012765" lon="13.076488888472708"><ele>977.8571428571429</ele><time>2026-03-29T11:34:47.999Z</time></trkpt><trkpt lat="42.0162115329047" lon="13.076577636491043"><ele>973.0</ele><time>2026-03-29T11:34:50.999Z</time></trkpt><trkpt lat="42.01628362085471" lon="13.076603771049674"><ele>973.0</ele><time>2026-03-29T11:34:54.999Z</time></trkpt><trkpt lat="42.01635474813292" lon="13.076614514816468"><ele>973.0</ele><time>2026-03-29T11:34:57.999Z</time></trkpt><trkpt lat="42.01642752639435" lon="13.076606907082382"><ele>973.0</ele><time>2026-03-29T11:35:01Z</time></trkpt><trkpt lat="42.016458908882896" lon="13.076533073981235"><ele>973.0</ele><time>2026-03-29T11:35:03Z</time></trkpt><trkpt lat="42.01650032156861" lon="13.076448272068085"><ele>973.0</ele><time>2026-03-29T11:35:06Z</time></trkpt><trkpt lat="42.016561795868256" lon="13.076418370591847"><ele>973.0</ele><time>2026-03-29T11:35:10Z</time></trkpt><trkpt lat="42.016594444617716" lon="13.076516028700826"><ele>973.0</ele><time>2026-03-29T11:35:13Z</time></trkpt><trkpt lat="42.016626083321626" lon="13.076604504376274"><ele>965.8333333333333</ele><time>2026-03-29T11:35:17Z</time></trkpt><trkpt lat="42.01667490715983" lon="13.076672227475722"><ele>958.6666666666666</ele><time>2026-03-29T11:35:21Z</time></trkpt><trkpt lat="42.01676969243085" lon="13.076663128145961"><ele>951.5</ele><time>2026-03-29T11:35:24Z</time></trkpt><trkpt lat="42.01681979771956" lon="13.076737045704746"><ele>944.3333333333333</ele><time>2026-03-29T11:35:26Z</time></trkpt><trkpt lat="42.01689083637946" lon="13.076822487737271"><ele>937.1666666666666</ele><time>2026-03-29T11:35:28Z</time></trkpt><trkpt lat="42.016972694286956" lon="13.076886913967483"><ele>930.0</ele><time>2026-03-29T11:35:30Z</time></trkpt><trkpt lat="42.01705281754075" lon="13.076901217936589"><ele>930.0</ele><time>2026-03-29T11:35:32Z</time></trkpt><trkpt lat="42.01713107487735" lon="13.076914393446133"><ele>930.0</ele><time>2026-03-29T11:35:34Z</time></trkpt><trkpt lat="42.0172075517439" lon="13.076936311124209"><ele>930.0</ele><time>2026-03-29T11:35:36Z</time></trkpt><trkpt lat="42.017277393807305" lon="13.076990336458323"><ele>930.0</ele><time>2026-03-29T11:35:38Z</time></trkpt><trkpt lat="42.01735215023658" lon="13.07703264856531"><ele>930.0</ele><time>2026-03-29T11:35:40Z</time></trkpt><trkpt lat="42.017405746440275" lon="13.07710905280755"><ele>930.0</ele><time>2026-03-29T11:35:42Z</time></trkpt><trkpt lat="42.01746464499477" lon="13.077193387141477"><ele>924.5</ele><time>2026-03-29T11:35:44Z</time></trkpt><trkpt lat="42.01752905595204" lon="13.07721973193954"><ele>919.0</ele><time>2026-03-29T11:35:45Z</time></trkpt><trkpt lat="42.01758435916786" lon="13.077316500629852"><ele>913.5</ele><time>2026-03-29T11:35:47Z</time></trkpt><trkpt lat="42.01765101959606" lon="13.077349441022385"><ele>908.0</ele><time>2026-03-29T11:35:49Z</time></trkpt><trkpt lat="42.017728225840095" lon="13.07732834851054"><ele>902.5</ele><time>2026-03-29T11:35:51Z</time></trkpt><trkpt lat="42.017816287562574" lon="13.077355520992981"><ele>897.0</ele><time>2026-03-29T11:35:53Z</time></trkpt><trkpt lat="42.017917906475795" lon="13.07734699439054"><ele>897.0</ele><time>2026-03-29T11:35:55Z</time></trkpt><trkpt lat="42.01800763449083" lon="13.07737739462091"><ele>897.0</ele><time>2026-03-29T11:35:57Z</time></trkpt><trkpt lat="42.01808402262361" lon="13.077408366022093"><ele>897.0</ele><time>2026-03-29T11:35:59Z</time></trkpt><trkpt lat="42.0181645686032" lon="13.077389793912142"><ele>897.0</ele><time>2026-03-29T11:36:01Z</time></trkpt><trkpt lat="42.01823536954536" lon="13.077378811538642"><ele>897.0</ele><time>2026-03-29T11:36:03Z</time></trkpt><trkpt lat="42.01832911621398" lon="13.077333392789074"><ele>897.0</ele><time>2026-03-29T11:36:04.999Z</time></trkpt><trkpt lat="42.01841708974803" lon="13.077344586483107"><ele>889.6</ele><time>2026-03-29T11:36:06.999Z</time></trkpt><trkpt lat="42.018503523749125" lon="13.077327962114236"><ele>882.2</ele><time>2026-03-29T11:36:08.999Z</time></trkpt><trkpt lat="42.01860370814992" lon="13.077316115511563"><ele>874.8</ele><time>2026-03-29T11:36:10.999Z</time></trkpt><trkpt lat="42.018684218405575" lon="13.07728967109331"><ele>867.4</ele><time>2026-03-29T11:36:12.999Z</time></trkpt><trkpt lat="42.01879512623305" lon="13.077312153515361"><ele>860.0</ele><time>2026-03-29T11:36:14.999Z</time></trkpt><trkpt lat="42.01889093960044" lon="13.07732581069687"><ele>860.0000000000001</ele><time>2026-03-29T11:36:16.999Z</time></trkpt><trkpt lat="42.01896872776445" lon="13.07730483827259"><ele>860.0</ele><time>2026-03-29T11:36:18.999Z</time></trkpt><trkpt lat="42.01904629685437" lon="13.077309860199664"><ele>860.0</ele><time>2026-03-29T11:36:20.999Z</time></trkpt><trkpt lat="42.01912508424086" lon="13.077317037624864"><ele>860.0</ele><time>2026-03-29T11:36:22.999Z</time></trkpt><trkpt lat="42.01919219955431" lon="13.077339387081038"><ele>860.0000000000001</ele><time>2026-03-29T11:36:24.999Z</time></trkpt><trkpt lat="42.0192660357485" lon="13.077418522201754"><ele>860.0</ele><time>2026-03-29T11:36:26.999Z</time></trkpt><trkpt lat="42.01931151787442" lon="13.077479015225453"><ele>859.2</ele><time>2026-03-29T11:36:27.999Z</time></trkpt><trkpt lat="42.019380165852226" lon="13.077613261452006"><ele>858.4</ele><time>2026-03-29T11:36:29.999Z</time></trkpt><trkpt lat="42.01944381188104" lon="13.077707594209995"><ele>857.5999999999999</ele><time>2026-03-29T11:36:31.999Z</time></trkpt><trkpt lat="42.019497626237204" lon="13.077775855485635"><ele>856.8</ele><time>2026-03-29T11:36:33.999Z</time></trkpt><trkpt lat="42.01955308724327" lon="13.07785622716679"><ele>856.0</ele><time>2026-03-29T11:36:35.999Z</time></trkpt><trkpt lat="42.0196284676197" lon="13.077936857881705"><ele>855.9999999999999</ele><time>2026-03-29T11:36:38.999Z</time></trkpt><trkpt lat="42.01972372300194" lon="13.0780424850322"><ele>856.0</ele><time>2026-03-29T11:36:40.999Z</time></trkpt><trkpt lat="42.019786751128834" lon="13.078088405529297"><ele>856.0</ele><time>2026-03-29T11:36:41.999Z</time></trkpt><trkpt lat="42.01985807877846" lon="13.078166379061477"><ele>856.0</ele><time>2026-03-29T11:36:43.999Z</time></trkpt><trkpt lat="42.01990521687795" lon="13.07827040569432"><ele>855.9999999999999</ele><time>2026-03-29T11:36:45.999Z</time></trkpt><trkpt lat="42.01994847327107" lon="13.078332474136383"><ele>856.0</ele><time>2026-03-29T11:36:47.999Z</time></trkpt><trkpt lat="42.01999840051923" lon="13.078402955953903"><ele>852.8333333333333</ele><time>2026-03-29T11:36:49.999Z</time></trkpt><trkpt lat="42.02003685003643" lon="13.078482515782639"><ele>849.6666666666666</ele><time>2026-03-29T11:36:51.999Z</time></trkpt><trkpt lat="42.02010344558982" lon="13.078501407096788"><ele>846.5</ele><time>2026-03-29T11:36:53.999Z</time></trkpt><trkpt lat="42.02017635872664" lon="13.07853889203873"><ele>843.3333333333333</ele><time>2026-03-29T11:36:55.999Z</time></trkpt><trkpt lat="42.020220938725785" lon="13.078605110445585"><ele>840.1666666666666</ele><time>2026-03-29T11:36:57.999Z</time></trkpt><trkpt lat="42.020284827957546" lon="13.078691122966386"><ele>837.0</ele><time>2026-03-29T11:37:27Z</time></trkpt><trkpt lat="42.02034171638754" lon="13.078791246069517"><ele>837.0</ele><time>2026-03-29T11:37:29Z</time></trkpt><trkpt lat="42.020407056384016" lon="13.078854896508354"><ele>837.0</ele><time>2026-03-29T11:37:31Z</time></trkpt><trkpt lat="42.02047620653193" lon="13.078897498419506"><ele>837.0</ele><time>2026-03-29T11:37:33Z</time></trkpt><trkpt lat="42.020545638818255" lon="13.079000454289506"><ele>837.0</ele><time>2026-03-29T11:37:35Z</time></trkpt><trkpt lat="42.020645433240176" lon="13.079068658248591"><ele>837.0</ele><time>2026-03-29T11:37:37Z</time></trkpt><trkpt lat="42.02073710630126" lon="13.079113313034876"><ele>840.4000000000001</ele><time>2026-03-29T11:37:39Z</time></trkpt><trkpt lat="42.020784001538615" lon="13.079176408789316"><ele>843.8000000000001</ele><time>2026-03-29T11:37:41Z</time></trkpt><trkpt lat="42.020765130522584" lon="13.079309254791818"><ele>847.2</ele><time>2026-03-29T11:37:44Z</time></trkpt><trkpt lat="42.02079638896554" lon="13.07946758712487"><ele>850.6</ele><time>2026-03-29T11:37:46Z</time></trkpt><trkpt lat="42.02083242747712" lon="13.079611852661207"><ele>854.0</ele><time>2026-03-29T11:37:48Z</time></trkpt><trkpt lat="42.020836351425814" lon="13.079736832305281"><ele>858.25</ele><time>2026-03-29T11:37:50Z</time></trkpt><trkpt lat="42.02084458120067" lon="13.079827661267256"><ele>862.5</ele><time>2026-03-29T11:37:52Z</time></trkpt><trkpt lat="42.020831223989184" lon="13.07993724221694"><ele>866.75</ele><time>2026-03-29T11:37:54Z</time></trkpt><trkpt lat="42.020820137570205" lon="13.08005168344856"><ele>871.0</ele><time>2026-03-29T11:37:56Z</time></trkpt><trkpt lat="42.02081014357447" lon="13.080370356049837"><ele>865.9999999999999</ele><time>2026-03-29T11:38:01Z</time></trkpt><trkpt lat="42.020851427463924" lon="13.080448009329558"><ele>861.0</ele><time>2026-03-29T11:38:02Z</time></trkpt><trkpt lat="42.020911017540335" lon="13.080531788416412"><ele>856.0</ele><time>2026-03-29T11:38:03Z</time></trkpt><trkpt lat="42.020995355675375" lon="13.080615656297534"><ele>851.0</ele><time>2026-03-29T11:38:03.999Z</time></trkpt><trkpt lat="42.02105967236046" lon="13.080689908411724"><ele>845.9999999999999</ele><time>2026-03-29T11:38:04.999Z</time></trkpt><trkpt lat="42.02111707545953" lon="13.080742467684152"><ele>841.0</ele><time>2026-03-29T11:38:05.999Z</time></trkpt><trkpt lat="42.02120314766625" lon="13.080842267147313"><ele>841.0</ele><time>2026-03-29T11:38:07.999Z</time></trkpt><trkpt lat="42.02125792618696" lon="13.080902090596597"><ele>841.0</ele><time>2026-03-29T11:38:09.999Z</time></trkpt><trkpt lat="42.021332918503" lon="13.081024906348915"><ele>841.0</ele><time>2026-03-29T11:38:11.999Z</time></trkpt><trkpt lat="42.02138634087374" lon="13.081125937495486"><ele>841.0</ele><time>2026-03-29T11:38:13.999Z</time></trkpt><trkpt lat="42.02142336596881" lon="13.081240384436335"><ele>841.0</ele><time>2026-03-29T11:38:15.999Z</time></trkpt><trkpt lat="42.02142534276669" lon="13.081401382806712"><ele>841.0</ele><time>2026-03-29T11:38:17.999Z</time></trkpt><trkpt lat="42.02147395308275" lon="13.081481318988336"><ele>841.0</ele><time>2026-03-29T11:38:18.999Z</time></trkpt><trkpt lat="42.02151641316166" lon="13.081631069991811"><ele>841.0</ele><time>2026-03-29T11:38:20.999Z</time></trkpt><trkpt lat="42.0215676486097" lon="13.081757980317995"><ele>841.0</ele><time>2026-03-29T11:38:22.999Z</time></trkpt><trkpt lat="42.02160876317263" lon="13.081869462857014"><ele>841.0</ele><time>2026-03-29T11:38:24.999Z</time></trkpt><trkpt lat="42.02165441481981" lon="13.08202748862012"><ele>836.5999999999999</ele><time>2026-03-29T11:38:26.999Z</time></trkpt><trkpt lat="42.02168682332492" lon="13.082106876638825"><ele>832.2</ele><time>2026-03-29T11:38:27.999Z</time></trkpt><trkpt lat="42.02170296295399" lon="13.082221024807499"><ele>827.8</ele><time>2026-03-29T11:38:29.999Z</time></trkpt><trkpt lat="42.02169319894158" lon="13.082359835450875"><ele>823.4000000000001</ele><time>2026-03-29T11:38:31.999Z</time></trkpt><trkpt lat="42.02171258332118" lon="13.082509807037034"><ele>819.0</ele><time>2026-03-29T11:38:33.999Z</time></trkpt><trkpt lat="42.02175274520989" lon="13.08262063596001"><ele>819.0</ele><time>2026-03-29T11:38:35.999Z</time></trkpt><trkpt lat="42.02180850565443" lon="13.082708718999646"><ele>819.0</ele><time>2026-03-29T11:38:38.999Z</time></trkpt><trkpt lat="42.02185776011458" lon="13.082842771239354"><ele>819.0</ele><time>2026-03-29T11:38:40.999Z</time></trkpt><trkpt lat="42.02190734771627" lon="13.082895311817026"><ele>819.0</ele><time>2026-03-29T11:38:41.999Z</time></trkpt><trkpt lat="42.02197350046836" lon="13.08294209089228"><ele>819.0</ele><time>2026-03-29T11:38:43.999Z</time></trkpt><trkpt lat="42.02201000870872" lon="13.083024829384064"><ele>819.0</ele><time>2026-03-29T11:38:45.999Z</time></trkpt><trkpt lat="42.02204096478001" lon="13.083152371295764"><ele>819.0</ele><time>2026-03-29T11:38:47.999Z</time></trkpt><trkpt lat="42.02204492187852" lon="13.083252695288468"><ele>819.0</ele><time>2026-03-29T11:38:49.999Z</time></trkpt><trkpt lat="42.02203996681135" lon="13.083355918653554"><ele>819.0</ele><time>2026-03-29T11:38:51.999Z</time></trkpt><trkpt lat="42.0221243381542" lon="13.083432605597528"><ele>819.0</ele><time>2026-03-29T11:38:55.999Z</time></trkpt><trkpt lat="42.02220075334232" lon="13.083453324085346"><ele>819.0</ele><time>2026-03-29T11:38:57.999Z</time></trkpt><trkpt lat="42.02227698316855" lon="13.083394234774524"><ele>819.0</ele><time>2026-03-29T11:38:59.999Z</time></trkpt><trkpt lat="42.022342752964924" lon="13.083351409573456"><ele>819.6</ele><time>2026-03-29T11:39:01.999Z</time></trkpt><trkpt lat="42.02240796478325" lon="13.083382574083856"><ele>820.2</ele><time>2026-03-29T11:39:03.999Z</time></trkpt><trkpt lat="42.02251015895703" lon="13.083421333042553"><ele>820.8000000000001</ele><time>2026-03-29T11:39:05.999Z</time></trkpt><trkpt lat="42.022616192555546" lon="13.083484512830065"><ele>821.4000000000001</ele><time>2026-03-29T11:39:07.999Z</time></trkpt><trkpt lat="42.02270771165724" lon="13.083455801757792"><ele>822.0</ele><time>2026-03-29T11:39:09.999Z</time></trkpt><trkpt lat="42.02276372350243" lon="13.083400195185895"><ele>814.4000000000001</ele><time>2026-03-29T11:39:12Z</time></trkpt><trkpt lat="42.022833036294735" lon="13.083377227711662"><ele>806.8000000000001</ele><time>2026-03-29T11:39:14Z</time></trkpt><trkpt lat="42.02288787258473" lon="13.083538924115556"><ele>799.2</ele><time>2026-03-29T11:39:16Z</time></trkpt><trkpt lat="42.02292301253498" lon="13.08366262384437"><ele>791.6</ele><time>2026-03-29T11:39:17Z</time></trkpt><trkpt lat="42.02297057497306" lon="13.083804634625922"><ele>784.0</ele><time>2026-03-29T11:39:18Z</time></trkpt><trkpt lat="42.02303138046087" lon="13.083922866094362"><ele>784.0</ele><time>2026-03-29T11:39:19Z</time></trkpt><trkpt lat="42.02309659558116" lon="13.084026663576283"><ele>784.0</ele><time>2026-03-29T11:39:20Z</time></trkpt><trkpt lat="42.023158278753" lon="13.08411564894731"><ele>784.0</ele><time>2026-03-29T11:39:21Z</time></trkpt><trkpt lat="42.02320693429755" lon="13.084200975076286"><ele>784.0</ele><time>2026-03-29T11:39:22Z</time></trkpt><trkpt lat="42.023254406455216" lon="13.084276661467527"><ele>784.0</ele><time>2026-03-29T11:39:23Z</time></trkpt><trkpt lat="42.02331889205515" lon="13.084403389530324"><ele>780.2857142857143</ele><time>2026-03-29T11:39:25Z</time></trkpt><trkpt lat="42.023328772727105" lon="13.084492650684977"><ele>776.5714285714286</ele><time>2026-03-29T11:39:26Z</time></trkpt><trkpt lat="42.02335488328582" lon="13.0845975959017"><ele>772.8571428571429</ele><time>2026-03-29T11:39:28Z</time></trkpt><trkpt lat="42.023405444710676" lon="13.084650145474214"><ele>769.1428571428571</ele><time>2026-03-29T11:39:29Z</time></trkpt><trkpt lat="42.023471386469616" lon="13.084713945649652"><ele>765.4285714285714</ele><time>2026-03-29T11:39:30Z</time></trkpt><trkpt lat="42.0235166362159" lon="13.084790565043429"><ele>761.7142857142858</ele><time>2026-03-29T11:39:31Z</time></trkpt><trkpt lat="42.023555125246006" lon="13.084859081983883"><ele>758.0</ele><time>2026-03-29T11:39:32Z</time></trkpt><trkpt lat="42.0236606872153" lon="13.08495550357174"><ele>758.0</ele><time>2026-03-29T11:39:34Z</time></trkpt><trkpt lat="42.023729774270926" lon="13.084986982745782"><ele>758.0</ele><time>2026-03-29T11:39:35Z</time></trkpt><trkpt lat="42.023792290949345" lon="13.085030952634071"><ele>758.0</ele><time>2026-03-29T11:39:36Z</time></trkpt><trkpt lat="42.023871832556644" lon="13.085181840802692"><ele>758.0</ele><time>2026-03-29T11:39:38Z</time></trkpt><trkpt lat="42.023928525230104" lon="13.085314965357732"><ele>758.0</ele><time>2026-03-29T11:39:39Z</time></trkpt><trkpt lat="42.02396714336286" lon="13.085418449687527"><ele>758.0</ele><time>2026-03-29T11:39:40Z</time></trkpt><trkpt lat="42.024014820409896" lon="13.085533194035559"><ele>758.0</ele><time>2026-03-29T11:39:42Z</time></trkpt><trkpt lat="42.02411731901256" lon="13.085507281509543"><ele>758.0</ele><time>2026-03-29T11:39:44Z</time></trkpt><trkpt lat="42.02422890842878" lon="13.085500066902544"><ele>758.0</ele><time>2026-03-29T11:39:45Z</time></trkpt><trkpt lat="42.02434961134871" lon="13.085503253856514"><ele>758.0</ele><time>2026-03-29T11:39:46Z</time></trkpt><trkpt lat="42.02441859966341" lon="13.0854948065946"><ele>753.0</ele><time>2026-03-29T11:39:47Z</time></trkpt><trkpt lat="42.02447918573597" lon="13.08546096387614"><ele>748.0</ele><time>2026-03-29T11:39:49Z</time></trkpt><trkpt lat="42.02449157639201" lon="13.085561968673156"><ele>743.0</ele><time>2026-03-29T11:39:52Z</time></trkpt><trkpt lat="42.02445337650594" lon="13.085733658723264"><ele>738.0</ele><time>2026-03-29T11:39:54Z</time></trkpt><trkpt lat="42.024447294185016" lon="13.08585895305593"><ele>733.0</ele><time>2026-03-29T11:39:55Z</time></trkpt><trkpt lat="42.02442505766954" lon="13.085992100127722"><ele>732.5</ele><time>2026-03-29T11:39:56Z</time></trkpt><trkpt lat="42.02439548144796" lon="13.086133946440231"><ele>732.0</ele><time>2026-03-29T11:39:57Z</time></trkpt><trkpt lat="42.02435884057967" lon="13.086298313240285"><ele>731.5</ele><time>2026-03-29T11:39:58Z</time></trkpt><trkpt lat="42.024314471861025" lon="13.086441636142997"><ele>731.0</ele><time>2026-03-29T11:39:59Z</time></trkpt><trkpt lat="42.02425915931586" lon="13.08656573367025"><ele>730.8</ele><time>2026-03-29T11:40:00Z</time></trkpt><trkpt lat="42.02419643183338" lon="13.086674625208353"><ele>730.5999999999999</ele><time>2026-03-29T11:40:01Z</time></trkpt><trkpt lat="42.02414702106661" lon="13.086777947813692"><ele>730.4</ele><time>2026-03-29T11:40:02Z</time></trkpt><trkpt lat="42.02410856259981" lon="13.086878297939109"><ele>730.2</ele><time>2026-03-29T11:40:03Z</time></trkpt><trkpt lat="42.02407931509224" lon="13.08700903472056"><ele>730.0</ele><time>2026-03-29T11:40:04Z</time></trkpt><trkpt lat="42.02405009897554" lon="13.087128101730785"><ele>732.1666666666667</ele><time>2026-03-29T11:40:04.999Z</time></trkpt><trkpt lat="42.02403263804368" lon="13.087270582815352"><ele>734.3333333333334</ele><time>2026-03-29T11:40:05.999Z</time></trkpt><trkpt lat="42.024029361784216" lon="13.087379580808468"><ele>736.5</ele><time>2026-03-29T11:40:06.999Z</time></trkpt><trkpt lat="42.02404887592901" lon="13.087460677174267"><ele>738.6666666666666</ele><time>2026-03-29T11:40:07.999Z</time></trkpt><trkpt lat="42.02409703675395" lon="13.087560872370545"><ele>740.8333333333333</ele><time>2026-03-29T11:40:09.999Z</time></trkpt><trkpt lat="42.02405802592785" lon="13.087640695203497"><ele>743.0</ele><time>2026-03-29T11:40:10.999Z</time></trkpt><trkpt lat="42.02399418281577" lon="13.087707477221123"><ele>743.0</ele><time>2026-03-29T11:40:11.999Z</time></trkpt><trkpt lat="42.02392670872819" lon="13.087769269057238"><ele>743.0</ele><time>2026-03-29T11:40:12.999Z</time></trkpt><trkpt lat="42.02387750992801" lon="13.08784876821245"><ele>743.0</ele><time>2026-03-29T11:40:13.999Z</time></trkpt><trkpt lat="42.02386140421852" lon="13.087952178409157"><ele>743.0</ele><time>2026-03-29T11:40:14.999Z</time></trkpt><trkpt lat="42.02387249338046" lon="13.08806103206392"><ele>743.0</ele><time>2026-03-29T11:40:15.999Z</time></trkpt><trkpt lat="42.02390684532085" lon="13.088180382971899"><ele>743.0</ele><time>2026-03-29T11:40:16.999Z</time></trkpt><trkpt lat="42.02393672579953" lon="13.088318021334432"><ele>742.0</ele><time>2026-03-29T11:40:17.999Z</time></trkpt><trkpt lat="42.023998934403124" lon="13.08846702267705"><ele>741.0</ele><time>2026-03-29T11:40:18.999Z</time></trkpt><trkpt lat="42.02404837525292" lon="13.088599203297802"><ele>740.0</ele><time>2026-03-29T11:40:19.999Z</time></trkpt><trkpt lat="42.024086812692914" lon="13.088703243687766"><ele>739.0</ele><time>2026-03-29T11:40:20.999Z</time></trkpt><trkpt lat="42.02411206077071" lon="13.088790473852908"><ele>738.0</ele><time>2026-03-29T11:40:21.999Z</time></trkpt><trkpt lat="42.02411777407407" lon="13.088962371819404"><ele>738.0</ele><time>2026-03-29T11:40:23.999Z</time></trkpt><trkpt lat="42.02413918711802" lon="13.089082669722059"><ele>738.0</ele><time>2026-03-29T11:40:24.999Z</time></trkpt><trkpt lat="42.02416471811571" lon="13.08923460340791"><ele>738.0</ele><time>2026-03-29T11:40:25.999Z</time></trkpt><trkpt lat="42.02417776621125" lon="13.089398335923299"><ele>738.0</ele><time>2026-03-29T11:40:26.999Z</time></trkpt><trkpt lat="42.02418522152303" lon="13.089571424355398"><ele>736.5</ele><time>2026-03-29T11:40:27.999Z</time></trkpt><trkpt lat="42.02418777754278" lon="13.089710457740706"><ele>735.0</ele><time>2026-03-29T11:40:28.999Z</time></trkpt><trkpt lat="42.02416819417673" lon="13.089827445505312"><ele>733.5</ele><time>2026-03-29T11:40:29.999Z</time></trkpt><trkpt lat="42.024151341279946" lon="13.089918167031875"><ele>732.0</ele><time>2026-03-29T11:40:30.999Z</time></trkpt><trkpt lat="42.02417587613168" lon="13.090043217583535"><ele>730.5</ele><time>2026-03-29T11:40:32.999Z</time></trkpt><trkpt lat="42.02420143583267" lon="13.090128215776112"><ele>729.0</ele><time>2026-03-29T11:40:33.999Z</time></trkpt><trkpt lat="42.02419441409836" lon="13.090239392337988"><ele>729.0</ele><time>2026-03-29T11:40:34.999Z</time></trkpt><trkpt lat="42.02419918433189" lon="13.09040324680873"><ele>729.0</ele><time>2026-03-29T11:40:35.999Z</time></trkpt><trkpt lat="42.024202588095676" lon="13.090584397961344"><ele>729.0</ele><time>2026-03-29T11:40:36.999Z</time></trkpt><trkpt lat="42.024205461983655" lon="13.09075284136073"><ele>729.0</ele><time>2026-03-29T11:40:37.999Z</time></trkpt><trkpt lat="42.02421848591397" lon="13.090891014034076"><ele>728.8000000000001</ele><time>2026-03-29T11:40:38.999Z</time></trkpt><trkpt lat="42.02421695258982" lon="13.091038911861428"><ele>728.6</ele><time>2026-03-29T11:40:39.999Z</time></trkpt><trkpt lat="42.02418942364102" lon="13.091153868585765"><ele>728.4</ele><time>2026-03-29T11:40:40.999Z</time></trkpt><trkpt lat="42.024165109782594" lon="13.09125641298784"><ele>728.2</ele><time>2026-03-29T11:40:41.999Z</time></trkpt><trkpt lat="42.0241939306041" lon="13.091377117811478"><ele>728.0</ele><time>2026-03-29T11:40:43.999Z</time></trkpt><trkpt lat="42.024221451905575" lon="13.091477430711906"><ele>728.0</ele><time>2026-03-29T11:40:45.999Z</time></trkpt><trkpt lat="42.02426900414761" lon="13.091549292651461"><ele>728.0</ele><time>2026-03-29T11:40:46.999Z</time></trkpt><trkpt lat="42.0243290374189" lon="13.091610640679832"><ele>728.0</ele><time>2026-03-29T11:40:47.999Z</time></trkpt><trkpt lat="42.02439381464068" lon="13.091645034672599"><ele>728.0</ele><time>2026-03-29T11:40:48.999Z</time></trkpt><trkpt lat="42.024482166617574" lon="13.091662438060542"><ele>728.0</ele><time>2026-03-29T11:40:49.999Z</time></trkpt><trkpt lat="42.02456553396255" lon="13.091722913537138"><ele>728.0</ele><time>2026-03-29T11:40:50.999Z</time></trkpt><trkpt lat="42.024631742477936" lon="13.091794785766778"><ele>727.2</ele><time>2026-03-29T11:40:51.999Z</time></trkpt><trkpt lat="42.02473138443462" lon="13.09186544938198"><ele>726.4</ele><time>2026-03-29T11:40:52.999Z</time></trkpt><trkpt lat="42.024826609763274" lon="13.09194667597868"><ele>725.6</ele><time>2026-03-29T11:40:53.999Z</time></trkpt><trkpt lat="42.024893339969275" lon="13.092018987779205"><ele>724.8000000000001</ele><time>2026-03-29T11:40:54.999Z</time></trkpt><trkpt lat="42.024978527468626" lon="13.092082967086343"><ele>724.0</ele><time>2026-03-29T11:40:55.999Z</time></trkpt><trkpt lat="42.025078398515355" lon="13.092185736113848"><ele>723.0</ele><time>2026-03-29T11:40:56.999Z</time></trkpt><trkpt lat="42.02513782664128" lon="13.092333691289655"><ele>722.0</ele><time>2026-03-29T11:40:57.999Z</time></trkpt><trkpt lat="42.0251923842945" lon="13.092436507224445"><ele>721.0</ele><time>2026-03-29T11:40:58.999Z</time></trkpt><trkpt lat="42.02526753464498" lon="13.092556526813803"><ele>720.0</ele><time>2026-03-29T11:40:59.999Z</time></trkpt><trkpt lat="42.025308868623036" lon="13.09264141777759"><ele>719.0</ele><time>2026-03-29T11:41:00.999Z</time></trkpt><trkpt lat="42.02538000595329" lon="13.0927036815959"><ele>718.4000000000001</ele><time>2026-03-29T11:41:01.999Z</time></trkpt><trkpt lat="42.025453844104455" lon="13.092759244822291"><ele>717.8</ele><time>2026-03-29T11:41:03.999Z</time></trkpt><trkpt lat="42.02551972328045" lon="13.092741297745102"><ele>717.2</ele><time>2026-03-29T11:41:06.999Z</time></trkpt><trkpt lat="42.02564442304645" lon="13.092699755873767"><ele>716.5999999999999</ele><time>2026-03-29T11:41:08.999Z</time></trkpt><trkpt lat="42.02575509126312" lon="13.092694427873266"><ele>716.0</ele><time>2026-03-29T11:41:09.999Z</time></trkpt><trkpt lat="42.02583303657704" lon="13.0926986412924"><ele>715.6666666666666</ele><time>2026-03-29T11:41:10.999Z</time></trkpt><trkpt lat="42.025911633456225" lon="13.092687919173125"><ele>715.3333333333333</ele><time>2026-03-29T11:41:12.999Z</time></trkpt><trkpt lat="42.02597033185952" lon="13.092656337495637"><ele>715.0</ele><time>2026-03-29T11:41:14.999Z</time></trkpt><trkpt lat="42.02603636126217" lon="13.092647539377372"><ele>714.6666666666666</ele><time>2026-03-29T11:41:20Z</time></trkpt><trkpt lat="42.025969632229" lon="13.092511669174026"><ele>714.3333333333334</ele><time>2026-03-29T11:41:38Z</time></trkpt><trkpt lat="42.02588409739023" lon="13.092560964693112"><ele>714.0</ele><time>2026-03-29T11:41:40Z</time></trkpt><trkpt lat="42.02584305204657" lon="13.092625430826516"><ele>714.0</ele><time>2026-03-29T11:42:09.999Z</time></trkpt><trkpt lat="42.02592279397333" lon="13.092665755547927"><ele>714.0</ele><time>2026-03-29T11:43:59Z</time></trkpt><trkpt lat="42.02599777036261" lon="13.092612876457679"><ele>714.0</ele><time>2026-03-29T11:44:02Z</time></trkpt><trkpt lat="42.026058218193405" lon="13.092583217507594"><ele>714.0</ele><time>2026-03-29T11:48:29.999Z</time></trkpt><trkpt lat="42.02615765727316" lon="13.092572327663243"><ele>714.0</ele><time>2026-03-29T11:48:31.999Z</time></trkpt><trkpt lat="42.026217240268075" lon="13.092543700555932"><ele>714.0</ele><time>2026-03-29T11:48:32.999Z</time></trkpt><trkpt lat="42.0262858928297" lon="13.092524671258584"><ele>714.0</ele><time>2026-03-29T11:48:33.999Z</time></trkpt><trkpt lat="42.02636665320859" lon="13.09251925652516"><ele>714.0</ele><time>2026-03-29T11:48:34.999Z</time></trkpt><trkpt lat="42.02643250099515" lon="13.092502398770515"><ele>714.0</ele><time>2026-03-29T11:48:35.999Z</time></trkpt><trkpt lat="42.02652737795541" lon="13.092492387766939"><ele>714.0</ele><time>2026-03-29T11:48:36.999Z</time></trkpt><trkpt lat="42.02660426249545" lon="13.092423442372686"><ele>714.0</ele><time>2026-03-29T11:48:37.999Z</time></trkpt><trkpt lat="42.026695763216836" lon="13.092359069760048"><ele>714.0</ele><time>2026-03-29T11:48:38.999Z</time></trkpt><trkpt lat="42.026736818686864" lon="13.092257877139504"><ele>714.25</ele><time>2026-03-29T11:48:39.999Z</time></trkpt><trkpt lat="42.026787579172456" lon="13.09213309481521"><ele>714.5</ele><time>2026-03-29T11:48:40.999Z</time></trkpt><trkpt lat="42.02685139778317" lon="13.09199109129148"><ele>714.75</ele><time>2026-03-29T11:48:41.999Z</time></trkpt><trkpt lat="42.02692610406411" lon="13.091846507410185"><ele>715.0</ele><time>2026-03-29T11:48:42.999Z</time></trkpt><trkpt lat="42.02699402721006" lon="13.091743988644037"><ele>715.0</ele><time>2026-03-29T11:48:43.999Z</time></trkpt><trkpt lat="42.02705022624079" lon="13.091648883759973"><ele>715.0</ele><time>2026-03-29T11:48:44.999Z</time></trkpt><trkpt lat="42.02711062479172" lon="13.091536808117123"><ele>715.0</ele><time>2026-03-29T11:48:45.999Z</time></trkpt><trkpt lat="42.02715338816849" lon="13.091435027561076"><ele>715.0</ele><time>2026-03-29T11:48:46.999Z</time></trkpt><trkpt lat="42.0271939819719" lon="13.09130073215398"><ele>715.0</ele><time>2026-03-29T11:48:47.999Z</time></trkpt><trkpt lat="42.027241907668696" lon="13.091195964320054"><ele>714.6666666666667</ele><time>2026-03-29T11:48:48.999Z</time></trkpt><trkpt lat="42.02728607719861" lon="13.091099407640508"><ele>714.3333333333334</ele><time>2026-03-29T11:48:49.999Z</time></trkpt><trkpt lat="42.027412156497526" lon="13.091027515708719"><ele>714.0</ele><time>2026-03-29T11:48:50.999Z</time></trkpt><trkpt lat="42.02777983473705" lon="13.091222275268775"><ele>722.0</ele><time>2026-03-29T11:48:51.999Z</time></trkpt><trkpt lat="42.02773997387291" lon="13.09054957481473"><ele>722.0</ele><time>2026-03-29T11:48:55.999Z</time></trkpt><trkpt lat="42.027752832963436" lon="13.090421677911827"><ele>722.0</ele><time>2026-03-29T11:48:56.999Z</time></trkpt><trkpt lat="42.027813784924646" lon="13.090342382580564"><ele>722.0</ele><time>2026-03-29T11:48:57.999Z</time></trkpt><trkpt lat="42.02787131344684" lon="13.090296688517881"><ele>722.0</ele><time>2026-03-29T11:48:58.999Z</time></trkpt><trkpt lat="42.02792627379893" lon="13.09021036172927"><ele>722.0</ele><time>2026-03-29T11:49:01.999Z</time></trkpt><trkpt lat="42.02795582411462" lon="13.09013393575254"><ele>722.0</ele><time>2026-03-29T11:49:03.999Z</time></trkpt><trkpt lat="42.02801954661806" lon="13.09004752907919"><ele>722.0</ele><time>2026-03-29T11:49:05.999Z</time></trkpt><trkpt lat="42.02807281852253" lon="13.089927276135548"><ele>722.0</ele><time>2026-03-29T11:49:07.999Z</time></trkpt><trkpt lat="42.0281267829265" lon="13.089854162502517"><ele>722.0</ele><time>2026-03-29T11:49:08.999Z</time></trkpt><trkpt lat="42.02818240805381" lon="13.089778510159869"><ele>722.0</ele><time>2026-03-29T11:49:09.999Z</time></trkpt><trkpt lat="42.02825783889499" lon="13.089697261356642"><ele>722.0</ele><time>2026-03-29T11:49:10.999Z</time></trkpt><trkpt lat="42.028305926179534" lon="13.089589851256687"><ele>722.0</ele><time>2026-03-29T11:49:11.999Z</time></trkpt><trkpt lat="42.02835033055516" lon="13.089510704129703"><ele>723.0</ele><time>2026-03-29T11:49:12.999Z</time></trkpt><trkpt lat="42.0283982068436" lon="13.089428864640672"><ele>724.0</ele><time>2026-03-29T11:49:13.999Z</time></trkpt><trkpt lat="42.028459972320434" lon="13.089343124238539"><ele>725.0</ele><time>2026-03-29T11:49:14.999Z</time></trkpt><trkpt lat="42.02853925322735" lon="13.08925557685179"><ele>726.0</ele><time>2026-03-29T11:49:16.999Z</time></trkpt><trkpt lat="42.02855029500834" lon="13.089147237128618"><ele>727.0</ele><time>2026-03-29T11:49:17.999Z</time></trkpt><trkpt lat="42.02861943011492" lon="13.089048343270433"><ele>727.8333333333334</ele><time>2026-03-29T11:49:20.999Z</time></trkpt><trkpt lat="42.02868045501486" lon="13.089005788296614"><ele>728.6666666666667</ele><time>2026-03-29T11:49:23.999Z</time></trkpt><trkpt lat="42.02869517344409" lon="13.088918418698098"><ele>729.5</ele><time>2026-03-29T11:49:26.999Z</time></trkpt><trkpt lat="42.02871669033085" lon="13.088837052310774"><ele>730.3333333333334</ele><time>2026-03-29T11:49:28.999Z</time></trkpt><trkpt lat="42.02877568068649" lon="13.08878541180293"><ele>731.1666666666666</ele><time>2026-03-29T11:49:31.999Z</time></trkpt><trkpt lat="42.02881100439741" lon="13.088703980605016"><ele>732.0</ele><time>2026-03-29T11:49:33.999Z</time></trkpt><trkpt lat="42.02918524737457" lon="13.088296481187639"><ele>730.2</ele><time>2026-03-29T11:49:37.999Z</time></trkpt><trkpt lat="42.02925874589837" lon="13.08819702733659"><ele>728.4000000000001</ele><time>2026-03-29T11:49:39.999Z</time></trkpt><trkpt lat="42.029299412112316" lon="13.08812239768376"><ele>726.5999999999999</ele><time>2026-03-29T11:49:41Z</time></trkpt><trkpt lat="42.029345585080634" lon="13.088032413791536"><ele>724.8</ele><time>2026-03-29T11:49:42Z</time></trkpt><trkpt lat="42.02939565513677" lon="13.087849855379163"><ele>723.0</ele><time>2026-03-29T11:49:44Z</time></trkpt><trkpt lat="42.02942889069709" lon="13.087746797356289"><ele>723.0</ele><time>2026-03-29T11:49:45Z</time></trkpt><trkpt lat="42.02946893353815" lon="13.08765146762852"><ele>723.0</ele><time>2026-03-29T11:49:46Z</time></trkpt><trkpt lat="42.029513999353156" lon="13.087556933987406"><ele>723.0</ele><time>2026-03-29T11:49:47Z</time></trkpt><trkpt lat="42.02956223463763" lon="13.087461820853479"><ele>723.0</ele><time>2026-03-29T11:49:48Z</time></trkpt><trkpt lat="42.02961638089579" lon="13.087377577484666"><ele>723.0</ele><time>2026-03-29T11:49:49Z</time></trkpt><trkpt lat="42.02966738777736" lon="13.08732298053876"><ele>723.0</ele><time>2026-03-29T11:49:50Z</time></trkpt><trkpt lat="42.02972179082016" lon="13.087373130488475"><ele>723.0</ele><time>2026-03-29T11:49:51Z</time></trkpt><trkpt lat="42.02976275007367" lon="13.08744498618794"><ele>723.0</ele><time>2026-03-29T11:49:52Z</time></trkpt><trkpt lat="42.029831069274" lon="13.087492911411566"><ele>723.0</ele><time>2026-03-29T11:49:53Z</time></trkpt><trkpt lat="42.02989989715486" lon="13.08752928551122"><ele>723.0</ele><time>2026-03-29T11:49:54Z</time></trkpt><trkpt lat="42.030006876343876" lon="13.08759302604235"><ele>723.0</ele><time>2026-03-29T11:49:56Z</time></trkpt><trkpt lat="42.03007934212695" lon="13.08763858659852"><ele>723.0</ele><time>2026-03-29T11:49:57Z</time></trkpt><trkpt lat="42.03016419481547" lon="13.08766937122086"><ele>723.8</ele><time>2026-03-29T11:49:58Z</time></trkpt><trkpt lat="42.03024505801802" lon="13.087723442778943"><ele>724.5999999999999</ele><time>2026-03-29T11:49:59Z</time></trkpt><trkpt lat="42.03034156904144" lon="13.087821714058835"><ele>725.4000000000001</ele><time>2026-03-29T11:50:01Z</time></trkpt><trkpt lat="42.030396265614186" lon="13.087863783341465"><ele>726.2</ele><time>2026-03-29T11:50:02Z</time></trkpt><trkpt lat="42.03048056413685" lon="13.087887776906243"><ele>727.0</ele><time>2026-03-29T11:50:03Z</time></trkpt><trkpt lat="42.03057316749143" lon="13.087988265402258"><ele>727.0</ele><time>2026-03-29T11:50:05Z</time></trkpt><trkpt lat="42.03059700315026" lon="13.088109620257741"><ele>727.0</ele><time>2026-03-29T11:50:06Z</time></trkpt><trkpt lat="42.03064750960915" lon="13.08818537887234"><ele>727.0</ele><time>2026-03-29T11:50:07Z</time></trkpt><trkpt lat="42.030721959150384" lon="13.088274562023688"><ele>727.0</ele><time>2026-03-29T11:50:09Z</time></trkpt><trkpt lat="42.03078104299226" lon="13.08832684265526"><ele>727.0</ele><time>2026-03-29T11:50:10Z</time></trkpt><trkpt lat="42.03084182604715" lon="13.088377257789851"><ele>727.0</ele><time>2026-03-29T11:50:11Z</time></trkpt><trkpt lat="42.030906171907496" lon="13.088432830245464"><ele>728.0</ele><time>2026-03-29T11:50:12Z</time></trkpt><trkpt lat="42.030971604055246" lon="13.088484898606291"><ele>729.0</ele><time>2026-03-29T11:50:13Z</time></trkpt><trkpt lat="42.03105040658161" lon="13.08854317308302"><ele>730.0</ele><time>2026-03-29T11:50:17Z</time></trkpt><trkpt lat="42.03108874832346" lon="13.08861270400877"><ele>731.0</ele><time>2026-03-29T11:50:18Z</time></trkpt><trkpt lat="42.03115652824822" lon="13.08865744329193"><ele>732.0</ele><time>2026-03-29T11:50:20Z</time></trkpt><trkpt lat="42.03120894045381" lon="13.088739529051233"><ele>733.0</ele><time>2026-03-29T11:50:21Z</time></trkpt><trkpt lat="42.031214737717065" lon="13.08885021122568"><ele>733.0</ele><time>2026-03-29T11:50:22Z</time></trkpt><trkpt lat="42.031224845576226" lon="13.088943572950859"><ele>733.0</ele><time>2026-03-29T11:50:23Z</time></trkpt><trkpt lat="42.03122883630974" lon="13.089098513176648"><ele>733.0</ele><time>2026-03-29T11:50:25Z</time></trkpt><trkpt lat="42.03126042264199" lon="13.089210811090183"><ele>733.0</ele><time>2026-03-29T11:50:26Z</time></trkpt><trkpt lat="42.0312911505344" lon="13.089334409108496"><ele>733.0</ele><time>2026-03-29T11:50:26.999Z</time></trkpt><trkpt lat="42.03132598011835" lon="13.089497183599661"><ele>737.0</ele><time>2026-03-29T11:50:27.999Z</time></trkpt><trkpt lat="42.03135406179746" lon="13.089649387417163"><ele>741.0</ele><time>2026-03-29T11:50:28.999Z</time></trkpt><trkpt lat="42.0313952169101" lon="13.089819025157311"><ele>745.0</ele><time>2026-03-29T11:50:29.999Z</time></trkpt><trkpt lat="42.03140399303953" lon="13.089961550160659"><ele>749.0</ele><time>2026-03-29T11:50:30.999Z</time></trkpt><trkpt lat="42.031426627379886" lon="13.090161836903986"><ele>750.4000000000001</ele><time>2026-03-29T11:50:31.999Z</time></trkpt><trkpt lat="42.03147051132343" lon="13.090269845782005"><ele>751.8</ele><time>2026-03-29T11:50:32.999Z</time></trkpt><trkpt lat="42.03152981898444" lon="13.090403093481513"><ele>753.2</ele><time>2026-03-29T11:50:33.999Z</time></trkpt><trkpt lat="42.031589324547184" lon="13.090550506076204"><ele>754.5999999999999</ele><time>2026-03-29T11:50:34.999Z</time></trkpt><trkpt lat="42.03163473325477" lon="13.090642011000131"><ele>756.0</ele><time>2026-03-29T11:50:35.999Z</time></trkpt><trkpt lat="42.03165624818454" lon="13.090735372612166"><ele>752.0</ele><time>2026-03-29T11:50:36.999Z</time></trkpt><trkpt lat="42.03169584843554" lon="13.090818582637976"><ele>748.0</ele><time>2026-03-29T11:50:37.999Z</time></trkpt><trkpt lat="42.03175324107505" lon="13.090762216792871"><ele>744.0</ele><time>2026-03-29T11:50:40.999Z</time></trkpt><trkpt lat="42.03182613624105" lon="13.090838830780175"><ele>740.0</ele><time>2026-03-29T11:50:42.999Z</time></trkpt><trkpt lat="42.031908030673094" lon="13.09085568155975"><ele>736.0</ele><time>2026-03-29T11:50:43.999Z</time></trkpt><trkpt lat="42.031985370199784" lon="13.090848622171203"><ele>732.0</ele><time>2026-03-29T11:50:44.999Z</time></trkpt><trkpt lat="42.03204193702963" lon="13.09076640233039"><ele>729.5</ele><time>2026-03-29T11:50:45.999Z</time></trkpt><trkpt lat="42.032084356506516" lon="13.09070341378966"><ele>727.0</ele><time>2026-03-29T11:50:46.999Z</time></trkpt><trkpt lat="42.03203870452975" lon="13.090536956302872"><ele>724.5</ele><time>2026-03-29T11:50:50.999Z</time></trkpt><trkpt lat="42.031992005696715" lon="13.090389043123142"><ele>722.0</ele><time>2026-03-29T11:50:51.999Z</time></trkpt><trkpt lat="42.031960788422595" lon="13.090162508866197"><ele>722.0</ele><time>2026-03-29T11:50:52.999Z</time></trkpt><trkpt lat="42.03193697091462" lon="13.089928391929043"><ele>722.0</ele><time>2026-03-29T11:50:53.999Z</time></trkpt><trkpt lat="42.03194448252349" lon="13.089772494770386"><ele>722.0</ele><time>2026-03-29T11:50:54.999Z</time></trkpt><trkpt lat="42.03194226516344" lon="13.089626253950312"><ele>722.0</ele><time>2026-03-29T11:50:55.999Z</time></trkpt><trkpt lat="42.03193312067461" lon="13.089465319594778"><ele>721.0</ele><time>2026-03-29T11:50:56.999Z</time></trkpt><trkpt lat="42.03191693903508" lon="13.089322739775824"><ele>720.0</ele><time>2026-03-29T11:50:57.999Z</time></trkpt><trkpt lat="42.031895729755966" lon="13.089192380590037"><ele>719.0</ele><time>2026-03-29T11:50:58.999Z</time></trkpt><trkpt lat="42.03189612302568" lon="13.089059857120482"><ele>718.0</ele><time>2026-03-29T11:50:59.999Z</time></trkpt><trkpt lat="42.03185948713522" lon="13.088942773730192"><ele>717.0</ele><time>2026-03-29T11:51:00.999Z</time></trkpt><trkpt lat="42.031837833624955" lon="13.088814484564809"><ele>717.6666666666666</ele><time>2026-03-29T11:51:01.999Z</time></trkpt><trkpt lat="42.03179993249604" lon="13.088712630167645"><ele>718.3333333333334</ele><time>2026-03-29T11:51:02.999Z</time></trkpt><trkpt lat="42.03176072461782" lon="13.08860623760608"><ele>719.0</ele><time>2026-03-29T11:51:03.999Z</time></trkpt><trkpt lat="42.03171577333011" lon="13.088500153030076"><ele>719.6666666666667</ele><time>2026-03-29T11:51:04.999Z</time></trkpt><trkpt lat="42.031679959851694" lon="13.088400381423682"><ele>720.3333333333334</ele><time>2026-03-29T11:51:05.999Z</time></trkpt><trkpt lat="42.03165506750937" lon="13.08827371198225"><ele>721.0</ele><time>2026-03-29T11:51:06.999Z</time></trkpt><trkpt lat="42.03161631655023" lon="13.088140166448161"><ele>721.0</ele><time>2026-03-29T11:51:07.999Z</time></trkpt><trkpt lat="42.03158164805461" lon="13.087975562162757"><ele>721.0</ele><time>2026-03-29T11:51:08.999Z</time></trkpt><trkpt lat="42.03155802900315" lon="13.08781792440402"><ele>721.0</ele><time>2026-03-29T11:51:09.999Z</time></trkpt><trkpt lat="42.03152697612443" lon="13.08768520818107"><ele>721.0</ele><time>2026-03-29T11:51:10.999Z</time></trkpt><trkpt lat="42.031506042677854" lon="13.08756609555727"><ele>721.0</ele><time>2026-03-29T11:51:11.999Z</time></trkpt><trkpt lat="42.03150044073198" lon="13.087456899340273"><ele>720.0</ele><time>2026-03-29T11:51:12.999Z</time></trkpt><trkpt lat="42.0315422173764" lon="13.087350738335624"><ele>719.0</ele><time>2026-03-29T11:51:13.999Z</time></trkpt><trkpt lat="42.0316070778541" lon="13.087203304859926"><ele>718.0</ele><time>2026-03-29T11:51:15.999Z</time></trkpt><trkpt lat="42.031608155708454" lon="13.08709798879804"><ele>717.0</ele><time>2026-03-29T11:51:16.999Z</time></trkpt><trkpt lat="42.03162903455416" lon="13.086984259341301"><ele>716.0</ele><time>2026-03-29T11:51:17.999Z</time></trkpt><trkpt lat="42.031630562059895" lon="13.086846303146364"><ele>716.0</ele><time>2026-03-29T11:51:18.999Z</time></trkpt><trkpt lat="42.03158078638826" lon="13.08672580478373"><ele>716.0</ele><time>2026-03-29T11:51:19.999Z</time></trkpt><trkpt lat="42.03158992183673" lon="13.08664018410825"><ele>716.0</ele><time>2026-03-29T11:51:20.999Z</time></trkpt><trkpt lat="42.03162721625277" lon="13.086557575280297"><ele>716.0</ele><time>2026-03-29T11:51:21.999Z</time></trkpt><trkpt lat="42.03169187153795" lon="13.08647297963314"><ele>716.0</ele><time>2026-03-29T11:51:22.999Z</time></trkpt><trkpt lat="42.03178883287674" lon="13.086392937095352"><ele>716.0</ele><time>2026-03-29T11:51:23.999Z</time></trkpt><trkpt lat="42.03183266675635" lon="13.086299220537581"><ele>714.25</ele><time>2026-03-29T11:51:24.999Z</time></trkpt><trkpt lat="42.03189777912751" lon="13.086191297177471"><ele>712.5</ele><time>2026-03-29T11:51:25.999Z</time></trkpt><trkpt lat="42.03199027251066" lon="13.08609851739909"><ele>710.75</ele><time>2026-03-29T11:51:26.999Z</time></trkpt><trkpt lat="42.03210394319088" lon="13.085959407978791"><ele>709.0</ele><time>2026-03-29T11:51:27.999Z</time></trkpt><trkpt lat="42.03227975551589" lon="13.085850633823824"><ele>709.0</ele><time>2026-03-29T11:51:28.999Z</time></trkpt><trkpt lat="42.03238902725734" lon="13.085770962402465"><ele>709.0</ele><time>2026-03-29T11:51:29.999Z</time></trkpt><trkpt lat="42.03246737254599" lon="13.08568894557019"><ele>709.0</ele><time>2026-03-29T11:51:30.999Z</time></trkpt><trkpt lat="42.03257375014529" lon="13.085549235834806"><ele>709.0</ele><time>2026-03-29T11:51:31.999Z</time></trkpt><trkpt lat="42.03267006357966" lon="13.085405970066095"><ele>708.2</ele><time>2026-03-29T11:51:32.999Z</time></trkpt><trkpt lat="42.032775855695284" lon="13.085290699229517"><ele>707.4000000000001</ele><time>2026-03-29T11:51:33.999Z</time></trkpt><trkpt lat="42.03283901038398" lon="13.085248368579508"><ele>706.6</ele><time>2026-03-29T11:51:34.999Z</time></trkpt><trkpt lat="42.03292118750105" lon="13.085275802632765"><ele>705.8</ele><time>2026-03-29T11:51:36.999Z</time></trkpt><trkpt lat="42.032983484850206" lon="13.085299099693517"><ele>705.0</ele><time>2026-03-29T11:51:38.999Z</time></trkpt><trkpt lat="42.03307233076099" lon="13.085215495806368"><ele>705.0</ele><time>2026-03-29T11:51:40.999Z</time></trkpt><trkpt lat="42.03314536668708" lon="13.085197970550869"><ele>705.0</ele><time>2026-03-29T11:51:41.999Z</time></trkpt><trkpt lat="42.033212718797294" lon="13.085233454668234"><ele>705.0</ele><time>2026-03-29T11:51:43.999Z</time></trkpt><trkpt lat="42.033294365552045" lon="13.08525736274028"><ele>705.0</ele><time>2026-03-29T11:51:44.999Z</time></trkpt><trkpt lat="42.03328485316919" lon="13.085365812177162"><ele>705.0</ele><time>2026-03-29T11:51:53Z</time></trkpt><trkpt lat="42.0333498449009" lon="13.085502063069203"><ele>705.0</ele><time>2026-03-29T11:51:55Z</time></trkpt><trkpt lat="42.033399017203315" lon="13.085592913805224"><ele>703.0</ele><time>2026-03-29T11:51:56Z</time></trkpt><trkpt lat="42.033473423277364" lon="13.085758944855385"><ele>701.0</ele><time>2026-03-29T11:51:57Z</time></trkpt><trkpt lat="42.033586606515975" lon="13.085941814693689"><ele>699.0</ele><time>2026-03-29T11:51:58Z</time></trkpt><trkpt lat="42.03367151341574" lon="13.086133700561504"><ele>698.3333333333334</ele><time>2026-03-29T11:51:59Z</time></trkpt><trkpt lat="42.033739452194624" lon="13.08635397529458"><ele>697.6666666666667</ele><time>2026-03-29T11:52:00Z</time></trkpt><trkpt lat="42.03384516660008" lon="13.086603528834795"><ele>697.0</ele><time>2026-03-29T11:52:01Z</time></trkpt><trkpt lat="42.03395178464481" lon="13.086814807636301"><ele>697.0</ele><time>2026-03-29T11:52:02Z</time></trkpt><trkpt lat="42.03407115184509" lon="13.086979281371534"><ele>697.0</ele><time>2026-03-29T11:52:03Z</time></trkpt><trkpt lat="42.03418821740681" lon="13.087157933358322"><ele>697.0</ele><time>2026-03-29T11:52:04Z</time></trkpt><trkpt lat="42.03428531812557" lon="13.0873409772139"><ele>696.6666666666667</ele><time>2026-03-29T11:52:05Z</time></trkpt><trkpt lat="42.03438148225605" lon="13.087518182943159"><ele>696.3333333333334</ele><time>2026-03-29T11:52:06Z</time></trkpt><trkpt lat="42.034443885902746" lon="13.087781000594125"><ele>696.0</ele><time>2026-03-29T11:52:07Z</time></trkpt><trkpt lat="42.034502111947745" lon="13.08790050698147"><ele>696.0</ele><time>2026-03-29T11:52:08Z</time></trkpt><trkpt lat="42.03459099297819" lon="13.087923990529573"><ele>696.0</ele><time>2026-03-29T11:52:10Z</time></trkpt><trkpt lat="42.03465316252228" lon="13.087942883674415"><ele>696.0</ele><time>2026-03-29T11:52:11Z</time></trkpt><trkpt lat="42.034731412437154" lon="13.087980812662458"><ele>696.0</ele><time>2026-03-29T11:52:12Z</time></trkpt><trkpt lat="42.03481008029923" lon="13.088031025701602"><ele>696.0</ele><time>2026-03-29T11:52:13Z</time></trkpt><trkpt lat="42.034931416574295" lon="13.088120005513753"><ele>696.1999999999999</ele><time>2026-03-29T11:52:14Z</time></trkpt><trkpt lat="42.035036693030015" lon="13.088199165445628"><ele>696.4</ele><time>2026-03-29T11:52:15Z</time></trkpt><trkpt lat="42.03510185078846" lon="13.088282905630697"><ele>696.6</ele><time>2026-03-29T11:52:16Z</time></trkpt><trkpt lat="42.03513382216359" lon="13.088433934295981"><ele>696.8</ele><time>2026-03-29T11:52:18Z</time></trkpt><trkpt lat="42.03522813687907" lon="13.088524084000941"><ele>697.0</ele><time>2026-03-29T11:52:19Z</time></trkpt><trkpt lat="42.035294321525576" lon="13.088563959423125"><ele>697.4000000000001</ele><time>2026-03-29T11:52:20Z</time></trkpt><trkpt lat="42.03534111924456" lon="13.088638706144271"><ele>697.8000000000001</ele><time>2026-03-29T11:52:22Z</time></trkpt><trkpt lat="42.035393566644444" lon="13.08870264835914"><ele>698.2</ele><time>2026-03-29T11:52:27Z</time></trkpt><trkpt lat="42.03544659723095" lon="13.088750145219167"><ele>698.6</ele><time>2026-03-29T11:52:33.999Z</time></trkpt><trkpt lat="42.03542938807582" lon="13.088896892846984"><ele>699.0</ele><time>2026-03-29T11:52:37.999Z</time></trkpt><trkpt lat="42.03558100989945" lon="13.088931719036932"><ele>699.0</ele><time>2026-03-29T11:52:43.999Z</time></trkpt><trkpt lat="42.035645131709806" lon="13.088815333131162"><ele>699.0</ele><time>2026-03-29T11:52:52.999Z</time></trkpt><trkpt lat="42.03570475958473" lon="13.088713045167353"><ele>699.0</ele><time>2026-03-29T11:52:53.999Z</time></trkpt><trkpt lat="42.03576160702135" lon="13.088603338518004"><ele>699.0</ele><time>2026-03-29T11:52:54.999Z</time></trkpt><trkpt lat="42.035778653698685" lon="13.088445582779867"><ele>699.0</ele><time>2026-03-29T11:52:55.999Z</time></trkpt><trkpt lat="42.035795948810076" lon="13.088264764093793"><ele>698.75</ele><time>2026-03-29T11:52:56.999Z</time></trkpt><trkpt lat="42.0358048731099" lon="13.088066525814982"><ele>698.5</ele><time>2026-03-29T11:52:57.999Z</time></trkpt><trkpt lat="42.035809291334466" lon="13.08788391307123"><ele>698.25</ele><time>2026-03-29T11:52:58.999Z</time></trkpt><trkpt lat="42.0358158273144" lon="13.08769621740728"><ele>698.0</ele><time>2026-03-29T11:52:59.999Z</time></trkpt><trkpt lat="42.035823043881614" lon="13.087488792764342"><ele>697.0</ele><time>2026-03-29T11:53:00.999Z</time></trkpt><trkpt lat="42.035847447856845" lon="13.087303925322857"><ele>696.0</ele><time>2026-03-29T11:53:01.999Z</time></trkpt><trkpt lat="42.035876150695145" lon="13.08711075249357"><ele>695.0</ele><time>2026-03-29T11:53:02.999Z</time></trkpt><trkpt lat="42.035918106119546" lon="13.086926949013044"><ele>694.0</ele><time>2026-03-29T11:53:03.999Z</time></trkpt><trkpt lat="42.03596266044086" lon="13.0867522949407"><ele>693.3333333333334</ele><time>2026-03-29T11:53:04.999Z</time></trkpt><trkpt lat="42.035868021444564" lon="13.086504411760393"><ele>692.6666666666666</ele><time>2026-03-29T11:53:05.999Z</time></trkpt><trkpt lat="42.03591160127804" lon="13.086341408592139"><ele>692.0</ele><time>2026-03-29T11:53:06.999Z</time></trkpt><trkpt lat="42.03594264715461" lon="13.086193738625278"><ele>692.0</ele><time>2026-03-29T11:53:07.999Z</time></trkpt><trkpt lat="42.0359785635918" lon="13.086037491650659"><ele>692.0</ele><time>2026-03-29T11:53:08.999Z</time></trkpt><trkpt lat="42.03603753016042" lon="13.085874443361693"><ele>692.0</ele><time>2026-03-29T11:53:09.999Z</time></trkpt><trkpt lat="42.03613225113082" lon="13.085720345611417"><ele>692.0</ele><time>2026-03-29T11:53:10.999Z</time></trkpt><trkpt lat="42.03622413422829" lon="13.085572407339066"><ele>691.5</ele><time>2026-03-29T11:53:11.999Z</time></trkpt><trkpt lat="42.03632372777669" lon="13.085450403161145"><ele>691.0</ele><time>2026-03-29T11:53:12.999Z</time></trkpt><trkpt lat="42.036425998567346" lon="13.085379000221254"><ele>690.5</ele><time>2026-03-29T11:53:13.999Z</time></trkpt><trkpt lat="42.03654041947781" lon="13.085395918875749"><ele>690.0</ele><time>2026-03-29T11:53:14.999Z</time></trkpt><trkpt lat="42.03662469524188" lon="13.085348752438758"><ele>689.3333333333334</ele><time>2026-03-29T11:53:15.999Z</time></trkpt><trkpt lat="42.03670491843872" lon="13.085299306513296"><ele>688.6666666666666</ele><time>2026-03-29T11:53:16.999Z</time></trkpt><trkpt lat="42.03675030009258" lon="13.085200571157978"><ele>688.0</ele><time>2026-03-29T11:53:17.999Z</time></trkpt><trkpt lat="42.036799685018906" lon="13.085096177241399"><ele>687.3333333333333</ele><time>2026-03-29T11:53:18.999Z</time></trkpt><trkpt lat="42.0368664474751" lon="13.085016879298532"><ele>686.6666666666666</ele><time>2026-03-29T11:53:19.999Z</time></trkpt><trkpt lat="42.03692194888694" lon="13.084924056158151"><ele>686.0</ele><time>2026-03-29T11:53:20.999Z</time></trkpt><trkpt lat="42.036952418391664" lon="13.084796934711957"><ele>685.5</ele><time>2026-03-29T11:53:21.999Z</time></trkpt><trkpt lat="42.03697044761985" lon="13.084629509068924"><ele>685.0</ele><time>2026-03-29T11:53:22.999Z</time></trkpt><trkpt lat="42.03698137501585" lon="13.084456443917485"><ele>684.5</ele><time>2026-03-29T11:53:23.999Z</time></trkpt><trkpt lat="42.03699144343" lon="13.0843009400377"><ele>684.0</ele><time>2026-03-29T11:53:24.999Z</time></trkpt><trkpt lat="42.03703534129308" lon="13.08416044794161"><ele>683.5</ele><time>2026-03-29T11:53:25.999Z</time></trkpt><trkpt lat="42.03710644158518" lon="13.084012731023233"><ele>683.0</ele><time>2026-03-29T11:53:26.999Z</time></trkpt><trkpt lat="42.037180489565976" lon="13.083860201325635"><ele>682.5</ele><time>2026-03-29T11:53:27.999Z</time></trkpt><trkpt lat="42.03724510181743" lon="13.083711691118173"><ele>682.0</ele><time>2026-03-29T11:53:28.999Z</time></trkpt><trkpt lat="42.03730960992315" lon="13.083582907309008"><ele>682.0</ele><time>2026-03-29T11:53:29.999Z</time></trkpt><trkpt lat="42.03735272399774" lon="13.083454769680896"><ele>682.0</ele><time>2026-03-29T11:53:30.999Z</time></trkpt><trkpt lat="42.037380415808364" lon="13.083312350838765"><ele>682.0</ele><time>2026-03-29T11:53:31.999Z</time></trkpt><trkpt lat="42.03738320924569" lon="13.083146902910247"><ele>682.0</ele><time>2026-03-29T11:53:32.999Z</time></trkpt><trkpt lat="42.03739510039413" lon="13.082966073130494"><ele>682.5</ele><time>2026-03-29T11:53:33.999Z</time></trkpt><trkpt lat="42.037427028040646" lon="13.0827690293045"><ele>683.0</ele><time>2026-03-29T11:53:34.999Z</time></trkpt><trkpt lat="42.03745153780684" lon="13.08257265540371"><ele>683.5</ele><time>2026-03-29T11:53:35.999Z</time></trkpt><trkpt lat="42.03747741220226" lon="13.0823884016381"><ele>684.0</ele><time>2026-03-29T11:53:36.999Z</time></trkpt><trkpt lat="42.03755534847041" lon="13.08224246305199"><ele>683.0</ele><time>2026-03-29T11:53:37.999Z</time></trkpt><trkpt lat="42.03764133686873" lon="13.082096019759284"><ele>682.0</ele><time>2026-03-29T11:53:38.999Z</time></trkpt><trkpt lat="42.037722785349565" lon="13.081929932182472"><ele>681.0</ele><time>2026-03-29T11:53:39.999Z</time></trkpt><trkpt lat="42.03780625454801" lon="13.081763953139832"><ele>680.0</ele><time>2026-03-29T11:53:40.999Z</time></trkpt><trkpt lat="42.03789844848731" lon="13.081610240908114"><ele>680.2</ele><time>2026-03-29T11:53:41.999Z</time></trkpt><trkpt lat="42.03799096494039" lon="13.081471844164126"><ele>680.4</ele><time>2026-03-29T11:53:42.999Z</time></trkpt><trkpt lat="42.038066352301094" lon="13.081371640251405"><ele>680.5999999999999</ele><time>2026-03-29T11:53:43.999Z</time></trkpt><trkpt lat="42.03813322801393" lon="13.081302166068207"><ele>680.8</ele><time>2026-03-29T11:53:44.999Z</time></trkpt><trkpt lat="42.03820588747972" lon="13.08125298487482"><ele>681.0</ele><time>2026-03-29T11:53:45.999Z</time></trkpt><trkpt lat="42.03826650857405" lon="13.081199357995525"><ele>680.1999999999999</ele><time>2026-03-29T11:53:46.999Z</time></trkpt><trkpt lat="42.03832076250187" lon="13.081100601599672"><ele>679.4</ele><time>2026-03-29T11:53:48.999Z</time></trkpt><trkpt lat="42.03840248033239" lon="13.081155538831444"><ele>678.6</ele><time>2026-03-29T11:53:50.999Z</time></trkpt><trkpt lat="42.03850126529399" lon="13.081201616351699"><ele>677.8</ele><time>2026-03-29T11:53:51.999Z</time></trkpt><trkpt lat="42.038617965739384" lon="13.081280322452727"><ele>677.0</ele><time>2026-03-29T11:53:53Z</time></trkpt><trkpt lat="42.03875630375732" lon="13.081382663192382"><ele>677.0</ele><time>2026-03-29T11:53:54Z</time></trkpt><trkpt lat="42.03889930664706" lon="13.081432204287177"><ele>677.0</ele><time>2026-03-29T11:53:55Z</time></trkpt><trkpt lat="42.039040768975035" lon="13.08151909438553"><ele>677.0</ele><time>2026-03-29T11:53:56Z</time></trkpt><trkpt lat="42.039192065502554" lon="13.081587843788544"><ele>676.6666666666666</ele><time>2026-03-29T11:53:57Z</time></trkpt><trkpt lat="42.039337332733716" lon="13.081654831389294"><ele>676.3333333333334</ele><time>2026-03-29T11:53:58Z</time></trkpt><trkpt lat="42.03948047524187" lon="13.081730031567444"><ele>676.0</ele><time>2026-03-29T11:53:59Z</time></trkpt><trkpt lat="42.03962513671984" lon="13.081800549607623"><ele>676.0</ele><time>2026-03-29T11:54:00Z</time></trkpt><trkpt lat="42.039757598895186" lon="13.081901602208724"><ele>676.0</ele><time>2026-03-29T11:54:01Z</time></trkpt><trkpt lat="42.03989223984549" lon="13.082009324976868"><ele>676.0</ele><time>2026-03-29T11:54:02Z</time></trkpt><trkpt lat="42.040020285238505" lon="13.082122064511335"><ele>675.75</ele><time>2026-03-29T11:54:03Z</time></trkpt><trkpt lat="42.040150772874874" lon="13.082225814369027"><ele>675.5</ele><time>2026-03-29T11:54:04Z</time></trkpt><trkpt lat="42.04027169044368" lon="13.082321460403444"><ele>675.25</ele><time>2026-03-29T11:54:05Z</time></trkpt><trkpt lat="42.040374876610656" lon="13.082406132807142"><ele>675.0</ele><time>2026-03-29T11:54:06Z</time></trkpt><trkpt lat="42.04049278542343" lon="13.08243977114279"><ele>675.0</ele><time>2026-03-29T11:54:07Z</time></trkpt><trkpt lat="42.04062796409827" lon="13.082420861990004"><ele>675.0</ele><time>2026-03-29T11:54:08Z</time></trkpt><trkpt lat="42.04076589389071" lon="13.082374092697714"><ele>675.0</ele><time>2026-03-29T11:54:09Z</time></trkpt><trkpt lat="42.04090543609883" lon="13.082322560328036"><ele>675.0</ele><time>2026-03-29T11:54:10Z</time></trkpt><trkpt lat="42.041048055888744" lon="13.082266844022643"><ele>674.6666666666666</ele><time>2026-03-29T11:54:11Z</time></trkpt><trkpt lat="42.04119634542479" lon="13.08220964366016"><ele>674.3333333333333</ele><time>2026-03-29T11:54:12Z</time></trkpt><trkpt lat="42.04134453160439" lon="13.082153627977172"><ele>674.0</ele><time>2026-03-29T11:54:13Z</time></trkpt><trkpt lat="42.04150123430444" lon="13.08209444115167"><ele>675.5</ele><time>2026-03-29T11:54:14Z</time></trkpt><trkpt lat="42.04165425979794" lon="13.082034113872163"><ele>677.0</ele><time>2026-03-29T11:54:15Z</time></trkpt><trkpt lat="42.0417907324649" lon="13.081981345109378"><ele>678.5</ele><time>2026-03-29T11:54:16Z</time></trkpt><trkpt lat="42.041902743153855" lon="13.08194457349683"><ele>680.0</ele><time>2026-03-29T11:54:17Z</time></trkpt><trkpt lat="42.04199440011441" lon="13.0819177086364"><ele>680.0</ele><time>2026-03-29T11:54:18Z</time></trkpt><trkpt lat="42.04207939096005" lon="13.081899253663938"><ele>680.0</ele><time>2026-03-29T11:54:19Z</time></trkpt><trkpt lat="42.04217620352956" lon="13.081898465040641"><ele>680.0</ele><time>2026-03-29T11:54:20Z</time></trkpt><trkpt lat="42.04228680661006" lon="13.081913203297432"><ele>680.0</ele><time>2026-03-29T11:54:21Z</time></trkpt><trkpt lat="42.04238875303679" lon="13.082008459838233"><ele>680.0</ele><time>2026-03-29T11:54:22Z</time></trkpt><trkpt lat="42.04249755973756" lon="13.082051239844107"><ele>680.6</ele><time>2026-03-29T11:54:23Z</time></trkpt><trkpt lat="42.04259059163348" lon="13.082103118465312"><ele>681.2</ele><time>2026-03-29T11:54:24Z</time></trkpt><trkpt lat="42.04267440374704" lon="13.08216382402424"><ele>681.8</ele><time>2026-03-29T11:54:25Z</time></trkpt><trkpt lat="42.042728024047804" lon="13.082242223008414"><ele>682.4</ele><time>2026-03-29T11:54:26Z</time></trkpt><trkpt lat="42.04271365466215" lon="13.082386919185172"><ele>683.0</ele><time>2026-03-29T11:54:28Z</time></trkpt><trkpt lat="42.04264840550652" lon="13.082425744502236"><ele>682.4</ele><time>2026-03-29T11:54:29Z</time></trkpt><trkpt lat="42.04256136168138" lon="13.082433856782393"><ele>681.8</ele><time>2026-03-29T11:54:29.999Z</time></trkpt><trkpt lat="42.04246445413057" lon="13.08241188157321"><ele>681.2</ele><time>2026-03-29T11:54:30.999Z</time></trkpt><trkpt lat="42.04236392520138" lon="13.082382924573272"><ele>680.6</ele><time>2026-03-29T11:54:31.999Z</time></trkpt><trkpt lat="42.042248840483275" lon="13.082378359656115"><ele>680.0</ele><time>2026-03-29T11:54:32.999Z</time></trkpt><trkpt lat="42.04212222753583" lon="13.082405982452809"><ele>684.0</ele><time>2026-03-29T11:54:33.999Z</time></trkpt><trkpt lat="42.0419935831967" lon="13.082452179061253"><ele>688.0</ele><time>2026-03-29T11:54:34.999Z</time></trkpt><trkpt lat="42.041862781533204" lon="13.082518875815344"><ele>692.0</ele><time>2026-03-29T11:54:35.999Z</time></trkpt><trkpt lat="42.041746574079845" lon="13.082615664339007"><ele>696.0</ele><time>2026-03-29T11:54:36.999Z</time></trkpt><trkpt lat="42.04164692712198" lon="13.082743863761422"><ele>691.3333333333334</ele><time>2026-03-29T11:54:37.999Z</time></trkpt><trkpt lat="42.041547490564284" lon="13.082906184551438"><ele>686.6666666666667</ele><time>2026-03-29T11:54:38.999Z</time></trkpt><trkpt lat="42.041438681190215" lon="13.083082635279023"><ele>682.0</ele><time>2026-03-29T11:54:39.999Z</time></trkpt><trkpt lat="42.041316576766086" lon="13.083245102655702"><ele>687.3333333333334</ele><time>2026-03-29T11:54:40.999Z</time></trkpt><trkpt lat="42.04118637502477" lon="13.083392381228695"><ele>692.6666666666666</ele><time>2026-03-29T11:54:41.999Z</time></trkpt><trkpt lat="42.04105684200387" lon="13.083525427999438"><ele>698.0</ele><time>2026-03-29T11:54:42.999Z</time></trkpt><trkpt lat="42.04094492231508" lon="13.08367548512438"><ele>698.0</ele><time>2026-03-29T11:54:43.999Z</time></trkpt><trkpt lat="42.04085181260984" lon="13.083844448163095"><ele>698.0</ele><time>2026-03-29T11:54:44.999Z</time></trkpt><trkpt lat="42.040767520087925" lon="13.084022115115355"><ele>698.0</ele><time>2026-03-29T11:54:45.999Z</time></trkpt><trkpt lat="42.04068410535152" lon="13.084200313982334"><ele>697.5</ele><time>2026-03-29T11:54:46.999Z</time></trkpt><trkpt lat="42.04060460288268" lon="13.08436560255153"><ele>697.0</ele><time>2026-03-29T11:54:47.999Z</time></trkpt><trkpt lat="42.04052705821156" lon="13.084509316573746"><ele>696.5</ele><time>2026-03-29T11:54:48.999Z</time></trkpt><trkpt lat="42.040456605224456" lon="13.084642666039153"><ele>696.0</ele><time>2026-03-29T11:54:49.999Z</time></trkpt><trkpt lat="42.040389849915826" lon="13.08477165838426"><ele>696.0</ele><time>2026-03-29T11:54:50.999Z</time></trkpt><trkpt lat="42.04032312217278" lon="13.084885462345254"><ele>696.0</ele><time>2026-03-29T11:54:51.999Z</time></trkpt><trkpt lat="42.040262148634504" lon="13.084974227884713"><ele>696.0</ele><time>2026-03-29T11:54:52.999Z</time></trkpt><trkpt lat="42.04021064902249" lon="13.08504175386692"><ele>696.0</ele><time>2026-03-29T11:54:53.999Z</time></trkpt><trkpt lat="42.04014611317571" lon="13.08513956514819"><ele>696.0</ele><time>2026-03-29T11:54:55.999Z</time></trkpt><trkpt lat="42.04010767313171" lon="13.085223845580435"><ele>696.0</ele><time>2026-03-29T11:54:58.999Z</time></trkpt><trkpt lat="42.040154853817654" lon="13.085322286508454"><ele>696.0</ele><time>2026-03-29T11:55:00.999Z</time></trkpt><trkpt lat="42.04023038776713" lon="13.085305898749123"><ele>696.0</ele><time>2026-03-29T11:55:02.999Z</time></trkpt><trkpt lat="42.04030833820661" lon="13.085204064686057"><ele>696.0</ele><time>2026-03-29T11:55:04.999Z</time></trkpt><trkpt lat="42.04035604410009" lon="13.08512209674288"><ele>696.0</ele><time>2026-03-29T11:55:05.999Z</time></trkpt><trkpt lat="42.04040828397283" lon="13.085041006461442"><ele>696.0</ele><time>2026-03-29T11:55:06.999Z</time></trkpt><trkpt lat="42.040483761337704" lon="13.084976386197505"><ele>696.0</ele><time>2026-03-29T11:55:07.999Z</time></trkpt><trkpt lat="42.0405605882055" lon="13.084899804752554"><ele>696.0</ele><time>2026-03-29T11:55:08.999Z</time></trkpt><trkpt lat="42.040649081171836" lon="13.084824056940748"><ele>696.0</ele><time>2026-03-29T11:55:09.999Z</time></trkpt><trkpt lat="42.04075073212159" lon="13.084745992362588"><ele>696.0</ele><time>2026-03-29T11:55:10.999Z</time></trkpt><trkpt lat="42.04085937836157" lon="13.084664326214797"><ele>696.0</ele><time>2026-03-29T11:55:11.999Z</time></trkpt><trkpt lat="42.04096494977315" lon="13.08458497020115"><ele>701.0</ele><time>2026-03-29T11:55:12.999Z</time></trkpt><trkpt lat="42.041082805021325" lon="13.08449317760142"><ele>706.0</ele><time>2026-03-29T11:55:13.999Z</time></trkpt><trkpt lat="42.0411995610275" lon="13.084380779001"><ele>711.0</ele><time>2026-03-29T11:55:14.999Z</time></trkpt><trkpt lat="42.04132476389286" lon="13.084281820525634"><ele>716.0</ele><time>2026-03-29T11:55:15.999Z</time></trkpt><trkpt lat="42.041456801531844" lon="13.084191540549096"><ele>716.0</ele><time>2026-03-29T11:55:16.999Z</time></trkpt><trkpt lat="42.041580164530274" lon="13.084109355155354"><ele>716.0</ele><time>2026-03-29T11:55:17.999Z</time></trkpt><trkpt lat="42.04168115584718" lon="13.084067211776325"><ele>716.0</ele><time>2026-03-29T11:55:18.999Z</time></trkpt><trkpt lat="42.0417745219352" lon="13.08411083087113"><ele>716.0</ele><time>2026-03-29T11:55:20.999Z</time></trkpt><trkpt lat="42.04184160793889" lon="13.084253680444696"><ele>720.5999999999999</ele><time>2026-03-29T11:55:22.999Z</time></trkpt><trkpt lat="42.04189122754354" lon="13.084325276734896"><ele>725.2</ele><time>2026-03-29T11:55:23.999Z</time></trkpt><trkpt lat="42.04194886536591" lon="13.084457243499184"><ele>729.8</ele><time>2026-03-29T11:55:25.999Z</time></trkpt><trkpt lat="42.04201828755675" lon="13.08455024461759"><ele>734.4000000000001</ele><time>2026-03-29T11:56:21Z</time></trkpt><trkpt lat="42.04205109126161" lon="13.084703403754185"><ele>739.0</ele><time>2026-03-29T11:56:23Z</time></trkpt><trkpt lat="42.04206579351726" lon="13.084812606405226"><ele>739.0</ele><time>2026-03-29T11:56:24Z</time></trkpt><trkpt lat="42.042085274384476" lon="13.084928237138822"><ele>739.0</ele><time>2026-03-29T11:56:25Z</time></trkpt><trkpt lat="42.04211375338644" lon="13.085063132735794"><ele>739.0</ele><time>2026-03-29T11:56:26Z</time></trkpt><trkpt lat="42.04216118693563" lon="13.085178333387057"><ele>739.0</ele><time>2026-03-29T11:56:27Z</time></trkpt><trkpt lat="42.04222107589311" lon="13.085273471996315"><ele>739.0</ele><time>2026-03-29T11:56:28Z</time></trkpt><trkpt lat="42.04226788872869" lon="13.085363175836374"><ele>742.6666666666667</ele><time>2026-03-29T11:56:29Z</time></trkpt><trkpt lat="42.042305028382145" lon="13.0854622945496"><ele>746.3333333333334</ele><time>2026-03-29T11:56:30Z</time></trkpt><trkpt lat="42.042310939702716" lon="13.085560624229753"><ele>750.0</ele><time>2026-03-29T11:56:31Z</time></trkpt><trkpt lat="42.042273585571536" lon="13.085638358142722"><ele>753.6666666666666</ele><time>2026-03-29T11:56:31.999Z</time></trkpt><trkpt lat="42.04222132533929" lon="13.08569778884554"><ele>757.3333333333333</ele><time>2026-03-29T11:56:32.999Z</time></trkpt><trkpt lat="42.04214242399858" lon="13.085713560125797"><ele>761.0</ele><time>2026-03-29T11:56:33.999Z</time></trkpt><trkpt lat="42.042054132748106" lon="13.085753245883273"><ele>757.5999999999999</ele><time>2026-03-29T11:56:34.999Z</time></trkpt><trkpt lat="42.04195597892419" lon="13.085813175164539"><ele>754.2</ele><time>2026-03-29T11:56:35.999Z</time></trkpt><trkpt lat="42.04186952853564" lon="13.085845396118481"><ele>750.8</ele><time>2026-03-29T11:56:36.999Z</time></trkpt><trkpt lat="42.041782038049206" lon="13.085851736331877"><ele>747.4000000000001</ele><time>2026-03-29T11:56:37.999Z</time></trkpt><trkpt lat="42.041714346279626" lon="13.085812429391453"><ele>744.0</ele><time>2026-03-29T11:56:38.999Z</time></trkpt><trkpt lat="42.04162889207687" lon="13.08570965429347"><ele>744.0000000000001</ele><time>2026-03-29T11:56:40.999Z</time></trkpt><trkpt lat="42.04156955057608" lon="13.085662153753098"><ele>744.0</ele><time>2026-03-29T11:56:42.999Z</time></trkpt><trkpt lat="42.041558563416935" lon="13.085752772651787"><ele>744.0</ele><time>2026-03-29T11:56:45.999Z</time></trkpt><trkpt lat="42.041556930290476" lon="13.08584255917502"><ele>744.0</ele><time>2026-03-29T11:56:46.999Z</time></trkpt><trkpt lat="42.04155161118185" lon="13.085930541897387"><ele>744.0</ele><time>2026-03-29T11:56:47.999Z</time></trkpt><trkpt lat="42.04153854836778" lon="13.086013780394886"><ele>744.0000000000001</ele><time>2026-03-29T11:56:48.999Z</time></trkpt><trkpt lat="42.041537677646744" lon="13.08614412598792"><ele>744.0</ele><time>2026-03-29T11:56:50.999Z</time></trkpt><trkpt lat="42.041506409219735" lon="13.086269086171718"><ele>749.1666666666666</ele><time>2026-03-29T11:56:54.999Z</time></trkpt><trkpt lat="42.04146782338518" lon="13.086359144004222"><ele>754.3333333333333</ele><time>2026-03-29T11:56:55.999Z</time></trkpt><trkpt lat="42.041475264941624" lon="13.086502572686246"><ele>759.5</ele><time>2026-03-29T11:56:57.999Z</time></trkpt><trkpt lat="42.04151652036888" lon="13.086584755698158"><ele>764.6666666666666</ele><time>2026-03-29T11:56:58.999Z</time></trkpt><trkpt lat="42.04154713161448" lon="13.086660808686428"><ele>769.8333333333333</ele><time>2026-03-29T11:56:59.999Z</time></trkpt><trkpt lat="42.04157353802186" lon="13.08674924739734"><ele>775.0</ele><time>2026-03-29T11:57:00.999Z</time></trkpt><trkpt lat="42.04160346568027" lon="13.086848513362717"><ele>779.3333333333333</ele><time>2026-03-29T11:57:01.999Z</time></trkpt><trkpt lat="42.04163972323674" lon="13.086946584258401"><ele>783.6666666666666</ele><time>2026-03-29T11:57:02.999Z</time></trkpt><trkpt lat="42.04168599084381" lon="13.087020847764958"><ele>788.0</ele><time>2026-03-29T11:57:03.999Z</time></trkpt><trkpt lat="42.04165749494258" lon="13.087150060229254"><ele>792.3333333333333</ele><time>2026-03-29T11:57:05.999Z</time></trkpt><trkpt lat="42.04159280440307" lon="13.087186988018733"><ele>796.6666666666666</ele><time>2026-03-29T11:57:06.999Z</time></trkpt><trkpt lat="42.04151889548451" lon="13.087197815276033"><ele>801.0</ele><time>2026-03-29T11:57:07.999Z</time></trkpt><trkpt lat="42.04141022640101" lon="13.087204577700431"><ele>801.0</ele><time>2026-03-29T11:57:09.999Z</time></trkpt><trkpt lat="42.04133499009401" lon="13.087243541348602"><ele>801.0</ele><time>2026-03-29T11:57:10.999Z</time></trkpt><trkpt lat="42.04126323097733" lon="13.087263977146042"><ele>801.0</ele><time>2026-03-29T11:57:11.999Z</time></trkpt><trkpt lat="42.04115070744461" lon="13.087292842251044"><ele>801.0</ele><time>2026-03-29T11:57:13.999Z</time></trkpt><trkpt lat="42.0410843095372" lon="13.087257256405987"><ele>801.0</ele><time>2026-03-29T11:57:14.999Z</time></trkpt><trkpt lat="42.041019125964276" lon="13.087185966592436"><ele>801.0</ele><time>2026-03-29T11:57:16.999Z</time></trkpt><trkpt lat="42.04095497554759" lon="13.087141878759802"><ele>801.0</ele><time>2026-03-29T11:57:17.999Z</time></trkpt><trkpt lat="42.04088768666463" lon="13.087171351213202"><ele>801.0</ele><time>2026-03-29T11:57:19.999Z</time></trkpt><trkpt lat="42.040875566206466" lon="13.087314927123915"><ele>801.0</ele><time>2026-03-29T11:57:21.999Z</time></trkpt><trkpt lat="42.04087601387336" lon="13.08744266180846"><ele>801.0</ele><time>2026-03-29T11:57:22.999Z</time></trkpt><trkpt lat="42.04088387387075" lon="13.08755534115844"><ele>801.0</ele><time>2026-03-29T11:57:23.999Z</time></trkpt><trkpt lat="42.0408797785656" lon="13.087675193058017"><ele>801.0</ele><time>2026-03-29T11:57:24.999Z</time></trkpt><trkpt lat="42.040861324618064" lon="13.087793024630185"><ele>800.0</ele><time>2026-03-29T11:57:25.999Z</time></trkpt><trkpt lat="42.040821903218806" lon="13.087947895079823"><ele>799.0</ele><time>2026-03-29T11:57:26.999Z</time></trkpt><trkpt lat="42.04078988478425" lon="13.08808894308695"><ele>798.0</ele><time>2026-03-29T11:57:27.999Z</time></trkpt><trkpt lat="42.04076523213714" lon="13.088186186724537"><ele>797.0</ele><time>2026-03-29T11:57:28.999Z</time></trkpt><trkpt lat="42.04075811211089" lon="13.088282426761602"><ele>796.0</ele><time>2026-03-29T11:57:29.999Z</time></trkpt><trkpt lat="42.04077085899279" lon="13.08837233343348"><ele>795.0</ele><time>2026-03-29T11:57:30.999Z</time></trkpt><trkpt lat="42.040779427130026" lon="13.088468206368079"><ele>797.8333333333334</ele><time>2026-03-29T11:57:31.999Z</time></trkpt><trkpt lat="42.04075654127697" lon="13.088558589173436"><ele>800.6666666666667</ele><time>2026-03-29T11:57:32.999Z</time></trkpt><trkpt lat="42.0407392832629" lon="13.088663699984409"><ele>803.5</ele><time>2026-03-29T11:57:33.999Z</time></trkpt><trkpt lat="42.04072641460537" lon="13.088756833687674"><ele>806.3333333333334</ele><time>2026-03-29T11:57:34.999Z</time></trkpt><trkpt lat="42.040703910044684" lon="13.088842488421157"><ele>809.1666666666667</ele><time>2026-03-29T11:57:35.999Z</time></trkpt><trkpt lat="42.040688583776074" lon="13.08893888554366"><ele>812.0</ele><time>2026-03-29T11:57:36.999Z</time></trkpt><trkpt lat="42.040668293723996" lon="13.089069104614651"><ele>814.7142857142857</ele><time>2026-03-29T11:57:38.999Z</time></trkpt><trkpt lat="42.04065301474904" lon="13.089166509179872"><ele>817.4285714285714</ele><time>2026-03-29T11:57:39.999Z</time></trkpt><trkpt lat="42.0406362493259" lon="13.089285840146147"><ele>820.1428571428571</ele><time>2026-03-29T11:57:41.999Z</time></trkpt><trkpt lat="42.04070801017106" lon="13.089277912727109"><ele>822.8571428571429</ele><time>2026-03-29T11:57:45.999Z</time></trkpt><trkpt lat="42.04070346908369" lon="13.089191860933312"><ele>825.5714285714286</ele><time>2026-03-29T11:57:53.999Z</time></trkpt><trkpt lat="42.04074885954138" lon="13.089253637562283"><ele>828.2857142857142</ele><time>2026-03-29T11:58:15Z</time></trkpt><trkpt lat="42.040744508347316" lon="13.089345640309352"><ele>831.0</ele><time>2026-03-29T11:58:18Z</time></trkpt><trkpt lat="42.04076728030111" lon="13.089444398676635"><ele>837.0</ele><time>2026-03-29T11:58:21Z</time></trkpt><trkpt lat="42.040843458855676" lon="13.089430546514201"><ele>843.0</ele><time>2026-03-29T11:58:24Z</time></trkpt><trkpt lat="42.04094401662139" lon="13.08940218891832"><ele>849.0</ele><time>2026-03-29T11:58:26Z</time></trkpt><trkpt lat="42.04101330575697" lon="13.089485812651725"><ele>855.0</ele><time>2026-03-29T11:58:28Z</time></trkpt><trkpt lat="42.041094059476976" lon="13.089520541793972"><ele>861.0</ele><time>2026-03-29T11:58:32.999Z</time></trkpt><trkpt lat="42.04115941130869" lon="13.089530539754932"><ele>867.0</ele><time>2026-03-29T11:58:34.999Z</time></trkpt><trkpt lat="42.041248878774915" lon="13.08952989907882"><ele>867.0</ele><time>2026-03-29T11:58:36.999Z</time></trkpt><trkpt lat="42.04131861021735" lon="13.089505056353726"><ele>867.0</ele><time>2026-03-29T11:58:37.999Z</time></trkpt><trkpt lat="42.0413797707049" lon="13.08947662706835"><ele>867.0</ele><time>2026-03-29T11:58:38.999Z</time></trkpt><trkpt lat="42.041477127160796" lon="13.08941514772469"><ele>867.0</ele><time>2026-03-29T11:58:40.999Z</time></trkpt><trkpt lat="42.04150302208352" lon="13.089508103174914"><ele>867.0</ele><time>2026-03-29T11:58:45.999Z</time></trkpt><trkpt lat="42.04144841118332" lon="13.089585573695793"><ele>867.0</ele><time>2026-03-29T11:58:47.999Z</time></trkpt><trkpt lat="42.04141151827179" lon="13.089721363582663"><ele>867.0</ele><time>2026-03-29T11:58:49.999Z</time></trkpt><trkpt lat="42.04137649916278" lon="13.089797823018063"><ele>867.0</ele><time>2026-03-29T11:58:50.999Z</time></trkpt><trkpt lat="42.04134026073293" lon="13.089893093503791"><ele>867.0</ele><time>2026-03-29T11:58:51.999Z</time></trkpt><trkpt lat="42.04130475068053" lon="13.089999880265383"><ele>867.0</ele><time>2026-03-29T11:58:52.999Z</time></trkpt><trkpt lat="42.04126839328003" lon="13.090100201725082"><ele>867.0</ele><time>2026-03-29T11:58:53.999Z</time></trkpt><trkpt lat="42.04121144604827" lon="13.090239433207179"><ele>867.0</ele><time>2026-03-29T11:58:55.999Z</time></trkpt><trkpt lat="42.041170062409954" lon="13.090322419519733"><ele>870.8333333333334</ele><time>2026-03-29T11:58:56.999Z</time></trkpt><trkpt lat="42.04112233531829" lon="13.090441964412921"><ele>874.6666666666667</ele><time>2026-03-29T11:58:58.999Z</time></trkpt><trkpt lat="42.041115315588414" lon="13.090542792555139"><ele>878.5</ele><time>2026-03-29T11:59:00.999Z</time></trkpt><trkpt lat="42.04110542675882" lon="13.090633823372135"><ele>882.3333333333334</ele><time>2026-03-29T11:59:05.999Z</time></trkpt><trkpt lat="42.04109552900293" lon="13.090732352789146"><ele>886.1666666666667</ele><time>2026-03-29T11:59:07.999Z</time></trkpt><trkpt lat="42.04107138105968" lon="13.090817576119036"><ele>890.0</ele><time>2026-03-29T11:59:09.999Z</time></trkpt><trkpt lat="42.041071475535425" lon="13.090904450849573"><ele>893.3333333333334</ele><time>2026-03-29T11:59:11.999Z</time></trkpt><trkpt lat="42.04106512319501" lon="13.09102342367385"><ele>896.6666666666667</ele><time>2026-03-29T11:59:13.999Z</time></trkpt><trkpt lat="42.04104493590218" lon="13.091163851103774"><ele>900.0</ele><time>2026-03-29T11:59:15.999Z</time></trkpt><trkpt lat="42.04106823019774" lon="13.09124998398584"><ele>903.3333333333333</ele><time>2026-03-29T11:59:17.999Z</time></trkpt><trkpt lat="42.04113651554007" lon="13.09120079527763"><ele>906.6666666666666</ele><time>2026-03-29T11:59:19.999Z</time></trkpt><trkpt lat="42.04121499894659" lon="13.091136567829441"><ele>910.0</ele><time>2026-03-29T11:59:21.999Z</time></trkpt><trkpt lat="42.041292809705716" lon="13.091142276672562"><ele>909.9999999999999</ele><time>2026-03-29T11:59:23.999Z</time></trkpt><trkpt lat="42.041360803476394" lon="13.091112757443067"><ele>910.0</ele><time>2026-03-29T11:59:27.999Z</time></trkpt><trkpt lat="42.04143777016522" lon="13.09107013678648"><ele>910.0</ele><time>2026-03-29T11:59:29.999Z</time></trkpt><trkpt lat="42.041503212491925" lon="13.091023907116982"><ele>910.0</ele><time>2026-03-29T11:59:31.999Z</time></trkpt><trkpt lat="42.041595961426275" lon="13.090987800284527"><ele>909.9999999999999</ele><time>2026-03-29T11:59:33.999Z</time></trkpt><trkpt lat="42.0417035618139" lon="13.090948508940558"><ele>910.0</ele><time>2026-03-29T11:59:35.999Z</time></trkpt><trkpt lat="42.041763127627036" lon="13.090913243704719"><ele>912.0</ele><time>2026-03-29T11:59:36.999Z</time></trkpt><trkpt lat="42.04183406351985" lon="13.090881938556592"><ele>914.0</ele><time>2026-03-29T11:59:37.999Z</time></trkpt><trkpt lat="42.04192855456005" lon="13.090823259608026"><ele>916.0</ele><time>2026-03-29T11:59:39.999Z</time></trkpt><trkpt lat="42.042028375452" lon="13.090758203916609"><ele>918.0</ele><time>2026-03-29T11:59:41.999Z</time></trkpt><trkpt lat="42.04212887545053" lon="13.090687619200484"><ele>920.0</ele><time>2026-03-29T11:59:43.999Z</time></trkpt><trkpt lat="42.042230582888884" lon="13.090612246545883"><ele>919.9999999999999</ele><time>2026-03-29T11:59:45.999Z</time></trkpt><trkpt lat="42.042297316802596" lon="13.090594471424081"><ele>920.0</ele><time>2026-03-29T11:59:47.999Z</time></trkpt><trkpt lat="42.04229927264709" lon="13.090695568404763"><ele>919.9999999999999</ele><time>2026-03-29T11:59:50.999Z</time></trkpt><trkpt lat="42.042260541250485" lon="13.090790920955774"><ele>919.9999999999999</ele><time>2026-03-29T11:59:53.999Z</time></trkpt><trkpt lat="42.04225244876363" lon="13.090882916293944"><ele>920.0</ele><time>2026-03-29T11:59:55.999Z</time></trkpt><trkpt lat="42.04222813203614" lon="13.09096160012693"><ele>919.9999999999999</ele><time>2026-03-29T11:59:58.999Z</time></trkpt><trkpt lat="42.04219898378552" lon="13.091073658458562"><ele>919.9999999999999</ele><time>2026-03-29T12:00:01.999Z</time></trkpt><trkpt lat="42.04215210362295" lon="13.09126085452702"><ele>923.5000000000001</ele><time>2026-03-29T12:00:03.999Z</time></trkpt><trkpt lat="42.04212745191531" lon="13.091370901000344"><ele>927.0</ele><time>2026-03-29T12:00:05.999Z</time></trkpt><trkpt lat="42.0420956784956" lon="13.091477732076038"><ele>930.5</ele><time>2026-03-29T12:00:07.999Z</time></trkpt><trkpt lat="42.04206099535958" lon="13.091561830403343"><ele>934.0</ele><time>2026-03-29T12:00:11Z</time></trkpt><trkpt lat="42.042024263205406" lon="13.091698003272247"><ele>937.5000000000001</ele><time>2026-03-29T12:00:14Z</time></trkpt><trkpt lat="42.042000932511925" lon="13.091814551590362"><ele>941.0</ele><time>2026-03-29T12:00:16Z</time></trkpt><trkpt lat="42.042059756072305" lon="13.091768637990938"><ele>941.0000000000001</ele><time>2026-03-29T12:00:32Z</time></trkpt><trkpt lat="42.04210075613945" lon="13.091661179699278"><ele>941.0</ele><time>2026-03-29T12:00:35Z</time></trkpt><trkpt lat="42.04214995933218" lon="13.091598763943209"><ele>941.0</ele><time>2026-03-29T12:00:37.999Z</time></trkpt><trkpt lat="42.04222454828993" lon="13.091536271381354"><ele>941.0</ele><time>2026-03-29T12:00:39.999Z</time></trkpt><trkpt lat="42.04230624201488" lon="13.091465843215868"><ele>941.0000000000001</ele><time>2026-03-29T12:00:40.999Z</time></trkpt><trkpt lat="42.04237726551098" lon="13.091402761550704"><ele>941.0</ele><time>2026-03-29T12:00:41.999Z</time></trkpt><trkpt lat="42.04243298948871" lon="13.091350358175706"><ele>946.5000000000001</ele><time>2026-03-29T12:00:42.999Z</time></trkpt><trkpt lat="42.042506223435055" lon="13.091303597459182"><ele>952.0</ele><time>2026-03-29T12:00:43.999Z</time></trkpt><trkpt lat="42.04258465059734" lon="13.09124488556612"><ele>957.5</ele><time>2026-03-29T12:00:44.999Z</time></trkpt><trkpt lat="42.042638590333794" lon="13.091200078627375"><ele>963.0</ele><time>2026-03-29T12:00:45.999Z</time></trkpt><trkpt lat="42.042736212324826" lon="13.09117090780732"><ele>968.5000000000001</ele><time>2026-03-29T12:00:47.999Z</time></trkpt><trkpt lat="42.04282821289595" lon="13.091125994072273"><ele>974.0</ele><time>2026-03-29T12:00:49.999Z</time></trkpt><trkpt lat="42.04291391122567" lon="13.091092947558675"><ele>974.0000000000001</ele><time>2026-03-29T12:00:51.999Z</time></trkpt><trkpt lat="42.04298087556588" lon="13.09106924686257"><ele>974.0</ele><time>2026-03-29T12:00:53.999Z</time></trkpt><trkpt lat="42.043075630363234" lon="13.091033296929417"><ele>974.0</ele><time>2026-03-29T12:00:55.999Z</time></trkpt><trkpt lat="42.043138482383824" lon="13.091015631837784"><ele>974.0</ele><time>2026-03-29T12:00:56.999Z</time></trkpt><trkpt lat="42.04321694358044" lon="13.090982742502545"><ele>974.0000000000001</ele><time>2026-03-29T12:00:57.999Z</time></trkpt><trkpt lat="42.04333083365467" lon="13.090990243189607"><ele>974.0</ele><time>2026-03-29T12:00:59.999Z</time></trkpt><trkpt lat="42.04338786190656" lon="13.09105204691989"><ele>977.5000000000001</ele><time>2026-03-29T12:01:02.999Z</time></trkpt><trkpt lat="42.043351743547326" lon="13.091130904119506"><ele>981.0</ele><time>2026-03-29T12:01:07.999Z</time></trkpt><trkpt lat="42.043404516463276" lon="13.091215378249835"><ele>984.5</ele><time>2026-03-29T12:01:10.999Z</time></trkpt><trkpt lat="42.043449794235734" lon="13.091274783739905"><ele>988.0</ele><time>2026-03-29T12:01:12.999Z</time></trkpt><trkpt lat="42.04347520821356" lon="13.091367510953152"><ele>991.5000000000001</ele><time>2026-03-29T12:02:28Z</time></trkpt><trkpt lat="42.0434464269219" lon="13.091467611667108"><ele>995.0</ele><time>2026-03-29T12:02:31Z</time></trkpt><trkpt lat="42.04341662806195" lon="13.091572684327037"><ele>999.4</ele><time>2026-03-29T12:02:35Z</time></trkpt><trkpt lat="42.043412681147686" lon="13.091699257260249"><ele>1003.8</ele><time>2026-03-29T12:02:37Z</time></trkpt><trkpt lat="42.04341169270643" lon="13.091809360876777"><ele>1008.2</ele><time>2026-03-29T12:02:39Z</time></trkpt><trkpt lat="42.04337944468804" lon="13.091924209331326"><ele>1012.6</ele><time>2026-03-29T12:02:42Z</time></trkpt><trkpt lat="42.043329721123726" lon="13.092025948746334"><ele>1017.0</ele><time>2026-03-29T12:02:44.999Z</time></trkpt><trkpt lat="42.04334965557624" lon="13.09216081556576"><ele>1017.0</ele><time>2026-03-29T12:02:46.999Z</time></trkpt><trkpt lat="42.043362656098154" lon="13.092286438097823"><ele>1017.0</ele><time>2026-03-29T12:02:49.999Z</time></trkpt><trkpt lat="42.04341463194187" lon="13.092373289432048"><ele>1017.0</ele><time>2026-03-29T12:02:51.999Z</time></trkpt><trkpt lat="42.04348252886855" lon="13.09249085890939"><ele>1017.0</ele><time>2026-03-29T12:02:53.999Z</time></trkpt><trkpt lat="42.04352879157939" lon="13.092608369121603"><ele>1017.0</ele><time>2026-03-29T12:02:55.999Z</time></trkpt><trkpt lat="42.04357116435796" lon="13.092732004514748"><ele>1020.1666666666666</ele><time>2026-03-29T12:02:57.999Z</time></trkpt><trkpt lat="42.04359200520985" lon="13.092825770684566"><ele>1023.3333333333333</ele><time>2026-03-29T12:03:01.999Z</time></trkpt><trkpt lat="42.04360542901127" lon="13.092928746543883"><ele>1026.5</ele><time>2026-03-29T12:03:04.999Z</time></trkpt><trkpt lat="42.04358110481332" lon="13.093007230784066"><ele>1029.6666666666665</ele><time>2026-03-29T12:03:06.999Z</time></trkpt><trkpt lat="42.04351378203308" lon="13.093101104712307"><ele>1032.8333333333333</ele><time>2026-03-29T12:03:08.999Z</time></trkpt><trkpt lat="42.04345561864529" lon="13.093158232965633"><ele>1036.0</ele><time>2026-03-29T12:03:10.999Z</time></trkpt><trkpt lat="42.04344542539988" lon="13.0932515326868"><ele>1037.6666666666665</ele><time>2026-03-29T12:03:14.999Z</time></trkpt><trkpt lat="42.04345748229204" lon="13.093341424297451"><ele>1039.3333333333333</ele><time>2026-03-29T12:03:17.999Z</time></trkpt><trkpt lat="42.043464780223076" lon="13.09347714218354"><ele>1041.0</ele><time>2026-03-29T12:03:19.999Z</time></trkpt><trkpt lat="42.04344981446131" lon="13.093560376131485"><ele>1042.6666666666667</ele><time>2026-03-29T12:03:22.999Z</time></trkpt><trkpt lat="42.04346699115665" lon="13.093645509655678"><ele>1044.3333333333335</ele><time>2026-03-29T12:03:25.999Z</time></trkpt><trkpt lat="42.04345889993228" lon="13.09373854624899"><ele>1046.0</ele><time>2026-03-29T12:03:28.999Z</time></trkpt><trkpt lat="42.0435173190684" lon="13.09386709809635"><ele>1046.0</ele><time>2026-03-29T12:04:11.999Z</time></trkpt><trkpt lat="42.04355214262977" lon="13.09394398168419"><ele>1046.0</ele><time>2026-03-29T12:04:12.999Z</time></trkpt><trkpt lat="42.04361040313133" lon="13.094032595651246"><ele>1046.0</ele><time>2026-03-29T12:04:13.999Z</time></trkpt><trkpt lat="42.04366711538836" lon="13.09410668293666"><ele>1046.0</ele><time>2026-03-29T12:04:14.999Z</time></trkpt><trkpt lat="42.04372775112901" lon="13.094166005502451"><ele>1046.0</ele><time>2026-03-29T12:04:15.999Z</time></trkpt><trkpt lat="42.04381538393602" lon="13.094221462961459"><ele>1046.0</ele><time>2026-03-29T12:04:17.999Z</time></trkpt><trkpt lat="42.04387313999967" lon="13.094303670182159"><ele>1048.6666666666667</ele><time>2026-03-29T12:04:19.999Z</time></trkpt><trkpt lat="42.04393342378164" lon="13.094396920903295"><ele>1051.3333333333335</ele><time>2026-03-29T12:04:21.999Z</time></trkpt><trkpt lat="42.04399512757645" lon="13.094544570623414"><ele>1054.0</ele><time>2026-03-29T12:04:24Z</time></trkpt><trkpt lat="42.04402562945322" lon="13.094621748202586"><ele>1056.6666666666667</ele><time>2026-03-29T12:04:25Z</time></trkpt><trkpt lat="42.044041485915194" lon="13.094718815543043"><ele>1059.3333333333333</ele><time>2026-03-29T12:04:27Z</time></trkpt><trkpt lat="42.044058662553326" lon="13.09481065768928"><ele>1062.0</ele><time>2026-03-29T12:04:29Z</time></trkpt><trkpt lat="42.044115655851066" lon="13.094898953209784"><ele>1054.8</ele><time>2026-03-29T12:04:35Z</time></trkpt><trkpt lat="42.0441454319974" lon="13.09501036639379"><ele>1047.6</ele><time>2026-03-29T12:04:37Z</time></trkpt><trkpt lat="42.04415520540143" lon="13.095147698469548"><ele>1040.3999999999999</ele><time>2026-03-29T12:04:39Z</time></trkpt><trkpt lat="42.04418046999872" lon="13.095268672508297"><ele>1033.2</ele><time>2026-03-29T12:04:41Z</time></trkpt><trkpt lat="42.04421603187346" lon="13.095370888296316"><ele>1026.0</ele><time>2026-03-29T12:04:43Z</time></trkpt><trkpt lat="42.04423311892193" lon="13.095493570665603"><ele>1026.0000000000002</ele><time>2026-03-29T12:04:45Z</time></trkpt><trkpt lat="42.044230549727764" lon="13.095587609732215"><ele>1026.0</ele><time>2026-03-29T12:04:46Z</time></trkpt><trkpt lat="42.04421113577476" lon="13.095685942035267"><ele>1026.0</ele><time>2026-03-29T12:04:47Z</time></trkpt><trkpt lat="42.04419748944705" lon="13.09577859202119"><ele>1026.0</ele><time>2026-03-29T12:04:49.999Z</time></trkpt><trkpt lat="42.04421518983381" lon="13.09586627762672"><ele>1026.0</ele><time>2026-03-29T12:04:51.999Z</time></trkpt><trkpt lat="42.044265448414194" lon="13.095933748107784"><ele>1026.0000000000002</ele><time>2026-03-29T12:04:53.999Z</time></trkpt><trkpt lat="42.044317356389705" lon="13.096001243888477"><ele>1026.0</ele><time>2026-03-29T12:04:56.999Z</time></trkpt><trkpt lat="42.04451086426249" lon="13.096201214853332"><ele>1026.3999999999999</ele><time>2026-03-29T12:04:59.999Z</time></trkpt><trkpt lat="42.044574503177756" lon="13.096330584834833"><ele>1026.8</ele><time>2026-03-29T12:05:01.999Z</time></trkpt><trkpt lat="42.04461324212073" lon="13.096470154622214"><ele>1027.1999999999998</ele><time>2026-03-29T12:05:03.999Z</time></trkpt><trkpt lat="42.04465881404382" lon="13.09661856930436"><ele>1027.6</ele><time>2026-03-29T12:05:05.999Z</time></trkpt><trkpt lat="42.04468598111829" lon="13.096743929981319"><ele>1028.0</ele><time>2026-03-29T12:05:07.999Z</time></trkpt><trkpt lat="42.04471772258105" lon="13.096835337847596"><ele>1028.0</ele><time>2026-03-29T12:05:09.999Z</time></trkpt><trkpt lat="42.044751969489866" lon="13.09691235111482"><ele>1028.0</ele><time>2026-03-29T12:05:12.999Z</time></trkpt><trkpt lat="42.04481266592061" lon="13.096881594638894"><ele>1028.0</ele><time>2026-03-29T12:05:33.999Z</time></trkpt><trkpt lat="42.04485815971148" lon="13.096761518231649"><ele>1028.0</ele><time>2026-03-29T12:05:34.999Z</time></trkpt><trkpt lat="42.04489530943172" lon="13.096620449344906"><ele>1028.0</ele><time>2026-03-29T12:05:36.999Z</time></trkpt><trkpt lat="42.04491119353171" lon="13.096529995165477"><ele>1028.0</ele><time>2026-03-29T12:05:38.999Z</time></trkpt><trkpt lat="42.044902649232135" lon="13.09640844502875"><ele>1028.0</ele><time>2026-03-29T12:05:40.999Z</time></trkpt><trkpt lat="42.044922921164726" lon="13.096319421288523"><ele>1028.0</ele><time>2026-03-29T12:05:42.999Z</time></trkpt><trkpt lat="42.04491674999201" lon="13.096233443131137"><ele>1028.0</ele><time>2026-03-29T12:05:45.999Z</time></trkpt><trkpt lat="42.04498354786933" lon="13.09627039914587"><ele>1028.0</ele><time>2026-03-29T12:05:49.999Z</time></trkpt><trkpt lat="42.04503561889475" lon="13.096326840845968"><ele>1028.0</ele><time>2026-03-29T12:05:50.999Z</time></trkpt><trkpt lat="42.045092943278405" lon="13.096440560500843"><ele>1028.0</ele><time>2026-03-29T12:05:52.999Z</time></trkpt><trkpt lat="42.045176991323466" lon="13.09639650040229"><ele>1017.4</ele><time>2026-03-29T12:05:56.999Z</time></trkpt><trkpt lat="42.04518901459648" lon="13.096283904145935"><ele>1006.8</ele><time>2026-03-29T12:05:58.999Z</time></trkpt><trkpt lat="42.0453094232779" lon="13.096199271323245"><ele>996.2</ele><time>2026-03-29T12:06:00.999Z</time></trkpt><trkpt lat="42.045403548647656" lon="13.096170392802776"><ele>985.6</ele><time>2026-03-29T12:06:01.999Z</time></trkpt><trkpt lat="42.0454660773277" lon="13.096148554350233"><ele>975.0</ele><time>2026-03-29T12:06:02.999Z</time></trkpt><trkpt lat="42.04554354244776" lon="13.096106851099375"><ele>975.0</ele><time>2026-03-29T12:06:04.999Z</time></trkpt><trkpt lat="42.04560740403192" lon="13.0960709091854"><ele>974.9999999999999</ele><time>2026-03-29T12:06:05.999Z</time></trkpt><trkpt lat="42.04568087840773" lon="13.096044646639811"><ele>975.0</ele><time>2026-03-29T12:06:06.999Z</time></trkpt><trkpt lat="42.04574399534783" lon="13.096029953562924"><ele>975.0</ele><time>2026-03-29T12:06:07.999Z</time></trkpt><trkpt lat="42.04583027521363" lon="13.095993750731445"><ele>974.9999999999999</ele><time>2026-03-29T12:06:09.999Z</time></trkpt><trkpt lat="42.04589742583169" lon="13.095984378879388"><ele>975.0</ele><time>2026-03-29T12:06:12.999Z</time></trkpt><trkpt lat="42.04597444700261" lon="13.096015614818596"><ele>975.0</ele><time>2026-03-29T12:06:15.999Z</time></trkpt><trkpt lat="42.04603776844399" lon="13.096024751309788"><ele>971.4</ele><time>2026-03-29T12:06:19.999Z</time></trkpt><trkpt lat="42.04611188850979" lon="13.096064151801674"><ele>967.8</ele><time>2026-03-29T12:06:22.999Z</time></trkpt><trkpt lat="42.0462769637987" lon="13.096170804639602"><ele>964.2</ele><time>2026-03-29T12:06:24.999Z</time></trkpt><trkpt lat="42.046337760999286" lon="13.096276417184082"><ele>960.6</ele><time>2026-03-29T12:06:26.998Z</time></trkpt><trkpt lat="42.04635329738741" lon="13.096363803010906"><ele>957.0</ele><time>2026-03-29T12:06:31Z</time></trkpt><trkpt lat="42.04641217301467" lon="13.096312237559108"><ele>957.0</ele><time>2026-03-29T12:06:40Z</time></trkpt><trkpt lat="42.046469583822294" lon="13.096350640809979"><ele>957.0</ele><time>2026-03-29T12:06:54.999Z</time></trkpt><trkpt lat="42.04652229087604" lon="13.096273791928699"><ele>957.0</ele><time>2026-03-29T12:07:08.999Z</time></trkpt><trkpt lat="42.04653333339868" lon="13.096164193525594"><ele>957.0</ele><time>2026-03-29T12:07:11.999Z</time></trkpt><trkpt lat="42.0466089152798" lon="13.096209617419309"><ele>957.0</ele><time>2026-03-29T12:07:17.999Z</time></trkpt><trkpt lat="42.04663662903965" lon="13.096310131459015"><ele>957.0</ele><time>2026-03-29T12:07:20.999Z</time></trkpt><trkpt lat="42.04667957533625" lon="13.096241732789165"><ele>950.5</ele><time>2026-03-29T12:07:25.999Z</time></trkpt><trkpt lat="42.046702705144696" lon="13.096152433019522"><ele>944.0</ele><time>2026-03-29T12:07:28.999Z</time></trkpt><trkpt lat="42.04679027484721" lon="13.096230434536642"><ele>937.5</ele><time>2026-03-29T12:07:32.999Z</time></trkpt><trkpt lat="42.046811189525975" lon="13.096349295429654"><ele>931.0</ele><time>2026-03-29T12:07:34.999Z</time></trkpt><trkpt lat="42.04683040101225" lon="13.096466872503317"><ele>924.5</ele><time>2026-03-29T12:07:38.999Z</time></trkpt><trkpt lat="42.0468314112709" lon="13.096587792328435"><ele>918.0</ele><time>2026-03-29T12:07:40.999Z</time></trkpt><trkpt lat="42.046894891051316" lon="13.096556800766693"><ele>917.8333333333334</ele><time>2026-03-29T12:07:46.999Z</time></trkpt><trkpt lat="42.046928797259824" lon="13.096677607398922"><ele>917.6666666666667</ele><time>2026-03-29T12:07:52.999Z</time></trkpt><trkpt lat="42.046909016829346" lon="13.096766858557299"><ele>917.5</ele><time>2026-03-29T12:07:54.999Z</time></trkpt><trkpt lat="42.04693119933873" lon="13.09684864468932"><ele>917.3333333333334</ele><time>2026-03-29T12:07:56.999Z</time></trkpt><trkpt lat="42.046931072538385" lon="13.096937637999956"><ele>917.1666666666667</ele><time>2026-03-29T12:07:58.999Z</time></trkpt><trkpt lat="42.046932992739265" lon="13.097039544613173"><ele>917.0</ele><time>2026-03-29T12:08:01.999Z</time></trkpt><trkpt lat="42.046928412163496" lon="13.097188584893074"><ele>917.0</ele><time>2026-03-29T12:08:03.999Z</time></trkpt><trkpt lat="42.04691648553525" lon="13.097291304504335"><ele>917.0</ele><time>2026-03-29T12:08:05.999Z</time></trkpt><trkpt lat="42.04697822005002" lon="13.097324469313175"><ele>917.0</ele><time>2026-03-29T12:08:11.999Z</time></trkpt><trkpt lat="42.04704900244754" lon="13.097267480036367"><ele>917.0</ele><time>2026-03-29T12:08:13.999Z</time></trkpt><trkpt lat="42.047139965926554" lon="13.097187704096843"><ele>917.0</ele><time>2026-03-29T12:08:15.999Z</time></trkpt><trkpt lat="42.04724261702983" lon="13.097090473254571"><ele>917.0</ele><time>2026-03-29T12:08:17.999Z</time></trkpt><trkpt lat="42.047334760677224" lon="13.097000080838049"><ele>917.0</ele><time>2026-03-29T12:08:19.999Z</time></trkpt><trkpt lat="42.04737818092957" lon="13.096875152163905"><ele>917.0</ele><time>2026-03-29T12:08:21.999Z</time></trkpt><trkpt lat="42.04742087173085" lon="13.096769351273016"><ele>917.0</ele><time>2026-03-29T12:08:23.999Z</time></trkpt><trkpt lat="42.0474686804477" lon="13.096674044844464"><ele>917.0</ele><time>2026-03-29T12:08:25.999Z</time></trkpt><trkpt lat="42.04752834974912" lon="13.09656363427536"><ele>908.0000000000001</ele><time>2026-03-29T12:08:27.999Z</time></trkpt><trkpt lat="42.04755277631617" lon="13.09641910472964"><ele>899.0</ele><time>2026-03-29T12:08:29.998Z</time></trkpt><trkpt lat="42.0475193126812" lon="13.096339159608016"><ele>890.0</ele><time>2026-03-29T12:08:31.998Z</time></trkpt><trkpt lat="42.04757480670781" lon="13.096384912840572"><ele>881.0</ele><time>2026-03-29T12:08:38Z</time></trkpt><trkpt lat="42.04763900792788" lon="13.096519181849075"><ele>872.0000000000001</ele><time>2026-03-29T12:08:40Z</time></trkpt><trkpt lat="42.04767050388" lon="13.09662704798368"><ele>863.0</ele><time>2026-03-29T12:08:42Z</time></trkpt><trkpt lat="42.0476902956742" lon="13.09673316564372"><ele>863.0000000000001</ele><time>2026-03-29T12:08:44Z</time></trkpt><trkpt lat="42.04770667872942" lon="13.096819981701612"><ele>863.0</ele><time>2026-03-29T12:08:46Z</time></trkpt><trkpt lat="42.04772916042902" lon="13.096912845504859"><ele>863.0</ele><time>2026-03-29T12:08:49Z</time></trkpt><trkpt lat="42.04773408674128" lon="13.096999845174745"><ele>863.0</ele><time>2026-03-29T12:08:52.999Z</time></trkpt><trkpt lat="42.04778675847223" lon="13.096952817804382"><ele>863.0</ele><time>2026-03-29T12:09:19.999Z</time></trkpt><trkpt lat="42.0478197038239" lon="13.096847132073622"><ele>863.0000000000001</ele><time>2026-03-29T12:09:21.999Z</time></trkpt><trkpt lat="42.047855571133454" lon="13.096753305001474"><ele>863.0</ele><time>2026-03-29T12:09:23.999Z</time></trkpt><trkpt lat="42.04788694790673" lon="13.096603145971454"><ele>863.0000000000001</ele><time>2026-03-29T12:09:25.999Z</time></trkpt><trkpt lat="42.04790841294973" lon="13.096490283941163"><ele>863.0</ele><time>2026-03-29T12:09:27.999Z</time></trkpt><trkpt lat="42.047913401215496" lon="13.096377831366187"><ele>863.0</ele><time>2026-03-29T12:09:30.999Z</time></trkpt><trkpt lat="42.04795535525771" lon="13.096463217626027"><ele>863.0</ele><time>2026-03-29T12:09:33.999Z</time></trkpt><trkpt lat="42.0479760876481" lon="13.096549944973567"><ele>863.0000000000001</ele><time>2026-03-29T12:09:34.999Z</time></trkpt><trkpt lat="42.048006364075384" lon="13.09665522411786"><ele>863.0</ele><time>2026-03-29T12:09:35.999Z</time></trkpt><trkpt lat="42.04805775516019" lon="13.096777288982098"><ele>863.0000000000001</ele><time>2026-03-29T12:09:37.999Z</time></trkpt><trkpt lat="42.04807354764911" lon="13.096898215232555"><ele>863.0</ele><time>2026-03-29T12:09:39.999Z</time></trkpt><trkpt lat="42.04807635419214" lon="13.096988794293905"><ele>863.0</ele><time>2026-03-29T12:09:41.999Z</time></trkpt><trkpt lat="42.04807955233018" lon="13.09707686761479"><ele>863.0</ele><time>2026-03-29T12:09:43.999Z</time></trkpt><trkpt lat="42.04815495215253" lon="13.09710466262462"><ele>863.0000000000001</ele><time>2026-03-29T12:09:48.999Z</time></trkpt><trkpt lat="42.04820752999277" lon="13.09719708357081"><ele>863.0</ele><time>2026-03-29T12:09:54.999Z</time></trkpt><trkpt lat="42.048208622284385" lon="13.097297550707022"><ele>860.6666666666667</ele><time>2026-03-29T12:09:55.999Z</time></trkpt><trkpt lat="42.0481905400838" lon="13.097431025954936"><ele>858.3333333333334</ele><time>2026-03-29T12:09:57.999Z</time></trkpt><trkpt lat="42.04815479060606" lon="13.097542848955873"><ele>856.0</ele><time>2026-03-29T12:09:59.999Z</time></trkpt><trkpt lat="42.048130553777476" lon="13.09765431320193"><ele>853.6666666666667</ele><time>2026-03-29T12:10:01.999Z</time></trkpt><trkpt lat="42.048091828696634" lon="13.097763444416694"><ele>851.3333333333334</ele><time>2026-03-29T12:10:03.999Z</time></trkpt><trkpt lat="42.04806618330649" lon="13.097847893499965"><ele>849.0</ele><time>2026-03-29T12:10:05.999Z</time></trkpt><trkpt lat="42.04814290397431" lon="13.097834798078475"><ele>849.0</ele><time>2026-03-29T12:10:09.999Z</time></trkpt><trkpt lat="42.04821051397735" lon="13.0977404898004"><ele>849.0</ele><time>2026-03-29T12:10:11.999Z</time></trkpt><trkpt lat="42.04827503197714" lon="13.097680527151734"><ele>849.0</ele><time>2026-03-29T12:10:13.999Z</time></trkpt><trkpt lat="42.0483313423951" lon="13.097633736933842"><ele>849.0</ele><time>2026-03-29T12:10:16.999Z</time></trkpt><trkpt lat="42.048366358647634" lon="13.097726180152877"><ele>849.0</ele><time>2026-03-29T12:10:21.999Z</time></trkpt><trkpt lat="42.04833143758721" lon="13.097813355572264"><ele>849.0</ele><time>2026-03-29T12:10:22.999Z</time></trkpt><trkpt lat="42.04831684814127" lon="13.097931365403477"><ele>849.0</ele><time>2026-03-29T12:10:23.999Z</time></trkpt><trkpt lat="42.04830518011713" lon="13.098025287165608"><ele>849.0</ele><time>2026-03-29T12:10:24.999Z</time></trkpt><trkpt lat="42.048260508036925" lon="13.098163547451144"><ele>849.0</ele><time>2026-03-29T12:10:26.999Z</time></trkpt><trkpt lat="42.048230316384426" lon="13.09828822813891"><ele>849.0</ele><time>2026-03-29T12:10:28.999Z</time></trkpt><trkpt lat="42.04820214594905" lon="13.098409475251472"><ele>849.0</ele><time>2026-03-29T12:10:30.998Z</time></trkpt><trkpt lat="42.048135178200944" lon="13.098561846227017"><ele>844.25</ele><time>2026-03-29T12:10:32.998Z</time></trkpt><trkpt lat="42.04810981109699" lon="13.09870968453386"><ele>839.5</ele><time>2026-03-29T12:10:34.998Z</time></trkpt><trkpt lat="42.04805868048244" lon="13.0988547230142"><ele>834.75</ele><time>2026-03-29T12:10:36.998Z</time></trkpt><trkpt lat="42.04800229472828" lon="13.09902851996354"><ele>830.0</ele><time>2026-03-29T12:10:38.998Z</time></trkpt><trkpt lat="42.04797646530999" lon="13.09914888706391"><ele>826.8333333333334</ele><time>2026-03-29T12:10:39.999Z</time></trkpt><trkpt lat="42.04797180006874" lon="13.099243211973823"><ele>823.6666666666667</ele><time>2026-03-29T12:10:40.999Z</time></trkpt><trkpt lat="42.0479477654382" lon="13.099325378577065"><ele>820.5</ele><time>2026-03-29T12:10:41.999Z</time></trkpt><trkpt lat="42.047911363076196" lon="13.099445761332097"><ele>817.3333333333333</ele><time>2026-03-29T12:10:43.999Z</time></trkpt><trkpt lat="42.04789344173758" lon="13.099542837072047"><ele>814.1666666666666</ele><time>2026-03-29T12:10:45.999Z</time></trkpt><trkpt lat="42.04787903694083" lon="13.099646879489443"><ele>811.0</ele><time>2026-03-29T12:10:47.999Z</time></trkpt><trkpt lat="42.047921824297255" lon="13.099773455791679"><ele>811.0</ele><time>2026-03-29T12:10:49.999Z</time></trkpt><trkpt lat="42.047983634721135" lon="13.099898975101235"><ele>811.0</ele><time>2026-03-29T12:10:51.999Z</time></trkpt><trkpt lat="42.04805760668745" lon="13.100018253901947"><ele>811.0</ele><time>2026-03-29T12:10:53.999Z</time></trkpt><trkpt lat="42.04811765586041" lon="13.100145717375062"><ele>811.0</ele><time>2026-03-29T12:10:55.999Z</time></trkpt><trkpt lat="42.048191831202914" lon="13.100279168195275"><ele>810.5999999999999</ele><time>2026-03-29T12:10:57.999Z</time></trkpt><trkpt lat="42.04824634332415" lon="13.100342295445348"><ele>810.2</ele><time>2026-03-29T12:10:58.999Z</time></trkpt><trkpt lat="42.04829468056212" lon="13.100402924890032"><ele>809.8</ele><time>2026-03-29T12:10:59.999Z</time></trkpt><trkpt lat="42.048366882845144" lon="13.100560166855166"><ele>809.4000000000001</ele><time>2026-03-29T12:11:01.999Z</time></trkpt><trkpt lat="42.0483873641837" lon="13.100694288137731"><ele>809.0</ele><time>2026-03-29T12:11:02.999Z</time></trkpt><trkpt lat="42.04845514331189" lon="13.100830682686436"><ele>799.0</ele><time>2026-03-29T12:11:03.999Z</time></trkpt><trkpt lat="42.04853815458486" lon="13.10094553123872"><ele>789.0</ele><time>2026-03-29T12:11:04.999Z</time></trkpt><trkpt lat="42.04862250143676" lon="13.101057329180748"><ele>779.0</ele><time>2026-03-29T12:11:05.999Z</time></trkpt><trkpt lat="42.04864262221846" lon="13.101138613679984"><ele>769.0</ele><time>2026-03-29T12:11:06.999Z</time></trkpt><trkpt lat="42.04870267849162" lon="13.10123279882946"><ele>759.0</ele><time>2026-03-29T12:11:08.999Z</time></trkpt><trkpt lat="42.04874696815863" lon="13.101305450401576"><ele>759.0</ele><time>2026-03-29T12:11:10.999Z</time></trkpt><trkpt lat="42.04881912870331" lon="13.10139398982771"><ele>759.0</ele><time>2026-03-29T12:11:12.999Z</time></trkpt><trkpt lat="42.04891255924126" lon="13.101403444898432"><ele>759.0</ele><time>2026-03-29T12:11:14.999Z</time></trkpt><trkpt lat="42.048989660380094" lon="13.10143973799122"><ele>759.0</ele><time>2026-03-29T12:11:16.999Z</time></trkpt><trkpt lat="42.049076535752796" lon="13.101481500574842"><ele>759.0</ele><time>2026-03-29T12:11:30.999Z</time></trkpt><trkpt lat="42.049163173174065" lon="13.101464753519963"><ele>753.8333333333334</ele><time>2026-03-29T12:11:32.999Z</time></trkpt><trkpt lat="42.04922228861148" lon="13.101382458706157"><ele>748.6666666666666</ele><time>2026-03-29T12:12:15Z</time></trkpt><trkpt lat="42.04930853853778" lon="13.10131119660936"><ele>743.5</ele><time>2026-03-29T12:12:17Z</time></trkpt><trkpt lat="42.049374412491524" lon="13.101239313696745"><ele>738.3333333333333</ele><time>2026-03-29T12:12:19Z</time></trkpt><trkpt lat="42.04947061563506" lon="13.101176217761962"><ele>733.1666666666666</ele><time>2026-03-29T12:12:21Z</time></trkpt><trkpt lat="42.04951404978427" lon="13.101107630017053"><ele>728.0</ele><time>2026-03-29T12:12:25Z</time></trkpt><trkpt lat="42.04949563715574" lon="13.101025821934138"><ele>728.0</ele><time>2026-03-29T12:12:39.999Z</time></trkpt><trkpt lat="42.04955999044616" lon="13.100980255183282"><ele>728.0</ele><time>2026-03-29T12:12:51Z</time></trkpt><trkpt lat="42.04960357027646" lon="13.100908065368666"><ele>728.0</ele><time>2026-03-29T12:12:56Z</time></trkpt><trkpt lat="42.049648500703334" lon="13.100823787403934"><ele>728.0</ele><time>2026-03-29T12:12:58Z</time></trkpt><trkpt lat="42.049712689911686" lon="13.100781753166393"><ele>728.0</ele><time>2026-03-29T12:13:03Z</time></trkpt><trkpt lat="42.04976461145545" lon="13.100717053734686"><ele>728.0</ele><time>2026-03-29T12:13:05Z</time></trkpt><trkpt lat="42.04983868860623" lon="13.100654800860374"><ele>728.0</ele><time>2026-03-29T12:13:08Z</time></trkpt><trkpt lat="42.04990717955742" lon="13.100630301045081"><ele>728.8</ele><time>2026-03-29T12:13:10Z</time></trkpt><trkpt lat="42.049990413600604" lon="13.100583838922091"><ele>729.5999999999999</ele><time>2026-03-29T12:13:12Z</time></trkpt><trkpt lat="42.05007587806131" lon="13.100520052591456"><ele>730.4000000000001</ele><time>2026-03-29T12:13:14Z</time></trkpt><trkpt lat="42.05015956459031" lon="13.100475689653498"><ele>731.2</ele><time>2026-03-29T12:13:17Z</time></trkpt><trkpt lat="42.050255245131474" lon="13.100464098527285"><ele>732.0</ele><time>2026-03-29T12:13:19Z</time></trkpt><trkpt lat="42.05032888569962" lon="13.100438536211902"><ele>732.0</ele><time>2026-03-29T12:13:20Z</time></trkpt><trkpt lat="42.05040298836676" lon="13.100398883411334"><ele>732.0</ele><time>2026-03-29T12:13:21Z</time></trkpt><trkpt lat="42.050465089834226" lon="13.100367309145133"><ele>732.0</ele><time>2026-03-29T12:13:22Z</time></trkpt><trkpt lat="42.050537515364866" lon="13.10028600955028"><ele>732.0</ele><time>2026-03-29T12:13:24Z</time></trkpt><trkpt lat="42.05063379323478" lon="13.100245276015686"><ele>732.0</ele><time>2026-03-29T12:13:26Z</time></trkpt><trkpt lat="42.05069692415969" lon="13.10020779221303"><ele>732.0</ele><time>2026-03-29T12:13:27Z</time></trkpt><trkpt lat="42.05077216203559" lon="13.100097131827447"><ele>732.8</ele><time>2026-03-29T12:13:29Z</time></trkpt><trkpt lat="42.05084577295717" lon="13.10002500884613"><ele>733.6</ele><time>2026-03-29T12:13:31Z</time></trkpt><trkpt lat="42.05093977884991" lon="13.09996889060818"><ele>734.4</ele><time>2026-03-29T12:13:33Z</time></trkpt><trkpt lat="42.05098510140356" lon="13.099903694411175"><ele>735.1999999999999</ele><time>2026-03-29T12:13:34Z</time></trkpt><trkpt lat="42.05108545645035" lon="13.099825695788695"><ele>736.0</ele><time>2026-03-29T12:13:36Z</time></trkpt><trkpt lat="42.051153723867344" lon="13.099737337264003"><ele>736.0</ele><time>2026-03-29T12:13:38Z</time></trkpt><trkpt lat="42.0511979030488" lon="13.099629709057831"><ele>736.0</ele><time>2026-03-29T12:13:40Z</time></trkpt><trkpt lat="42.05126539248853" lon="13.099526292695128"><ele>736.0</ele><time>2026-03-29T12:13:42Z</time></trkpt><trkpt lat="42.05131831939061" lon="13.09944965522366"><ele>736.0</ele><time>2026-03-29T12:13:44Z</time></trkpt><trkpt lat="42.05140385063093" lon="13.099370725457415"><ele>736.0</ele><time>2026-03-29T12:13:46Z</time></trkpt><trkpt lat="42.051447772316045" lon="13.099307674775634"><ele>736.0</ele><time>2026-03-29T12:13:47Z</time></trkpt><trkpt lat="42.051545312460355" lon="13.099239152326922"><ele>737.8</ele><time>2026-03-29T12:13:49Z</time></trkpt><trkpt lat="42.05163708350542" lon="13.099174337724385"><ele>739.5999999999999</ele><time>2026-03-29T12:13:51Z</time></trkpt><trkpt lat="42.051698231115324" lon="13.09914885679741"><ele>741.4</ele><time>2026-03-29T12:13:55Z</time></trkpt><trkpt lat="42.051783975712624" lon="13.09921831990696"><ele>743.2</ele><time>2026-03-29T12:14:08Z</time></trkpt><trkpt lat="42.05187213293045" lon="13.099302274645549"><ele>745.0</ele><time>2026-03-29T12:14:10Z</time></trkpt><trkpt lat="42.0519598137339" lon="13.099361191722188"><ele>745.0</ele><time>2026-03-29T12:14:12Z</time></trkpt><trkpt lat="42.052038384165684" lon="13.099407758516806"><ele>745.0</ele><time>2026-03-29T12:14:14Z</time></trkpt><trkpt lat="42.0520952270179" lon="13.099470748063238"><ele>745.0</ele><time>2026-03-29T12:14:16Z</time></trkpt><trkpt lat="42.05216276449539" lon="13.099503122686112"><ele>745.0</ele><time>2026-03-29T12:14:18Z</time></trkpt><trkpt lat="42.05223728672211" lon="13.09959054471208"><ele>745.0</ele><time>2026-03-29T12:14:20Z</time></trkpt><trkpt lat="42.052319646092684" lon="13.09968632399857"><ele>745.0</ele><time>2026-03-29T12:14:22Z</time></trkpt><trkpt lat="42.052367783732144" lon="13.099773285198552"><ele>745.0</ele><time>2026-03-29T12:14:23Z</time></trkpt><trkpt lat="42.05240404322315" lon="13.099887608681795"><ele>745.0</ele><time>2026-03-29T12:14:24Z</time></trkpt><trkpt lat="42.05243432950925" lon="13.100007008014542"><ele>745.0</ele><time>2026-03-29T12:14:25Z</time></trkpt><trkpt lat="42.05244143003752" lon="13.100117091325258"><ele>745.0</ele><time>2026-03-29T12:14:26Z</time></trkpt><trkpt lat="42.05244652971148" lon="13.100211986212486"><ele>745.0</ele><time>2026-03-29T12:14:27Z</time></trkpt><trkpt lat="42.05245877416956" lon="13.100298778923634"><ele>745.0</ele><time>2026-03-29T12:14:28Z</time></trkpt><trkpt lat="42.05247131084882" lon="13.100402235106538"><ele>744.5</ele><time>2026-03-29T12:14:29Z</time></trkpt><trkpt lat="42.05248077643767" lon="13.100507654356166"><ele>744.0</ele><time>2026-03-29T12:14:30Z</time></trkpt><trkpt lat="42.052490205513564" lon="13.100603906890075"><ele>743.5</ele><time>2026-03-29T12:14:31Z</time></trkpt><trkpt lat="42.05250736412986" lon="13.10068633981941"><ele>743.0</ele><time>2026-03-29T12:14:32Z</time></trkpt><trkpt lat="42.05254925729444" lon="13.100848482494953"><ele>742.5</ele><time>2026-03-29T12:14:34Z</time></trkpt><trkpt lat="42.052574230465055" lon="13.100944131499014"><ele>742.0</ele><time>2026-03-29T12:14:35Z</time></trkpt><trkpt lat="42.05260542316092" lon="13.101036290046423"><ele>744.1666666666667</ele><time>2026-03-29T12:14:35.999Z</time></trkpt><trkpt lat="42.052638813667535" lon="13.101131373977534"><ele>746.3333333333334</ele><time>2026-03-29T12:14:36.999Z</time></trkpt><trkpt lat="42.05266757432116" lon="13.101217103281419"><ele>748.5</ele><time>2026-03-29T12:14:37.999Z</time></trkpt><trkpt lat="42.05268643569289" lon="13.101305706948999"><ele>750.6666666666666</ele><time>2026-03-29T12:14:38.999Z</time></trkpt><trkpt lat="42.052754742469666" lon="13.10142724416203"><ele>752.8333333333333</ele><time>2026-03-29T12:14:40.999Z</time></trkpt><trkpt lat="42.05286027861791" lon="13.10147205613797"><ele>755.0</ele><time>2026-03-29T12:14:42.999Z</time></trkpt><trkpt lat="42.05297794331437" lon="13.101501298572732"><ele>755.0</ele><time>2026-03-29T12:14:44.999Z</time></trkpt><trkpt lat="42.0530411093726" lon="13.101501399028514"><ele>755.0</ele><time>2026-03-29T12:14:45.999Z</time></trkpt><trkpt lat="42.05315743732587" lon="13.101441845132006"><ele>755.0</ele><time>2026-03-29T12:14:47.999Z</time></trkpt><trkpt lat="42.053218699090344" lon="13.101406110674512"><ele>755.0</ele><time>2026-03-29T12:14:48.999Z</time></trkpt><trkpt lat="42.05328947545093" lon="13.101443776602759"><ele>755.0</ele><time>2026-03-29T12:14:52Z</time></trkpt><trkpt lat="42.05325880935313" lon="13.101560034165024"><ele>755.0</ele><time>2026-03-29T12:14:54Z</time></trkpt><trkpt lat="42.05325733110532" lon="13.101665968008575"><ele>756.2</ele><time>2026-03-29T12:14:56Z</time></trkpt><trkpt lat="42.05330335463993" lon="13.101731366633464"><ele>757.4</ele><time>2026-03-29T12:14:58Z</time></trkpt><trkpt lat="42.05336592325906" lon="13.101843764447874"><ele>758.5999999999999</ele><time>2026-03-29T12:15:00Z</time></trkpt><trkpt lat="42.053402760534716" lon="13.101964329442561"><ele>759.8</ele><time>2026-03-29T12:15:02Z</time></trkpt><trkpt lat="42.0534024753126" lon="13.102111902735338"><ele>761.0</ele><time>2026-03-29T12:15:04Z</time></trkpt><trkpt lat="42.053492309410615" lon="13.102253448744696"><ele>761.0</ele><time>2026-03-29T12:15:06Z</time></trkpt><trkpt lat="42.05355863962313" lon="13.102391436500445"><ele>761.0</ele><time>2026-03-29T12:15:08Z</time></trkpt><trkpt lat="42.05358852834734" lon="13.102499210902158"><ele>761.0</ele><time>2026-03-29T12:15:10Z</time></trkpt><trkpt lat="42.053639453005275" lon="13.10258675900975"><ele>761.0</ele><time>2026-03-29T12:15:31Z</time></trkpt><trkpt lat="42.05368956532173" lon="13.102747305237449"><ele>761.0</ele><time>2026-03-29T12:15:33Z</time></trkpt><trkpt lat="42.05370321687708" lon="13.102832957120642"><ele>763.5</ele><time>2026-03-29T12:15:34Z</time></trkpt><trkpt lat="42.05367788932379" lon="13.103000246316705"><ele>766.0</ele><time>2026-03-29T12:15:36Z</time></trkpt><trkpt lat="42.05365780137591" lon="13.103083618844712"><ele>768.5</ele><time>2026-03-29T12:15:37Z</time></trkpt><trkpt lat="42.05364994486208" lon="13.10316790072955"><ele>771.0</ele><time>2026-03-29T12:15:38Z</time></trkpt><trkpt lat="42.05364299750041" lon="13.10326351696735"><ele>773.5000000000001</ele><time>2026-03-29T12:15:39Z</time></trkpt><trkpt lat="42.05363384910474" lon="13.10335627356501"><ele>776.0</ele><time>2026-03-29T12:15:40Z</time></trkpt><trkpt lat="42.053627917773134" lon="13.103448629925234"><ele>778.5000000000001</ele><time>2026-03-29T12:15:41Z</time></trkpt><trkpt lat="42.053648765130916" lon="13.103551798724599"><ele>781.0</ele><time>2026-03-29T12:15:42Z</time></trkpt><trkpt lat="42.053681093147794" lon="13.103655088879753"><ele>783.5</ele><time>2026-03-29T12:15:43Z</time></trkpt><trkpt lat="42.053702659343664" lon="13.103759873618285"><ele>786.0</ele><time>2026-03-29T12:15:44Z</time></trkpt><trkpt lat="42.05372913306572" lon="13.10388164883749"><ele>788.5000000000001</ele><time>2026-03-29T12:15:45Z</time></trkpt><trkpt lat="42.053751475967616" lon="13.103989969904806"><ele>791.0</ele><time>2026-03-29T12:15:46Z</time></trkpt><trkpt lat="42.053801959442396" lon="13.104112128924358"><ele>789.1666666666667</ele><time>2026-03-29T12:15:48Z</time></trkpt><trkpt lat="42.05385923127253" lon="13.104169384328129"><ele>787.3333333333334</ele><time>2026-03-29T12:15:49Z</time></trkpt><trkpt lat="42.05393447714479" lon="13.104225388146352"><ele>785.5</ele><time>2026-03-29T12:15:50Z</time></trkpt><trkpt lat="42.05402117777408" lon="13.104263768133423"><ele>783.6666666666667</ele><time>2026-03-29T12:15:51Z</time></trkpt><trkpt lat="42.054086000294866" lon="13.10431302601764"><ele>781.8333333333334</ele><time>2026-03-29T12:15:52Z</time></trkpt><trkpt lat="42.05413277481128" lon="13.10437150017118"><ele>780.0</ele><time>2026-03-29T12:15:53Z</time></trkpt><trkpt lat="42.05420533005138" lon="13.104497034147744"><ele>780.0</ele><time>2026-03-29T12:15:55Z</time></trkpt><trkpt lat="42.05429669082278" lon="13.10451953023656"><ele>780.0</ele><time>2026-03-29T12:16:07Z</time></trkpt><trkpt lat="42.05435385031264" lon="13.104577098608816"><ele>780.0</ele><time>2026-03-29T12:16:09Z</time></trkpt><trkpt lat="42.05442046761979" lon="13.104557320895573"><ele>780.0</ele><time>2026-03-29T12:16:13Z</time></trkpt><trkpt lat="42.0544556498688" lon="13.104448654283146"><ele>780.0</ele><time>2026-03-29T12:16:16Z</time></trkpt><trkpt lat="42.054502932251474" lon="13.104297814964738"><ele>780.0</ele><time>2026-03-29T12:16:18Z</time></trkpt><trkpt lat="42.05453803804472" lon="13.104207645914009"><ele>780.0</ele><time>2026-03-29T12:16:19Z</time></trkpt><trkpt lat="42.054578648104716" lon="13.10412756784535"><ele>780.0</ele><time>2026-03-29T12:16:20Z</time></trkpt><trkpt lat="42.054648356280936" lon="13.10405144831063"><ele>780.0</ele><time>2026-03-29T12:16:22Z</time></trkpt><trkpt lat="42.05467944054828" lon="13.10397551495298"><ele>780.0</ele><time>2026-03-29T12:16:41.999Z</time></trkpt><trkpt lat="42.05474095998804" lon="13.103942532163515"><ele>780.0</ele><time>2026-03-29T12:17:07Z</time></trkpt><trkpt lat="42.054804244336815" lon="13.103926715247479"><ele>780.0</ele><time>2026-03-29T12:17:09Z</time></trkpt><trkpt lat="42.05491659640154" lon="13.103944781432956"><ele>779.2</ele><time>2026-03-29T12:17:11Z</time></trkpt><trkpt lat="42.05497495024736" lon="13.103977012460422"><ele>778.4</ele><time>2026-03-29T12:17:12Z</time></trkpt><trkpt lat="42.05503563038612" lon="13.104018169007787"><ele>777.5999999999999</ele><time>2026-03-29T12:17:13Z</time></trkpt><trkpt lat="42.055141923774165" lon="13.104088502373864"><ele>776.8</ele><time>2026-03-29T12:17:15Z</time></trkpt><trkpt lat="42.05520719878086" lon="13.104095110281207"><ele>776.0</ele><time>2026-03-29T12:17:16Z</time></trkpt><trkpt lat="42.05531362861953" lon="13.104221639868241"><ele>777.5999999999999</ele><time>2026-03-29T12:17:18Z</time></trkpt><trkpt lat="42.05537671043049" lon="13.104294074711513"><ele>779.2</ele><time>2026-03-29T12:17:19Z</time></trkpt><trkpt lat="42.05543610709627" lon="13.104336903698169"><ele>780.8</ele><time>2026-03-29T12:17:20Z</time></trkpt><trkpt lat="42.055552029144906" lon="13.104377310612668"><ele>782.4000000000001</ele><time>2026-03-29T12:17:22Z</time></trkpt><trkpt lat="42.055661615862846" lon="13.104425606996182"><ele>784.0</ele><time>2026-03-29T12:17:24Z</time></trkpt><trkpt lat="42.05577263455869" lon="13.104436898712281"><ele>783.6666666666666</ele><time>2026-03-29T12:17:26Z</time></trkpt><trkpt lat="42.05587886410675" lon="13.104443955662093"><ele>783.3333333333333</ele><time>2026-03-29T12:17:28Z</time></trkpt><trkpt lat="42.05597452424589" lon="13.104431401756303"><ele>783.0</ele><time>2026-03-29T12:17:30Z</time></trkpt><trkpt lat="42.05603331152616" lon="13.104532554817737"><ele>782.6666666666667</ele><time>2026-03-29T12:17:31Z</time></trkpt><trkpt lat="42.05609703193543" lon="13.104544591323469"><ele>782.3333333333334</ele><time>2026-03-29T12:17:32Z</time></trkpt><trkpt lat="42.05616861018899" lon="13.104496413367192"><ele>782.0</ele><time>2026-03-29T12:17:33Z</time></trkpt><trkpt lat="42.05623630568027" lon="13.104422945599364"><ele>782.0</ele><time>2026-03-29T12:17:34Z</time></trkpt><trkpt lat="42.05629282247675" lon="13.10432348840033"><ele>782.0</ele><time>2026-03-29T12:17:35Z</time></trkpt><trkpt lat="42.05634581289451" lon="13.104213126921373"><ele>782.0</ele><time>2026-03-29T12:17:36Z</time></trkpt><trkpt lat="42.056401346905595" lon="13.104076872609571"><ele>782.0</ele><time>2026-03-29T12:17:37Z</time></trkpt><trkpt lat="42.05646726406791" lon="13.103934723887502"><ele>782.0</ele><time>2026-03-29T12:17:38Z</time></trkpt><trkpt lat="42.05655711837809" lon="13.103805284605993"><ele>781.25</ele><time>2026-03-29T12:17:39Z</time></trkpt><trkpt lat="42.05663914941328" lon="13.103645258999695"><ele>780.5</ele><time>2026-03-29T12:17:40Z</time></trkpt><trkpt lat="42.0567163023006" lon="13.103484069920778"><ele>779.75</ele><time>2026-03-29T12:17:41Z</time></trkpt><trkpt lat="42.056791684119084" lon="13.10331388780982"><ele>779.0</ele><time>2026-03-29T12:17:42Z</time></trkpt><trkpt lat="42.05686762337078" lon="13.10314057290084"><ele>779.0</ele><time>2026-03-29T12:17:43Z</time></trkpt><trkpt lat="42.05694430217392" lon="13.10296926132363"><ele>779.0</ele><time>2026-03-29T12:17:44Z</time></trkpt><trkpt lat="42.057022178154796" lon="13.102813359309181"><ele>779.0</ele><time>2026-03-29T12:17:45Z</time></trkpt><trkpt lat="42.05709523877087" lon="13.102679220954217"><ele>779.0</ele><time>2026-03-29T12:17:46Z</time></trkpt><trkpt lat="42.05716615020086" lon="13.102567498656374"><ele>779.0</ele><time>2026-03-29T12:17:47Z</time></trkpt><trkpt lat="42.05726629296206" lon="13.102505368886018"><ele>779.0</ele><time>2026-03-29T12:17:48Z</time></trkpt><trkpt lat="42.05735594137292" lon="13.102395808880226"><ele>779.0</ele><time>2026-03-29T12:17:49Z</time></trkpt><trkpt lat="42.05745289616464" lon="13.102290309735269"><ele>779.0</ele><time>2026-03-29T12:17:50Z</time></trkpt><trkpt lat="42.057553572970846" lon="13.102193298335864"><ele>780.1666666666667</ele><time>2026-03-29T12:17:51Z</time></trkpt><trkpt lat="42.057642423754686" lon="13.102120201307988"><ele>781.3333333333334</ele><time>2026-03-29T12:17:52Z</time></trkpt><trkpt lat="42.057711485629696" lon="13.102050310208643"><ele>782.5</ele><time>2026-03-29T12:17:53Z</time></trkpt><trkpt lat="42.057775312305054" lon="13.10197777482618"><ele>783.6666666666667</ele><time>2026-03-29T12:17:54Z</time></trkpt><trkpt lat="42.0578371132559" lon="13.10189731927147"><ele>784.8333333333334</ele><time>2026-03-29T12:17:55Z</time></trkpt><trkpt lat="42.057897439938195" lon="13.101809218891303"><ele>786.0</ele><time>2026-03-29T12:17:56Z</time></trkpt><trkpt lat="42.05795711786832" lon="13.101714039687469"><ele>786.0</ele><time>2026-03-29T12:17:57Z</time></trkpt><trkpt lat="42.05800675961393" lon="13.101632238967627"><ele>786.0</ele><time>2026-03-29T12:17:58Z</time></trkpt><trkpt lat="42.05804898278539" lon="13.10156015058627"><ele>786.0</ele><time>2026-03-29T12:17:59Z</time></trkpt><trkpt lat="42.05810320569207" lon="13.101448348930965"><ele>786.0</ele><time>2026-03-29T12:18:01Z</time></trkpt><trkpt lat="42.05813618295017" lon="13.101370125966216"><ele>786.0</ele><time>2026-03-29T12:18:04Z</time></trkpt><trkpt lat="42.05819940152901" lon="13.101351344971873"><ele>786.0</ele><time>2026-03-29T12:19:13Z</time></trkpt><trkpt lat="42.058177323981816" lon="13.101444808027008"><ele>786.0</ele><time>2026-03-29T12:20:38Z</time></trkpt><trkpt lat="42.05813053686089" lon="13.101532359987354"><ele>786.0</ele><time>2026-03-29T12:20:41Z</time></trkpt><trkpt lat="42.05806753042318" lon="13.101578140905373"><ele>786.0</ele><time>2026-03-29T12:20:43Z</time></trkpt><trkpt lat="42.05795397481468" lon="13.101573745624496"><ele>786.0</ele><time>2026-03-29T12:20:45Z</time></trkpt><trkpt lat="42.0578610827757" lon="13.101628160642642"><ele>786.0</ele><time>2026-03-29T12:20:47Z</time></trkpt><trkpt lat="42.05780665403452" lon="13.101719643831938"><ele>786.0000000000001</ele><time>2026-03-29T12:20:48.999Z</time></trkpt><trkpt lat="42.057785098760306" lon="13.101802529014384"><ele>786.0</ele><time>2026-03-29T12:21:19Z</time></trkpt><trkpt lat="42.0578055640364" lon="13.101905001394394"><ele>786.0</ele><time>2026-03-29T12:21:34Z</time></trkpt><trkpt lat="42.05777713921198" lon="13.10199187364404"><ele>786.0</ele><time>2026-03-29T12:21:45Z</time></trkpt><trkpt lat="42.05779340318973" lon="13.101909319166904"><ele>786.0</ele><time>2026-03-29T12:21:48Z</time></trkpt><trkpt lat="42.05781653904596" lon="13.101993402591763"><ele>786.0000000000001</ele><time>2026-03-29T12:22:09.066Z</time></trkpt><trkpt lat="42.05780520993688" lon="13.101891020368301"><ele>786.0</ele><time>2026-03-29T12:25:54.998Z</time></trkpt><trkpt lat="42.05781604685589" lon="13.101806945146553"><ele>786.0</ele><time>2026-03-29T12:26:03Z</time></trkpt><trkpt lat="42.05779682654215" lon="13.101893975444149"><ele>786.0</ele><time>2026-03-29T12:41:14Z</time></trkpt><trkpt lat="42.057859773787634" lon="13.10193091576858"><ele>786.0</ele><time>2026-03-29T12:41:26Z</time></trkpt><trkpt lat="42.05792033444957" lon="13.10198575105736"><ele>786.0</ele><time>2026-03-29T12:41:33Z</time></trkpt><trkpt lat="42.05797574060288" lon="13.102070973608278"><ele>786.0</ele><time>2026-03-29T12:41:36Z</time></trkpt><trkpt lat="42.05796496277893" lon="13.10221563560039"><ele>786.0</ele><time>2026-03-29T12:41:44Z</time></trkpt><trkpt lat="42.0581772704407" lon="13.102314062546455"><ele>786.0</ele><time>2026-03-29T12:41:45Z</time></trkpt><trkpt lat="42.058271877658896" lon="13.102358642040608"><ele>786.0</ele><time>2026-03-29T12:41:47Z</time></trkpt><trkpt lat="42.0578125762183" lon="13.101880940193917"><ele>786.0</ele><time>2026-03-29T12:42:23.904Z</time></trkpt><trkpt lat="42.057762232074275" lon="13.101809490566799"><ele>786.0</ele><time>2026-03-29T12:47:02Z</time></trkpt><trkpt lat="42.05782319630347" lon="13.101783402089517"><ele>786.0</ele><time>2026-03-29T12:53:03Z</time></trkpt><trkpt lat="42.0577675641898" lon="13.10182907600794"><ele>786.0</ele><time>2026-03-29T12:55:36Z</time></trkpt><trkpt lat="42.057763810497704" lon="13.10192165892803"><ele>786.0</ele><time>2026-03-29T12:55:48.999Z</time></trkpt><trkpt lat="42.05767588480082" lon="13.102033320349516"><ele>786.0</ele><time>2026-03-29T12:55:50.999Z</time></trkpt><trkpt lat="42.05761776325998" lon="13.10210165725553"><ele>786.0</ele><time>2026-03-29T12:55:51.999Z</time></trkpt><trkpt lat="42.057549634261285" lon="13.10216281294381"><ele>786.0</ele><time>2026-03-29T12:55:52.999Z</time></trkpt><trkpt lat="42.05747461097021" lon="13.102237676140229"><ele>786.0</ele><time>2026-03-29T12:55:53.999Z</time></trkpt><trkpt lat="42.05740232869709" lon="13.102314852026208"><ele>786.0</ele><time>2026-03-29T12:55:54.999Z</time></trkpt><trkpt lat="42.057335877227665" lon="13.10238552877625"><ele>786.0</ele><time>2026-03-29T12:55:55.999Z</time></trkpt><trkpt lat="42.05728442874815" lon="13.102447269015418"><ele>786.0</ele><time>2026-03-29T12:55:56.999Z</time></trkpt><trkpt lat="42.05718676607202" lon="13.10252699636457"><ele>784.5999999999999</ele><time>2026-03-29T12:55:58.999Z</time></trkpt><trkpt lat="42.05708456231779" lon="13.10262475558712"><ele>783.2</ele><time>2026-03-29T12:56:00.999Z</time></trkpt><trkpt lat="42.057129314974176" lon="13.1027813130102"><ele>781.8</ele><time>2026-03-29T12:56:01.999Z</time></trkpt><trkpt lat="42.05710334316372" lon="13.102867938662094"><ele>780.4000000000001</ele><time>2026-03-29T12:56:02.999Z</time></trkpt><trkpt lat="42.057072243735746" lon="13.102955402707718"><ele>779.0</ele><time>2026-03-29T12:56:03.999Z</time></trkpt><trkpt lat="42.05704625567639" lon="13.103033834820188"><ele>779.0</ele><time>2026-03-29T12:56:04.999Z</time></trkpt><trkpt lat="42.057002295103935" lon="13.103160321619828"><ele>779.0</ele><time>2026-03-29T12:56:06.999Z</time></trkpt><trkpt lat="42.05694929687645" lon="13.103314156184847"><ele>779.0</ele><time>2026-03-29T12:56:08.999Z</time></trkpt><trkpt lat="42.05693909450224" lon="13.103408626476869"><ele>779.0</ele><time>2026-03-29T12:56:09.999Z</time></trkpt><trkpt lat="42.05689824623251" lon="13.103502962993689"><ele>779.0</ele><time>2026-03-29T12:56:10.999Z</time></trkpt><trkpt lat="42.05688298706511" lon="13.10362688949846"><ele>780.3333333333334</ele><time>2026-03-29T12:56:11.999Z</time></trkpt><trkpt lat="42.056836508267246" lon="13.103733176912767"><ele>781.6666666666667</ele><time>2026-03-29T12:56:12.999Z</time></trkpt><trkpt lat="42.05680554169908" lon="13.103834250345805"><ele>783.0</ele><time>2026-03-29T12:56:13.999Z</time></trkpt><trkpt lat="42.0567780452687" lon="13.103941289895708"><ele>784.3333333333333</ele><time>2026-03-29T12:56:14.999Z</time></trkpt><trkpt lat="42.056734466899755" lon="13.104038494668185"><ele>785.6666666666666</ele><time>2026-03-29T12:56:15.999Z</time></trkpt><trkpt lat="42.056687096486975" lon="13.104133651796971"><ele>787.0</ele><time>2026-03-29T12:56:16.999Z</time></trkpt><trkpt lat="42.05663905115176" lon="13.104218978957892"><ele>786.1666666666666</ele><time>2026-03-29T12:56:17.999Z</time></trkpt><trkpt lat="42.05656918475042" lon="13.104354382670463"><ele>785.3333333333333</ele><time>2026-03-29T12:56:19.999Z</time></trkpt><trkpt lat="42.05653932321079" lon="13.10442924339482"><ele>784.5</ele><time>2026-03-29T12:56:20.999Z</time></trkpt><trkpt lat="42.05649728899203" lon="13.104516494579137"><ele>783.6666666666667</ele><time>2026-03-29T12:56:21.999Z</time></trkpt><trkpt lat="42.05645182741331" lon="13.104615343991998"><ele>782.8333333333334</ele><time>2026-03-29T12:56:22.999Z</time></trkpt><trkpt lat="42.05639775686595" lon="13.104718571572207"><ele>782.0</ele><time>2026-03-29T12:56:23.999Z</time></trkpt><trkpt lat="42.056346350829095" lon="13.104818261698371"><ele>784.0</ele><time>2026-03-29T12:56:24.999Z</time></trkpt><trkpt lat="42.056301813801284" lon="13.104952109883524"><ele>786.0</ele><time>2026-03-29T12:56:25.999Z</time></trkpt><trkpt lat="42.056256662935034" lon="13.10506256524301"><ele>788.0</ele><time>2026-03-29T12:56:26.999Z</time></trkpt><trkpt lat="42.0562124146734" lon="13.105168123308868"><ele>790.0</ele><time>2026-03-29T12:56:27.999Z</time></trkpt><trkpt lat="42.05616165869309" lon="13.105276217577188"><ele>792.0</ele><time>2026-03-29T12:56:28.999Z</time></trkpt><trkpt lat="42.056111390909514" lon="13.10537623686562"><ele>792.0</ele><time>2026-03-29T12:56:29.999Z</time></trkpt><trkpt lat="42.05605932936855" lon="13.105477492707896"><ele>792.0</ele><time>2026-03-29T12:56:30.999Z</time></trkpt><trkpt lat="42.05600855240725" lon="13.10557399601068"><ele>792.0</ele><time>2026-03-29T12:56:31.999Z</time></trkpt><trkpt lat="42.055966997556304" lon="13.105642462788538"><ele>792.0</ele><time>2026-03-29T12:56:32.999Z</time></trkpt><trkpt lat="42.05593699173941" lon="13.10571940187144"><ele>792.0</ele><time>2026-03-29T12:56:34.999Z</time></trkpt><trkpt lat="42.0560319656686" lon="13.10575830331942"><ele>792.0</ele><time>2026-03-29T12:56:36.999Z</time></trkpt><trkpt lat="42.056119919663026" lon="13.105635773130876"><ele>792.0</ele><time>2026-03-29T12:56:38.999Z</time></trkpt><trkpt lat="42.05615784004011" lon="13.105555821360133"><ele>792.0</ele><time>2026-03-29T12:56:39.999Z</time></trkpt><trkpt lat="42.05622987942844" lon="13.105473277404839"><ele>792.0</ele><time>2026-03-29T12:56:41.999Z</time></trkpt><trkpt lat="42.05627525065315" lon="13.105405729461888"><ele>792.0</ele><time>2026-03-29T12:56:49.999Z</time></trkpt><trkpt lat="42.05635232908901" lon="13.105270695049702"><ele>792.0</ele><time>2026-03-29T12:56:51.999Z</time></trkpt><trkpt lat="42.05641847779496" lon="13.105185626607607"><ele>792.0</ele><time>2026-03-29T12:56:52.999Z</time></trkpt><trkpt lat="42.05650252153311" lon="13.10509653664212"><ele>792.0</ele><time>2026-03-29T12:56:53.999Z</time></trkpt><trkpt lat="42.05658059896004" lon="13.104991640673937"><ele>792.0</ele><time>2026-03-29T12:56:55Z</time></trkpt><trkpt lat="42.05667232096119" lon="13.104887422021845"><ele>792.0</ele><time>2026-03-29T12:56:56Z</time></trkpt><trkpt lat="42.056747610446" lon="13.104773657776704"><ele>793.2</ele><time>2026-03-29T12:56:57Z</time></trkpt><trkpt lat="42.05681996757262" lon="13.104691892953161"><ele>794.4000000000001</ele><time>2026-03-29T12:56:58Z</time></trkpt><trkpt lat="42.05689656561603" lon="13.104599058312933"><ele>795.5999999999999</ele><time>2026-03-29T12:56:59Z</time></trkpt><trkpt lat="42.056989211795994" lon="13.104503284360428"><ele>796.8</ele><time>2026-03-29T12:57:00Z</time></trkpt><trkpt lat="42.05708698080952" lon="13.104406396054074"><ele>798.0</ele><time>2026-03-29T12:57:01Z</time></trkpt><trkpt lat="42.057173979271276" lon="13.104330986363856"><ele>798.0</ele><time>2026-03-29T12:57:02Z</time></trkpt><trkpt lat="42.05726095061958" lon="13.104267949660676"><ele>798.0</ele><time>2026-03-29T12:57:03Z</time></trkpt><trkpt lat="42.05735273100238" lon="13.104212262769336"><ele>798.0</ele><time>2026-03-29T12:57:04Z</time></trkpt><trkpt lat="42.057450110293445" lon="13.104161080574283"><ele>798.0</ele><time>2026-03-29T12:57:05Z</time></trkpt><trkpt lat="42.057546527486195" lon="13.104081622666062"><ele>798.0</ele><time>2026-03-29T12:57:06Z</time></trkpt><trkpt lat="42.05763699498454" lon="13.104007932708736"><ele>799.8</ele><time>2026-03-29T12:57:07Z</time></trkpt><trkpt lat="42.05772459368805" lon="13.103932951800502"><ele>801.5999999999999</ele><time>2026-03-29T12:57:08Z</time></trkpt><trkpt lat="42.05783251697324" lon="13.103854550562279"><ele>803.4000000000001</ele><time>2026-03-29T12:57:09Z</time></trkpt><trkpt lat="42.05793138038075" lon="13.103784403759978"><ele>805.2</ele><time>2026-03-29T12:57:10Z</time></trkpt><trkpt lat="42.05802517379292" lon="13.10371423693815"><ele>807.0</ele><time>2026-03-29T12:57:11Z</time></trkpt><trkpt lat="42.05809391570819" lon="13.103657470840082"><ele>807.0</ele><time>2026-03-29T12:57:12Z</time></trkpt><trkpt lat="42.058138159780846" lon="13.103792659984855"><ele>807.0</ele><time>2026-03-29T12:57:15Z</time></trkpt><trkpt lat="42.058090568573874" lon="13.103925438007792"><ele>807.0</ele><time>2026-03-29T12:57:17Z</time></trkpt><trkpt lat="42.057995476161025" lon="13.104018887488465"><ele>807.0</ele><time>2026-03-29T12:57:18Z</time></trkpt><trkpt lat="42.05790908416568" lon="13.104143969035057"><ele>811.5</ele><time>2026-03-29T12:57:19Z</time></trkpt><trkpt lat="42.05781279512728" lon="13.104260210204888"><ele>816.0</ele><time>2026-03-29T12:57:20Z</time></trkpt><trkpt lat="42.05771543239335" lon="13.104382758787718"><ele>820.5</ele><time>2026-03-29T12:57:21Z</time></trkpt><trkpt lat="42.05761602753081" lon="13.104510544508482"><ele>825.0</ele><time>2026-03-29T12:57:22Z</time></trkpt><trkpt lat="42.05751688520942" lon="13.104638910286845"><ele>822.75</ele><time>2026-03-29T12:57:23Z</time></trkpt><trkpt lat="42.05740542331743" lon="13.10474801722852"><ele>820.5</ele><time>2026-03-29T12:57:24Z</time></trkpt><trkpt lat="42.05728243346333" lon="13.104835502441004"><ele>818.25</ele><time>2026-03-29T12:57:25Z</time></trkpt><trkpt lat="42.057171058053804" lon="13.104929600777368"><ele>816.0</ele><time>2026-03-29T12:57:26Z</time></trkpt><trkpt lat="42.05708530019806" lon="13.105058248573119"><ele>816.0</ele><time>2026-03-29T12:57:27Z</time></trkpt><trkpt lat="42.05700184733547" lon="13.105170232366511"><ele>816.0</ele><time>2026-03-29T12:57:28Z</time></trkpt><trkpt lat="42.05693092441548" lon="13.105296873314249"><ele>816.0</ele><time>2026-03-29T12:57:29Z</time></trkpt><trkpt lat="42.05686921591438" lon="13.10543810584986"><ele>816.0</ele><time>2026-03-29T12:57:30Z</time></trkpt><trkpt lat="42.056815195683036" lon="13.105577955081088"><ele>816.0</ele><time>2026-03-29T12:57:31Z</time></trkpt><trkpt lat="42.05675803516343" lon="13.105741089216387"><ele>816.0</ele><time>2026-03-29T12:57:32Z</time></trkpt><trkpt lat="42.05670649148638" lon="13.10590565911"><ele>816.0</ele><time>2026-03-29T12:57:33Z</time></trkpt><trkpt lat="42.05665310585093" lon="13.106089262463735"><ele>816.0</ele><time>2026-03-29T12:57:34Z</time></trkpt><trkpt lat="42.05661212517983" lon="13.106264033047406"><ele>814.25</ele><time>2026-03-29T12:57:35Z</time></trkpt><trkpt lat="42.056576316367256" lon="13.106454541238776"><ele>812.5</ele><time>2026-03-29T12:57:36Z</time></trkpt><trkpt lat="42.05654321966319" lon="13.106636377734402"><ele>810.75</ele><time>2026-03-29T12:57:37Z</time></trkpt><trkpt lat="42.05650145046568" lon="13.106835550248832"><ele>809.0</ele><time>2026-03-29T12:57:38Z</time></trkpt><trkpt lat="42.05644101627915" lon="13.10701966087626"><ele>813.0</ele><time>2026-03-29T12:57:39Z</time></trkpt><trkpt lat="42.056381374956445" lon="13.107171146519843"><ele>817.0</ele><time>2026-03-29T12:57:40Z</time></trkpt><trkpt lat="42.0563009706224" lon="13.107307687123544"><ele>821.0</ele><time>2026-03-29T12:57:41Z</time></trkpt><trkpt lat="42.05623502344879" lon="13.107423356461403"><ele>825.0</ele><time>2026-03-29T12:57:42Z</time></trkpt><trkpt lat="42.05619228751613" lon="13.107572285306157"><ele>828.5</ele><time>2026-03-29T12:57:43Z</time></trkpt><trkpt lat="42.05618690556011" lon="13.10772665477165"><ele>832.0</ele><time>2026-03-29T12:57:44Z</time></trkpt><trkpt lat="42.05619483643277" lon="13.107884790624311"><ele>835.5</ele><time>2026-03-29T12:57:45Z</time></trkpt><trkpt lat="42.05621785382597" lon="13.108055404008155"><ele>839.0</ele><time>2026-03-29T12:57:46Z</time></trkpt><trkpt lat="42.05621847083873" lon="13.108213721795183"><ele>842.1666666666667</ele><time>2026-03-29T12:57:46.999Z</time></trkpt><trkpt lat="42.05618710440049" lon="13.108341818840653"><ele>845.3333333333334</ele><time>2026-03-29T12:57:47.999Z</time></trkpt><trkpt lat="42.0561383787462" lon="13.108422875591627"><ele>848.5</ele><time>2026-03-29T12:57:48.999Z</time></trkpt><trkpt lat="42.05607700112233" lon="13.108458152030105"><ele>851.6666666666667</ele><time>2026-03-29T12:57:49.999Z</time></trkpt><trkpt lat="42.05599063169545" lon="13.108452916521431"><ele>854.8333333333334</ele><time>2026-03-29T12:57:50.999Z</time></trkpt><trkpt lat="42.05589653479172" lon="13.108446251666878"><ele>858.0</ele><time>2026-03-29T12:57:51.999Z</time></trkpt><trkpt lat="42.055809801245694" lon="13.108480296303803"><ele>858.8</ele><time>2026-03-29T12:57:52.999Z</time></trkpt><trkpt lat="42.055751551013245" lon="13.108572989355437"><ele>859.5999999999999</ele><time>2026-03-29T12:57:53.999Z</time></trkpt><trkpt lat="42.055701463761984" lon="13.108675244482"><ele>860.4000000000001</ele><time>2026-03-29T12:57:54.999Z</time></trkpt><trkpt lat="42.05563546116453" lon="13.108789962632978"><ele>861.2</ele><time>2026-03-29T12:57:55.999Z</time></trkpt><trkpt lat="42.05557932003969" lon="13.108936200185958"><ele>862.0</ele><time>2026-03-29T12:57:56.999Z</time></trkpt><trkpt lat="42.05551240367167" lon="13.109078275722641"><ele>862.6666666666666</ele><time>2026-03-29T12:57:57.999Z</time></trkpt><trkpt lat="42.05545987819366" lon="13.109193295404408"><ele>863.3333333333333</ele><time>2026-03-29T12:57:58.999Z</time></trkpt><trkpt lat="42.0554397840864" lon="13.109286610885015"><ele>864.0</ele><time>2026-03-29T12:57:59.999Z</time></trkpt><trkpt lat="42.0554934973689" lon="13.109412638567662"><ele>864.6666666666667</ele><time>2026-03-29T12:58:01.999Z</time></trkpt><trkpt lat="42.05555994734626" lon="13.109430280792761"><ele>865.3333333333334</ele><time>2026-03-29T12:58:02.999Z</time></trkpt><trkpt lat="42.05562549454926" lon="13.109386464547462"><ele>866.0</ele><time>2026-03-29T12:58:03.999Z</time></trkpt><trkpt lat="42.05566651993279" lon="13.109295835449524"><ele>866.0000000000001</ele><time>2026-03-29T12:58:04.999Z</time></trkpt><trkpt lat="42.05571752209443" lon="13.109203955548699"><ele>866.0</ele><time>2026-03-29T12:58:05.999Z</time></trkpt><trkpt lat="42.055765052234385" lon="13.109119440993927"><ele>866.0</ele><time>2026-03-29T12:58:06.999Z</time></trkpt><trkpt lat="42.05581868829489" lon="13.109034971842092"><ele>866.0</ele><time>2026-03-29T12:58:07.999Z</time></trkpt><trkpt lat="42.05588093156006" lon="13.108967051137991"><ele>866.0000000000001</ele><time>2026-03-29T12:58:08.999Z</time></trkpt><trkpt lat="42.05599753175195" lon="13.10891473441188"><ele>866.0</ele><time>2026-03-29T12:58:10.999Z</time></trkpt><trkpt lat="42.05608118377626" lon="13.108973615401574"><ele>867.1999999999999</ele><time>2026-03-29T12:58:11.999Z</time></trkpt><trkpt lat="42.05615441442106" lon="13.109060879456354"><ele>868.3999999999999</ele><time>2026-03-29T12:58:12.999Z</time></trkpt><trkpt lat="42.05622536275688" lon="13.109156562855024"><ele>869.6</ele><time>2026-03-29T12:58:13.999Z</time></trkpt><trkpt lat="42.056299273787666" lon="13.109246384152517"><ele>870.8</ele><time>2026-03-29T12:58:14.999Z</time></trkpt><trkpt lat="42.05638296281578" lon="13.109313126186795"><ele>872.0</ele><time>2026-03-29T12:58:15.999Z</time></trkpt><trkpt lat="42.05648199440736" lon="13.109343010343274"><ele>872.0</ele><time>2026-03-29T12:58:16.999Z</time></trkpt><trkpt lat="42.056579894448845" lon="13.109325144971733"><ele>872.0</ele><time>2026-03-29T12:58:17.999Z</time></trkpt><trkpt lat="42.056694199266104" lon="13.109316595664364"><ele>872.0</ele><time>2026-03-29T12:58:18.999Z</time></trkpt><trkpt lat="42.05681239698296" lon="13.109257939759848"><ele>872.0</ele><time>2026-03-29T12:58:19.999Z</time></trkpt><trkpt lat="42.056910683184654" lon="13.109178683572907"><ele>871.4000000000001</ele><time>2026-03-29T12:58:20.999Z</time></trkpt><trkpt lat="42.056996748041016" lon="13.109091467799402"><ele>870.8000000000001</ele><time>2026-03-29T12:58:21.999Z</time></trkpt><trkpt lat="42.05707024444721" lon="13.108995529375772"><ele>870.2</ele><time>2026-03-29T12:58:22.999Z</time></trkpt><trkpt lat="42.057127992660426" lon="13.108878710008124"><ele>869.6</ele><time>2026-03-29T12:58:23.999Z</time></trkpt><trkpt lat="42.05719140421991" lon="13.108731807625933"><ele>869.0</ele><time>2026-03-29T12:58:24.999Z</time></trkpt><trkpt lat="42.057263460183464" lon="13.10857884621255"><ele>869.0</ele><time>2026-03-29T12:58:25.999Z</time></trkpt><trkpt lat="42.057339611125315" lon="13.10841160411639"><ele>869.0</ele><time>2026-03-29T12:58:26.999Z</time></trkpt><trkpt lat="42.05744040010503" lon="13.108245430255963"><ele>869.0</ele><time>2026-03-29T12:58:27.999Z</time></trkpt><trkpt lat="42.05754058474953" lon="13.108081584554093"><ele>874.3333333333334</ele><time>2026-03-29T12:58:28.999Z</time></trkpt><trkpt lat="42.057635873840255" lon="13.107906465332492"><ele>879.6666666666667</ele><time>2026-03-29T12:58:29.999Z</time></trkpt><trkpt lat="42.057734919445124" lon="13.107731260522812"><ele>885.0</ele><time>2026-03-29T12:58:30.999Z</time></trkpt><trkpt lat="42.057840522329705" lon="13.107560622765424"><ele>883.0</ele><time>2026-03-29T12:58:31.999Z</time></trkpt><trkpt lat="42.05792020720187" lon="13.107373265095433"><ele>881.0</ele><time>2026-03-29T12:58:32.999Z</time></trkpt><trkpt lat="42.05806136202464" lon="13.10724938581018"><ele>879.0</ele><time>2026-03-29T12:58:33.999Z</time></trkpt><trkpt lat="42.05817982987807" lon="13.107105250254312"><ele>885.0</ele><time>2026-03-29T12:58:34.999Z</time></trkpt><trkpt lat="42.0582926172255" lon="13.106968930360742"><ele>891.0</ele><time>2026-03-29T12:58:35.999Z</time></trkpt><trkpt lat="42.058409491771606" lon="13.106829452825528"><ele>897.0</ele><time>2026-03-29T12:58:36.999Z</time></trkpt><trkpt lat="42.05851790712297" lon="13.106696632618247"><ele>897.0</ele><time>2026-03-29T12:58:37.999Z</time></trkpt><trkpt lat="42.05860918095884" lon="13.10657353506061"><ele>897.0</ele><time>2026-03-29T12:58:38.999Z</time></trkpt><trkpt lat="42.05869339917087" lon="13.1064724283366"><ele>897.0</ele><time>2026-03-29T12:58:39.999Z</time></trkpt><trkpt lat="42.05876968622788" lon="13.106427065987033"><ele>897.0</ele><time>2026-03-29T12:58:40.999Z</time></trkpt><trkpt lat="42.05885205972267" lon="13.106515189906816"><ele>897.0</ele><time>2026-03-29T12:58:42.999Z</time></trkpt><trkpt lat="42.05881317958312" lon="13.1066650801192"><ele>897.0</ele><time>2026-03-29T12:58:44.999Z</time></trkpt><trkpt lat="42.05871660941337" lon="13.10666016968437"><ele>897.0</ele><time>2026-03-29T12:58:45.999Z</time></trkpt><trkpt lat="42.058653323194925" lon="13.106722103885136"><ele>897.0</ele><time>2026-03-29T12:58:46.999Z</time></trkpt><trkpt lat="42.05860678306869" lon="13.106825420747757"><ele>897.0</ele><time>2026-03-29T12:58:47.999Z</time></trkpt><trkpt lat="42.058542264396046" lon="13.106930978168517"><ele>897.0</ele><time>2026-03-29T12:58:48.999Z</time></trkpt><trkpt lat="42.05850295554822" lon="13.107042823438217"><ele>897.0</ele><time>2026-03-29T12:58:49.999Z</time></trkpt><trkpt lat="42.058467834568376" lon="13.10719677988828"><ele>897.0</ele><time>2026-03-29T12:58:50.999Z</time></trkpt><trkpt lat="42.05841184649999" lon="13.107364310021172"><ele>897.0</ele><time>2026-03-29T12:58:51.999Z</time></trkpt><trkpt lat="42.05834545389361" lon="13.107558593424187"><ele>897.0</ele><time>2026-03-29T12:58:52.999Z</time></trkpt><trkpt lat="42.05828435983126" lon="13.107773005789026"><ele>895.3333333333333</ele><time>2026-03-29T12:58:53.999Z</time></trkpt><trkpt lat="42.05822571794728" lon="13.10801058454658"><ele>893.6666666666666</ele><time>2026-03-29T12:58:54.999Z</time></trkpt><trkpt lat="42.058172769456256" lon="13.108236701644664"><ele>892.0</ele><time>2026-03-29T12:58:55.999Z</time></trkpt><trkpt lat="42.058110155320286" lon="13.108463737065351"><ele>892.0</ele><time>2026-03-29T12:58:56.999Z</time></trkpt><trkpt lat="42.058070741206365" lon="13.108686232804967"><ele>892.0</ele><time>2026-03-29T12:58:57.999Z</time></trkpt><trkpt lat="42.05803074015473" lon="13.108904759309077"><ele>892.0</ele><time>2026-03-29T12:58:58.999Z</time></trkpt><trkpt lat="42.057995132627724" lon="13.109120302062205"><ele>894.0</ele><time>2026-03-29T12:58:59.999Z</time></trkpt><trkpt lat="42.05795159822244" lon="13.109322865853281"><ele>896.0</ele><time>2026-03-29T12:59:01Z</time></trkpt><trkpt lat="42.057906984546015" lon="13.10950045176494"><ele>898.0</ele><time>2026-03-29T12:59:02Z</time></trkpt><trkpt lat="42.05787369831087" lon="13.109639505942184"><ele>900.0</ele><time>2026-03-29T12:59:03Z</time></trkpt><trkpt lat="42.057860238157545" lon="13.109756158553608"><ele>900.0</ele><time>2026-03-29T12:59:04Z</time></trkpt><trkpt lat="42.05792836831684" lon="13.10985684671116"><ele>900.0</ele><time>2026-03-29T12:59:06Z</time></trkpt><trkpt lat="42.05804493435149" lon="13.10983304479385"><ele>900.0</ele><time>2026-03-29T12:59:08Z</time></trkpt><trkpt lat="42.058093881346466" lon="13.10975588395955"><ele>900.0</ele><time>2026-03-29T12:59:09Z</time></trkpt><trkpt lat="42.05806971934093" lon="13.109601647639813"><ele>900.0</ele><time>2026-03-29T12:59:10Z</time></trkpt><trkpt lat="42.058101198255414" lon="13.10949822871396"><ele>900.0</ele><time>2026-03-29T12:59:11Z</time></trkpt><trkpt lat="42.05816564590121" lon="13.109399997303472"><ele>900.0</ele><time>2026-03-29T12:59:12Z</time></trkpt><trkpt lat="42.05824342491188" lon="13.109308122038508"><ele>900.0</ele><time>2026-03-29T12:59:13Z</time></trkpt><trkpt lat="42.05832804121566" lon="13.109213037710312"><ele>900.0</ele><time>2026-03-29T12:59:14Z</time></trkpt><trkpt lat="42.05843759299098" lon="13.109120279334093"><ele>900.0</ele><time>2026-03-29T12:59:15Z</time></trkpt><trkpt lat="42.0585174640487" lon="13.1090004081333"><ele>902.6</ele><time>2026-03-29T12:59:16Z</time></trkpt><trkpt lat="42.058606369476905" lon="13.108888612009492"><ele>905.2</ele><time>2026-03-29T12:59:17Z</time></trkpt><trkpt lat="42.05867883395913" lon="13.10876021547126"><ele>907.8</ele><time>2026-03-29T12:59:18Z</time></trkpt><trkpt lat="42.05874420750635" lon="13.108663531466629"><ele>910.4</ele><time>2026-03-29T12:59:19Z</time></trkpt><trkpt lat="42.058820267156825" lon="13.108697850644369"><ele>913.0</ele><time>2026-03-29T12:59:21Z</time></trkpt><trkpt lat="42.05879720122803" lon="13.108865478836243"><ele>913.0</ele><time>2026-03-29T12:59:23Z</time></trkpt><trkpt lat="42.05875520053648" lon="13.108958602734019"><ele>913.0</ele><time>2026-03-29T12:59:24Z</time></trkpt><trkpt lat="42.058727779972116" lon="13.10906414143233"><ele>913.0</ele><time>2026-03-29T12:59:25Z</time></trkpt><trkpt lat="42.05868853030118" lon="13.109207128711413"><ele>913.0</ele><time>2026-03-29T12:59:26Z</time></trkpt><trkpt lat="42.05864058713884" lon="13.109399353674117"><ele>913.0</ele><time>2026-03-29T12:59:27Z</time></trkpt><trkpt lat="42.05860586008408" lon="13.10958828783517"><ele>916.6666666666666</ele><time>2026-03-29T12:59:28Z</time></trkpt><trkpt lat="42.05856358041116" lon="13.109784817524142"><ele>920.3333333333333</ele><time>2026-03-29T12:59:29Z</time></trkpt><trkpt lat="42.05850781886451" lon="13.109986288032806"><ele>924.0</ele><time>2026-03-29T12:59:30Z</time></trkpt><trkpt lat="42.0584158846069" lon="13.110159732146611"><ele>921.3333333333333</ele><time>2026-03-29T12:59:31Z</time></trkpt><trkpt lat="42.05833493442472" lon="13.110359709615487"><ele>918.6666666666666</ele><time>2026-03-29T12:59:32Z</time></trkpt><trkpt lat="42.05823297093487" lon="13.11052557681967"><ele>916.0</ele><time>2026-03-29T12:59:33Z</time></trkpt><trkpt lat="42.05809216997896" lon="13.110634678081794"><ele>922.0</ele><time>2026-03-29T12:59:34Z</time></trkpt><trkpt lat="42.05797171373305" lon="13.110788978155362"><ele>928.0</ele><time>2026-03-29T12:59:35Z</time></trkpt><trkpt lat="42.05785169170351" lon="13.110927734691698"><ele>934.0</ele><time>2026-03-29T12:59:36Z</time></trkpt><trkpt lat="42.05775750264198" lon="13.111093325215577"><ele>934.0</ele><time>2026-03-29T12:59:37Z</time></trkpt><trkpt lat="42.05767573386628" lon="13.111272226417244"><ele>934.0</ele><time>2026-03-29T12:59:38Z</time></trkpt><trkpt lat="42.05760977935045" lon="13.11146296090953"><ele>934.0</ele><time>2026-03-29T12:59:39Z</time></trkpt><trkpt lat="42.05753953203526" lon="13.11165670707738"><ele>934.3333333333333</ele><time>2026-03-29T12:59:40Z</time></trkpt><trkpt lat="42.05743673090704" lon="13.111822756128884"><ele>934.6666666666667</ele><time>2026-03-29T12:59:41Z</time></trkpt><trkpt lat="42.05735214084015" lon="13.112010786299255"><ele>935.0</ele><time>2026-03-29T12:59:42Z</time></trkpt><trkpt lat="42.05724137784222" lon="13.112175818247799"><ele>935.0</ele><time>2026-03-29T12:59:43Z</time></trkpt><trkpt lat="42.057117995023376" lon="13.112315870898648"><ele>935.0</ele><time>2026-03-29T12:59:44Z</time></trkpt><trkpt lat="42.057026272695765" lon="13.112497415462794"><ele>935.0</ele><time>2026-03-29T12:59:45Z</time></trkpt><trkpt lat="42.05691674428189" lon="13.112657894478744"><ele>934.3333333333334</ele><time>2026-03-29T12:59:46Z</time></trkpt><trkpt lat="42.056798838448" lon="13.112800610827245"><ele>933.6666666666667</ele><time>2026-03-29T12:59:46.999Z</time></trkpt><trkpt lat="42.05667769625834" lon="13.11293771015414"><ele>933.0</ele><time>2026-03-29T12:59:47.999Z</time></trkpt><trkpt lat="42.05655360031284" lon="13.113067497871866"><ele>933.0</ele><time>2026-03-29T12:59:48.999Z</time></trkpt><trkpt lat="42.05642900115472" lon="13.113190235795079"><ele>933.0</ele><time>2026-03-29T12:59:49.999Z</time></trkpt><trkpt lat="42.056309056573184" lon="13.11331524187869"><ele>933.0</ele><time>2026-03-29T12:59:50.999Z</time></trkpt><trkpt lat="42.05618492569123" lon="13.113435700922656"><ele>941.0</ele><time>2026-03-29T12:59:51.999Z</time></trkpt><trkpt lat="42.056059726928765" lon="13.113552180535907"><ele>949.0</ele><time>2026-03-29T12:59:52.999Z</time></trkpt><trkpt lat="42.05594472484424" lon="13.113685257370182"><ele>957.0</ele><time>2026-03-29T12:59:53.999Z</time></trkpt><trkpt lat="42.055838718832625" lon="13.113832324114417"><ele>955.6666666666667</ele><time>2026-03-29T12:59:54.999Z</time></trkpt><trkpt lat="42.055740044089724" lon="13.11399090524808"><ele>954.3333333333334</ele><time>2026-03-29T12:59:55.999Z</time></trkpt><trkpt lat="42.055648708918746" lon="13.114161115665029"><ele>953.0</ele><time>2026-03-29T12:59:56.999Z</time></trkpt><trkpt lat="42.05556471014791" lon="13.114342710401106"><ele>953.0</ele><time>2026-03-29T12:59:57.999Z</time></trkpt><trkpt lat="42.05548052325917" lon="13.114523107357185"><ele>953.0</ele><time>2026-03-29T12:59:58.999Z</time></trkpt><trkpt lat="42.05540708404306" lon="13.114704997163813"><ele>953.0</ele><time>2026-03-29T12:59:59.999Z</time></trkpt><trkpt lat="42.05533409192842" lon="13.114897565649525"><ele>959.0</ele><time>2026-03-29T13:00:00.999Z</time></trkpt><trkpt lat="42.05525908559337" lon="13.115085844535683"><ele>965.0</ele><time>2026-03-29T13:00:01.999Z</time></trkpt><trkpt lat="42.05518567903796" lon="13.115274395652728"><ele>971.0</ele><time>2026-03-29T13:00:02.999Z</time></trkpt><trkpt lat="42.055103723933186" lon="13.115456393622033"><ele>971.0</ele><time>2026-03-29T13:00:03.999Z</time></trkpt><trkpt lat="42.0549968600782" lon="13.115637474051125"><ele>971.0</ele><time>2026-03-29T13:00:04.999Z</time></trkpt><trkpt lat="42.05491175341962" lon="13.11581328541584"><ele>971.0</ele><time>2026-03-29T13:00:05.999Z</time></trkpt><trkpt lat="42.054842496951515" lon="13.116004735513632"><ele>973.75</ele><time>2026-03-29T13:00:06.999Z</time></trkpt><trkpt lat="42.05478101857158" lon="13.116180234344574"><ele>976.5</ele><time>2026-03-29T13:00:07.999Z</time></trkpt><trkpt lat="42.054700264439006" lon="13.116316416281201"><ele>979.25</ele><time>2026-03-29T13:00:08.999Z</time></trkpt><trkpt lat="42.05460589509662" lon="13.11639369185348"><ele>982.0</ele><time>2026-03-29T13:00:09.999Z</time></trkpt><trkpt lat="42.05448776917907" lon="13.116383492495487"><ele>982.0</ele><time>2026-03-29T13:00:10.999Z</time></trkpt><trkpt lat="42.05437480719533" lon="13.116423567444308"><ele>982.0</ele><time>2026-03-29T13:00:11.999Z</time></trkpt><trkpt lat="42.0542905340107" lon="13.11646252606238"><ele>982.0</ele><time>2026-03-29T13:00:12.999Z</time></trkpt><trkpt lat="42.05424754882909" lon="13.116553985205098"><ele>982.0</ele><time>2026-03-29T13:00:13.999Z</time></trkpt><trkpt lat="42.05425465081997" lon="13.116686107012624"><ele>982.0</ele><time>2026-03-29T13:00:15.999Z</time></trkpt><trkpt lat="42.05437428837723" lon="13.116718944935936"><ele>982.0</ele><time>2026-03-29T13:00:17.999Z</time></trkpt><trkpt lat="42.05445632026333" lon="13.116696351530853"><ele>982.0</ele><time>2026-03-29T13:00:18.999Z</time></trkpt><trkpt lat="42.05453316161354" lon="13.116609232109113"><ele>982.0</ele><time>2026-03-29T13:00:19.999Z</time></trkpt><trkpt lat="42.05463022278908" lon="13.116551430041255"><ele>982.0</ele><time>2026-03-29T13:00:20.999Z</time></trkpt><trkpt lat="42.05476089281332" lon="13.11653855187525"><ele>982.0</ele><time>2026-03-29T13:00:21.999Z</time></trkpt><trkpt lat="42.05487659668566" lon="13.116475723586172"><ele>985.0</ele><time>2026-03-29T13:00:22.999Z</time></trkpt><trkpt lat="42.054978870963915" lon="13.11630087469825"><ele>988.0</ele><time>2026-03-29T13:00:23.999Z</time></trkpt><trkpt lat="42.05507047518036" lon="13.116145334366275"><ele>991.0</ele><time>2026-03-29T13:00:24.999Z</time></trkpt><trkpt lat="42.05517164838567" lon="13.115992336525636"><ele>991.0</ele><time>2026-03-29T13:00:25.999Z</time></trkpt><trkpt lat="42.05527784710964" lon="13.115862836869754"><ele>991.0</ele><time>2026-03-29T13:00:26.999Z</time></trkpt><trkpt lat="42.055389830945074" lon="13.115780938460862"><ele>991.0</ele><time>2026-03-29T13:00:27.999Z</time></trkpt><trkpt lat="42.05551112727857" lon="13.115738232756344"><ele>991.0</ele><time>2026-03-29T13:00:28.999Z</time></trkpt><trkpt lat="42.055636289177315" lon="13.115698793403059"><ele>992.75</ele><time>2026-03-29T13:00:29.999Z</time></trkpt><trkpt lat="42.05574400751106" lon="13.115642850636476"><ele>994.5</ele><time>2026-03-29T13:00:30.999Z</time></trkpt><trkpt lat="42.055813607272064" lon="13.115511758444445"><ele>996.25</ele><time>2026-03-29T13:00:31.999Z</time></trkpt><trkpt lat="42.05588326923695" lon="13.115373009378017"><ele>998.0</ele><time>2026-03-29T13:00:32.999Z</time></trkpt><trkpt lat="42.055959436022725" lon="13.115225179501106"><ele>998.0</ele><time>2026-03-29T13:00:33.999Z</time></trkpt><trkpt lat="42.05606021892215" lon="13.115084083469075"><ele>998.0</ele><time>2026-03-29T13:00:34.999Z</time></trkpt><trkpt lat="42.056169230032744" lon="13.114931627008751"><ele>998.0</ele><time>2026-03-29T13:00:35.999Z</time></trkpt><trkpt lat="42.056288289343996" lon="13.114790624506714"><ele>997.0</ele><time>2026-03-29T13:00:36.999Z</time></trkpt><trkpt lat="42.056398803891724" lon="13.114697628329607"><ele>996.0</ele><time>2026-03-29T13:00:37.999Z</time></trkpt><trkpt lat="42.056483194193206" lon="13.114643762239485"><ele>995.0</ele><time>2026-03-29T13:00:38.999Z</time></trkpt><trkpt lat="42.056549318247384" lon="13.114613712832309"><ele>994.0</ele><time>2026-03-29T13:00:39.999Z</time></trkpt><trkpt lat="42.05662707373658" lon="13.114709807829408"><ele>993.0</ele><time>2026-03-29T13:00:41.999Z</time></trkpt><trkpt lat="42.056577160589676" lon="13.114873914491312"><ele>994.25</ele><time>2026-03-29T13:00:43.999Z</time></trkpt><trkpt lat="42.056503105422934" lon="13.114934372818974"><ele>995.5</ele><time>2026-03-29T13:00:44.999Z</time></trkpt><trkpt lat="42.05642363141319" lon="13.115026108142537"><ele>996.75</ele><time>2026-03-29T13:00:45.999Z</time></trkpt><trkpt lat="42.05633644696328" lon="13.115140101184515"><ele>998.0</ele><time>2026-03-29T13:00:46.999Z</time></trkpt><trkpt lat="42.05624284197643" lon="13.115295525035865"><ele>998.0</ele><time>2026-03-29T13:00:47.999Z</time></trkpt><trkpt lat="42.05620421718697" lon="13.11545647232171"><ele>998.0</ele><time>2026-03-29T13:00:48.999Z</time></trkpt><trkpt lat="42.056135616246586" lon="13.115545746878304"><ele>998.0</ele><time>2026-03-29T13:00:49.999Z</time></trkpt><trkpt lat="42.05607017208229" lon="13.115636260061713"><ele>998.0</ele><time>2026-03-29T13:00:51.999Z</time></trkpt><trkpt lat="42.056160471628786" lon="13.115876279789179"><ele>1000.1666666666667</ele><time>2026-03-29T13:00:58.999Z</time></trkpt><trkpt lat="42.056210623793376" lon="13.115934675840407"><ele>1002.3333333333334</ele><time>2026-03-29T13:01:02.999Z</time></trkpt><trkpt lat="42.05627692602251" lon="13.115983033590645"><ele>1004.5</ele><time>2026-03-29T13:01:07Z</time></trkpt><trkpt lat="42.05633821854863" lon="13.116061212927017"><ele>1006.6666666666667</ele><time>2026-03-29T13:01:11Z</time></trkpt><trkpt lat="42.05641427791384" lon="13.116102283952612"><ele>1008.8333333333334</ele><time>2026-03-29T13:01:15Z</time></trkpt><trkpt lat="42.056485670358654" lon="13.116138398788728"><ele>1011.0</ele><time>2026-03-29T13:01:19Z</time></trkpt><trkpt lat="42.056548374305244" lon="13.11616323029463"><ele>1009.5</ele><time>2026-03-29T13:01:22Z</time></trkpt><trkpt lat="42.05662006770757" lon="13.116166576345826"><ele>1008.0</ele><time>2026-03-29T13:01:25Z</time></trkpt><trkpt lat="42.05668243854542" lon="13.116115831272484"><ele>1006.5</ele><time>2026-03-29T13:01:28Z</time></trkpt><trkpt lat="42.056756271618184" lon="13.116084041754522"><ele>1005.0</ele><time>2026-03-29T13:01:31Z</time></trkpt><trkpt lat="42.05683604898601" lon="13.116079559632842"><ele>1003.5</ele><time>2026-03-29T13:01:33Z</time></trkpt><trkpt lat="42.05689875541676" lon="13.116024358924072"><ele>1002.0</ele><time>2026-03-29T13:01:36Z</time></trkpt><trkpt lat="42.056964054779876" lon="13.116108180028741"><ele>1002.0</ele><time>2026-03-29T13:01:39Z</time></trkpt><trkpt lat="42.05704217145854" lon="13.116180587712762"><ele>1002.0</ele><time>2026-03-29T13:01:42Z</time></trkpt><trkpt lat="42.057081867207316" lon="13.116270362753797"><ele>1002.0</ele><time>2026-03-29T13:01:46Z</time></trkpt><trkpt lat="42.05710890671554" lon="13.11635642759153"><ele>1002.0</ele><time>2026-03-29T13:01:48Z</time></trkpt><trkpt lat="42.05719257459145" lon="13.116402412716"><ele>1002.0</ele><time>2026-03-29T13:01:50.999Z</time></trkpt><trkpt lat="42.05726268853536" lon="13.116435800520438"><ele>1002.0</ele><time>2026-03-29T13:01:52.999Z</time></trkpt><trkpt lat="42.057327009392424" lon="13.116456814973755"><ele>1002.0</ele><time>2026-03-29T13:01:54.999Z</time></trkpt><trkpt lat="42.05740401737079" lon="13.116482709089416"><ele>1002.0</ele><time>2026-03-29T13:01:56.999Z</time></trkpt><trkpt lat="42.05745965734556" lon="13.116409088302959"><ele>1002.0</ele><time>2026-03-29T13:01:59.999Z</time></trkpt><trkpt lat="42.05757947667093" lon="13.116421500455557"><ele>1002.0</ele><time>2026-03-29T13:02:02.999Z</time></trkpt><trkpt lat="42.05764894499888" lon="13.116401819497328"><ele>1002.0</ele><time>2026-03-29T13:02:04.999Z</time></trkpt><trkpt lat="42.057700430944344" lon="13.116344987152148"><ele>1002.0</ele><time>2026-03-29T13:02:06.999Z</time></trkpt><trkpt lat="42.057770503581445" lon="13.116362857373613"><ele>997.0</ele><time>2026-03-29T13:02:08.999Z</time></trkpt><trkpt lat="42.05785424833454" lon="13.116380000938523"><ele>992.0</ele><time>2026-03-29T13:02:11.999Z</time></trkpt><trkpt lat="42.05793162870474" lon="13.116379485425028"><ele>987.0</ele><time>2026-03-29T13:02:12.999Z</time></trkpt><trkpt lat="42.05801550115699" lon="13.116367674462873"><ele>982.0</ele><time>2026-03-29T13:02:13.999Z</time></trkpt><trkpt lat="42.058094398199486" lon="13.116373547508053"><ele>977.0</ele><time>2026-03-29T13:02:14.999Z</time></trkpt><trkpt lat="42.05820405348033" lon="13.116393752893286"><ele>972.0</ele><time>2026-03-29T13:02:16.999Z</time></trkpt><trkpt lat="42.05829136579581" lon="13.116398202541825"><ele>967.8333333333334</ele><time>2026-03-29T13:02:19.999Z</time></trkpt><trkpt lat="42.058366833302586" lon="13.116408294020916"><ele>963.6666666666667</ele><time>2026-03-29T13:02:22.999Z</time></trkpt><trkpt lat="42.05844867228051" lon="13.116462045150593"><ele>959.5</ele><time>2026-03-29T13:02:25.999Z</time></trkpt><trkpt lat="42.05853018701133" lon="13.11646347623855"><ele>955.3333333333334</ele><time>2026-03-29T13:02:27.999Z</time></trkpt><trkpt lat="42.05861602815258" lon="13.11647703354397"><ele>951.1666666666667</ele><time>2026-03-29T13:02:32.999Z</time></trkpt><trkpt lat="42.05868657874738" lon="13.11648324696866"><ele>947.0</ele><time>2026-03-29T13:02:34.999Z</time></trkpt><trkpt lat="42.05875115348982" lon="13.116509183218497"><ele>947.0000000000001</ele><time>2026-03-29T13:02:36.999Z</time></trkpt><trkpt lat="42.05882951053443" lon="13.116546107451295"><ele>947.0</ele><time>2026-03-29T13:02:39.999Z</time></trkpt><trkpt lat="42.05893607762279" lon="13.11656035121165"><ele>947.0</ele><time>2026-03-29T13:02:42.999Z</time></trkpt><trkpt lat="42.05901415299001" lon="13.116586922235719"><ele>947.0</ele><time>2026-03-29T13:02:44.999Z</time></trkpt><trkpt lat="42.0590749779776" lon="13.116614088540041"><ele>947.0000000000001</ele><time>2026-03-29T13:02:46.999Z</time></trkpt><trkpt lat="42.05914186281344" lon="13.116633063442247"><ele>947.0</ele><time>2026-03-29T13:02:49.999Z</time></trkpt><trkpt lat="42.05925787928281" lon="13.11669761882621"><ele>948.2857142857142</ele><time>2026-03-29T13:02:51.999Z</time></trkpt><trkpt lat="42.059344247145376" lon="13.116719928621528"><ele>949.5714285714284</ele><time>2026-03-29T13:02:53.999Z</time></trkpt><trkpt lat="42.05938919695222" lon="13.116789990692016"><ele>950.8571428571429</ele><time>2026-03-29T13:02:56.999Z</time></trkpt><trkpt lat="42.05945567110815" lon="13.116789086780319"><ele>952.1428571428571</ele><time>2026-03-29T13:02:58.999Z</time></trkpt><trkpt lat="42.059552280592136" lon="13.116795736896572"><ele>953.4285714285714</ele><time>2026-03-29T13:03:00.999Z</time></trkpt><trkpt lat="42.05961790099711" lon="13.116801475429199"><ele>954.7142857142858</ele><time>2026-03-29T13:03:03.999Z</time></trkpt><trkpt lat="42.059679438669086" lon="13.116783597062566"><ele>956.0000000000001</ele><time>2026-03-29T13:03:05.999Z</time></trkpt><trkpt lat="42.0597478481504" lon="13.116738718446745"><ele>956.0000000000001</ele><time>2026-03-29T13:03:06.999Z</time></trkpt><trkpt lat="42.059804625466334" lon="13.116701767789754"><ele>956.0</ele><time>2026-03-29T13:03:08.999Z</time></trkpt><trkpt lat="42.059878252097995" lon="13.116707883198526"><ele>956.0000000000001</ele><time>2026-03-29T13:03:10.999Z</time></trkpt><trkpt lat="42.05994246451911" lon="13.116690659739469"><ele>956.0000000000001</ele><time>2026-03-29T13:03:13Z</time></trkpt><trkpt lat="42.06000872427153" lon="13.116730692133583"><ele>956.0</ele><time>2026-03-29T13:03:15Z</time></trkpt><trkpt lat="42.06010053328676" lon="13.116747757475402"><ele>956.0000000000001</ele><time>2026-03-29T13:03:18Z</time></trkpt><trkpt lat="42.060172106697124" lon="13.116749453723461"><ele>956.0000000000001</ele><time>2026-03-29T13:03:20Z</time></trkpt><trkpt lat="42.06023576433515" lon="13.11674665230569"><ele>953.8</ele><time>2026-03-29T13:03:22Z</time></trkpt><trkpt lat="42.06032857987557" lon="13.116748160198435"><ele>951.5999999999999</ele><time>2026-03-29T13:03:25Z</time></trkpt><trkpt lat="42.06041467936062" lon="13.116778538204505"><ele>949.4</ele><time>2026-03-29T13:03:27Z</time></trkpt><trkpt lat="42.060513619945226" lon="13.116789479929642"><ele>947.2</ele><time>2026-03-29T13:03:29Z</time></trkpt><trkpt lat="42.06058765224605" lon="13.116750236564835"><ele>945.0</ele><time>2026-03-29T13:03:31Z</time></trkpt><trkpt lat="42.060676383371565" lon="13.116734350565336"><ele>944.4</ele><time>2026-03-29T13:03:33Z</time></trkpt><trkpt lat="42.060795715700216" lon="13.116791866185613"><ele>943.8</ele><time>2026-03-29T13:03:35Z</time></trkpt><trkpt lat="42.06090492916284" lon="13.116770820201687"><ele>943.2</ele><time>2026-03-29T13:03:37Z</time></trkpt><trkpt lat="42.06099943340317" lon="13.116774879757347"><ele>942.6</ele><time>2026-03-29T13:03:40Z</time></trkpt><trkpt lat="42.061069301073054" lon="13.116790093449383"><ele>942.0</ele><time>2026-03-29T13:03:44Z</time></trkpt><trkpt lat="42.06113704293816" lon="13.116799396216566"><ele>942.0</ele><time>2026-03-29T13:03:50.999Z</time></trkpt><trkpt lat="42.06121002099705" lon="13.116791315642363"><ele>942.0</ele><time>2026-03-29T13:03:52.999Z</time></trkpt><trkpt lat="42.06127687718986" lon="13.116703459528114"><ele>942.0</ele><time>2026-03-29T13:03:55.999Z</time></trkpt><trkpt lat="42.06135513732526" lon="13.11671342729414"><ele>942.0</ele><time>2026-03-29T13:03:57.999Z</time></trkpt><trkpt lat="42.06143126009804" lon="13.116750363933734"><ele>942.0</ele><time>2026-03-29T13:04:02.999Z</time></trkpt><trkpt lat="42.06151083494336" lon="13.116791459802284"><ele>942.0</ele><time>2026-03-29T13:04:05.999Z</time></trkpt><trkpt lat="42.06156537018203" lon="13.116740371433373"><ele>943.0</ele><time>2026-03-29T13:04:08.999Z</time></trkpt><trkpt lat="42.06162546678857" lon="13.116669272215995"><ele>944.0</ele><time>2026-03-29T13:04:11.999Z</time></trkpt><trkpt lat="42.06167054758639" lon="13.116588818527301"><ele>945.0</ele><time>2026-03-29T13:04:14.999Z</time></trkpt><trkpt lat="42.06169348344512" lon="13.116485552079164"><ele>946.0</ele><time>2026-03-29T13:04:18.999Z</time></trkpt><trkpt lat="42.061768229898725" lon="13.116393602846875"><ele>947.0</ele><time>2026-03-29T13:04:22.999Z</time></trkpt><trkpt lat="42.06177503282809" lon="13.116307662270824"><ele>948.0</ele><time>2026-03-29T13:04:24.999Z</time></trkpt><trkpt lat="42.06184499661135" lon="13.116241933183193"><ele>946.2857142857142</ele><time>2026-03-29T13:04:26.999Z</time></trkpt><trkpt lat="42.06191817373545" lon="13.116192944810306"><ele>944.5714285714286</ele><time>2026-03-29T13:04:34.999Z</time></trkpt><trkpt lat="42.06200549365208" lon="13.116192642173306"><ele>942.8571428571429</ele><time>2026-03-29T13:04:37.999Z</time></trkpt><trkpt lat="42.062063054826396" lon="13.116148990146266"><ele>941.1428571428571</ele><time>2026-03-29T13:04:39.999Z</time></trkpt><trkpt lat="42.062125808390405" lon="13.116136282345053"><ele>939.4285714285716</ele><time>2026-03-29T13:04:41.999Z</time></trkpt><trkpt lat="42.06216747963073" lon="13.116202552524001"><ele>937.7142857142858</ele><time>2026-03-29T13:04:45.999Z</time></trkpt><trkpt lat="42.06216439632772" lon="13.116313752044963"><ele>936.0</ele><time>2026-03-29T13:04:48.999Z</time></trkpt><trkpt lat="42.06220324838418" lon="13.11640866843806"><ele>936.0</ele><time>2026-03-29T13:04:50.999Z</time></trkpt><trkpt lat="42.06222937095832" lon="13.116521247522314"><ele>936.0</ele><time>2026-03-29T13:04:52.999Z</time></trkpt><trkpt lat="42.06223370706461" lon="13.116629968341979"><ele>936.0</ele><time>2026-03-29T13:04:54.999Z</time></trkpt><trkpt lat="42.0622512513494" lon="13.116737494366356"><ele>936.0</ele><time>2026-03-29T13:04:56.999Z</time></trkpt><trkpt lat="42.06228605352923" lon="13.11682694736615"><ele>936.0</ele><time>2026-03-29T13:04:58.999Z</time></trkpt><trkpt lat="42.06235773068311" lon="13.116840050538675"><ele>936.0</ele><time>2026-03-29T13:05:05.999Z</time></trkpt><trkpt lat="42.06239461201393" lon="13.116925730696886"><ele>941.8333333333334</ele><time>2026-03-29T13:05:08.999Z</time></trkpt><trkpt lat="42.06247773426943" lon="13.116973567438144"><ele>947.6666666666667</ele><time>2026-03-29T13:05:12.999Z</time></trkpt><trkpt lat="42.062569815928484" lon="13.11699894194116"><ele>953.5</ele><time>2026-03-29T13:05:15.999Z</time></trkpt><trkpt lat="42.06264555072086" lon="13.117049908911461"><ele>959.3333333333334</ele><time>2026-03-29T13:05:20Z</time></trkpt><trkpt lat="42.062676665510494" lon="13.117164841258761"><ele>965.1666666666667</ele><time>2026-03-29T13:05:24Z</time></trkpt><trkpt lat="42.06267416159" lon="13.117284564978702"><ele>971.0</ele><time>2026-03-29T13:05:27Z</time></trkpt><trkpt lat="42.06267696285846" lon="13.117384802003391"><ele>972.3333333333334</ele><time>2026-03-29T13:05:30Z</time></trkpt><trkpt lat="42.06275334191206" lon="13.117409878291634"><ele>973.6666666666667</ele><time>2026-03-29T13:05:36Z</time></trkpt><trkpt lat="42.0627770478345" lon="13.117499790087946"><ele>975.0</ele><time>2026-03-29T13:05:53.999Z</time></trkpt><trkpt lat="42.06278659539688" lon="13.117613109377087"><ele>976.3333333333333</ele><time>2026-03-29T13:05:58.999Z</time></trkpt><trkpt lat="42.0627981403924" lon="13.117701585823937"><ele>977.6666666666666</ele><time>2026-03-29T13:06:01.999Z</time></trkpt><trkpt lat="42.06279890863046" lon="13.11781043880352"><ele>979.0</ele><time>2026-03-29T13:06:04.999Z</time></trkpt><trkpt lat="42.0628192875619" lon="13.117903221338844"><ele>978.9999999999999</ele><time>2026-03-29T13:06:06.999Z</time></trkpt><trkpt lat="42.062846252357716" lon="13.117992296998686"><ele>979.0</ele><time>2026-03-29T13:06:13.999Z</time></trkpt><trkpt lat="42.06285035214855" lon="13.118096257235461"><ele>979.0</ele><time>2026-03-29T13:06:16.999Z</time></trkpt><trkpt lat="42.0628164094186" lon="13.118207507932851"><ele>979.0</ele><time>2026-03-29T13:07:28Z</time></trkpt><trkpt lat="42.06281656959034" lon="13.118317971624425"><ele>978.9999999999999</ele><time>2026-03-29T13:07:41Z</time></trkpt><trkpt lat="42.0628139336681" lon="13.118413808880284"><ele>979.0</ele><time>2026-03-29T13:07:51Z</time></trkpt><trkpt lat="42.062780023842926" lon="13.118491733304165"><ele>981.5714285714286</ele><time>2026-03-29T13:08:07.999Z</time></trkpt><trkpt lat="42.06279821983289" lon="13.1186059309836"><ele>984.1428571428571</ele><time>2026-03-29T13:08:18.999Z</time></trkpt><trkpt lat="42.062758002468165" lon="13.118683451102584"><ele>986.7142857142857</ele><time>2026-03-29T13:08:34.999Z</time></trkpt><trkpt lat="42.062755245148686" lon="13.118777312189032"><ele>989.2857142857142</ele><time>2026-03-29T13:08:46.999Z</time></trkpt><trkpt lat="42.0627568351804" lon="13.118863020082504"><ele>991.8571428571429</ele><time>2026-03-29T13:08:55.999Z</time></trkpt><trkpt lat="42.06273275487493" lon="13.118944492135574"><ele>994.4285714285713</ele><time>2026-03-29T13:08:59.999Z</time></trkpt><trkpt lat="42.06273219943501" lon="13.119052322518524"><ele>996.9999999999999</ele><time>2026-03-29T13:09:02.999Z</time></trkpt><trkpt lat="42.062770424380126" lon="13.119144362043647"><ele>999.6666666666666</ele><time>2026-03-29T13:09:06.999Z</time></trkpt><trkpt lat="42.06278077762666" lon="13.11927661983536"><ele>1002.3333333333333</ele><time>2026-03-29T13:09:09.999Z</time></trkpt><trkpt lat="42.06280363288089" lon="13.119397601813732"><ele>1005.0</ele><time>2026-03-29T13:09:12.999Z</time></trkpt><trkpt lat="42.06281347331688" lon="13.119487933266704"><ele>1007.6666666666667</ele><time>2026-03-29T13:09:15.999Z</time></trkpt><trkpt lat="42.0627949957953" lon="13.119573175806757"><ele>1010.3333333333334</ele><time>2026-03-29T13:09:17.999Z</time></trkpt><trkpt lat="42.06279402489607" lon="13.11966708687036"><ele>1013.0</ele><time>2026-03-29T13:09:20.999Z</time></trkpt><trkpt lat="42.062776943283474" lon="13.119754439053494"><ele>1013.0000000000001</ele><time>2026-03-29T13:10:19.999Z</time></trkpt><trkpt lat="42.06278455509846" lon="13.11986924192876"><ele>1013.0</ele><time>2026-03-29T13:10:22.999Z</time></trkpt><trkpt lat="42.062809428572756" lon="13.119952338"><ele>1013.0</ele><time>2026-03-29T13:10:25.999Z</time></trkpt><trkpt lat="42.06280610316638" lon="13.120065532356332"><ele>1013.0</ele><time>2026-03-29T13:10:28.999Z</time></trkpt><trkpt lat="42.0628059427241" lon="13.120198080654689"><ele>1013.0000000000001</ele><time>2026-03-29T13:10:31.999Z</time></trkpt><trkpt lat="42.0628060320602" lon="13.120289351677327"><ele>1013.0</ele><time>2026-03-29T13:10:33.999Z</time></trkpt><trkpt lat="42.062756668602944" lon="13.120356195206416"><ele>1014.5000000000001</ele><time>2026-03-29T13:10:49.999Z</time></trkpt><trkpt lat="42.06276067462759" lon="13.120473234715517"><ele>1016.0</ele><time>2026-03-29T13:10:53.999Z</time></trkpt><trkpt lat="42.06273465370965" lon="13.12059710941241"><ele>1017.5</ele><time>2026-03-29T13:11:04.999Z</time></trkpt><trkpt lat="42.062736973205716" lon="13.120693840354596"><ele>1019.0</ele><time>2026-03-29T13:11:06.999Z</time></trkpt><trkpt lat="42.0627332879612" lon="13.120781419102792"><ele>1020.5000000000001</ele><time>2026-03-29T13:11:08.999Z</time></trkpt><trkpt lat="42.062708979116316" lon="13.120872450264839"><ele>1022.0</ele><time>2026-03-29T13:11:10.999Z</time></trkpt><trkpt lat="42.062681068541316" lon="13.120968546891014"><ele>1025.3333333333335</ele><time>2026-03-29T13:11:12.999Z</time></trkpt><trkpt lat="42.06266469752972" lon="13.121067929561406"><ele>1028.6666666666667</ele><time>2026-03-29T13:11:14.999Z</time></trkpt><trkpt lat="42.06268300091542" lon="13.1211962000472"><ele>1032.0</ele><time>2026-03-29T13:11:16.999Z</time></trkpt><trkpt lat="42.06272625099963" lon="13.121268282397319"><ele>1035.3333333333333</ele><time>2026-03-29T13:11:18.999Z</time></trkpt><trkpt lat="42.0627728849431" lon="13.121347626261288"><ele>1038.6666666666665</ele><time>2026-03-29T13:11:20.999Z</time></trkpt><trkpt lat="42.06284542642237" lon="13.121367043509535"><ele>1042.0</ele><time>2026-03-29T13:11:23.999Z</time></trkpt><trkpt lat="42.062916971463096" lon="13.1214149194227"><ele>1042.0</ele><time>2026-03-29T13:11:26.999Z</time></trkpt><trkpt lat="42.06295454588595" lon="13.121495571400535"><ele>1042.0</ele><time>2026-03-29T13:11:28.999Z</time></trkpt><trkpt lat="42.06299622929759" lon="13.121570053825586"><ele>1042.0</ele><time>2026-03-29T13:12:02Z</time></trkpt><trkpt lat="42.063062562771485" lon="13.121615023752781"><ele>1042.0</ele><time>2026-03-29T13:12:05Z</time></trkpt><trkpt lat="42.06312914887191" lon="13.121660052596486"><ele>1042.0</ele><time>2026-03-29T13:12:23.999Z</time></trkpt><trkpt lat="42.06320186149788" lon="13.121692487923308"><ele>1042.0</ele><time>2026-03-29T13:12:58.999Z</time></trkpt><trkpt lat="42.06327928705087" lon="13.121745152443726"><ele>1049.8</ele><time>2026-03-29T13:13:01.999Z</time></trkpt><trkpt lat="42.06336193207033" lon="13.121823354496769"><ele>1057.6</ele><time>2026-03-29T13:13:04.999Z</time></trkpt><trkpt lat="42.06341534876513" lon="13.12194035494349"><ele>1065.3999999999999</ele><time>2026-03-29T13:13:06.999Z</time></trkpt><trkpt lat="42.06348610936209" lon="13.12203376235196"><ele>1073.2</ele><time>2026-03-29T13:13:08.999Z</time></trkpt><trkpt lat="42.06353679410282" lon="13.122171817995168"><ele>1081.0</ele><time>2026-03-29T13:13:10.999Z</time></trkpt><trkpt lat="42.06356532975576" lon="13.122315164763638"><ele>1081.3333333333333</ele><time>2026-03-29T13:13:12.999Z</time></trkpt><trkpt lat="42.063582253540645" lon="13.122426640655824"><ele>1081.6666666666665</ele><time>2026-03-29T13:13:14.999Z</time></trkpt><trkpt lat="42.06362698967739" lon="13.122504099146607"><ele>1082.0</ele><time>2026-03-29T13:13:16.999Z</time></trkpt><trkpt lat="42.063674779768235" lon="13.122604856285538"><ele>1082.3333333333333</ele><time>2026-03-29T13:13:19.999Z</time></trkpt><trkpt lat="42.06369705574007" lon="13.12270633527521"><ele>1082.6666666666667</ele><time>2026-03-29T13:13:21.999Z</time></trkpt><trkpt lat="42.0637381485037" lon="13.12277374200188"><ele>1083.0</ele><time>2026-03-29T13:13:23.999Z</time></trkpt><trkpt lat="42.06378220465647" lon="13.12288276273392"><ele>1083.0</ele><time>2026-03-29T13:13:26.999Z</time></trkpt><trkpt lat="42.06380289697943" lon="13.122991398591262"><ele>1083.0</ele><time>2026-03-29T13:13:34.999Z</time></trkpt><trkpt lat="42.06385480020012" lon="13.123054258487302"><ele>1083.0</ele><time>2026-03-29T13:13:37.999Z</time></trkpt><trkpt lat="42.06388613344738" lon="13.123130333064376"><ele>1083.0</ele><time>2026-03-29T13:13:40.999Z</time></trkpt><trkpt lat="42.06393138122625" lon="13.12321263615335"><ele>1083.0</ele><time>2026-03-29T13:13:44Z</time></trkpt><trkpt lat="42.06396732290557" lon="13.123297483201558"><ele>1083.0</ele><time>2026-03-29T13:13:46Z</time></trkpt><trkpt lat="42.06402087632213" lon="13.123428257079183"><ele>1086.5</ele><time>2026-03-29T13:13:49Z</time></trkpt><trkpt lat="42.064050304481356" lon="13.12353733328905"><ele>1090.0</ele><time>2026-03-29T13:13:51Z</time></trkpt><trkpt lat="42.06407266270018" lon="13.123645615873997"><ele>1093.5</ele><time>2026-03-29T13:13:54Z</time></trkpt><trkpt lat="42.06411240756659" lon="13.123750179304574"><ele>1097.0</ele><time>2026-03-29T13:13:57Z</time></trkpt><trkpt lat="42.064141763621635" lon="13.123836591149631"><ele>1100.5</ele><time>2026-03-29T13:13:59Z</time></trkpt><trkpt lat="42.06419561113102" lon="13.1239059496885"><ele>1104.0</ele><time>2026-03-29T13:14:01Z</time></trkpt><trkpt lat="42.0642121604739" lon="13.123988659968223"><ele>1108.0</ele><time>2026-03-29T13:14:03Z</time></trkpt><trkpt lat="42.06424585884208" lon="13.12410299593857"><ele>1112.0</ele><time>2026-03-29T13:14:05Z</time></trkpt><trkpt lat="42.064250558396274" lon="13.124245667104155"><ele>1116.0</ele><time>2026-03-29T13:14:08Z</time></trkpt><trkpt lat="42.064243457110315" lon="13.124353667011139"><ele>1120.0</ele><time>2026-03-29T13:14:10Z</time></trkpt><trkpt lat="42.06424246120109" lon="13.124481135182245"><ele>1124.0</ele><time>2026-03-29T13:14:12.999Z</time></trkpt><trkpt lat="42.06427677502438" lon="13.124579205683387"><ele>1124.0</ele><time>2026-03-29T13:14:14.999Z</time></trkpt><trkpt lat="42.064282112241095" lon="13.124678114826297"><ele>1124.0</ele><time>2026-03-29T13:14:16.999Z</time></trkpt><trkpt lat="42.06430831027598" lon="13.124779971053941"><ele>1124.0</ele><time>2026-03-29T13:14:19.999Z</time></trkpt><trkpt lat="42.064346034794006" lon="13.124892560726888"><ele>1124.0</ele><time>2026-03-29T13:14:21.999Z</time></trkpt><trkpt lat="42.06436474840872" lon="13.124995456224028"><ele>1124.0</ele><time>2026-03-29T13:14:23.999Z</time></trkpt><trkpt lat="42.06438426533043" lon="13.125130952325716"><ele>1124.0</ele><time>2026-03-29T13:14:25.999Z</time></trkpt><trkpt lat="42.064409249886296" lon="13.125218797529786"><ele>1126.5</ele><time>2026-03-29T13:14:26.999Z</time></trkpt><trkpt lat="42.064436613251026" lon="13.125305349086423"><ele>1129.0</ele><time>2026-03-29T13:14:28.999Z</time></trkpt><trkpt lat="42.064494988483105" lon="13.12535437903711"><ele>1131.5</ele><time>2026-03-29T13:14:30.999Z</time></trkpt><trkpt lat="42.06451721448224" lon="13.125434765610553"><ele>1134.0</ele><time>2026-03-29T13:14:32.999Z</time></trkpt><trkpt lat="42.06472757585959" lon="13.125882306535111"><ele>1137.8</ele><time>2026-03-29T13:14:33.999Z</time></trkpt><trkpt lat="42.064788387086615" lon="13.126028516931328"><ele>1141.6000000000001</ele><time>2026-03-29T13:14:35.999Z</time></trkpt><trkpt lat="42.064843981096395" lon="13.126165492198234"><ele>1145.4</ele><time>2026-03-29T13:14:37.999Z</time></trkpt><trkpt lat="42.0649105312635" lon="13.126283733037994"><ele>1149.2</ele><time>2026-03-29T13:14:39.999Z</time></trkpt><trkpt lat="42.06498121226535" lon="13.126350573287995"><ele>1153.0</ele><time>2026-03-29T13:14:41.999Z</time></trkpt><trkpt lat="42.06504740456514" lon="13.126374426902261"><ele>1153.4</ele><time>2026-03-29T13:14:43.999Z</time></trkpt><trkpt lat="42.06508709740403" lon="13.126478330223643"><ele>1153.8</ele><time>2026-03-29T13:14:46.999Z</time></trkpt><trkpt lat="42.06509900856826" lon="13.126647125159773"><ele>1154.2</ele><time>2026-03-29T13:14:48.999Z</time></trkpt><trkpt lat="42.06511427546566" lon="13.126790311488113"><ele>1154.6</ele><time>2026-03-29T13:14:50.999Z</time></trkpt><trkpt lat="42.06512195055561" lon="13.126923564311118"><ele>1155.0</ele><time>2026-03-29T13:14:52.999Z</time></trkpt><trkpt lat="42.065122727553025" lon="13.12701960543194"><ele>1155.0</ele><time>2026-03-29T13:14:53.999Z</time></trkpt><trkpt lat="42.065140483449156" lon="13.127117978515727"><ele>1155.0</ele><time>2026-03-29T13:14:54.999Z</time></trkpt><trkpt lat="42.065161431276" lon="13.127249525564709"><ele>1155.0</ele><time>2026-03-29T13:14:55.999Z</time></trkpt><trkpt lat="42.06513335395706" lon="13.127400166077352"><ele>1155.0</ele><time>2026-03-29T13:14:58.999Z</time></trkpt><trkpt lat="42.06513233341713" lon="13.127488063321563"><ele>1155.0</ele><time>2026-03-29T13:15:00.999Z</time></trkpt><trkpt lat="42.065134500051165" lon="13.12761182202936"><ele>1155.0</ele><time>2026-03-29T13:15:14.999Z</time></trkpt><trkpt lat="42.065145660919534" lon="13.127733915407996"><ele>1157.3333333333333</ele><time>2026-03-29T13:15:19.999Z</time></trkpt><trkpt lat="42.06516322766964" lon="13.127827652060832"><ele>1159.6666666666667</ele><time>2026-03-29T13:15:21.999Z</time></trkpt><trkpt lat="42.06519384497886" lon="13.12790801738171"><ele>1162.0</ele><time>2026-03-29T13:15:23.999Z</time></trkpt><trkpt lat="42.06521226309981" lon="13.128007637171773"><ele>1164.3333333333335</ele><time>2026-03-29T13:15:25.999Z</time></trkpt><trkpt lat="42.065202781371156" lon="13.128132625127467"><ele>1166.6666666666667</ele><time>2026-03-29T13:15:29.999Z</time></trkpt><trkpt lat="42.065184455192465" lon="13.128228352832785"><ele>1169.0</ele><time>2026-03-29T13:15:31.999Z</time></trkpt><trkpt lat="42.06521415903281" lon="13.128344886099123"><ele>1170.0</ele><time>2026-03-29T13:15:33.999Z</time></trkpt><trkpt lat="42.06521093371499" lon="13.128458513651223"><ele>1171.0</ele><time>2026-03-29T13:15:35.999Z</time></trkpt><trkpt lat="42.06521010543008" lon="13.128579017714788"><ele>1172.0</ele><time>2026-03-29T13:15:37.999Z</time></trkpt><trkpt lat="42.06522980865879" lon="13.128695088382322"><ele>1173.0</ele><time>2026-03-29T13:15:41.999Z</time></trkpt><trkpt lat="42.06524266429073" lon="13.128787138817874"><ele>1174.0</ele><time>2026-03-29T13:15:43.999Z</time></trkpt><trkpt lat="42.065252435074164" lon="13.128884101349838"><ele>1175.0</ele><time>2026-03-29T13:15:46.999Z</time></trkpt><trkpt lat="42.06525201634218" lon="13.12897980434909"><ele>1177.0</ele><time>2026-03-29T13:15:50Z</time></trkpt><trkpt lat="42.06528235998116" lon="13.12909831323164"><ele>1179.0</ele><time>2026-03-29T13:15:53Z</time></trkpt><trkpt lat="42.065312034973196" lon="13.12917321991483"><ele>1181.0</ele><time>2026-03-29T13:15:56Z</time></trkpt><trkpt lat="42.065327236364006" lon="13.129287392215872"><ele>1183.0</ele><time>2026-03-29T13:15:59Z</time></trkpt><trkpt lat="42.065364445198824" lon="13.129398501535745"><ele>1185.0</ele><time>2026-03-29T13:16:02Z</time></trkpt><trkpt lat="42.06540182344082" lon="13.129469263850256"><ele>1187.0</ele><time>2026-03-29T13:16:05Z</time></trkpt><trkpt lat="42.06542263068984" lon="13.12955361772667"><ele>1187.0</ele><time>2026-03-29T13:16:13Z</time></trkpt><trkpt lat="42.06540966884946" lon="13.129678698641444"><ele>1187.0</ele><time>2026-03-29T13:16:17.999Z</time></trkpt><trkpt lat="42.06543863391079" lon="13.129839010814267"><ele>1187.0</ele><time>2026-03-29T13:16:19.999Z</time></trkpt><trkpt lat="42.065463524022405" lon="13.12994552129818"><ele>1187.0</ele><time>2026-03-29T13:16:21.999Z</time></trkpt><trkpt lat="42.06544283624448" lon="13.130066463825608"><ele>1187.0</ele><time>2026-03-29T13:16:23.999Z</time></trkpt><trkpt lat="42.065442434501435" lon="13.130207110952446"><ele>1188.1666666666667</ele><time>2026-03-29T13:16:25.999Z</time></trkpt><trkpt lat="42.06545190081014" lon="13.13033079552507"><ele>1189.3333333333335</ele><time>2026-03-29T13:16:27.999Z</time></trkpt><trkpt lat="42.065455230422174" lon="13.130419836934657"><ele>1190.5</ele><time>2026-03-29T13:16:28.999Z</time></trkpt><trkpt lat="42.065464249346704" lon="13.13055365639667"><ele>1191.6666666666667</ele><time>2026-03-29T13:16:30.999Z</time></trkpt><trkpt lat="42.065479588242205" lon="13.13070410325472"><ele>1192.8333333333333</ele><time>2026-03-29T13:16:32.999Z</time></trkpt><trkpt lat="42.065482666974184" lon="13.130790313167516"><ele>1194.0</ele><time>2026-03-29T13:16:34.999Z</time></trkpt><trkpt lat="42.065482317344646" lon="13.130888864143477"><ele>1194.3333333333333</ele><time>2026-03-29T13:16:36.999Z</time></trkpt><trkpt lat="42.06546226040951" lon="13.130980569336504"><ele>1194.6666666666667</ele><time>2026-03-29T13:16:38.999Z</time></trkpt><trkpt lat="42.0654685355735" lon="13.131084946873324"><ele>1195.0</ele><time>2026-03-29T13:16:41.999Z</time></trkpt><trkpt lat="42.06548804814087" lon="13.131182844685682"><ele>1195.3333333333335</ele><time>2026-03-29T13:16:45.999Z</time></trkpt><trkpt lat="42.0654566375394" lon="13.131269950192836"><ele>1195.6666666666667</ele><time>2026-03-29T13:16:51.999Z</time></trkpt><trkpt lat="42.06540502247263" lon="13.131370375998326"><ele>1196.0</ele><time>2026-03-29T13:17:45.999Z</time></trkpt><trkpt lat="42.06542480398005" lon="13.131452203705429"><ele>1197.1666666666667</ele><time>2026-03-29T13:18:18.999Z</time></trkpt><trkpt lat="42.06544019095798" lon="13.131563572248565"><ele>1198.3333333333335</ele><time>2026-03-29T13:18:21.999Z</time></trkpt><trkpt lat="42.065463546048214" lon="13.13165058010451"><ele>1199.5</ele><time>2026-03-29T13:18:23.999Z</time></trkpt><trkpt lat="42.06552051101195" lon="13.131741797458737"><ele>1200.6666666666667</ele><time>2026-03-29T13:18:26.999Z</time></trkpt><trkpt lat="42.06555726490913" lon="13.131841460302127"><ele>1201.8333333333333</ele><time>2026-03-29T13:18:28.999Z</time></trkpt><trkpt lat="42.06560139757284" lon="13.131938293275898"><ele>1203.0</ele><time>2026-03-29T13:18:30.999Z</time></trkpt><trkpt lat="42.06565766513386" lon="13.13201228277019"><ele>1203.0</ele><time>2026-03-29T13:18:32.999Z</time></trkpt><trkpt lat="42.065716835000345" lon="13.132074694453452"><ele>1203.0</ele><time>2026-03-29T13:18:35.999Z</time></trkpt><trkpt lat="42.065796363846424" lon="13.132059475017877"><ele>1203.0</ele><time>2026-03-29T13:18:40.999Z</time></trkpt><trkpt lat="42.06586018076346" lon="13.132077822235157"><ele>1203.0</ele><time>2026-03-29T13:18:44.999Z</time></trkpt><trkpt lat="42.06592283648263" lon="13.132139509527759"><ele>1203.0</ele><time>2026-03-29T13:18:58.999Z</time></trkpt><trkpt lat="42.06596636867874" lon="13.132209537635672"><ele>1203.0</ele><time>2026-03-29T13:19:11.999Z</time></trkpt><trkpt lat="42.066048560498956" lon="13.132230134132094"><ele>1204.5714285714284</ele><time>2026-03-29T13:19:25.999Z</time></trkpt><trkpt lat="42.06610865950595" lon="13.132285078776102"><ele>1206.142857142857</ele><time>2026-03-29T13:19:28.999Z</time></trkpt><trkpt lat="42.06617985342448" lon="13.132290401250978"><ele>1207.7142857142858</ele><time>2026-03-29T13:19:31.999Z</time></trkpt><trkpt lat="42.06625323573879" lon="13.132283340218718"><ele>1209.2857142857142</ele><time>2026-03-29T13:19:35.999Z</time></trkpt><trkpt lat="42.06631505401884" lon="13.132300086061576"><ele>1210.857142857143</ele><time>2026-03-29T13:19:39.999Z</time></trkpt><trkpt lat="42.06639040946816" lon="13.132354950433228"><ele>1212.4285714285713</ele><time>2026-03-29T13:20:09Z</time></trkpt><trkpt lat="42.066467191542294" lon="13.132374499756347"><ele>1214.0</ele><time>2026-03-29T13:20:14Z</time></trkpt><trkpt lat="42.06652643010383" lon="13.132408657576619"><ele>1214.0</ele><time>2026-03-29T13:20:16.999Z</time></trkpt><trkpt lat="42.06659572170891" lon="13.13243501900351"><ele>1214.0</ele><time>2026-03-29T13:20:19.999Z</time></trkpt><trkpt lat="42.06668699170939" lon="13.132451114932891"><ele>1214.0</ele><time>2026-03-29T13:20:22.999Z</time></trkpt><trkpt lat="42.066771786447575" lon="13.132496232705538"><ele>1214.0</ele><time>2026-03-29T13:20:25.999Z</time></trkpt><trkpt lat="42.06684421722326" lon="13.132525604029384"><ele>1214.0</ele><time>2026-03-29T13:20:28.999Z</time></trkpt><trkpt lat="42.0669433671335" lon="13.132532627105332"><ele>1214.0</ele><time>2026-03-29T13:20:51.999Z</time></trkpt><trkpt lat="42.06700500848793" lon="13.132562808458362"><ele>1217.4285714285713</ele><time>2026-03-29T13:21:07.999Z</time></trkpt><trkpt lat="42.0670655642059" lon="13.132524434193655"><ele>1220.857142857143</ele><time>2026-03-29T13:21:28.999Z</time></trkpt><trkpt lat="42.06711696810399" lon="13.132573731614219"><ele>1224.2857142857142</ele><time>2026-03-29T13:21:33.999Z</time></trkpt><trkpt lat="42.06714785294179" lon="13.132651208798512"><ele>1227.7142857142858</ele><time>2026-03-29T13:21:35.999Z</time></trkpt><trkpt lat="42.06716842441226" lon="13.13274734943406"><ele>1231.142857142857</ele><time>2026-03-29T13:21:37.999Z</time></trkpt><trkpt lat="42.06719278964992" lon="13.132835341389317"><ele>1234.5714285714284</ele><time>2026-03-29T13:21:41.999Z</time></trkpt><trkpt lat="42.06722409864405" lon="13.132939370135219"><ele>1238.0</ele><time>2026-03-29T13:21:44.999Z</time></trkpt><trkpt lat="42.067253890847596" lon="13.133057753227492"><ele>1238.0</ele><time>2026-03-29T13:21:47.999Z</time></trkpt><trkpt lat="42.06725685693605" lon="13.133146863106642"><ele>1238.0</ele><time>2026-03-29T13:21:50.999Z</time></trkpt><trkpt lat="42.06727486413445" lon="13.133280061440086"><ele>1238.0</ele><time>2026-03-29T13:21:52.999Z</time></trkpt><trkpt lat="42.067335428185835" lon="13.13331102441779"><ele>1238.0</ele><time>2026-03-29T13:21:55.999Z</time></trkpt><trkpt lat="42.06738924797906" lon="13.133164846844414"><ele>1238.0</ele><time>2026-03-29T13:22:48.999Z</time></trkpt><trkpt lat="42.06746127419812" lon="13.13305385059292"><ele>1241.0</ele><time>2026-03-29T13:22:51.999Z</time></trkpt><trkpt lat="42.06750601091419" lon="13.132958393225469"><ele>1244.0</ele><time>2026-03-29T13:22:53.999Z</time></trkpt><trkpt lat="42.067554544694694" lon="13.13284772141648"><ele>1247.0</ele><time>2026-03-29T13:22:55.999Z</time></trkpt><trkpt lat="42.06763177276601" lon="13.13273545355757"><ele>1250.0</ele><time>2026-03-29T13:22:57.999Z</time></trkpt><trkpt lat="42.06769706629192" lon="13.132586270460669"><ele>1253.0</ele><time>2026-03-29T13:22:59.999Z</time></trkpt><trkpt lat="42.067735451567366" lon="13.132514689206586"><ele>1253.0</ele><time>2026-03-29T13:23:00.999Z</time></trkpt><trkpt lat="42.06777855041892" lon="13.132440795880646"><ele>1253.0</ele><time>2026-03-29T13:23:01.999Z</time></trkpt><trkpt lat="42.067820299026096" lon="13.132363940223103"><ele>1253.0</ele><time>2026-03-29T13:23:02.999Z</time></trkpt><trkpt lat="42.06790151722544" lon="13.132258539672499"><ele>1253.0</ele><time>2026-03-29T13:23:04.999Z</time></trkpt><trkpt lat="42.06795690183329" lon="13.132148821066991"><ele>1253.0</ele><time>2026-03-29T13:23:07Z</time></trkpt><trkpt lat="42.06800716365591" lon="13.132016195259972"><ele>1257.0</ele><time>2026-03-29T13:23:09Z</time></trkpt><trkpt lat="42.06804189571959" lon="13.131912837642465"><ele>1261.0</ele><time>2026-03-29T13:23:11Z</time></trkpt><trkpt lat="42.06807832891617" lon="13.131801242480828"><ele>1265.0</ele><time>2026-03-29T13:23:13Z</time></trkpt><trkpt lat="42.06813299160773" lon="13.131672606081322"><ele>1269.0</ele><time>2026-03-29T13:23:15Z</time></trkpt><trkpt lat="42.06815773353909" lon="13.13154099518205"><ele>1273.0</ele><time>2026-03-29T13:23:17Z</time></trkpt><trkpt lat="42.06817929049189" lon="13.131416769320339"><ele>1274.8333333333333</ele><time>2026-03-29T13:23:19Z</time></trkpt><trkpt lat="42.06821635776857" lon="13.131277215876025"><ele>1276.6666666666665</ele><time>2026-03-29T13:23:21Z</time></trkpt><trkpt lat="42.06823803936954" lon="13.13118259821637"><ele>1278.5</ele><time>2026-03-29T13:23:22Z</time></trkpt><trkpt lat="42.06825895005301" lon="13.131088577246429"><ele>1280.3333333333333</ele><time>2026-03-29T13:23:23Z</time></trkpt><trkpt lat="42.068274308107426" lon="13.130983623000358"><ele>1282.1666666666667</ele><time>2026-03-29T13:23:24Z</time></trkpt><trkpt lat="42.06828600439074" lon="13.130886990698524"><ele>1284.0</ele><time>2026-03-29T13:23:25Z</time></trkpt><trkpt lat="42.06832017632827" lon="13.130799070611664"><ele>1284.8000000000002</ele><time>2026-03-29T13:23:26Z</time></trkpt><trkpt lat="42.06838323930394" lon="13.130693695051809"><ele>1285.6000000000001</ele><time>2026-03-29T13:23:27Z</time></trkpt><trkpt lat="42.068462434708884" lon="13.130600356121255"><ele>1286.4</ele><time>2026-03-29T13:23:28Z</time></trkpt><trkpt lat="42.06853439717584" lon="13.1305055187363"><ele>1287.2</ele><time>2026-03-29T13:23:29Z</time></trkpt><trkpt lat="42.068573460981995" lon="13.130406984845347"><ele>1288.0</ele><time>2026-03-29T13:23:30Z</time></trkpt><trkpt lat="42.06857979199179" lon="13.130320961783921"><ele>1288.0</ele><time>2026-03-29T13:23:31Z</time></trkpt><trkpt lat="42.068563481130184" lon="13.130219823644032"><ele>1288.0</ele><time>2026-03-29T13:23:32Z</time></trkpt><trkpt lat="42.06857041379461" lon="13.130118864676454"><ele>1288.0</ele><time>2026-03-29T13:23:33Z</time></trkpt><trkpt lat="42.068586076861514" lon="13.130012494560706"><ele>1288.0</ele><time>2026-03-29T13:23:34Z</time></trkpt><trkpt lat="42.068566756191515" lon="13.129900163217703"><ele>1288.0</ele><time>2026-03-29T13:23:35Z</time></trkpt><trkpt lat="42.068552134000264" lon="13.129770458820605"><ele>1288.0</ele><time>2026-03-29T13:23:36Z</time></trkpt><trkpt lat="42.06854907858863" lon="13.129621070090328"><ele>1288.8000000000002</ele><time>2026-03-29T13:23:37Z</time></trkpt><trkpt lat="42.06855598163804" lon="13.129467783556285"><ele>1289.6</ele><time>2026-03-29T13:23:38Z</time></trkpt><trkpt lat="42.06856056119825" lon="13.129336622294334"><ele>1290.4</ele><time>2026-03-29T13:23:39Z</time></trkpt><trkpt lat="42.06857098625937" lon="13.129229963954387"><ele>1291.1999999999998</ele><time>2026-03-29T13:23:40Z</time></trkpt><trkpt lat="42.0685791965758" lon="13.129116607243601"><ele>1292.0</ele><time>2026-03-29T13:23:41Z</time></trkpt><trkpt lat="42.06860787303863" lon="13.129002698070899"><ele>1293.1999999999998</ele><time>2026-03-29T13:23:42Z</time></trkpt><trkpt lat="42.06865219016423" lon="13.128890601759908"><ele>1294.4</ele><time>2026-03-29T13:23:43Z</time></trkpt><trkpt lat="42.068692943199586" lon="13.128760806334574"><ele>1295.6</ele><time>2026-03-29T13:23:44Z</time></trkpt><trkpt lat="42.06872450995942" lon="13.128615631332261"><ele>1296.8000000000002</ele><time>2026-03-29T13:23:45Z</time></trkpt><trkpt lat="42.068751162329306" lon="13.128457732860447"><ele>1298.0</ele><time>2026-03-29T13:23:46Z</time></trkpt><trkpt lat="42.0687661131724" lon="13.128309619023387"><ele>1298.6666666666667</ele><time>2026-03-29T13:23:47Z</time></trkpt><trkpt lat="42.06878384900478" lon="13.12817059983113"><ele>1299.3333333333335</ele><time>2026-03-29T13:23:48Z</time></trkpt><trkpt lat="42.06879806212508" lon="13.128068339022017"><ele>1300.0</ele><time>2026-03-29T13:23:49Z</time></trkpt><trkpt lat="42.068804710884436" lon="13.127970921616432"><ele>1300.6666666666667</ele><time>2026-03-29T13:23:50Z</time></trkpt><trkpt lat="42.06879505501645" lon="13.127886653308133"><ele>1301.3333333333333</ele><time>2026-03-29T13:23:51Z</time></trkpt><trkpt lat="42.068788929724676" lon="13.127790043750663"><ele>1302.0</ele><time>2026-03-29T13:23:52Z</time></trkpt><trkpt lat="42.068799310451276" lon="13.127672661951744"><ele>1302.0</ele><time>2026-03-29T13:23:53Z</time></trkpt><trkpt lat="42.06880533861015" lon="13.127539874910322"><ele>1302.0</ele><time>2026-03-29T13:23:54Z</time></trkpt><trkpt lat="42.06880707125232" lon="13.127424141507193"><ele>1302.0</ele><time>2026-03-29T13:23:55Z</time></trkpt><trkpt lat="42.06879716531459" lon="13.127313504094408"><ele>1302.0</ele><time>2026-03-29T13:23:56Z</time></trkpt><trkpt lat="42.06877426004009" lon="13.127209988566188"><ele>1302.0</ele><time>2026-03-29T13:23:57Z</time></trkpt><trkpt lat="42.06873320562643" lon="13.127106475912935"><ele>1302.0</ele><time>2026-03-29T13:23:58Z</time></trkpt><trkpt lat="42.06871151015317" lon="13.12698740244278"><ele>1301.8333333333333</ele><time>2026-03-29T13:23:58.999Z</time></trkpt><trkpt lat="42.06868842940263" lon="13.126857920434144"><ele>1301.6666666666667</ele><time>2026-03-29T13:23:59.999Z</time></trkpt><trkpt lat="42.06865625877194" lon="13.126750125309835"><ele>1301.5</ele><time>2026-03-29T13:24:00.999Z</time></trkpt><trkpt lat="42.068634320267506" lon="13.12664866384276"><ele>1301.3333333333335</ele><time>2026-03-29T13:24:01.999Z</time></trkpt><trkpt lat="42.06863893352251" lon="13.126539814386339"><ele>1301.1666666666667</ele><time>2026-03-29T13:24:02.999Z</time></trkpt><trkpt lat="42.06865474497277" lon="13.126413298672636"><ele>1301.0</ele><time>2026-03-29T13:24:03.999Z</time></trkpt><trkpt lat="42.068644096716625" lon="13.126277130126775"><ele>1299.8333333333335</ele><time>2026-03-29T13:24:04.999Z</time></trkpt><trkpt lat="42.06865120026313" lon="13.126154645832758"><ele>1298.6666666666667</ele><time>2026-03-29T13:24:05.999Z</time></trkpt><trkpt lat="42.068680508620005" lon="13.126051661756756"><ele>1297.5</ele><time>2026-03-29T13:24:06.999Z</time></trkpt><trkpt lat="42.0687157716579" lon="13.125946322986001"><ele>1296.3333333333333</ele><time>2026-03-29T13:24:07.999Z</time></trkpt><trkpt lat="42.068742744855214" lon="13.125833947207957"><ele>1295.1666666666665</ele><time>2026-03-29T13:24:08.999Z</time></trkpt><trkpt lat="42.06877311451352" lon="13.125744718032049"><ele>1294.0</ele><time>2026-03-29T13:24:09.999Z</time></trkpt><trkpt lat="42.06883876395497" lon="13.125618740197408"><ele>1291.6</ele><time>2026-03-29T13:24:12Z</time></trkpt><trkpt lat="42.068900254203044" lon="13.125556363796218"><ele>1289.2</ele><time>2026-03-29T13:24:13Z</time></trkpt><trkpt lat="42.06897889722283" lon="13.125455929075493"><ele>1286.8</ele><time>2026-03-29T13:24:14Z</time></trkpt><trkpt lat="42.06904397185137" lon="13.125353395800918"><ele>1284.3999999999999</ele><time>2026-03-29T13:24:15Z</time></trkpt><trkpt lat="42.06908374826404" lon="13.125223181253267"><ele>1282.0</ele><time>2026-03-29T13:24:17Z</time></trkpt><trkpt lat="42.069108632451616" lon="13.12513970099388"><ele>1281.8</ele><time>2026-03-29T13:24:18Z</time></trkpt><trkpt lat="42.06916391880059" lon="13.125028443093182"><ele>1281.6</ele><time>2026-03-29T13:24:19Z</time></trkpt><trkpt lat="42.06920076580303" lon="13.124913216200813"><ele>1281.3999999999999</ele><time>2026-03-29T13:24:20Z</time></trkpt><trkpt lat="42.06923075393429" lon="13.124789162592219"><ele>1281.1999999999998</ele><time>2026-03-29T13:24:21Z</time></trkpt><trkpt lat="42.069256687026524" lon="13.124670826330723"><ele>1281.0</ele><time>2026-03-29T13:24:22Z</time></trkpt><trkpt lat="42.06928777348213" lon="13.12456832119836"><ele>1280.8333333333333</ele><time>2026-03-29T13:24:23Z</time></trkpt><trkpt lat="42.069317513189525" lon="13.12447118240843"><ele>1280.6666666666667</ele><time>2026-03-29T13:24:24Z</time></trkpt><trkpt lat="42.06933820172251" lon="13.12437180714648"><ele>1280.5</ele><time>2026-03-29T13:24:25Z</time></trkpt><trkpt lat="42.069345349515125" lon="13.124268166353641"><ele>1280.3333333333335</ele><time>2026-03-29T13:24:26Z</time></trkpt><trkpt lat="42.069352765027105" lon="13.124161357834518"><ele>1280.1666666666667</ele><time>2026-03-29T13:24:27Z</time></trkpt><trkpt lat="42.06935969086525" lon="13.124032841924146"><ele>1280.0</ele><time>2026-03-29T13:24:28Z</time></trkpt><trkpt lat="42.069362755126996" lon="13.123893393340868"><ele>1281.6666666666667</ele><time>2026-03-29T13:24:29Z</time></trkpt><trkpt lat="42.06936259509148" lon="13.123752150215875"><ele>1283.3333333333335</ele><time>2026-03-29T13:24:30Z</time></trkpt><trkpt lat="42.069364970837526" lon="13.123623975938397"><ele>1285.0</ele><time>2026-03-29T13:24:31Z</time></trkpt><trkpt lat="42.069373297716155" lon="13.123517729008878"><ele>1286.6666666666667</ele><time>2026-03-29T13:24:32Z</time></trkpt><trkpt lat="42.0693764486937" lon="13.1234180732124"><ele>1288.3333333333333</ele><time>2026-03-29T13:24:33Z</time></trkpt><trkpt lat="42.06936829287631" lon="13.123316745264459"><ele>1290.0</ele><time>2026-03-29T13:24:34Z</time></trkpt><trkpt lat="42.069366254829504" lon="13.123159614316283"><ele>1291.3333333333333</ele><time>2026-03-29T13:24:36Z</time></trkpt><trkpt lat="42.06936455148683" lon="13.123073107137232"><ele>1292.6666666666667</ele><time>2026-03-29T13:24:37Z</time></trkpt><trkpt lat="42.06937341745966" lon="13.122967654028967"><ele>1294.0</ele><time>2026-03-29T13:24:38Z</time></trkpt><trkpt lat="42.06938295748168" lon="13.122858506895263"><ele>1295.3333333333335</ele><time>2026-03-29T13:24:39Z</time></trkpt><trkpt lat="42.06938883849247" lon="13.122751185653572"><ele>1296.6666666666667</ele><time>2026-03-29T13:24:40Z</time></trkpt><trkpt lat="42.06939572733917" lon="13.122645497587431"><ele>1298.0</ele><time>2026-03-29T13:24:41Z</time></trkpt><trkpt lat="42.06940961620412" lon="13.122545603305976"><ele>1298.0</ele><time>2026-03-29T13:24:42Z</time></trkpt><trkpt lat="42.069420155652345" lon="13.12244853638984"><ele>1298.0</ele><time>2026-03-29T13:24:43Z</time></trkpt><trkpt lat="42.06941839242418" lon="13.122345387037452"><ele>1298.0</ele><time>2026-03-29T13:24:44Z</time></trkpt><trkpt lat="42.06942550174753" lon="13.122247597354074"><ele>1298.0</ele><time>2026-03-29T13:24:45Z</time></trkpt><trkpt lat="42.06944242970451" lon="13.122135140416885"><ele>1298.0</ele><time>2026-03-29T13:24:46Z</time></trkpt><trkpt lat="42.069454026153494" lon="13.122026835553275"><ele>1298.0</ele><time>2026-03-29T13:24:47Z</time></trkpt><trkpt lat="42.069452051623955" lon="13.12191864982468"><ele>1298.1666666666667</ele><time>2026-03-29T13:24:48Z</time></trkpt><trkpt lat="42.06945423673589" lon="13.121814084067662"><ele>1298.3333333333335</ele><time>2026-03-29T13:24:49Z</time></trkpt><trkpt lat="42.06945824340425" lon="13.121714581697184"><ele>1298.5</ele><time>2026-03-29T13:24:50Z</time></trkpt><trkpt lat="42.069480410427886" lon="13.121615943646942"><ele>1298.6666666666667</ele><time>2026-03-29T13:24:51Z</time></trkpt><trkpt lat="42.06950839894615" lon="13.121510983925758"><ele>1298.8333333333333</ele><time>2026-03-29T13:24:52Z</time></trkpt><trkpt lat="42.06953564212457" lon="13.121393418661912"><ele>1299.0</ele><time>2026-03-29T13:24:53Z</time></trkpt><trkpt lat="42.06956378862374" lon="13.12125476796566"><ele>1297.2</ele><time>2026-03-29T13:24:54Z</time></trkpt><trkpt lat="42.06958078834639" lon="13.121112962699737"><ele>1295.4</ele><time>2026-03-29T13:24:55Z</time></trkpt><trkpt lat="42.06960326012745" lon="13.120984438510764"><ele>1293.6</ele><time>2026-03-29T13:24:56Z</time></trkpt><trkpt lat="42.069625921108425" lon="13.120863912850375"><ele>1291.8</ele><time>2026-03-29T13:24:57Z</time></trkpt><trkpt lat="42.069643803861005" lon="13.120739659201199"><ele>1290.0</ele><time>2026-03-29T13:24:58Z</time></trkpt><trkpt lat="42.06966362822836" lon="13.120621786265607"><ele>1287.6</ele><time>2026-03-29T13:24:59Z</time></trkpt><trkpt lat="42.06968479492315" lon="13.120502367759922"><ele>1285.2</ele><time>2026-03-29T13:25:00Z</time></trkpt><trkpt lat="42.06969749022018" lon="13.120384259700646"><ele>1282.8</ele><time>2026-03-29T13:25:01Z</time></trkpt><trkpt lat="42.069716638353206" lon="13.120270973160553"><ele>1280.4</ele><time>2026-03-29T13:25:02Z</time></trkpt><trkpt lat="42.069753363133955" lon="13.120147448700193"><ele>1278.0</ele><time>2026-03-29T13:25:03Z</time></trkpt><trkpt lat="42.06978712373022" lon="13.11997358822363"><ele>1275.4</ele><time>2026-03-29T13:25:04Z</time></trkpt><trkpt lat="42.06981507369891" lon="13.1197979611568"><ele>1272.8</ele><time>2026-03-29T13:25:05Z</time></trkpt><trkpt lat="42.06983172628436" lon="13.119663671692184"><ele>1270.2</ele><time>2026-03-29T13:25:06Z</time></trkpt><trkpt lat="42.06984606747136" lon="13.119554772333277"><ele>1267.6</ele><time>2026-03-29T13:25:07Z</time></trkpt><trkpt lat="42.0698505240775" lon="13.119443550723135"><ele>1265.0</ele><time>2026-03-29T13:25:08Z</time></trkpt><trkpt lat="42.06985797290987" lon="13.119323052151977"><ele>1265.0</ele><time>2026-03-29T13:25:09Z</time></trkpt><trkpt lat="42.069876462450466" lon="13.119203367746787"><ele>1265.0</ele><time>2026-03-29T13:25:10Z</time></trkpt><trkpt lat="42.06990571703808" lon="13.119074123154247"><ele>1265.0</ele><time>2026-03-29T13:25:11Z</time></trkpt><trkpt lat="42.06994273738081" lon="13.118942661555169"><ele>1265.0</ele><time>2026-03-29T13:25:12Z</time></trkpt><trkpt lat="42.06999297933683" lon="13.118806077447104"><ele>1265.0</ele><time>2026-03-29T13:25:13Z</time></trkpt><trkpt lat="42.07003414068074" lon="13.118662955554493"><ele>1267.0</ele><time>2026-03-29T13:25:14Z</time></trkpt><trkpt lat="42.07005619871984" lon="13.118537143869979"><ele>1269.0</ele><time>2026-03-29T13:25:15Z</time></trkpt><trkpt lat="42.07006065621617" lon="13.118430972521656"><ele>1271.0</ele><time>2026-03-29T13:25:16Z</time></trkpt><trkpt lat="42.07004719476759" lon="13.118310537604065"><ele>1273.0</ele><time>2026-03-29T13:25:17Z</time></trkpt><trkpt lat="42.07003190468741" lon="13.11817457537307"><ele>1275.0</ele><time>2026-03-29T13:25:18Z</time></trkpt><trkpt lat="42.07002644163141" lon="13.118058077162884"><ele>1275.0</ele><time>2026-03-29T13:25:19Z</time></trkpt><trkpt lat="42.070021928031984" lon="13.117973214642989"><ele>1275.0</ele><time>2026-03-29T13:25:20Z</time></trkpt><trkpt lat="42.070011920068715" lon="13.117831646288678"><ele>1275.0</ele><time>2026-03-29T13:25:22Z</time></trkpt><trkpt lat="42.069997130190124" lon="13.11767216942313"><ele>1275.0</ele><time>2026-03-29T13:25:24Z</time></trkpt><trkpt lat="42.069988169858796" lon="13.117505598401758"><ele>1275.0</ele><time>2026-03-29T13:25:26Z</time></trkpt><trkpt lat="42.0699806437822" lon="13.117375000433388"><ele>1272.0</ele><time>2026-03-29T13:25:28Z</time></trkpt><trkpt lat="42.06997473536699" lon="13.11725966441684"><ele>1269.0</ele><time>2026-03-29T13:25:30Z</time></trkpt><trkpt lat="42.06995144811285" lon="13.117143891415294"><ele>1266.0</ele><time>2026-03-29T13:25:32Z</time></trkpt><trkpt lat="42.06991074366932" lon="13.11705255827152"><ele>1263.0</ele><time>2026-03-29T13:25:34Z</time></trkpt><trkpt lat="42.069871005587565" lon="13.116981261637228"><ele>1260.0</ele><time>2026-03-29T13:25:37Z</time></trkpt><trkpt lat="42.06984743303971" lon="13.116896411476487"><ele>1257.0</ele><time>2026-03-29T13:26:04Z</time></trkpt><trkpt lat="42.06981065555325" lon="13.116812014105212"><ele>1253.4285714285716</ele><time>2026-03-29T13:26:08.999Z</time></trkpt><trkpt lat="42.06981035201028" lon="13.116726106425423"><ele>1249.857142857143</ele><time>2026-03-29T13:26:13.999Z</time></trkpt><trkpt lat="42.06980562422981" lon="13.116624034138855"><ele>1246.2857142857142</ele><time>2026-03-29T13:26:18.001Z</time></trkpt><trkpt lat="42.06981542968037" lon="13.116537409153274"><ele>1242.7142857142858</ele><time>2026-03-29T13:26:21.001Z</time></trkpt><trkpt lat="42.06981300834932" lon="13.11644754653732"><ele>1239.142857142857</ele><time>2026-03-29T13:26:24.001Z</time></trkpt><trkpt lat="42.069823880283145" lon="13.116352633146994"><ele>1235.5714285714287</ele><time>2026-03-29T13:26:27.001Z</time></trkpt><trkpt lat="42.069835050241686" lon="13.116229050541396"><ele>1232.0</ele><time>2026-03-29T13:26:30.001Z</time></trkpt><trkpt lat="42.06983878397502" lon="13.116128789172354"><ele>1229.142857142857</ele><time>2026-03-29T13:26:34Z</time></trkpt><trkpt lat="42.06981122868307" lon="13.116038839738994"><ele>1226.2857142857142</ele><time>2026-03-29T13:26:38Z</time></trkpt><trkpt lat="42.06982296833111" lon="13.115926600597575"><ele>1223.4285714285716</ele><time>2026-03-29T13:26:43Z</time></trkpt><trkpt lat="42.06982823714724" lon="13.115832728252272"><ele>1220.5714285714284</ele><time>2026-03-29T13:26:47Z</time></trkpt><trkpt lat="42.0698086246097" lon="13.115751766263562"><ele>1217.7142857142858</ele><time>2026-03-29T13:26:50Z</time></trkpt><trkpt lat="42.0697931102127" lon="13.115660225769487"><ele>1214.857142857143</ele><time>2026-03-29T13:27:01Z</time></trkpt><trkpt lat="42.06978518739745" lon="13.115567605970861"><ele>1212.0</ele><time>2026-03-29T13:27:06Z</time></trkpt><trkpt lat="42.069788791491234" lon="13.1154507672479"><ele>1208.1666666666667</ele><time>2026-03-29T13:27:10Z</time></trkpt><trkpt lat="42.06980157321594" lon="13.115354540971184"><ele>1204.3333333333333</ele><time>2026-03-29T13:27:14Z</time></trkpt><trkpt lat="42.069793275850145" lon="13.115263593709573"><ele>1200.5</ele><time>2026-03-29T13:27:17Z</time></trkpt><trkpt lat="42.06979449491902" lon="13.115157615650052"><ele>1196.6666666666665</ele><time>2026-03-29T13:27:20Z</time></trkpt><trkpt lat="42.069802316422745" lon="13.115050969220801"><ele>1192.8333333333333</ele><time>2026-03-29T13:27:24Z</time></trkpt><trkpt lat="42.069803837844006" lon="13.114942411519012"><ele>1189.0</ele><time>2026-03-29T13:27:26Z</time></trkpt><trkpt lat="42.06980152109072" lon="13.11483275962907"><ele>1185.2857142857142</ele><time>2026-03-29T13:27:30Z</time></trkpt><trkpt lat="42.069803765757406" lon="13.114731536184218"><ele>1181.5714285714287</ele><time>2026-03-29T13:27:33Z</time></trkpt><trkpt lat="42.069808283773604" lon="13.114642106131525"><ele>1177.857142857143</ele><time>2026-03-29T13:27:37Z</time></trkpt><trkpt lat="42.06981775209586" lon="13.114550350508326"><ele>1174.142857142857</ele><time>2026-03-29T13:27:42Z</time></trkpt><trkpt lat="42.069815977871066" lon="13.11445476461791"><ele>1170.4285714285713</ele><time>2026-03-29T13:27:46Z</time></trkpt><trkpt lat="42.069837974996915" lon="13.114369538490575"><ele>1166.7142857142858</ele><time>2026-03-29T13:27:52Z</time></trkpt><trkpt lat="42.069875480790984" lon="13.114293215798092"><ele>1163.0</ele><time>2026-03-29T13:27:57Z</time></trkpt><trkpt lat="42.0699381958436" lon="13.1142437678433"><ele>1164.6666666666667</ele><time>2026-03-29T13:28:01Z</time></trkpt><trkpt lat="42.070020039413954" lon="13.11420016225392"><ele>1166.3333333333335</ele><time>2026-03-29T13:28:04Z</time></trkpt><trkpt lat="42.07006055333797" lon="13.114117340090555"><ele>1168.0</ele><time>2026-03-29T13:28:07Z</time></trkpt><trkpt lat="42.07014873175572" lon="13.114060257963729"><ele>1169.6666666666667</ele><time>2026-03-29T13:28:10.999Z</time></trkpt><trkpt lat="42.070172875787904" lon="13.113949998790684"><ele>1171.3333333333333</ele><time>2026-03-29T13:28:13.999Z</time></trkpt><trkpt lat="42.0701960953261" lon="13.113843599606588"><ele>1173.0</ele><time>2026-03-29T13:30:19.999Z</time></trkpt><trkpt lat="42.07021535277476" lon="13.113739563946503"><ele>1169.6666666666667</ele><time>2026-03-29T13:30:22.999Z</time></trkpt><trkpt lat="42.07022192783252" lon="13.113650912121258"><ele>1166.3333333333333</ele><time>2026-03-29T13:30:24.999Z</time></trkpt><trkpt lat="42.0702185901915" lon="13.11352071468611"><ele>1163.0</ele><time>2026-03-29T13:30:26.999Z</time></trkpt><trkpt lat="42.07022828981853" lon="13.113433209576693"><ele>1159.6666666666665</ele><time>2026-03-29T13:30:28Z</time></trkpt><trkpt lat="42.0702414970734" lon="13.113289789872963"><ele>1156.3333333333333</ele><time>2026-03-29T13:30:30Z</time></trkpt><trkpt lat="42.07028618572983" lon="13.11317251706313"><ele>1153.0</ele><time>2026-03-29T13:30:32Z</time></trkpt><trkpt lat="42.070321724781756" lon="13.113027632679294"><ele>1148.2</ele><time>2026-03-29T13:30:34Z</time></trkpt><trkpt lat="42.070353195607126" lon="13.112895996561331"><ele>1143.4</ele><time>2026-03-29T13:30:36Z</time></trkpt><trkpt lat="42.070382925146426" lon="13.112769820693643"><ele>1138.6000000000001</ele><time>2026-03-29T13:30:38Z</time></trkpt><trkpt lat="42.07040299273644" lon="13.112654667284326"><ele>1133.8</ele><time>2026-03-29T13:30:40Z</time></trkpt><trkpt lat="42.070439232384615" lon="13.112517292555417"><ele>1129.0</ele><time>2026-03-29T13:30:42Z</time></trkpt><trkpt lat="42.07047689034247" lon="13.112398918838688"><ele>1125.1666666666665</ele><time>2026-03-29T13:30:44Z</time></trkpt><trkpt lat="42.07051906178183" lon="13.112256630856276"><ele>1121.3333333333333</ele><time>2026-03-29T13:30:46Z</time></trkpt><trkpt lat="42.07053658609363" lon="13.112143303151504"><ele>1117.5</ele><time>2026-03-29T13:30:48Z</time></trkpt><trkpt lat="42.070552314506244" lon="13.112041664536484"><ele>1113.6666666666667</ele><time>2026-03-29T13:30:50Z</time></trkpt><trkpt lat="42.07055388881452" lon="13.111934189200413"><ele>1109.8333333333335</ele><time>2026-03-29T13:30:54Z</time></trkpt><trkpt lat="42.07055329875714" lon="13.111842383857"><ele>1106.0</ele><time>2026-03-29T13:30:57Z</time></trkpt><trkpt lat="42.07055260157224" lon="13.111742606485887"><ele>1106.0</ele><time>2026-03-29T13:31:01Z</time></trkpt><trkpt lat="42.07057931155847" lon="13.11166063921961"><ele>1106.0</ele><time>2026-03-29T13:31:04Z</time></trkpt><trkpt lat="42.07059966642862" lon="13.11156806274227"><ele>1106.0</ele><time>2026-03-29T13:31:11Z</time></trkpt><trkpt lat="42.07060514228258" lon="13.111452380205531"><ele>1106.0</ele><time>2026-03-29T13:31:16Z</time></trkpt><trkpt lat="42.07059310560516" lon="13.111336734252244"><ele>1106.0</ele><time>2026-03-29T13:31:19Z</time></trkpt><trkpt lat="42.070588219112246" lon="13.111214360792518"><ele>1106.0</ele><time>2026-03-29T13:31:21Z</time></trkpt><trkpt lat="42.070589944745905" lon="13.111084627871119"><ele>1101.3999999999999</ele><time>2026-03-29T13:31:24Z</time></trkpt><trkpt lat="42.07060600490665" lon="13.110982115258135"><ele>1096.8</ele><time>2026-03-29T13:31:26Z</time></trkpt><trkpt lat="42.07064113838504" lon="13.110881222359833"><ele>1092.1999999999998</ele><time>2026-03-29T13:31:28Z</time></trkpt><trkpt lat="42.07068272275149" lon="13.110775250860058"><ele>1087.6</ele><time>2026-03-29T13:31:30Z</time></trkpt><trkpt lat="42.07072252039745" lon="13.110700184017949"><ele>1083.0</ele><time>2026-03-29T13:31:33Z</time></trkpt><trkpt lat="42.07080838584006" lon="13.11052515954231"><ele>1079.1666666666667</ele><time>2026-03-29T13:31:36Z</time></trkpt><trkpt lat="42.07086553919209" lon="13.110416307554862"><ele>1075.3333333333333</ele><time>2026-03-29T13:31:38Z</time></trkpt><trkpt lat="42.07090621337998" lon="13.110331273594724"><ele>1071.5</ele><time>2026-03-29T13:31:40Z</time></trkpt><trkpt lat="42.070956586059964" lon="13.11025169016441"><ele>1067.6666666666665</ele><time>2026-03-29T13:31:42Z</time></trkpt><trkpt lat="42.071000331823555" lon="13.11018397705568"><ele>1063.8333333333333</ele><time>2026-03-29T13:31:44Z</time></trkpt><trkpt lat="42.07104348277377" lon="13.110074502135328"><ele>1060.0</ele><time>2026-03-29T13:31:46Z</time></trkpt><trkpt lat="42.07107522672114" lon="13.10999379995425"><ele>1055.8</ele><time>2026-03-29T13:31:47Z</time></trkpt><trkpt lat="42.07113821131685" lon="13.1098430105585"><ele>1051.6</ele><time>2026-03-29T13:31:49Z</time></trkpt><trkpt lat="42.07120383423791" lon="13.109708320612826"><ele>1047.4</ele><time>2026-03-29T13:31:51Z</time></trkpt><trkpt lat="42.07126764577464" lon="13.109572858987683"><ele>1043.2</ele><time>2026-03-29T13:31:53Z</time></trkpt><trkpt lat="42.07131363699793" lon="13.109495332028585"><ele>1039.0</ele><time>2026-03-29T13:31:54Z</time></trkpt><trkpt lat="42.07135715919885" lon="13.109428660461576"><ele>1039.0</ele><time>2026-03-29T13:31:55Z</time></trkpt><trkpt lat="42.07141347255738" lon="13.109303411921708"><ele>1039.0</ele><time>2026-03-29T13:31:57Z</time></trkpt><trkpt lat="42.07143101780672" lon="13.109220750343463"><ele>1039.0</ele><time>2026-03-29T13:31:58Z</time></trkpt><trkpt lat="42.07147609070987" lon="13.109080700081392"><ele>1039.0</ele><time>2026-03-29T13:32:00Z</time></trkpt><trkpt lat="42.07152561568311" lon="13.108977312220492"><ele>1039.0</ele><time>2026-03-29T13:32:02Z</time></trkpt><trkpt lat="42.07158393980536" lon="13.108915971755998"><ele>1035.4</ele><time>2026-03-29T13:32:04Z</time></trkpt><trkpt lat="42.07161955882732" lon="13.108830376796949"><ele>1031.8000000000002</ele><time>2026-03-29T13:32:06Z</time></trkpt><trkpt lat="42.07157270144703" lon="13.108714075395136"><ele>1028.1999999999998</ele><time>2026-03-29T13:32:08Z</time></trkpt><trkpt lat="42.07158960423912" lon="13.1085790960607"><ele>1024.6</ele><time>2026-03-29T13:32:10Z</time></trkpt><trkpt lat="42.071572916728535" lon="13.10843749973988"><ele>1021.0</ele><time>2026-03-29T13:32:12Z</time></trkpt><trkpt lat="42.07159266493737" lon="13.10833438899538"><ele>1016.4</ele><time>2026-03-29T13:32:13.999Z</time></trkpt><trkpt lat="42.071636665361865" lon="13.108192233291433"><ele>1011.8</ele><time>2026-03-29T13:32:15.999Z</time></trkpt><trkpt lat="42.07163846648141" lon="13.108036061228296"><ele>1007.1999999999999</ele><time>2026-03-29T13:32:17.999Z</time></trkpt><trkpt lat="42.07160753145808" lon="13.107903471898911"><ele>1002.5999999999999</ele><time>2026-03-29T13:32:19.999Z</time></trkpt><trkpt lat="42.07158176399458" lon="13.107783011381912"><ele>998.0</ele><time>2026-03-29T13:32:21.999Z</time></trkpt><trkpt lat="42.07164859607865" lon="13.107754714584772"><ele>998.0000000000001</ele><time>2026-03-29T13:32:32.999Z</time></trkpt><trkpt lat="42.07173919990194" lon="13.107717609530088"><ele>998.0</ele><time>2026-03-29T13:32:36Z</time></trkpt><trkpt lat="42.07180574254495" lon="13.107710577329048"><ele>998.0</ele><time>2026-03-29T13:32:37Z</time></trkpt><trkpt lat="42.07189418346496" lon="13.107722486733609"><ele>998.0</ele><time>2026-03-29T13:32:39Z</time></trkpt><trkpt lat="42.071971223158954" lon="13.10775424933539"><ele>998.0000000000001</ele><time>2026-03-29T13:32:41Z</time></trkpt><trkpt lat="42.072047638170055" lon="13.107800882432711"><ele>998.0</ele><time>2026-03-29T13:32:43Z</time></trkpt><trkpt lat="42.07211533228129" lon="13.107882419305435"><ele>998.0000000000001</ele><time>2026-03-29T13:32:45Z</time></trkpt><trkpt lat="42.07214266866084" lon="13.107989981772034"><ele>998.0</ele><time>2026-03-29T13:32:47Z</time></trkpt><trkpt lat="42.07218055849002" lon="13.10806690202201"><ele>998.0</ele><time>2026-03-29T13:32:49Z</time></trkpt><trkpt lat="42.07222901741092" lon="13.108142789371096"><ele>998.0</ele><time>2026-03-29T13:32:54Z</time></trkpt><trkpt lat="42.07227504199765" lon="13.108263477301158"><ele>998.0000000000001</ele><time>2026-03-29T13:32:58Z</time></trkpt><trkpt lat="42.07228208465912" lon="13.108405891841299"><ele>998.0</ele><time>2026-03-29T13:33:01Z</time></trkpt><trkpt lat="42.07229559693669" lon="13.108509971544821"><ele>999.0</ele><time>2026-03-29T13:33:04Z</time></trkpt><trkpt lat="42.072324647017666" lon="13.108612032359277"><ele>1000.0</ele><time>2026-03-29T13:33:06Z</time></trkpt><trkpt lat="42.0724202701451" lon="13.108705629724682"><ele>1001.0</ele><time>2026-03-29T13:33:09Z</time></trkpt><trkpt lat="42.07244693013563" lon="13.10885278333183"><ele>1002.0</ele><time>2026-03-29T13:33:11Z</time></trkpt><trkpt lat="42.07247755673091" lon="13.108997554140126"><ele>1003.0</ele><time>2026-03-29T13:33:13Z</time></trkpt><trkpt lat="42.072535181577635" lon="13.109098506640624"><ele>1003.5714285714286</ele><time>2026-03-29T13:33:14Z</time></trkpt><trkpt lat="42.0725571856739" lon="13.10919350921109"><ele>1004.1428571428571</ele><time>2026-03-29T13:33:15Z</time></trkpt><trkpt lat="42.07255803288862" lon="13.109278781693389"><ele>1004.7142857142857</ele><time>2026-03-29T13:33:17Z</time></trkpt><trkpt lat="42.0725359352507" lon="13.10936243612239"><ele>1005.2857142857142</ele><time>2026-03-29T13:33:20Z</time></trkpt><trkpt lat="42.07249267485169" lon="13.109427029783543"><ele>1005.8571428571429</ele><time>2026-03-29T13:33:24Z</time></trkpt><trkpt lat="42.0724355492942" lon="13.10950877099798"><ele>1006.4285714285713</ele><time>2026-03-29T13:33:29Z</time></trkpt><trkpt lat="42.072474700714984" lon="13.109611952153557"><ele>1007.0</ele><time>2026-03-29T13:33:32Z</time></trkpt><trkpt lat="42.07252379086793" lon="13.109728486752342"><ele>1007.0000000000001</ele><time>2026-03-29T13:33:35Z</time></trkpt><trkpt lat="42.072562470544625" lon="13.109818534061327"><ele>1007.0</ele><time>2026-03-29T13:33:37Z</time></trkpt><trkpt lat="42.072623407600474" lon="13.109884018330845"><ele>1007.0</ele><time>2026-03-29T13:33:39Z</time></trkpt><trkpt lat="42.072700166333505" lon="13.109941355739387"><ele>1007.0</ele><time>2026-03-29T13:33:42Z</time></trkpt><trkpt lat="42.072752053900324" lon="13.110008006371059"><ele>1007.0000000000001</ele><time>2026-03-29T13:33:45Z</time></trkpt><trkpt lat="42.07281006249914" lon="13.110044279091921"><ele>1007.0</ele><time>2026-03-29T13:33:47Z</time></trkpt><trkpt lat="42.072876501570285" lon="13.110122723746706"><ele>1007.8571428571429</ele><time>2026-03-29T13:33:50Z</time></trkpt><trkpt lat="42.072908828727" lon="13.110197144901704"><ele>1008.7142857142858</ele><time>2026-03-29T13:33:53Z</time></trkpt><trkpt lat="42.07290450362418" lon="13.110300595487866"><ele>1009.5714285714287</ele><time>2026-03-29T13:33:57Z</time></trkpt><trkpt lat="42.072901950688426" lon="13.110399342758338"><ele>1010.4285714285714</ele><time>2026-03-29T13:34:01Z</time></trkpt><trkpt lat="42.072928511327305" lon="13.110484526342754"><ele>1011.2857142857144</ele><time>2026-03-29T13:34:04Z</time></trkpt><trkpt lat="42.072952765617075" lon="13.110598181530937"><ele>1012.1428571428572</ele><time>2026-03-29T13:34:08Z</time></trkpt><trkpt lat="42.072955808991466" lon="13.110686761979336"><ele>1013.0</ele><time>2026-03-29T13:34:11Z</time></trkpt><trkpt lat="42.073003601190926" lon="13.110788017525522"><ele>1015.3333333333334</ele><time>2026-03-29T13:34:13.999Z</time></trkpt><trkpt lat="42.073006690880746" lon="13.110922413575091"><ele>1017.6666666666667</ele><time>2026-03-29T13:34:15.999Z</time></trkpt><trkpt lat="42.07302451278074" lon="13.111038515837778"><ele>1020.0</ele><time>2026-03-29T13:34:17.999Z</time></trkpt><trkpt lat="42.073030228633996" lon="13.111155599465208"><ele>1022.3333333333333</ele><time>2026-03-29T13:34:20.999Z</time></trkpt><trkpt lat="42.073076718039495" lon="13.111237770691401"><ele>1024.6666666666665</ele><time>2026-03-29T13:34:23.999Z</time></trkpt><trkpt lat="42.07311633772463" lon="13.111305169615903"><ele>1027.0</ele><time>2026-03-29T13:34:25.999Z</time></trkpt><trkpt lat="42.07318219379945" lon="13.111342299928559"><ele>1027.0</ele><time>2026-03-29T13:34:28.999Z</time></trkpt><trkpt lat="42.07327013095169" lon="13.111358122196659"><ele>1027.0</ele><time>2026-03-29T13:34:31.999Z</time></trkpt><trkpt lat="42.07333528967945" lon="13.111375487628612"><ele>1027.0</ele><time>2026-03-29T13:34:34.999Z</time></trkpt><trkpt lat="42.07340508940635" lon="13.111427464726656"><ele>1027.0</ele><time>2026-03-29T13:34:36.999Z</time></trkpt><trkpt lat="42.07346264606632" lon="13.111488418693511"><ele>1027.0</ele><time>2026-03-29T13:34:40Z</time></trkpt><trkpt lat="42.073548999644224" lon="13.111536038631161"><ele>1027.0</ele><time>2026-03-29T13:34:43Z</time></trkpt><trkpt lat="42.07364492150378" lon="13.111601660815923"><ele>1019.4000000000001</ele><time>2026-03-29T13:34:46Z</time></trkpt><trkpt lat="42.073717895567434" lon="13.111570364167045"><ele>1011.8000000000001</ele><time>2026-03-29T13:34:48Z</time></trkpt><trkpt lat="42.07382019946173" lon="13.111550958245664"><ele>1004.2</ele><time>2026-03-29T13:34:51Z</time></trkpt><trkpt lat="42.073916898740926" lon="13.111484153334304"><ele>996.6</ele><time>2026-03-29T13:34:53Z</time></trkpt><trkpt lat="42.07399161415722" lon="13.111400404982682"><ele>989.0</ele><time>2026-03-29T13:34:55Z</time></trkpt><trkpt lat="42.07406111873651" lon="13.111336381901438"><ele>989.5000000000001</ele><time>2026-03-29T13:34:57Z</time></trkpt><trkpt lat="42.074151288948094" lon="13.111260322749994"><ele>990.0</ele><time>2026-03-29T13:34:59Z</time></trkpt><trkpt lat="42.07421810351937" lon="13.11122895487378"><ele>990.5</ele><time>2026-03-29T13:35:02Z</time></trkpt><trkpt lat="42.07428314951904" lon="13.111212655773029"><ele>991.0</ele><time>2026-03-29T13:35:10Z</time></trkpt><trkpt lat="42.074346905446575" lon="13.11119345702557"><ele>991.5000000000001</ele><time>2026-03-29T13:35:15Z</time></trkpt><trkpt lat="42.0744272412434" lon="13.111161182463562"><ele>992.0</ele><time>2026-03-29T13:35:19Z</time></trkpt><trkpt lat="42.07451244721655" lon="13.111115616334606"><ele>992.0000000000001</ele><time>2026-03-29T13:35:23Z</time></trkpt><trkpt lat="42.07460050039947" lon="13.111094739255742"><ele>992.0</ele><time>2026-03-29T13:36:04Z</time></trkpt><trkpt lat="42.07464284562249" lon="13.111026274317489"><ele>992.0</ele><time>2026-03-29T13:38:21.999Z</time></trkpt><trkpt lat="42.07470492420779" lon="13.110999092242563"><ele>992.0</ele><time>2026-03-29T13:40:18Z</time></trkpt><trkpt lat="42.07477095245465" lon="13.110954007566916"><ele>992.0000000000001</ele><time>2026-03-29T13:41:13Z</time></trkpt><trkpt lat="42.07483253057459" lon="13.110910795072385"><ele>992.0</ele><time>2026-03-29T13:41:17Z</time></trkpt><trkpt lat="42.07492012527018" lon="13.110873066343762"><ele>995.75</ele><time>2026-03-29T13:41:21Z</time></trkpt><trkpt lat="42.07499326850789" lon="13.110745959188069"><ele>999.5</ele><time>2026-03-29T13:41:23Z</time></trkpt><trkpt lat="42.075005915286205" lon="13.110591978139778"><ele>1003.25</ele><time>2026-03-29T13:41:25Z</time></trkpt><trkpt lat="42.07504043908187" lon="13.11048001591287"><ele>1007.0</ele><time>2026-03-29T13:41:27Z</time></trkpt><trkpt lat="42.07507400974154" lon="13.11031175652673"><ele>1007.0000000000001</ele><time>2026-03-29T13:41:29Z</time></trkpt><trkpt lat="42.075075685876925" lon="13.110220670676174"><ele>1007.0</ele><time>2026-03-29T13:41:30Z</time></trkpt><trkpt lat="42.07510639346884" lon="13.110086439274278"><ele>1007.0</ele><time>2026-03-29T13:41:32Z</time></trkpt><trkpt lat="42.07512730929217" lon="13.109994636351535"><ele>1007.0</ele><time>2026-03-29T13:41:33Z</time></trkpt><trkpt lat="42.07514038834276" lon="13.10990377212243"><ele>1007.0000000000001</ele><time>2026-03-29T13:41:34Z</time></trkpt><trkpt lat="42.075167010588494" lon="13.109800860113062"><ele>1007.0</ele><time>2026-03-29T13:41:35Z</time></trkpt><trkpt lat="42.07519765200233" lon="13.109706342484834"><ele>1003.4000000000001</ele><time>2026-03-29T13:41:36Z</time></trkpt><trkpt lat="42.07519725091528" lon="13.109537761227534"><ele>999.8000000000001</ele><time>2026-03-29T13:41:38Z</time></trkpt><trkpt lat="42.07520734420267" lon="13.109410824414642"><ele>996.2</ele><time>2026-03-29T13:41:40Z</time></trkpt><trkpt lat="42.075222988783864" lon="13.109321992144993"><ele>992.6</ele><time>2026-03-29T13:41:42Z</time></trkpt><trkpt lat="42.075238382244166" lon="13.109196445223892"><ele>989.0</ele><time>2026-03-29T13:41:45Z</time></trkpt><trkpt lat="42.07528138997268" lon="13.109118187570383"><ele>986.8333333333334</ele><time>2026-03-29T13:41:48Z</time></trkpt><trkpt lat="42.07530118378023" lon="13.109022283351418"><ele>984.6666666666667</ele><time>2026-03-29T13:41:58Z</time></trkpt><trkpt lat="42.07533696507474" lon="13.108919848195765"><ele>982.5</ele><time>2026-03-29T13:42:02Z</time></trkpt><trkpt lat="42.075382946670445" lon="13.108832145863495"><ele>980.3333333333333</ele><time>2026-03-29T13:42:05Z</time></trkpt><trkpt lat="42.07540636080037" lon="13.108723865934245"><ele>978.1666666666666</ele><time>2026-03-29T13:42:08Z</time></trkpt><trkpt lat="42.0754105456257" lon="13.10859929130798"><ele>976.0</ele><time>2026-03-29T13:42:10Z</time></trkpt><trkpt lat="42.075415345280675" lon="13.108513907228962"><ele>975.9999999999999</ele><time>2026-03-29T13:42:12Z</time></trkpt><trkpt lat="42.07545071546684" lon="13.108425311776717"><ele>976.0</ele><time>2026-03-29T13:42:14Z</time></trkpt><trkpt lat="42.075457911945044" lon="13.108302955489119"><ele>976.0</ele><time>2026-03-29T13:42:17Z</time></trkpt><trkpt lat="42.075451493783774" lon="13.108198694568765"><ele>976.0</ele><time>2026-03-29T13:42:20Z</time></trkpt><trkpt lat="42.07546653814202" lon="13.108109258566918"><ele>975.9999999999999</ele><time>2026-03-29T13:42:22Z</time></trkpt><trkpt lat="42.07544180034695" lon="13.108005631708577"><ele>976.0</ele><time>2026-03-29T13:42:24.999Z</time></trkpt><trkpt lat="42.07540129727453" lon="13.107920349850188"><ele>973.7142857142856</ele><time>2026-03-29T13:42:27.999Z</time></trkpt><trkpt lat="42.075388158683644" lon="13.107813178318459"><ele>971.4285714285713</ele><time>2026-03-29T13:42:30.999Z</time></trkpt><trkpt lat="42.07538891335237" lon="13.107710740949225"><ele>969.1428571428571</ele><time>2026-03-29T13:42:33.999Z</time></trkpt><trkpt lat="42.07537687439545" lon="13.107602218918075"><ele>966.8571428571428</ele><time>2026-03-29T13:42:37.999Z</time></trkpt><trkpt lat="42.07537480684094" lon="13.10750865360189"><ele>964.5714285714284</ele><time>2026-03-29T13:42:40.999Z</time></trkpt><trkpt lat="42.07534747600284" lon="13.10741133426979"><ele>962.2857142857143</ele><time>2026-03-29T13:42:44.999Z</time></trkpt><trkpt lat="42.075335374072154" lon="13.10732660476558"><ele>960.0</ele><time>2026-03-29T13:42:47.999Z</time></trkpt><trkpt lat="42.07535826143144" lon="13.107246354215636"><ele>957.1666666666666</ele><time>2026-03-29T13:42:53.999Z</time></trkpt><trkpt lat="42.075421072359454" lon="13.107187067073934"><ele>954.3333333333333</ele><time>2026-03-29T13:42:59.999Z</time></trkpt><trkpt lat="42.07548728830453" lon="13.107155173149527"><ele>951.5</ele><time>2026-03-29T13:43:05Z</time></trkpt><trkpt lat="42.07549890963552" lon="13.107058099667762"><ele>948.6666666666666</ele><time>2026-03-29T13:43:08Z</time></trkpt><trkpt lat="42.075470434234184" lon="13.106958869250297"><ele>945.8333333333333</ele><time>2026-03-29T13:43:12Z</time></trkpt><trkpt lat="42.07551176547148" lon="13.106851957859208"><ele>943.0</ele><time>2026-03-29T13:43:15Z</time></trkpt><trkpt lat="42.07554228094348" lon="13.106758704949435"><ele>943.0</ele><time>2026-03-29T13:43:18Z</time></trkpt><trkpt lat="42.075556529548955" lon="13.106661844574356"><ele>943.0000000000001</ele><time>2026-03-29T13:43:21Z</time></trkpt><trkpt lat="42.07558240056783" lon="13.10656812952135"><ele>943.0</ele><time>2026-03-29T13:43:28Z</time></trkpt><trkpt lat="42.07558932474633" lon="13.106481511977545"><ele>943.0</ele><time>2026-03-29T13:43:32Z</time></trkpt><trkpt lat="42.07562108280625" lon="13.106393292878332"><ele>943.0000000000001</ele><time>2026-03-29T13:43:36Z</time></trkpt><trkpt lat="42.07563679938392" lon="13.106275637794324"><ele>943.0</ele><time>2026-03-29T13:43:40Z</time></trkpt><trkpt lat="42.07563955806945" lon="13.10618518145728"><ele>943.0</ele><time>2026-03-29T13:43:43Z</time></trkpt><trkpt lat="42.07572179371154" lon="13.106118362552577"><ele>940.7142857142858</ele><time>2026-03-29T13:43:46Z</time></trkpt><trkpt lat="42.07567514988427" lon="13.106039588650976"><ele>938.4285714285716</ele><time>2026-03-29T13:43:49Z</time></trkpt><trkpt lat="42.0756415914742" lon="13.10596008107403"><ele>936.1428571428571</ele><time>2026-03-29T13:43:52Z</time></trkpt><trkpt lat="42.075637470902926" lon="13.105859907116171"><ele>933.8571428571429</ele><time>2026-03-29T13:43:55Z</time></trkpt><trkpt lat="42.07566181868986" lon="13.105760523573533"><ele>931.5714285714286</ele><time>2026-03-29T13:43:58Z</time></trkpt><trkpt lat="42.07567174202659" lon="13.105670197257453"><ele>929.2857142857142</ele><time>2026-03-29T13:43:59Z</time></trkpt><trkpt lat="42.07569024361275" lon="13.105574984822368"><ele>926.9999999999999</ele><time>2026-03-29T13:44:02Z</time></trkpt><trkpt lat="42.0757010299868" lon="13.105415145849259"><ele>926.4000000000001</ele><time>2026-03-29T13:44:04Z</time></trkpt><trkpt lat="42.075711653522184" lon="13.105322974491754"><ele>925.8000000000001</ele><time>2026-03-29T13:44:05Z</time></trkpt><trkpt lat="42.07575934555131" lon="13.10516750702923"><ele>925.2</ele><time>2026-03-29T13:44:07Z</time></trkpt><trkpt lat="42.07580182138606" lon="13.1050385061747"><ele>924.6</ele><time>2026-03-29T13:44:09Z</time></trkpt><trkpt lat="42.07583443476378" lon="13.104906199767616"><ele>924.0</ele><time>2026-03-29T13:44:11Z</time></trkpt><trkpt lat="42.07587365003106" lon="13.104753528666487"><ele>923.5</ele><time>2026-03-29T13:44:13Z</time></trkpt><trkpt lat="42.07589818176262" lon="13.104657902377511"><ele>923.0</ele><time>2026-03-29T13:44:15Z</time></trkpt><trkpt lat="42.0759347836139" lon="13.104579755024833"><ele>922.5</ele><time>2026-03-29T13:44:17Z</time></trkpt><trkpt lat="42.07600542831244" lon="13.104509023083297"><ele>922.0</ele><time>2026-03-29T13:44:19Z</time></trkpt><trkpt lat="42.07606028535405" lon="13.104447662403121"><ele>921.5</ele><time>2026-03-29T13:44:22Z</time></trkpt><trkpt lat="42.07613683165904" lon="13.10434242472837"><ele>921.0</ele><time>2026-03-29T13:44:24Z</time></trkpt><trkpt lat="42.076231459839406" lon="13.104305992166463"><ele>921.0</ele><time>2026-03-29T13:44:25Z</time></trkpt><trkpt lat="42.076295575900055" lon="13.104333102161231"><ele>920.9999999999999</ele><time>2026-03-29T13:44:26Z</time></trkpt><trkpt lat="42.07634196593592" lon="13.104400271060818"><ele>920.9999999999999</ele><time>2026-03-29T13:44:27Z</time></trkpt><trkpt lat="42.07636712319041" lon="13.104492678358646"><ele>921.0</ele><time>2026-03-29T13:44:27.999Z</time></trkpt><trkpt lat="42.076467108128156" lon="13.1044479370819"><ele>921.0</ele><time>2026-03-29T13:44:31.999Z</time></trkpt><trkpt lat="42.07647503317702" lon="13.1042546178765"><ele>921.0</ele><time>2026-03-29T13:44:33.999Z</time></trkpt><trkpt lat="42.07647620562348" lon="13.104082153623173"><ele>920.9999999999999</ele><time>2026-03-29T13:44:34.999Z</time></trkpt><trkpt lat="42.076562623113674" lon="13.10400609945121"><ele>920.9999999999999</ele><time>2026-03-29T13:44:35.999Z</time></trkpt><trkpt lat="42.07657697918224" lon="13.103904595978639"><ele>921.0</ele><time>2026-03-29T13:44:36.999Z</time></trkpt><trkpt lat="42.076597887995916" lon="13.103769399233936"><ele>921.0</ele><time>2026-03-29T13:44:38.999Z</time></trkpt><trkpt lat="42.07661648730946" lon="13.103658379025424"><ele>915.25</ele><time>2026-03-29T13:44:39.999Z</time></trkpt><trkpt lat="42.07664404251178" lon="13.10351595752666"><ele>909.5</ele><time>2026-03-29T13:44:41.999Z</time></trkpt><trkpt lat="42.0766850936637" lon="13.103405510365697"><ele>903.75</ele><time>2026-03-29T13:44:43.999Z</time></trkpt><trkpt lat="42.07677665068573" lon="13.103592025697834"><ele>898.0</ele><time>2026-03-29T13:44:46.999Z</time></trkpt><trkpt lat="42.07683509058732" lon="13.10367316329167"><ele>898.0</ele><time>2026-03-29T13:44:47.999Z</time></trkpt><trkpt lat="42.076863048579284" lon="13.103749575660776"><ele>898.0</ele><time>2026-03-29T13:44:48.999Z</time></trkpt><trkpt lat="42.076933075202966" lon="13.103886000737893"><ele>898.0</ele><time>2026-03-29T13:44:50.999Z</time></trkpt><trkpt lat="42.07697631577451" lon="13.103954586463768"><ele>898.0</ele><time>2026-03-29T13:44:51.999Z</time></trkpt><trkpt lat="42.07706004274425" lon="13.104090447310975"><ele>898.0</ele><time>2026-03-29T13:44:53.999Z</time></trkpt><trkpt lat="42.07710846924855" lon="13.104162213538388"><ele>898.4</ele><time>2026-03-29T13:44:54.999Z</time></trkpt><trkpt lat="42.07718083737356" lon="13.104265987728242"><ele>898.8</ele><time>2026-03-29T13:44:56.999Z</time></trkpt><trkpt lat="42.07725012650555" lon="13.104317518912985"><ele>899.2</ele><time>2026-03-29T13:44:57.999Z</time></trkpt><trkpt lat="42.07731742635823" lon="13.10432096476808"><ele>899.6</ele><time>2026-03-29T13:44:58.999Z</time></trkpt><trkpt lat="42.077427402689246" lon="13.104300125392268"><ele>900.0</ele><time>2026-03-29T13:45:00.999Z</time></trkpt><trkpt lat="42.077400101626786" lon="13.10410408129172"><ele>899.6</ele><time>2026-03-29T13:45:04.999Z</time></trkpt><trkpt lat="42.07730581448889" lon="13.104079535641509"><ele>899.2</ele><time>2026-03-29T13:45:06.999Z</time></trkpt><trkpt lat="42.07723259211336" lon="13.104021353097398"><ele>898.8</ele><time>2026-03-29T13:45:11Z</time></trkpt><trkpt lat="42.07726774758489" lon="13.103907073470735"><ele>898.4</ele><time>2026-03-29T13:45:14Z</time></trkpt><trkpt lat="42.07732325144798" lon="13.103971572132433"><ele>898.0</ele><time>2026-03-29T13:45:15Z</time></trkpt><trkpt lat="42.07742953987664" lon="13.103980709292674"><ele>892.8333333333333</ele><time>2026-03-29T13:45:17Z</time></trkpt><trkpt lat="42.07750957833827" lon="13.103986880991885"><ele>887.6666666666666</ele><time>2026-03-29T13:45:18Z</time></trkpt><trkpt lat="42.077579042023125" lon="13.10400353592127"><ele>882.5</ele><time>2026-03-29T13:45:19Z</time></trkpt><trkpt lat="42.07769441153261" lon="13.103996217839917"><ele>877.3333333333333</ele><time>2026-03-29T13:45:21Z</time></trkpt><trkpt lat="42.077760396067376" lon="13.104047631832534"><ele>872.1666666666666</ele><time>2026-03-29T13:45:22Z</time></trkpt><trkpt lat="42.077810011682445" lon="13.104110597474984"><ele>867.0</ele><time>2026-03-29T13:45:23Z</time></trkpt><trkpt lat="42.07786987677287" lon="13.10427226730444"><ele>867.0</ele><time>2026-03-29T13:45:25Z</time></trkpt><trkpt lat="42.077927588710985" lon="13.104391142501466"><ele>867.0</ele><time>2026-03-29T13:45:26Z</time></trkpt><trkpt lat="42.07799624875306" lon="13.104523341594534"><ele>867.0</ele><time>2026-03-29T13:45:27Z</time></trkpt><trkpt lat="42.07806558442601" lon="13.104645393118467"><ele>867.0</ele><time>2026-03-29T13:45:28Z</time></trkpt><trkpt lat="42.078097955034856" lon="13.104784899900947"><ele>867.0</ele><time>2026-03-29T13:45:29Z</time></trkpt><trkpt lat="42.078144916413045" lon="13.104889607556206"><ele>869.0</ele><time>2026-03-29T13:45:30Z</time></trkpt><trkpt lat="42.078188546909566" lon="13.10497501488289"><ele>871.0</ele><time>2026-03-29T13:45:31Z</time></trkpt><trkpt lat="42.078239402823236" lon="13.105050715392876"><ele>873.0</ele><time>2026-03-29T13:45:32Z</time></trkpt><trkpt lat="42.07831778870746" lon="13.105053412267592"><ele>875.0</ele><time>2026-03-29T13:45:34Z</time></trkpt><trkpt lat="42.07835304062132" lon="13.104952471850245"><ele>877.0</ele><time>2026-03-29T13:45:36Z</time></trkpt><trkpt lat="42.0783941138023" lon="13.104870740350782"><ele>879.0</ele><time>2026-03-29T13:45:38Z</time></trkpt><trkpt lat="42.078434404604884" lon="13.10476372967983"><ele>872.0</ele><time>2026-03-29T13:45:40Z</time></trkpt><trkpt lat="42.07848659671871" lon="13.104657170729418"><ele>865.0000000000001</ele><time>2026-03-29T13:45:42Z</time></trkpt><trkpt lat="42.07855863778904" lon="13.104567712117626"><ele>858.0</ele><time>2026-03-29T13:45:44Z</time></trkpt><trkpt lat="42.078629550898846" lon="13.104489158411637"><ele>851.0</ele><time>2026-03-29T13:45:46Z</time></trkpt><trkpt lat="42.07868887580763" lon="13.104370499626123"><ele>844.0</ele><time>2026-03-29T13:45:48Z</time></trkpt><trkpt lat="42.07873768854208" lon="13.104252401452127"><ele>844.0</ele><time>2026-03-29T13:45:50Z</time></trkpt><trkpt lat="42.0787956334961" lon="13.104157625638623"><ele>844.0</ele><time>2026-03-29T13:45:52Z</time></trkpt><trkpt lat="42.078850779969265" lon="13.104057773539024"><ele>844.0</ele><time>2026-03-29T13:45:54Z</time></trkpt><trkpt lat="42.0789119134863" lon="13.103937455310817"><ele>844.0</ele><time>2026-03-29T13:45:56Z</time></trkpt><trkpt lat="42.07899118737872" lon="13.10386691200843"><ele>844.0</ele><time>2026-03-29T13:45:58Z</time></trkpt><trkpt lat="42.07906434844556" lon="13.103812427934777"><ele>839.8000000000001</ele><time>2026-03-29T13:46:00Z</time></trkpt><trkpt lat="42.07916012436098" lon="13.103762989938213"><ele>835.6</ele><time>2026-03-29T13:46:02Z</time></trkpt><trkpt lat="42.07925886356442" lon="13.103694263482337"><ele>831.4</ele><time>2026-03-29T13:46:04Z</time></trkpt><trkpt lat="42.07934881055271" lon="13.103647319298585"><ele>827.2</ele><time>2026-03-29T13:46:06Z</time></trkpt><trkpt lat="42.07945779739932" lon="13.103586801481116"><ele>823.0</ele><time>2026-03-29T13:46:08Z</time></trkpt><trkpt lat="42.079552169594024" lon="13.103537155676033"><ele>823.0</ele><time>2026-03-29T13:46:10Z</time></trkpt><trkpt lat="42.079635598997996" lon="13.103493266454798"><ele>823.0</ele><time>2026-03-29T13:46:12Z</time></trkpt><trkpt lat="42.0797291116928" lon="13.103446305840137"><ele>823.0</ele><time>2026-03-29T13:46:14Z</time></trkpt><trkpt lat="42.079805571075084" lon="13.103408738220525"><ele>823.0</ele><time>2026-03-29T13:46:16Z</time></trkpt><trkpt lat="42.07991494693034" lon="13.103356446080292"><ele>823.0</ele><time>2026-03-29T13:46:18Z</time></trkpt><trkpt lat="42.08000392477119" lon="13.103315754705331"><ele>823.1666666666666</ele><time>2026-03-29T13:46:20Z</time></trkpt><trkpt lat="42.080077082633714" lon="13.103282882003393"><ele>823.3333333333333</ele><time>2026-03-29T13:46:22Z</time></trkpt><trkpt lat="42.08015100139288" lon="13.103251243588781"><ele>823.5</ele><time>2026-03-29T13:46:24Z</time></trkpt><trkpt lat="42.08023686255601" lon="13.103214782443901"><ele>823.6666666666667</ele><time>2026-03-29T13:46:26Z</time></trkpt><trkpt lat="42.08028591703624" lon="13.10315897269392"><ele>823.8333333333334</ele><time>2026-03-29T13:46:27Z</time></trkpt><trkpt lat="42.08038375441278" lon="13.10315342730723"><ele>824.0</ele><time>2026-03-29T13:46:28Z</time></trkpt><trkpt lat="42.08048341625146" lon="13.103113782817118"><ele>819.6</ele><time>2026-03-29T13:46:28.999Z</time></trkpt><trkpt lat="42.08057082055724" lon="13.103060798727736"><ele>815.2</ele><time>2026-03-29T13:46:29.999Z</time></trkpt><trkpt lat="42.08066731501005" lon="13.103038061461902"><ele>810.8000000000001</ele><time>2026-03-29T13:46:30.999Z</time></trkpt><trkpt lat="42.08075633451922" lon="13.10304057990684"><ele>806.4000000000001</ele><time>2026-03-29T13:46:31.999Z</time></trkpt><trkpt lat="42.08085619258629" lon="13.103039652505883"><ele>802.0</ele><time>2026-03-29T13:46:32.999Z</time></trkpt><trkpt lat="42.0809617880922" lon="13.103017442141093"><ele>801.8333333333333</ele><time>2026-03-29T13:46:33.999Z</time></trkpt><trkpt lat="42.08104451769054" lon="13.103023355710173"><ele>801.6666666666666</ele><time>2026-03-29T13:46:34.999Z</time></trkpt><trkpt lat="42.081137936309865" lon="13.103036654664175"><ele>801.5</ele><time>2026-03-29T13:46:35.999Z</time></trkpt><trkpt lat="42.08123291075036" lon="13.103075775873293"><ele>801.3333333333333</ele><time>2026-03-29T13:46:36.999Z</time></trkpt><trkpt lat="42.081315649660816" lon="13.10311220788778"><ele>801.1666666666666</ele><time>2026-03-29T13:46:37.999Z</time></trkpt><trkpt lat="42.081396361644266" lon="13.10313246367503"><ele>801.0</ele><time>2026-03-29T13:46:38.999Z</time></trkpt><trkpt lat="42.08147266387635" lon="13.103147875153256"><ele>801.0</ele><time>2026-03-29T13:46:39.999Z</time></trkpt><trkpt lat="42.081568005169515" lon="13.103155190377406"><ele>801.0</ele><time>2026-03-29T13:46:40.999Z</time></trkpt><trkpt lat="42.08165254867606" lon="13.103179453774635"><ele>801.0</ele><time>2026-03-29T13:46:41.999Z</time></trkpt><trkpt lat="42.08173888434172" lon="13.103200957384466"><ele>801.0</ele><time>2026-03-29T13:46:42.999Z</time></trkpt><trkpt lat="42.081817048906856" lon="13.103209104005973"><ele>801.0</ele><time>2026-03-29T13:46:43.999Z</time></trkpt><trkpt lat="42.081904436102754" lon="13.103201282783953"><ele>801.0</ele><time>2026-03-29T13:46:44.999Z</time></trkpt><trkpt lat="42.08201984974928" lon="13.10319586725464"><ele>800.0</ele><time>2026-03-29T13:46:45.999Z</time></trkpt><trkpt lat="42.08211181180252" lon="13.10319956236072"><ele>799.0</ele><time>2026-03-29T13:46:46.999Z</time></trkpt><trkpt lat="42.08219551732415" lon="13.103214962108078"><ele>798.0</ele><time>2026-03-29T13:46:47.999Z</time></trkpt><trkpt lat="42.082287830651914" lon="13.103211507425302"><ele>797.0</ele><time>2026-03-29T13:46:48.999Z</time></trkpt><trkpt lat="42.082362847271675" lon="13.103221219679684"><ele>796.0</ele><time>2026-03-29T13:46:49.999Z</time></trkpt><trkpt lat="42.08243032854237" lon="13.103236227746702"><ele>795.0</ele><time>2026-03-29T13:46:50.999Z</time></trkpt><trkpt lat="42.08251394783116" lon="13.103196488573172"><ele>793.8333333333334</ele><time>2026-03-29T13:46:52.999Z</time></trkpt><trkpt lat="42.082575772100014" lon="13.103146931150826"><ele>792.6666666666667</ele><time>2026-03-29T13:46:55.999Z</time></trkpt><trkpt lat="42.082656091522686" lon="13.103105543684345"><ele>791.5</ele><time>2026-03-29T13:47:02.999Z</time></trkpt><trkpt lat="42.08272098579192" lon="13.103068031879818"><ele>790.3333333333334</ele><time>2026-03-29T13:47:04.999Z</time></trkpt><trkpt lat="42.082769978977524" lon="13.103002319350395"><ele>789.1666666666667</ele><time>2026-03-29T13:47:08.999Z</time></trkpt><trkpt lat="42.08284966005568" lon="13.102955283709209"><ele>788.0</ele><time>2026-03-29T13:47:15Z</time></trkpt><trkpt lat="42.08296963717173" lon="13.102883036182517"><ele>788.0</ele><time>2026-03-29T13:47:17Z</time></trkpt><trkpt lat="42.083056841020735" lon="13.102818000434828"><ele>788.0</ele><time>2026-03-29T13:47:18Z</time></trkpt><trkpt lat="42.08313443420123" lon="13.102657209181206"><ele>788.0</ele><time>2026-03-29T13:47:19Z</time></trkpt><trkpt lat="42.08321751633961" lon="13.10258118326592"><ele>788.0</ele><time>2026-03-29T13:47:20Z</time></trkpt><trkpt lat="42.083301938796296" lon="13.10251399736782"><ele>788.0</ele><time>2026-03-29T13:47:21Z</time></trkpt><trkpt lat="42.083379874410284" lon="13.102424638137771"><ele>787.4</ele><time>2026-03-29T13:47:22Z</time></trkpt><trkpt lat="42.083489059279245" lon="13.102346700453577"><ele>786.8</ele><time>2026-03-29T13:47:23Z</time></trkpt><trkpt lat="42.08357389988213" lon="13.102280632899603"><ele>786.2</ele><time>2026-03-29T13:47:24Z</time></trkpt><trkpt lat="42.0836314005826" lon="13.102221186862089"><ele>785.6</ele><time>2026-03-29T13:47:25Z</time></trkpt><trkpt lat="42.08370696893897" lon="13.102168756034958"><ele>785.0</ele><time>2026-03-29T13:47:27Z</time></trkpt><trkpt lat="42.08376641653245" lon="13.102113086956496"><ele>785.0</ele><time>2026-03-29T13:47:29Z</time></trkpt><trkpt lat="42.08384586345136" lon="13.10207640031397"><ele>785.0</ele><time>2026-03-29T13:47:31Z</time></trkpt><trkpt lat="42.08391575527312" lon="13.102039545858359"><ele>785.0</ele><time>2026-03-29T13:47:32Z</time></trkpt><trkpt lat="42.084016899249455" lon="13.10197743034398"><ele>785.0</ele><time>2026-03-29T13:47:33Z</time></trkpt><trkpt lat="42.08410349946888" lon="13.10197575490332"><ele>785.0</ele><time>2026-03-29T13:47:34Z</time></trkpt><trkpt lat="42.084207381311955" lon="13.101978705292058"><ele>787.0000000000001</ele><time>2026-03-29T13:47:35Z</time></trkpt><trkpt lat="42.08429180149217" lon="13.101977872094052"><ele>789.0</ele><time>2026-03-29T13:47:36Z</time></trkpt><trkpt lat="42.08434894539491" lon="13.10190966494172"><ele>791.0</ele><time>2026-03-29T13:47:37Z</time></trkpt><trkpt lat="42.084388888757886" lon="13.101827076877544"><ele>793.0</ele><time>2026-03-29T13:47:38Z</time></trkpt><trkpt lat="42.08441451893268" lon="13.10174222203948"><ele>795.0000000000001</ele><time>2026-03-29T13:47:39Z</time></trkpt><trkpt lat="42.08446500221541" lon="13.101656401295966"><ele>797.0</ele><time>2026-03-29T13:47:40Z</time></trkpt><trkpt lat="42.08445800498556" lon="13.101509556476534"><ele>797.0</ele><time>2026-03-29T13:47:41Z</time></trkpt><trkpt lat="42.08448588879289" lon="13.101357429152378"><ele>797.0</ele><time>2026-03-29T13:47:42Z</time></trkpt><trkpt lat="42.0845097963079" lon="13.101217647220171"><ele>797.0</ele><time>2026-03-29T13:47:43Z</time></trkpt><trkpt lat="42.08453150562516" lon="13.10110344971597"><ele>797.0</ele><time>2026-03-29T13:47:44Z</time></trkpt><trkpt lat="42.084544796301714" lon="13.101011056866858"><ele>797.0</ele><time>2026-03-29T13:47:45Z</time></trkpt><trkpt lat="42.08456317908211" lon="13.100888175668832"><ele>797.0000000000001</ele><time>2026-03-29T13:47:47Z</time></trkpt><trkpt lat="42.08461131027056" lon="13.1007584081358"><ele>797.0</ele><time>2026-03-29T13:47:54Z</time></trkpt><trkpt lat="42.084631271046305" lon="13.100669337966442"><ele>797.0</ele><time>2026-03-29T13:47:55Z</time></trkpt><trkpt lat="42.08465303014714" lon="13.100580877688516"><ele>797.0</ele><time>2026-03-29T13:47:56Z</time></trkpt><trkpt lat="42.084670587702384" lon="13.100472998364834"><ele>797.0000000000001</ele><time>2026-03-29T13:47:57Z</time></trkpt><trkpt lat="42.08470157180986" lon="13.100343444866363"><ele>797.0</ele><time>2026-03-29T13:47:58Z</time></trkpt><trkpt lat="42.084727592154906" lon="13.100245181045116"><ele>798.4000000000001</ele><time>2026-03-29T13:48:00Z</time></trkpt><trkpt lat="42.08475007797648" lon="13.100135075491666"><ele>799.8000000000001</ele><time>2026-03-29T13:48:14Z</time></trkpt><trkpt lat="42.08478246182205" lon="13.09997941256062"><ele>801.2</ele><time>2026-03-29T13:48:16Z</time></trkpt><trkpt lat="42.0848034109984" lon="13.099886028544187"><ele>802.6</ele><time>2026-03-29T13:48:17Z</time></trkpt><trkpt lat="42.08484778300364" lon="13.099777652577812"><ele>804.0</ele><time>2026-03-29T13:48:18Z</time></trkpt><trkpt lat="42.08487436558551" lon="13.099670858865618"><ele>804.6</ele><time>2026-03-29T13:48:19Z</time></trkpt><trkpt lat="42.08492702018253" lon="13.09952620192701"><ele>805.2</ele><time>2026-03-29T13:48:20Z</time></trkpt><trkpt lat="42.08496820254488" lon="13.099397131731651"><ele>805.8000000000001</ele><time>2026-03-29T13:48:21Z</time></trkpt><trkpt lat="42.084998904860925" lon="13.09926538855372"><ele>806.4000000000001</ele><time>2026-03-29T13:48:22Z</time></trkpt><trkpt lat="42.08503018268426" lon="13.099108671664766"><ele>807.0</ele><time>2026-03-29T13:48:23Z</time></trkpt><trkpt lat="42.08505663405966" lon="13.098985578508865"><ele>810.8</ele><time>2026-03-29T13:48:24Z</time></trkpt><trkpt lat="42.08511108111162" lon="13.098879632598429"><ele>814.6</ele><time>2026-03-29T13:48:25Z</time></trkpt><trkpt lat="42.08514512318746" lon="13.098791181228263"><ele>818.4</ele><time>2026-03-29T13:48:26Z</time></trkpt><trkpt lat="42.08519577402037" lon="13.09866125171734"><ele>822.1999999999999</ele><time>2026-03-29T13:48:28Z</time></trkpt><trkpt lat="42.085268477642735" lon="13.098572346928208"><ele>826.0</ele><time>2026-03-29T13:48:30Z</time></trkpt><trkpt lat="42.08529519696498" lon="13.098447379684435"><ele>826.0</ele><time>2026-03-29T13:48:31.999Z</time></trkpt><trkpt lat="42.08533983174843" lon="13.098328294203537"><ele>826.0</ele><time>2026-03-29T13:48:33.999Z</time></trkpt><trkpt lat="42.08538863288755" lon="13.09824475236741"><ele>826.0</ele><time>2026-03-29T13:48:34.999Z</time></trkpt><trkpt lat="42.085420298882845" lon="13.098130531793132"><ele>826.0</ele><time>2026-03-29T13:48:37.999Z</time></trkpt><trkpt lat="42.0854577585567" lon="13.098010753922674"><ele>826.0</ele><time>2026-03-29T13:48:40.999Z</time></trkpt><trkpt lat="42.085488725797255" lon="13.097886197411556"><ele>823.0</ele><time>2026-03-29T13:48:42.999Z</time></trkpt><trkpt lat="42.085508615496536" lon="13.09774068930145"><ele>820.0</ele><time>2026-03-29T13:48:44.999Z</time></trkpt><trkpt lat="42.08558359068358" lon="13.097626606494408"><ele>817.0</ele><time>2026-03-29T13:48:46.999Z</time></trkpt><trkpt lat="42.08566460039417" lon="13.097523991414874"><ele>814.0</ele><time>2026-03-29T13:48:48.999Z</time></trkpt><trkpt lat="42.08576647697268" lon="13.097432476429914"><ele>812.8000000000001</ele><time>2026-03-29T13:48:50.999Z</time></trkpt><trkpt lat="42.08582728526184" lon="13.097405301319895"><ele>811.6</ele><time>2026-03-29T13:48:51.999Z</time></trkpt><trkpt lat="42.08593454371606" lon="13.097305582098755"><ele>810.4</ele><time>2026-03-29T13:48:53.999Z</time></trkpt><trkpt lat="42.08601905898383" lon="13.09721672753849"><ele>809.2</ele><time>2026-03-29T13:48:55.999Z</time></trkpt><trkpt lat="42.08609403533846" lon="13.09716012702012"><ele>808.0</ele><time>2026-03-29T13:48:57.999Z</time></trkpt><trkpt lat="42.086172164983076" lon="13.097136613762322"><ele>808.0</ele><time>2026-03-29T13:48:59.999Z</time></trkpt><trkpt lat="42.086269678883994" lon="13.097041383275235"><ele>808.0</ele><time>2026-03-29T13:49:01.999Z</time></trkpt><trkpt lat="42.0863293315284" lon="13.096971252193256"><ele>808.0</ele><time>2026-03-29T13:49:02.999Z</time></trkpt><trkpt lat="42.08638166824094" lon="13.096897115336834"><ele>808.0</ele><time>2026-03-29T13:49:03.999Z</time></trkpt><trkpt lat="42.08644449463887" lon="13.096824981301262"><ele>808.0</ele><time>2026-03-29T13:49:04.999Z</time></trkpt><trkpt lat="42.08649906739388" lon="13.09671680921704"><ele>808.0</ele><time>2026-03-29T13:49:05.999Z</time></trkpt><trkpt lat="42.08654237348185" lon="13.09659338168598"><ele>808.0</ele><time>2026-03-29T13:49:06.999Z</time></trkpt><trkpt lat="42.086587250856915" lon="13.096460438382497"><ele>808.0</ele><time>2026-03-29T13:49:07.999Z</time></trkpt><trkpt lat="42.08664525693653" lon="13.096326404137605"><ele>808.0</ele><time>2026-03-29T13:49:08.999Z</time></trkpt><trkpt lat="42.08669018919491" lon="13.096174614052003"><ele>808.0</ele><time>2026-03-29T13:49:09.999Z</time></trkpt><trkpt lat="42.08674515643585" lon="13.09601829154243"><ele>808.0</ele><time>2026-03-29T13:49:10.999Z</time></trkpt><trkpt lat="42.08679739291731" lon="13.095853962398076"><ele>808.0</ele><time>2026-03-29T13:49:11.999Z</time></trkpt><trkpt lat="42.086856638509325" lon="13.0956774255675"><ele>808.0</ele><time>2026-03-29T13:49:12.999Z</time></trkpt><trkpt lat="42.086920839027236" lon="13.095499464502502"><ele>808.0</ele><time>2026-03-29T13:49:13.999Z</time></trkpt><trkpt lat="42.08699290411985" lon="13.095326869780108"><ele>805.5</ele><time>2026-03-29T13:49:14.999Z</time></trkpt><trkpt lat="42.08706855638714" lon="13.095180157005359"><ele>803.0</ele><time>2026-03-29T13:49:15.999Z</time></trkpt><trkpt lat="42.08714074331776" lon="13.095030753865775"><ele>800.5</ele><time>2026-03-29T13:49:16.999Z</time></trkpt><trkpt lat="42.08720623107398" lon="13.094861530148432"><ele>798.0</ele><time>2026-03-29T13:49:17.999Z</time></trkpt><trkpt lat="42.087273911847284" lon="13.094681561001691"><ele>796.25</ele><time>2026-03-29T13:49:18.999Z</time></trkpt><trkpt lat="42.08734265577413" lon="13.094498325756028"><ele>794.5</ele><time>2026-03-29T13:49:19.999Z</time></trkpt><trkpt lat="42.08741046398903" lon="13.094323165208332"><ele>792.75</ele><time>2026-03-29T13:49:21Z</time></trkpt><trkpt lat="42.08744797118817" lon="13.09414474313142"><ele>791.0</ele><time>2026-03-29T13:49:22Z</time></trkpt><trkpt lat="42.08750470157759" lon="13.093987368739608"><ele>796.0</ele><time>2026-03-29T13:49:23Z</time></trkpt><trkpt lat="42.0875520287704" lon="13.093827887667631"><ele>801.0</ele><time>2026-03-29T13:49:24Z</time></trkpt><trkpt lat="42.08759038251701" lon="13.093661829350323"><ele>806.0</ele><time>2026-03-29T13:49:25Z</time></trkpt><trkpt lat="42.08762780229278" lon="13.093494428174887"><ele>811.0</ele><time>2026-03-29T13:49:26Z</time></trkpt><trkpt lat="42.087657717899724" lon="13.093343240239234"><ele>808.4</ele><time>2026-03-29T13:49:27Z</time></trkpt><trkpt lat="42.087706378243986" lon="13.093220467335856"><ele>805.8</ele><time>2026-03-29T13:49:28Z</time></trkpt><trkpt lat="42.08778928676666" lon="13.093124201211612"><ele>803.1999999999999</ele><time>2026-03-29T13:49:29Z</time></trkpt><trkpt lat="42.08786660176762" lon="13.093008677006711"><ele>800.5999999999999</ele><time>2026-03-29T13:49:30Z</time></trkpt><trkpt lat="42.087967778388474" lon="13.092931668428498"><ele>798.0</ele><time>2026-03-29T13:49:31Z</time></trkpt><trkpt lat="42.08805548016189" lon="13.09288002876175"><ele>798.0</ele><time>2026-03-29T13:49:32Z</time></trkpt><trkpt lat="42.08813824531245" lon="13.092842051455042"><ele>798.0</ele><time>2026-03-29T13:49:33Z</time></trkpt><trkpt lat="42.088222081222646" lon="13.092809275973577"><ele>798.0</ele><time>2026-03-29T13:49:34Z</time></trkpt><trkpt lat="42.08829760319986" lon="13.092782829559914"><ele>798.0</ele><time>2026-03-29T13:49:35Z</time></trkpt><trkpt lat="42.088376990704774" lon="13.092754708413327"><ele>798.0</ele><time>2026-03-29T13:49:36Z</time></trkpt><trkpt lat="42.08846373067297" lon="13.092747400596599"><ele>798.0</ele><time>2026-03-29T13:49:37Z</time></trkpt><trkpt lat="42.08858877872182" lon="13.092664808753108"><ele>801.25</ele><time>2026-03-29T13:49:38Z</time></trkpt><trkpt lat="42.08871368739106" lon="13.092642382140513"><ele>804.5</ele><time>2026-03-29T13:49:39Z</time></trkpt><trkpt lat="42.088826280066286" lon="13.092598887542092"><ele>807.75</ele><time>2026-03-29T13:49:40Z</time></trkpt><trkpt lat="42.0889406674981" lon="13.092531794248153"><ele>811.0</ele><time>2026-03-29T13:49:41Z</time></trkpt><trkpt lat="42.08905290808091" lon="13.092454345712012"><ele>807.5999999999999</ele><time>2026-03-29T13:49:42Z</time></trkpt><trkpt lat="42.089166257729325" lon="13.092395558901865"><ele>804.2</ele><time>2026-03-29T13:49:43Z</time></trkpt><trkpt lat="42.08928146283162" lon="13.092326688605759"><ele>800.8</ele><time>2026-03-29T13:49:44Z</time></trkpt><trkpt lat="42.08938817156763" lon="13.092301717703087"><ele>797.4000000000001</ele><time>2026-03-29T13:49:45Z</time></trkpt><trkpt lat="42.08947248013468" lon="13.092251275414338"><ele>794.0</ele><time>2026-03-29T13:49:46Z</time></trkpt><trkpt lat="42.08955961638473" lon="13.092251913585374"><ele>794.0</ele><time>2026-03-29T13:49:47Z</time></trkpt><trkpt lat="42.08965111289777" lon="13.092240848680841"><ele>794.0</ele><time>2026-03-29T13:49:48Z</time></trkpt><trkpt lat="42.08976002389968" lon="13.092222963994168"><ele>794.0</ele><time>2026-03-29T13:49:49Z</time></trkpt><trkpt lat="42.08988672803221" lon="13.092215391139847"><ele>794.0</ele><time>2026-03-29T13:49:50Z</time></trkpt><trkpt lat="42.09001877863552" lon="13.092195768407004"><ele>795.8000000000001</ele><time>2026-03-29T13:49:51Z</time></trkpt><trkpt lat="42.090147054290476" lon="13.09218885467378"><ele>797.6</ele><time>2026-03-29T13:49:52Z</time></trkpt><trkpt lat="42.09024852300607" lon="13.092212202174"><ele>799.4</ele><time>2026-03-29T13:49:53Z</time></trkpt><trkpt lat="42.09032347747354" lon="13.092251773044275"><ele>801.2</ele><time>2026-03-29T13:49:54Z</time></trkpt><trkpt lat="42.09038514640867" lon="13.0922812434363"><ele>803.0</ele><time>2026-03-29T13:49:55Z</time></trkpt><trkpt lat="42.09044988902757" lon="13.092333840685988"><ele>803.0</ele><time>2026-03-29T13:49:57Z</time></trkpt><trkpt lat="42.090566908828485" lon="13.09240919665129"><ele>803.0</ele><time>2026-03-29T13:49:59Z</time></trkpt><trkpt lat="42.09066438094411" lon="13.092471979411611"><ele>803.0</ele><time>2026-03-29T13:50:01Z</time></trkpt><trkpt lat="42.090865271120975" lon="13.092208710127627"><ele>802.1666666666667</ele><time>2026-03-29T13:50:03Z</time></trkpt><trkpt lat="42.090992012240285" lon="13.092159420958051"><ele>801.3333333333334</ele><time>2026-03-29T13:50:05Z</time></trkpt><trkpt lat="42.09105837300745" lon="13.092128868701515"><ele>800.5</ele><time>2026-03-29T13:50:06Z</time></trkpt><trkpt lat="42.09112839694835" lon="13.092080766924267"><ele>799.6666666666667</ele><time>2026-03-29T13:50:07Z</time></trkpt><trkpt lat="42.09119722187017" lon="13.09202090132783"><ele>798.8333333333334</ele><time>2026-03-29T13:50:08Z</time></trkpt><trkpt lat="42.091257535868706" lon="13.091937255725046"><ele>798.0</ele><time>2026-03-29T13:50:09Z</time></trkpt><trkpt lat="42.0913099983161" lon="13.091869570957632"><ele>798.0</ele><time>2026-03-29T13:50:10Z</time></trkpt><trkpt lat="42.0913823614542" lon="13.091735735974286"><ele>798.0</ele><time>2026-03-29T13:50:12Z</time></trkpt><trkpt lat="42.09140355786114" lon="13.091629045422481"><ele>798.0</ele><time>2026-03-29T13:50:13Z</time></trkpt><trkpt lat="42.09142552739562" lon="13.091520034580883"><ele>798.0</ele><time>2026-03-29T13:50:14Z</time></trkpt><trkpt lat="42.09146797334786" lon="13.091392831189445"><ele>798.0</ele><time>2026-03-29T13:50:15Z</time></trkpt><trkpt lat="42.09149501010912" lon="13.091263852599639"><ele>794.5999999999999</ele><time>2026-03-29T13:50:16Z</time></trkpt><trkpt lat="42.09150321505234" lon="13.091139124954893"><ele>791.1999999999999</ele><time>2026-03-29T13:50:17Z</time></trkpt><trkpt lat="42.091488033347524" lon="13.091003841334546"><ele>787.8</ele><time>2026-03-29T13:50:18Z</time></trkpt><trkpt lat="42.091466993266714" lon="13.090841420531413"><ele>784.4</ele><time>2026-03-29T13:50:19Z</time></trkpt><trkpt lat="42.09144941302196" lon="13.090733064303476"><ele>781.0</ele><time>2026-03-29T13:50:20Z</time></trkpt><trkpt lat="42.09145847028857" lon="13.090618380753957"><ele>778.8</ele><time>2026-03-29T13:50:36.999Z</time></trkpt><trkpt lat="42.09146573276978" lon="13.09051666423006"><ele>776.5999999999999</ele><time>2026-03-29T13:50:38.999Z</time></trkpt><trkpt lat="42.091474958815304" lon="13.090355609381353"><ele>774.4</ele><time>2026-03-29T13:50:40.999Z</time></trkpt><trkpt lat="42.09147060444884" lon="13.090240011106465"><ele>772.2</ele><time>2026-03-29T13:50:41.999Z</time></trkpt><trkpt lat="42.09146914241269" lon="13.090101708732206"><ele>770.0</ele><time>2026-03-29T13:50:42.999Z</time></trkpt><trkpt lat="42.091500012909236" lon="13.090017765145184"><ele>770.0000000000001</ele><time>2026-03-29T13:50:43.999Z</time></trkpt><trkpt lat="42.0915408467555" lon="13.089930040512074"><ele>770.0</ele><time>2026-03-29T13:50:44.999Z</time></trkpt><trkpt lat="42.09158239842455" lon="13.089842957873438"><ele>770.0</ele><time>2026-03-29T13:50:45.999Z</time></trkpt><trkpt lat="42.09165021993729" lon="13.089757659382123"><ele>770.0</ele><time>2026-03-29T13:50:46.999Z</time></trkpt><trkpt lat="42.09170578959844" lon="13.08967492368158"><ele>770.0000000000001</ele><time>2026-03-29T13:50:47.999Z</time></trkpt><trkpt lat="42.091757571989795" lon="13.089609801439089"><ele>770.0</ele><time>2026-03-29T13:50:48.999Z</time></trkpt><trkpt lat="42.09182915004126" lon="13.089552600499887"><ele>770.1666666666667</ele><time>2026-03-29T13:50:49.999Z</time></trkpt><trkpt lat="42.091891398737154" lon="13.08950128067572"><ele>770.3333333333334</ele><time>2026-03-29T13:50:50.999Z</time></trkpt><trkpt lat="42.09193235303479" lon="13.089431488000207"><ele>770.5</ele><time>2026-03-29T13:50:51.999Z</time></trkpt><trkpt lat="42.091980070054724" lon="13.089338784024521"><ele>770.6666666666667</ele><time>2026-03-29T13:50:52.999Z</time></trkpt><trkpt lat="42.0920502819876" lon="13.089239493980052"><ele>770.8333333333334</ele><time>2026-03-29T13:50:53.999Z</time></trkpt><trkpt lat="42.09209803872352" lon="13.089158304029217"><ele>771.0</ele><time>2026-03-29T13:50:54.999Z</time></trkpt><trkpt lat="42.09215156114677" lon="13.089053670945878"><ele>768.8333333333334</ele><time>2026-03-29T13:50:55.999Z</time></trkpt><trkpt lat="42.09220173871877" lon="13.088990215913343"><ele>766.6666666666666</ele><time>2026-03-29T13:50:56.999Z</time></trkpt><trkpt lat="42.09230855329158" lon="13.088918278917944"><ele>764.5</ele><time>2026-03-29T13:50:58.999Z</time></trkpt><trkpt lat="42.09237079460721" lon="13.088855883368925"><ele>762.3333333333333</ele><time>2026-03-29T13:50:59.999Z</time></trkpt><trkpt lat="42.09242640361292" lon="13.088771369157156"><ele>760.1666666666666</ele><time>2026-03-29T13:51:00.999Z</time></trkpt><trkpt lat="42.09249424975735" lon="13.088688377018682"><ele>758.0</ele><time>2026-03-29T13:51:01.999Z</time></trkpt><trkpt lat="42.092557001007194" lon="13.088617356327338"><ele>758.0</ele><time>2026-03-29T13:51:02.999Z</time></trkpt><trkpt lat="42.092612345439605" lon="13.088562089705789"><ele>758.0</ele><time>2026-03-29T13:51:03.999Z</time></trkpt><trkpt lat="42.092668600727386" lon="13.088505988075877"><ele>758.0</ele><time>2026-03-29T13:51:04.999Z</time></trkpt><trkpt lat="42.0927574158159" lon="13.088375032440265"><ele>758.0</ele><time>2026-03-29T13:51:06.999Z</time></trkpt><trkpt lat="42.09281843202318" lon="13.088327780431861"><ele>758.0</ele><time>2026-03-29T13:51:07.999Z</time></trkpt><trkpt lat="42.09286692651271" lon="13.088261164134057"><ele>758.0</ele><time>2026-03-29T13:51:08.999Z</time></trkpt><trkpt lat="42.09292509317262" lon="13.088217263090236"><ele>753.5999999999999</ele><time>2026-03-29T13:51:09.999Z</time></trkpt><trkpt lat="42.0930100344986" lon="13.088112638471035"><ele>749.1999999999999</ele><time>2026-03-29T13:51:11.999Z</time></trkpt><trkpt lat="42.093064286458066" lon="13.08806864107714"><ele>744.8</ele><time>2026-03-29T13:51:12.999Z</time></trkpt><trkpt lat="42.09319015367248" lon="13.088032435209604"><ele>740.4</ele><time>2026-03-29T13:51:14.999Z</time></trkpt><trkpt lat="42.09328210967479" lon="13.088006557160364"><ele>736.0</ele><time>2026-03-29T13:51:15.999Z</time></trkpt><trkpt lat="42.09336397823939" lon="13.087987442536066"><ele>736.0</ele><time>2026-03-29T13:51:16.999Z</time></trkpt><trkpt lat="42.09346409373635" lon="13.087987907578722"><ele>736.0</ele><time>2026-03-29T13:51:18.999Z</time></trkpt><trkpt lat="42.093563248205605" lon="13.088058630983904"><ele>736.0</ele><time>2026-03-29T13:51:21.999Z</time></trkpt><trkpt lat="42.0936422548761" lon="13.08807917277562"><ele>736.0</ele><time>2026-03-29T13:51:23.999Z</time></trkpt><trkpt lat="42.09372220675159" lon="13.088081000738546"><ele>736.0</ele><time>2026-03-29T13:51:26Z</time></trkpt><trkpt lat="42.09381003568038" lon="13.088100018031595"><ele>736.0</ele><time>2026-03-29T13:51:28Z</time></trkpt><trkpt lat="42.09388891157235" lon="13.08815805465757"><ele>736.0</ele><time>2026-03-29T13:51:30Z</time></trkpt><trkpt lat="42.09398778375334" lon="13.088223909049438"><ele>736.0</ele><time>2026-03-29T13:51:32Z</time></trkpt><trkpt lat="42.094042650118496" lon="13.088270698431822"><ele>736.0</ele><time>2026-03-29T13:51:33Z</time></trkpt><trkpt lat="42.09410245138312" lon="13.088326247895012"><ele>736.0</ele><time>2026-03-29T13:51:35Z</time></trkpt><trkpt lat="42.09417153445632" lon="13.088343929338016"><ele>736.0</ele><time>2026-03-29T13:51:38Z</time></trkpt><trkpt lat="42.094239193951445" lon="13.088377175240227"><ele>737.3333333333334</ele><time>2026-03-29T13:51:41Z</time></trkpt><trkpt lat="42.09431465523647" lon="13.088416154154046"><ele>738.6666666666667</ele><time>2026-03-29T13:51:44Z</time></trkpt><trkpt lat="42.09438858432883" lon="13.088426509782431"><ele>740.0</ele><time>2026-03-29T13:51:47Z</time></trkpt><trkpt lat="42.09445186118155" lon="13.088436123993219"><ele>741.3333333333334</ele><time>2026-03-29T13:51:49Z</time></trkpt><trkpt lat="42.0945021804126" lon="13.088487390608446"><ele>742.6666666666666</ele><time>2026-03-29T13:51:52Z</time></trkpt><trkpt lat="42.094567143773524" lon="13.088498117606163"><ele>744.0</ele><time>2026-03-29T13:51:54Z</time></trkpt><trkpt lat="42.094670338328505" lon="13.088509976607623"><ele>744.0</ele><time>2026-03-29T13:51:57Z</time></trkpt><trkpt lat="42.094761412754416" lon="13.088544675074392"><ele>744.0</ele><time>2026-03-29T13:52:00Z</time></trkpt><trkpt lat="42.09483977376241" lon="13.0885946523813"><ele>744.0</ele><time>2026-03-29T13:52:03Z</time></trkpt><trkpt lat="42.09491650299607" lon="13.088632491662999"><ele>744.0</ele><time>2026-03-29T13:52:06Z</time></trkpt><trkpt lat="42.09500216622187" lon="13.088570820288698"><ele>744.0</ele><time>2026-03-29T13:52:09Z</time></trkpt><trkpt lat="42.09505859195113" lon="13.088528583244761"><ele>744.0</ele><time>2026-03-29T13:52:10Z</time></trkpt><trkpt lat="42.09515645045981" lon="13.088472607667194"><ele>740.3333333333334</ele><time>2026-03-29T13:52:12Z</time></trkpt><trkpt lat="42.09521499941604" lon="13.088423543915173"><ele>736.6666666666666</ele><time>2026-03-29T13:52:13Z</time></trkpt><trkpt lat="42.09527605452783" lon="13.088371238228804"><ele>733.0</ele><time>2026-03-29T13:52:14Z</time></trkpt><trkpt lat="42.09534522767199" lon="13.088337452048298"><ele>729.3333333333333</ele><time>2026-03-29T13:52:15Z</time></trkpt><trkpt lat="42.09546469433772" lon="13.08829053797404"><ele>725.6666666666666</ele><time>2026-03-29T13:52:17Z</time></trkpt><trkpt lat="42.09554175215045" lon="13.088241381788773"><ele>722.0</ele><time>2026-03-29T13:52:18Z</time></trkpt><trkpt lat="42.09563050195286" lon="13.088232683056946"><ele>718.7142857142858</ele><time>2026-03-29T13:52:20Z</time></trkpt><trkpt lat="42.09569580178464" lon="13.088205956100843"><ele>715.4285714285713</ele><time>2026-03-29T13:52:21Z</time></trkpt><trkpt lat="42.095779439516775" lon="13.088197667799086"><ele>712.1428571428571</ele><time>2026-03-29T13:52:22Z</time></trkpt><trkpt lat="42.09584359315931" lon="13.088181568023023"><ele>708.8571428571429</ele><time>2026-03-29T13:52:23Z</time></trkpt><trkpt lat="42.09591074218715" lon="13.088177114251126"><ele>705.5714285714287</ele><time>2026-03-29T13:52:24Z</time></trkpt><trkpt lat="42.095993858816634" lon="13.088147979410614"><ele>702.2857142857142</ele><time>2026-03-29T13:52:25Z</time></trkpt><trkpt lat="42.096047124935005" lon="13.088099670458167"><ele>699.0</ele><time>2026-03-29T13:52:26Z</time></trkpt><trkpt lat="42.0961039546055" lon="13.088035645352377"><ele>697.0</ele><time>2026-03-29T13:52:28Z</time></trkpt><trkpt lat="42.09618568255844" lon="13.087969107494796"><ele>695.0</ele><time>2026-03-29T13:52:30Z</time></trkpt><trkpt lat="42.096232590275164" lon="13.087885661335456"><ele>693.0</ele><time>2026-03-29T13:52:32Z</time></trkpt><trkpt lat="42.096263051951716" lon="13.087807553371318"><ele>691.0</ele><time>2026-03-29T13:52:34Z</time></trkpt><trkpt lat="42.09623146285948" lon="13.087723825746183"><ele>689.0</ele><time>2026-03-29T13:52:38.999Z</time></trkpt><trkpt lat="42.09618137233374" lon="13.08766881079417"><ele>687.0</ele><time>2026-03-29T13:52:46.999Z</time></trkpt><trkpt lat="42.096118790613" lon="13.087692124218298"><ele>685.0</ele><time>2026-03-29T13:52:49.999Z</time></trkpt><trkpt lat="42.096070048164904" lon="13.087625860939612"><ele>685.0</ele><time>2026-03-29T13:52:54.999Z</time></trkpt><trkpt lat="42.096078915007766" lon="13.08753424012863"><ele>685.0</ele><time>2026-03-29T13:52:59.999Z</time></trkpt><trkpt lat="42.096116767725235" lon="13.087462194429234"><ele>685.0</ele><time>2026-03-29T13:53:02.999Z</time></trkpt><trkpt lat="42.09616614681435" lon="13.087377529819152"><ele>685.0</ele><time>2026-03-29T13:53:05.999Z</time></trkpt><trkpt lat="42.09621513037551" lon="13.0873023749091"><ele>685.0</ele><time>2026-03-29T13:53:07.999Z</time></trkpt><trkpt lat="42.09625906801029" lon="13.087232490379899"><ele>685.0</ele><time>2026-03-29T13:53:09.999Z</time></trkpt><trkpt lat="42.096279406442044" lon="13.087150251124681"><ele>685.0</ele><time>2026-03-29T13:53:12.999Z</time></trkpt><trkpt lat="42.09633392002638" lon="13.087084568720558"><ele>682.3333333333334</ele><time>2026-03-29T13:53:14.999Z</time></trkpt><trkpt lat="42.096374481408894" lon="13.087015126795203"><ele>679.6666666666667</ele><time>2026-03-29T13:53:16.999Z</time></trkpt><trkpt lat="42.09640782755194" lon="13.08694045660718"><ele>677.0</ele><time>2026-03-29T13:53:18.999Z</time></trkpt><trkpt lat="42.096480209846845" lon="13.086900760855496"><ele>674.3333333333334</ele><time>2026-03-29T13:53:21.999Z</time></trkpt><trkpt lat="42.0965529295697" lon="13.086825069723094"><ele>671.6666666666666</ele><time>2026-03-29T13:53:24.999Z</time></trkpt><trkpt lat="42.09660470976064" lon="13.08675619882197"><ele>669.0</ele><time>2026-03-29T13:53:27.999Z</time></trkpt><trkpt lat="42.096566278904895" lon="13.086643969958807"><ele>667.7142857142858</ele><time>2026-03-29T13:53:29.999Z</time></trkpt><trkpt lat="42.096504919813434" lon="13.086618074453591"><ele>666.4285714285714</ele><time>2026-03-29T13:53:33Z</time></trkpt><trkpt lat="42.09643748923669" lon="13.086592853550219"><ele>665.1428571428571</ele><time>2026-03-29T13:53:37Z</time></trkpt><trkpt lat="42.096392240884036" lon="13.086518031718144"><ele>663.8571428571429</ele><time>2026-03-29T13:53:44Z</time></trkpt><trkpt lat="42.0963662980103" lon="13.086437717026367"><ele>662.5714285714286</ele><time>2026-03-29T13:53:48Z</time></trkpt><trkpt lat="42.09630506998829" lon="13.08639280140044"><ele>661.2857142857143</ele><time>2026-03-29T13:53:55Z</time></trkpt><trkpt lat="42.09621794181899" lon="13.086418895870304"><ele>660.0</ele><time>2026-03-29T13:54:03Z</time></trkpt><trkpt lat="42.09618052312127" lon="13.086493253746749"><ele>656.6666666666666</ele><time>2026-03-29T13:54:08Z</time></trkpt><trkpt lat="42.09609971949373" lon="13.08648199775688"><ele>653.3333333333334</ele><time>2026-03-29T13:54:13Z</time></trkpt><trkpt lat="42.09604845640715" lon="13.086357780112687"><ele>650.0</ele><time>2026-03-29T13:54:17Z</time></trkpt><trkpt lat="42.09601815869452" lon="13.086259174834705"><ele>646.6666666666667</ele><time>2026-03-29T13:54:20Z</time></trkpt><trkpt lat="42.09604212474056" lon="13.08618020063842"><ele>643.3333333333334</ele><time>2026-03-29T13:54:22Z</time></trkpt><trkpt lat="42.09609167024805" lon="13.086104425028225"><ele>640.0</ele><time>2026-03-29T13:54:25Z</time></trkpt><trkpt lat="42.09615857720704" lon="13.08607272538138"><ele>640.0</ele><time>2026-03-29T13:54:28Z</time></trkpt><trkpt lat="42.0962151622978" lon="13.086008472653367"><ele>640.0</ele><time>2026-03-29T13:54:32Z</time></trkpt><trkpt lat="42.096270545598045" lon="13.086059319321976"><ele>640.0</ele><time>2026-03-29T13:54:34Z</time></trkpt><trkpt lat="42.09634581588461" lon="13.086097152622466"><ele>640.0</ele><time>2026-03-29T13:54:36.999Z</time></trkpt><trkpt lat="42.09642305784275" lon="13.086064567117846"><ele>640.0</ele><time>2026-03-29T13:54:39.999Z</time></trkpt><trkpt lat="42.09652801494307" lon="13.085973078888454"><ele>640.0</ele><time>2026-03-29T13:54:42.999Z</time></trkpt><trkpt lat="42.09659459337104" lon="13.085923045031617"><ele>640.7142857142857</ele><time>2026-03-29T13:54:43.999Z</time></trkpt><trkpt lat="42.09664501459792" lon="13.085865302061597"><ele>641.4285714285714</ele><time>2026-03-29T13:54:44.999Z</time></trkpt><trkpt lat="42.096699014202706" lon="13.085814095017064"><ele>642.1428571428571</ele><time>2026-03-29T13:54:45.999Z</time></trkpt><trkpt lat="42.09675493014347" lon="13.085764031200789"><ele>642.8571428571429</ele><time>2026-03-29T13:54:46.999Z</time></trkpt><trkpt lat="42.09680893373542" lon="13.085702390308455"><ele>643.5714285714286</ele><time>2026-03-29T13:54:47.999Z</time></trkpt><trkpt lat="42.096865534939234" lon="13.085632698285984"><ele>644.2857142857143</ele><time>2026-03-29T13:54:48.999Z</time></trkpt><trkpt lat="42.09695680425337" lon="13.085637508639486"><ele>645.0</ele><time>2026-03-29T13:54:49.999Z</time></trkpt><trkpt lat="42.09702223338639" lon="13.085542299149585"><ele>641.0</ele><time>2026-03-29T13:54:51.999Z</time></trkpt><trkpt lat="42.09706424707642" lon="13.085477770381804"><ele>637.0</ele><time>2026-03-29T13:54:54.999Z</time></trkpt><trkpt lat="42.09711987572809" lon="13.085428518560299"><ele>633.0</ele><time>2026-03-29T13:54:58.999Z</time></trkpt><trkpt lat="42.097160355862385" lon="13.085345140247002"><ele>629.0</ele><time>2026-03-29T13:55:58Z</time></trkpt><trkpt lat="42.097068136990224" lon="13.085276287815073"><ele>625.0</ele><time>2026-03-29T13:56:00Z</time></trkpt><trkpt lat="42.09698779741608" lon="13.085282004750692"><ele>621.0</ele><time>2026-03-29T13:56:01Z</time></trkpt><trkpt lat="42.096910823696625" lon="13.085284749784487"><ele>621.0</ele><time>2026-03-29T13:56:02Z</time></trkpt><trkpt lat="42.09685990604395" lon="13.085227449304556"><ele>621.0</ele><time>2026-03-29T13:56:03Z</time></trkpt><trkpt lat="42.09692103424699" lon="13.085148349015979"><ele>621.0</ele><time>2026-03-29T13:56:06Z</time></trkpt><trkpt lat="42.097058791332245" lon="13.085092759861686"><ele>621.0</ele><time>2026-03-29T13:56:08Z</time></trkpt><trkpt lat="42.0971445495002" lon="13.085056133061045"><ele>621.0</ele><time>2026-03-29T13:56:09Z</time></trkpt><trkpt lat="42.09722692207237" lon="13.085024722483576"><ele>621.0</ele><time>2026-03-29T13:56:10Z</time></trkpt><trkpt lat="42.09729320916675" lon="13.084999207931885"><ele>621.0</ele><time>2026-03-29T13:56:11Z</time></trkpt><trkpt lat="42.097419739270485" lon="13.085132100336788"><ele>621.0</ele><time>2026-03-29T13:56:13Z</time></trkpt><trkpt lat="42.09751203807784" lon="13.085110326796975"><ele>621.0</ele><time>2026-03-29T13:56:14Z</time></trkpt><trkpt lat="42.09757664909561" lon="13.085088075733372"><ele>621.0</ele><time>2026-03-29T13:56:15Z</time></trkpt><trkpt lat="42.09769265432832" lon="13.085048125245294"><ele>618.75</ele><time>2026-03-29T13:56:17Z</time></trkpt><trkpt lat="42.09776313628746" lon="13.085023852300765"><ele>616.5</ele><time>2026-03-29T13:56:18Z</time></trkpt><trkpt lat="42.0978279430295" lon="13.085001533814387"><ele>614.25</ele><time>2026-03-29T13:56:19Z</time></trkpt><trkpt lat="42.09782626042163" lon="13.084618044416159"><ele>612.0</ele><time>2026-03-29T13:56:20Z</time></trkpt><trkpt lat="42.097901363930916" lon="13.084677843337504"><ele>610.6666666666666</ele><time>2026-03-29T13:56:21Z</time></trkpt><trkpt lat="42.09797601925972" lon="13.084757926665583"><ele>609.3333333333334</ele><time>2026-03-29T13:56:22Z</time></trkpt><trkpt lat="42.09802400228763" lon="13.08482457786682"><ele>608.0</ele><time>2026-03-29T13:56:23Z</time></trkpt><trkpt lat="42.0980962622887" lon="13.084814050346898"><ele>606.6666666666667</ele><time>2026-03-29T13:56:27Z</time></trkpt><trkpt lat="42.09807803348063" lon="13.084670745109142"><ele>605.3333333333334</ele><time>2026-03-29T13:56:29Z</time></trkpt><trkpt lat="42.09803076305177" lon="13.084559129211788"><ele>604.0</ele><time>2026-03-29T13:56:30Z</time></trkpt><trkpt lat="42.097998539327925" lon="13.084464431820118"><ele>604.0</ele><time>2026-03-29T13:56:31Z</time></trkpt><trkpt lat="42.09796360008927" lon="13.084335520008008"><ele>604.0</ele><time>2026-03-29T13:56:33Z</time></trkpt><trkpt lat="42.09793441307556" lon="13.084220561617325"><ele>604.0</ele><time>2026-03-29T13:56:35Z</time></trkpt><trkpt lat="42.09790968616422" lon="13.084140480654533"><ele>604.0</ele><time>2026-03-29T13:56:36Z</time></trkpt><trkpt lat="42.09788762969717" lon="13.084053439700444"><ele>604.0</ele><time>2026-03-29T13:56:38Z</time></trkpt><trkpt lat="42.09802603880556" lon="13.083974439449767"><ele>604.0</ele><time>2026-03-29T13:56:39Z</time></trkpt><trkpt lat="42.09810739563978" lon="13.083937766476087"><ele>604.0</ele><time>2026-03-29T13:56:40Z</time></trkpt><trkpt lat="42.098191560159734" lon="13.083891855838358"><ele>604.0</ele><time>2026-03-29T13:56:42Z</time></trkpt><trkpt lat="42.09827648265499" lon="13.083848873026104"><ele>604.0</ele><time>2026-03-29T13:56:43.999Z</time></trkpt><trkpt lat="42.09835868786372" lon="13.083800806868442"><ele>604.0</ele><time>2026-03-29T13:56:46.999Z</time></trkpt><trkpt lat="42.098466689456146" lon="13.083741454040108"><ele>604.1666666666667</ele><time>2026-03-29T13:56:48.999Z</time></trkpt><trkpt lat="42.098541849742865" lon="13.083704702947493"><ele>604.3333333333334</ele><time>2026-03-29T13:56:49.999Z</time></trkpt><trkpt lat="42.0986191470985" lon="13.083666315932083"><ele>604.5</ele><time>2026-03-29T13:56:50.999Z</time></trkpt><trkpt lat="42.098698808374145" lon="13.083623598526255"><ele>604.6666666666666</ele><time>2026-03-29T13:56:51.999Z</time></trkpt><trkpt lat="42.09878085450436" lon="13.083578034647694"><ele>604.8333333333333</ele><time>2026-03-29T13:56:52.999Z</time></trkpt><trkpt lat="42.098868514620975" lon="13.083530949007194"><ele>605.0</ele><time>2026-03-29T13:56:53.999Z</time></trkpt><trkpt lat="42.09894651104764" lon="13.083492129102677"><ele>605.0</ele><time>2026-03-29T13:56:54.999Z</time></trkpt><trkpt lat="42.09900526228463" lon="13.08345930109605"><ele>605.0</ele><time>2026-03-29T13:56:55.999Z</time></trkpt><trkpt lat="42.09909600242258" lon="13.08340132734723"><ele>605.0</ele><time>2026-03-29T13:56:57.999Z</time></trkpt><trkpt lat="42.099058862920415" lon="13.083184875251291"><ele>605.0</ele><time>2026-03-29T13:57:02.999Z</time></trkpt><trkpt lat="42.09898744787508" lon="13.083107355069508"><ele>605.0</ele><time>2026-03-29T13:57:03.999Z</time></trkpt><trkpt lat="42.09890204364608" lon="13.08302380491986"><ele>605.25</ele><time>2026-03-29T13:57:04.999Z</time></trkpt><trkpt lat="42.09880105827074" lon="13.08292621055545"><ele>605.5</ele><time>2026-03-29T13:57:05.999Z</time></trkpt><trkpt lat="42.098688626076445" lon="13.082819860810995"><ele>605.75</ele><time>2026-03-29T13:57:06.999Z</time></trkpt><trkpt lat="42.09856772366014" lon="13.082712796994429"><ele>606.0</ele><time>2026-03-29T13:57:07.999Z</time></trkpt><trkpt lat="42.09843774507824" lon="13.082596426624013"><ele>606.0</ele><time>2026-03-29T13:57:08.999Z</time></trkpt><trkpt lat="42.0983175742607" lon="13.082472071716404"><ele>606.0</ele><time>2026-03-29T13:57:09.999Z</time></trkpt><trkpt lat="42.098214216309565" lon="13.08236338398296"><ele>606.0</ele><time>2026-03-29T13:57:10.999Z</time></trkpt><trkpt lat="42.09812485581326" lon="13.082267449123279"><ele>606.0</ele><time>2026-03-29T13:57:11.999Z</time></trkpt><trkpt lat="42.09804245879009" lon="13.082182174679362"><ele>605.3333333333334</ele><time>2026-03-29T13:57:12.999Z</time></trkpt><trkpt lat="42.09796848744058" lon="13.082102725412096"><ele>604.6666666666666</ele><time>2026-03-29T13:57:13.999Z</time></trkpt><trkpt lat="42.09790557572016" lon="13.082032746393333"><ele>604.0</ele><time>2026-03-29T13:57:14.999Z</time></trkpt><trkpt lat="42.097852645200106" lon="13.08197669203804"><ele>603.3333333333333</ele><time>2026-03-29T13:57:15.999Z</time></trkpt><trkpt lat="42.09780321404336" lon="13.08187553067851"><ele>602.6666666666666</ele><time>2026-03-29T13:57:17.999Z</time></trkpt><trkpt lat="42.097730145797236" lon="13.081839672486556"><ele>602.0</ele><time>2026-03-29T13:57:34.999Z</time></trkpt><trkpt lat="42.09760163239626" lon="13.081756866005332"><ele>602.0</ele><time>2026-03-29T13:57:36.999Z</time></trkpt><trkpt lat="42.09752003036485" lon="13.081658286644036"><ele>602.0</ele><time>2026-03-29T13:57:37.999Z</time></trkpt><trkpt lat="42.097401619564536" lon="13.08153069517304"><ele>602.0</ele><time>2026-03-29T13:57:38.999Z</time></trkpt><trkpt lat="42.09727153519847" lon="13.081383959994463"><ele>602.0</ele><time>2026-03-29T13:57:39.999Z</time></trkpt><trkpt lat="42.09713543186419" lon="13.081206694952128"><ele>602.0</ele><time>2026-03-29T13:57:40.999Z</time></trkpt><trkpt lat="42.097008853885576" lon="13.081028164701731"><ele>602.0</ele><time>2026-03-29T13:57:41.999Z</time></trkpt><trkpt lat="42.09689812163267" lon="13.080833727186562"><ele>602.0</ele><time>2026-03-29T13:57:43Z</time></trkpt><trkpt lat="42.096800920090445" lon="13.080648716234808"><ele>602.0</ele><time>2026-03-29T13:57:44Z</time></trkpt><trkpt lat="42.096702988143214" lon="13.080493934758616"><ele>602.0</ele><time>2026-03-29T13:57:45Z</time></trkpt><trkpt lat="42.09661268525687" lon="13.080329190884827"><ele>602.0</ele><time>2026-03-29T13:57:46Z</time></trkpt><trkpt lat="42.09652165857601" lon="13.080161748669505"><ele>602.0</ele><time>2026-03-29T13:57:47Z</time></trkpt><trkpt lat="42.09643145616404" lon="13.0800078492248"><ele>602.0</ele><time>2026-03-29T13:57:48Z</time></trkpt><trkpt lat="42.09633538988233" lon="13.079845715208306"><ele>602.0</ele><time>2026-03-29T13:57:49Z</time></trkpt><trkpt lat="42.0962251727958" lon="13.079691846944257"><ele>604.0</ele><time>2026-03-29T13:57:50Z</time></trkpt><trkpt lat="42.09610859577456" lon="13.079556557047615"><ele>606.0</ele><time>2026-03-29T13:57:51Z</time></trkpt><trkpt lat="42.09598658920652" lon="13.07941874368341"><ele>608.0</ele><time>2026-03-29T13:57:52Z</time></trkpt><trkpt lat="42.09586002152288" lon="13.079291294803744"><ele>608.3333333333333</ele><time>2026-03-29T13:57:53Z</time></trkpt><trkpt lat="42.09572551391324" lon="13.079168690362364"><ele>608.6666666666666</ele><time>2026-03-29T13:57:54Z</time></trkpt><trkpt lat="42.09559141135892" lon="13.079060738753286"><ele>609.0</ele><time>2026-03-29T13:57:55Z</time></trkpt><trkpt lat="42.09546001023335" lon="13.078949199683793"><ele>609.0</ele><time>2026-03-29T13:57:56Z</time></trkpt><trkpt lat="42.095324692629546" lon="13.078837960984709"><ele>609.0</ele><time>2026-03-29T13:57:57Z</time></trkpt><trkpt lat="42.095179973352856" lon="13.078723248472295"><ele>609.0</ele><time>2026-03-29T13:57:58Z</time></trkpt><trkpt lat="42.095029865137946" lon="13.078604640199464"><ele>607.3333333333334</ele><time>2026-03-29T13:57:59Z</time></trkpt><trkpt lat="42.094887565642615" lon="13.078500735438165"><ele>605.6666666666667</ele><time>2026-03-29T13:58:00Z</time></trkpt><trkpt lat="42.094760636862" lon="13.078406983584424"><ele>604.0</ele><time>2026-03-29T13:58:01Z</time></trkpt><trkpt lat="42.094638149267325" lon="13.078298915207757"><ele>607.0</ele><time>2026-03-29T13:58:02Z</time></trkpt><trkpt lat="42.094512955784495" lon="13.078176157652921"><ele>610.0</ele><time>2026-03-29T13:58:03Z</time></trkpt><trkpt lat="42.09438823783073" lon="13.07803878474794"><ele>613.0</ele><time>2026-03-29T13:58:04Z</time></trkpt><trkpt lat="42.09426856437951" lon="13.07789233333703"><ele>613.0</ele><time>2026-03-29T13:58:05Z</time></trkpt><trkpt lat="42.09415665438779" lon="13.077736714039512"><ele>613.0</ele><time>2026-03-29T13:58:06Z</time></trkpt><trkpt lat="42.09406571515642" lon="13.077565523609735"><ele>613.0</ele><time>2026-03-29T13:58:07Z</time></trkpt><trkpt lat="42.09398564270083" lon="13.077405310396752"><ele>609.3333333333334</ele><time>2026-03-29T13:58:08Z</time></trkpt><trkpt lat="42.09390534232888" lon="13.077223338697822"><ele>605.6666666666666</ele><time>2026-03-29T13:58:09Z</time></trkpt><trkpt lat="42.09382987546503" lon="13.077012261304178"><ele>602.0</ele><time>2026-03-29T13:58:10Z</time></trkpt><trkpt lat="42.093765081845895" lon="13.076804486060022"><ele>601.6666666666666</ele><time>2026-03-29T13:58:11Z</time></trkpt><trkpt lat="42.09371362101199" lon="13.076590640700585"><ele>601.3333333333334</ele><time>2026-03-29T13:58:12Z</time></trkpt><trkpt lat="42.093681147378575" lon="13.076370387984152"><ele>601.0</ele><time>2026-03-29T13:58:13Z</time></trkpt><trkpt lat="42.09366320248522" lon="13.076145978067718"><ele>601.0</ele><time>2026-03-29T13:58:14Z</time></trkpt><trkpt lat="42.09365823153322" lon="13.075917965618148"><ele>601.0</ele><time>2026-03-29T13:58:15Z</time></trkpt><trkpt lat="42.09366471316035" lon="13.075684937759188"><ele>601.0</ele><time>2026-03-29T13:58:16Z</time></trkpt><trkpt lat="42.09367716625787" lon="13.075443172289711"><ele>600.3333333333334</ele><time>2026-03-29T13:58:17Z</time></trkpt><trkpt lat="42.09369071706041" lon="13.075203820654838"><ele>599.6666666666666</ele><time>2026-03-29T13:58:18Z</time></trkpt><trkpt lat="42.09370258229763" lon="13.074965161518264"><ele>599.0</ele><time>2026-03-29T13:58:19Z</time></trkpt><trkpt lat="42.09371435160923" lon="13.074728577850879"><ele>599.0</ele><time>2026-03-29T13:58:20Z</time></trkpt><trkpt lat="42.09372428737619" lon="13.074487145692931"><ele>599.0</ele><time>2026-03-29T13:58:21Z</time></trkpt><trkpt lat="42.09373451270609" lon="13.074248727347786"><ele>599.0</ele><time>2026-03-29T13:58:22Z</time></trkpt><trkpt lat="42.09374381346339" lon="13.074029280283204"><ele>598.3333333333333</ele><time>2026-03-29T13:58:23Z</time></trkpt><trkpt lat="42.09375269031575" lon="13.07382004536626"><ele>597.6666666666666</ele><time>2026-03-29T13:58:24Z</time></trkpt><trkpt lat="42.09377064976508" lon="13.073611215954502"><ele>597.0</ele><time>2026-03-29T13:58:25Z</time></trkpt><trkpt lat="42.09378416587221" lon="13.073399162908654"><ele>597.6666666666666</ele><time>2026-03-29T13:58:26Z</time></trkpt><trkpt lat="42.0937905711604" lon="13.073177336179272"><ele>598.3333333333333</ele><time>2026-03-29T13:58:27Z</time></trkpt><trkpt lat="42.093780345612394" lon="13.072969113987526"><ele>599.0</ele><time>2026-03-29T13:58:28Z</time></trkpt><trkpt lat="42.0937538696974" lon="13.072773597491768"><ele>599.0</ele><time>2026-03-29T13:58:29Z</time></trkpt><trkpt lat="42.0937216922025" lon="13.072594703218483"><ele>599.0</ele><time>2026-03-29T13:58:30Z</time></trkpt><trkpt lat="42.09368195002101" lon="13.07241425233248"><ele>599.0</ele><time>2026-03-29T13:58:31Z</time></trkpt><trkpt lat="42.09363779561823" lon="13.072214559210957"><ele>599.0</ele><time>2026-03-29T13:58:32Z</time></trkpt><trkpt lat="42.09360683767381" lon="13.072011039996951"><ele>598.3333333333333</ele><time>2026-03-29T13:58:33Z</time></trkpt><trkpt lat="42.09359620011149" lon="13.071795282195549"><ele>597.6666666666666</ele><time>2026-03-29T13:58:34Z</time></trkpt><trkpt lat="42.093592578350545" lon="13.071559585787769"><ele>597.0</ele><time>2026-03-29T13:58:35Z</time></trkpt><trkpt lat="42.09358034834316" lon="13.071311367537712"><ele>596.6666666666666</ele><time>2026-03-29T13:58:36Z</time></trkpt><trkpt lat="42.09355388269647" lon="13.071049131517135"><ele>596.3333333333333</ele><time>2026-03-29T13:58:37Z</time></trkpt><trkpt lat="42.09352480777976" lon="13.07078696886948"><ele>596.0</ele><time>2026-03-29T13:58:38Z</time></trkpt><trkpt lat="42.09350199680892" lon="13.070521254023996"><ele>595.3333333333333</ele><time>2026-03-29T13:58:39Z</time></trkpt><trkpt lat="42.093480360486176" lon="13.070273128501258"><ele>594.6666666666666</ele><time>2026-03-29T13:58:40Z</time></trkpt><trkpt lat="42.09346041755976" lon="13.070035354411912"><ele>594.0</ele><time>2026-03-29T13:58:41Z</time></trkpt><trkpt lat="42.09343947507212" lon="13.069807740197499"><ele>593.6666666666666</ele><time>2026-03-29T13:58:42Z</time></trkpt><trkpt lat="42.09342450479463" lon="13.06958764946591"><ele>593.3333333333333</ele><time>2026-03-29T13:58:43Z</time></trkpt><trkpt lat="42.09341214300322" lon="13.069373871330242"><ele>593.0</ele><time>2026-03-29T13:58:44Z</time></trkpt><trkpt lat="42.093404325701705" lon="13.069149426913661"><ele>592.0</ele><time>2026-03-29T13:58:45Z</time></trkpt><trkpt lat="42.09340756417868" lon="13.068918317636639"><ele>591.0</ele><time>2026-03-29T13:58:45.999Z</time></trkpt><trkpt lat="42.09342091265537" lon="13.068687143870557"><ele>590.0</ele><time>2026-03-29T13:58:46.999Z</time></trkpt><trkpt lat="42.09344247076214" lon="13.068453566067609"><ele>589.6666666666666</ele><time>2026-03-29T13:58:47.999Z</time></trkpt><trkpt lat="42.0934650741711" lon="13.068220732443239"><ele>589.3333333333334</ele><time>2026-03-29T13:58:48.999Z</time></trkpt><trkpt lat="42.093490671810265" lon="13.067984020272698"><ele>589.0</ele><time>2026-03-29T13:58:49.999Z</time></trkpt><trkpt lat="42.09351557305573" lon="13.067750303672307"><ele>589.0</ele><time>2026-03-29T13:58:50.999Z</time></trkpt><trkpt lat="42.09353786287938" lon="13.067522375736615"><ele>589.0</ele><time>2026-03-29T13:58:51.999Z</time></trkpt><trkpt lat="42.09356447058111" lon="13.06730113766468"><ele>589.0</ele><time>2026-03-29T13:58:52.999Z</time></trkpt><trkpt lat="42.09359995405644" lon="13.06707415083395"><ele>589.3333333333334</ele><time>2026-03-29T13:58:53.999Z</time></trkpt><trkpt lat="42.09363550815753" lon="13.066846518366004"><ele>589.6666666666666</ele><time>2026-03-29T13:58:54.999Z</time></trkpt><trkpt lat="42.093669940073234" lon="13.066616923965253"><ele>590.0</ele><time>2026-03-29T13:58:55.999Z</time></trkpt><trkpt lat="42.093709805935084" lon="13.066397944123224"><ele>589.3333333333333</ele><time>2026-03-29T13:58:56.999Z</time></trkpt><trkpt lat="42.09374754683472" lon="13.066196310642855"><ele>588.6666666666666</ele><time>2026-03-29T13:58:57.999Z</time></trkpt><trkpt lat="42.093784658101185" lon="13.065992505975753"><ele>588.0</ele><time>2026-03-29T13:58:58.999Z</time></trkpt><trkpt lat="42.093822871617455" lon="13.065784654346873"><ele>587.6666666666666</ele><time>2026-03-29T13:58:59.999Z</time></trkpt><trkpt lat="42.09385927962165" lon="13.065575681797966"><ele>587.3333333333333</ele><time>2026-03-29T13:59:00.999Z</time></trkpt><trkpt lat="42.09389543323228" lon="13.06536794682618"><ele>587.0</ele><time>2026-03-29T13:59:01.999Z</time></trkpt><trkpt lat="42.09392935158773" lon="13.065162272194922"><ele>587.0</ele><time>2026-03-29T13:59:02.999Z</time></trkpt><trkpt lat="42.09397283058912" lon="13.06495217651655"><ele>587.0</ele><time>2026-03-29T13:59:03.999Z</time></trkpt><trkpt lat="42.094009142923596" lon="13.064727877769004"><ele>587.0</ele><time>2026-03-29T13:59:04.999Z</time></trkpt><trkpt lat="42.0940503139601" lon="13.064495369874146"><ele>587.3333333333333</ele><time>2026-03-29T13:59:05.999Z</time></trkpt><trkpt lat="42.09410328721524" lon="13.06427024890528"><ele>587.6666666666666</ele><time>2026-03-29T13:59:06.999Z</time></trkpt><trkpt lat="42.09416399763085" lon="13.064051569494564"><ele>588.0</ele><time>2026-03-29T13:59:07.999Z</time></trkpt><trkpt lat="42.094231630779525" lon="13.063836052322896"><ele>587.0</ele><time>2026-03-29T13:59:08.999Z</time></trkpt><trkpt lat="42.09430347528371" lon="13.063634085733964"><ele>586.0</ele><time>2026-03-29T13:59:09.999Z</time></trkpt><trkpt lat="42.09437897227137" lon="13.063436225959446"><ele>585.0</ele><time>2026-03-29T13:59:10.999Z</time></trkpt><trkpt lat="42.09444804982593" lon="13.063240023496531"><ele>584.3333333333334</ele><time>2026-03-29T13:59:11.999Z</time></trkpt><trkpt lat="42.09451827226639" lon="13.063046189806524"><ele>583.6666666666667</ele><time>2026-03-29T13:59:12.999Z</time></trkpt><trkpt lat="42.09458817015409" lon="13.062852708187622"><ele>583.0</ele><time>2026-03-29T13:59:13.999Z</time></trkpt><trkpt lat="42.09465460620561" lon="13.062663703923333"><ele>583.0</ele><time>2026-03-29T13:59:14.999Z</time></trkpt><trkpt lat="42.094724029848706" lon="13.062473385941756"><ele>583.0</ele><time>2026-03-29T13:59:15.999Z</time></trkpt><trkpt lat="42.094795520008766" lon="13.062280884977833"><ele>583.0</ele><time>2026-03-29T13:59:16.999Z</time></trkpt><trkpt lat="42.094865409848126" lon="13.062089258173978"><ele>583.3333333333334</ele><time>2026-03-29T13:59:17.999Z</time></trkpt><trkpt lat="42.09493584651076" lon="13.061899437772794"><ele>583.6666666666666</ele><time>2026-03-29T13:59:18.999Z</time></trkpt><trkpt lat="42.09500551935802" lon="13.061708436915907"><ele>584.0</ele><time>2026-03-29T13:59:19.999Z</time></trkpt><trkpt lat="42.09507490432605" lon="13.061514963940027"><ele>584.0</ele><time>2026-03-29T13:59:20.999Z</time></trkpt><trkpt lat="42.09514539749818" lon="13.061323169355616"><ele>584.0</ele><time>2026-03-29T13:59:21.999Z</time></trkpt><trkpt lat="42.095214339466786" lon="13.061129566745246"><ele>584.0</ele><time>2026-03-29T13:59:22.999Z</time></trkpt><trkpt lat="42.095284949916554" lon="13.06093473118929"><ele>583.6666666666666</ele><time>2026-03-29T13:59:23.999Z</time></trkpt><trkpt lat="42.09535345394714" lon="13.060737540441181"><ele>583.3333333333334</ele><time>2026-03-29T13:59:24.999Z</time></trkpt><trkpt lat="42.09542424708206" lon="13.06053666451012"><ele>583.0</ele><time>2026-03-29T13:59:25.999Z</time></trkpt><trkpt lat="42.09549929896336" lon="13.060336636521662"><ele>583.0</ele><time>2026-03-29T13:59:26.999Z</time></trkpt><trkpt lat="42.09556866628605" lon="13.06013496082363"><ele>583.0</ele><time>2026-03-29T13:59:27.999Z</time></trkpt><trkpt lat="42.095631810490374" lon="13.059947113859451"><ele>583.0</ele><time>2026-03-29T13:59:28.999Z</time></trkpt><trkpt lat="42.09569458397674" lon="13.059774733364018"><ele>583.5</ele><time>2026-03-29T13:59:29.999Z</time></trkpt><trkpt lat="42.095753120086" lon="13.059620559598747"><ele>584.0</ele><time>2026-03-29T13:59:30.999Z</time></trkpt><trkpt lat="42.0958070560442" lon="13.059472368569866"><ele>584.5</ele><time>2026-03-29T13:59:31.999Z</time></trkpt><trkpt lat="42.09585670181096" lon="13.059328215426953"><ele>585.0</ele><time>2026-03-29T13:59:32.999Z</time></trkpt><trkpt lat="42.095905831142545" lon="13.059200034677755"><ele>585.3333333333334</ele><time>2026-03-29T13:59:33.999Z</time></trkpt><trkpt lat="42.095955356581534" lon="13.059098889670512"><ele>585.6666666666666</ele><time>2026-03-29T13:59:34.999Z</time></trkpt><trkpt lat="42.0960356598902" lon="13.059048555870872"><ele>586.0</ele><time>2026-03-29T13:59:36.999Z</time></trkpt><trkpt lat="42.0961155653561" lon="13.059061247558127"><ele>586.3333333333333</ele><time>2026-03-29T13:59:39.999Z</time></trkpt><trkpt lat="42.096151338948026" lon="13.058949621066118"><ele>586.6666666666666</ele><time>2026-03-29T13:59:43.999Z</time></trkpt><trkpt lat="42.09622593370488" lon="13.05893689838468"><ele>587.0</ele><time>2026-03-29T14:03:40.999Z</time></trkpt><trkpt lat="42.09624984142885" lon="13.058833893005167"><ele>587.0</ele><time>2026-03-29T14:03:42.999Z</time></trkpt><trkpt lat="42.09624482179638" lon="13.058745537561498"><ele>587.0</ele><time>2026-03-29T14:03:43.999Z</time></trkpt><trkpt lat="42.096227557072865" lon="13.058595771279489"><ele>587.0</ele><time>2026-03-29T14:03:45.999Z</time></trkpt><trkpt lat="42.096233885976496" lon="13.05844850601144"><ele>587.0</ele><time>2026-03-29T14:03:47.999Z</time></trkpt><trkpt lat="42.096243703121296" lon="13.058362095148771"><ele>587.0</ele><time>2026-03-29T14:03:48.999Z</time></trkpt><trkpt lat="42.09626435928461" lon="13.058271003415143"><ele>587.0</ele><time>2026-03-29T14:03:49.999Z</time></trkpt><trkpt lat="42.096314427902705" lon="13.05815619742611"><ele>586.5</ele><time>2026-03-29T14:03:50.999Z</time></trkpt><trkpt lat="42.09637104245462" lon="13.058020169301484"><ele>586.0</ele><time>2026-03-29T14:03:51.999Z</time></trkpt><trkpt lat="42.096426738590225" lon="13.05787362189436"><ele>585.5</ele><time>2026-03-29T14:03:52.999Z</time></trkpt><trkpt lat="42.096480806490554" lon="13.057719884770776"><ele>585.0</ele><time>2026-03-29T14:03:53.999Z</time></trkpt><trkpt lat="42.0965256812784" lon="13.05756654062743"><ele>584.75</ele><time>2026-03-29T14:03:54.999Z</time></trkpt><trkpt lat="42.09659196359143" lon="13.05740508993641"><ele>584.5</ele><time>2026-03-29T14:03:55.999Z</time></trkpt><trkpt lat="42.09664899714339" lon="13.057222765690089"><ele>584.25</ele><time>2026-03-29T14:03:56.999Z</time></trkpt><trkpt lat="42.09671345419803" lon="13.057039695265232"><ele>584.0</ele><time>2026-03-29T14:03:57.999Z</time></trkpt><trkpt lat="42.096784663634345" lon="13.056866431151825"><ele>584.0</ele><time>2026-03-29T14:03:58.999Z</time></trkpt><trkpt lat="42.096863306150816" lon="13.05670328357639"><ele>584.0</ele><time>2026-03-29T14:04:00Z</time></trkpt><trkpt lat="42.09695139794903" lon="13.056554200360349"><ele>584.0</ele><time>2026-03-29T14:04:01Z</time></trkpt><trkpt lat="42.09704412490784" lon="13.056400209082113"><ele>584.0</ele><time>2026-03-29T14:04:02Z</time></trkpt><trkpt lat="42.09713607598259" lon="13.05624466870731"><ele>583.3333333333333</ele><time>2026-03-29T14:04:03Z</time></trkpt><trkpt lat="42.09724046322606" lon="13.05610256450426"><ele>582.6666666666666</ele><time>2026-03-29T14:04:04Z</time></trkpt><trkpt lat="42.09734607348697" lon="13.05595625230323"><ele>582.0</ele><time>2026-03-29T14:04:05Z</time></trkpt><trkpt lat="42.09745136143741" lon="13.055805376907697"><ele>582.3333333333334</ele><time>2026-03-29T14:04:06Z</time></trkpt><trkpt lat="42.097555186316406" lon="13.055655478662128"><ele>582.6666666666667</ele><time>2026-03-29T14:04:07Z</time></trkpt><trkpt lat="42.0976600303356" lon="13.055502514280043"><ele>583.0</ele><time>2026-03-29T14:04:08Z</time></trkpt><trkpt lat="42.09776613173821" lon="13.055342087776793"><ele>583.0</ele><time>2026-03-29T14:04:09Z</time></trkpt><trkpt lat="42.09787803924295" lon="13.055179602353006"><ele>583.0</ele><time>2026-03-29T14:04:10Z</time></trkpt><trkpt lat="42.09799094719032" lon="13.055015821877817"><ele>583.0</ele><time>2026-03-29T14:04:11Z</time></trkpt><trkpt lat="42.09810971762016" lon="13.05484879261845"><ele>582.6666666666667</ele><time>2026-03-29T14:04:12Z</time></trkpt><trkpt lat="42.09822585124105" lon="13.054681209789846"><ele>582.3333333333334</ele><time>2026-03-29T14:04:13Z</time></trkpt><trkpt lat="42.09833955612742" lon="13.054511429523627"><ele>582.0</ele><time>2026-03-29T14:04:14Z</time></trkpt><trkpt lat="42.09845464511418" lon="13.054337343771568"><ele>582.0</ele><time>2026-03-29T14:04:15Z</time></trkpt><trkpt lat="42.09856655382533" lon="13.054165359027447"><ele>582.0</ele><time>2026-03-29T14:04:16Z</time></trkpt><trkpt lat="42.09867370854521" lon="13.05399421861762"><ele>582.0</ele><time>2026-03-29T14:04:17Z</time></trkpt><trkpt lat="42.098778355526726" lon="13.05383821750193"><ele>582.75</ele><time>2026-03-29T14:04:18Z</time></trkpt><trkpt lat="42.09887258076998" lon="13.05369913362032"><ele>583.5</ele><time>2026-03-29T14:04:19Z</time></trkpt><trkpt lat="42.09896388672473" lon="13.053567922233956"><ele>584.25</ele><time>2026-03-29T14:04:20Z</time></trkpt><trkpt lat="42.09904209118616" lon="13.053460049495328"><ele>585.0</ele><time>2026-03-29T14:04:21Z</time></trkpt><trkpt lat="42.09910550803653" lon="13.05336274206971"><ele>584.1428571428571</ele><time>2026-03-29T14:04:22Z</time></trkpt><trkpt lat="42.09914870152273" lon="13.053285273286397"><ele>583.2857142857142</ele><time>2026-03-29T14:04:23Z</time></trkpt><trkpt lat="42.099189332357156" lon="13.0532173407351"><ele>582.4285714285713</ele><time>2026-03-29T14:04:25Z</time></trkpt><trkpt lat="42.09912090710847" lon="13.053185478901122"><ele>581.5714285714286</ele><time>2026-03-29T14:05:55.999Z</time></trkpt><trkpt lat="42.099151137442135" lon="13.053107322345184"><ele>580.7142857142857</ele><time>2026-03-29T14:06:24Z</time></trkpt><trkpt lat="42.09919370300285" lon="13.053205368332174"><ele>579.8571428571428</ele><time>2026-03-29T14:06:41Z</time></trkpt><trkpt lat="42.09915690806554" lon="13.053133805705068"><ele>579.0</ele><time>2026-03-29T14:07:08.043Z</time></trkpt><trkpt lat="42.09918556295706" lon="13.053221689663241"><ele>579.0</ele><time>2026-03-29T14:08:29.999Z</time></trkpt><trkpt lat="42.0992327090154" lon="13.05313526900214"><ele>579.0</ele><time>2026-03-29T14:08:59Z</time></trkpt><trkpt lat="42.099168481338694" lon="13.053123088394974"><ele>579.0</ele><time>2026-03-29T14:13:03Z</time></trkpt><trkpt lat="42.09922964700691" lon="13.053143903440223"><ele>579.0</ele><time>2026-03-29T14:19:57.999Z</time></trkpt><trkpt lat="42.09930298424106" lon="13.05306215562566"><ele>579.0</ele><time>2026-03-29T14:20:00.999Z</time></trkpt><trkpt lat="42.09937860467047" lon="13.052955299057812"><ele>579.0</ele><time>2026-03-29T14:20:02.999Z</time></trkpt><trkpt lat="42.099468205616446" lon="13.052813260707197"><ele>579.0</ele><time>2026-03-29T14:20:04.999Z</time></trkpt><trkpt lat="42.09954097420408" lon="13.052698021101182"><ele>579.0</ele><time>2026-03-29T14:20:05.999Z</time></trkpt><trkpt lat="42.09963612358356" lon="13.05258479079245"><ele>579.0</ele><time>2026-03-29T14:20:06.999Z</time></trkpt><trkpt lat="42.09972278970828" lon="13.052452458982247"><ele>579.0</ele><time>2026-03-29T14:20:07.999Z</time></trkpt><trkpt lat="42.09980676760724" lon="13.0523106478284"><ele>579.0</ele><time>2026-03-29T14:20:08.999Z</time></trkpt><trkpt lat="42.09987229986008" lon="13.05212920403477"><ele>579.0</ele><time>2026-03-29T14:20:09.999Z</time></trkpt><trkpt lat="42.0999548047011" lon="13.051962082027867"><ele>579.0</ele><time>2026-03-29T14:20:10.999Z</time></trkpt><trkpt lat="42.10003685342824" lon="13.051787059074545"><ele>578.0</ele><time>2026-03-29T14:20:11.999Z</time></trkpt><trkpt lat="42.10011547462256" lon="13.051607890434116"><ele>577.0</ele><time>2026-03-29T14:20:12.999Z</time></trkpt><trkpt lat="42.100193208281034" lon="13.051428349998401"><ele>576.0</ele><time>2026-03-29T14:20:13.999Z</time></trkpt><trkpt lat="42.100288380671934" lon="13.051265370246655"><ele>576.0</ele><time>2026-03-29T14:20:14.999Z</time></trkpt><trkpt lat="42.10036040467169" lon="13.051095957079816"><ele>576.0</ele><time>2026-03-29T14:20:15.999Z</time></trkpt><trkpt lat="42.100428057761846" lon="13.05093682506991"><ele>576.0</ele><time>2026-03-29T14:20:16.999Z</time></trkpt><trkpt lat="42.100497258562974" lon="13.050774052566743"><ele>576.0</ele><time>2026-03-29T14:20:17.999Z</time></trkpt><trkpt lat="42.10055293143076" lon="13.050601251512484"><ele>576.0</ele><time>2026-03-29T14:20:18.999Z</time></trkpt><trkpt lat="42.10062063771173" lon="13.050442485394585"><ele>576.0</ele><time>2026-03-29T14:20:19.999Z</time></trkpt><trkpt lat="42.1006900049406" lon="13.05028012610199"><ele>576.0</ele><time>2026-03-29T14:20:20.999Z</time></trkpt><trkpt lat="42.10076433700984" lon="13.05010906768448"><ele>576.0</ele><time>2026-03-29T14:20:21.999Z</time></trkpt><trkpt lat="42.100842312752185" lon="13.049941647732403"><ele>575.75</ele><time>2026-03-29T14:20:22.999Z</time></trkpt><trkpt lat="42.10091886029294" lon="13.049773237273513"><ele>575.5</ele><time>2026-03-29T14:20:23.999Z</time></trkpt><trkpt lat="42.10099340798864" lon="13.049594958531124"><ele>575.25</ele><time>2026-03-29T14:20:24.999Z</time></trkpt><trkpt lat="42.10106687267895" lon="13.0494204980662"><ele>575.0</ele><time>2026-03-29T14:20:25.999Z</time></trkpt><trkpt lat="42.10114102665951" lon="13.049238387688595"><ele>575.0</ele><time>2026-03-29T14:20:26.999Z</time></trkpt><trkpt lat="42.10121502175653" lon="13.049063183856143"><ele>575.0</ele><time>2026-03-29T14:20:27.999Z</time></trkpt><trkpt lat="42.10129066463666" lon="13.048883681036205"><ele>575.0</ele><time>2026-03-29T14:20:28.999Z</time></trkpt><trkpt lat="42.10136232983043" lon="13.048703125095598"><ele>575.0</ele><time>2026-03-29T14:20:29.999Z</time></trkpt><trkpt lat="42.10143073618863" lon="13.048538793334954"><ele>575.0</ele><time>2026-03-29T14:20:30.999Z</time></trkpt><trkpt lat="42.101490569942904" lon="13.048389717653977"><ele>575.0</ele><time>2026-03-29T14:20:31.999Z</time></trkpt><trkpt lat="42.10155352631596" lon="13.04823372042316"><ele>575.0</ele><time>2026-03-29T14:20:32.999Z</time></trkpt><trkpt lat="42.101605908313566" lon="13.048060334638981"><ele>575.3333333333333</ele><time>2026-03-29T14:20:33.999Z</time></trkpt><trkpt lat="42.10165721107068" lon="13.04787369530245"><ele>575.6666666666666</ele><time>2026-03-29T14:20:34.999Z</time></trkpt><trkpt lat="42.10171585735072" lon="13.04768366347911"><ele>576.0</ele><time>2026-03-29T14:20:35.999Z</time></trkpt><trkpt lat="42.10175617397369" lon="13.047476143039908"><ele>576.3333333333334</ele><time>2026-03-29T14:20:36.999Z</time></trkpt><trkpt lat="42.101804941485014" lon="13.047265401288817"><ele>576.6666666666667</ele><time>2026-03-29T14:20:37.999Z</time></trkpt><trkpt lat="42.10185813218936" lon="13.047053049519281"><ele>577.0</ele><time>2026-03-29T14:20:38.999Z</time></trkpt><trkpt lat="42.101911787580924" lon="13.046838091471752"><ele>576.6666666666667</ele><time>2026-03-29T14:20:39.999Z</time></trkpt><trkpt lat="42.10196577225914" lon="13.046619794841204"><ele>576.3333333333334</ele><time>2026-03-29T14:20:40.999Z</time></trkpt><trkpt lat="42.10202443177739" lon="13.046406003005186"><ele>576.0</ele><time>2026-03-29T14:20:41.999Z</time></trkpt><trkpt lat="42.102089738833314" lon="13.046203527414091"><ele>576.0</ele><time>2026-03-29T14:20:42.999Z</time></trkpt><trkpt lat="42.102168271609195" lon="13.046023241159903"><ele>576.0</ele><time>2026-03-29T14:20:43.999Z</time></trkpt><trkpt lat="42.1022639808647" lon="13.045861587981138"><ele>576.0</ele><time>2026-03-29T14:20:44.999Z</time></trkpt><trkpt lat="42.102378703596784" lon="13.045701044442652"><ele>576.6666666666666</ele><time>2026-03-29T14:20:45.999Z</time></trkpt><trkpt lat="42.10250433735703" lon="13.04553732513851"><ele>577.3333333333333</ele><time>2026-03-29T14:20:46.999Z</time></trkpt><trkpt lat="42.10262725852881" lon="13.045369013654641"><ele>578.0</ele><time>2026-03-29T14:20:47.999Z</time></trkpt><trkpt lat="42.10275812443443" lon="13.045199559311328"><ele>578.0</ele><time>2026-03-29T14:20:48.999Z</time></trkpt><trkpt lat="42.10288924088133" lon="13.045025857904532"><ele>578.0</ele><time>2026-03-29T14:20:49.999Z</time></trkpt><trkpt lat="42.10302111379577" lon="13.044850109745468"><ele>578.0</ele><time>2026-03-29T14:20:50.999Z</time></trkpt><trkpt lat="42.10316004120746" lon="13.044686340157002"><ele>577.3333333333333</ele><time>2026-03-29T14:20:51.999Z</time></trkpt><trkpt lat="42.103278886340256" lon="13.04450267272968"><ele>576.6666666666666</ele><time>2026-03-29T14:20:52.999Z</time></trkpt><trkpt lat="42.10337963156299" lon="13.044299593635417"><ele>576.0</ele><time>2026-03-29T14:20:53.999Z</time></trkpt><trkpt lat="42.103485267843936" lon="13.044110137356"><ele>576.0</ele><time>2026-03-29T14:20:54.999Z</time></trkpt><trkpt lat="42.10358637336169" lon="13.043921776935523"><ele>576.0</ele><time>2026-03-29T14:20:55.999Z</time></trkpt><trkpt lat="42.103687307379836" lon="13.043735359751777"><ele>576.0</ele><time>2026-03-29T14:20:56.999Z</time></trkpt><trkpt lat="42.10378843419891" lon="13.043550902602354"><ele>576.0</ele><time>2026-03-29T14:20:57.999Z</time></trkpt><trkpt lat="42.103883707358634" lon="13.043367012856676"><ele>576.0</ele><time>2026-03-29T14:20:58.999Z</time></trkpt><trkpt lat="42.10397632510731" lon="13.043208019208123"><ele>576.0</ele><time>2026-03-29T14:20:59.999Z</time></trkpt><trkpt lat="42.1040551642431" lon="13.043047050628061"><ele>576.0</ele><time>2026-03-29T14:21:00.999Z</time></trkpt><trkpt lat="42.10414151796099" lon="13.042882376902197"><ele>576.0</ele><time>2026-03-29T14:21:01.999Z</time></trkpt><trkpt lat="42.104213636252254" lon="13.042711431707767"><ele>576.0</ele><time>2026-03-29T14:21:02.999Z</time></trkpt><trkpt lat="42.10427404246581" lon="13.042522964606771"><ele>576.0</ele><time>2026-03-29T14:21:03.999Z</time></trkpt><trkpt lat="42.10433219967749" lon="13.042320429078934"><ele>575.6666666666666</ele><time>2026-03-29T14:21:04.999Z</time></trkpt><trkpt lat="42.104382243178435" lon="13.042111361464661"><ele>575.3333333333333</ele><time>2026-03-29T14:21:05.999Z</time></trkpt><trkpt lat="42.10443226908964" lon="13.041900931484067"><ele>575.0</ele><time>2026-03-29T14:21:06.999Z</time></trkpt><trkpt lat="42.10448048112233" lon="13.041688200778305"><ele>574.3333333333333</ele><time>2026-03-29T14:21:07.999Z</time></trkpt><trkpt lat="42.1045260462235" lon="13.041470820539473"><ele>573.6666666666666</ele><time>2026-03-29T14:21:08.999Z</time></trkpt><trkpt lat="42.104573924380524" lon="13.04125717995572"><ele>573.0</ele><time>2026-03-29T14:21:09.999Z</time></trkpt><trkpt lat="42.10461788776554" lon="13.041047139387336"><ele>573.0</ele><time>2026-03-29T14:21:11Z</time></trkpt><trkpt lat="42.10466533206562" lon="13.040833115257534"><ele>573.0</ele><time>2026-03-29T14:21:12Z</time></trkpt><trkpt lat="42.1047168924632" lon="13.040624909545775"><ele>573.0</ele><time>2026-03-29T14:21:13Z</time></trkpt><trkpt lat="42.104767921970826" lon="13.040414197448754"><ele>571.6666666666666</ele><time>2026-03-29T14:21:14Z</time></trkpt><trkpt lat="42.104811216377875" lon="13.04020066690655"><ele>570.3333333333333</ele><time>2026-03-29T14:21:15Z</time></trkpt><trkpt lat="42.10485713845646" lon="13.03998655885405"><ele>569.0</ele><time>2026-03-29T14:21:16Z</time></trkpt><trkpt lat="42.10490397062556" lon="13.039771704087215"><ele>569.3333333333333</ele><time>2026-03-29T14:21:17Z</time></trkpt><trkpt lat="42.10495003245079" lon="13.039554126632835"><ele>569.6666666666666</ele><time>2026-03-29T14:21:18Z</time></trkpt><trkpt lat="42.104996644767866" lon="13.039340289243281"><ele>570.0</ele><time>2026-03-29T14:21:19Z</time></trkpt><trkpt lat="42.1050409532999" lon="13.039124935774206"><ele>570.0</ele><time>2026-03-29T14:21:20Z</time></trkpt><trkpt lat="42.10508519410994" lon="13.038906877210055"><ele>570.0</ele><time>2026-03-29T14:21:21Z</time></trkpt><trkpt lat="42.10513457900607" lon="13.03869198612181"><ele>570.0</ele><time>2026-03-29T14:21:22Z</time></trkpt><trkpt lat="42.105187561721216" lon="13.038476744623301"><ele>569.6666666666666</ele><time>2026-03-29T14:21:23Z</time></trkpt><trkpt lat="42.10524925337256" lon="13.03827460322467"><ele>569.3333333333333</ele><time>2026-03-29T14:21:24Z</time></trkpt><trkpt lat="42.105311610712484" lon="13.038086312203419"><ele>569.0</ele><time>2026-03-29T14:21:25Z</time></trkpt><trkpt lat="42.10538451404249" lon="13.037897464715098"><ele>569.0</ele><time>2026-03-29T14:21:26Z</time></trkpt><trkpt lat="42.1054547743411" lon="13.037725977297846"><ele>569.0</ele><time>2026-03-29T14:21:27Z</time></trkpt><trkpt lat="42.1055274467917" lon="13.037566480109113"><ele>569.0</ele><time>2026-03-29T14:21:28Z</time></trkpt><trkpt lat="42.10561272603002" lon="13.037401833112314"><ele>569.0</ele><time>2026-03-29T14:21:29Z</time></trkpt><trkpt lat="42.10570382389176" lon="13.03723384849375"><ele>569.25</ele><time>2026-03-29T14:21:30Z</time></trkpt><trkpt lat="42.10580512390688" lon="13.037078543211264"><ele>569.5</ele><time>2026-03-29T14:21:31Z</time></trkpt><trkpt lat="42.105900783754805" lon="13.036939702888025"><ele>569.75</ele><time>2026-03-29T14:21:32Z</time></trkpt><trkpt lat="42.10600280897844" lon="13.036798010075758"><ele>570.0</ele><time>2026-03-29T14:21:33Z</time></trkpt><trkpt lat="42.106103215791485" lon="13.036651392040515"><ele>569.0</ele><time>2026-03-29T14:21:34Z</time></trkpt><trkpt lat="42.10620457154759" lon="13.036501151736646"><ele>568.0</ele><time>2026-03-29T14:21:35Z</time></trkpt><trkpt lat="42.10630684109565" lon="13.036347150470979"><ele>567.0</ele><time>2026-03-29T14:21:36Z</time></trkpt><trkpt lat="42.106407684365166" lon="13.036180146344899"><ele>567.0</ele><time>2026-03-29T14:21:37Z</time></trkpt><trkpt lat="42.10651273605633" lon="13.03601511841587"><ele>567.0</ele><time>2026-03-29T14:21:38Z</time></trkpt><trkpt lat="42.10662476916257" lon="13.035850753444796"><ele>567.0</ele><time>2026-03-29T14:21:39Z</time></trkpt><trkpt lat="42.10673666910195" lon="13.0356895084713"><ele>567.6666666666666</ele><time>2026-03-29T14:21:40Z</time></trkpt><trkpt lat="42.10684711660642" lon="13.035528646298326"><ele>568.3333333333333</ele><time>2026-03-29T14:21:41Z</time></trkpt><trkpt lat="42.10695674060653" lon="13.035367216038876"><ele>569.0</ele><time>2026-03-29T14:21:41.999Z</time></trkpt><trkpt lat="42.107061710809866" lon="13.035208201242959"><ele>569.0</ele><time>2026-03-29T14:21:42.999Z</time></trkpt><trkpt lat="42.10716149249057" lon="13.035061522311295"><ele>569.0</ele><time>2026-03-29T14:21:43.999Z</time></trkpt><trkpt lat="42.10725787802817" lon="13.034922080554917"><ele>569.0</ele><time>2026-03-29T14:21:44.999Z</time></trkpt><trkpt lat="42.10736051220862" lon="13.034781843052281"><ele>569.0</ele><time>2026-03-29T14:21:45.999Z</time></trkpt><trkpt lat="42.10746955088507" lon="13.034640233656688"><ele>568.6666666666666</ele><time>2026-03-29T14:21:46.999Z</time></trkpt><trkpt lat="42.10758928026719" lon="13.034504255451093"><ele>568.3333333333334</ele><time>2026-03-29T14:21:47.999Z</time></trkpt><trkpt lat="42.107724709477594" lon="13.034389737300135"><ele>568.0</ele><time>2026-03-29T14:21:48.999Z</time></trkpt><trkpt lat="42.107873842676746" lon="13.034282317685912"><ele>568.0</ele><time>2026-03-29T14:21:49.999Z</time></trkpt><trkpt lat="42.10802457840596" lon="13.034174700332528"><ele>568.0</ele><time>2026-03-29T14:21:50.999Z</time></trkpt><trkpt lat="42.10817133929814" lon="13.034065855325032"><ele>568.0</ele><time>2026-03-29T14:21:51.999Z</time></trkpt><trkpt lat="42.10831446386743" lon="13.03396083197775"><ele>567.6666666666667</ele><time>2026-03-29T14:21:52.999Z</time></trkpt><trkpt lat="42.10845987950748" lon="13.033853169468143"><ele>567.3333333333334</ele><time>2026-03-29T14:21:53.999Z</time></trkpt><trkpt lat="42.10860623615189" lon="13.033744020256346"><ele>567.0</ele><time>2026-03-29T14:21:54.999Z</time></trkpt><trkpt lat="42.10874866063693" lon="13.033639623958313"><ele>567.0</ele><time>2026-03-29T14:21:55.999Z</time></trkpt><trkpt lat="42.108890424447516" lon="13.033537006634214"><ele>567.0</ele><time>2026-03-29T14:21:56.999Z</time></trkpt><trkpt lat="42.10903340745843" lon="13.03342977672607"><ele>567.0</ele><time>2026-03-29T14:21:57.999Z</time></trkpt><trkpt lat="42.10917588997986" lon="13.033328122174945"><ele>566.6666666666666</ele><time>2026-03-29T14:21:58.999Z</time></trkpt><trkpt lat="42.109318742282895" lon="13.033222954257456"><ele>566.3333333333333</ele><time>2026-03-29T14:21:59.999Z</time></trkpt><trkpt lat="42.10946005080543" lon="13.033121071374104"><ele>566.0</ele><time>2026-03-29T14:22:00.999Z</time></trkpt><trkpt lat="42.109595312458964" lon="13.033027180378484"><ele>566.0</ele><time>2026-03-29T14:22:01.999Z</time></trkpt><trkpt lat="42.10972320828897" lon="13.032934071025789"><ele>566.0</ele><time>2026-03-29T14:22:02.999Z</time></trkpt><trkpt lat="42.10984352103364" lon="13.032827001079662"><ele>566.0</ele><time>2026-03-29T14:22:03.999Z</time></trkpt><trkpt lat="42.10996081213427" lon="13.032696025853141"><ele>566.0</ele><time>2026-03-29T14:22:04.999Z</time></trkpt><trkpt lat="42.11006554317616" lon="13.032544336702276"><ele>565.3333333333333</ele><time>2026-03-29T14:22:05.999Z</time></trkpt><trkpt lat="42.11015094295088" lon="13.03236928094384"><ele>564.6666666666666</ele><time>2026-03-29T14:22:06.999Z</time></trkpt><trkpt lat="42.11022577424329" lon="13.032173560363182"><ele>564.0</ele><time>2026-03-29T14:22:07.999Z</time></trkpt><trkpt lat="42.110296255642666" lon="13.031962861015002"><ele>564.0</ele><time>2026-03-29T14:22:08.999Z</time></trkpt><trkpt lat="42.110360216769244" lon="13.031749907948422"><ele>564.0</ele><time>2026-03-29T14:22:09.999Z</time></trkpt><trkpt lat="42.110438030080445" lon="13.03152989974572"><ele>564.0</ele><time>2026-03-29T14:22:10.999Z</time></trkpt><trkpt lat="42.11051637090824" lon="13.031294597446198"><ele>564.3333333333334</ele><time>2026-03-29T14:22:11.999Z</time></trkpt><trkpt lat="42.110597844570876" lon="13.03105757435529"><ele>564.6666666666667</ele><time>2026-03-29T14:22:12.999Z</time></trkpt><trkpt lat="42.110672611739204" lon="13.030841013775566"><ele>565.0</ele><time>2026-03-29T14:22:13.999Z</time></trkpt><trkpt lat="42.11074974890166" lon="13.030641623255569"><ele>565.25</ele><time>2026-03-29T14:22:14.999Z</time></trkpt><trkpt lat="42.110827518869996" lon="13.030460573975168"><ele>565.5</ele><time>2026-03-29T14:22:15.999Z</time></trkpt><trkpt lat="42.11091652601433" lon="13.030303254783226"><ele>565.75</ele><time>2026-03-29T14:22:16.999Z</time></trkpt><trkpt lat="42.11101993028469" lon="13.03016503871111"><ele>566.0</ele><time>2026-03-29T14:22:17.999Z</time></trkpt><trkpt lat="42.11113048983521" lon="13.030041580276487"><ele>568.6666666666666</ele><time>2026-03-29T14:22:18.999Z</time></trkpt><trkpt lat="42.11125521436609" lon="13.029927072490558"><ele>571.3333333333334</ele><time>2026-03-29T14:22:19.999Z</time></trkpt><trkpt lat="42.11138617121174" lon="13.029829309394874"><ele>574.0</ele><time>2026-03-29T14:22:20.999Z</time></trkpt><trkpt lat="42.11152847097116" lon="13.029757736159844"><ele>573.0</ele><time>2026-03-29T14:22:21.999Z</time></trkpt><trkpt lat="42.111670661415744" lon="13.029703095697304"><ele>572.0</ele><time>2026-03-29T14:22:22.999Z</time></trkpt><trkpt lat="42.11181941740335" lon="13.029670488106955"><ele>571.0</ele><time>2026-03-29T14:22:23.999Z</time></trkpt><trkpt lat="42.11197474838616" lon="13.029654288183755"><ele>571.0</ele><time>2026-03-29T14:22:24.999Z</time></trkpt><trkpt lat="42.112142867051595" lon="13.02964357525222"><ele>571.0</ele><time>2026-03-29T14:22:25.999Z</time></trkpt><trkpt lat="42.112318359923435" lon="13.029628446989516"><ele>571.0</ele><time>2026-03-29T14:22:26.999Z</time></trkpt><trkpt lat="42.1125025710166" lon="13.029611774746947"><ele>569.6666666666667</ele><time>2026-03-29T14:22:27.999Z</time></trkpt><trkpt lat="42.11269150495876" lon="13.029595930286765"><ele>568.3333333333334</ele><time>2026-03-29T14:22:28.999Z</time></trkpt><trkpt lat="42.11288771525145" lon="13.029583094469745"><ele>567.0</ele><time>2026-03-29T14:22:29.999Z</time></trkpt><trkpt lat="42.11308665001964" lon="13.029568690825727"><ele>566.3333333333334</ele><time>2026-03-29T14:22:30.999Z</time></trkpt><trkpt lat="42.11328427184303" lon="13.029551170995182"><ele>565.6666666666667</ele><time>2026-03-29T14:22:31.999Z</time></trkpt><trkpt lat="42.11348138151148" lon="13.029530280534194"><ele>565.0</ele><time>2026-03-29T14:22:32.999Z</time></trkpt><trkpt lat="42.11367858466019" lon="13.029511290436657"><ele>565.0</ele><time>2026-03-29T14:22:33.999Z</time></trkpt><trkpt lat="42.11387352838959" lon="13.029492296641523"><ele>565.0</ele><time>2026-03-29T14:22:34.999Z</time></trkpt><trkpt lat="42.114065597953285" lon="13.029480221398183"><ele>565.0</ele><time>2026-03-29T14:22:35.999Z</time></trkpt><trkpt lat="42.11425861765491" lon="13.029464015986171"><ele>565.6666666666667</ele><time>2026-03-29T14:22:36.999Z</time></trkpt><trkpt lat="42.11445027064263" lon="13.029453217596593"><ele>566.3333333333334</ele><time>2026-03-29T14:22:37.999Z</time></trkpt><trkpt lat="42.11463756606794" lon="13.029436878104631"><ele>567.0</ele><time>2026-03-29T14:22:38.999Z</time></trkpt><trkpt lat="42.11482428302012" lon="13.02941619563936"><ele>566.6666666666666</ele><time>2026-03-29T14:22:39.999Z</time></trkpt><trkpt lat="42.1150054614092" lon="13.029403587574937"><ele>566.3333333333333</ele><time>2026-03-29T14:22:40.999Z</time></trkpt><trkpt lat="42.11518539316078" lon="13.029386971075684"><ele>566.0</ele><time>2026-03-29T14:22:41.999Z</time></trkpt><trkpt lat="42.11536413863134" lon="13.029370260283876"><ele>566.0</ele><time>2026-03-29T14:22:42.999Z</time></trkpt><trkpt lat="42.11554025007835" lon="13.029358304351826"><ele>566.0</ele><time>2026-03-29T14:22:43.999Z</time></trkpt><trkpt lat="42.115715731395774" lon="13.029347391054209"><ele>566.0</ele><time>2026-03-29T14:22:44.999Z</time></trkpt><trkpt lat="42.11589303442097" lon="13.029332902722956"><ele>565.6666666666666</ele><time>2026-03-29T14:22:45.999Z</time></trkpt><trkpt lat="42.11606949165478" lon="13.029314029657638"><ele>565.3333333333334</ele><time>2026-03-29T14:22:46.999Z</time></trkpt><trkpt lat="42.116246443213775" lon="13.029291832297044"><ele>565.0</ele><time>2026-03-29T14:22:47.999Z</time></trkpt><trkpt lat="42.116415890467465" lon="13.029275486444948"><ele>565.0</ele><time>2026-03-29T14:22:48.999Z</time></trkpt><trkpt lat="42.11658491530758" lon="13.02925920025232"><ele>565.0</ele><time>2026-03-29T14:22:49.999Z</time></trkpt><trkpt lat="42.11674961051439" lon="13.029244301279824"><ele>565.0</ele><time>2026-03-29T14:22:50.999Z</time></trkpt><trkpt lat="42.11689923394245" lon="13.029231497704929"><ele>565.0</ele><time>2026-03-29T14:22:51.999Z</time></trkpt><trkpt lat="42.117051778021704" lon="13.029220670331789"><ele>565.0</ele><time>2026-03-29T14:22:52.999Z</time></trkpt><trkpt lat="42.11720616274623" lon="13.029212006805327"><ele>565.0</ele><time>2026-03-29T14:22:53.999Z</time></trkpt><trkpt lat="42.11736376409117" lon="13.029197338796092"><ele>565.0</ele><time>2026-03-29T14:22:54.999Z</time></trkpt><trkpt lat="42.11752258632688" lon="13.029183727530066"><ele>565.0</ele><time>2026-03-29T14:22:55.999Z</time></trkpt><trkpt lat="42.117682809174966" lon="13.029168906554185"><ele>565.0</ele><time>2026-03-29T14:22:56.999Z</time></trkpt><trkpt lat="42.117833528541695" lon="13.029156592292324"><ele>565.0</ele><time>2026-03-29T14:22:57.999Z</time></trkpt><trkpt lat="42.117969541303225" lon="13.02914737414071"><ele>565.0</ele><time>2026-03-29T14:22:58.999Z</time></trkpt><trkpt lat="42.11810254953634" lon="13.029139353286057"><ele>565.0</ele><time>2026-03-29T14:22:59.999Z</time></trkpt><trkpt lat="42.11823278602232" lon="13.02912500275647"><ele>565.0</ele><time>2026-03-29T14:23:00.999Z</time></trkpt><trkpt lat="42.11836767058259" lon="13.029112139205164"><ele>565.25</ele><time>2026-03-29T14:23:01.999Z</time></trkpt><trkpt lat="42.118504711111626" lon="13.02910161953115"><ele>565.5</ele><time>2026-03-29T14:23:02.999Z</time></trkpt><trkpt lat="42.11864305852836" lon="13.029092299833628"><ele>565.75</ele><time>2026-03-29T14:23:03.999Z</time></trkpt><trkpt lat="42.11878399931627" lon="13.029089189529504"><ele>566.0</ele><time>2026-03-29T14:23:04.999Z</time></trkpt><trkpt lat="42.118921138277365" lon="13.029097088874313"><ele>566.0</ele><time>2026-03-29T14:23:05.999Z</time></trkpt><trkpt lat="42.11904584151091" lon="13.029104316013028"><ele>566.0</ele><time>2026-03-29T14:23:06.999Z</time></trkpt><trkpt lat="42.11915564317674" lon="13.029135364646034"><ele>566.0</ele><time>2026-03-29T14:23:07.999Z</time></trkpt><trkpt lat="42.11924794764765" lon="13.029168241501468"><ele>566.0</ele><time>2026-03-29T14:23:08.999Z</time></trkpt><trkpt lat="42.11937909254304" lon="13.028967707515148"><ele>566.0</ele><time>2026-03-29T14:23:09.999Z</time></trkpt><trkpt lat="42.11945225158322" lon="13.02884176284144"><ele>566.0</ele><time>2026-03-29T14:23:10.999Z</time></trkpt><trkpt lat="42.11962869004245" lon="13.028823798705849"><ele>566.0</ele><time>2026-03-29T14:23:11.999Z</time></trkpt><trkpt lat="42.11979092576202" lon="13.028795102976773"><ele>566.6666666666666</ele><time>2026-03-29T14:23:12.999Z</time></trkpt><trkpt lat="42.11995524874694" lon="13.028783881576242"><ele>567.3333333333334</ele><time>2026-03-29T14:23:13.999Z</time></trkpt><trkpt lat="42.12013221450961" lon="13.028786758545637"><ele>568.0</ele><time>2026-03-29T14:23:14.999Z</time></trkpt><trkpt lat="42.120313861108" lon="13.028782857814718"><ele>568.0</ele><time>2026-03-29T14:23:15.999Z</time></trkpt><trkpt lat="42.12049446833877" lon="13.0287758769373"><ele>568.0</ele><time>2026-03-29T14:23:17Z</time></trkpt><trkpt lat="42.12067985611742" lon="13.028774728469148"><ele>568.0</ele><time>2026-03-29T14:23:18Z</time></trkpt><trkpt lat="42.12086991451905" lon="13.028794684990961"><ele>568.3333333333334</ele><time>2026-03-29T14:23:19Z</time></trkpt><trkpt lat="42.121060233354456" lon="13.028828412745094"><ele>568.6666666666666</ele><time>2026-03-29T14:23:20Z</time></trkpt><trkpt lat="42.121246932087814" lon="13.028868468783566"><ele>569.0</ele><time>2026-03-29T14:23:21Z</time></trkpt><trkpt lat="42.12143125423388" lon="13.028930831861125"><ele>568.6666666666666</ele><time>2026-03-29T14:23:22Z</time></trkpt><trkpt lat="42.12161856856245" lon="13.029019528328947"><ele>568.3333333333334</ele><time>2026-03-29T14:23:23Z</time></trkpt><trkpt lat="42.12180517001388" lon="13.029127096613019"><ele>568.0</ele><time>2026-03-29T14:23:24Z</time></trkpt><trkpt lat="42.121996266593065" lon="13.029237635732938"><ele>567.3333333333334</ele><time>2026-03-29T14:23:25Z</time></trkpt><trkpt lat="42.12218921669868" lon="13.029328235162742"><ele>566.6666666666666</ele><time>2026-03-29T14:23:26Z</time></trkpt><trkpt lat="42.12238416973035" lon="13.02940657344164"><ele>566.0</ele><time>2026-03-29T14:23:27Z</time></trkpt><trkpt lat="42.122574489867525" lon="13.029506899966634"><ele>565.6666666666666</ele><time>2026-03-29T14:23:28Z</time></trkpt><trkpt lat="42.12276048079524" lon="13.029606666261728"><ele>565.3333333333334</ele><time>2026-03-29T14:23:29Z</time></trkpt><trkpt lat="42.122946708678214" lon="13.029696893512709"><ele>565.0</ele><time>2026-03-29T14:23:30Z</time></trkpt><trkpt lat="42.123133612215035" lon="13.029778383651298"><ele>568.0</ele><time>2026-03-29T14:23:31Z</time></trkpt><trkpt lat="42.12332050740321" lon="13.029830810468582"><ele>571.0</ele><time>2026-03-29T14:23:32Z</time></trkpt><trkpt lat="42.12351317274318" lon="13.02986051653373"><ele>574.0</ele><time>2026-03-29T14:23:33Z</time></trkpt><trkpt lat="42.12371026593317" lon="13.02988037788205"><ele>574.0</ele><time>2026-03-29T14:23:34Z</time></trkpt><trkpt lat="42.12390636775261" lon="13.029884658786882"><ele>574.0</ele><time>2026-03-29T14:23:35Z</time></trkpt><trkpt lat="42.12409918481922" lon="13.02989314717974"><ele>574.0</ele><time>2026-03-29T14:23:36Z</time></trkpt><trkpt lat="42.12428651492998" lon="13.029900253064001"><ele>575.0</ele><time>2026-03-29T14:23:37Z</time></trkpt><trkpt lat="42.124456567132526" lon="13.029895015762767"><ele>576.0</ele><time>2026-03-29T14:23:38Z</time></trkpt><trkpt lat="42.12460875967539" lon="13.029867207391957"><ele>577.0</ele><time>2026-03-29T14:23:39Z</time></trkpt><trkpt lat="42.12475511206567" lon="13.029804675774782"><ele>574.0</ele><time>2026-03-29T14:23:40Z</time></trkpt><trkpt lat="42.124898039175186" lon="13.029710839095197"><ele>571.0</ele><time>2026-03-29T14:23:41Z</time></trkpt><trkpt lat="42.125043917303145" lon="13.02959263520565"><ele>568.0</ele><time>2026-03-29T14:23:42Z</time></trkpt><trkpt lat="42.12519143351998" lon="13.02945133141665"><ele>568.0</ele><time>2026-03-29T14:23:43Z</time></trkpt><trkpt lat="42.12534045056804" lon="13.0292921201145"><ele>568.0</ele><time>2026-03-29T14:23:44Z</time></trkpt><trkpt lat="42.12549193499987" lon="13.029129444880661"><ele>568.0</ele><time>2026-03-29T14:23:44.999Z</time></trkpt><trkpt lat="42.12565644509214" lon="13.028970289644064"><ele>567.0</ele><time>2026-03-29T14:23:45.999Z</time></trkpt><trkpt lat="42.125812685481115" lon="13.028807715179159"><ele>566.0</ele><time>2026-03-29T14:23:46.999Z</time></trkpt><trkpt lat="42.12596631702036" lon="13.02864014246292"><ele>565.0</ele><time>2026-03-29T14:23:47.999Z</time></trkpt><trkpt lat="42.12611080607814" lon="13.02846618185919"><ele>567.0</ele><time>2026-03-29T14:23:48.999Z</time></trkpt><trkpt lat="42.12625486825885" lon="13.028291610440787"><ele>569.0</ele><time>2026-03-29T14:23:49.999Z</time></trkpt><trkpt lat="42.126402414374944" lon="13.028118717311434"><ele>571.0</ele><time>2026-03-29T14:23:50.999Z</time></trkpt><trkpt lat="42.126544733994926" lon="13.027945070674736"><ele>570.6666666666667</ele><time>2026-03-29T14:23:51.999Z</time></trkpt><trkpt lat="42.126682709074046" lon="13.027768453629463"><ele>570.3333333333334</ele><time>2026-03-29T14:23:52.999Z</time></trkpt><trkpt lat="42.126823419903594" lon="13.027597660355704"><ele>570.0</ele><time>2026-03-29T14:23:53.999Z</time></trkpt><trkpt lat="42.12696602435658" lon="13.027426641708583"><ele>570.0</ele><time>2026-03-29T14:23:54.999Z</time></trkpt><trkpt lat="42.12710676975508" lon="13.027252426136295"><ele>570.0</ele><time>2026-03-29T14:23:55.999Z</time></trkpt><trkpt lat="42.12724959375957" lon="13.027086939670008"><ele>570.0</ele><time>2026-03-29T14:23:56.999Z</time></trkpt><trkpt lat="42.12739093110718" lon="13.026915037282068"><ele>569.0</ele><time>2026-03-29T14:23:57.999Z</time></trkpt><trkpt lat="42.12753080063093" lon="13.026738998609638"><ele>568.0</ele><time>2026-03-29T14:23:58.999Z</time></trkpt><trkpt lat="42.12767380090486" lon="13.02656854199571"><ele>567.0</ele><time>2026-03-29T14:23:59.999Z</time></trkpt><trkpt lat="42.127811043538216" lon="13.026400744580961"><ele>567.0</ele><time>2026-03-29T14:24:00.999Z</time></trkpt><trkpt lat="42.12794449151733" lon="13.026231875856244"><ele>567.0</ele><time>2026-03-29T14:24:01.999Z</time></trkpt><trkpt lat="42.12807861695337" lon="13.026060440357186"><ele>567.0</ele><time>2026-03-29T14:24:02.999Z</time></trkpt><trkpt lat="42.1282095801727" lon="13.025889747133649"><ele>566.6666666666666</ele><time>2026-03-29T14:24:03.999Z</time></trkpt><trkpt lat="42.12834972649436" lon="13.02573551292999"><ele>566.3333333333333</ele><time>2026-03-29T14:24:04.999Z</time></trkpt><trkpt lat="42.12848062716274" lon="13.025575076874546"><ele>566.0</ele><time>2026-03-29T14:24:05.999Z</time></trkpt><trkpt lat="42.12861208552443" lon="13.025413957675882"><ele>566.0</ele><time>2026-03-29T14:24:06.999Z</time></trkpt><trkpt lat="42.1287369677446" lon="13.025249982793923"><ele>566.0</ele><time>2026-03-29T14:24:07.999Z</time></trkpt><trkpt lat="42.128875408729975" lon="13.025101843894829"><ele>566.0</ele><time>2026-03-29T14:24:08.999Z</time></trkpt><trkpt lat="42.128999760312794" lon="13.02494010022991"><ele>565.0</ele><time>2026-03-29T14:24:09.999Z</time></trkpt><trkpt lat="42.12911030852831" lon="13.024763401968276"><ele>564.0</ele><time>2026-03-29T14:24:10.999Z</time></trkpt><trkpt lat="42.12921310018412" lon="13.024566998819644"><ele>563.0</ele><time>2026-03-29T14:24:11.999Z</time></trkpt><trkpt lat="42.12930828683337" lon="13.024349472266112"><ele>564.0</ele><time>2026-03-29T14:24:12.999Z</time></trkpt><trkpt lat="42.12939441506717" lon="13.024117536438013"><ele>565.0</ele><time>2026-03-29T14:24:13.999Z</time></trkpt><trkpt lat="42.12947975451833" lon="13.023882511448313"><ele>566.0</ele><time>2026-03-29T14:24:14.999Z</time></trkpt><trkpt lat="42.12956899745325" lon="13.023657701493601"><ele>566.0</ele><time>2026-03-29T14:24:15.999Z</time></trkpt><trkpt lat="42.12966157661464" lon="13.023458998725138"><ele>566.0</ele><time>2026-03-29T14:24:16.999Z</time></trkpt><trkpt lat="42.129762968914584" lon="13.0232894647066"><ele>566.0</ele><time>2026-03-29T14:24:17.999Z</time></trkpt><trkpt lat="42.12987479611565" lon="13.023163878114245"><ele>567.6</ele><time>2026-03-29T14:24:18.999Z</time></trkpt><trkpt lat="42.12997973117037" lon="13.023066011020562"><ele>569.2</ele><time>2026-03-29T14:24:19.999Z</time></trkpt><trkpt lat="42.13007955626986" lon="13.022984626204357"><ele>570.8</ele><time>2026-03-29T14:24:20.999Z</time></trkpt><trkpt lat="42.13015803567834" lon="13.02289405704774"><ele>572.4</ele><time>2026-03-29T14:24:21.999Z</time></trkpt><trkpt lat="42.13023193058941" lon="13.02283396580731"><ele>574.0</ele><time>2026-03-29T14:24:22.999Z</time></trkpt><trkpt lat="42.13028573764478" lon="13.022783436810641"><ele>574.0</ele><time>2026-03-29T14:24:23.999Z</time></trkpt><trkpt lat="42.13017988989379" lon="13.022486595013712"><ele>574.0</ele><time>2026-03-29T14:24:25.999Z</time></trkpt><trkpt lat="42.130121523273765" lon="13.022439180869585"><ele>574.0</ele><time>2026-03-29T14:24:26.999Z</time></trkpt><trkpt lat="42.13004815843679" lon="13.022402493415958"><ele>574.0</ele><time>2026-03-29T14:24:27.999Z</time></trkpt><trkpt lat="42.129977449801814" lon="13.02237475749958"><ele>575.0</ele><time>2026-03-29T14:24:28.999Z</time></trkpt><trkpt lat="42.129908957963146" lon="13.022356202917516"><ele>576.0</ele><time>2026-03-29T14:24:29.999Z</time></trkpt><trkpt lat="42.12984032686679" lon="13.022335273315182"><ele>577.0</ele><time>2026-03-29T14:24:30.999Z</time></trkpt><trkpt lat="42.129773397426376" lon="13.02230753314715"><ele>578.0</ele><time>2026-03-29T14:24:31.999Z</time></trkpt><trkpt lat="42.12971400083615" lon="13.022260258107275"><ele>579.0</ele><time>2026-03-29T14:24:32.999Z</time></trkpt><trkpt lat="42.129664624399204" lon="13.02217714879336"><ele>580.0</ele><time>2026-03-29T14:24:33.999Z</time></trkpt><trkpt lat="42.12961739763032" lon="13.022085350830091"><ele>581.0</ele><time>2026-03-29T14:24:34.999Z</time></trkpt><trkpt lat="42.129589784318156" lon="13.021953486150961"><ele>581.0</ele><time>2026-03-29T14:24:35.999Z</time></trkpt><trkpt lat="42.129546792645435" lon="13.021821474241094"><ele>581.0</ele><time>2026-03-29T14:24:36.999Z</time></trkpt><trkpt lat="42.129479094335" lon="13.021700098270527"><ele>581.0</ele><time>2026-03-29T14:24:37.999Z</time></trkpt><trkpt lat="42.129376292725226" lon="13.02161677882498"><ele>581.0</ele><time>2026-03-29T14:24:38.999Z</time></trkpt><trkpt lat="42.12925563962013" lon="13.021563312625736"><ele>584.25</ele><time>2026-03-29T14:24:39.999Z</time></trkpt><trkpt lat="42.129118982948135" lon="13.021519319127274"><ele>587.5</ele><time>2026-03-29T14:24:40.999Z</time></trkpt><trkpt lat="42.128970371845135" lon="13.021477098642587"><ele>590.75</ele><time>2026-03-29T14:24:41.999Z</time></trkpt><trkpt lat="42.1288283310099" lon="13.021412011410089"><ele>594.0</ele><time>2026-03-29T14:24:42.999Z</time></trkpt><trkpt lat="42.12869805937518" lon="13.021324386342254"><ele>594.0</ele><time>2026-03-29T14:24:43.999Z</time></trkpt><trkpt lat="42.128577977237526" lon="13.0211991085916"><ele>594.0</ele><time>2026-03-29T14:24:44.999Z</time></trkpt><trkpt lat="42.12844620294615" lon="13.02106403338889"><ele>594.0</ele><time>2026-03-29T14:24:45.999Z</time></trkpt><trkpt lat="42.128307938234364" lon="13.020933069616579"><ele>592.5</ele><time>2026-03-29T14:24:46.999Z</time></trkpt><trkpt lat="42.128169551251965" lon="13.020809230823634"><ele>591.0</ele><time>2026-03-29T14:24:47.999Z</time></trkpt><trkpt lat="42.12806095552652" lon="13.020702532461435"><ele>589.5</ele><time>2026-03-29T14:24:48.999Z</time></trkpt><trkpt lat="42.1279905519771" lon="13.020596535137225"><ele>588.0</ele><time>2026-03-29T14:24:49.999Z</time></trkpt><trkpt lat="42.127958991375166" lon="13.020479403116498"><ele>588.0</ele><time>2026-03-29T14:24:50.999Z</time></trkpt><trkpt lat="42.127977204296805" lon="13.020369270263537"><ele>588.0</ele><time>2026-03-29T14:24:51.999Z</time></trkpt><trkpt lat="42.12801977521101" lon="13.020252654323658"><ele>588.0</ele><time>2026-03-29T14:24:52.999Z</time></trkpt><trkpt lat="42.128085356788745" lon="13.020125007535635"><ele>588.0</ele><time>2026-03-29T14:24:53.999Z</time></trkpt><trkpt lat="42.12814888121108" lon="13.019969996511328"><ele>588.0</ele><time>2026-03-29T14:24:54.999Z</time></trkpt><trkpt lat="42.12820937381194" lon="13.019787820052239"><ele>591.6666666666666</ele><time>2026-03-29T14:24:55.999Z</time></trkpt><trkpt lat="42.12828060321571" lon="13.01960938812366"><ele>595.3333333333333</ele><time>2026-03-29T14:24:56.999Z</time></trkpt><trkpt lat="42.12834434140936" lon="13.019416689160645"><ele>599.0</ele><time>2026-03-29T14:24:57.999Z</time></trkpt><trkpt lat="42.12841497475713" lon="13.019216282619286"><ele>597.3333333333333</ele><time>2026-03-29T14:24:58.999Z</time></trkpt><trkpt lat="42.12851445049203" lon="13.01903557390582"><ele>595.6666666666666</ele><time>2026-03-29T14:24:59.999Z</time></trkpt><trkpt lat="42.12863778260248" lon="13.018888571805059"><ele>594.0</ele><time>2026-03-29T14:25:00.999Z</time></trkpt><trkpt lat="42.12875722402115" lon="13.018755127717917"><ele>594.0</ele><time>2026-03-29T14:25:01.999Z</time></trkpt><trkpt lat="42.128851309287654" lon="13.018598573107028"><ele>594.0</ele><time>2026-03-29T14:25:02.999Z</time></trkpt><trkpt lat="42.12893062315164" lon="13.018422686624003"><ele>594.0</ele><time>2026-03-29T14:25:03.999Z</time></trkpt><trkpt lat="42.12900392943427" lon="13.018236893556976"><ele>597.0</ele><time>2026-03-29T14:25:04.999Z</time></trkpt><trkpt lat="42.12908869066789" lon="13.018100806007764"><ele>600.0</ele><time>2026-03-29T14:25:05.999Z</time></trkpt><trkpt lat="42.12919694073338" lon="13.01797985326721"><ele>603.0</ele><time>2026-03-29T14:25:06.999Z</time></trkpt><trkpt lat="42.129323757916694" lon="13.017886157646833"><ele>606.0</ele><time>2026-03-29T14:25:07.999Z</time></trkpt><trkpt lat="42.129429240516586" lon="13.017818854819883"><ele>606.0</ele><time>2026-03-29T14:25:08.999Z</time></trkpt><trkpt lat="42.129499386248874" lon="13.017742613880554"><ele>606.0</ele><time>2026-03-29T14:25:09.999Z</time></trkpt><trkpt lat="42.12953486862038" lon="13.017644124977858"><ele>606.0</ele><time>2026-03-29T14:25:10.999Z</time></trkpt><trkpt lat="42.12953314216137" lon="13.017542899077538"><ele>606.0</ele><time>2026-03-29T14:25:11.999Z</time></trkpt><trkpt lat="42.129494589162384" lon="13.017464615993466"><ele>606.0</ele><time>2026-03-29T14:25:12.999Z</time></trkpt><trkpt lat="42.12941989409667" lon="13.017398758235897"><ele>606.0</ele><time>2026-03-29T14:25:13.999Z</time></trkpt><trkpt lat="42.129323047955616" lon="13.017333794581454"><ele>606.8</ele><time>2026-03-29T14:25:14.999Z</time></trkpt><trkpt lat="42.12924484928314" lon="13.017244983796788"><ele>607.6</ele><time>2026-03-29T14:25:15.999Z</time></trkpt><trkpt lat="42.12918276142873" lon="13.017127764813413"><ele>608.4</ele><time>2026-03-29T14:25:16.999Z</time></trkpt><trkpt lat="42.12916134461455" lon="13.017003300667417"><ele>609.2</ele><time>2026-03-29T14:25:17.999Z</time></trkpt><trkpt lat="42.12917186505328" lon="13.016860374463493"><ele>610.0</ele><time>2026-03-29T14:25:18.999Z</time></trkpt><trkpt lat="42.12918469701062" lon="13.016710239953484"><ele>610.2</ele><time>2026-03-29T14:25:19.999Z</time></trkpt><trkpt lat="42.12920608720903" lon="13.01658161945666"><ele>610.4</ele><time>2026-03-29T14:25:20.999Z</time></trkpt><trkpt lat="42.12926103117694" lon="13.016481311579584"><ele>610.6</ele><time>2026-03-29T14:25:21.999Z</time></trkpt><trkpt lat="42.12935200662976" lon="13.016420718954608"><ele>610.8</ele><time>2026-03-29T14:25:23Z</time></trkpt><trkpt lat="42.129442339407255" lon="13.016383041056274"><ele>611.0</ele><time>2026-03-29T14:25:24Z</time></trkpt><trkpt lat="42.12953014975068" lon="13.016393003616843"><ele>611.0</ele><time>2026-03-29T14:25:25Z</time></trkpt><trkpt lat="42.12964410207157" lon="13.016371200312907"><ele>611.0</ele><time>2026-03-29T14:25:26Z</time></trkpt><trkpt lat="42.12970665013877" lon="13.016302485807488"><ele>611.0</ele><time>2026-03-29T14:25:27Z</time></trkpt><trkpt lat="42.12973319669107" lon="13.016207243493174"><ele>611.0</ele><time>2026-03-29T14:25:28Z</time></trkpt><trkpt lat="42.12971950876637" lon="13.016119551252624"><ele>611.0</ele><time>2026-03-29T14:25:29Z</time></trkpt><trkpt lat="42.12968122327222" lon="13.016042549326485"><ele>611.0</ele><time>2026-03-29T14:25:30Z</time></trkpt><trkpt lat="42.1296047644773" lon="13.015961879648794"><ele>611.0</ele><time>2026-03-29T14:25:31Z</time></trkpt><trkpt lat="42.129508077383754" lon="13.015898557151157"><ele>611.0</ele><time>2026-03-29T14:25:32Z</time></trkpt><trkpt lat="42.12939104070312" lon="13.015856310497389"><ele>611.0</ele><time>2026-03-29T14:25:33Z</time></trkpt><trkpt lat="42.12928585755286" lon="13.015795574752248"><ele>611.0</ele><time>2026-03-29T14:25:34Z</time></trkpt><trkpt lat="42.12922676374207" lon="13.01570062346051"><ele>611.0</ele><time>2026-03-29T14:25:35Z</time></trkpt><trkpt lat="42.129212890109386" lon="13.015578935173641"><ele>611.8</ele><time>2026-03-29T14:25:36Z</time></trkpt><trkpt lat="42.1292143131186" lon="13.015430904137812"><ele>612.6</ele><time>2026-03-29T14:25:37Z</time></trkpt><trkpt lat="42.12922556991034" lon="13.015280604337923"><ele>613.4</ele><time>2026-03-29T14:25:38Z</time></trkpt><trkpt lat="42.12924312439615" lon="13.015126747321299"><ele>614.2</ele><time>2026-03-29T14:25:39Z</time></trkpt><trkpt lat="42.12922885094258" lon="13.014977792119224"><ele>615.0</ele><time>2026-03-29T14:25:40Z</time></trkpt><trkpt lat="42.12924685533234" lon="13.014811817767704"><ele>615.0</ele><time>2026-03-29T14:25:41Z</time></trkpt><trkpt lat="42.129286307313635" lon="13.014648630617682"><ele>615.0</ele><time>2026-03-29T14:25:42Z</time></trkpt><trkpt lat="42.12937218842927" lon="13.014494848874532"><ele>615.0</ele><time>2026-03-29T14:25:43Z</time></trkpt><trkpt lat="42.129511784617335" lon="13.014342073065047"><ele>615.0</ele><time>2026-03-29T14:25:43.999Z</time></trkpt><trkpt lat="42.12965018815292" lon="13.01419190626265"><ele>615.0</ele><time>2026-03-29T14:25:44.999Z</time></trkpt><trkpt lat="42.12978684632775" lon="13.014054267755263"><ele>615.0</ele><time>2026-03-29T14:25:45.999Z</time></trkpt><trkpt lat="42.12992530971158" lon="13.013935178698526"><ele>616.0</ele><time>2026-03-29T14:25:46.999Z</time></trkpt><trkpt lat="42.13006667868015" lon="13.013841520224359"><ele>617.0</ele><time>2026-03-29T14:25:47.999Z</time></trkpt><trkpt lat="42.13021244255988" lon="13.013798967704197"><ele>618.0</ele><time>2026-03-29T14:25:48.999Z</time></trkpt><trkpt lat="42.130355134000176" lon="13.013798828533014"><ele>619.0</ele><time>2026-03-29T14:25:49.999Z</time></trkpt><trkpt lat="42.13048149090861" lon="13.013734410308052"><ele>619.0</ele><time>2026-03-29T14:25:50.999Z</time></trkpt><trkpt lat="42.130593622556326" lon="13.013612098523408"><ele>619.0</ele><time>2026-03-29T14:25:51.999Z</time></trkpt><trkpt lat="42.13069710944429" lon="13.01345690434872"><ele>619.0</ele><time>2026-03-29T14:25:52.999Z</time></trkpt><trkpt lat="42.130794338655996" lon="13.013281013924114"><ele>621.0</ele><time>2026-03-29T14:25:53.999Z</time></trkpt><trkpt lat="42.13089655378023" lon="13.01309472732869"><ele>623.0</ele><time>2026-03-29T14:25:54.999Z</time></trkpt><trkpt lat="42.13099162940338" lon="13.012913586387306"><ele>625.0</ele><time>2026-03-29T14:25:55.999Z</time></trkpt><trkpt lat="42.13106157104887" lon="13.012744826839038"><ele>625.0</ele><time>2026-03-29T14:25:56.999Z</time></trkpt><trkpt lat="42.131085287221" lon="13.012572128661091"><ele>625.0</ele><time>2026-03-29T14:25:57.999Z</time></trkpt><trkpt lat="42.131074739838795" lon="13.012388467766607"><ele>625.0</ele><time>2026-03-29T14:25:58.999Z</time></trkpt><trkpt lat="42.13105673866753" lon="13.012200277624167"><ele>625.0</ele><time>2026-03-29T14:25:59.999Z</time></trkpt><trkpt lat="42.131069915571096" lon="13.012011890490724"><ele>625.25</ele><time>2026-03-29T14:26:00.999Z</time></trkpt><trkpt lat="42.13112532385453" lon="13.011832437453098"><ele>625.5</ele><time>2026-03-29T14:26:01.999Z</time></trkpt><trkpt lat="42.13119892345116" lon="13.011665882661827"><ele>625.75</ele><time>2026-03-29T14:26:02.999Z</time></trkpt><trkpt lat="42.13124176194536" lon="13.011496865167533"><ele>626.0</ele><time>2026-03-29T14:26:03.999Z</time></trkpt><trkpt lat="42.131241777347306" lon="13.011306804475506"><ele>628.0</ele><time>2026-03-29T14:26:04.999Z</time></trkpt><trkpt lat="42.13121643046073" lon="13.011090423257484"><ele>630.0</ele><time>2026-03-29T14:26:05.999Z</time></trkpt><trkpt lat="42.13118070798749" lon="13.010875818008131"><ele>632.0</ele><time>2026-03-29T14:26:06.999Z</time></trkpt><trkpt lat="42.13114133961171" lon="13.010672432971568"><ele>633.5</ele><time>2026-03-29T14:26:07.999Z</time></trkpt><trkpt lat="42.1311069641965" lon="13.010503474988282"><ele>635.0</ele><time>2026-03-29T14:26:08.999Z</time></trkpt><trkpt lat="42.13109686726633" lon="13.010352661112478"><ele>636.5</ele><time>2026-03-29T14:26:09.999Z</time></trkpt><trkpt lat="42.131115193693724" lon="13.010213640563508"><ele>638.0</ele><time>2026-03-29T14:26:10.999Z</time></trkpt><trkpt lat="42.13117288585503" lon="13.010093873686897"><ele>638.0</ele><time>2026-03-29T14:26:11.999Z</time></trkpt><trkpt lat="42.131252797724876" lon="13.01001873956566"><ele>638.0</ele><time>2026-03-29T14:26:12.999Z</time></trkpt><trkpt lat="42.13133354453943" lon="13.009981144229767"><ele>638.0</ele><time>2026-03-29T14:26:13.999Z</time></trkpt><trkpt lat="42.13141079856395" lon="13.00991710395907"><ele>638.0</ele><time>2026-03-29T14:26:15.999Z</time></trkpt><trkpt lat="42.131367174800396" lon="13.009804059671373"><ele>638.0</ele><time>2026-03-29T14:26:17.999Z</time></trkpt><trkpt lat="42.13131198600461" lon="13.009750674695255"><ele>638.0</ele><time>2026-03-29T14:26:18.999Z</time></trkpt><trkpt lat="42.131242465289056" lon="13.009686616051258"><ele>638.5</ele><time>2026-03-29T14:26:19.999Z</time></trkpt><trkpt lat="42.13116216575949" lon="13.009606874460983"><ele>639.0</ele><time>2026-03-29T14:26:20.999Z</time></trkpt><trkpt lat="42.13107709947429" lon="13.009504177848406"><ele>639.5</ele><time>2026-03-29T14:26:21.999Z</time></trkpt><trkpt lat="42.13098646909918" lon="13.009395744427573"><ele>640.0</ele><time>2026-03-29T14:26:22.999Z</time></trkpt><trkpt lat="42.13087521473309" lon="13.009286652311625"><ele>640.0</ele><time>2026-03-29T14:26:23.999Z</time></trkpt><trkpt lat="42.130764085633075" lon="13.00918640660036"><ele>640.0</ele><time>2026-03-29T14:26:24.999Z</time></trkpt><trkpt lat="42.13067092841559" lon="13.009093750724018"><ele>640.0</ele><time>2026-03-29T14:26:25.999Z</time></trkpt><trkpt lat="42.130590682262294" lon="13.009007823992684"><ele>640.0</ele><time>2026-03-29T14:26:26.999Z</time></trkpt><trkpt lat="42.13053724278119" lon="13.008917784250789"><ele>640.0</ele><time>2026-03-29T14:26:27.999Z</time></trkpt><trkpt lat="42.130507978625666" lon="13.008801714564477"><ele>642.0</ele><time>2026-03-29T14:26:28.999Z</time></trkpt><trkpt lat="42.13050554747164" lon="13.008662974442936"><ele>644.0</ele><time>2026-03-29T14:26:29.999Z</time></trkpt><trkpt lat="42.130502758677395" lon="13.008509802082246"><ele>646.0</ele><time>2026-03-29T14:26:30.999Z</time></trkpt><trkpt lat="42.13047702150548" lon="13.008345897564025"><ele>648.0</ele><time>2026-03-29T14:26:31.999Z</time></trkpt><trkpt lat="42.13043088529919" lon="13.008176524475552"><ele>648.0</ele><time>2026-03-29T14:26:32.999Z</time></trkpt><trkpt lat="42.130383555893374" lon="13.008007895489206"><ele>648.0</ele><time>2026-03-29T14:26:33.999Z</time></trkpt><trkpt lat="42.13036434135914" lon="13.007861799380777"><ele>648.0</ele><time>2026-03-29T14:26:34.999Z</time></trkpt><trkpt lat="42.130368900720796" lon="13.007741704684623"><ele>648.0</ele><time>2026-03-29T14:26:35.999Z</time></trkpt><trkpt lat="42.130403695412454" lon="13.007650538226784"><ele>648.0</ele><time>2026-03-29T14:26:36.999Z</time></trkpt><trkpt lat="42.13047261111701" lon="13.007584091189242"><ele>648.0</ele><time>2026-03-29T14:26:37.999Z</time></trkpt><trkpt lat="42.13056287577192" lon="13.007536665237717"><ele>648.0</ele><time>2026-03-29T14:26:38.999Z</time></trkpt><trkpt lat="42.13067798375729" lon="13.00751666720306"><ele>648.0</ele><time>2026-03-29T14:26:39.999Z</time></trkpt><trkpt lat="42.13080943549382" lon="13.007500461727746"><ele>648.0</ele><time>2026-03-29T14:26:40.999Z</time></trkpt><trkpt lat="42.130953100638834" lon="13.007495784077898"><ele>650.0</ele><time>2026-03-29T14:26:41.999Z</time></trkpt><trkpt lat="42.13109461488417" lon="13.007483863423868"><ele>652.0</ele><time>2026-03-29T14:26:42.999Z</time></trkpt><trkpt lat="42.1312392595197" lon="13.007445661239304"><ele>654.0</ele><time>2026-03-29T14:26:43.999Z</time></trkpt><trkpt lat="42.13134417404365" lon="13.007415928637863"><ele>656.0</ele><time>2026-03-29T14:26:44.999Z</time></trkpt><trkpt lat="42.13143844490431" lon="13.007387635728072"><ele>656.0</ele><time>2026-03-29T14:26:45.999Z</time></trkpt><trkpt lat="42.131523315433135" lon="13.007329070020482"><ele>656.0</ele><time>2026-03-29T14:26:46.999Z</time></trkpt><trkpt lat="42.131597574386284" lon="13.00722581928465"><ele>656.0</ele><time>2026-03-29T14:26:47.999Z</time></trkpt><trkpt lat="42.13165499167032" lon="13.007096459519333"><ele>656.0</ele><time>2026-03-29T14:26:48.999Z</time></trkpt><trkpt lat="42.13170976093478" lon="13.006966679853388"><ele>656.0</ele><time>2026-03-29T14:26:49.999Z</time></trkpt><trkpt lat="42.131772294030995" lon="13.006856147527715"><ele>655.25</ele><time>2026-03-29T14:26:50.999Z</time></trkpt><trkpt lat="42.131823937004505" lon="13.006735169901118"><ele>654.5</ele><time>2026-03-29T14:26:51.999Z</time></trkpt><trkpt lat="42.13188986479005" lon="13.006606314257013"><ele>653.75</ele><time>2026-03-29T14:26:52.999Z</time></trkpt><trkpt lat="42.13195512526771" lon="13.00644407438185"><ele>653.0</ele><time>2026-03-29T14:26:53.999Z</time></trkpt><trkpt lat="42.13201292378035" lon="13.006256386293526"><ele>653.0</ele><time>2026-03-29T14:26:54.999Z</time></trkpt><trkpt lat="42.13206344403555" lon="13.006076028105323"><ele>653.0</ele><time>2026-03-29T14:26:55.999Z</time></trkpt><trkpt lat="42.13211957563294" lon="13.005915969644002"><ele>653.0</ele><time>2026-03-29T14:26:56.999Z</time></trkpt><trkpt lat="42.13218366176047" lon="13.005767589463288"><ele>653.0</ele><time>2026-03-29T14:26:57.999Z</time></trkpt><trkpt lat="42.13225632055695" lon="13.005637818842855"><ele>653.0</ele><time>2026-03-29T14:26:58.999Z</time></trkpt><trkpt lat="42.13233257282702" lon="13.005534807179401"><ele>653.0</ele><time>2026-03-29T14:26:59.999Z</time></trkpt><trkpt lat="42.13238829442726" lon="13.005404613990155"><ele>653.0</ele><time>2026-03-29T14:27:00.999Z</time></trkpt><trkpt lat="42.132433339346214" lon="13.005249484677075"><ele>653.0</ele><time>2026-03-29T14:27:01.999Z</time></trkpt><trkpt lat="42.132470878081094" lon="13.005096997891261"><ele>655.2</ele><time>2026-03-29T14:27:02.999Z</time></trkpt><trkpt lat="42.13254223523233" lon="13.004954453043473"><ele>657.4</ele><time>2026-03-29T14:27:03.999Z</time></trkpt><trkpt lat="42.132622203084075" lon="13.004858311326823"><ele>659.6</ele><time>2026-03-29T14:27:04.999Z</time></trkpt><trkpt lat="42.132702790996596" lon="13.00480351354535"><ele>661.8000000000001</ele><time>2026-03-29T14:27:05.999Z</time></trkpt><trkpt lat="42.13278873583147" lon="13.00480478727104"><ele>664.0</ele><time>2026-03-29T14:27:06.999Z</time></trkpt><trkpt lat="42.13288870029524" lon="13.004780626514117"><ele>664.0</ele><time>2026-03-29T14:27:07.999Z</time></trkpt><trkpt lat="42.13299652272858" lon="13.00475240724311"><ele>664.0</ele><time>2026-03-29T14:27:08.999Z</time></trkpt><trkpt lat="42.13311329942787" lon="13.004703260615468"><ele>664.0</ele><time>2026-03-29T14:27:09.999Z</time></trkpt><trkpt lat="42.13323638537222" lon="13.004616949188643"><ele>664.0</ele><time>2026-03-29T14:27:10.999Z</time></trkpt><trkpt lat="42.13336169487848" lon="13.004518478895115"><ele>663.25</ele><time>2026-03-29T14:27:11.999Z</time></trkpt><trkpt lat="42.13349626796343" lon="13.004458922602518"><ele>662.5</ele><time>2026-03-29T14:27:12.999Z</time></trkpt><trkpt lat="42.133631978235165" lon="13.004380020762447"><ele>661.75</ele><time>2026-03-29T14:27:13.999Z</time></trkpt><trkpt lat="42.133761865789424" lon="13.004289016469455"><ele>661.0</ele><time>2026-03-29T14:27:14.999Z</time></trkpt><trkpt lat="42.13389365531437" lon="13.0042196691656"><ele>662.75</ele><time>2026-03-29T14:27:15.999Z</time></trkpt><trkpt lat="42.134001437963505" lon="13.004153742541282"><ele>664.5</ele><time>2026-03-29T14:27:16.999Z</time></trkpt><trkpt lat="42.13410498209307" lon="13.004062685724879"><ele>666.25</ele><time>2026-03-29T14:27:17.999Z</time></trkpt><trkpt lat="42.134212379539825" lon="13.003924202022255"><ele>668.0</ele><time>2026-03-29T14:27:18.999Z</time></trkpt><trkpt lat="42.13432118391363" lon="13.003758884067949"><ele>668.0</ele><time>2026-03-29T14:27:19.999Z</time></trkpt><trkpt lat="42.13442197722548" lon="13.003582095861898"><ele>668.0</ele><time>2026-03-29T14:27:20.998Z</time></trkpt><trkpt lat="42.13452822023569" lon="13.003424363449579"><ele>668.0</ele><time>2026-03-29T14:27:21.998Z</time></trkpt><trkpt lat="42.134653907705484" lon="13.00330002376925"><ele>667.0</ele><time>2026-03-29T14:27:22.998Z</time></trkpt><trkpt lat="42.13475462695907" lon="13.003169279372012"><ele>666.0</ele><time>2026-03-29T14:27:23.998Z</time></trkpt><trkpt lat="42.134847852652115" lon="13.00306900649507"><ele>665.0</ele><time>2026-03-29T14:27:24.998Z</time></trkpt><trkpt lat="42.134916392726524" lon="13.002967242950923"><ele>664.0</ele><time>2026-03-29T14:27:25.998Z</time></trkpt><trkpt lat="42.13496654028949" lon="13.002868163826145"><ele>664.0</ele><time>2026-03-29T14:27:26.998Z</time></trkpt><trkpt lat="42.13502106664486" lon="13.002763415375322"><ele>664.0</ele><time>2026-03-29T14:27:27.998Z</time></trkpt><trkpt lat="42.13507062021778" lon="13.002648270955472"><ele>664.0</ele><time>2026-03-29T14:27:29Z</time></trkpt><trkpt lat="42.13512142293059" lon="13.002508424081006"><ele>664.0</ele><time>2026-03-29T14:27:30Z</time></trkpt><trkpt lat="42.13517244090115" lon="13.002318154449359"><ele>666.25</ele><time>2026-03-29T14:27:31Z</time></trkpt><trkpt lat="42.13522435918469" lon="13.002131713983033"><ele>668.5</ele><time>2026-03-29T14:27:32Z</time></trkpt><trkpt lat="42.1352840619153" lon="13.00194577743704"><ele>670.75</ele><time>2026-03-29T14:27:33Z</time></trkpt><trkpt lat="42.13532693676872" lon="13.001769747787115"><ele>673.0</ele><time>2026-03-29T14:27:34Z</time></trkpt><trkpt lat="42.13535364771701" lon="13.001603854991721"><ele>674.5999999999999</ele><time>2026-03-29T14:27:35Z</time></trkpt><trkpt lat="42.135369630356514" lon="13.001437502627907"><ele>676.1999999999999</ele><time>2026-03-29T14:27:36Z</time></trkpt><trkpt lat="42.13538517866578" lon="13.001289097159557"><ele>677.8</ele><time>2026-03-29T14:27:37Z</time></trkpt><trkpt lat="42.13539586596224" lon="13.001144313232922"><ele>679.4</ele><time>2026-03-29T14:27:38Z</time></trkpt><trkpt lat="42.135389292101785" lon="13.00101068761689"><ele>681.0</ele><time>2026-03-29T14:27:39Z</time></trkpt><trkpt lat="42.135356963401826" lon="13.000871054540584"><ele>682.5999999999999</ele><time>2026-03-29T14:27:40Z</time></trkpt><trkpt lat="42.13532579672867" lon="13.00074045006491"><ele>684.2</ele><time>2026-03-29T14:27:41Z</time></trkpt><trkpt lat="42.135296398155376" lon="13.000619068675148"><ele>685.8</ele><time>2026-03-29T14:27:42Z</time></trkpt><trkpt lat="42.13524776596617" lon="13.000505965158082"><ele>687.4000000000001</ele><time>2026-03-29T14:27:43Z</time></trkpt><trkpt lat="42.1352028195466" lon="13.000389092902017"><ele>689.0</ele><time>2026-03-29T14:27:44Z</time></trkpt><trkpt lat="42.135176199535394" lon="13.000258401081814"><ele>689.0</ele><time>2026-03-29T14:27:45Z</time></trkpt><trkpt lat="42.135140146292066" lon="13.000119789409556"><ele>689.0</ele><time>2026-03-29T14:27:46Z</time></trkpt><trkpt lat="42.135111864814355" lon="12.999966664817071"><ele>689.0</ele><time>2026-03-29T14:27:46.999Z</time></trkpt><trkpt lat="42.135090938612684" lon="12.99978828433069"><ele>689.0</ele><time>2026-03-29T14:27:47.999Z</time></trkpt><trkpt lat="42.13505870144737" lon="12.999595706234228"><ele>689.0</ele><time>2026-03-29T14:27:48.999Z</time></trkpt><trkpt lat="42.13500829217013" lon="12.999461062564828"><ele>689.0</ele><time>2026-03-29T14:27:49.999Z</time></trkpt><trkpt lat="42.134987263379706" lon="12.999349551067938"><ele>689.0</ele><time>2026-03-29T14:27:50.999Z</time></trkpt><trkpt lat="42.13494685495237" lon="12.999247216666282"><ele>689.0</ele><time>2026-03-29T14:27:51.999Z</time></trkpt><trkpt lat="42.134913151286" lon="12.999152568599575"><ele>689.0</ele><time>2026-03-29T14:27:52.999Z</time></trkpt><trkpt lat="42.13491749719714" lon="12.999035360101438"><ele>689.0</ele><time>2026-03-29T14:27:53.999Z</time></trkpt><trkpt lat="42.1349402310166" lon="12.998942895201386"><ele>691.5</ele><time>2026-03-29T14:27:54.999Z</time></trkpt><trkpt lat="42.13497685538915" lon="12.998867503418966"><ele>694.0</ele><time>2026-03-29T14:27:55.999Z</time></trkpt><trkpt lat="42.134959698616115" lon="12.998740437125317"><ele>696.5</ele><time>2026-03-29T14:27:57.999Z</time></trkpt><trkpt lat="42.134841752928025" lon="12.998817592781796"><ele>699.0</ele><time>2026-03-29T14:28:01.999Z</time></trkpt><trkpt lat="42.13481887922739" lon="12.998909989703368"><ele>701.5</ele><time>2026-03-29T14:28:02.999Z</time></trkpt><trkpt lat="42.13474335389883" lon="12.998945541733393"><ele>704.0</ele><time>2026-03-29T14:28:05.999Z</time></trkpt><trkpt lat="42.134579283168" lon="12.998925152253044"><ele>708.8000000000001</ele><time>2026-03-29T14:28:07.999Z</time></trkpt><trkpt lat="42.1345674932751" lon="12.998801229292"><ele>713.6</ele><time>2026-03-29T14:28:09.999Z</time></trkpt><trkpt lat="42.1346485133363" lon="12.998680454634135"><ele>718.4</ele><time>2026-03-29T14:28:11.999Z</time></trkpt><trkpt lat="42.13473596156594" lon="12.998598529162816"><ele>723.2</ele><time>2026-03-29T14:28:12.999Z</time></trkpt><trkpt lat="42.13478327327982" lon="12.99849484821553"><ele>728.0</ele><time>2026-03-29T14:28:13.999Z</time></trkpt><trkpt lat="42.13484985724664" lon="12.998368427682202"><ele>729.0</ele><time>2026-03-29T14:28:14.999Z</time></trkpt><trkpt lat="42.13493330366806" lon="12.998266914157238"><ele>730.0</ele><time>2026-03-29T14:28:15.999Z</time></trkpt><trkpt lat="42.135049407459846" lon="12.998158281832197"><ele>731.0</ele><time>2026-03-29T14:28:16.999Z</time></trkpt><trkpt lat="42.1351814718937" lon="12.998053505598156"><ele>732.0</ele><time>2026-03-29T14:28:17.999Z</time></trkpt><trkpt lat="42.135319436012125" lon="12.997945861215248"><ele>732.0</ele><time>2026-03-29T14:28:18.999Z</time></trkpt><trkpt lat="42.13547663707137" lon="12.997851145892502"><ele>732.0</ele><time>2026-03-29T14:28:19.999Z</time></trkpt><trkpt lat="42.135605398022456" lon="12.997761629774805"><ele>732.0</ele><time>2026-03-29T14:28:20.999Z</time></trkpt><trkpt lat="42.13569624873117" lon="12.99769195536549"><ele>732.0</ele><time>2026-03-29T14:28:21.999Z</time></trkpt><trkpt lat="42.13580148794942" lon="12.997609202805819"><ele>734.0</ele><time>2026-03-29T14:28:22.999Z</time></trkpt><trkpt lat="42.13588999441103" lon="12.997527444509334"><ele>736.0</ele><time>2026-03-29T14:28:23.999Z</time></trkpt><trkpt lat="42.135960151978914" lon="12.99743802726286"><ele>738.0</ele><time>2026-03-29T14:28:24.999Z</time></trkpt><trkpt lat="42.136030889975615" lon="12.99733551395756"><ele>740.0</ele><time>2026-03-29T14:28:25.999Z</time></trkpt><trkpt lat="42.136062861019596" lon="12.997188709363542"><ele>742.0</ele><time>2026-03-29T14:28:26.999Z</time></trkpt><trkpt lat="42.13611092863734" lon="12.997062479788514"><ele>742.0</ele><time>2026-03-29T14:28:27.999Z</time></trkpt><trkpt lat="42.13616673738922" lon="12.99690860408276"><ele>742.0</ele><time>2026-03-29T14:28:28.999Z</time></trkpt><trkpt lat="42.136251168979804" lon="12.99675790771554"><ele>742.0</ele><time>2026-03-29T14:28:29.999Z</time></trkpt><trkpt lat="42.136334382937164" lon="12.996627189444359"><ele>742.0</ele><time>2026-03-29T14:28:30.999Z</time></trkpt><trkpt lat="42.13640802442673" lon="12.996518950255838"><ele>740.25</ele><time>2026-03-29T14:28:31.999Z</time></trkpt><trkpt lat="42.136491790096464" lon="12.99643014640286"><ele>738.5</ele><time>2026-03-29T14:28:32.999Z</time></trkpt><trkpt lat="42.13660054513449" lon="12.996341622851899"><ele>736.75</ele><time>2026-03-29T14:28:33.999Z</time></trkpt><trkpt lat="42.136726013693625" lon="12.996260845984686"><ele>735.0</ele><time>2026-03-29T14:28:34.999Z</time></trkpt><trkpt lat="42.136816091063125" lon="12.996178374371613"><ele>735.0</ele><time>2026-03-29T14:28:35.999Z</time></trkpt><trkpt lat="42.136907655348196" lon="12.996094589830278"><ele>735.0</ele><time>2026-03-29T14:28:36.999Z</time></trkpt><trkpt lat="42.13698914084843" lon="12.996000540971123"><ele>735.0</ele><time>2026-03-29T14:28:37.999Z</time></trkpt><trkpt lat="42.13707813862488" lon="12.995914572850857"><ele>735.0</ele><time>2026-03-29T14:28:38.999Z</time></trkpt><trkpt lat="42.13713924286633" lon="12.995831481245888"><ele>735.0</ele><time>2026-03-29T14:28:39.999Z</time></trkpt><trkpt lat="42.13718174636559" lon="12.995743899734517"><ele>743.0</ele><time>2026-03-29T14:28:40.999Z</time></trkpt><trkpt lat="42.13720363612467" lon="12.995636320094267"><ele>751.0</ele><time>2026-03-29T14:28:41.999Z</time></trkpt><trkpt lat="42.13722235392864" lon="12.995505622116594"><ele>759.0</ele><time>2026-03-29T14:28:42.999Z</time></trkpt><trkpt lat="42.13724863123626" lon="12.995355623640634"><ele>767.0</ele><time>2026-03-29T14:28:43.999Z</time></trkpt><trkpt lat="42.1372913365522" lon="12.995229438724284"><ele>775.0</ele><time>2026-03-29T14:28:44.999Z</time></trkpt><trkpt lat="42.13735910465076" lon="12.99517421139583"><ele>773.1666666666666</ele><time>2026-03-29T14:28:45.999Z</time></trkpt><trkpt lat="42.13745606109229" lon="12.99514766339791"><ele>771.3333333333333</ele><time>2026-03-29T14:28:46.999Z</time></trkpt><trkpt lat="42.137527710509616" lon="12.995118876876695"><ele>769.5</ele><time>2026-03-29T14:28:47.999Z</time></trkpt><trkpt lat="42.13760430630157" lon="12.995052036374165"><ele>767.6666666666666</ele><time>2026-03-29T14:28:48.999Z</time></trkpt><trkpt lat="42.137617488191154" lon="12.994950244937058"><ele>765.8333333333333</ele><time>2026-03-29T14:28:49.999Z</time></trkpt><trkpt lat="42.13760313606508" lon="12.99486301009545"><ele>764.0</ele><time>2026-03-29T14:28:50.999Z</time></trkpt><trkpt lat="42.13757670004642" lon="12.994758370675894"><ele>764.0</ele><time>2026-03-29T14:28:52.999Z</time></trkpt><trkpt lat="42.13753766849455" lon="12.99465008844598"><ele>764.0</ele><time>2026-03-29T14:28:57.999Z</time></trkpt><trkpt lat="42.13753461426947" lon="12.994524289065765"><ele>764.0</ele><time>2026-03-29T14:28:59.999Z</time></trkpt><trkpt lat="42.13757378816629" lon="12.994387677094158"><ele>764.0</ele><time>2026-03-29T14:29:01.999Z</time></trkpt><trkpt lat="42.13765635705081" lon="12.994281813301702"><ele>764.0</ele><time>2026-03-29T14:29:03.999Z</time></trkpt><trkpt lat="42.13774324405923" lon="12.99419953316962"><ele>767.4000000000001</ele><time>2026-03-29T14:29:04.999Z</time></trkpt><trkpt lat="42.13782408576624" lon="12.994101323794219"><ele>770.8</ele><time>2026-03-29T14:29:05.999Z</time></trkpt><trkpt lat="42.137870795302206" lon="12.993967692724055"><ele>774.2</ele><time>2026-03-29T14:29:06.999Z</time></trkpt><trkpt lat="42.13794053751609" lon="12.993878439063565"><ele>777.5999999999999</ele><time>2026-03-29T14:29:07.999Z</time></trkpt><trkpt lat="42.13799807272787" lon="12.993799443656808"><ele>781.0</ele><time>2026-03-29T14:29:08.999Z</time></trkpt><trkpt lat="42.13806561478387" lon="12.993730621410943"><ele>781.0</ele><time>2026-03-29T14:29:09.999Z</time></trkpt><trkpt lat="42.138129045059856" lon="12.993694999732979"><ele>781.0</ele><time>2026-03-29T14:29:10.999Z</time></trkpt><trkpt lat="42.138228800863914" lon="12.993675561058668"><ele>781.0</ele><time>2026-03-29T14:29:11.999Z</time></trkpt><trkpt lat="42.13831643125751" lon="12.993642570530769"><ele>781.0</ele><time>2026-03-29T14:29:12.999Z</time></trkpt><trkpt lat="42.13839160749228" lon="12.993562077330688"><ele>781.0</ele><time>2026-03-29T14:29:13.999Z</time></trkpt><trkpt lat="42.13843434754854" lon="12.993450020995581"><ele>780.0</ele><time>2026-03-29T14:29:14.999Z</time></trkpt><trkpt lat="42.13848722199491" lon="12.993319465242468"><ele>779.0</ele><time>2026-03-29T14:29:15.999Z</time></trkpt><trkpt lat="42.13855241076963" lon="12.993190204912693"><ele>778.0</ele><time>2026-03-29T14:29:16.999Z</time></trkpt><trkpt lat="42.138607590813294" lon="12.993050315294171"><ele>777.0</ele><time>2026-03-29T14:29:17.999Z</time></trkpt><trkpt lat="42.13865041902695" lon="12.992898169698208"><ele>777.0</ele><time>2026-03-29T14:29:18.999Z</time></trkpt><trkpt lat="42.138696546248" lon="12.992749419333698"><ele>777.0</ele><time>2026-03-29T14:29:19.999Z</time></trkpt><trkpt lat="42.13873890388457" lon="12.992618330234425"><ele>777.0</ele><time>2026-03-29T14:29:20.999Z</time></trkpt><trkpt lat="42.13874201295021" lon="12.992516357995369"><ele>777.0</ele><time>2026-03-29T14:29:21.999Z</time></trkpt><trkpt lat="42.13870083315994" lon="12.99241297049062"><ele>777.0</ele><time>2026-03-29T14:29:22.999Z</time></trkpt><trkpt lat="42.138650966518206" lon="12.992324765640497"><ele>778.2</ele><time>2026-03-29T14:29:23.999Z</time></trkpt><trkpt lat="42.1385748153459" lon="12.992244747426554"><ele>779.4000000000001</ele><time>2026-03-29T14:29:24.999Z</time></trkpt><trkpt lat="42.13849465166638" lon="12.992220061524407"><ele>780.5999999999999</ele><time>2026-03-29T14:29:25.998Z</time></trkpt><trkpt lat="42.138411855640044" lon="12.992236626102448"><ele>781.8</ele><time>2026-03-29T14:29:26.998Z</time></trkpt><trkpt lat="42.13831572043914" lon="12.992293141425568"><ele>783.0</ele><time>2026-03-29T14:29:27.998Z</time></trkpt><trkpt lat="42.138205349882" lon="12.992348277547679"><ele>785.25</ele><time>2026-03-29T14:29:28.998Z</time></trkpt><trkpt lat="42.13810578218627" lon="12.99240930835428"><ele>787.5</ele><time>2026-03-29T14:29:29.998Z</time></trkpt><trkpt lat="42.13797952757167" lon="12.992466088910495"><ele>789.75</ele><time>2026-03-29T14:29:30.998Z</time></trkpt><trkpt lat="42.13785753983738" lon="12.992491215489181"><ele>792.0</ele><time>2026-03-29T14:29:31.998Z</time></trkpt><trkpt lat="42.137759193221804" lon="12.992495765712526"><ele>792.0</ele><time>2026-03-29T14:29:32.998Z</time></trkpt><trkpt lat="42.13765812102813" lon="12.992489679687667"><ele>792.0</ele><time>2026-03-29T14:29:33.998Z</time></trkpt><trkpt lat="42.137544758150725" lon="12.99246079219884"><ele>792.0</ele><time>2026-03-29T14:29:34.999Z</time></trkpt><trkpt lat="42.137478364834664" lon="12.992400400359129"><ele>792.0</ele><time>2026-03-29T14:29:35.999Z</time></trkpt><trkpt lat="42.13740953062576" lon="12.992397988938325"><ele>792.0</ele><time>2026-03-29T14:29:36.999Z</time></trkpt><trkpt lat="42.13733418971276" lon="12.992422259739"><ele>792.0</ele><time>2026-03-29T14:29:37.999Z</time></trkpt><trkpt lat="42.13725065054871" lon="12.992446065018104"><ele>793.8</ele><time>2026-03-29T14:29:38.999Z</time></trkpt><trkpt lat="42.13716191676854" lon="12.99247983351269"><ele>795.6</ele><time>2026-03-29T14:29:39.999Z</time></trkpt><trkpt lat="42.137071335185425" lon="12.992496161779476"><ele>797.4</ele><time>2026-03-29T14:29:40.999Z</time></trkpt><trkpt lat="42.136982646028656" lon="12.992509052604223"><ele>799.1999999999999</ele><time>2026-03-29T14:29:41.999Z</time></trkpt><trkpt lat="42.136891985042105" lon="12.992496086288233"><ele>801.0</ele><time>2026-03-29T14:29:42.999Z</time></trkpt><trkpt lat="42.13680385834028" lon="12.992448551533215"><ele>801.0</ele><time>2026-03-29T14:29:43.999Z</time></trkpt><trkpt lat="42.136721712371546" lon="12.992414140971771"><ele>801.0</ele><time>2026-03-29T14:29:44.999Z</time></trkpt><trkpt lat="42.1366344575824" lon="12.992407407286821"><ele>801.0</ele><time>2026-03-29T14:29:45.999Z</time></trkpt><trkpt lat="42.13654155964059" lon="12.9924238236535"><ele>801.0</ele><time>2026-03-29T14:29:46.999Z</time></trkpt><trkpt lat="42.13645465658125" lon="12.992473231663048"><ele>801.0</ele><time>2026-03-29T14:29:47.999Z</time></trkpt><trkpt lat="42.13635147292826" lon="12.992556890338074"><ele>804.1666666666666</ele><time>2026-03-29T14:29:48.999Z</time></trkpt><trkpt lat="42.13624006525653" lon="12.992642011107176"><ele>807.3333333333333</ele><time>2026-03-29T14:29:49.999Z</time></trkpt><trkpt lat="42.13615165754718" lon="12.99268436695827"><ele>810.5</ele><time>2026-03-29T14:29:50.999Z</time></trkpt><trkpt lat="42.136083009421604" lon="12.992679730226275"><ele>813.6666666666666</ele><time>2026-03-29T14:29:51.999Z</time></trkpt><trkpt lat="42.13600993818327" lon="12.992648591942684"><ele>816.8333333333333</ele><time>2026-03-29T14:29:52.999Z</time></trkpt><trkpt lat="42.13595288365963" lon="12.992579617768307"><ele>820.0</ele><time>2026-03-29T14:29:53.999Z</time></trkpt><trkpt lat="42.13589236899431" lon="12.992501390920472"><ele>820.0</ele><time>2026-03-29T14:29:54.999Z</time></trkpt><trkpt lat="42.13582517354583" lon="12.992425782324851"><ele>820.0</ele><time>2026-03-29T14:29:55.999Z</time></trkpt><trkpt lat="42.1357823945196" lon="12.992267468172367"><ele>820.0</ele><time>2026-03-29T14:29:56.999Z</time></trkpt><trkpt lat="42.13572879941228" lon="12.992061969804551"><ele>820.0</ele><time>2026-03-29T14:29:57.999Z</time></trkpt><trkpt lat="42.13569567503877" lon="12.991876912392769"><ele>823.5</ele><time>2026-03-29T14:29:58.999Z</time></trkpt><trkpt lat="42.1356660148994" lon="12.99170169026866"><ele>827.0</ele><time>2026-03-29T14:29:59.999Z</time></trkpt><trkpt lat="42.1356419124841" lon="12.991538148354309"><ele>830.5</ele><time>2026-03-29T14:30:00.999Z</time></trkpt><trkpt lat="42.13559941244409" lon="12.991386295075738"><ele>834.0</ele><time>2026-03-29T14:30:01.999Z</time></trkpt><trkpt lat="42.135580161565116" lon="12.99123117267874"><ele>834.0</ele><time>2026-03-29T14:30:02.999Z</time></trkpt><trkpt lat="42.13553674182435" lon="12.991105779469626"><ele>834.0</ele><time>2026-03-29T14:30:03.999Z</time></trkpt><trkpt lat="42.13546883239579" lon="12.990984201748617"><ele>834.0</ele><time>2026-03-29T14:30:04.999Z</time></trkpt><trkpt lat="42.13541445425783" lon="12.990867411636888"><ele>834.0</ele><time>2026-03-29T14:30:05.999Z</time></trkpt><trkpt lat="42.13537626596539" lon="12.990751106685039"><ele>834.0</ele><time>2026-03-29T14:30:06.999Z</time></trkpt><trkpt lat="42.13538808920326" lon="12.990648624165154"><ele>829.4000000000001</ele><time>2026-03-29T14:30:07.999Z</time></trkpt><trkpt lat="42.1353545646647" lon="12.990533830293272"><ele>824.8</ele><time>2026-03-29T14:30:09.999Z</time></trkpt><trkpt lat="42.13528473190821" lon="12.9905036397864"><ele>820.2</ele><time>2026-03-29T14:30:10.999Z</time></trkpt><trkpt lat="42.135182170869285" lon="12.990495387107028"><ele>815.5999999999999</ele><time>2026-03-29T14:30:11.999Z</time></trkpt><trkpt lat="42.13508545606081" lon="12.990513484383"><ele>811.0</ele><time>2026-03-29T14:30:12.999Z</time></trkpt><trkpt lat="42.13498844522895" lon="12.99056201477864"><ele>808.1999999999999</ele><time>2026-03-29T14:30:13.999Z</time></trkpt><trkpt lat="42.13488435296764" lon="12.990626269643503"><ele>805.4</ele><time>2026-03-29T14:30:14.999Z</time></trkpt><trkpt lat="42.13478889440792" lon="12.990671856737682"><ele>802.6</ele><time>2026-03-29T14:30:15.999Z</time></trkpt><trkpt lat="42.13469110177997" lon="12.990706118588353"><ele>799.8</ele><time>2026-03-29T14:30:16.999Z</time></trkpt><trkpt lat="42.13458190635496" lon="12.99074181723532"><ele>797.0</ele><time>2026-03-29T14:30:17.999Z</time></trkpt><trkpt lat="42.134457392888386" lon="12.990768275098674"><ele>797.0</ele><time>2026-03-29T14:30:18.999Z</time></trkpt><trkpt lat="42.134330193308294" lon="12.99078879291449"><ele>797.0</ele><time>2026-03-29T14:30:19.999Z</time></trkpt><trkpt lat="42.134181387667326" lon="12.990802141129027"><ele>797.0</ele><time>2026-03-29T14:30:20.999Z</time></trkpt><trkpt lat="42.13405661046076" lon="12.99080127353579"><ele>797.0</ele><time>2026-03-29T14:30:21.999Z</time></trkpt><trkpt lat="42.13393343026649" lon="12.990796422625662"><ele>800.0</ele><time>2026-03-29T14:30:22.999Z</time></trkpt><trkpt lat="42.133824550314806" lon="12.99078075139237"><ele>803.0</ele><time>2026-03-29T14:30:23.999Z</time></trkpt><trkpt lat="42.133741885190545" lon="12.990783215384516"><ele>806.0</ele><time>2026-03-29T14:30:24.999Z</time></trkpt><trkpt lat="42.13366542514476" lon="12.990806313423693"><ele>809.0</ele><time>2026-03-29T14:30:25.999Z</time></trkpt><trkpt lat="42.13358820866435" lon="12.990878177290195"><ele>812.0</ele><time>2026-03-29T14:30:26.999Z</time></trkpt><trkpt lat="42.13349120891975" lon="12.990985057910283"><ele>812.0</ele><time>2026-03-29T14:30:27.999Z</time></trkpt><trkpt lat="42.13340009123418" lon="12.991089550050503"><ele>812.0</ele><time>2026-03-29T14:30:28.999Z</time></trkpt><trkpt lat="42.1333353017475" lon="12.991157682256153"><ele>812.0</ele><time>2026-03-29T14:30:29.999Z</time></trkpt><trkpt lat="42.13326645638968" lon="12.991188662513379"><ele>812.0</ele><time>2026-03-29T14:30:30.999Z</time></trkpt><trkpt lat="42.13313732872416" lon="12.991173851984126"><ele>812.0</ele><time>2026-03-29T14:30:31.999Z</time></trkpt><trkpt lat="42.133030575044145" lon="12.991190298376912"><ele>807.4000000000001</ele><time>2026-03-29T14:30:32.999Z</time></trkpt><trkpt lat="42.13296810260959" lon="12.991204063456994"><ele>802.8000000000001</ele><time>2026-03-29T14:30:33.999Z</time></trkpt><trkpt lat="42.13289252362948" lon="12.991181533330204"><ele>798.2</ele><time>2026-03-29T14:30:34.999Z</time></trkpt><trkpt lat="42.13278978615614" lon="12.991301093382843"><ele>793.6</ele><time>2026-03-29T14:30:36.999Z</time></trkpt><trkpt lat="42.13271012309144" lon="12.99140661477912"><ele>789.0</ele><time>2026-03-29T14:30:37.999Z</time></trkpt><trkpt lat="42.13261300123569" lon="12.991513862651814"><ele>789.0</ele><time>2026-03-29T14:30:38.999Z</time></trkpt><trkpt lat="42.13251118457041" lon="12.991597212663882"><ele>789.0</ele><time>2026-03-29T14:30:39.999Z</time></trkpt><trkpt lat="42.13241471602859" lon="12.991649732058633"><ele>789.0</ele><time>2026-03-29T14:30:40.999Z</time></trkpt><trkpt lat="42.13232492614891" lon="12.991692075787107"><ele>789.0</ele><time>2026-03-29T14:30:41.999Z</time></trkpt><trkpt lat="42.13222198984827" lon="12.991775600530865"><ele>789.0</ele><time>2026-03-29T14:30:42.999Z</time></trkpt><trkpt lat="42.13216235404409" lon="12.991835850982566"><ele>789.8333333333334</ele><time>2026-03-29T14:30:43.999Z</time></trkpt><trkpt lat="42.132097929566484" lon="12.991859603413216"><ele>790.6666666666667</ele><time>2026-03-29T14:30:44.999Z</time></trkpt><trkpt lat="42.13202809828259" lon="12.991865493979335"><ele>791.5</ele><time>2026-03-29T14:30:45.999Z</time></trkpt><trkpt lat="42.13196184007996" lon="12.991881707313397"><ele>792.3333333333334</ele><time>2026-03-29T14:30:46.999Z</time></trkpt><trkpt lat="42.13185754188671" lon="12.991938765388648"><ele>793.1666666666667</ele><time>2026-03-29T14:30:48.999Z</time></trkpt><trkpt lat="42.1318073102887" lon="12.992015255731857"><ele>794.0</ele><time>2026-03-29T14:30:49.999Z</time></trkpt><trkpt lat="42.13176239791253" lon="12.992112566774766"><ele>794.0000000000001</ele><time>2026-03-29T14:30:50.999Z</time></trkpt><trkpt lat="42.131718035662054" lon="12.99218793962397"><ele>794.0</ele><time>2026-03-29T14:30:51.999Z</time></trkpt><trkpt lat="42.13162333456952" lon="12.992239658980388"><ele>794.0</ele><time>2026-03-29T14:30:53.999Z</time></trkpt><trkpt lat="42.13159795188423" lon="12.992157350267291"><ele>794.0</ele><time>2026-03-29T14:30:55.999Z</time></trkpt><trkpt lat="42.1316561516562" lon="12.992038306153676"><ele>794.0000000000001</ele><time>2026-03-29T14:30:57.999Z</time></trkpt><trkpt lat="42.13171045172809" lon="12.991919646774265"><ele>794.0</ele><time>2026-03-29T14:30:59.999Z</time></trkpt><trkpt lat="42.131740010998726" lon="12.991805337100994"><ele>794.0000000000001</ele><time>2026-03-29T14:31:01.999Z</time></trkpt><trkpt lat="42.1317834277552" lon="12.991689858534436"><ele>794.0</ele><time>2026-03-29T14:31:03.999Z</time></trkpt><trkpt lat="42.131840341140816" lon="12.991621098859689"><ele>794.0</ele><time>2026-03-29T14:31:04.999Z</time></trkpt><trkpt lat="42.13191554838319" lon="12.991512176236801"><ele>794.0</ele><time>2026-03-29T14:31:06.999Z</time></trkpt><trkpt lat="42.131948450959136" lon="12.991435795934326"><ele>794.0000000000001</ele><time>2026-03-29T14:31:07.999Z</time></trkpt><trkpt lat="42.13198624708696" lon="12.991358966606628"><ele>794.0</ele><time>2026-03-29T14:31:08.999Z</time></trkpt><trkpt lat="42.13202495370474" lon="12.991287346825091"><ele>790.5000000000001</ele><time>2026-03-29T14:31:09.999Z</time></trkpt><trkpt lat="42.1320996276908" lon="12.991187073666904"><ele>787.0</ele><time>2026-03-29T14:31:11.999Z</time></trkpt><trkpt lat="42.13214466381368" lon="12.991107546773392"><ele>783.5</ele><time>2026-03-29T14:31:12.999Z</time></trkpt><trkpt lat="42.13222160817118" lon="12.991023583057775"><ele>780.0</ele><time>2026-03-29T14:31:14.999Z</time></trkpt><trkpt lat="42.13225660411695" lon="12.990926961289667"><ele>776.5000000000001</ele><time>2026-03-29T14:31:16.999Z</time></trkpt><trkpt lat="42.132289629925076" lon="12.990829381159083"><ele>773.0</ele><time>2026-03-29T14:31:19.999Z</time></trkpt><trkpt lat="42.132247180448964" lon="12.990721579130144"><ele>772.6666666666667</ele><time>2026-03-29T14:32:04Z</time></trkpt><trkpt lat="42.13223151998061" lon="12.990627365267786"><ele>772.3333333333334</ele><time>2026-03-29T14:32:07Z</time></trkpt><trkpt lat="42.13226476299353" lon="12.990538143609077"><ele>772.0</ele><time>2026-03-29T14:32:08Z</time></trkpt><trkpt lat="42.132319268968374" lon="12.990455800031947"><ele>771.6666666666667</ele><time>2026-03-29T14:32:09Z</time></trkpt><trkpt lat="42.13236684367671" lon="12.99036918641992"><ele>771.3333333333334</ele><time>2026-03-29T14:32:10Z</time></trkpt><trkpt lat="42.1324142463834" lon="12.990240311695587"><ele>771.0</ele><time>2026-03-29T14:32:11Z</time></trkpt><trkpt lat="42.13243859969807" lon="12.990109758501793"><ele>765.5</ele><time>2026-03-29T14:32:12Z</time></trkpt><trkpt lat="42.132444394262365" lon="12.990000418739701"><ele>760.0</ele><time>2026-03-29T14:32:13Z</time></trkpt><trkpt lat="42.13245882875673" lon="12.989897341694189"><ele>754.5</ele><time>2026-03-29T14:32:14Z</time></trkpt><trkpt lat="42.13250013600183" lon="12.989788000086016"><ele>749.0</ele><time>2026-03-29T14:32:15Z</time></trkpt><trkpt lat="42.132538641839666" lon="12.989705638578046"><ele>743.5</ele><time>2026-03-29T14:32:16Z</time></trkpt><trkpt lat="42.13261947160163" lon="12.989626650859877"><ele>738.0</ele><time>2026-03-29T14:32:18Z</time></trkpt><trkpt lat="42.132705708708706" lon="12.989601585045541"><ele>738.0</ele><time>2026-03-29T14:32:20Z</time></trkpt><trkpt lat="42.13280321489607" lon="12.989496991848876"><ele>738.0</ele><time>2026-03-29T14:32:22Z</time></trkpt><trkpt lat="42.132889671126556" lon="12.989443504077315"><ele>738.0</ele><time>2026-03-29T14:32:23Z</time></trkpt><trkpt lat="42.13296557507299" lon="12.989406592151193"><ele>738.0</ele><time>2026-03-29T14:32:24Z</time></trkpt><trkpt lat="42.13305122952736" lon="12.989352046138155"><ele>738.0</ele><time>2026-03-29T14:32:25Z</time></trkpt><trkpt lat="42.13313774214555" lon="12.989280838254501"><ele>736.0</ele><time>2026-03-29T14:32:26Z</time></trkpt><trkpt lat="42.13323571913393" lon="12.989093437623975"><ele>734.0</ele><time>2026-03-29T14:32:28Z</time></trkpt><trkpt lat="42.13326971897714" lon="12.989021125834194"><ele>732.0</ele><time>2026-03-29T14:32:29Z</time></trkpt><trkpt lat="42.133310607384075" lon="12.988940479215033"><ele>730.0</ele><time>2026-03-29T14:32:31Z</time></trkpt><trkpt lat="42.13328761158064" lon="12.988851940071228"><ele>728.0</ele><time>2026-03-29T14:32:46Z</time></trkpt><trkpt lat="42.13324183774877" lon="12.988785067518858"><ele>726.0</ele><time>2026-03-29T14:33:03Z</time></trkpt><trkpt lat="42.13322444202708" lon="12.988695533978596"><ele>723.5999999999999</ele><time>2026-03-29T14:33:18Z</time></trkpt><trkpt lat="42.13318563323556" lon="12.988551475073713"><ele>721.2</ele><time>2026-03-29T14:33:20Z</time></trkpt><trkpt lat="42.13316101015482" lon="12.98844469863785"><ele>718.8</ele><time>2026-03-29T14:33:22Z</time></trkpt><trkpt lat="42.133209104413865" lon="12.988375801566322"><ele>716.4000000000001</ele><time>2026-03-29T14:33:23Z</time></trkpt><trkpt lat="42.13325258990424" lon="12.988229174875576"><ele>714.0</ele><time>2026-03-29T14:33:25Z</time></trkpt><trkpt lat="42.13329521061123" lon="12.9881172186686"><ele>714.0</ele><time>2026-03-29T14:33:26Z</time></trkpt><trkpt lat="42.13337027557065" lon="12.988011493232309"><ele>714.0</ele><time>2026-03-29T14:33:27Z</time></trkpt><trkpt lat="42.13341015457841" lon="12.987935680033116"><ele>714.0</ele><time>2026-03-29T14:33:28Z</time></trkpt><trkpt lat="42.13343297921949" lon="12.987791490754969"><ele>714.0</ele><time>2026-03-29T14:33:29.999Z</time></trkpt><trkpt lat="42.1334125807131" lon="12.987652036075911"><ele>714.0</ele><time>2026-03-29T14:33:31.999Z</time></trkpt><trkpt lat="42.13338481802767" lon="12.987499374133668"><ele>713.6666666666666</ele><time>2026-03-29T14:33:33.999Z</time></trkpt><trkpt lat="42.133354963137705" lon="12.987401807807315"><ele>713.3333333333334</ele><time>2026-03-29T14:33:34.999Z</time></trkpt><trkpt lat="42.13331102133197" lon="12.987314731104911"><ele>713.0</ele><time>2026-03-29T14:33:35.999Z</time></trkpt><trkpt lat="42.133234343057005" lon="12.987226516798993"><ele>712.6666666666667</ele><time>2026-03-29T14:33:37.999Z</time></trkpt><trkpt lat="42.13314864336236" lon="12.987228235445258"><ele>712.3333333333334</ele><time>2026-03-29T14:33:39.999Z</time></trkpt><trkpt lat="42.133060299062166" lon="12.98721883841925"><ele>712.0</ele><time>2026-03-29T14:33:42.999Z</time></trkpt><trkpt lat="42.132983284205984" lon="12.987176704171018"><ele>716.0</ele><time>2026-03-29T14:33:45.999Z</time></trkpt><trkpt lat="42.132927957621554" lon="12.987135513875005"><ele>720.0</ele><time>2026-03-29T14:33:48Z</time></trkpt><trkpt lat="42.13286771873503" lon="12.98707164084722"><ele>724.0</ele><time>2026-03-29T14:33:51Z</time></trkpt><trkpt lat="42.13279575953925" lon="12.986998692200933"><ele>728.0</ele><time>2026-03-29T14:33:54Z</time></trkpt><trkpt lat="42.13270462675796" lon="12.986965515707244"><ele>732.0</ele><time>2026-03-29T14:33:56Z</time></trkpt><trkpt lat="42.132651254106506" lon="12.986915925961856"><ele>736.0</ele><time>2026-03-29T14:33:58Z</time></trkpt><trkpt lat="42.13257370513625" lon="12.986849697443391"><ele>736.0</ele><time>2026-03-29T14:34:01Z</time></trkpt><trkpt lat="42.13249550433691" lon="12.986798289474478"><ele>736.0</ele><time>2026-03-29T14:34:04Z</time></trkpt><trkpt lat="42.13242028517325" lon="12.986743031342495"><ele>736.0</ele><time>2026-03-29T14:34:07Z</time></trkpt><trkpt lat="42.132341246459696" lon="12.986721876009037"><ele>736.0</ele><time>2026-03-29T14:34:09Z</time></trkpt><trkpt lat="42.13223016388415" lon="12.986694165438319"><ele>736.0</ele><time>2026-03-29T14:34:11Z</time></trkpt><trkpt lat="42.13215614641385" lon="12.98667592783014"><ele>736.0</ele><time>2026-03-29T14:34:13Z</time></trkpt><trkpt lat="42.13207755484535" lon="12.986662452405932"><ele>734.4</ele><time>2026-03-29T14:34:21Z</time></trkpt><trkpt lat="42.13201106604917" lon="12.986668571867716"><ele>732.8</ele><time>2026-03-29T14:34:26Z</time></trkpt><trkpt lat="42.131910842937316" lon="12.986650808689397"><ele>731.1999999999999</ele><time>2026-03-29T14:34:28Z</time></trkpt><trkpt lat="42.13181783850408" lon="12.986565547151477"><ele>729.5999999999999</ele><time>2026-03-29T14:34:30Z</time></trkpt><trkpt lat="42.13174087353617" lon="12.986520831123173"><ele>728.0</ele><time>2026-03-29T14:34:32Z</time></trkpt><trkpt lat="42.13165549749525" lon="12.986464446061824"><ele>728.0</ele><time>2026-03-29T14:34:34Z</time></trkpt><trkpt lat="42.131602104892984" lon="12.986408784042396"><ele>728.0</ele><time>2026-03-29T14:34:35Z</time></trkpt><trkpt lat="42.131558348445765" lon="12.986284777359645"><ele>728.0</ele><time>2026-03-29T14:34:38Z</time></trkpt><trkpt lat="42.13153663770194" lon="12.986198250446503"><ele>728.0</ele><time>2026-03-29T14:34:40Z</time></trkpt><trkpt lat="42.13149016323513" lon="12.986140978055266"><ele>728.0</ele><time>2026-03-29T14:34:42Z</time></trkpt><trkpt lat="42.13142718966663" lon="12.98611808019811"><ele>728.0</ele><time>2026-03-29T14:34:44Z</time></trkpt><trkpt lat="42.13137396040483" lon="12.986018443582239"><ele>729.5</ele><time>2026-03-29T14:34:46Z</time></trkpt><trkpt lat="42.13133321248587" lon="12.985951988447573"><ele>731.0</ele><time>2026-03-29T14:34:47Z</time></trkpt><trkpt lat="42.13127730105932" lon="12.985866242784901"><ele>732.5</ele><time>2026-03-29T14:34:49Z</time></trkpt><trkpt lat="42.1312377179307" lon="12.985784808851728"><ele>734.0</ele><time>2026-03-29T14:34:51Z</time></trkpt><trkpt lat="42.13127150637279" lon="12.98567528397306"><ele>735.5</ele><time>2026-03-29T14:34:55Z</time></trkpt><trkpt lat="42.13128473443502" lon="12.98557570456442"><ele>737.0</ele><time>2026-03-29T14:34:57Z</time></trkpt><trkpt lat="42.13123940238605" lon="12.985420579660955"><ele>737.0</ele><time>2026-03-29T14:34:59Z</time></trkpt><trkpt lat="42.13128547418523" lon="12.985337986926533"><ele>737.0</ele><time>2026-03-29T14:35:02Z</time></trkpt><trkpt lat="42.13136501625674" lon="12.985230668577469"><ele>737.0</ele><time>2026-03-29T14:35:04Z</time></trkpt><trkpt lat="42.13141491543813" lon="12.985174635829834"><ele>737.0</ele><time>2026-03-29T14:35:05Z</time></trkpt><trkpt lat="42.13145999342387" lon="12.98503852307638"><ele>737.0</ele><time>2026-03-29T14:35:07Z</time></trkpt><trkpt lat="42.13149307522264" lon="12.98490593634599"><ele>736.4000000000001</ele><time>2026-03-29T14:35:09Z</time></trkpt><trkpt lat="42.13155219982098" lon="12.984835558941066"><ele>735.8000000000001</ele><time>2026-03-29T14:35:11Z</time></trkpt><trkpt lat="42.13164357090999" lon="12.98476564475263"><ele>735.2</ele><time>2026-03-29T14:35:13Z</time></trkpt><trkpt lat="42.13171865627495" lon="12.984693735059118"><ele>734.6</ele><time>2026-03-29T14:35:15Z</time></trkpt><trkpt lat="42.13181853634649" lon="12.984670668272152"><ele>734.0</ele><time>2026-03-29T14:35:17Z</time></trkpt><trkpt lat="42.13189878594152" lon="12.984641238918089"><ele>726.6</ele><time>2026-03-29T14:35:19Z</time></trkpt><trkpt lat="42.13198230524363" lon="12.984619539260176"><ele>719.2</ele><time>2026-03-29T14:35:21Z</time></trkpt><trkpt lat="42.13205392565653" lon="12.984585890586903"><ele>711.8000000000001</ele><time>2026-03-29T14:35:23Z</time></trkpt><trkpt lat="42.132143328281515" lon="12.984581274757131"><ele>704.4000000000001</ele><time>2026-03-29T14:35:25Z</time></trkpt><trkpt lat="42.132229107696865" lon="12.984542618446048"><ele>697.0</ele><time>2026-03-29T14:35:27Z</time></trkpt><trkpt lat="42.13234161597614" lon="12.984488080942766"><ele>692.4000000000001</ele><time>2026-03-29T14:35:29Z</time></trkpt><trkpt lat="42.132417126475964" lon="12.984424093573388"><ele>687.8000000000001</ele><time>2026-03-29T14:35:31Z</time></trkpt><trkpt lat="42.13247472129598" lon="12.984275664122016"><ele>683.2</ele><time>2026-03-29T14:35:32.999Z</time></trkpt><trkpt lat="42.132536904342864" lon="12.984193804676226"><ele>678.6</ele><time>2026-03-29T14:35:34.999Z</time></trkpt><trkpt lat="42.13265993747303" lon="12.984135420338086"><ele>674.0</ele><time>2026-03-29T14:35:36.999Z</time></trkpt><trkpt lat="42.1327321337616" lon="12.984040487525577"><ele>673.0</ele><time>2026-03-29T14:35:38.999Z</time></trkpt><trkpt lat="42.13278336630402" lon="12.983925214514437"><ele>672.0</ele><time>2026-03-29T14:35:40.999Z</time></trkpt><trkpt lat="42.13275686814611" lon="12.98384345530377"><ele>671.0</ele><time>2026-03-29T14:35:42.999Z</time></trkpt><trkpt lat="42.132787736509236" lon="12.983753001606463"><ele>670.0</ele><time>2026-03-29T14:35:44.999Z</time></trkpt><trkpt lat="42.13277697681245" lon="12.983631862788856"><ele>669.0</ele><time>2026-03-29T14:35:47.999Z</time></trkpt><trkpt lat="42.13275112318404" lon="12.98350307409594"><ele>668.0</ele><time>2026-03-29T14:35:49.999Z</time></trkpt><trkpt lat="42.132688605950854" lon="12.983441882866968"><ele>668.0</ele><time>2026-03-29T14:35:52Z</time></trkpt><trkpt lat="42.132589115075604" lon="12.983407985418836"><ele>668.0</ele><time>2026-03-29T14:35:54Z</time></trkpt><trkpt lat="42.13254499411637" lon="12.983292985579727"><ele>668.0</ele><time>2026-03-29T14:35:56Z</time></trkpt><trkpt lat="42.13253416443846" lon="12.98319329345303"><ele>668.0</ele><time>2026-03-29T14:35:57Z</time></trkpt><trkpt lat="42.13249110961863" lon="12.983081431926601"><ele>668.0</ele><time>2026-03-29T14:35:59Z</time></trkpt><trkpt lat="42.13249430803251" lon="12.982949783505584"><ele>666.0</ele><time>2026-03-29T14:36:03Z</time></trkpt><trkpt lat="42.13252530011044" lon="12.982873602679732"><ele>664.0</ele><time>2026-03-29T14:36:04Z</time></trkpt><trkpt lat="42.132601040191425" lon="12.98277958312085"><ele>662.0</ele><time>2026-03-29T14:36:06Z</time></trkpt><trkpt lat="42.13266402745284" lon="12.98271385115877"><ele>660.0</ele><time>2026-03-29T14:36:09Z</time></trkpt><trkpt lat="42.13278576768324" lon="12.982697698456468"><ele>658.0</ele><time>2026-03-29T14:36:13Z</time></trkpt><trkpt lat="42.13286915552156" lon="12.982661739423717"><ele>658.0</ele><time>2026-03-29T14:36:14Z</time></trkpt><trkpt lat="42.13293559467396" lon="12.982656982806132"><ele>658.0</ele><time>2026-03-29T14:36:16Z</time></trkpt><trkpt lat="42.13300815303102" lon="12.982772566347057"><ele>658.0</ele><time>2026-03-29T14:36:18Z</time></trkpt><trkpt lat="42.13306674456466" lon="12.982836602952185"><ele>658.0</ele><time>2026-03-29T14:36:19Z</time></trkpt><trkpt lat="42.133118979587486" lon="12.982887400778745"><ele>658.0</ele><time>2026-03-29T14:36:20Z</time></trkpt><trkpt lat="42.13319846405345" lon="12.982952548471117"><ele>658.0</ele><time>2026-03-29T14:36:23Z</time></trkpt><trkpt lat="42.133254913074005" lon="12.98299346673508"><ele>653.0</ele><time>2026-03-29T14:36:24Z</time></trkpt><trkpt lat="42.13333511131785" lon="12.983025990706086"><ele>648.0</ele><time>2026-03-29T14:36:25Z</time></trkpt><trkpt lat="42.133410881174605" lon="12.983014761594175"><ele>643.0</ele><time>2026-03-29T14:36:27Z</time></trkpt><trkpt lat="42.13343185405225" lon="12.982920071443264"><ele>638.0</ele><time>2026-03-29T14:36:28Z</time></trkpt><trkpt lat="42.133461027515196" lon="12.982764455306558"><ele>633.0</ele><time>2026-03-29T14:36:30Z</time></trkpt><trkpt lat="42.13350694569038" lon="12.982661409894682"><ele>628.0</ele><time>2026-03-29T14:36:32Z</time></trkpt><trkpt lat="42.13350253609863" lon="12.982482256755452"><ele>626.1428571428571</ele><time>2026-03-29T14:36:34Z</time></trkpt><trkpt lat="42.13349683056107" lon="12.982385881888586"><ele>624.2857142857142</ele><time>2026-03-29T14:36:35Z</time></trkpt><trkpt lat="42.13349550677058" lon="12.98230019814602"><ele>622.4285714285713</ele><time>2026-03-29T14:36:36Z</time></trkpt><trkpt lat="42.133551188558414" lon="12.982236843801157"><ele>620.5714285714286</ele><time>2026-03-29T14:36:38Z</time></trkpt><trkpt lat="42.1336077683452" lon="12.982137596596647"><ele>618.7142857142858</ele><time>2026-03-29T14:36:42Z</time></trkpt><trkpt lat="42.133650931765" lon="12.982073725357589"><ele>616.8571428571428</ele><time>2026-03-29T14:36:47Z</time></trkpt><trkpt lat="42.1337075448059" lon="12.982025304830513"><ele>615.0</ele><time>2026-03-29T14:36:53Z</time></trkpt><trkpt lat="42.133786475834775" lon="12.982022002369687"><ele>615.0</ele><time>2026-03-29T14:36:56Z</time></trkpt><trkpt lat="42.13386561559278" lon="12.982005547911005"><ele>615.0</ele><time>2026-03-29T14:36:58Z</time></trkpt><trkpt lat="42.133932685302014" lon="12.981998864286746"><ele>615.0</ele><time>2026-03-29T14:37:17Z</time></trkpt><trkpt lat="42.134023307957634" lon="12.981991994516811"><ele>615.0</ele><time>2026-03-29T14:42:50Z</time></trkpt><trkpt lat="42.134097375952166" lon="12.981986199609974"><ele>615.0</ele><time>2026-03-29T14:42:52Z</time></trkpt><trkpt lat="42.13419555557759" lon="12.98193565856951"><ele>615.0</ele><time>2026-03-29T14:42:54Z</time></trkpt><trkpt lat="42.13431387917124" lon="12.981958583509675"><ele>613.5</ele><time>2026-03-29T14:42:56Z</time></trkpt><trkpt lat="42.134377985240135" lon="12.982044130542619"><ele>612.0</ele><time>2026-03-29T14:42:57Z</time></trkpt><trkpt lat="42.13443603138712" lon="12.982100526832776"><ele>610.5</ele><time>2026-03-29T14:42:58Z</time></trkpt><trkpt lat="42.134511730642934" lon="12.982132318588555"><ele>609.0</ele><time>2026-03-29T14:43:00Z</time></trkpt><trkpt lat="42.13459380969296" lon="12.982155355641714"><ele>607.5</ele><time>2026-03-29T14:43:02Z</time></trkpt><trkpt lat="42.134679258552026" lon="12.982165676015343"><ele>606.0</ele><time>2026-03-29T14:43:04Z</time></trkpt><trkpt lat="42.13475705859244" lon="12.982057073876199"><ele>606.0</ele><time>2026-03-29T14:43:06Z</time></trkpt><trkpt lat="42.134791602980634" lon="12.981980659463481"><ele>606.0</ele><time>2026-03-29T14:43:08Z</time></trkpt><trkpt lat="42.13496164293401" lon="12.981725520742229"><ele>606.0</ele><time>2026-03-29T14:43:11Z</time></trkpt><trkpt lat="42.135009757009385" lon="12.981640185466551"><ele>606.0</ele><time>2026-03-29T14:43:12Z</time></trkpt><trkpt lat="42.135085026799025" lon="12.98153901398115"><ele>609.8333333333334</ele><time>2026-03-29T14:43:14Z</time></trkpt><trkpt lat="42.135144595216595" lon="12.981459598005365"><ele>613.6666666666666</ele><time>2026-03-29T14:43:16Z</time></trkpt><trkpt lat="42.135180266287904" lon="12.981382657050883"><ele>617.5</ele><time>2026-03-29T14:43:19Z</time></trkpt><trkpt lat="42.1352489437287" lon="12.981293707705603"><ele>621.3333333333333</ele><time>2026-03-29T14:43:22Z</time></trkpt><trkpt lat="42.13529953040666" lon="12.981236762233879"><ele>625.1666666666666</ele><time>2026-03-29T14:43:24Z</time></trkpt><trkpt lat="42.135352309303364" lon="12.981158172829712"><ele>629.0</ele><time>2026-03-29T14:43:27Z</time></trkpt><trkpt lat="42.13541778439887" lon="12.981053152135066"><ele>629.0</ele><time>2026-03-29T14:43:29Z</time></trkpt><trkpt lat="42.135491647670726" lon="12.980987568190065"><ele>629.0</ele><time>2026-03-29T14:43:31Z</time></trkpt><trkpt lat="42.13556513184133" lon="12.980922238285446"><ele>629.0</ele><time>2026-03-29T14:43:34Z</time></trkpt><trkpt lat="42.1356414283352" lon="12.980846288529031"><ele>629.0</ele><time>2026-03-29T14:43:36Z</time></trkpt><trkpt lat="42.13575714102409" lon="12.980775354775286"><ele>629.0</ele><time>2026-03-29T14:43:38Z</time></trkpt><trkpt lat="42.13581527576374" lon="12.980714486214467"><ele>635.2</ele><time>2026-03-29T14:43:40Z</time></trkpt><trkpt lat="42.135862585013676" lon="12.980612492311908"><ele>641.4</ele><time>2026-03-29T14:43:42Z</time></trkpt><trkpt lat="42.13591596073697" lon="12.98066644915098"><ele>647.6</ele><time>2026-03-29T14:43:49Z</time></trkpt><trkpt lat="42.135943102155906" lon="12.980535944979177"><ele>653.8</ele><time>2026-03-29T14:43:52Z</time></trkpt><trkpt lat="42.13594257258471" lon="12.98040333816848"><ele>660.0</ele><time>2026-03-29T14:43:54Z</time></trkpt><trkpt lat="42.13601295582778" lon="12.980310960440415"><ele>660.0</ele><time>2026-03-29T14:43:56Z</time></trkpt><trkpt lat="42.13609074143182" lon="12.980246748085852"><ele>660.0</ele><time>2026-03-29T14:43:58Z</time></trkpt><trkpt lat="42.13614216154504" lon="12.980191944268496"><ele>660.0</ele><time>2026-03-29T14:43:59Z</time></trkpt><trkpt lat="42.136206621874955" lon="12.980148508940188"><ele>660.0</ele><time>2026-03-29T14:44:00Z</time></trkpt><trkpt lat="42.136261225692984" lon="12.980058572598251"><ele>660.0</ele><time>2026-03-29T14:44:01Z</time></trkpt><trkpt lat="42.13631867128203" lon="12.979965670669138"><ele>660.0</ele><time>2026-03-29T14:44:02Z</time></trkpt><trkpt lat="42.13637208870943" lon="12.979855060250397"><ele>663.25</ele><time>2026-03-29T14:44:03Z</time></trkpt><trkpt lat="42.136442395884025" lon="12.979771202486923"><ele>666.5</ele><time>2026-03-29T14:44:04Z</time></trkpt><trkpt lat="42.13652640981779" lon="12.979635739356674"><ele>669.75</ele><time>2026-03-29T14:44:04.999Z</time></trkpt><trkpt lat="42.13662361519805" lon="12.979515454032319"><ele>673.0</ele><time>2026-03-29T14:44:05.999Z</time></trkpt><trkpt lat="42.13669053065192" lon="12.979411058955403"><ele>673.75</ele><time>2026-03-29T14:44:06.999Z</time></trkpt><trkpt lat="42.13677122127475" lon="12.979307500417944"><ele>674.5</ele><time>2026-03-29T14:44:07.999Z</time></trkpt><trkpt lat="42.13682418394924" lon="12.979185432932695"><ele>675.25</ele><time>2026-03-29T14:44:08.999Z</time></trkpt><trkpt lat="42.13693688351521" lon="12.979057057968564"><ele>676.0</ele><time>2026-03-29T14:44:09.999Z</time></trkpt><trkpt lat="42.13704765594016" lon="12.978948899867978"><ele>677.1999999999999</ele><time>2026-03-29T14:44:10.999Z</time></trkpt><trkpt lat="42.13711305715801" lon="12.97885252449014"><ele>678.4</ele><time>2026-03-29T14:44:11.999Z</time></trkpt><trkpt lat="42.13717300751027" lon="12.978708470052851"><ele>679.6</ele><time>2026-03-29T14:44:14.001Z</time></trkpt><trkpt lat="42.13720042865045" lon="12.978610637380818"><ele>680.8</ele><time>2026-03-29T14:44:15.001Z</time></trkpt><trkpt lat="42.1372414013757" lon="12.978526322654643"><ele>682.0</ele><time>2026-03-29T14:44:16.001Z</time></trkpt><trkpt lat="42.13734329228337" lon="12.978509955685489"><ele>684.5</ele><time>2026-03-29T14:44:18.001Z</time></trkpt><trkpt lat="42.1374705987292" lon="12.978540018437833"><ele>687.0</ele><time>2026-03-29T14:44:19.001Z</time></trkpt><trkpt lat="42.137608578235614" lon="12.97852749816553"><ele>689.5</ele><time>2026-03-29T14:44:20.001Z</time></trkpt><trkpt lat="42.13773531359641" lon="12.978484735681569"><ele>692.0</ele><time>2026-03-29T14:44:21.001Z</time></trkpt><trkpt lat="42.13785324375468" lon="12.978486472283326"><ele>692.0</ele><time>2026-03-29T14:44:22.001Z</time></trkpt><trkpt lat="42.1379533476207" lon="12.978494580929718"><ele>692.0</ele><time>2026-03-29T14:44:23.001Z</time></trkpt><trkpt lat="42.138065020405165" lon="12.978530106063594"><ele>692.0</ele><time>2026-03-29T14:44:24.001Z</time></trkpt><trkpt lat="42.13817940609331" lon="12.978585502543387"><ele>692.0</ele><time>2026-03-29T14:44:25Z</time></trkpt><trkpt lat="42.13828883585147" lon="12.978634099831378"><ele>694.2</ele><time>2026-03-29T14:44:26Z</time></trkpt><trkpt lat="42.13839750304317" lon="12.978668593646407"><ele>696.4000000000001</ele><time>2026-03-29T14:44:27Z</time></trkpt><trkpt lat="42.13851698577831" lon="12.978682587135687"><ele>698.5999999999999</ele><time>2026-03-29T14:44:28Z</time></trkpt><trkpt lat="42.13862767332087" lon="12.978694517643058"><ele>700.8</ele><time>2026-03-29T14:44:29Z</time></trkpt><trkpt lat="42.13872468723124" lon="12.978699519756756"><ele>703.0</ele><time>2026-03-29T14:44:30Z</time></trkpt><trkpt lat="42.138806682894185" lon="12.978690765553893"><ele>703.0</ele><time>2026-03-29T14:44:31Z</time></trkpt><trkpt lat="42.13887491003305" lon="12.978663421780626"><ele>703.0</ele><time>2026-03-29T14:44:32Z</time></trkpt><trkpt lat="42.1389300081779" lon="12.978611245629205"><ele>703.0</ele><time>2026-03-29T14:44:33Z</time></trkpt><trkpt lat="42.138973430714955" lon="12.978545510948837"><ele>703.0</ele><time>2026-03-29T14:44:34Z</time></trkpt><trkpt lat="42.139021678354894" lon="12.978454692427674"><ele>703.0</ele><time>2026-03-29T14:44:35Z</time></trkpt><trkpt lat="42.13904942416501" lon="12.978332946051356"><ele>703.0</ele><time>2026-03-29T14:44:36Z</time></trkpt><trkpt lat="42.13907877627271" lon="12.978243312476707"><ele>703.5999999999999</ele><time>2026-03-29T14:44:37Z</time></trkpt><trkpt lat="42.13911875088543" lon="12.978140532692455"><ele>704.1999999999999</ele><time>2026-03-29T14:44:44Z</time></trkpt><trkpt lat="42.139179402850395" lon="12.978062995586649"><ele>704.8</ele><time>2026-03-29T14:44:46Z</time></trkpt><trkpt lat="42.139287424783554" lon="12.977947813006933"><ele>705.4</ele><time>2026-03-29T14:44:48Z</time></trkpt><trkpt lat="42.13934985155885" lon="12.977888326729133"><ele>706.0</ele><time>2026-03-29T14:44:49Z</time></trkpt><trkpt lat="42.1394171569266" lon="12.977858336336281"><ele>706.0</ele><time>2026-03-29T14:44:50Z</time></trkpt><trkpt lat="42.13949563958071" lon="12.977766411345899"><ele>706.0</ele><time>2026-03-29T14:44:52Z</time></trkpt><trkpt lat="42.13952496979598" lon="12.977683060517974"><ele>706.0</ele><time>2026-03-29T14:44:53Z</time></trkpt><trkpt lat="42.13957639501945" lon="12.977624317198494"><ele>706.0</ele><time>2026-03-29T14:44:54Z</time></trkpt><trkpt lat="42.13964740035435" lon="12.9775660019554"><ele>706.0</ele><time>2026-03-29T14:44:55Z</time></trkpt><trkpt lat="42.1397014198902" lon="12.97747177582829"><ele>706.0</ele><time>2026-03-29T14:44:56Z</time></trkpt><trkpt lat="42.13975308908762" lon="12.977379115027103"><ele>706.4</ele><time>2026-03-29T14:44:57Z</time></trkpt><trkpt lat="42.1398289434957" lon="12.977293720068419"><ele>706.8</ele><time>2026-03-29T14:44:58Z</time></trkpt><trkpt lat="42.139910335651436" lon="12.977183130492742"><ele>707.1999999999999</ele><time>2026-03-29T14:44:59Z</time></trkpt><trkpt lat="42.13999555517812" lon="12.977072260527208"><ele>707.5999999999999</ele><time>2026-03-29T14:45:00Z</time></trkpt><trkpt lat="42.14004935676733" lon="12.976983264022065"><ele>708.0</ele><time>2026-03-29T14:45:01Z</time></trkpt><trkpt lat="42.140110181292314" lon="12.976901081434399"><ele>708.5</ele><time>2026-03-29T14:45:02Z</time></trkpt><trkpt lat="42.140172537441465" lon="12.976814383226744"><ele>709.0</ele><time>2026-03-29T14:45:03Z</time></trkpt><trkpt lat="42.140230315946916" lon="12.976685301546077"><ele>709.5</ele><time>2026-03-29T14:45:04Z</time></trkpt><trkpt lat="42.1403107574541" lon="12.97655120629672"><ele>710.0</ele><time>2026-03-29T14:45:05Z</time></trkpt><trkpt lat="42.140392972681795" lon="12.976416205042666"><ele>710.0</ele><time>2026-03-29T14:45:06Z</time></trkpt><trkpt lat="42.14047218690764" lon="12.976286479303583"><ele>710.0</ele><time>2026-03-29T14:45:07Z</time></trkpt><trkpt lat="42.14054488612009" lon="12.976188826898017"><ele>710.0</ele><time>2026-03-29T14:45:08Z</time></trkpt><trkpt lat="42.14061608377443" lon="12.976086000182487"><ele>710.0</ele><time>2026-03-29T14:45:09Z</time></trkpt><trkpt lat="42.140671923400326" lon="12.975984903929394"><ele>710.0</ele><time>2026-03-29T14:45:10Z</time></trkpt><trkpt lat="42.140742190276015" lon="12.97588141568256"><ele>710.1666666666666</ele><time>2026-03-29T14:45:11Z</time></trkpt><trkpt lat="42.14082578625528" lon="12.975803906737097"><ele>710.3333333333333</ele><time>2026-03-29T14:45:12Z</time></trkpt><trkpt lat="42.14090443466667" lon="12.975741149948139"><ele>710.5</ele><time>2026-03-29T14:45:13Z</time></trkpt><trkpt lat="42.14097713870411" lon="12.975706335582169"><ele>710.6666666666666</ele><time>2026-03-29T14:45:14Z</time></trkpt><trkpt lat="42.141042147866074" lon="12.975666116123602"><ele>710.8333333333334</ele><time>2026-03-29T14:45:15Z</time></trkpt><trkpt lat="42.14111095128541" lon="12.975625973747542"><ele>711.0</ele><time>2026-03-29T14:45:17Z</time></trkpt><trkpt lat="42.14118731926764" lon="12.975583173401867"><ele>711.0</ele><time>2026-03-29T14:45:19Z</time></trkpt><trkpt lat="42.141271715600496" lon="12.975535017840729"><ele>711.0</ele><time>2026-03-29T14:45:21Z</time></trkpt><trkpt lat="42.14137023306412" lon="12.975447855586932"><ele>711.0</ele><time>2026-03-29T14:45:24Z</time></trkpt><trkpt lat="42.14163569993227" lon="12.975200743763482"><ele>710.0</ele><time>2026-03-29T14:45:28Z</time></trkpt><trkpt lat="42.141730518517555" lon="12.975074348021481"><ele>709.0</ele><time>2026-03-29T14:45:30Z</time></trkpt><trkpt lat="42.1418285336381" lon="12.974992757612444"><ele>708.0</ele><time>2026-03-29T14:45:31Z</time></trkpt><trkpt lat="42.14192817211623" lon="12.974909762414365"><ele>707.0</ele><time>2026-03-29T14:45:32Z</time></trkpt><trkpt lat="42.142030716232846" lon="12.97483362581482"><ele>707.0</ele><time>2026-03-29T14:45:33Z</time></trkpt><trkpt lat="42.14213117068215" lon="12.974756363206609"><ele>707.0</ele><time>2026-03-29T14:45:34Z</time></trkpt><trkpt lat="42.14225044573427" lon="12.974693045883003"><ele>707.0</ele><time>2026-03-29T14:45:35Z</time></trkpt><trkpt lat="42.14234245424246" lon="12.974631530204022"><ele>707.0</ele><time>2026-03-29T14:45:36Z</time></trkpt><trkpt lat="42.14242868882348" lon="12.974570189349658"><ele>707.0</ele><time>2026-03-29T14:45:37Z</time></trkpt><trkpt lat="42.142535553415605" lon="12.974544375784712"><ele>707.6666666666666</ele><time>2026-03-29T14:45:39Z</time></trkpt><trkpt lat="42.1426039692972" lon="12.974553963400409"><ele>708.3333333333333</ele><time>2026-03-29T14:45:40Z</time></trkpt><trkpt lat="42.14268024324905" lon="12.974550625577622"><ele>709.0</ele><time>2026-03-29T14:45:41Z</time></trkpt><trkpt lat="42.142752462668135" lon="12.974521641337947"><ele>709.6666666666666</ele><time>2026-03-29T14:45:42Z</time></trkpt><trkpt lat="42.14285009813568" lon="12.97447614135199"><ele>710.3333333333334</ele><time>2026-03-29T14:45:43Z</time></trkpt><trkpt lat="42.142917208663604" lon="12.97443341222807"><ele>711.0</ele><time>2026-03-29T14:45:44Z</time></trkpt><trkpt lat="42.14298935632961" lon="12.974374275959008"><ele>711.0</ele><time>2026-03-29T14:45:45Z</time></trkpt><trkpt lat="42.14306871266397" lon="12.974314559448274"><ele>711.0</ele><time>2026-03-29T14:45:46Z</time></trkpt><trkpt lat="42.143143216258935" lon="12.974240835521346"><ele>711.0</ele><time>2026-03-29T14:45:47Z</time></trkpt><trkpt lat="42.14322621084858" lon="12.97417631316538"><ele>711.0</ele><time>2026-03-29T14:45:48Z</time></trkpt><trkpt lat="42.143310875485895" lon="12.974118472723696"><ele>711.0</ele><time>2026-03-29T14:45:49Z</time></trkpt><trkpt lat="42.14339498190418" lon="12.974061071375159"><ele>712.1999999999999</ele><time>2026-03-29T14:45:50Z</time></trkpt><trkpt lat="42.14350051373377" lon="12.9740090143639"><ele>713.4</ele><time>2026-03-29T14:45:51Z</time></trkpt><trkpt lat="42.14360883228163" lon="12.973975383370458"><ele>714.6</ele><time>2026-03-29T14:45:52Z</time></trkpt><trkpt lat="42.14371073554897" lon="12.973946999698684"><ele>715.8</ele><time>2026-03-29T14:45:53Z</time></trkpt><trkpt lat="42.14381453945427" lon="12.973911889255785"><ele>717.0</ele><time>2026-03-29T14:45:54Z</time></trkpt><trkpt lat="42.14391863532203" lon="12.973878235999045"><ele>717.0</ele><time>2026-03-29T14:45:55Z</time></trkpt><trkpt lat="42.14402255207639" lon="12.973853509358797"><ele>717.0</ele><time>2026-03-29T14:45:56Z</time></trkpt><trkpt lat="42.14412671343431" lon="12.973858706607308"><ele>717.0</ele><time>2026-03-29T14:45:57Z</time></trkpt><trkpt lat="42.1442248033897" lon="12.973856142319642"><ele>717.0</ele><time>2026-03-29T14:45:58Z</time></trkpt><trkpt lat="42.144329549208166" lon="12.973821501794141"><ele>717.0</ele><time>2026-03-29T14:45:59Z</time></trkpt><trkpt lat="42.14443910585129" lon="12.973758397308979"><ele>718.0</ele><time>2026-03-29T14:46:00Z</time></trkpt><trkpt lat="42.144568449660184" lon="12.973696734575054"><ele>719.0</ele><time>2026-03-29T14:46:01Z</time></trkpt><trkpt lat="42.14469575095819" lon="12.973640549945035"><ele>720.0</ele><time>2026-03-29T14:46:02Z</time></trkpt><trkpt lat="42.144810837549755" lon="12.973587037164114"><ele>721.0</ele><time>2026-03-29T14:46:03Z</time></trkpt><trkpt lat="42.14491759422734" lon="12.973520790639963"><ele>722.5</ele><time>2026-03-29T14:46:04Z</time></trkpt><trkpt lat="42.14503044529386" lon="12.973464116464136"><ele>724.0</ele><time>2026-03-29T14:46:05Z</time></trkpt><trkpt lat="42.145156042370445" lon="12.973410167334746"><ele>725.5</ele><time>2026-03-29T14:46:05.999Z</time></trkpt><trkpt lat="42.14528266511142" lon="12.973339258519092"><ele>727.0</ele><time>2026-03-29T14:46:06.999Z</time></trkpt><trkpt lat="42.14540846411949" lon="12.973269209758659"><ele>728.0</ele><time>2026-03-29T14:46:07.999Z</time></trkpt><trkpt lat="42.145520122147246" lon="12.973192560448163"><ele>729.0</ele><time>2026-03-29T14:46:08.999Z</time></trkpt><trkpt lat="42.14562120866939" lon="12.973108965608285"><ele>730.0</ele><time>2026-03-29T14:46:09.999Z</time></trkpt><trkpt lat="42.145715570557" lon="12.973015108194762"><ele>731.0</ele><time>2026-03-29T14:46:10.999Z</time></trkpt><trkpt lat="42.14580261062028" lon="12.97292334257833"><ele>733.5999999999999</ele><time>2026-03-29T14:46:11.999Z</time></trkpt><trkpt lat="42.145890270991" lon="12.972850026259426"><ele>736.2</ele><time>2026-03-29T14:46:12.999Z</time></trkpt><trkpt lat="42.14597862249746" lon="12.972800385384298"><ele>738.8</ele><time>2026-03-29T14:46:13.999Z</time></trkpt><trkpt lat="42.14606162004947" lon="12.972772290368486"><ele>741.4000000000001</ele><time>2026-03-29T14:46:14.999Z</time></trkpt><trkpt lat="42.14614988245032" lon="12.972767007034442"><ele>744.0</ele><time>2026-03-29T14:46:15.999Z</time></trkpt><trkpt lat="42.14623290942142" lon="12.972751782617948"><ele>744.0</ele><time>2026-03-29T14:46:16.999Z</time></trkpt><trkpt lat="42.14631794872471" lon="12.972724517733237"><ele>744.0</ele><time>2026-03-29T14:46:17.999Z</time></trkpt><trkpt lat="42.146402277543686" lon="12.972691061577887"><ele>744.0</ele><time>2026-03-29T14:46:18.999Z</time></trkpt><trkpt lat="42.146477865090446" lon="12.972653254190297"><ele>744.0</ele><time>2026-03-29T14:46:20Z</time></trkpt><trkpt lat="42.14656364557522" lon="12.97258171593923"><ele>744.0</ele><time>2026-03-29T14:46:21Z</time></trkpt><trkpt lat="42.14662237242135" lon="12.972453433973387"><ele>746.6</ele><time>2026-03-29T14:46:22Z</time></trkpt><trkpt lat="42.14669123392257" lon="12.97231498529108"><ele>749.2</ele><time>2026-03-29T14:46:23Z</time></trkpt><trkpt lat="42.14676155973592" lon="12.972191134198333"><ele>751.8000000000001</ele><time>2026-03-29T14:46:24Z</time></trkpt><trkpt lat="42.14683709579586" lon="12.97209457255159"><ele>754.4000000000001</ele><time>2026-03-29T14:46:25Z</time></trkpt><trkpt lat="42.14690022747625" lon="12.97200169558518"><ele>757.0</ele><time>2026-03-29T14:46:26Z</time></trkpt><trkpt lat="42.14700500183734" lon="12.971892379278021"><ele>757.0</ele><time>2026-03-29T14:46:27Z</time></trkpt><trkpt lat="42.14711774125899" lon="12.971782535017082"><ele>757.0</ele><time>2026-03-29T14:46:28Z</time></trkpt><trkpt lat="42.14722161554494" lon="12.971628158775799"><ele>757.0</ele><time>2026-03-29T14:46:29Z</time></trkpt><trkpt lat="42.14732404023064" lon="12.971507428561738"><ele>757.0</ele><time>2026-03-29T14:46:30Z</time></trkpt><trkpt lat="42.14743244500096" lon="12.971405104166022"><ele>759.8</ele><time>2026-03-29T14:46:31Z</time></trkpt><trkpt lat="42.14754371774243" lon="12.971339808441213"><ele>762.6</ele><time>2026-03-29T14:46:32Z</time></trkpt><trkpt lat="42.14763352571582" lon="12.97128391655338"><ele>765.4</ele><time>2026-03-29T14:46:33Z</time></trkpt><trkpt lat="42.147745257333504" lon="12.971264736250452"><ele>768.1999999999999</ele><time>2026-03-29T14:46:35Z</time></trkpt><trkpt lat="42.1478113205966" lon="12.971306429589925"><ele>771.0</ele><time>2026-03-29T14:46:36Z</time></trkpt><trkpt lat="42.14785902430425" lon="12.971413435051758"><ele>771.0</ele><time>2026-03-29T14:46:37Z</time></trkpt><trkpt lat="42.147901412666045" lon="12.971548447548289"><ele>771.0</ele><time>2026-03-29T14:46:38Z</time></trkpt><trkpt lat="42.14792002959558" lon="12.971704903634768"><ele>771.0</ele><time>2026-03-29T14:46:39Z</time></trkpt><trkpt lat="42.147941729804664" lon="12.971812341978309"><ele>771.0</ele><time>2026-03-29T14:46:40Z</time></trkpt><trkpt lat="42.14797323218505" lon="12.971917418044079"><ele>771.0</ele><time>2026-03-29T14:46:41Z</time></trkpt><trkpt lat="42.14803267523126" lon="12.972010938236135"><ele>770.5</ele><time>2026-03-29T14:46:42Z</time></trkpt><trkpt lat="42.14807420141008" lon="12.972133741186349"><ele>770.0</ele><time>2026-03-29T14:46:43Z</time></trkpt><trkpt lat="42.14810794188369" lon="12.972250679235302"><ele>769.5</ele><time>2026-03-29T14:46:44Z</time></trkpt><trkpt lat="42.14814719740366" lon="12.972331427190905"><ele>769.0</ele><time>2026-03-29T14:46:45Z</time></trkpt><trkpt lat="42.14820205117019" lon="12.97241225870592"><ele>768.5</ele><time>2026-03-29T14:46:46Z</time></trkpt><trkpt lat="42.1482491577105" lon="12.972487819903266"><ele>768.0</ele><time>2026-03-29T14:46:47Z</time></trkpt><trkpt lat="42.14830304081141" lon="12.972578420851894"><ele>771.8</ele><time>2026-03-29T14:46:48Z</time></trkpt><trkpt lat="42.14834990399352" lon="12.972670597336656"><ele>775.5999999999999</ele><time>2026-03-29T14:46:49Z</time></trkpt><trkpt lat="42.14839398389348" lon="12.972764845477863"><ele>779.4000000000001</ele><time>2026-03-29T14:46:50Z</time></trkpt><trkpt lat="42.14844554392559" lon="12.972849857474154"><ele>783.2</ele><time>2026-03-29T14:46:51Z</time></trkpt><trkpt lat="42.14852404671566" lon="12.972944075654867"><ele>787.0</ele><time>2026-03-29T14:46:52Z</time></trkpt><trkpt lat="42.14862067473759" lon="12.973023228575846"><ele>787.0</ele><time>2026-03-29T14:46:53Z</time></trkpt><trkpt lat="42.148726908570694" lon="12.973095988083994"><ele>787.0</ele><time>2026-03-29T14:46:54Z</time></trkpt><trkpt lat="42.14883933345092" lon="12.973201583301776"><ele>787.0</ele><time>2026-03-29T14:46:55Z</time></trkpt><trkpt lat="42.14896524140903" lon="12.973324505987051"><ele>787.0</ele><time>2026-03-29T14:46:56Z</time></trkpt><trkpt lat="42.14908588218967" lon="12.97344390242113"><ele>789.2</ele><time>2026-03-29T14:46:57Z</time></trkpt><trkpt lat="42.14918027613673" lon="12.97354028409128"><ele>791.4000000000001</ele><time>2026-03-29T14:46:58Z</time></trkpt><trkpt lat="42.14924729692337" lon="12.973634912668507"><ele>793.5999999999999</ele><time>2026-03-29T14:46:59Z</time></trkpt><trkpt lat="42.14926799410142" lon="12.973722091427213"><ele>795.8</ele><time>2026-03-29T14:47:00Z</time></trkpt><trkpt lat="42.1492534937053" lon="12.973880923315823"><ele>798.0</ele><time>2026-03-29T14:47:02Z</time></trkpt><trkpt lat="42.14935481351338" lon="12.973958410110276"><ele>798.0</ele><time>2026-03-29T14:47:04Z</time></trkpt><trkpt lat="42.1494930927719" lon="12.973989094694252"><ele>798.0</ele><time>2026-03-29T14:47:06Z</time></trkpt><trkpt lat="42.14958727231909" lon="12.974027235950363"><ele>798.0</ele><time>2026-03-29T14:47:07Z</time></trkpt><trkpt lat="42.14970561669306" lon="12.974075217503808"><ele>798.0</ele><time>2026-03-29T14:47:08Z</time></trkpt><trkpt lat="42.149829309491814" lon="12.974102697834219"><ele>802.5999999999999</ele><time>2026-03-29T14:47:09Z</time></trkpt><trkpt lat="42.14989816172138" lon="12.974137501092207"><ele>807.1999999999999</ele><time>2026-03-29T14:47:10Z</time></trkpt><trkpt lat="42.149939953046044" lon="12.97423021304499"><ele>811.8</ele><time>2026-03-29T14:47:11Z</time></trkpt><trkpt lat="42.14995621107412" lon="12.974389879903983"><ele>816.4</ele><time>2026-03-29T14:47:12Z</time></trkpt><trkpt lat="42.14994731596347" lon="12.974548083025326"><ele>821.0</ele><time>2026-03-29T14:47:13Z</time></trkpt><trkpt lat="42.14994801947446" lon="12.97466578876193"><ele>821.0</ele><time>2026-03-29T14:47:14Z</time></trkpt><trkpt lat="42.149956064454734" lon="12.974832937043464"><ele>821.0</ele><time>2026-03-29T14:47:16Z</time></trkpt><trkpt lat="42.14999271900864" lon="12.974953421574034"><ele>821.0</ele><time>2026-03-29T14:47:17Z</time></trkpt><trkpt lat="42.150036512277744" lon="12.97510799576153"><ele>821.0</ele><time>2026-03-29T14:47:18Z</time></trkpt><trkpt lat="42.150061301663065" lon="12.975221091122425"><ele>821.0</ele><time>2026-03-29T14:47:19Z</time></trkpt><trkpt lat="42.15011830667524" lon="12.97530800103043"><ele>817.1999999999999</ele><time>2026-03-29T14:47:20Z</time></trkpt><trkpt lat="42.15018044730896" lon="12.975383523885194"><ele>813.4</ele><time>2026-03-29T14:47:21Z</time></trkpt><trkpt lat="42.15025439681138" lon="12.975440772703788"><ele>809.6</ele><time>2026-03-29T14:47:22Z</time></trkpt><trkpt lat="42.15034855987089" lon="12.975504365417478"><ele>805.8</ele><time>2026-03-29T14:47:23Z</time></trkpt><trkpt lat="42.15045962781479" lon="12.975576062701787"><ele>802.0</ele><time>2026-03-29T14:47:24Z</time></trkpt><trkpt lat="42.15057254243433" lon="12.975635637184826"><ele>802.0</ele><time>2026-03-29T14:47:25Z</time></trkpt><trkpt lat="42.15067016762655" lon="12.975716530849992"><ele>802.0</ele><time>2026-03-29T14:47:26Z</time></trkpt><trkpt lat="42.150756668253095" lon="12.975842886675576"><ele>802.0</ele><time>2026-03-29T14:47:27Z</time></trkpt><trkpt lat="42.15084553580352" lon="12.975972563052213"><ele>802.0</ele><time>2026-03-29T14:47:28Z</time></trkpt><trkpt lat="42.150927691608466" lon="12.976064699901968"><ele>807.0</ele><time>2026-03-29T14:47:29Z</time></trkpt><trkpt lat="42.15102549302607" lon="12.976147243544103"><ele>812.0</ele><time>2026-03-29T14:47:30Z</time></trkpt><trkpt lat="42.15113669409773" lon="12.976187215831828"><ele>817.0</ele><time>2026-03-29T14:47:31Z</time></trkpt><trkpt lat="42.15124271283611" lon="12.97620964838573"><ele>822.0</ele><time>2026-03-29T14:47:32Z</time></trkpt><trkpt lat="42.15136562481411" lon="12.976210906354185"><ele>822.0</ele><time>2026-03-29T14:47:33Z</time></trkpt><trkpt lat="42.15150134083103" lon="12.976206246966582"><ele>822.0</ele><time>2026-03-29T14:47:34Z</time></trkpt><trkpt lat="42.15162652780498" lon="12.976198347430486"><ele>822.0</ele><time>2026-03-29T14:47:35Z</time></trkpt><trkpt lat="42.151730585632606" lon="12.976195358291363"><ele>822.0</ele><time>2026-03-29T14:47:36Z</time></trkpt><trkpt lat="42.15182447930712" lon="12.976177675590929"><ele>825.0</ele><time>2026-03-29T14:47:37Z</time></trkpt><trkpt lat="42.15193285835681" lon="12.976150753382132"><ele>828.0</ele><time>2026-03-29T14:47:38Z</time></trkpt><trkpt lat="42.15203507331846" lon="12.976138883762037"><ele>831.0</ele><time>2026-03-29T14:47:39Z</time></trkpt><trkpt lat="42.152133310748304" lon="12.976140548794383"><ele>834.0</ele><time>2026-03-29T14:47:40Z</time></trkpt><trkpt lat="42.15221841705926" lon="12.976166944821422"><ele>837.0</ele><time>2026-03-29T14:47:41Z</time></trkpt><trkpt lat="42.152288432450824" lon="12.976160758038734"><ele>837.0</ele><time>2026-03-29T14:47:42Z</time></trkpt><trkpt lat="42.15233373416366" lon="12.976237244863734"><ele>837.0</ele><time>2026-03-29T14:47:45Z</time></trkpt><trkpt lat="42.15226013911974" lon="12.976380070253304"><ele>837.0</ele><time>2026-03-29T14:47:48Z</time></trkpt><trkpt lat="42.152188522420275" lon="12.976463317464608"><ele>837.0</ele><time>2026-03-29T14:47:49Z</time></trkpt><trkpt lat="42.15210242132223" lon="12.976547856076222"><ele>837.0</ele><time>2026-03-29T14:47:50Z</time></trkpt><trkpt lat="42.15202621376574" lon="12.976665015878545"><ele>843.0</ele><time>2026-03-29T14:47:51Z</time></trkpt><trkpt lat="42.151952365465284" lon="12.976817915790212"><ele>849.0</ele><time>2026-03-29T14:47:52Z</time></trkpt><trkpt lat="42.15187838065138" lon="12.976986848467307"><ele>855.0</ele><time>2026-03-29T14:47:53Z</time></trkpt><trkpt lat="42.15180686510739" lon="12.977141106368757"><ele>861.0</ele><time>2026-03-29T14:47:54Z</time></trkpt><trkpt lat="42.15173297724212" lon="12.977274744315213"><ele>861.0</ele><time>2026-03-29T14:47:55Z</time></trkpt><trkpt lat="42.15164879357968" lon="12.977389209831825"><ele>861.0</ele><time>2026-03-29T14:47:56Z</time></trkpt><trkpt lat="42.15155536624052" lon="12.977502763122805"><ele>861.0</ele><time>2026-03-29T14:47:57Z</time></trkpt><trkpt lat="42.15146663199833" lon="12.977610439078383"><ele>861.0</ele><time>2026-03-29T14:47:58Z</time></trkpt><trkpt lat="42.151387688626386" lon="12.977737212769574"><ele>865.5</ele><time>2026-03-29T14:47:59Z</time></trkpt><trkpt lat="42.151303644475746" lon="12.9778708866232"><ele>870.0</ele><time>2026-03-29T14:48:00Z</time></trkpt><trkpt lat="42.15119410557285" lon="12.977974054312249"><ele>874.5</ele><time>2026-03-29T14:48:01Z</time></trkpt><trkpt lat="42.15107938153234" lon="12.978035546718584"><ele>879.0</ele><time>2026-03-29T14:48:02Z</time></trkpt><trkpt lat="42.15093861001488" lon="12.978085373019793"><ele>879.0</ele><time>2026-03-29T14:48:02.999Z</time></trkpt><trkpt lat="42.15080853791676" lon="12.978103421505704"><ele>879.0</ele><time>2026-03-29T14:48:03.999Z</time></trkpt><trkpt lat="42.15068827206518" lon="12.97813558817177"><ele>879.0</ele><time>2026-03-29T14:48:04.999Z</time></trkpt><trkpt lat="42.15058370230041" lon="12.978170903035512"><ele>879.0</ele><time>2026-03-29T14:48:05.999Z</time></trkpt><trkpt lat="42.15048197415447" lon="12.978211500330426"><ele>878.0</ele><time>2026-03-29T14:48:06.999Z</time></trkpt><trkpt lat="42.15038029600805" lon="12.978270101171905"><ele>877.0</ele><time>2026-03-29T14:48:07.999Z</time></trkpt><trkpt lat="42.15031036798158" lon="12.978338634609466"><ele>876.0</ele><time>2026-03-29T14:48:08.999Z</time></trkpt><trkpt lat="42.1502621105531" lon="12.978407299734727"><ele>875.0</ele><time>2026-03-29T14:48:09.999Z</time></trkpt><trkpt lat="42.15030135468801" lon="12.978510357335267"><ele>874.0</ele><time>2026-03-29T14:48:12.999Z</time></trkpt><trkpt lat="42.15038298804987" lon="12.978536673805433"><ele>873.0</ele><time>2026-03-29T14:49:48Z</time></trkpt><trkpt lat="42.15043768746943" lon="12.978647782027382"><ele>871.2</ele><time>2026-03-29T14:49:50Z</time></trkpt><trkpt lat="42.15047311693385" lon="12.978723711680274"><ele>869.4</ele><time>2026-03-29T14:49:51Z</time></trkpt><trkpt lat="42.15050471826889" lon="12.9788095938805"><ele>867.6000000000001</ele><time>2026-03-29T14:49:52Z</time></trkpt><trkpt lat="42.15055918673391" lon="12.978936402828449"><ele>865.8000000000001</ele><time>2026-03-29T14:49:53Z</time></trkpt><trkpt lat="42.150626548174394" lon="12.979087549399944"><ele>864.0</ele><time>2026-03-29T14:49:54Z</time></trkpt><trkpt lat="42.15068284931429" lon="12.97924056954869"><ele>870.75</ele><time>2026-03-29T14:49:55Z</time></trkpt><trkpt lat="42.15072009114039" lon="12.979410768942332"><ele>877.5</ele><time>2026-03-29T14:49:56Z</time></trkpt><trkpt lat="42.150732783122606" lon="12.979582977818117"><ele>884.25</ele><time>2026-03-29T14:49:57Z</time></trkpt><trkpt lat="42.150754121874066" lon="12.979740774530669"><ele>891.0</ele><time>2026-03-29T14:49:58Z</time></trkpt><trkpt lat="42.15077862921992" lon="12.97987921149611"><ele>891.0</ele><time>2026-03-29T14:49:59Z</time></trkpt><trkpt lat="42.150807011287434" lon="12.97998159773906"><ele>891.0</ele><time>2026-03-29T14:50:00Z</time></trkpt><trkpt lat="42.15082929603723" lon="12.980119806333601"><ele>891.0</ele><time>2026-03-29T14:50:01.999Z</time></trkpt><trkpt lat="42.15086052354818" lon="12.98025669643438"><ele>891.0</ele><time>2026-03-29T14:50:03.999Z</time></trkpt><trkpt lat="42.15090513597061" lon="12.980328206357806"><ele>891.0</ele><time>2026-03-29T14:50:04.999Z</time></trkpt><trkpt lat="42.15095570364615" lon="12.980394515802832"><ele>891.0</ele><time>2026-03-29T14:50:05.999Z</time></trkpt><trkpt lat="42.15104013997943" lon="12.980432869727357"><ele>891.0</ele><time>2026-03-29T14:50:07.999Z</time></trkpt><trkpt lat="42.15102071687019" lon="12.980280954538536"><ele>890.9999999999999</ele><time>2026-03-29T14:50:10.999Z</time></trkpt><trkpt lat="42.15100059066121" lon="12.980179528668689"><ele>890.9999999999999</ele><time>2026-03-29T14:50:11.999Z</time></trkpt><trkpt lat="42.15100639314992" lon="12.980065362354011"><ele>891.0</ele><time>2026-03-29T14:50:12.999Z</time></trkpt><trkpt lat="42.151027405065754" lon="12.97992257280994"><ele>891.0</ele><time>2026-03-29T14:50:13.999Z</time></trkpt><trkpt lat="42.15106013891657" lon="12.979782885475409"><ele>891.0</ele><time>2026-03-29T14:50:14.999Z</time></trkpt><trkpt lat="42.151084314878666" lon="12.979640257329464"><ele>890.9999999999999</ele><time>2026-03-29T14:50:15.999Z</time></trkpt><trkpt lat="42.151118819909016" lon="12.979523429807323"><ele>890.9999999999999</ele><time>2026-03-29T14:50:16.999Z</time></trkpt><trkpt lat="42.15116178183726" lon="12.979411651887913"><ele>891.0</ele><time>2026-03-29T14:50:17.999Z</time></trkpt><trkpt lat="42.15121692891998" lon="12.979310674808401"><ele>891.0</ele><time>2026-03-29T14:50:18.999Z</time></trkpt><trkpt lat="42.151303511067724" lon="12.979225259173251"><ele>890.25</ele><time>2026-03-29T14:50:19.999Z</time></trkpt><trkpt lat="42.151410595998904" lon="12.979137457419892"><ele>889.5</ele><time>2026-03-29T14:50:20.999Z</time></trkpt><trkpt lat="42.151531866005975" lon="12.979034924371023"><ele>888.75</ele><time>2026-03-29T14:50:21.999Z</time></trkpt><trkpt lat="42.151659700204604" lon="12.97892866544877"><ele>888.0</ele><time>2026-03-29T14:50:22.999Z</time></trkpt><trkpt lat="42.15180244148036" lon="12.97879339873822"><ele>894.6666666666667</ele><time>2026-03-29T14:50:23.999Z</time></trkpt><trkpt lat="42.151977556086926" lon="12.978643940282753"><ele>901.3333333333334</ele><time>2026-03-29T14:50:24.999Z</time></trkpt><trkpt lat="42.15212684765905" lon="12.978506656183422"><ele>908.0</ele><time>2026-03-29T14:50:25.999Z</time></trkpt><trkpt lat="42.152265928792374" lon="12.978388037464532"><ele>908.25</ele><time>2026-03-29T14:50:26.999Z</time></trkpt><trkpt lat="42.15239797807804" lon="12.978274868264842"><ele>908.5</ele><time>2026-03-29T14:50:27.999Z</time></trkpt><trkpt lat="42.152520172938246" lon="12.97816452108558"><ele>908.75</ele><time>2026-03-29T14:50:28.999Z</time></trkpt><trkpt lat="42.15262977899008" lon="12.978061202081584"><ele>909.0</ele><time>2026-03-29T14:50:29.999Z</time></trkpt><trkpt lat="42.15273386838035" lon="12.977960193069642"><ele>909.0</ele><time>2026-03-29T14:50:30.999Z</time></trkpt><trkpt lat="42.152826386590725" lon="12.977858237978555"><ele>909.0</ele><time>2026-03-29T14:50:32Z</time></trkpt><trkpt lat="42.15290658333404" lon="12.977759257119024"><ele>909.0</ele><time>2026-03-29T14:50:33Z</time></trkpt><trkpt lat="42.15299815996062" lon="12.977650127463248"><ele>909.0</ele><time>2026-03-29T14:50:34Z</time></trkpt><trkpt lat="42.15309402088613" lon="12.977522843628456"><ele>909.75</ele><time>2026-03-29T14:50:35Z</time></trkpt><trkpt lat="42.15319933030877" lon="12.977391722959037"><ele>910.5</ele><time>2026-03-29T14:50:36Z</time></trkpt><trkpt lat="42.153305900919094" lon="12.97725269163769"><ele>911.25</ele><time>2026-03-29T14:50:37Z</time></trkpt><trkpt lat="42.15341102683339" lon="12.97710273407622"><ele>912.0</ele><time>2026-03-29T14:50:38Z</time></trkpt><trkpt lat="42.15351017254526" lon="12.976937376842846"><ele>912.0</ele><time>2026-03-29T14:50:39Z</time></trkpt><trkpt lat="42.153611725536585" lon="12.976759346338326"><ele>912.0</ele><time>2026-03-29T14:50:40Z</time></trkpt><trkpt lat="42.153720498348264" lon="12.976587235040965"><ele>912.0</ele><time>2026-03-29T14:50:41Z</time></trkpt><trkpt lat="42.15382779451836" lon="12.976434083579772"><ele>906.0</ele><time>2026-03-29T14:50:42Z</time></trkpt><trkpt lat="42.15392775890421" lon="12.976287929139202"><ele>900.0</ele><time>2026-03-29T14:50:43Z</time></trkpt><trkpt lat="42.153995915570384" lon="12.976139891306962"><ele>894.0</ele><time>2026-03-29T14:50:44Z</time></trkpt><trkpt lat="42.154016854680656" lon="12.975975092724013"><ele>888.0</ele><time>2026-03-29T14:50:45Z</time></trkpt><trkpt lat="42.15401997445633" lon="12.975778088442812"><ele>883.3333333333333</ele><time>2026-03-29T14:50:46Z</time></trkpt><trkpt lat="42.1540089201129" lon="12.975569880164624"><ele>878.6666666666666</ele><time>2026-03-29T14:50:47Z</time></trkpt><trkpt lat="42.15398793557663" lon="12.975347038867918"><ele>874.0</ele><time>2026-03-29T14:50:48Z</time></trkpt><trkpt lat="42.15398054279821" lon="12.975114038000267"><ele>874.6666666666666</ele><time>2026-03-29T14:50:49Z</time></trkpt><trkpt lat="42.1539740099961" lon="12.974859734373744"><ele>875.3333333333333</ele><time>2026-03-29T14:50:50Z</time></trkpt><trkpt lat="42.153969729109136" lon="12.974586447211943"><ele>876.0</ele><time>2026-03-29T14:50:51Z</time></trkpt><trkpt lat="42.15398933370458" lon="12.974324269474991"><ele>881.3333333333333</ele><time>2026-03-29T14:50:52Z</time></trkpt><trkpt lat="42.154030466839885" lon="12.974053371454088"><ele>886.6666666666666</ele><time>2026-03-29T14:50:53Z</time></trkpt><trkpt lat="42.15407162265981" lon="12.973804171269844"><ele>892.0</ele><time>2026-03-29T14:50:54Z</time></trkpt><trkpt lat="42.15410596193044" lon="12.973583030740196"><ele>894.75</ele><time>2026-03-29T14:50:55Z</time></trkpt><trkpt lat="42.15413746955636" lon="12.973390967960047"><ele>897.5</ele><time>2026-03-29T14:50:56Z</time></trkpt><trkpt lat="42.15415312822802" lon="12.973217126780867"><ele>900.25</ele><time>2026-03-29T14:50:57Z</time></trkpt><trkpt lat="42.15412650563371" lon="12.973061731056918"><ele>903.0</ele><time>2026-03-29T14:50:58Z</time></trkpt><trkpt lat="42.15406499834068" lon="12.972925032499763"><ele>902.75</ele><time>2026-03-29T14:50:59Z</time></trkpt><trkpt lat="42.153978436251066" lon="12.972798093637195"><ele>902.5</ele><time>2026-03-29T14:51:00Z</time></trkpt><trkpt lat="42.15386971340468" lon="12.972663866718605"><ele>902.25</ele><time>2026-03-29T14:51:01Z</time></trkpt><trkpt lat="42.15375136699101" lon="12.972526297393973"><ele>902.0</ele><time>2026-03-29T14:51:02Z</time></trkpt><trkpt lat="42.15364955283291" lon="12.972366836397477"><ele>902.0</ele><time>2026-03-29T14:51:03Z</time></trkpt><trkpt lat="42.153573837327215" lon="12.972181630986425"><ele>902.0</ele><time>2026-03-29T14:51:04Z</time></trkpt><trkpt lat="42.15350145534805" lon="12.971987120956742"><ele>902.0</ele><time>2026-03-29T14:51:05Z</time></trkpt><trkpt lat="42.15345444672585" lon="12.971777588998222"><ele>903.6666666666667</ele><time>2026-03-29T14:51:06Z</time></trkpt><trkpt lat="42.1534164884501" lon="12.971557428296919"><ele>905.3333333333333</ele><time>2026-03-29T14:51:07Z</time></trkpt><trkpt lat="42.15341177447583" lon="12.971334863768222"><ele>907.0</ele><time>2026-03-29T14:51:08Z</time></trkpt><trkpt lat="42.153449372359105" lon="12.971098044796106"><ele>907.0</ele><time>2026-03-29T14:51:09Z</time></trkpt><trkpt lat="42.1534997589591" lon="12.970856886744455"><ele>907.0</ele><time>2026-03-29T14:51:10Z</time></trkpt><trkpt lat="42.153553684706374" lon="12.970603613823375"><ele>907.0</ele><time>2026-03-29T14:51:11Z</time></trkpt><trkpt lat="42.153603295613664" lon="12.970347560692446"><ele>907.0</ele><time>2026-03-29T14:51:12Z</time></trkpt><trkpt lat="42.153645474986405" lon="12.970092494985929"><ele>907.0</ele><time>2026-03-29T14:51:13Z</time></trkpt><trkpt lat="42.15367431258138" lon="12.969835448369187"><ele>907.0</ele><time>2026-03-29T14:51:14Z</time></trkpt><trkpt lat="42.153689034837356" lon="12.969583346513774"><ele>906.3333333333333</ele><time>2026-03-29T14:51:15Z</time></trkpt><trkpt lat="42.15368979760666" lon="12.969324532323688"><ele>905.6666666666667</ele><time>2026-03-29T14:51:16Z</time></trkpt><trkpt lat="42.153691815161054" lon="12.969076640280246"><ele>905.0</ele><time>2026-03-29T14:51:17Z</time></trkpt><trkpt lat="42.1536989575786" lon="12.968849890080971"><ele>905.0</ele><time>2026-03-29T14:51:18Z</time></trkpt><trkpt lat="42.153701657192975" lon="12.968650702682163"><ele>905.0</ele><time>2026-03-29T14:51:19Z</time></trkpt><trkpt lat="42.15369117333684" lon="12.968487025470182"><ele>905.0</ele><time>2026-03-29T14:51:20Z</time></trkpt><trkpt lat="42.15366319245102" lon="12.968336814172075"><ele>905.0</ele><time>2026-03-29T14:51:21Z</time></trkpt><trkpt lat="42.153640547248855" lon="12.968195465662724"><ele>905.2</ele><time>2026-03-29T14:51:22Z</time></trkpt><trkpt lat="42.15364419692032" lon="12.968076093376697"><ele>905.4</ele><time>2026-03-29T14:51:23Z</time></trkpt><trkpt lat="42.15368789065237" lon="12.96796895335941"><ele>905.5999999999999</ele><time>2026-03-29T14:51:24Z</time></trkpt><trkpt lat="42.15375646280511" lon="12.967876777678349"><ele>905.8</ele><time>2026-03-29T14:51:25Z</time></trkpt><trkpt lat="42.153838759556216" lon="12.967783040180079"><ele>906.0</ele><time>2026-03-29T14:51:26Z</time></trkpt><trkpt lat="42.153907954430046" lon="12.967701631170241"><ele>906.0</ele><time>2026-03-29T14:51:27Z</time></trkpt><trkpt lat="42.15395351034239" lon="12.967614892126035"><ele>906.0</ele><time>2026-03-29T14:51:28Z</time></trkpt><trkpt lat="42.153975994045716" lon="12.96752324822173"><ele>906.0</ele><time>2026-03-29T14:51:29Z</time></trkpt><trkpt lat="42.15399806512829" lon="12.96736961090774"><ele>906.0</ele><time>2026-03-29T14:51:31Z</time></trkpt><trkpt lat="42.15400931172183" lon="12.967285271024327"><ele>906.0</ele><time>2026-03-29T14:51:32Z</time></trkpt><trkpt lat="42.154019619208846" lon="12.967198814441774"><ele>906.0</ele><time>2026-03-29T14:51:33Z</time></trkpt><trkpt lat="42.154031116262956" lon="12.967076149108065"><ele>905.142857142857</ele><time>2026-03-29T14:51:35Z</time></trkpt><trkpt lat="42.15405607288259" lon="12.96696937582011"><ele>904.2857142857142</ele><time>2026-03-29T14:51:38Z</time></trkpt><trkpt lat="42.154041307174296" lon="12.966869481122112"><ele>903.4285714285714</ele><time>2026-03-29T14:52:43Z</time></trkpt><trkpt lat="42.154032906211356" lon="12.966774292492412"><ele>902.5714285714286</ele><time>2026-03-29T14:52:59Z</time></trkpt><trkpt lat="42.15401326481031" lon="12.96669069868257"><ele>901.7142857142858</ele><time>2026-03-29T14:53:06Z</time></trkpt><trkpt lat="42.15397999913009" lon="12.966603253025715"><ele>900.857142857143</ele><time>2026-03-29T14:53:09Z</time></trkpt><trkpt lat="42.15395169892036" lon="12.966518068311748"><ele>900.0000000000001</ele><time>2026-03-29T14:53:11Z</time></trkpt><trkpt lat="42.15390517227014" lon="12.966400004753377"><ele>898.1666666666666</ele><time>2026-03-29T14:53:13Z</time></trkpt><trkpt lat="42.15388379571315" lon="12.966291061717431"><ele>896.3333333333333</ele><time>2026-03-29T14:53:16Z</time></trkpt><trkpt lat="42.15384091757755" lon="12.96620465327854"><ele>894.5</ele><time>2026-03-29T14:53:19Z</time></trkpt><trkpt lat="42.15380994954881" lon="12.966098309218996"><ele>892.6666666666666</ele><time>2026-03-29T14:53:22Z</time></trkpt><trkpt lat="42.15377784386787" lon="12.966015305516438"><ele>890.8333333333333</ele><time>2026-03-29T14:53:24Z</time></trkpt><trkpt lat="42.15373298587099" lon="12.965920382346837"><ele>889.0</ele><time>2026-03-29T14:53:26Z</time></trkpt><trkpt lat="42.15370692826208" lon="12.965832119991097"><ele>886.8333333333333</ele><time>2026-03-29T14:53:28Z</time></trkpt><trkpt lat="42.15367919023026" lon="12.965715694805438"><ele>884.6666666666666</ele><time>2026-03-29T14:53:31Z</time></trkpt><trkpt lat="42.15364594653648" lon="12.965619198888396"><ele>882.5</ele><time>2026-03-29T14:53:32Z</time></trkpt><trkpt lat="42.153631079597474" lon="12.965532589785717"><ele>880.3333333333333</ele><time>2026-03-29T14:53:34Z</time></trkpt><trkpt lat="42.15362590827269" lon="12.965415462002928"><ele>878.1666666666666</ele><time>2026-03-29T14:53:36Z</time></trkpt><trkpt lat="42.15361944165489" lon="12.965254374919262"><ele>876.0</ele><time>2026-03-29T14:53:38Z</time></trkpt><trkpt lat="42.15362595235189" lon="12.965168086069452"><ele>874.0</ele><time>2026-03-29T14:53:39Z</time></trkpt><trkpt lat="42.15362071239981" lon="12.96500452894058"><ele>871.9999999999999</ele><time>2026-03-29T14:53:41Z</time></trkpt><trkpt lat="42.15361549051168" lon="12.964854115774463"><ele>869.9999999999999</ele><time>2026-03-29T14:53:43Z</time></trkpt><trkpt lat="42.15359996495507" lon="12.964764156543456"><ele>868.0</ele><time>2026-03-29T14:53:45Z</time></trkpt><trkpt lat="42.15355585137543" lon="12.964661647604569"><ele>866.0</ele><time>2026-03-29T14:53:49Z</time></trkpt><trkpt lat="42.15352355443087" lon="12.964548064166124"><ele>866.0000000000001</ele><time>2026-03-29T14:53:52Z</time></trkpt><trkpt lat="42.1534960660482" lon="12.964431443439322"><ele>866.0</ele><time>2026-03-29T14:53:54Z</time></trkpt><trkpt lat="42.153467244294745" lon="12.964350820197495"><ele>866.0</ele><time>2026-03-29T14:53:56Z</time></trkpt><trkpt lat="42.153452838063814" lon="12.964246586543144"><ele>866.0</ele><time>2026-03-29T14:53:58Z</time></trkpt><trkpt lat="42.15348247317166" lon="12.964128835064843"><ele>866.0000000000001</ele><time>2026-03-29T14:54:00Z</time></trkpt><trkpt lat="42.1534864614582" lon="12.96401808107484"><ele>866.0</ele><time>2026-03-29T14:54:01.999Z</time></trkpt><trkpt lat="42.153473728700256" lon="12.963922003554083"><ele>864.5000000000001</ele><time>2026-03-29T14:54:04.999Z</time></trkpt><trkpt lat="42.15346129743166" lon="12.963836667234895"><ele>863.0</ele><time>2026-03-29T14:54:06.999Z</time></trkpt><trkpt lat="42.153426060417175" lon="12.963749637149261"><ele>861.5</ele><time>2026-03-29T14:54:09.999Z</time></trkpt><trkpt lat="42.153338637068586" lon="12.963651597682567"><ele>860.0</ele><time>2026-03-29T14:54:12.999Z</time></trkpt><trkpt lat="42.15328424648188" lon="12.9635599651873"><ele>858.5000000000001</ele><time>2026-03-29T14:54:14.999Z</time></trkpt><trkpt lat="42.1532373619392" lon="12.963492977830663"><ele>857.0</ele><time>2026-03-29T14:54:16.999Z</time></trkpt><trkpt lat="42.15318966746744" lon="12.963387700828752"><ele>849.0</ele><time>2026-03-29T14:54:19.999Z</time></trkpt><trkpt lat="42.15316071513227" lon="12.963308585780917"><ele>841.0</ele><time>2026-03-29T14:54:21.999Z</time></trkpt><trkpt lat="42.15312362041575" lon="12.963184581153826"><ele>833.0</ele><time>2026-03-29T14:54:24.999Z</time></trkpt><trkpt lat="42.15307637445649" lon="12.963091367000642"><ele>825.0</ele><time>2026-03-29T14:54:26.999Z</time></trkpt><trkpt lat="42.15300974517289" lon="12.963008485827695"><ele>817.0</ele><time>2026-03-29T14:54:28.999Z</time></trkpt><trkpt lat="42.15283629858585" lon="12.962727674896142"><ele>816.9999999999999</ele><time>2026-03-29T14:54:32.999Z</time></trkpt><trkpt lat="42.15277807493484" lon="12.962610750538722"><ele>817.0</ele><time>2026-03-29T14:54:34.999Z</time></trkpt><trkpt lat="42.1527308712493" lon="12.962449631148369"><ele>817.0</ele><time>2026-03-29T14:54:36.999Z</time></trkpt><trkpt lat="42.1526973759107" lon="12.962372862054051"><ele>817.0</ele><time>2026-03-29T14:54:37.999Z</time></trkpt><trkpt lat="42.15266839606142" lon="12.9622901568489"><ele>816.9999999999999</ele><time>2026-03-29T14:54:38.999Z</time></trkpt><trkpt lat="42.15264119062166" lon="12.962211291253434"><ele>817.0</ele><time>2026-03-29T14:54:39.999Z</time></trkpt><trkpt lat="42.15262651573617" lon="12.96206963978584"><ele>817.2857142857142</ele><time>2026-03-29T14:54:41.999Z</time></trkpt><trkpt lat="42.152613851513955" lon="12.961968269066402"><ele>817.5714285714286</ele><time>2026-03-29T14:54:44Z</time></trkpt><trkpt lat="42.152653122137714" lon="12.961887076861888"><ele>817.8571428571429</ele><time>2026-03-29T14:54:47Z</time></trkpt><trkpt lat="42.152701853712436" lon="12.961782506851666"><ele>818.1428571428571</ele><time>2026-03-29T14:54:50Z</time></trkpt><trkpt lat="42.15271849166192" lon="12.9616967046406"><ele>818.4285714285714</ele><time>2026-03-29T14:54:52Z</time></trkpt><trkpt lat="42.152766021303385" lon="12.96163633753733"><ele>818.7142857142857</ele><time>2026-03-29T14:54:54Z</time></trkpt><trkpt lat="42.15283602404803" lon="12.961588657057657"><ele>819.0</ele><time>2026-03-29T14:54:57Z</time></trkpt><trkpt lat="42.15287174238149" lon="12.961479232012842"><ele>817.8333333333334</ele><time>2026-03-29T14:55:00Z</time></trkpt><trkpt lat="42.15291774229522" lon="12.961352922457209"><ele>816.6666666666667</ele><time>2026-03-29T14:55:02Z</time></trkpt><trkpt lat="42.15295170703965" lon="12.961262988942988"><ele>815.5</ele><time>2026-03-29T14:55:03Z</time></trkpt><trkpt lat="42.152976305771325" lon="12.961182957658945"><ele>814.3333333333334</ele><time>2026-03-29T14:55:04Z</time></trkpt><trkpt lat="42.153013175103425" lon="12.961064223846074"><ele>813.1666666666667</ele><time>2026-03-29T14:55:08Z</time></trkpt><trkpt lat="42.15304265214571" lon="12.96096599454901"><ele>812.0</ele><time>2026-03-29T14:55:10Z</time></trkpt><trkpt lat="42.153067295375536" lon="12.960864115072585"><ele>804.0</ele><time>2026-03-29T14:55:12Z</time></trkpt><trkpt lat="42.153330502386744" lon="12.960485300452273"><ele>796.0</ele><time>2026-03-29T14:55:16Z</time></trkpt><trkpt lat="42.15338986797923" lon="12.96037545129994"><ele>796.0</ele><time>2026-03-29T14:55:19Z</time></trkpt><trkpt lat="42.15344325727042" lon="12.960279811130999"><ele>796.0</ele><time>2026-03-29T14:55:21Z</time></trkpt><trkpt lat="42.153482217404225" lon="12.960184683211095"><ele>796.0</ele><time>2026-03-29T14:55:23Z</time></trkpt><trkpt lat="42.153467461942235" lon="12.960071006830546"><ele>796.0</ele><time>2026-03-29T14:55:25Z</time></trkpt><trkpt lat="42.153404327175245" lon="12.959945687199722"><ele>796.0</ele><time>2026-03-29T14:55:26Z</time></trkpt><trkpt lat="42.1534269541718" lon="12.959823943873173"><ele>794.9999999999999</ele><time>2026-03-29T14:55:29Z</time></trkpt><trkpt lat="42.153451041661185" lon="12.959730160476868"><ele>794.0</ele><time>2026-03-29T14:55:31Z</time></trkpt><trkpt lat="42.15348709422227" lon="12.959643776173422"><ele>793.0</ele><time>2026-03-29T14:55:34Z</time></trkpt><trkpt lat="42.1535455898797" lon="12.959563424090726"><ele>792.0</ele><time>2026-03-29T14:55:38Z</time></trkpt><trkpt lat="42.15359510185177" lon="12.959461945164383"><ele>790.9999999999999</ele><time>2026-03-29T14:55:41Z</time></trkpt><trkpt lat="42.153600004008126" lon="12.959312690530457"><ele>790.0</ele><time>2026-03-29T14:55:43Z</time></trkpt><trkpt lat="42.15361097012277" lon="12.959217901819569"><ele>787.8333333333333</ele><time>2026-03-29T14:55:44Z</time></trkpt><trkpt lat="42.15360875288034" lon="12.959130590853158"><ele>785.6666666666666</ele><time>2026-03-29T14:55:45Z</time></trkpt><trkpt lat="42.153597987532365" lon="12.958993653956757"><ele>783.5</ele><time>2026-03-29T14:55:46Z</time></trkpt><trkpt lat="42.153581466974565" lon="12.9588983577767"><ele>781.3333333333333</ele><time>2026-03-29T14:55:47Z</time></trkpt><trkpt lat="42.15360130749007" lon="12.958789438509442"><ele>779.1666666666666</ele><time>2026-03-29T14:55:49Z</time></trkpt><trkpt lat="42.15364514028181" lon="12.958656645639884"><ele>777.0</ele><time>2026-03-29T14:55:51Z</time></trkpt><trkpt lat="42.15368566851801" lon="12.958588408457588"><ele>777.0</ele><time>2026-03-29T14:55:51.999Z</time></trkpt><trkpt lat="42.15373407364008" lon="12.958510515434456"><ele>777.0</ele><time>2026-03-29T14:55:54.999Z</time></trkpt><trkpt lat="42.153788285524996" lon="12.95841633544579"><ele>777.0</ele><time>2026-03-29T14:56:01.999Z</time></trkpt><trkpt lat="42.15386491582063" lon="12.958347452035952"><ele>777.0</ele><time>2026-03-29T14:57:37Z</time></trkpt><trkpt lat="42.1538788970622" lon="12.958248831598722"><ele>777.0</ele><time>2026-03-29T14:57:39Z</time></trkpt><trkpt lat="42.15382958125299" lon="12.958162631183702"><ele>777.0</ele><time>2026-03-29T14:57:40Z</time></trkpt><trkpt lat="42.15376146576637" lon="12.958075879773103"><ele>775.6</ele><time>2026-03-29T14:57:41Z</time></trkpt><trkpt lat="42.15368600240365" lon="12.958003441878162"><ele>774.2</ele><time>2026-03-29T14:57:42Z</time></trkpt><trkpt lat="42.153609302896925" lon="12.957953630192902"><ele>772.8</ele><time>2026-03-29T14:57:43Z</time></trkpt><trkpt lat="42.153534288838" lon="12.957854598514261"><ele>771.4</ele><time>2026-03-29T14:57:44Z</time></trkpt><trkpt lat="42.1534433170776" lon="12.957721146437356"><ele>770.0</ele><time>2026-03-29T14:57:45Z</time></trkpt><trkpt lat="42.153413030806256" lon="12.95748864032498"><ele>768.4</ele><time>2026-03-29T14:57:46Z</time></trkpt><trkpt lat="42.15334218552616" lon="12.957385942979645"><ele>766.8</ele><time>2026-03-29T14:57:47Z</time></trkpt><trkpt lat="42.15327700243459" lon="12.957285011643275"><ele>765.2</ele><time>2026-03-29T14:57:48Z</time></trkpt><trkpt lat="42.153203095329154" lon="12.957181562240981"><ele>763.6</ele><time>2026-03-29T14:57:49Z</time></trkpt><trkpt lat="42.15313302662134" lon="12.957061410816213"><ele>762.0</ele><time>2026-03-29T14:57:50Z</time></trkpt><trkpt lat="42.153066183543885" lon="12.956937952232522"><ele>758.0</ele><time>2026-03-29T14:57:51Z</time></trkpt><trkpt lat="42.15296482053011" lon="12.956782489973264"><ele>754.0</ele><time>2026-03-29T14:57:52Z</time></trkpt><trkpt lat="42.15286344047401" lon="12.956640933337631"><ele>750.0</ele><time>2026-03-29T14:57:53Z</time></trkpt><trkpt lat="42.15280064133563" lon="12.956554696624346"><ele>746.0</ele><time>2026-03-29T14:57:54Z</time></trkpt><trkpt lat="42.152748123571946" lon="12.956481626237865"><ele>746.0</ele><time>2026-03-29T14:57:55Z</time></trkpt><trkpt lat="42.15267490748924" lon="12.956372928539173"><ele>746.0</ele><time>2026-03-29T14:57:56Z</time></trkpt><trkpt lat="42.15259877667686" lon="12.956249016477596"><ele>746.0</ele><time>2026-03-29T14:57:57Z</time></trkpt><trkpt lat="42.15252551655048" lon="12.956117517636029"><ele>746.0</ele><time>2026-03-29T14:57:58Z</time></trkpt><trkpt lat="42.15245860854479" lon="12.955995778893282"><ele>745.25</ele><time>2026-03-29T14:57:59Z</time></trkpt><trkpt lat="42.15238268319025" lon="12.955856952916774"><ele>744.5</ele><time>2026-03-29T14:58:00Z</time></trkpt><trkpt lat="42.15231450095146" lon="12.955724690563411"><ele>743.75</ele><time>2026-03-29T14:58:01Z</time></trkpt><trkpt lat="42.15223800535766" lon="12.955588168676547"><ele>743.0</ele><time>2026-03-29T14:58:02Z</time></trkpt><trkpt lat="42.152221209387946" lon="12.955452551363367"><ele>741.5</ele><time>2026-03-29T14:58:03Z</time></trkpt><trkpt lat="42.15220902469116" lon="12.955353204613647"><ele>740.0</ele><time>2026-03-29T14:58:04Z</time></trkpt><trkpt lat="42.15223593575696" lon="12.955275483161707"><ele>738.5</ele><time>2026-03-29T14:58:05Z</time></trkpt><trkpt lat="42.15220117027085" lon="12.955114419414508"><ele>737.0</ele><time>2026-03-29T14:58:07Z</time></trkpt><trkpt lat="42.15211437680644" lon="12.955057148487606"><ele>735.5</ele><time>2026-03-29T14:58:07.999Z</time></trkpt><trkpt lat="42.1520578900057" lon="12.955018608946725"><ele>734.0</ele><time>2026-03-29T14:58:08.999Z</time></trkpt><trkpt lat="42.151899318760584" lon="12.955115587439728"><ele>733.5</ele><time>2026-03-29T14:58:10.999Z</time></trkpt><trkpt lat="42.15180536339033" lon="12.955147186069206"><ele>733.0</ele><time>2026-03-29T14:58:11.999Z</time></trkpt><trkpt lat="42.151727520005814" lon="12.955122794479818"><ele>732.5</ele><time>2026-03-29T14:58:12.999Z</time></trkpt><trkpt lat="42.151656079868125" lon="12.955097723060543"><ele>732.0</ele><time>2026-03-29T14:58:13.999Z</time></trkpt><trkpt lat="42.15157971424447" lon="12.955074571719528"><ele>731.5</ele><time>2026-03-29T14:58:14.999Z</time></trkpt><trkpt lat="42.15147902574124" lon="12.95504484462573"><ele>731.0</ele><time>2026-03-29T14:58:15.999Z</time></trkpt><trkpt lat="42.151391633258676" lon="12.95500734909568"><ele>729.5999999999999</ele><time>2026-03-29T14:58:16.999Z</time></trkpt><trkpt lat="42.151322081700236" lon="12.954973788915515"><ele>728.2</ele><time>2026-03-29T14:58:17.999Z</time></trkpt><trkpt lat="42.15123351083207" lon="12.954971019280135"><ele>726.8</ele><time>2026-03-29T14:58:18.999Z</time></trkpt><trkpt lat="42.15111925027724" lon="12.954989839884316"><ele>725.4000000000001</ele><time>2026-03-29T14:58:19.999Z</time></trkpt><trkpt lat="42.15099149489908" lon="12.955022983280445"><ele>724.0</ele><time>2026-03-29T14:58:20.999Z</time></trkpt><trkpt lat="42.15087531562869" lon="12.955071850594532"><ele>723.2</ele><time>2026-03-29T14:58:21.999Z</time></trkpt><trkpt lat="42.15078907654547" lon="12.95511685214582"><ele>722.4000000000001</ele><time>2026-03-29T14:58:22.999Z</time></trkpt><trkpt lat="42.15069995650339" lon="12.955154710209973"><ele>721.6</ele><time>2026-03-29T14:58:23.999Z</time></trkpt><trkpt lat="42.15060682673239" lon="12.955172749395667"><ele>720.8</ele><time>2026-03-29T14:58:24.999Z</time></trkpt><trkpt lat="42.15049158986856" lon="12.955154350936818"><ele>720.0</ele><time>2026-03-29T14:58:25.999Z</time></trkpt><trkpt lat="42.150373547220276" lon="12.955160458556325"><ele>718.25</ele><time>2026-03-29T14:58:26.999Z</time></trkpt><trkpt lat="42.1502490260967" lon="12.95516924259272"><ele>716.5</ele><time>2026-03-29T14:58:27.999Z</time></trkpt><trkpt lat="42.15013374546547" lon="12.95517776565877"><ele>714.75</ele><time>2026-03-29T14:58:28.999Z</time></trkpt><trkpt lat="42.15000832936495" lon="12.955189062483807"><ele>713.0</ele><time>2026-03-29T14:58:29.999Z</time></trkpt><trkpt lat="42.14989636319328" lon="12.955199415400173"><ele>711.8</ele><time>2026-03-29T14:58:30.999Z</time></trkpt><trkpt lat="42.14978672868138" lon="12.955209552716049"><ele>710.5999999999999</ele><time>2026-03-29T14:58:31.999Z</time></trkpt><trkpt lat="42.14968120693696" lon="12.955220493841002"><ele>709.4000000000001</ele><time>2026-03-29T14:58:32.999Z</time></trkpt><trkpt lat="42.14958318349607" lon="12.955232992750659"><ele>708.2</ele><time>2026-03-29T14:58:33.999Z</time></trkpt><trkpt lat="42.14949177853624" lon="12.95525056841252"><ele>707.0</ele><time>2026-03-29T14:58:34.999Z</time></trkpt><trkpt lat="42.149392426017094" lon="12.955275220094597"><ele>707.0</ele><time>2026-03-29T14:58:35.999Z</time></trkpt><trkpt lat="42.14928296650315" lon="12.955294236670461"><ele>707.0</ele><time>2026-03-29T14:58:36.999Z</time></trkpt><trkpt lat="42.14916248972598" lon="12.955302638878704"><ele>707.0</ele><time>2026-03-29T14:58:37.999Z</time></trkpt><trkpt lat="42.1490384733735" lon="12.955303619228308"><ele>707.0</ele><time>2026-03-29T14:58:38.999Z</time></trkpt><trkpt lat="42.148927525096866" lon="12.955284968206998"><ele>706.0</ele><time>2026-03-29T14:58:39.999Z</time></trkpt><trkpt lat="42.14881472811238" lon="12.955279189193137"><ele>705.0</ele><time>2026-03-29T14:58:40.999Z</time></trkpt><trkpt lat="42.14867951812013" lon="12.955272261825346"><ele>704.0</ele><time>2026-03-29T14:58:41.999Z</time></trkpt><trkpt lat="42.1485275450317" lon="12.955264477155257"><ele>703.0</ele><time>2026-03-29T14:58:42.999Z</time></trkpt><trkpt lat="42.14836252028991" lon="12.955470462665076"><ele>703.0</ele><time>2026-03-29T14:58:43.999Z</time></trkpt><trkpt lat="42.148222885208526" lon="12.955527601099904"><ele>703.0</ele><time>2026-03-29T14:58:44.999Z</time></trkpt><trkpt lat="42.148082727184836" lon="12.955609543084343"><ele>703.0</ele><time>2026-03-29T14:58:45.999Z</time></trkpt><trkpt lat="42.14795584339201" lon="12.955678126035728"><ele>703.0</ele><time>2026-03-29T14:58:46.999Z</time></trkpt><trkpt lat="42.14782780388073" lon="12.955743242657226"><ele>701.75</ele><time>2026-03-29T14:58:47.999Z</time></trkpt><trkpt lat="42.14768376629892" lon="12.955784993156644"><ele>700.5</ele><time>2026-03-29T14:58:48.999Z</time></trkpt><trkpt lat="42.14756437571925" lon="12.955817177172207"><ele>699.25</ele><time>2026-03-29T14:58:49.999Z</time></trkpt><trkpt lat="42.14744305002636" lon="12.955847488683663"><ele>698.0</ele><time>2026-03-29T14:58:50.999Z</time></trkpt><trkpt lat="42.14733009280477" lon="12.955881511500055"><ele>697.0</ele><time>2026-03-29T14:58:51.999Z</time></trkpt><trkpt lat="42.147223538008134" lon="12.955915588761707"><ele>696.0</ele><time>2026-03-29T14:58:52.999Z</time></trkpt><trkpt lat="42.147118732259216" lon="12.955948643235935"><ele>695.0</ele><time>2026-03-29T14:58:53.999Z</time></trkpt><trkpt lat="42.147014804751784" lon="12.955976475897206"><ele>694.0</ele><time>2026-03-29T14:58:54.999Z</time></trkpt><trkpt lat="42.146920535961776" lon="12.956000813355598"><ele>693.0</ele><time>2026-03-29T14:58:56Z</time></trkpt><trkpt lat="42.14683413429193" lon="12.95602701238136"><ele>693.0</ele><time>2026-03-29T14:58:57Z</time></trkpt><trkpt lat="42.14676179661514" lon="12.956043734763309"><ele>693.0</ele><time>2026-03-29T14:58:58Z</time></trkpt><trkpt lat="42.14666816263271" lon="12.956062892098156"><ele>693.0</ele><time>2026-03-29T14:59:00Z</time></trkpt><trkpt lat="42.14657056234005" lon="12.956083941874509"><ele>693.0</ele><time>2026-03-29T14:59:02Z</time></trkpt><trkpt lat="42.14645179780797" lon="12.956077178816194"><ele>693.0</ele><time>2026-03-29T14:59:04Z</time></trkpt><trkpt lat="42.146369913503996" lon="12.95608518628892"><ele>692.4</ele><time>2026-03-29T14:59:05Z</time></trkpt><trkpt lat="42.146276574721455" lon="12.956096449258864"><ele>691.8</ele><time>2026-03-29T14:59:06Z</time></trkpt><trkpt lat="42.14616865034687" lon="12.956116864564052"><ele>691.2</ele><time>2026-03-29T14:59:07Z</time></trkpt><trkpt lat="42.14605513594855" lon="12.956147525449092"><ele>690.6</ele><time>2026-03-29T14:59:08Z</time></trkpt><trkpt lat="42.14593585006439" lon="12.956185802933335"><ele>690.0</ele><time>2026-03-29T14:59:09Z</time></trkpt><trkpt lat="42.14581644699857" lon="12.956226925069052"><ele>689.25</ele><time>2026-03-29T14:59:10Z</time></trkpt><trkpt lat="42.145688460606024" lon="12.956256098834922"><ele>688.5</ele><time>2026-03-29T14:59:11Z</time></trkpt><trkpt lat="42.14554323863534" lon="12.956279287480431"><ele>687.75</ele><time>2026-03-29T14:59:12Z</time></trkpt><trkpt lat="42.14537741135842" lon="12.956315563024488"><ele>687.0</ele><time>2026-03-29T14:59:13Z</time></trkpt><trkpt lat="42.14521163367333" lon="12.956341998469778"><ele>687.0</ele><time>2026-03-29T14:59:14Z</time></trkpt><trkpt lat="42.145044869984694" lon="12.95636886140938"><ele>687.0</ele><time>2026-03-29T14:59:15Z</time></trkpt><trkpt lat="42.14488647632294" lon="12.956389937250872"><ele>687.0</ele><time>2026-03-29T14:59:16Z</time></trkpt><trkpt lat="42.14472390622855" lon="12.956413236963984"><ele>686.6666666666666</ele><time>2026-03-29T14:59:17Z</time></trkpt><trkpt lat="42.14456305395066" lon="12.956438248465625"><ele>686.3333333333333</ele><time>2026-03-29T14:59:18Z</time></trkpt><trkpt lat="42.14440677267452" lon="12.956461181230598"><ele>686.0</ele><time>2026-03-29T14:59:19Z</time></trkpt><trkpt lat="42.14425742694734" lon="12.956476462290302"><ele>686.0</ele><time>2026-03-29T14:59:20Z</time></trkpt><trkpt lat="42.14411923711221" lon="12.956467458301628"><ele>686.0</ele><time>2026-03-29T14:59:21Z</time></trkpt><trkpt lat="42.143975049771754" lon="12.95643039986941"><ele>686.0</ele><time>2026-03-29T14:59:22Z</time></trkpt><trkpt lat="42.143824683310726" lon="12.956380985976395"><ele>686.0</ele><time>2026-03-29T14:59:23Z</time></trkpt><trkpt lat="42.14366739085854" lon="12.956339494819286"><ele>685.0</ele><time>2026-03-29T14:59:24Z</time></trkpt><trkpt lat="42.14349829345753" lon="12.95631618999152"><ele>684.0</ele><time>2026-03-29T14:59:25Z</time></trkpt><trkpt lat="42.14332514580839" lon="12.956292708694233"><ele>683.0</ele><time>2026-03-29T14:59:26Z</time></trkpt><trkpt lat="42.14315774417527" lon="12.956272442619253"><ele>682.75</ele><time>2026-03-29T14:59:27Z</time></trkpt><trkpt lat="42.14300116254687" lon="12.956254860048166"><ele>682.5</ele><time>2026-03-29T14:59:28Z</time></trkpt><trkpt lat="42.142862648047256" lon="12.956244402648379"><ele>682.25</ele><time>2026-03-29T14:59:29Z</time></trkpt><trkpt lat="42.14274335174744" lon="12.956236881897508"><ele>682.0</ele><time>2026-03-29T14:59:30Z</time></trkpt><trkpt lat="42.14264640061764" lon="12.956253728541537"><ele>682.0</ele><time>2026-03-29T14:59:31Z</time></trkpt><trkpt lat="42.142537323632304" lon="12.956312130359228"><ele>682.0</ele><time>2026-03-29T14:59:32Z</time></trkpt><trkpt lat="42.142411028366006" lon="12.956399953174952"><ele>682.0</ele><time>2026-03-29T14:59:33Z</time></trkpt><trkpt lat="42.142262203281604" lon="12.95652017030531"><ele>682.0</ele><time>2026-03-29T14:59:34Z</time></trkpt><trkpt lat="42.14211485401455" lon="12.956635817841452"><ele>680.75</ele><time>2026-03-29T14:59:35Z</time></trkpt><trkpt lat="42.14198442562387" lon="12.956759300025563"><ele>679.5</ele><time>2026-03-29T14:59:36Z</time></trkpt><trkpt lat="42.14186645264625" lon="12.95686488947917"><ele>678.25</ele><time>2026-03-29T14:59:37Z</time></trkpt><trkpt lat="42.141753316629185" lon="12.95696938087863"><ele>677.0</ele><time>2026-03-29T14:59:38Z</time></trkpt><trkpt lat="42.14163691028237" lon="12.957074924468486"><ele>677.75</ele><time>2026-03-29T14:59:39Z</time></trkpt><trkpt lat="42.14151545264434" lon="12.957172759203601"><ele>678.5</ele><time>2026-03-29T14:59:40Z</time></trkpt><trkpt lat="42.141397363185" lon="12.957267483861422"><ele>679.25</ele><time>2026-03-29T14:59:41Z</time></trkpt><trkpt lat="42.14128207554568" lon="12.957362956932233"><ele>680.0</ele><time>2026-03-29T14:59:42Z</time></trkpt><trkpt lat="42.14116628065365" lon="12.957464392197444"><ele>680.0</ele><time>2026-03-29T14:59:43Z</time></trkpt><trkpt lat="42.141052024741384" lon="12.957565121563166"><ele>680.0</ele><time>2026-03-29T14:59:44Z</time></trkpt><trkpt lat="42.14093873503777" lon="12.957667689088275"><ele>680.0</ele><time>2026-03-29T14:59:45Z</time></trkpt><trkpt lat="42.14081885065018" lon="12.957775956041806"><ele>680.0</ele><time>2026-03-29T14:59:46Z</time></trkpt><trkpt lat="42.140698269069354" lon="12.957882059177912"><ele>680.0</ele><time>2026-03-29T14:59:47Z</time></trkpt><trkpt lat="42.14059155564796" lon="12.957980551908477"><ele>680.0</ele><time>2026-03-29T14:59:48Z</time></trkpt><trkpt lat="42.140486837571444" lon="12.958079705917678"><ele>680.0</ele><time>2026-03-29T14:59:49Z</time></trkpt><trkpt lat="42.14038082404263" lon="12.958189439295737"><ele>680.0</ele><time>2026-03-29T14:59:50Z</time></trkpt><trkpt lat="42.14027091899371" lon="12.95830571052589"><ele>680.2</ele><time>2026-03-29T14:59:51Z</time></trkpt><trkpt lat="42.14016733629586" lon="12.958413602300611"><ele>680.4</ele><time>2026-03-29T14:59:52Z</time></trkpt><trkpt lat="42.14007612934064" lon="12.958502914837538"><ele>680.5999999999999</ele><time>2026-03-29T14:59:53Z</time></trkpt><trkpt lat="42.1399961797781" lon="12.958586851081492"><ele>680.8</ele><time>2026-03-29T14:59:54Z</time></trkpt><trkpt lat="42.13991826110464" lon="12.958663523576918"><ele>681.0</ele><time>2026-03-29T14:59:55Z</time></trkpt><trkpt lat="42.139845071025256" lon="12.95874083046344"><ele>680.5</ele><time>2026-03-29T14:59:56Z</time></trkpt><trkpt lat="42.13977808754546" lon="12.958812608129307"><ele>680.0</ele><time>2026-03-29T14:59:57Z</time></trkpt><trkpt lat="42.13971685388316" lon="12.958874210464153"><ele>679.5</ele><time>2026-03-29T14:59:58Z</time></trkpt><trkpt lat="42.139666372525504" lon="12.958928845661077"><ele>679.0</ele><time>2026-03-29T14:59:59Z</time></trkpt><trkpt lat="42.13957372493953" lon="12.959016809435655"><ele>678.5</ele><time>2026-03-29T15:00:01Z</time></trkpt><trkpt lat="42.1394847994527" lon="12.959085237106601"><ele>678.0</ele><time>2026-03-29T15:00:03Z</time></trkpt><trkpt lat="42.139389680737445" lon="12.959171235151492"><ele>678.0</ele><time>2026-03-29T15:00:05Z</time></trkpt><trkpt lat="42.13926335393459" lon="12.959259667113955"><ele>678.0</ele><time>2026-03-29T15:00:07Z</time></trkpt><trkpt lat="42.1391778380612" lon="12.959293913912427"><ele>678.0</ele><time>2026-03-29T15:00:08Z</time></trkpt><trkpt lat="42.139091942100016" lon="12.95931455620067"><ele>678.0</ele><time>2026-03-29T15:00:09Z</time></trkpt><trkpt lat="42.13900183845304" lon="12.959336241936436"><ele>678.0</ele><time>2026-03-29T15:00:09.999Z</time></trkpt><trkpt lat="42.138909139786" lon="12.959358549138821"><ele>678.2</ele><time>2026-03-29T15:00:10.999Z</time></trkpt><trkpt lat="42.138827425729716" lon="12.95937752744522"><ele>678.4</ele><time>2026-03-29T15:00:11.999Z</time></trkpt><trkpt lat="42.13873850007026" lon="12.959401607486763"><ele>678.6</ele><time>2026-03-29T15:00:12.999Z</time></trkpt><trkpt lat="42.13863843400664" lon="12.959426991317128"><ele>678.8000000000001</ele><time>2026-03-29T15:00:13.999Z</time></trkpt><trkpt lat="42.13853193831976" lon="12.959454921812435"><ele>679.0</ele><time>2026-03-29T15:00:14.999Z</time></trkpt><trkpt lat="42.138420148362194" lon="12.959485496391512"><ele>679.0</ele><time>2026-03-29T15:00:15.999Z</time></trkpt><trkpt lat="42.138310410685115" lon="12.959519566554908"><ele>679.0</ele><time>2026-03-29T15:00:16.999Z</time></trkpt><trkpt lat="42.13817809533629" lon="12.95955587791556"><ele>679.0</ele><time>2026-03-29T15:00:17.999Z</time></trkpt><trkpt lat="42.13803441784944" lon="12.959595080850981"><ele>679.0</ele><time>2026-03-29T15:00:18.999Z</time></trkpt><trkpt lat="42.13788081139968" lon="12.959634153103734"><ele>679.5</ele><time>2026-03-29T15:00:19.999Z</time></trkpt><trkpt lat="42.137728330971136" lon="12.959673357504608"><ele>680.0</ele><time>2026-03-29T15:00:20.999Z</time></trkpt><trkpt lat="42.13760234851144" lon="12.959700428643945"><ele>680.5</ele><time>2026-03-29T15:00:21.999Z</time></trkpt><trkpt lat="42.13749784530447" lon="12.959725490280551"><ele>681.0</ele><time>2026-03-29T15:00:22.999Z</time></trkpt><trkpt lat="42.13742593777745" lon="12.959737056909674"><ele>680.6666666666666</ele><time>2026-03-29T15:00:23.999Z</time></trkpt><trkpt lat="42.137333095697436" lon="12.959753675839082"><ele>680.3333333333334</ele><time>2026-03-29T15:00:25.999Z</time></trkpt><trkpt lat="42.13728757782303" lon="12.959688376954603"><ele>680.0</ele><time>2026-03-29T15:00:52.999Z</time></trkpt><trkpt lat="42.137276968943276" lon="12.95954699438751"><ele>679.6666666666667</ele><time>2026-03-29T15:01:28Z</time></trkpt><trkpt lat="42.137278869039974" lon="12.959445461550578"><ele>679.3333333333334</ele><time>2026-03-29T15:01:29Z</time></trkpt><trkpt lat="42.13725885159563" lon="12.959340067120644"><ele>679.0</ele><time>2026-03-29T15:01:30Z</time></trkpt><trkpt lat="42.13723740380171" lon="12.959222503109398"><ele>678.5</ele><time>2026-03-29T15:01:31Z</time></trkpt><trkpt lat="42.13721346171757" lon="12.9590932237932"><ele>678.0</ele><time>2026-03-29T15:01:32Z</time></trkpt><trkpt lat="42.13718814626721" lon="12.958943476140046"><ele>677.5</ele><time>2026-03-29T15:01:33Z</time></trkpt><trkpt lat="42.13715315680006" lon="12.958766915096227"><ele>677.0</ele><time>2026-03-29T15:01:34Z</time></trkpt><trkpt lat="42.13711836374629" lon="12.95858318292935"><ele>677.0</ele><time>2026-03-29T15:01:35Z</time></trkpt><trkpt lat="42.137086067288585" lon="12.958403125687676"><ele>677.0</ele><time>2026-03-29T15:01:36Z</time></trkpt><trkpt lat="42.137061205956996" lon="12.958246512829467"><ele>677.0</ele><time>2026-03-29T15:01:37Z</time></trkpt><trkpt lat="42.13703544713628" lon="12.958104536329834"><ele>677.0</ele><time>2026-03-29T15:01:38Z</time></trkpt><trkpt lat="42.13701095970187" lon="12.957966252496405"><ele>676.2</ele><time>2026-03-29T15:01:39Z</time></trkpt><trkpt lat="42.136986256824265" lon="12.957844579876099"><ele>675.4000000000001</ele><time>2026-03-29T15:01:40Z</time></trkpt><trkpt lat="42.13695867678663" lon="12.957740158685192"><ele>674.5999999999999</ele><time>2026-03-29T15:01:41Z</time></trkpt><trkpt lat="42.136935434395745" lon="12.957655685538967"><ele>673.8</ele><time>2026-03-29T15:01:42Z</time></trkpt><trkpt lat="42.13688982112348" lon="12.957503674635978"><ele>673.0</ele><time>2026-03-29T15:01:44Z</time></trkpt><trkpt lat="42.13682166789787" lon="12.957359482781715"><ele>672.5</ele><time>2026-03-29T15:01:46Z</time></trkpt><trkpt lat="42.13674194010883" lon="12.957199410285977"><ele>672.0</ele><time>2026-03-29T15:01:48Z</time></trkpt><trkpt lat="42.136695435227054" lon="12.957082365190528"><ele>671.5</ele><time>2026-03-29T15:01:49Z</time></trkpt><trkpt lat="42.13665559882243" lon="12.95694268468047"><ele>671.0</ele><time>2026-03-29T15:01:50Z</time></trkpt><trkpt lat="42.136626274263065" lon="12.956804138338946"><ele>672.0</ele><time>2026-03-29T15:01:51Z</time></trkpt><trkpt lat="42.136617660898196" lon="12.956660484547893"><ele>673.0</ele><time>2026-03-29T15:01:52Z</time></trkpt><trkpt lat="42.13662428108232" lon="12.956512565248095"><ele>674.0</ele><time>2026-03-29T15:01:53Z</time></trkpt><trkpt lat="42.13664167418345" lon="12.95636438782817"><ele>675.0</ele><time>2026-03-29T15:01:54Z</time></trkpt><trkpt lat="42.13666684190832" lon="12.956214662295364"><ele>676.0</ele><time>2026-03-29T15:01:55Z</time></trkpt><trkpt lat="42.13669492669625" lon="12.956076968826924"><ele>676.0</ele><time>2026-03-29T15:01:56Z</time></trkpt><trkpt lat="42.13673642589058" lon="12.955953429291942"><ele>676.0</ele><time>2026-03-29T15:01:57Z</time></trkpt><trkpt lat="42.13677962407293" lon="12.955829885282336"><ele>676.0</ele><time>2026-03-29T15:01:58Z</time></trkpt><trkpt lat="42.13681946909075" lon="12.955721700611786"><ele>676.0</ele><time>2026-03-29T15:01:59Z</time></trkpt><trkpt lat="42.13685446233726" lon="12.955618068786373"><ele>676.0</ele><time>2026-03-29T15:02:00Z</time></trkpt><trkpt lat="42.13687237016708" lon="12.955511406876735"><ele>677.1999999999999</ele><time>2026-03-29T15:02:01Z</time></trkpt><trkpt lat="42.136851711491204" lon="12.955415098466457"><ele>678.4</ele><time>2026-03-29T15:02:02Z</time></trkpt><trkpt lat="42.13679497683574" lon="12.955326565821435"><ele>679.6</ele><time>2026-03-29T15:02:03Z</time></trkpt><trkpt lat="42.13671633295206" lon="12.95521739926173"><ele>680.8</ele><time>2026-03-29T15:02:04Z</time></trkpt><trkpt lat="42.1366193357487" lon="12.955097676536463"><ele>682.0</ele><time>2026-03-29T15:02:05Z</time></trkpt><trkpt lat="42.136519093837265" lon="12.95493664721732"><ele>682.0</ele><time>2026-03-29T15:02:06Z</time></trkpt><trkpt lat="42.136405501742004" lon="12.95480318197895"><ele>682.0</ele><time>2026-03-29T15:02:07Z</time></trkpt><trkpt lat="42.13628675963979" lon="12.954686216085564"><ele>682.0</ele><time>2026-03-29T15:02:08Z</time></trkpt><trkpt lat="42.13620894944668" lon="12.954569438326002"><ele>682.0</ele><time>2026-03-29T15:02:09Z</time></trkpt><trkpt lat="42.13611373407928" lon="12.954414110383967"><ele>682.0</ele><time>2026-03-29T15:02:10Z</time></trkpt><trkpt lat="42.13600843585471" lon="12.954280566805274"><ele>682.0</ele><time>2026-03-29T15:02:11Z</time></trkpt><trkpt lat="42.13590042039173" lon="12.954161282076615"><ele>682.0</ele><time>2026-03-29T15:02:12Z</time></trkpt><trkpt lat="42.13581144469655" lon="12.954039688031932"><ele>682.0</ele><time>2026-03-29T15:02:13Z</time></trkpt><trkpt lat="42.13572908983434" lon="12.953920563440084"><ele>683.25</ele><time>2026-03-29T15:02:14Z</time></trkpt><trkpt lat="42.13561544438729" lon="12.95380323049503"><ele>684.5</ele><time>2026-03-29T15:02:15Z</time></trkpt><trkpt lat="42.13549211729709" lon="12.953738558101666"><ele>685.75</ele><time>2026-03-29T15:02:15.999Z</time></trkpt><trkpt lat="42.13539990109279" lon="12.953617406561476"><ele>687.0</ele><time>2026-03-29T15:02:16.999Z</time></trkpt><trkpt lat="42.135329637474854" lon="12.95346705301067"><ele>688.75</ele><time>2026-03-29T15:02:17.999Z</time></trkpt><trkpt lat="42.135231409907426" lon="12.95333649856563"><ele>690.5</ele><time>2026-03-29T15:02:18.999Z</time></trkpt><trkpt lat="42.1351325643093" lon="12.95320745075389"><ele>692.25</ele><time>2026-03-29T15:02:19.999Z</time></trkpt><trkpt lat="42.13506272009396" lon="12.953062795174727"><ele>694.0</ele><time>2026-03-29T15:02:20.999Z</time></trkpt><trkpt lat="42.13496721343605" lon="12.952940884684116"><ele>694.3333333333334</ele><time>2026-03-29T15:02:21.999Z</time></trkpt><trkpt lat="42.13487956980668" lon="12.952788946777487"><ele>694.6666666666666</ele><time>2026-03-29T15:02:22.999Z</time></trkpt><trkpt lat="42.134753656144966" lon="12.952621625798036"><ele>695.0</ele><time>2026-03-29T15:02:23.999Z</time></trkpt><trkpt lat="42.13465274018672" lon="12.95242248554312"><ele>696.0</ele><time>2026-03-29T15:02:24.999Z</time></trkpt><trkpt lat="42.13454692551256" lon="12.952270884479901"><ele>697.0</ele><time>2026-03-29T15:02:25.999Z</time></trkpt><trkpt lat="42.1344280717399" lon="12.952095301641458"><ele>698.0</ele><time>2026-03-29T15:02:26.999Z</time></trkpt><trkpt lat="42.134316654376995" lon="12.951941126126636"><ele>698.0</ele><time>2026-03-29T15:02:27.999Z</time></trkpt><trkpt lat="42.134191940241045" lon="12.951837789953478"><ele>698.0</ele><time>2026-03-29T15:02:28.999Z</time></trkpt><trkpt lat="42.13410054871434" lon="12.951705436869402"><ele>698.0</ele><time>2026-03-29T15:02:29.999Z</time></trkpt><trkpt lat="42.134034769500715" lon="12.951566211494463"><ele>698.0</ele><time>2026-03-29T15:02:30.999Z</time></trkpt><trkpt lat="42.13394380543667" lon="12.951431572089236"><ele>700.0</ele><time>2026-03-29T15:02:31.999Z</time></trkpt><trkpt lat="42.13385201463279" lon="12.951299947485033"><ele>702.0</ele><time>2026-03-29T15:02:32.999Z</time></trkpt><trkpt lat="42.133742579394756" lon="12.951163018569623"><ele>704.0</ele><time>2026-03-29T15:02:33.999Z</time></trkpt><trkpt lat="42.13363690931999" lon="12.951024023709142"><ele>706.0</ele><time>2026-03-29T15:02:34.999Z</time></trkpt><trkpt lat="42.13354339863257" lon="12.950897513827806"><ele>707.25</ele><time>2026-03-29T15:02:35.999Z</time></trkpt><trkpt lat="42.13346110922106" lon="12.950767495368552"><ele>708.5</ele><time>2026-03-29T15:02:36.999Z</time></trkpt><trkpt lat="42.1333658383413" lon="12.950630337245244"><ele>709.75</ele><time>2026-03-29T15:02:37.999Z</time></trkpt><trkpt lat="42.13328789204675" lon="12.950517634783205"><ele>711.0</ele><time>2026-03-29T15:02:38.999Z</time></trkpt><trkpt lat="42.13320613130585" lon="12.950402763891214"><ele>711.1999999999999</ele><time>2026-03-29T15:02:39.999Z</time></trkpt><trkpt lat="42.13312581748901" lon="12.950296108521194"><ele>711.4</ele><time>2026-03-29T15:02:40.999Z</time></trkpt><trkpt lat="42.13305872029381" lon="12.950205512010145"><ele>711.6</ele><time>2026-03-29T15:02:41.999Z</time></trkpt><trkpt lat="42.132992095391344" lon="12.950125050692458"><ele>711.8</ele><time>2026-03-29T15:02:42.999Z</time></trkpt><trkpt lat="42.132938822100684" lon="12.950056911239038"><ele>712.0</ele><time>2026-03-29T15:02:43.999Z</time></trkpt><trkpt lat="42.132875934646876" lon="12.949987358059946"><ele>713.5</ele><time>2026-03-29T15:02:45.999Z</time></trkpt><trkpt lat="42.13282466961966" lon="12.949934884217283"><ele>715.0</ele><time>2026-03-29T15:03:26Z</time></trkpt><trkpt lat="42.13275438955954" lon="12.949865885548844"><ele>716.5</ele><time>2026-03-29T15:03:33Z</time></trkpt><trkpt lat="42.132550312518056" lon="12.949629879752422"><ele>718.0</ele><time>2026-03-29T15:03:36Z</time></trkpt><trkpt lat="42.13245465121867" lon="12.949510692664502"><ele>721.25</ele><time>2026-03-29T15:03:37Z</time></trkpt><trkpt lat="42.13236726202268" lon="12.949375042338184"><ele>724.5</ele><time>2026-03-29T15:03:38Z</time></trkpt><trkpt lat="42.132289070362454" lon="12.949249972652133"><ele>727.75</ele><time>2026-03-29T15:03:39Z</time></trkpt><trkpt lat="42.132204756763336" lon="12.949118666931426"><ele>731.0</ele><time>2026-03-29T15:03:40Z</time></trkpt><trkpt lat="42.13210975862095" lon="12.948987518194873"><ele>731.0</ele><time>2026-03-29T15:03:41Z</time></trkpt><trkpt lat="42.13202757122193" lon="12.948857398197992"><ele>731.0</ele><time>2026-03-29T15:03:42Z</time></trkpt><trkpt lat="42.131930702448436" lon="12.94870675840225"><ele>731.0</ele><time>2026-03-29T15:03:43Z</time></trkpt><trkpt lat="42.13181055311055" lon="12.948529187766296"><ele>731.0</ele><time>2026-03-29T15:03:44Z</time></trkpt><trkpt lat="42.131718435551484" lon="12.94838170634713"><ele>731.0</ele><time>2026-03-29T15:03:45Z</time></trkpt><trkpt lat="42.13164856273904" lon="12.94825733288466"><ele>731.0</ele><time>2026-03-29T15:03:46Z</time></trkpt><trkpt lat="42.13157986811166" lon="12.948126396817655"><ele>731.0</ele><time>2026-03-29T15:03:47Z</time></trkpt><trkpt lat="42.13151303916164" lon="12.94795840699437"><ele>732.75</ele><time>2026-03-29T15:03:48Z</time></trkpt><trkpt lat="42.131455637962496" lon="12.947777909894029"><ele>734.5</ele><time>2026-03-29T15:03:49Z</time></trkpt><trkpt lat="42.13140704134353" lon="12.94758972964849"><ele>736.25</ele><time>2026-03-29T15:03:50Z</time></trkpt><trkpt lat="42.131365265267085" lon="12.947435794307536"><ele>738.0</ele><time>2026-03-29T15:03:51Z</time></trkpt><trkpt lat="42.13133249930867" lon="12.947297235637938"><ele>738.0</ele><time>2026-03-29T15:03:52Z</time></trkpt><trkpt lat="42.13129813839205" lon="12.947125786703575"><ele>738.0</ele><time>2026-03-29T15:03:53Z</time></trkpt><trkpt lat="42.13126419618552" lon="12.946959778839618"><ele>738.0</ele><time>2026-03-29T15:03:54Z</time></trkpt><trkpt lat="42.13122753009399" lon="12.94680215985914"><ele>738.0</ele><time>2026-03-29T15:03:55Z</time></trkpt><trkpt lat="42.131196960537416" lon="12.946619998676061"><ele>736.0</ele><time>2026-03-29T15:03:56Z</time></trkpt><trkpt lat="42.13116951776541" lon="12.946438416116608"><ele>734.0</ele><time>2026-03-29T15:03:57Z</time></trkpt><trkpt lat="42.131150846123674" lon="12.946268823791057"><ele>732.0</ele><time>2026-03-29T15:03:58Z</time></trkpt><trkpt lat="42.13116008198162" lon="12.946118482236256"><ele>730.0</ele><time>2026-03-29T15:03:59Z</time></trkpt><trkpt lat="42.131177989937804" lon="12.945947700005823"><ele>728.75</ele><time>2026-03-29T15:04:00Z</time></trkpt><trkpt lat="42.13121821394055" lon="12.945762901728926"><ele>727.5</ele><time>2026-03-29T15:04:01Z</time></trkpt><trkpt lat="42.131277858379995" lon="12.94558492560959"><ele>726.25</ele><time>2026-03-29T15:04:02Z</time></trkpt><trkpt lat="42.13134722059742" lon="12.945422175618278"><ele>725.0</ele><time>2026-03-29T15:04:03Z</time></trkpt><trkpt lat="42.13142748998626" lon="12.945287677628984"><ele>725.0</ele><time>2026-03-29T15:04:04Z</time></trkpt><trkpt lat="42.13152163491493" lon="12.945147789048281"><ele>725.0</ele><time>2026-03-29T15:04:05Z</time></trkpt><trkpt lat="42.13162257381908" lon="12.94500499937025"><ele>725.0</ele><time>2026-03-29T15:04:06Z</time></trkpt><trkpt lat="42.131708124575034" lon="12.944862486533468"><ele>725.0</ele><time>2026-03-29T15:04:07Z</time></trkpt><trkpt lat="42.131767911372684" lon="12.944744474848784"><ele>724.0</ele><time>2026-03-29T15:04:08Z</time></trkpt><trkpt lat="42.13178951795932" lon="12.944627263543648"><ele>723.0</ele><time>2026-03-29T15:04:09Z</time></trkpt><trkpt lat="42.13178667485212" lon="12.944498960939105"><ele>722.0</ele><time>2026-03-29T15:04:10Z</time></trkpt><trkpt lat="42.131750627089644" lon="12.944358329177584"><ele>721.0</ele><time>2026-03-29T15:04:11Z</time></trkpt><trkpt lat="42.131699229519285" lon="12.944204188449445"><ele>720.0</ele><time>2026-03-29T15:04:12Z</time></trkpt><trkpt lat="42.131664883496846" lon="12.944030439896121"><ele>718.5</ele><time>2026-03-29T15:04:13Z</time></trkpt><trkpt lat="42.13160410828682" lon="12.9438752288342"><ele>717.0</ele><time>2026-03-29T15:04:14Z</time></trkpt><trkpt lat="42.13155022602131" lon="12.943741378447466"><ele>715.5</ele><time>2026-03-29T15:04:15Z</time></trkpt><trkpt lat="42.13150148710924" lon="12.943606263868729"><ele>714.0</ele><time>2026-03-29T15:04:15.999Z</time></trkpt><trkpt lat="42.13143775598511" lon="12.943491554442481"><ele>714.5</ele><time>2026-03-29T15:04:16.999Z</time></trkpt><trkpt lat="42.131344129272634" lon="12.943430442509488"><ele>715.0</ele><time>2026-03-29T15:04:17.999Z</time></trkpt><trkpt lat="42.13124841345685" lon="12.943340003841383"><ele>715.5</ele><time>2026-03-29T15:04:18.999Z</time></trkpt><trkpt lat="42.131125094544416" lon="12.9432649816024"><ele>716.0</ele><time>2026-03-29T15:04:19.999Z</time></trkpt><trkpt lat="42.1309919405909" lon="12.943200168079178"><ele>716.0</ele><time>2026-03-29T15:04:20.999Z</time></trkpt><trkpt lat="42.13086414701695" lon="12.943153034823245"><ele>716.0</ele><time>2026-03-29T15:04:21.999Z</time></trkpt><trkpt lat="42.13074465714854" lon="12.943106141619118"><ele>716.0</ele><time>2026-03-29T15:04:22.999Z</time></trkpt><trkpt lat="42.13067678563321" lon="12.942952113210701"><ele>716.0</ele><time>2026-03-29T15:04:23.999Z</time></trkpt><trkpt lat="42.130573085301485" lon="12.942829518724592"><ele>715.25</ele><time>2026-03-29T15:04:24.999Z</time></trkpt><trkpt lat="42.130474644008956" lon="12.942719923069577"><ele>714.5</ele><time>2026-03-29T15:04:25.999Z</time></trkpt><trkpt lat="42.13036812688336" lon="12.942637291333233"><ele>713.75</ele><time>2026-03-29T15:04:26.999Z</time></trkpt><trkpt lat="42.13025375758978" lon="12.942613934665866"><ele>713.0</ele><time>2026-03-29T15:04:27.999Z</time></trkpt><trkpt lat="42.130139132778204" lon="12.942590998095973"><ele>715.2</ele><time>2026-03-29T15:04:28.999Z</time></trkpt><trkpt lat="42.13004940025672" lon="12.942512888184199"><ele>717.4</ele><time>2026-03-29T15:04:29.999Z</time></trkpt><trkpt lat="42.12999388397474" lon="12.942396740135914"><ele>719.6</ele><time>2026-03-29T15:04:30.999Z</time></trkpt><trkpt lat="42.12994060892881" lon="12.942267660633012"><ele>721.8000000000001</ele><time>2026-03-29T15:04:31.999Z</time></trkpt><trkpt lat="42.12991307648749" lon="12.94212057283405"><ele>724.0</ele><time>2026-03-29T15:04:32.999Z</time></trkpt><trkpt lat="42.12990484798168" lon="12.9419559906041"><ele>725.25</ele><time>2026-03-29T15:04:33.999Z</time></trkpt><trkpt lat="42.12983970272295" lon="12.941807559828144"><ele>726.5</ele><time>2026-03-29T15:04:34.999Z</time></trkpt><trkpt lat="42.12978186439283" lon="12.94165226335363"><ele>727.75</ele><time>2026-03-29T15:04:35.999Z</time></trkpt><trkpt lat="42.1297254067902" lon="12.941483892673135"><ele>729.0</ele><time>2026-03-29T15:04:36.999Z</time></trkpt><trkpt lat="42.12964228799288" lon="12.941344134851178"><ele>732.0</ele><time>2026-03-29T15:04:37.999Z</time></trkpt><trkpt lat="42.129550427767526" lon="12.941221266732905"><ele>735.0</ele><time>2026-03-29T15:04:38.999Z</time></trkpt><trkpt lat="42.12947568514233" lon="12.941135421611476"><ele>738.0</ele><time>2026-03-29T15:04:39.999Z</time></trkpt><trkpt lat="42.129410223674796" lon="12.941065081869267"><ele>741.0</ele><time>2026-03-29T15:04:41.999Z</time></trkpt><trkpt lat="42.129255211445766" lon="12.941185681016222"><ele>741.0</ele><time>2026-03-29T15:04:43.999Z</time></trkpt><trkpt lat="42.12917966567299" lon="12.941276131969715"><ele>741.0</ele><time>2026-03-29T15:04:44.999Z</time></trkpt><trkpt lat="42.12910741977172" lon="12.941359642697751"><ele>741.0</ele><time>2026-03-29T15:04:45.999Z</time></trkpt><trkpt lat="42.129038739285704" lon="12.941437805241655"><ele>741.0</ele><time>2026-03-29T15:04:46.999Z</time></trkpt><trkpt lat="42.12897268146282" lon="12.941507652143084"><ele>741.0</ele><time>2026-03-29T15:04:47.999Z</time></trkpt><trkpt lat="42.12889475419022" lon="12.941575492362851"><ele>742.0</ele><time>2026-03-29T15:04:48.999Z</time></trkpt><trkpt lat="42.128794809804425" lon="12.941665524702728"><ele>743.0</ele><time>2026-03-29T15:04:49.999Z</time></trkpt><trkpt lat="42.12868715154299" lon="12.941701752247246"><ele>744.0</ele><time>2026-03-29T15:04:50.999Z</time></trkpt><trkpt lat="42.12860065164603" lon="12.941737497569557"><ele>745.0</ele><time>2026-03-29T15:04:51.999Z</time></trkpt><trkpt lat="42.1285263892962" lon="12.941746367470293"><ele>746.0</ele><time>2026-03-29T15:04:53.999Z</time></trkpt><trkpt lat="42.128535171273924" lon="12.941563970520553"><ele>746.0</ele><time>2026-03-29T15:04:56.999Z</time></trkpt><trkpt lat="42.1285475672532" lon="12.941444294123636"><ele>746.0</ele><time>2026-03-29T15:04:57.999Z</time></trkpt><trkpt lat="42.12853570589524" lon="12.941345459027133"><ele>746.0</ele><time>2026-03-29T15:04:58.999Z</time></trkpt><trkpt lat="42.12853297231977" lon="12.941246810720381"><ele>746.0</ele><time>2026-03-29T15:04:59.999Z</time></trkpt><trkpt lat="42.12850489414563" lon="12.941146751323677"><ele>746.0</ele><time>2026-03-29T15:05:00.999Z</time></trkpt><trkpt lat="42.12845538857968" lon="12.94101978876338"><ele>746.0</ele><time>2026-03-29T15:05:01.999Z</time></trkpt><trkpt lat="42.128406723249256" lon="12.940905205213886"><ele>748.5</ele><time>2026-03-29T15:05:02.999Z</time></trkpt><trkpt lat="42.12834082316095" lon="12.940771537259181"><ele>751.0</ele><time>2026-03-29T15:05:03.999Z</time></trkpt><trkpt lat="42.128303558832016" lon="12.940627249555366"><ele>753.5</ele><time>2026-03-29T15:05:04.999Z</time></trkpt><trkpt lat="42.12830598587928" lon="12.940484891475029"><ele>756.0</ele><time>2026-03-29T15:05:05.999Z</time></trkpt><trkpt lat="42.12831444000122" lon="12.94032237708622"><ele>756.0</ele><time>2026-03-29T15:05:06.999Z</time></trkpt><trkpt lat="42.12832072902162" lon="12.94013635359238"><ele>756.0</ele><time>2026-03-29T15:05:07.999Z</time></trkpt><trkpt lat="42.12834475868423" lon="12.939947187567094"><ele>756.0</ele><time>2026-03-29T15:05:08.999Z</time></trkpt><trkpt lat="42.128378956925985" lon="12.939756432246941"><ele>756.0</ele><time>2026-03-29T15:05:09.999Z</time></trkpt><trkpt lat="42.128450934034746" lon="12.939581835249474"><ele>757.75</ele><time>2026-03-29T15:05:10.999Z</time></trkpt><trkpt lat="42.12852289124664" lon="12.939422790613854"><ele>759.5</ele><time>2026-03-29T15:05:11.999Z</time></trkpt><trkpt lat="42.12862159810568" lon="12.939295499728097"><ele>761.25</ele><time>2026-03-29T15:05:13Z</time></trkpt><trkpt lat="42.128721635243934" lon="12.939158626704367"><ele>763.0</ele><time>2026-03-29T15:05:14Z</time></trkpt><trkpt lat="42.12881984124733" lon="12.939024054753082"><ele>764.75</ele><time>2026-03-29T15:05:15Z</time></trkpt><trkpt lat="42.12893546849387" lon="12.938896213063497"><ele>766.5</ele><time>2026-03-29T15:05:16Z</time></trkpt><trkpt lat="42.12905648201991" lon="12.938793707998935"><ele>768.25</ele><time>2026-03-29T15:05:17Z</time></trkpt><trkpt lat="42.129176988924975" lon="12.938693380519522"><ele>770.0</ele><time>2026-03-29T15:05:18Z</time></trkpt><trkpt lat="42.12926664314615" lon="12.938565962986928"><ele>771.25</ele><time>2026-03-29T15:05:19Z</time></trkpt><trkpt lat="42.12936448270983" lon="12.938442880989324"><ele>772.5</ele><time>2026-03-29T15:05:20Z</time></trkpt><trkpt lat="42.129477785858505" lon="12.938327001426908"><ele>773.75</ele><time>2026-03-29T15:05:21Z</time></trkpt><trkpt lat="42.12960104313968" lon="12.938223883776915"><ele>775.0</ele><time>2026-03-29T15:05:22Z</time></trkpt><trkpt lat="42.12971015638979" lon="12.938129552335008"><ele>779.25</ele><time>2026-03-29T15:05:23Z</time></trkpt><trkpt lat="42.12981894384678" lon="12.938050185736161"><ele>783.5</ele><time>2026-03-29T15:05:24Z</time></trkpt><trkpt lat="42.129914334003296" lon="12.937950669887387"><ele>787.75</ele><time>2026-03-29T15:05:25Z</time></trkpt><trkpt lat="42.13001797682533" lon="12.937882091693465"><ele>792.0</ele><time>2026-03-29T15:05:26Z</time></trkpt><trkpt lat="42.13011820161426" lon="12.937839500691357"><ele>793.75</ele><time>2026-03-29T15:05:27Z</time></trkpt><trkpt lat="42.130239272630554" lon="12.937739279671899"><ele>795.5</ele><time>2026-03-29T15:05:29Z</time></trkpt><trkpt lat="42.130343741873986" lon="12.93775932060076"><ele>797.25</ele><time>2026-03-29T15:05:30Z</time></trkpt><trkpt lat="42.13047241328546" lon="12.93773663880903"><ele>799.0</ele><time>2026-03-29T15:05:31Z</time></trkpt><trkpt lat="42.13061082877033" lon="12.937737527576552"><ele>799.5</ele><time>2026-03-29T15:05:32Z</time></trkpt><trkpt lat="42.13075165982908" lon="12.937724735663913"><ele>800.0</ele><time>2026-03-29T15:05:33Z</time></trkpt><trkpt lat="42.130890438132994" lon="12.937713772236982"><ele>800.5</ele><time>2026-03-29T15:05:34Z</time></trkpt><trkpt lat="42.131024188239195" lon="12.937708856254575"><ele>801.0</ele><time>2026-03-29T15:05:35Z</time></trkpt><trkpt lat="42.13113822597506" lon="12.93769847735845"><ele>801.0</ele><time>2026-03-29T15:05:36Z</time></trkpt><trkpt lat="42.13123365387305" lon="12.93768420143912"><ele>801.0</ele><time>2026-03-29T15:05:37Z</time></trkpt><trkpt lat="42.13131271839193" lon="12.937699137901262"><ele>801.0</ele><time>2026-03-29T15:05:38Z</time></trkpt><trkpt lat="42.13139339910141" lon="12.937693564560973"><ele>801.0</ele><time>2026-03-29T15:05:40Z</time></trkpt><trkpt lat="42.13149259395447" lon="12.937723603293644"><ele>801.0</ele><time>2026-03-29T15:19:18.999Z</time></trkpt><trkpt lat="42.1315902254929" lon="12.937711803085943"><ele>803.4</ele><time>2026-03-29T15:19:20.999Z</time></trkpt><trkpt lat="42.13165753829576" lon="12.937670634432783"><ele>805.8</ele><time>2026-03-29T15:19:22.999Z</time></trkpt><trkpt lat="42.13167903490588" lon="12.937560099100528"><ele>808.1999999999999</ele><time>2026-03-29T15:19:24.999Z</time></trkpt><trkpt lat="42.13168755564425" lon="12.937390749499608"><ele>810.5999999999999</ele><time>2026-03-29T15:19:26.999Z</time></trkpt><trkpt lat="42.13166541539203" lon="12.937210173247761"><ele>813.0</ele><time>2026-03-29T15:19:28.999Z</time></trkpt><trkpt lat="42.131653705913685" lon="12.937057110270858"><ele>814.2</ele><time>2026-03-29T15:19:29.999Z</time></trkpt><trkpt lat="42.131640265407796" lon="12.936943020979477"><ele>815.4</ele><time>2026-03-29T15:19:30.999Z</time></trkpt><trkpt lat="42.131667289517296" lon="12.936865386949002"><ele>816.6</ele><time>2026-03-29T15:19:31.999Z</time></trkpt><trkpt lat="42.13174222697706" lon="12.936738330005744"><ele>817.8000000000001</ele><time>2026-03-29T15:19:33.999Z</time></trkpt><trkpt lat="42.1318451385548" lon="12.93678665991166"><ele>819.0</ele><time>2026-03-29T15:19:34.999Z</time></trkpt><trkpt lat="42.13191371629198" lon="12.936760679655297"><ele>819.0</ele><time>2026-03-29T15:19:35.999Z</time></trkpt><trkpt lat="42.13201112446324" lon="12.936755554811233"><ele>819.0</ele><time>2026-03-29T15:19:36.999Z</time></trkpt><trkpt lat="42.13211694505755" lon="12.936772344607014"><ele>819.0</ele><time>2026-03-29T15:19:37.999Z</time></trkpt><trkpt lat="42.132200322046785" lon="12.936753929728166"><ele>819.0</ele><time>2026-03-29T15:19:38.999Z</time></trkpt><trkpt lat="42.132280080398466" lon="12.936742939601476"><ele>819.0</ele><time>2026-03-29T15:19:39.999Z</time></trkpt><trkpt lat="42.13236794260511" lon="12.93674420957582"><ele>819.6666666666666</ele><time>2026-03-29T15:19:40.999Z</time></trkpt><trkpt lat="42.132447372790935" lon="12.93672832135479"><ele>820.3333333333333</ele><time>2026-03-29T15:19:41.999Z</time></trkpt><trkpt lat="42.13252420625295" lon="12.9367081758363"><ele>821.0</ele><time>2026-03-29T15:19:42.999Z</time></trkpt><trkpt lat="42.13260730927753" lon="12.936677769551045"><ele>821.6666666666666</ele><time>2026-03-29T15:19:43.999Z</time></trkpt><trkpt lat="42.13269156689258" lon="12.93662075720139"><ele>822.3333333333333</ele><time>2026-03-29T15:19:44.999Z</time></trkpt><trkpt lat="42.132760107158354" lon="12.936547638632227"><ele>823.0</ele><time>2026-03-29T15:19:45.999Z</time></trkpt><trkpt lat="42.13282465896057" lon="12.936502773082015"><ele>826.0</ele><time>2026-03-29T15:19:46.999Z</time></trkpt><trkpt lat="42.132853147537105" lon="12.93635784191978"><ele>829.0</ele><time>2026-03-29T15:19:47.999Z</time></trkpt><trkpt lat="42.13289891667566" lon="12.936197640443284"><ele>832.0</ele><time>2026-03-29T15:19:48.999Z</time></trkpt><trkpt lat="42.132955457098475" lon="12.93603145509495"><ele>835.0</ele><time>2026-03-29T15:19:49.999Z</time></trkpt><trkpt lat="42.13299380286395" lon="12.935838570323757"><ele>837.5</ele><time>2026-03-29T15:19:51Z</time></trkpt><trkpt lat="42.13301957580974" lon="12.93566030580085"><ele>840.0</ele><time>2026-03-29T15:19:52Z</time></trkpt><trkpt lat="42.13301404451948" lon="12.935484140011491"><ele>842.5</ele><time>2026-03-29T15:19:53Z</time></trkpt><trkpt lat="42.13298358337242" lon="12.935313013709255"><ele>845.0</ele><time>2026-03-29T15:19:54Z</time></trkpt><trkpt lat="42.132955940600574" lon="12.935119026563337"><ele>846.75</ele><time>2026-03-29T15:19:55Z</time></trkpt><trkpt lat="42.13290738138615" lon="12.934942894125271"><ele>848.5</ele><time>2026-03-29T15:19:56Z</time></trkpt><trkpt lat="42.132902469849896" lon="12.93478513803699"><ele>850.25</ele><time>2026-03-29T15:19:57Z</time></trkpt><trkpt lat="42.13293502476924" lon="12.934648456971"><ele>852.0</ele><time>2026-03-29T15:19:58Z</time></trkpt><trkpt lat="42.13299133142934" lon="12.934523513545386"><ele>852.0</ele><time>2026-03-29T15:19:59Z</time></trkpt><trkpt lat="42.13305122087604" lon="12.934379880393996"><ele>852.0</ele><time>2026-03-29T15:20:00Z</time></trkpt><trkpt lat="42.13314323874113" lon="12.934282038295507"><ele>852.0</ele><time>2026-03-29T15:20:01Z</time></trkpt><trkpt lat="42.13327132348129" lon="12.934227637105327"><ele>852.0</ele><time>2026-03-29T15:20:02Z</time></trkpt><trkpt lat="42.13339159765016" lon="12.934167408341708"><ele>851.0</ele><time>2026-03-29T15:20:03Z</time></trkpt><trkpt lat="42.13351668827131" lon="12.934106275675662"><ele>850.0</ele><time>2026-03-29T15:20:04Z</time></trkpt><trkpt lat="42.13363174133163" lon="12.934048279252746"><ele>849.0</ele><time>2026-03-29T15:20:05Z</time></trkpt><trkpt lat="42.13372754421238" lon="12.93398252908337"><ele>848.0</ele><time>2026-03-29T15:20:06Z</time></trkpt><trkpt lat="42.13379609189461" lon="12.933908209201947"><ele>848.0</ele><time>2026-03-29T15:20:07Z</time></trkpt><trkpt lat="42.1338462737096" lon="12.933805511940061"><ele>848.0</ele><time>2026-03-29T15:20:08Z</time></trkpt><trkpt lat="42.13387640439155" lon="12.933656389120584"><ele>848.0</ele><time>2026-03-29T15:20:09Z</time></trkpt><trkpt lat="42.1338878592903" lon="12.933474100827782"><ele>848.0</ele><time>2026-03-29T15:20:10Z</time></trkpt><trkpt lat="42.133883975934275" lon="12.933268543611183"><ele>849.3333333333334</ele><time>2026-03-29T15:20:11Z</time></trkpt><trkpt lat="42.133882010776034" lon="12.933055046694983"><ele>850.6666666666667</ele><time>2026-03-29T15:20:12Z</time></trkpt><trkpt lat="42.133893504804384" lon="12.932840394846128"><ele>852.0</ele><time>2026-03-29T15:20:13Z</time></trkpt><trkpt lat="42.13392580652724" lon="12.932633101389346"><ele>851.25</ele><time>2026-03-29T15:20:14Z</time></trkpt><trkpt lat="42.133944307015646" lon="12.93246881622327"><ele>850.5</ele><time>2026-03-29T15:20:15Z</time></trkpt><trkpt lat="42.13393356140415" lon="12.93232533643805"><ele>849.75</ele><time>2026-03-29T15:20:16Z</time></trkpt><trkpt lat="42.13387816182355" lon="12.932173226460908"><ele>849.0</ele><time>2026-03-29T15:20:17Z</time></trkpt><trkpt lat="42.133789671492735" lon="12.932023308558122"><ele>849.0</ele><time>2026-03-29T15:20:18Z</time></trkpt><trkpt lat="42.13371321844456" lon="12.931838330968665"><ele>849.0</ele><time>2026-03-29T15:20:19Z</time></trkpt><trkpt lat="42.133640985980335" lon="12.931656534264338"><ele>849.0</ele><time>2026-03-29T15:20:20Z</time></trkpt><trkpt lat="42.13361757205603" lon="12.931450815109512"><ele>847.3333333333333</ele><time>2026-03-29T15:20:21Z</time></trkpt><trkpt lat="42.13360105799151" lon="12.931233211052866"><ele>845.6666666666666</ele><time>2026-03-29T15:20:22Z</time></trkpt><trkpt lat="42.13356482314575" lon="12.93101126158509"><ele>844.0</ele><time>2026-03-29T15:20:23Z</time></trkpt><trkpt lat="42.133512470163836" lon="12.930812959765344"><ele>842.0</ele><time>2026-03-29T15:20:24Z</time></trkpt><trkpt lat="42.13346057267069" lon="12.930624127036246"><ele>840.0</ele><time>2026-03-29T15:20:25Z</time></trkpt><trkpt lat="42.13342318735692" lon="12.930457429959006"><ele>838.0</ele><time>2026-03-29T15:20:26Z</time></trkpt><trkpt lat="42.13341409563999" lon="12.930305883378674"><ele>836.0</ele><time>2026-03-29T15:20:27Z</time></trkpt><trkpt lat="42.13345853415244" lon="12.930147333398704"><ele>835.5</ele><time>2026-03-29T15:20:28Z</time></trkpt><trkpt lat="42.133528532694584" lon="12.929979043734457"><ele>835.0</ele><time>2026-03-29T15:20:29Z</time></trkpt><trkpt lat="42.133609235984714" lon="12.929808821345677"><ele>834.5</ele><time>2026-03-29T15:20:30Z</time></trkpt><trkpt lat="42.133651902618816" lon="12.929655804235626"><ele>834.0</ele><time>2026-03-29T15:20:31Z</time></trkpt><trkpt lat="42.133690877677395" lon="12.929520899344464"><ele>834.0</ele><time>2026-03-29T15:20:32Z</time></trkpt><trkpt lat="42.133732828405655" lon="12.929384724928832"><ele>834.0</ele><time>2026-03-29T15:20:33Z</time></trkpt><trkpt lat="42.13374885181349" lon="12.929253953899076"><ele>834.0</ele><time>2026-03-29T15:20:34Z</time></trkpt><trkpt lat="42.133748474669574" lon="12.929125317786815"><ele>834.0</ele><time>2026-03-29T15:20:35Z</time></trkpt><trkpt lat="42.13373564914706" lon="12.929004427363804"><ele>834.0</ele><time>2026-03-29T15:20:36Z</time></trkpt><trkpt lat="42.1337106822652" lon="12.928881564188003"><ele>833.6666666666666</ele><time>2026-03-29T15:20:37Z</time></trkpt><trkpt lat="42.13367791343269" lon="12.92876564016539"><ele>833.3333333333333</ele><time>2026-03-29T15:20:38Z</time></trkpt><trkpt lat="42.133634968029455" lon="12.928650463513778"><ele>833.0</ele><time>2026-03-29T15:20:39Z</time></trkpt><trkpt lat="42.13358448910535" lon="12.928582192129609"><ele>832.6666666666666</ele><time>2026-03-29T15:20:39.999Z</time></trkpt><trkpt lat="42.13361032425953" lon="12.928490137120317"><ele>832.3333333333333</ele><time>2026-03-29T15:20:40.999Z</time></trkpt><trkpt lat="42.133613444761075" lon="12.928403528506577"><ele>832.0</ele><time>2026-03-29T15:20:41.999Z</time></trkpt><trkpt lat="42.13360022513783" lon="12.928315182125939"><ele>829.4000000000001</ele><time>2026-03-29T15:20:42.999Z</time></trkpt><trkpt lat="42.13362103188493" lon="12.928192950465396"><ele>826.8000000000001</ele><time>2026-03-29T15:20:43.999Z</time></trkpt><trkpt lat="42.13362673545412" lon="12.92805700306687"><ele>824.2</ele><time>2026-03-29T15:20:44.999Z</time></trkpt><trkpt lat="42.13364516249189" lon="12.927911725922973"><ele>821.6</ele><time>2026-03-29T15:20:45.999Z</time></trkpt><trkpt lat="42.13367517012506" lon="12.927786187563965"><ele>819.0</ele><time>2026-03-29T15:20:46.999Z</time></trkpt><trkpt lat="42.13369469762806" lon="12.927661796902774"><ele>816.4000000000001</ele><time>2026-03-29T15:20:47.999Z</time></trkpt><trkpt lat="42.133733389141916" lon="12.927542610026608"><ele>813.8</ele><time>2026-03-29T15:20:48.999Z</time></trkpt><trkpt lat="42.13374437744755" lon="12.927416338070799"><ele>811.2</ele><time>2026-03-29T15:20:49.999Z</time></trkpt><trkpt lat="42.13380098384678" lon="12.927260288125403"><ele>808.5999999999999</ele><time>2026-03-29T15:20:50.999Z</time></trkpt><trkpt lat="42.133871420245036" lon="12.92712037984674"><ele>806.0</ele><time>2026-03-29T15:20:51.999Z</time></trkpt><trkpt lat="42.133937116226306" lon="12.926955776496479"><ele>806.0</ele><time>2026-03-29T15:20:52.999Z</time></trkpt><trkpt lat="42.13403858488255" lon="12.926783593165542"><ele>806.0</ele><time>2026-03-29T15:20:53.999Z</time></trkpt><trkpt lat="42.134155665354356" lon="12.926588357991646"><ele>806.0</ele><time>2026-03-29T15:20:54.999Z</time></trkpt><trkpt lat="42.134271401207606" lon="12.92639935491159"><ele>802.0</ele><time>2026-03-29T15:20:55.999Z</time></trkpt><trkpt lat="42.134389187101704" lon="12.926197924927814"><ele>798.0</ele><time>2026-03-29T15:20:56.999Z</time></trkpt><trkpt lat="42.13451752983" lon="12.926023407180354"><ele>794.0</ele><time>2026-03-29T15:20:57.999Z</time></trkpt><trkpt lat="42.13463005221365" lon="12.925847886797678"><ele>793.6666666666667</ele><time>2026-03-29T15:20:58.999Z</time></trkpt><trkpt lat="42.1347420624434" lon="12.925671442309582"><ele>793.3333333333333</ele><time>2026-03-29T15:20:59.999Z</time></trkpt><trkpt lat="42.13485167951247" lon="12.925493263295165"><ele>793.0</ele><time>2026-03-29T15:21:00.999Z</time></trkpt><trkpt lat="42.13496355817734" lon="12.925315257323025"><ele>793.0</ele><time>2026-03-29T15:21:01.999Z</time></trkpt><trkpt lat="42.13507632005931" lon="12.925139760168799"><ele>793.0</ele><time>2026-03-29T15:21:02.999Z</time></trkpt><trkpt lat="42.13518295721737" lon="12.924974415701863"><ele>793.0</ele><time>2026-03-29T15:21:03.999Z</time></trkpt><trkpt lat="42.13527893392723" lon="12.92482950683607"><ele>792.5</ele><time>2026-03-29T15:21:04.999Z</time></trkpt><trkpt lat="42.13536528593079" lon="12.924697771359948"><ele>792.0</ele><time>2026-03-29T15:21:05.999Z</time></trkpt><trkpt lat="42.13544140007535" lon="12.92457461814523"><ele>791.5</ele><time>2026-03-29T15:21:06.999Z</time></trkpt><trkpt lat="42.13551703957442" lon="12.924445216750044"><ele>791.0</ele><time>2026-03-29T15:21:07.999Z</time></trkpt><trkpt lat="42.13558181894697" lon="12.924291399600902"><ele>791.0</ele><time>2026-03-29T15:21:08.999Z</time></trkpt><trkpt lat="42.13561073840041" lon="12.924129877070433"><ele>791.0</ele><time>2026-03-29T15:21:09.999Z</time></trkpt><trkpt lat="42.13559998388245" lon="12.923953119364707"><ele>791.0</ele><time>2026-03-29T15:21:10.999Z</time></trkpt><trkpt lat="42.135575871916465" lon="12.92380130227497"><ele>791.0</ele><time>2026-03-29T15:21:11.999Z</time></trkpt><trkpt lat="42.13557667693754" lon="12.923680962265335"><ele>791.0</ele><time>2026-03-29T15:21:12.999Z</time></trkpt><trkpt lat="42.13561603937479" lon="12.92357817594211"><ele>791.0</ele><time>2026-03-29T15:21:13.999Z</time></trkpt><trkpt lat="42.13569299619741" lon="12.923500967420642"><ele>791.0</ele><time>2026-03-29T15:21:14.999Z</time></trkpt><trkpt lat="42.13577735599054" lon="12.923405414181202"><ele>791.0</ele><time>2026-03-29T15:21:15.999Z</time></trkpt><trkpt lat="42.13586017239956" lon="12.92330197573457"><ele>791.0</ele><time>2026-03-29T15:21:16.999Z</time></trkpt><trkpt lat="42.13592699040792" lon="12.923167326679561"><ele>791.75</ele><time>2026-03-29T15:21:17.999Z</time></trkpt><trkpt lat="42.13596615989561" lon="12.923003343666132"><ele>792.5</ele><time>2026-03-29T15:21:18.999Z</time></trkpt><trkpt lat="42.13600617512525" lon="12.922839800436412"><ele>793.25</ele><time>2026-03-29T15:21:19.999Z</time></trkpt><trkpt lat="42.136052057450485" lon="12.92266978292814"><ele>794.0</ele><time>2026-03-29T15:21:20.999Z</time></trkpt><trkpt lat="42.13610216908413" lon="12.922501031025652"><ele>794.75</ele><time>2026-03-29T15:21:21.999Z</time></trkpt><trkpt lat="42.136154937672856" lon="12.92234393492461"><ele>795.5</ele><time>2026-03-29T15:21:22.999Z</time></trkpt><trkpt lat="42.13620773775268" lon="12.922186222147527"><ele>796.25</ele><time>2026-03-29T15:21:23.999Z</time></trkpt><trkpt lat="42.1362567946167" lon="12.922025538470164"><ele>797.0</ele><time>2026-03-29T15:21:24.999Z</time></trkpt><trkpt lat="42.13630795776232" lon="12.921860498262845"><ele>797.5</ele><time>2026-03-29T15:21:25.999Z</time></trkpt><trkpt lat="42.13636049106852" lon="12.921694366466832"><ele>798.0</ele><time>2026-03-29T15:21:26.999Z</time></trkpt><trkpt lat="42.13641314662158" lon="12.921526956920944"><ele>798.5</ele><time>2026-03-29T15:21:27.999Z</time></trkpt><trkpt lat="42.13646374975531" lon="12.921359847825743"><ele>799.0</ele><time>2026-03-29T15:21:28.999Z</time></trkpt><trkpt lat="42.136513536763296" lon="12.921195433937124"><ele>804.5</ele><time>2026-03-29T15:21:29.999Z</time></trkpt><trkpt lat="42.13656231746525" lon="12.921028518353472"><ele>810.0</ele><time>2026-03-29T15:21:30.999Z</time></trkpt><trkpt lat="42.136610551417476" lon="12.920869009543178"><ele>815.5</ele><time>2026-03-29T15:21:31.999Z</time></trkpt><trkpt lat="42.13666572712922" lon="12.92071092081559"><ele>821.0</ele><time>2026-03-29T15:21:32.999Z</time></trkpt><trkpt lat="42.13671577998464" lon="12.920550523085675"><ele>821.0</ele><time>2026-03-29T15:21:33.999Z</time></trkpt><trkpt lat="42.13676005097347" lon="12.920382822450529"><ele>821.0</ele><time>2026-03-29T15:21:34.999Z</time></trkpt><trkpt lat="42.13678913216134" lon="12.92020746774332"><ele>821.0</ele><time>2026-03-29T15:21:35.999Z</time></trkpt><trkpt lat="42.136800004044" lon="12.920033502903529"><ele>821.0</ele><time>2026-03-29T15:21:36.999Z</time></trkpt><trkpt lat="42.13680873952452" lon="12.919867006719995"><ele>821.5999999999999</ele><time>2026-03-29T15:21:37.999Z</time></trkpt><trkpt lat="42.13681328397203" lon="12.919698780435079"><ele>822.2</ele><time>2026-03-29T15:21:38.999Z</time></trkpt><trkpt lat="42.13680802715108" lon="12.919533591445289"><ele>822.8</ele><time>2026-03-29T15:21:39.999Z</time></trkpt><trkpt lat="42.13679914151072" lon="12.919392694111403"><ele>823.4000000000001</ele><time>2026-03-29T15:21:40.999Z</time></trkpt><trkpt lat="42.13678890267583" lon="12.919301843503858"><ele>824.0</ele><time>2026-03-29T15:21:41.999Z</time></trkpt><trkpt lat="42.13684097608079" lon="12.91924223442345"><ele>824.0000000000001</ele><time>2026-03-29T15:21:43.999Z</time></trkpt><trkpt lat="42.13692407395766" lon="12.919366715968795"><ele>824.0</ele><time>2026-03-29T15:21:45.999Z</time></trkpt><trkpt lat="42.13695403674546" lon="12.919467827245851"><ele>824.0</ele><time>2026-03-29T15:21:46.999Z</time></trkpt><trkpt lat="42.13699439031548" lon="12.919572117796443"><ele>824.0</ele><time>2026-03-29T15:21:47.999Z</time></trkpt><trkpt lat="42.13702753751591" lon="12.919671408350748"><ele>824.0000000000001</ele><time>2026-03-29T15:21:48.999Z</time></trkpt><trkpt lat="42.137089559864776" lon="12.919717755331355"><ele>824.0</ele><time>2026-03-29T15:21:49.999Z</time></trkpt><trkpt lat="42.137155251398625" lon="12.919733587818106"><ele>824.0000000000001</ele><time>2026-03-29T15:21:50.999Z</time></trkpt><trkpt lat="42.137247178627725" lon="12.919665092568883"><ele>824.0</ele><time>2026-03-29T15:21:52.999Z</time></trkpt><trkpt lat="42.137259868492876" lon="12.919580297039657"><ele>824.0</ele><time>2026-03-29T15:21:53.999Z</time></trkpt><trkpt lat="42.13724217725894" lon="12.919481366272711"><ele>824.0</ele><time>2026-03-29T15:21:54.999Z</time></trkpt><trkpt lat="42.13718724124841" lon="12.919390637013342"><ele>824.0000000000001</ele><time>2026-03-29T15:21:55.999Z</time></trkpt><trkpt lat="42.13715257817104" lon="12.919283132476274"><ele>824.0</ele><time>2026-03-29T15:21:57Z</time></trkpt><trkpt lat="42.137126560681516" lon="12.919170202497694"><ele>825.5</ele><time>2026-03-29T15:21:58Z</time></trkpt><trkpt lat="42.1371064403036" lon="12.919036833361284"><ele>827.0</ele><time>2026-03-29T15:21:59Z</time></trkpt><trkpt lat="42.13708896537911" lon="12.918885907486063"><ele>828.5</ele><time>2026-03-29T15:22:00Z</time></trkpt><trkpt lat="42.137078617118355" lon="12.91874171390737"><ele>830.0</ele><time>2026-03-29T15:22:01Z</time></trkpt><trkpt lat="42.1370649652025" lon="12.918526700040683"><ele>833.0</ele><time>2026-03-29T15:22:02Z</time></trkpt><trkpt lat="42.13704986622722" lon="12.918309569271516"><ele>836.0</ele><time>2026-03-29T15:22:03Z</time></trkpt><trkpt lat="42.13702453444828" lon="12.91809804986477"><ele>839.0</ele><time>2026-03-29T15:22:04Z</time></trkpt><trkpt lat="42.13702620724493" lon="12.917907239747432"><ele>839.0</ele><time>2026-03-29T15:22:05Z</time></trkpt><trkpt lat="42.13702074159628" lon="12.917714282300771"><ele>839.0</ele><time>2026-03-29T15:22:06Z</time></trkpt><trkpt lat="42.13703519211773" lon="12.917516893803535"><ele>839.0</ele><time>2026-03-29T15:22:07Z</time></trkpt><trkpt lat="42.13705887079774" lon="12.917311259690631"><ele>839.0</ele><time>2026-03-29T15:22:08Z</time></trkpt><trkpt lat="42.1370513356163" lon="12.917120325823076"><ele>841.25</ele><time>2026-03-29T15:22:09Z</time></trkpt><trkpt lat="42.137033427100334" lon="12.916964658644499"><ele>843.5</ele><time>2026-03-29T15:22:10Z</time></trkpt><trkpt lat="42.137020877330755" lon="12.916798558957874"><ele>845.75</ele><time>2026-03-29T15:22:11Z</time></trkpt><trkpt lat="42.137076378357676" lon="12.916629834630625"><ele>848.0</ele><time>2026-03-29T15:22:12Z</time></trkpt><trkpt lat="42.1371407655096" lon="12.916471096448037"><ele>850.5</ele><time>2026-03-29T15:22:13Z</time></trkpt><trkpt lat="42.13721537199049" lon="12.916308923164605"><ele>853.0</ele><time>2026-03-29T15:22:14Z</time></trkpt><trkpt lat="42.137256310100256" lon="12.916127525037403"><ele>855.5</ele><time>2026-03-29T15:22:15Z</time></trkpt><trkpt lat="42.13730053798123" lon="12.915937444341328"><ele>858.0</ele><time>2026-03-29T15:22:16Z</time></trkpt><trkpt lat="42.13733428654278" lon="12.915730943910544"><ele>860.0</ele><time>2026-03-29T15:22:17Z</time></trkpt><trkpt lat="42.13737861556679" lon="12.915513667607874"><ele>862.0</ele><time>2026-03-29T15:22:18Z</time></trkpt><trkpt lat="42.137409870087815" lon="12.915289983059958"><ele>864.0</ele><time>2026-03-29T15:22:19Z</time></trkpt><trkpt lat="42.13742340829718" lon="12.915071367751276"><ele>866.75</ele><time>2026-03-29T15:22:20Z</time></trkpt><trkpt lat="42.137439895091426" lon="12.914867145809971"><ele>869.5</ele><time>2026-03-29T15:22:21Z</time></trkpt><trkpt lat="42.13746007448692" lon="12.914674089530092"><ele>872.25</ele><time>2026-03-29T15:22:22Z</time></trkpt><trkpt lat="42.13748722956745" lon="12.914501343365016"><ele>875.0</ele><time>2026-03-29T15:22:23Z</time></trkpt><trkpt lat="42.13752404535349" lon="12.91431379082375"><ele>876.0</ele><time>2026-03-29T15:22:24Z</time></trkpt><trkpt lat="42.137563300856364" lon="12.914118759486264"><ele>877.0</ele><time>2026-03-29T15:22:25Z</time></trkpt><trkpt lat="42.13760398602961" lon="12.913923490415145"><ele>878.0</ele><time>2026-03-29T15:22:26Z</time></trkpt><trkpt lat="42.13764704541582" lon="12.913723730608147"><ele>878.0</ele><time>2026-03-29T15:22:27Z</time></trkpt><trkpt lat="42.137688905439724" lon="12.913532254717406"><ele>878.0</ele><time>2026-03-29T15:22:28Z</time></trkpt><trkpt lat="42.13772921035218" lon="12.913346402929692"><ele>878.0</ele><time>2026-03-29T15:22:29Z</time></trkpt><trkpt lat="42.137764833535044" lon="12.913164951275848"><ele>878.0</ele><time>2026-03-29T15:22:30Z</time></trkpt><trkpt lat="42.13780281454489" lon="12.91298277087125"><ele>878.0</ele><time>2026-03-29T15:22:30.999Z</time></trkpt><trkpt lat="42.1378463107309" lon="12.912804445836635"><ele>878.0</ele><time>2026-03-29T15:22:31.999Z</time></trkpt><trkpt lat="42.137895669961516" lon="12.912630375239342"><ele>878.0</ele><time>2026-03-29T15:22:32.999Z</time></trkpt><trkpt lat="42.137949509956734" lon="12.912455559840744"><ele>878.0</ele><time>2026-03-29T15:22:33.999Z</time></trkpt><trkpt lat="42.13801001427116" lon="12.912290310187469"><ele>878.0</ele><time>2026-03-29T15:22:34.999Z</time></trkpt><trkpt lat="42.13806995642066" lon="12.912132940834988"><ele>878.0</ele><time>2026-03-29T15:22:35.999Z</time></trkpt><trkpt lat="42.13812975861806" lon="12.911975793683244"><ele>878.0</ele><time>2026-03-29T15:22:36.999Z</time></trkpt><trkpt lat="42.138192260059974" lon="12.911813668538251"><ele>878.0</ele><time>2026-03-29T15:22:37.999Z</time></trkpt><trkpt lat="42.1382562431646" lon="12.911646382463964"><ele>882.5</ele><time>2026-03-29T15:22:38.999Z</time></trkpt><trkpt lat="42.13832241031639" lon="12.91147028678972"><ele>887.0</ele><time>2026-03-29T15:22:39.999Z</time></trkpt><trkpt lat="42.13839129527134" lon="12.911286646804495"><ele>891.5</ele><time>2026-03-29T15:22:40.999Z</time></trkpt><trkpt lat="42.1384565958886" lon="12.911104525242854"><ele>896.0</ele><time>2026-03-29T15:22:41.999Z</time></trkpt><trkpt lat="42.138517375715445" lon="12.910925536375725"><ele>895.5</ele><time>2026-03-29T15:22:42.999Z</time></trkpt><trkpt lat="42.13856465628966" lon="12.91074186060126"><ele>895.0</ele><time>2026-03-29T15:22:43.999Z</time></trkpt><trkpt lat="42.138627001014896" lon="12.910567849559232"><ele>894.5</ele><time>2026-03-29T15:22:44.999Z</time></trkpt><trkpt lat="42.13867864670835" lon="12.910393570243757"><ele>894.0</ele><time>2026-03-29T15:22:45.999Z</time></trkpt><trkpt lat="42.138708061068755" lon="12.910222809398775"><ele>894.75</ele><time>2026-03-29T15:22:46.999Z</time></trkpt><trkpt lat="42.13872464947701" lon="12.910038463867103"><ele>895.5</ele><time>2026-03-29T15:22:47.999Z</time></trkpt><trkpt lat="42.138728719529645" lon="12.909849556464444"><ele>896.25</ele><time>2026-03-29T15:22:48.999Z</time></trkpt><trkpt lat="42.13874850688467" lon="12.909660457011055"><ele>897.0</ele><time>2026-03-29T15:22:49.999Z</time></trkpt><trkpt lat="42.13875422251002" lon="12.909470013815348"><ele>897.0</ele><time>2026-03-29T15:22:50.999Z</time></trkpt><trkpt lat="42.138758600882454" lon="12.909279692947875"><ele>897.0</ele><time>2026-03-29T15:22:51.999Z</time></trkpt><trkpt lat="42.13874645426832" lon="12.909094257086341"><ele>897.0</ele><time>2026-03-29T15:22:52.999Z</time></trkpt><trkpt lat="42.13875071792417" lon="12.908914820644387"><ele>897.0</ele><time>2026-03-29T15:22:53.999Z</time></trkpt><trkpt lat="42.13876366374557" lon="12.908739849873202"><ele>898.5</ele><time>2026-03-29T15:22:54.999Z</time></trkpt><trkpt lat="42.1387431844844" lon="12.908560247991417"><ele>900.0</ele><time>2026-03-29T15:22:55.999Z</time></trkpt><trkpt lat="42.13868965917303" lon="12.908395551273136"><ele>901.5</ele><time>2026-03-29T15:22:56.999Z</time></trkpt><trkpt lat="42.1385997625734" lon="12.908260439072313"><ele>903.0</ele><time>2026-03-29T15:22:57.999Z</time></trkpt><trkpt lat="42.13849127488094" lon="12.908146585017274"><ele>904.6666666666667</ele><time>2026-03-29T15:22:58.999Z</time></trkpt><trkpt lat="42.13836840017888" lon="12.908034453486751"><ele>906.3333333333334</ele><time>2026-03-29T15:22:59.999Z</time></trkpt><trkpt lat="42.13824347127536" lon="12.907929521652095"><ele>908.0</ele><time>2026-03-29T15:23:00.999Z</time></trkpt><trkpt lat="42.138094740968995" lon="12.907818236597544"><ele>908.0</ele><time>2026-03-29T15:23:01.999Z</time></trkpt><trkpt lat="42.137956600665795" lon="12.907723724796059"><ele>908.0</ele><time>2026-03-29T15:23:02.999Z</time></trkpt><trkpt lat="42.13781482786819" lon="12.907623187887308"><ele>908.0</ele><time>2026-03-29T15:23:03.999Z</time></trkpt><trkpt lat="42.137668815532386" lon="12.90751628407076"><ele>911.0</ele><time>2026-03-29T15:23:04.999Z</time></trkpt><trkpt lat="42.13752344818348" lon="12.907408981872946"><ele>914.0</ele><time>2026-03-29T15:23:05.999Z</time></trkpt><trkpt lat="42.13737737967344" lon="12.907301162117696"><ele>917.0</ele><time>2026-03-29T15:23:06.999Z</time></trkpt><trkpt lat="42.13723121086818" lon="12.90719327948387"><ele>917.3333333333334</ele><time>2026-03-29T15:23:07.999Z</time></trkpt><trkpt lat="42.13708602741883" lon="12.907088667274182"><ele>917.6666666666667</ele><time>2026-03-29T15:23:08.999Z</time></trkpt><trkpt lat="42.136942249036714" lon="12.906984325333292"><ele>918.0</ele><time>2026-03-29T15:23:09.999Z</time></trkpt><trkpt lat="42.13680259108839" lon="12.906876019599602"><ele>918.0</ele><time>2026-03-29T15:23:10.999Z</time></trkpt><trkpt lat="42.13665750376896" lon="12.906768719211264"><ele>918.0</ele><time>2026-03-29T15:23:11.999Z</time></trkpt><trkpt lat="42.13651218624027" lon="12.906665361280862"><ele>918.0</ele><time>2026-03-29T15:23:12.999Z</time></trkpt><trkpt lat="42.13637467220445" lon="12.90655656269036"><ele>918.3333333333333</ele><time>2026-03-29T15:23:13.999Z</time></trkpt><trkpt lat="42.13621425931326" lon="12.906490343551013"><ele>918.6666666666666</ele><time>2026-03-29T15:23:14.999Z</time></trkpt><trkpt lat="42.13608225543332" lon="12.90636781055736"><ele>919.0</ele><time>2026-03-29T15:23:15.999Z</time></trkpt><trkpt lat="42.13595452437585" lon="12.9062350393379"><ele>919.0</ele><time>2026-03-29T15:23:16.999Z</time></trkpt><trkpt lat="42.13583502214145" lon="12.906091700342293"><ele>919.0</ele><time>2026-03-29T15:23:17.999Z</time></trkpt><trkpt lat="42.13576949573258" lon="12.905888345796493"><ele>919.0</ele><time>2026-03-29T15:23:18.999Z</time></trkpt><trkpt lat="42.135677568925395" lon="12.905719838308135"><ele>920.6666666666666</ele><time>2026-03-29T15:23:19.999Z</time></trkpt><trkpt lat="42.135596149209434" lon="12.905544211371657"><ele>922.3333333333333</ele><time>2026-03-29T15:23:20.999Z</time></trkpt><trkpt lat="42.135526995860076" lon="12.905361305323872"><ele>924.0</ele><time>2026-03-29T15:23:21.999Z</time></trkpt><trkpt lat="42.13546170422123" lon="12.905173423161369"><ele>926.75</ele><time>2026-03-29T15:23:22.999Z</time></trkpt><trkpt lat="42.13540149166388" lon="12.904988417112733"><ele>929.5</ele><time>2026-03-29T15:23:23.999Z</time></trkpt><trkpt lat="42.13534438596649" lon="12.9048048641254"><ele>932.25</ele><time>2026-03-29T15:23:24.999Z</time></trkpt><trkpt lat="42.135287172346196" lon="12.904617896354278"><ele>935.0</ele><time>2026-03-29T15:23:25.999Z</time></trkpt><trkpt lat="42.1352278841471" lon="12.904424149112382"><ele>937.3333333333334</ele><time>2026-03-29T15:23:26.999Z</time></trkpt><trkpt lat="42.13516761781591" lon="12.904231756306226"><ele>939.6666666666667</ele><time>2026-03-29T15:23:27.999Z</time></trkpt><trkpt lat="42.13510692202021" lon="12.904039886076546"><ele>942.0</ele><time>2026-03-29T15:23:28.999Z</time></trkpt><trkpt lat="42.13504285964813" lon="12.903840591987544"><ele>942.0</ele><time>2026-03-29T15:23:29.999Z</time></trkpt><trkpt lat="42.13497841083344" lon="12.903643819860942"><ele>942.0</ele><time>2026-03-29T15:23:30.999Z</time></trkpt><trkpt lat="42.13491089352067" lon="12.90345111621541"><ele>942.0</ele><time>2026-03-29T15:23:31.999Z</time></trkpt><trkpt lat="42.13484513767742" lon="12.903262184961896"><ele>945.0</ele><time>2026-03-29T15:23:32.999Z</time></trkpt><trkpt lat="42.13478409179856" lon="12.903080296353965"><ele>948.0</ele><time>2026-03-29T15:23:33.999Z</time></trkpt><trkpt lat="42.13472407265109" lon="12.902895264016648"><ele>951.0</ele><time>2026-03-29T15:23:34.999Z</time></trkpt><trkpt lat="42.134664865795294" lon="12.90270924607362"><ele>954.0</ele><time>2026-03-29T15:23:35.999Z</time></trkpt><trkpt lat="42.13460781788707" lon="12.90252720183826"><ele>955.0</ele><time>2026-03-29T15:23:36.999Z</time></trkpt><trkpt lat="42.134551465396044" lon="12.902345458461204"><ele>956.0</ele><time>2026-03-29T15:23:37.999Z</time></trkpt><trkpt lat="42.13449410318647" lon="12.90217345522691"><ele>957.0</ele><time>2026-03-29T15:23:38.999Z</time></trkpt><trkpt lat="42.13442244124519" lon="12.901989815934423"><ele>958.0</ele><time>2026-03-29T15:23:39.999Z</time></trkpt><trkpt lat="42.13433744300071" lon="12.901829191980132"><ele>958.6666666666666</ele><time>2026-03-29T15:23:40.999Z</time></trkpt><trkpt lat="42.13427539365304" lon="12.901656685105207"><ele>959.3333333333333</ele><time>2026-03-29T15:23:41.999Z</time></trkpt><trkpt lat="42.134185604726554" lon="12.901484669740265"><ele>960.0</ele><time>2026-03-29T15:23:42.999Z</time></trkpt><trkpt lat="42.13409312620386" lon="12.901321501047422"><ele>966.0</ele><time>2026-03-29T15:23:43.999Z</time></trkpt><trkpt lat="42.1339860517618" lon="12.90115659979936"><ele>972.0</ele><time>2026-03-29T15:23:44.999Z</time></trkpt><trkpt lat="42.133876653425915" lon="12.900990432518006"><ele>978.0</ele><time>2026-03-29T15:23:45.999Z</time></trkpt><trkpt lat="42.13377942442738" lon="12.900839826198876"><ele>978.0</ele><time>2026-03-29T15:23:46.999Z</time></trkpt><trkpt lat="42.13368723678666" lon="12.900679662514918"><ele>978.0</ele><time>2026-03-29T15:23:47.999Z</time></trkpt><trkpt lat="42.133595637377624" lon="12.900517169380919"><ele>978.0</ele><time>2026-03-29T15:23:48.999Z</time></trkpt><trkpt lat="42.13350369656471" lon="12.900358366128232"><ele>978.0</ele><time>2026-03-29T15:23:49.999Z</time></trkpt><trkpt lat="42.13340893756724" lon="12.900208966474114"><ele>978.0</ele><time>2026-03-29T15:23:50.999Z</time></trkpt><trkpt lat="42.13331918184467" lon="12.90005417278101"><ele>978.0</ele><time>2026-03-29T15:23:51.999Z</time></trkpt><trkpt lat="42.13322359323599" lon="12.899895927743747"><ele>978.0</ele><time>2026-03-29T15:23:52.999Z</time></trkpt><trkpt lat="42.13312850211979" lon="12.899740797243293"><ele>978.0</ele><time>2026-03-29T15:23:53.999Z</time></trkpt><trkpt lat="42.13303382130045" lon="12.899580401908462"><ele>978.0</ele><time>2026-03-29T15:23:54.999Z</time></trkpt><trkpt lat="42.1329523482068" lon="12.899440111329223"><ele>978.0</ele><time>2026-03-29T15:23:55.999Z</time></trkpt><trkpt lat="42.132872158741804" lon="12.899309324467003"><ele>978.0</ele><time>2026-03-29T15:23:56.999Z</time></trkpt><trkpt lat="42.132798466948756" lon="12.89919412282164"><ele>978.0</ele><time>2026-03-29T15:23:57.999Z</time></trkpt><trkpt lat="42.13272221088778" lon="12.899085883139547"><ele>978.0</ele><time>2026-03-29T15:23:58.999Z</time></trkpt><trkpt lat="42.13262361768932" lon="12.898997975372653"><ele>978.0</ele><time>2026-03-29T15:23:59.999Z</time></trkpt><trkpt lat="42.132529879517556" lon="12.898891835824617"><ele>978.0</ele><time>2026-03-29T15:24:00.999Z</time></trkpt><trkpt lat="42.13243429827885" lon="12.898780079628569"><ele>976.5</ele><time>2026-03-29T15:24:01.999Z</time></trkpt><trkpt lat="42.13236575425336" lon="12.898646714933095"><ele>975.0</ele><time>2026-03-29T15:24:03Z</time></trkpt><trkpt lat="42.1323040946423" lon="12.898497265105776"><ele>973.5</ele><time>2026-03-29T15:24:04Z</time></trkpt><trkpt lat="42.132225238004644" lon="12.898329877076115"><ele>972.0</ele><time>2026-03-29T15:24:05Z</time></trkpt><trkpt lat="42.132124582846004" lon="12.89819502099664"><ele>972.0</ele><time>2026-03-29T15:24:06Z</time></trkpt><trkpt lat="42.13201233074811" lon="12.898076747250025"><ele>972.0</ele><time>2026-03-29T15:24:07Z</time></trkpt><trkpt lat="42.13188346671907" lon="12.897961274824073"><ele>972.0</ele><time>2026-03-29T15:24:08Z</time></trkpt><trkpt lat="42.13174696632117" lon="12.897826519982756"><ele>972.0</ele><time>2026-03-29T15:24:09Z</time></trkpt><trkpt lat="42.131616235358386" lon="12.89770485512882"><ele>972.0</ele><time>2026-03-29T15:24:10Z</time></trkpt><trkpt lat="42.13148074084071" lon="12.897625623728421"><ele>972.0</ele><time>2026-03-29T15:24:11Z</time></trkpt><trkpt lat="42.1313583054712" lon="12.897536206373639"><ele>972.0</ele><time>2026-03-29T15:24:12Z</time></trkpt><trkpt lat="42.131230448724544" lon="12.89748098104324"><ele>971.4000000000001</ele><time>2026-03-29T15:24:13Z</time></trkpt><trkpt lat="42.13111595338973" lon="12.897427564023934"><ele>970.8000000000001</ele><time>2026-03-29T15:24:14Z</time></trkpt><trkpt lat="42.131038654529625" lon="12.89737014547371"><ele>970.2</ele><time>2026-03-29T15:24:15Z</time></trkpt><trkpt lat="42.131017899475076" lon="12.897263597152676"><ele>969.6</ele><time>2026-03-29T15:24:16Z</time></trkpt><trkpt lat="42.130994110312756" lon="12.897141639444065"><ele>969.0</ele><time>2026-03-29T15:24:17Z</time></trkpt><trkpt lat="42.13099139583515" lon="12.89699212879423"><ele>969.0</ele><time>2026-03-29T15:24:18Z</time></trkpt><trkpt lat="42.13098915277975" lon="12.89681749206455"><ele>969.0</ele><time>2026-03-29T15:24:19Z</time></trkpt><trkpt lat="42.13098238095297" lon="12.89663070282322"><ele>969.0</ele><time>2026-03-29T15:24:20Z</time></trkpt><trkpt lat="42.13099125839031" lon="12.896432799131409"><ele>969.0</ele><time>2026-03-29T15:24:21Z</time></trkpt><trkpt lat="42.13099852022605" lon="12.896226194281086"><ele>967.0</ele><time>2026-03-29T15:24:22Z</time></trkpt><trkpt lat="42.13100844523663" lon="12.896034607713265"><ele>965.0</ele><time>2026-03-29T15:24:23Z</time></trkpt><trkpt lat="42.130998184848515" lon="12.895870473374561"><ele>963.0</ele><time>2026-03-29T15:24:24Z</time></trkpt><trkpt lat="42.13098161817861" lon="12.895743741978144"><ele>961.0</ele><time>2026-03-29T15:24:25Z</time></trkpt><trkpt lat="42.13088966218022" lon="12.895649681739654"><ele>960.25</ele><time>2026-03-29T15:24:26Z</time></trkpt><trkpt lat="42.130794049041285" lon="12.895571330102742"><ele>959.5</ele><time>2026-03-29T15:24:27Z</time></trkpt><trkpt lat="42.13067793188596" lon="12.895514978796902"><ele>958.75</ele><time>2026-03-29T15:24:28Z</time></trkpt><trkpt lat="42.13054691875156" lon="12.895426172870065"><ele>958.0</ele><time>2026-03-29T15:24:29Z</time></trkpt><trkpt lat="42.13040971798311" lon="12.895335389461854"><ele>958.75</ele><time>2026-03-29T15:24:30Z</time></trkpt><trkpt lat="42.13027120212608" lon="12.89523088430329"><ele>959.5</ele><time>2026-03-29T15:24:31Z</time></trkpt><trkpt lat="42.13015074763511" lon="12.895117539726195"><ele>960.25</ele><time>2026-03-29T15:24:32Z</time></trkpt><trkpt lat="42.13004698378871" lon="12.895002574003378"><ele>961.0</ele><time>2026-03-29T15:24:33Z</time></trkpt><trkpt lat="42.129989416152306" lon="12.894894553505218"><ele>961.0</ele><time>2026-03-29T15:24:34Z</time></trkpt><trkpt lat="42.12995996684632" lon="12.894784801115406"><ele>960.9999999999999</ele><time>2026-03-29T15:24:35Z</time></trkpt><trkpt lat="42.12995097793095" lon="12.894654843373933"><ele>960.9999999999999</ele><time>2026-03-29T15:24:36Z</time></trkpt><trkpt lat="42.1299763529748" lon="12.894507013527504"><ele>961.0</ele><time>2026-03-29T15:24:37Z</time></trkpt><trkpt lat="42.13001055795587" lon="12.894343240756408"><ele>961.0</ele><time>2026-03-29T15:24:38Z</time></trkpt><trkpt lat="42.13003480760846" lon="12.894171691733275"><ele>960.75</ele><time>2026-03-29T15:24:39Z</time></trkpt><trkpt lat="42.130066988723485" lon="12.893994930208402"><ele>960.5</ele><time>2026-03-29T15:24:40Z</time></trkpt><trkpt lat="42.13005843734063" lon="12.893837006108965"><ele>960.25</ele><time>2026-03-29T15:24:41Z</time></trkpt><trkpt lat="42.130038013898115" lon="12.893695328734626"><ele>960.0</ele><time>2026-03-29T15:24:42Z</time></trkpt><trkpt lat="42.129976237203586" lon="12.893558428882935"><ele>963.0</ele><time>2026-03-29T15:24:43Z</time></trkpt><trkpt lat="42.12988103111105" lon="12.893465447114563"><ele>966.0</ele><time>2026-03-29T15:24:44Z</time></trkpt><trkpt lat="42.12976972431612" lon="12.893402637850134"><ele>969.0</ele><time>2026-03-29T15:24:44.999Z</time></trkpt><trkpt lat="42.12965316090085" lon="12.893335227537102"><ele>972.0</ele><time>2026-03-29T15:24:45.999Z</time></trkpt><trkpt lat="42.12953129904945" lon="12.89326156739471"><ele>972.0</ele><time>2026-03-29T15:24:46.999Z</time></trkpt><trkpt lat="42.12941266425586" lon="12.893176470632394"><ele>972.0</ele><time>2026-03-29T15:24:47.999Z</time></trkpt><trkpt lat="42.12931540661615" lon="12.893063614033917"><ele>972.0</ele><time>2026-03-29T15:24:48.999Z</time></trkpt><trkpt lat="42.12925315822994" lon="12.89296129763058"><ele>972.0</ele><time>2026-03-29T15:24:49.999Z</time></trkpt><trkpt lat="42.12924683438773" lon="12.89285330510066"><ele>972.0</ele><time>2026-03-29T15:24:50.999Z</time></trkpt><trkpt lat="42.129246896523156" lon="12.892727423258757"><ele>971.0</ele><time>2026-03-29T15:24:51.999Z</time></trkpt><trkpt lat="42.12926649488512" lon="12.892560505084113"><ele>970.0</ele><time>2026-03-29T15:24:52.999Z</time></trkpt><trkpt lat="42.129302702379995" lon="12.892399297437835"><ele>969.0</ele><time>2026-03-29T15:24:53.999Z</time></trkpt><trkpt lat="42.12935076655476" lon="12.892235529231415"><ele>968.0</ele><time>2026-03-29T15:24:54.999Z</time></trkpt><trkpt lat="42.129404681704415" lon="12.892099159317171"><ele>968.0</ele><time>2026-03-29T15:24:55.999Z</time></trkpt><trkpt lat="42.12946319885094" lon="12.89198286241819"><ele>968.0</ele><time>2026-03-29T15:24:56.999Z</time></trkpt><trkpt lat="42.12943791681257" lon="12.891769002618743"><ele>968.0</ele><time>2026-03-29T15:24:57.999Z</time></trkpt><trkpt lat="42.129446722752064" lon="12.89156145081031"><ele>968.0</ele><time>2026-03-29T15:24:58.999Z</time></trkpt><trkpt lat="42.129458454077344" lon="12.891356927395508"><ele>968.25</ele><time>2026-03-29T15:24:59.999Z</time></trkpt><trkpt lat="42.129482952008956" lon="12.891161540667717"><ele>968.5</ele><time>2026-03-29T15:25:00.999Z</time></trkpt><trkpt lat="42.129512128794715" lon="12.890976560721532"><ele>968.75</ele><time>2026-03-29T15:25:01.999Z</time></trkpt><trkpt lat="42.12959184564603" lon="12.890807588825426"><ele>969.0</ele><time>2026-03-29T15:25:02.999Z</time></trkpt><trkpt lat="42.12964221585615" lon="12.890631278118597"><ele>970.75</ele><time>2026-03-29T15:25:03.999Z</time></trkpt><trkpt lat="42.12968527658856" lon="12.890484004414722"><ele>972.5</ele><time>2026-03-29T15:25:04.999Z</time></trkpt><trkpt lat="42.1297023360895" lon="12.890335448018048"><ele>974.25</ele><time>2026-03-29T15:25:05.999Z</time></trkpt><trkpt lat="42.12969915265848" lon="12.890182076541649"><ele>976.0</ele><time>2026-03-29T15:25:06.999Z</time></trkpt><trkpt lat="42.12966521724601" lon="12.890025225902015"><ele>977.25</ele><time>2026-03-29T15:25:07.999Z</time></trkpt><trkpt lat="42.12961479056881" lon="12.889898380589782"><ele>978.5</ele><time>2026-03-29T15:25:08.999Z</time></trkpt><trkpt lat="42.12954609611593" lon="12.88978537814728"><ele>979.75</ele><time>2026-03-29T15:25:09.999Z</time></trkpt><trkpt lat="42.12944993773908" lon="12.889681869305795"><ele>981.0</ele><time>2026-03-29T15:25:10.999Z</time></trkpt><trkpt lat="42.129349454026055" lon="12.889579529510991"><ele>981.0</ele><time>2026-03-29T15:25:11.999Z</time></trkpt><trkpt lat="42.12925830834039" lon="12.889444575435514"><ele>981.0</ele><time>2026-03-29T15:25:12.999Z</time></trkpt><trkpt lat="42.12919334537591" lon="12.889290012111642"><ele>981.0</ele><time>2026-03-29T15:25:13.999Z</time></trkpt><trkpt lat="42.12915090693799" lon="12.889122803906933"><ele>981.0</ele><time>2026-03-29T15:25:14.999Z</time></trkpt><trkpt lat="42.12917352199973" lon="12.888955901805426"><ele>980.4</ele><time>2026-03-29T15:25:15.999Z</time></trkpt><trkpt lat="42.12916694301417" lon="12.888823836528747"><ele>979.8</ele><time>2026-03-29T15:25:16.999Z</time></trkpt><trkpt lat="42.129173770586114" lon="12.888692119139256"><ele>979.1999999999999</ele><time>2026-03-29T15:25:17.999Z</time></trkpt><trkpt lat="42.12919756133838" lon="12.888542664654956"><ele>978.5999999999999</ele><time>2026-03-29T15:25:18.999Z</time></trkpt><trkpt lat="42.129241658673635" lon="12.888387461861184"><ele>978.0</ele><time>2026-03-29T15:25:19.999Z</time></trkpt><trkpt lat="42.129304209178486" lon="12.888248090180085"><ele>978.0</ele><time>2026-03-29T15:25:20.999Z</time></trkpt><trkpt lat="42.12938821634088" lon="12.888136184831161"><ele>978.0</ele><time>2026-03-29T15:25:21.999Z</time></trkpt><trkpt lat="42.12945753936423" lon="12.888014045408807"><ele>978.0</ele><time>2026-03-29T15:25:22.999Z</time></trkpt><trkpt lat="42.129531772603194" lon="12.887918711114423"><ele>978.0</ele><time>2026-03-29T15:25:23.999Z</time></trkpt><trkpt lat="42.12959172826403" lon="12.88781412224612"><ele>978.0</ele><time>2026-03-29T15:25:24.999Z</time></trkpt><trkpt lat="42.129643607879885" lon="12.887705968990744"><ele>978.4</ele><time>2026-03-29T15:25:25.999Z</time></trkpt><trkpt lat="42.1296730960225" lon="12.887576113340598"><ele>978.8</ele><time>2026-03-29T15:25:26.999Z</time></trkpt><trkpt lat="42.12968491807564" lon="12.887441452181578"><ele>979.2</ele><time>2026-03-29T15:25:27.999Z</time></trkpt><trkpt lat="42.12965585696146" lon="12.887265261721598"><ele>979.6</ele><time>2026-03-29T15:25:28.999Z</time></trkpt><trkpt lat="42.129639255026675" lon="12.88711423256306"><ele>980.0</ele><time>2026-03-29T15:25:29.999Z</time></trkpt><trkpt lat="42.129647362882544" lon="12.886961772428062"><ele>980.0</ele><time>2026-03-29T15:25:30.999Z</time></trkpt><trkpt lat="42.12965960901835" lon="12.886809841435598"><ele>980.0</ele><time>2026-03-29T15:25:31.999Z</time></trkpt><trkpt lat="42.12966756315435" lon="12.886660025840241"><ele>980.0</ele><time>2026-03-29T15:25:32.999Z</time></trkpt><trkpt lat="42.129674133206265" lon="12.886503601864705"><ele>980.0</ele><time>2026-03-29T15:25:33.999Z</time></trkpt><trkpt lat="42.12968018018883" lon="12.886359631644167"><ele>980.0</ele><time>2026-03-29T15:25:34.999Z</time></trkpt><trkpt lat="42.129687680841954" lon="12.88621203615052"><ele>979.2</ele><time>2026-03-29T15:25:35.999Z</time></trkpt><trkpt lat="42.12969758870655" lon="12.886072513844137"><ele>978.4</ele><time>2026-03-29T15:25:36.999Z</time></trkpt><trkpt lat="42.129712639569284" lon="12.885938475414749"><ele>977.5999999999999</ele><time>2026-03-29T15:25:37.999Z</time></trkpt><trkpt lat="42.12973546342845" lon="12.885815556119963"><ele>976.8</ele><time>2026-03-29T15:25:38.999Z</time></trkpt><trkpt lat="42.12974598764558" lon="12.885707752156634"><ele>976.0</ele><time>2026-03-29T15:25:39.999Z</time></trkpt><trkpt lat="42.129712086520804" lon="12.885552218235551"><ele>973.8</ele><time>2026-03-29T15:25:40.999Z</time></trkpt><trkpt lat="42.12965293955913" lon="12.885444578786982"><ele>971.5999999999999</ele><time>2026-03-29T15:25:41.999Z</time></trkpt><trkpt lat="42.129579368892124" lon="12.885344897939703"><ele>969.4</ele><time>2026-03-29T15:25:42.999Z</time></trkpt><trkpt lat="42.129490852451184" lon="12.885243058696371"><ele>967.2</ele><time>2026-03-29T15:25:43.999Z</time></trkpt><trkpt lat="42.12940430816217" lon="12.88517128927286"><ele>965.0</ele><time>2026-03-29T15:25:44.999Z</time></trkpt><trkpt lat="42.129341282918865" lon="12.885119812079834"><ele>963.0</ele><time>2026-03-29T15:25:45.999Z</time></trkpt><trkpt lat="42.12929165510799" lon="12.8850602474381"><ele>961.0</ele><time>2026-03-29T15:25:46.999Z</time></trkpt><trkpt lat="42.12926412135226" lon="12.884910877940095"><ele>959.0</ele><time>2026-03-29T15:25:48.999Z</time></trkpt><trkpt lat="42.129320954476995" lon="12.884760153702679"><ele>957.0</ele><time>2026-03-29T15:25:50.999Z</time></trkpt><trkpt lat="42.129396152150754" lon="12.884719136798244"><ele>955.0</ele><time>2026-03-29T15:25:51.999Z</time></trkpt><trkpt lat="42.12947700467533" lon="12.884692858217624"><ele>954.9999999999999</ele><time>2026-03-29T15:25:52.999Z</time></trkpt><trkpt lat="42.12956428581278" lon="12.88472666651181"><ele>955.0</ele><time>2026-03-29T15:25:53.999Z</time></trkpt><trkpt lat="42.12963560284741" lon="12.88470197293241"><ele>955.0</ele><time>2026-03-29T15:25:54.999Z</time></trkpt><trkpt lat="42.12971274796799" lon="12.884699050955554"><ele>955.0</ele><time>2026-03-29T15:25:55.999Z</time></trkpt><trkpt lat="42.12977799119582" lon="12.884679096110338"><ele>954.9999999999999</ele><time>2026-03-29T15:25:56.999Z</time></trkpt><trkpt lat="42.12984026616176" lon="12.884640745737132"><ele>955.0</ele><time>2026-03-29T15:25:57.999Z</time></trkpt><trkpt lat="42.12989778192862" lon="12.884534408544713"><ele>955.0</ele><time>2026-03-29T15:25:59.999Z</time></trkpt><trkpt lat="42.129845929764755" lon="12.884353956681617"><ele>955.0</ele><time>2026-03-29T15:26:01.999Z</time></trkpt><trkpt lat="42.12975874626226" lon="12.884302006195606"><ele>955.0</ele><time>2026-03-29T15:26:02.999Z</time></trkpt><trkpt lat="42.12967396476589" lon="12.88424720838227"><ele>955.0</ele><time>2026-03-29T15:26:03.999Z</time></trkpt><trkpt lat="42.12956496473506" lon="12.884187894255115"><ele>951.75</ele><time>2026-03-29T15:26:04.999Z</time></trkpt><trkpt lat="42.12943671681368" lon="12.884134286286507"><ele>948.5</ele><time>2026-03-29T15:26:05.999Z</time></trkpt><trkpt lat="42.12931441834533" lon="12.884076466193576"><ele>945.25</ele><time>2026-03-29T15:26:06.999Z</time></trkpt><trkpt lat="42.129227273249114" lon="12.884019824854224"><ele>942.0</ele><time>2026-03-29T15:26:07.999Z</time></trkpt><trkpt lat="42.129158663648425" lon="12.88393030484622"><ele>942.0</ele><time>2026-03-29T15:26:10Z</time></trkpt><trkpt lat="42.12915827119402" lon="12.883841606681349"><ele>942.0</ele><time>2026-03-29T15:26:12Z</time></trkpt><trkpt lat="42.12927187281621" lon="12.883795899499232"><ele>942.0</ele><time>2026-03-29T15:26:14Z</time></trkpt><trkpt lat="42.129351651228895" lon="12.883820122292763"><ele>942.0</ele><time>2026-03-29T15:26:15Z</time></trkpt><trkpt lat="42.12945406581486" lon="12.883824350817553"><ele>942.0</ele><time>2026-03-29T15:26:16Z</time></trkpt><trkpt lat="42.12956327410687" lon="12.883815600096678"><ele>942.0</ele><time>2026-03-29T15:26:17Z</time></trkpt><trkpt lat="42.12965278093583" lon="12.883804273799631"><ele>942.0</ele><time>2026-03-29T15:26:18Z</time></trkpt><trkpt lat="42.129747632874434" lon="12.883788509731646"><ele>942.0</ele><time>2026-03-29T15:26:20Z</time></trkpt><trkpt lat="42.12972524872065" lon="12.88367657728582"><ele>942.0</ele><time>2026-03-29T15:26:22Z</time></trkpt><trkpt lat="42.129636324951406" lon="12.883556507179236"><ele>942.0</ele><time>2026-03-29T15:26:24Z</time></trkpt><trkpt lat="42.1295466447185" lon="12.883538952089914"><ele>942.0</ele><time>2026-03-29T15:26:25Z</time></trkpt><trkpt lat="42.12945236269276" lon="12.883496104258239"><ele>942.0</ele><time>2026-03-29T15:26:26Z</time></trkpt><trkpt lat="42.12937243017592" lon="12.883449579518535"><ele>942.0</ele><time>2026-03-29T15:26:27Z</time></trkpt><trkpt lat="42.12928993149008" lon="12.883360333952005"><ele>942.0</ele><time>2026-03-29T15:26:28Z</time></trkpt><trkpt lat="42.12921224877903" lon="12.883255286178168"><ele>942.0</ele><time>2026-03-29T15:26:29Z</time></trkpt><trkpt lat="42.12912022502716" lon="12.883140376152522"><ele>940.25</ele><time>2026-03-29T15:26:30Z</time></trkpt><trkpt lat="42.12903257942615" lon="12.883034372256319"><ele>938.5</ele><time>2026-03-29T15:26:31Z</time></trkpt><trkpt lat="42.12893815600371" lon="12.882919497064828"><ele>936.75</ele><time>2026-03-29T15:26:32Z</time></trkpt><trkpt lat="42.128846742510795" lon="12.88283064954572"><ele>935.0</ele><time>2026-03-29T15:26:33Z</time></trkpt><trkpt lat="42.12876708315242" lon="12.882710288824395"><ele>935.0</ele><time>2026-03-29T15:26:34Z</time></trkpt><trkpt lat="42.1286844400519" lon="12.882600485031757"><ele>935.0</ele><time>2026-03-29T15:26:35Z</time></trkpt><trkpt lat="42.1286098313445" lon="12.882507708697052"><ele>935.0</ele><time>2026-03-29T15:26:36Z</time></trkpt><trkpt lat="42.128551435420675" lon="12.882415214236007"><ele>935.0</ele><time>2026-03-29T15:26:37Z</time></trkpt><trkpt lat="42.128466843341734" lon="12.882301202965518"><ele>935.0</ele><time>2026-03-29T15:26:38Z</time></trkpt><trkpt lat="42.128402288849216" lon="12.88219826160378"><ele>934.5000000000001</ele><time>2026-03-29T15:26:39Z</time></trkpt><trkpt lat="42.12835552315208" lon="12.882092324108521"><ele>934.0</ele><time>2026-03-29T15:26:40Z</time></trkpt><trkpt lat="42.12832392640387" lon="12.881991168818853"><ele>933.5</ele><time>2026-03-29T15:26:41Z</time></trkpt><trkpt lat="42.128295998876155" lon="12.881882377478444"><ele>933.0</ele><time>2026-03-29T15:26:42Z</time></trkpt><trkpt lat="42.12825461860926" lon="12.881798152277474"><ele>932.5000000000001</ele><time>2026-03-29T15:26:43Z</time></trkpt><trkpt lat="42.12824704236421" lon="12.8817127067673"><ele>932.0</ele><time>2026-03-29T15:26:44Z</time></trkpt><trkpt lat="42.12821662657733" lon="12.881592295972512"><ele>932.0</ele><time>2026-03-29T15:26:45.999Z</time></trkpt><trkpt lat="42.127975352791516" lon="12.881626995597532"><ele>932.0</ele><time>2026-03-29T15:26:48.999Z</time></trkpt><trkpt lat="42.12792223159091" lon="12.881675937232705"><ele>932.0</ele><time>2026-03-29T15:30:00.999Z</time></trkpt><trkpt lat="42.12784732406711" lon="12.881725351480021"><ele>932.0</ele><time>2026-03-29T15:31:46.999Z</time></trkpt><trkpt lat="42.12779237139242" lon="12.881676590160593"><ele>932.0000000000001</ele><time>2026-03-29T15:31:49.999Z</time></trkpt><trkpt lat="42.12782091173379" lon="12.88159553462274"><ele>932.0</ele><time>2026-03-29T15:31:51.999Z</time></trkpt><trkpt lat="42.12784959953032" lon="12.881491569283783"><ele>932.0</ele><time>2026-03-29T15:31:52.999Z</time></trkpt><trkpt lat="42.12786946267943" lon="12.881387500374158"><ele>932.0</ele><time>2026-03-29T15:31:53.999Z</time></trkpt><trkpt lat="42.12791563575943" lon="12.881268939458362"><ele>932.0000000000001</ele><time>2026-03-29T15:31:54.999Z</time></trkpt><trkpt lat="42.12794785905051" lon="12.881161468684533"><ele>932.0</ele><time>2026-03-29T15:31:55.999Z</time></trkpt><trkpt lat="42.12797441170973" lon="12.881064769186567"><ele>932.0</ele><time>2026-03-29T15:31:56.999Z</time></trkpt><trkpt lat="42.12800262141263" lon="12.880970633221777"><ele>932.0</ele><time>2026-03-29T15:31:57.999Z</time></trkpt><trkpt lat="42.128020567159105" lon="12.880884665615424"><ele>932.0</ele><time>2026-03-29T15:31:58.999Z</time></trkpt><trkpt lat="42.12803656065926" lon="12.880797628351722"><ele>932.0</ele><time>2026-03-29T15:31:59.999Z</time></trkpt><trkpt lat="42.12804222640863" lon="12.880695320710144"><ele>932.0</ele><time>2026-03-29T15:32:00.999Z</time></trkpt><trkpt lat="42.12804599330276" lon="12.880591023187794"><ele>932.0</ele><time>2026-03-29T15:32:01.999Z</time></trkpt><trkpt lat="42.12805435587695" lon="12.880498144936585"><ele>932.0</ele><time>2026-03-29T15:32:02.999Z</time></trkpt><trkpt lat="42.128048718972565" lon="12.880369173095065"><ele>932.6</ele><time>2026-03-29T15:32:04.999Z</time></trkpt><trkpt lat="42.12809536339492" lon="12.880189547697928"><ele>933.2</ele><time>2026-03-29T15:32:06.999Z</time></trkpt><trkpt lat="42.12811228154557" lon="12.880098803088847"><ele>933.8</ele><time>2026-03-29T15:32:07.999Z</time></trkpt><trkpt lat="42.12810146313414" lon="12.879957033684498"><ele>934.4</ele><time>2026-03-29T15:32:09.999Z</time></trkpt><trkpt lat="42.12810203056671" lon="12.87986959718932"><ele>935.0</ele><time>2026-03-29T15:32:11.999Z</time></trkpt><trkpt lat="42.12810280410024" lon="12.879753490782251"><ele>935.1666666666667</ele><time>2026-03-29T15:32:13.999Z</time></trkpt><trkpt lat="42.12810815664623" lon="12.879655885314682"><ele>935.3333333333334</ele><time>2026-03-29T15:32:15.999Z</time></trkpt><trkpt lat="42.12812219122565" lon="12.87955176629891"><ele>935.5</ele><time>2026-03-29T15:32:19.999Z</time></trkpt><trkpt lat="42.128129643369434" lon="12.879426416049013"><ele>935.6666666666667</ele><time>2026-03-29T15:32:22.999Z</time></trkpt><trkpt lat="42.12814839565269" lon="12.879282319655417"><ele>935.8333333333334</ele><time>2026-03-29T15:32:24.999Z</time></trkpt><trkpt lat="42.12813349687086" lon="12.879192997440601"><ele>936.0</ele><time>2026-03-29T15:32:26Z</time></trkpt><trkpt lat="42.12811872666468" lon="12.879104722577525"><ele>936.1666666666666</ele><time>2026-03-29T15:32:27Z</time></trkpt><trkpt lat="42.12809921916113" lon="12.87898739756423"><ele>936.3333333333333</ele><time>2026-03-29T15:32:28Z</time></trkpt><trkpt lat="42.128080965612256" lon="12.878872009709868"><ele>936.5</ele><time>2026-03-29T15:32:29Z</time></trkpt><trkpt lat="42.12806826470034" lon="12.878787794873501"><ele>936.6666666666666</ele><time>2026-03-29T15:32:30Z</time></trkpt><trkpt lat="42.12802718782787" lon="12.87867961117571"><ele>936.8333333333333</ele><time>2026-03-29T15:32:32Z</time></trkpt><trkpt lat="42.127997308515276" lon="12.87859760635178"><ele>937.0</ele><time>2026-03-29T15:32:35Z</time></trkpt><trkpt lat="42.12796536535222" lon="12.87851115322159"><ele>937.9999999999999</ele><time>2026-03-29T15:32:38Z</time></trkpt><trkpt lat="42.12794656132888" lon="12.878423766868234"><ele>939.0</ele><time>2026-03-29T15:32:40Z</time></trkpt><trkpt lat="42.12789870912344" lon="12.878308183777794"><ele>940.0</ele><time>2026-03-29T15:32:42Z</time></trkpt><trkpt lat="42.12789269826689" lon="12.878223152537192"><ele>941.0</ele><time>2026-03-29T15:32:43Z</time></trkpt><trkpt lat="42.127887711557406" lon="12.87810861429731"><ele>941.9999999999999</ele><time>2026-03-29T15:32:44Z</time></trkpt><trkpt lat="42.12788159566149" lon="12.878011752701292"><ele>943.0</ele><time>2026-03-29T15:32:45Z</time></trkpt><trkpt lat="42.12787491727728" lon="12.87782993273628"><ele>942.9999999999999</ele><time>2026-03-29T15:32:46.999Z</time></trkpt><trkpt lat="42.12789014856525" lon="12.877723183098626"><ele>943.0</ele><time>2026-03-29T15:32:47.999Z</time></trkpt><trkpt lat="42.127904992681145" lon="12.877615200263405"><ele>943.0</ele><time>2026-03-29T15:32:48.999Z</time></trkpt><trkpt lat="42.127915015792496" lon="12.877500534885408"><ele>943.0</ele><time>2026-03-29T15:32:49.999Z</time></trkpt><trkpt lat="42.12793331383616" lon="12.877393814960367"><ele>942.9999999999999</ele><time>2026-03-29T15:32:50.999Z</time></trkpt><trkpt lat="42.12797088974524" lon="12.877273368752522"><ele>943.0</ele><time>2026-03-29T15:32:51.999Z</time></trkpt><trkpt lat="42.127990071956354" lon="12.877152145976575"><ele>946.5999999999999</ele><time>2026-03-29T15:32:52.999Z</time></trkpt><trkpt lat="42.128006084666154" lon="12.877031721942739"><ele>950.1999999999999</ele><time>2026-03-29T15:32:53.999Z</time></trkpt><trkpt lat="42.12800282932307" lon="12.876902289902288"><ele>953.8</ele><time>2026-03-29T15:32:54.999Z</time></trkpt><trkpt lat="42.12799869622701" lon="12.876782061610974"><ele>957.4</ele><time>2026-03-29T15:32:55.999Z</time></trkpt><trkpt lat="42.12801239261527" lon="12.876669594379557"><ele>961.0</ele><time>2026-03-29T15:32:56.999Z</time></trkpt><trkpt lat="42.12802971341227" lon="12.876540684051879"><ele>965.1666666666666</ele><time>2026-03-29T15:32:57.999Z</time></trkpt><trkpt lat="42.12805071811219" lon="12.876410267483802"><ele>969.3333333333333</ele><time>2026-03-29T15:32:58.999Z</time></trkpt><trkpt lat="42.12812334408944" lon="12.876314720606455"><ele>973.5</ele><time>2026-03-29T15:32:59.999Z</time></trkpt><trkpt lat="42.12820378141791" lon="12.876235250411616"><ele>977.6666666666667</ele><time>2026-03-29T15:33:00.999Z</time></trkpt><trkpt lat="42.12824299654464" lon="12.876147534225776"><ele>981.8333333333334</ele><time>2026-03-29T15:33:01.999Z</time></trkpt><trkpt lat="42.12824998955468" lon="12.876051880022237"><ele>986.0</ele><time>2026-03-29T15:33:02.999Z</time></trkpt><trkpt lat="42.128256056510665" lon="12.875954660560646"><ele>990.6666666666667</ele><time>2026-03-29T15:33:03.999Z</time></trkpt><trkpt lat="42.12824313566716" lon="12.875843153997145"><ele>995.3333333333334</ele><time>2026-03-29T15:33:04.999Z</time></trkpt><trkpt lat="42.12823772940004" lon="12.87574117847735"><ele>1000.0</ele><time>2026-03-29T15:33:05.999Z</time></trkpt><trkpt lat="42.128215698390285" lon="12.875640787105956"><ele>1004.6666666666667</ele><time>2026-03-29T15:33:06.999Z</time></trkpt><trkpt lat="42.12821034688253" lon="12.87555179006695"><ele>1009.3333333333334</ele><time>2026-03-29T15:33:07.999Z</time></trkpt><trkpt lat="42.12822474293056" lon="12.875467826543472"><ele>1014.0</ele><time>2026-03-29T15:33:08.999Z</time></trkpt><trkpt lat="42.12824919855822" lon="12.875328891454252"><ele>1016.4000000000001</ele><time>2026-03-29T15:33:10.999Z</time></trkpt><trkpt lat="42.128250456322924" lon="12.875178697348229"><ele>1018.8000000000001</ele><time>2026-03-29T15:33:12.999Z</time></trkpt><trkpt lat="42.12822929685521" lon="12.875019744425696"><ele>1021.1999999999999</ele><time>2026-03-29T15:33:14.999Z</time></trkpt><trkpt lat="42.12817367944761" lon="12.874872709787507"><ele>1023.5999999999999</ele><time>2026-03-29T15:33:16.999Z</time></trkpt><trkpt lat="42.128160497427565" lon="12.874752326782781"><ele>1026.0</ele><time>2026-03-29T15:33:18.999Z</time></trkpt><trkpt lat="42.12818421024111" lon="12.874672434464117"><ele>1026.0</ele><time>2026-03-29T15:33:19.999Z</time></trkpt><trkpt lat="42.128203768032726" lon="12.87458547516931"><ele>1026.0</ele><time>2026-03-29T15:33:21.999Z</time></trkpt><trkpt lat="42.12823426710386" lon="12.874464151980629"><ele>1026.0</ele><time>2026-03-29T15:33:22.999Z</time></trkpt><trkpt lat="42.1282516291469" lon="12.874342144023283"><ele>1026.0</ele><time>2026-03-29T15:33:23.999Z</time></trkpt><trkpt lat="42.12829975192456" lon="12.874180974633955"><ele>1026.0</ele><time>2026-03-29T15:33:25.999Z</time></trkpt><trkpt lat="42.12834816947643" lon="12.87411672342015"><ele>1019.1666666666666</ele><time>2026-03-29T15:33:26.999Z</time></trkpt><trkpt lat="42.12840423036701" lon="12.874060176365942"><ele>1012.3333333333333</ele><time>2026-03-29T15:33:27.999Z</time></trkpt><trkpt lat="42.12847071539144" lon="12.87399363063337"><ele>1005.5</ele><time>2026-03-29T15:33:28.999Z</time></trkpt><trkpt lat="42.128533296590064" lon="12.873908739092824"><ele>998.6666666666666</ele><time>2026-03-29T15:33:29.999Z</time></trkpt><trkpt lat="42.12857907137014" lon="12.873831274050563"><ele>991.8333333333333</ele><time>2026-03-29T15:33:30.999Z</time></trkpt><trkpt lat="42.12865834179945" lon="12.87373205761323"><ele>985.0</ele><time>2026-03-29T15:33:32.999Z</time></trkpt><trkpt lat="42.128725046907654" lon="12.873711190024993"><ele>985.0</ele><time>2026-03-29T15:33:33.999Z</time></trkpt><trkpt lat="42.1288203174011" lon="12.873707977053424"><ele>985.0</ele><time>2026-03-29T15:33:34.999Z</time></trkpt><trkpt lat="42.12890745813082" lon="12.873705841339191"><ele>985.0</ele><time>2026-03-29T15:33:35.999Z</time></trkpt><trkpt lat="42.128981701083944" lon="12.87371728059924"><ele>985.0</ele><time>2026-03-29T15:33:36.999Z</time></trkpt><trkpt lat="42.129063652350055" lon="12.873636172140612"><ele>985.0</ele><time>2026-03-29T15:33:38.999Z</time></trkpt><trkpt lat="42.129017148786666" lon="12.873477289332302"><ele>987.9999999999999</ele><time>2026-03-29T15:33:40.999Z</time></trkpt><trkpt lat="42.12898033696325" lon="12.873402268375079"><ele>991.0</ele><time>2026-03-29T15:33:41.999Z</time></trkpt><trkpt lat="42.12891688738871" lon="12.873323285717841"><ele>994.0</ele><time>2026-03-29T15:33:42.999Z</time></trkpt><trkpt lat="42.12885086949232" lon="12.87325707903245"><ele>997.0</ele><time>2026-03-29T15:33:43.999Z</time></trkpt><trkpt lat="42.12878713008695" lon="12.873186046226657"><ele>999.9999999999999</ele><time>2026-03-29T15:33:44.999Z</time></trkpt><trkpt lat="42.12871298093789" lon="12.873109243225956"><ele>1003.0</ele><time>2026-03-29T15:33:45.999Z</time></trkpt><trkpt lat="42.12863423882411" lon="12.873062693398564"><ele>1003.0</ele><time>2026-03-29T15:33:46.999Z</time></trkpt><trkpt lat="42.12853396703529" lon="12.873057248234295"><ele>1003.0</ele><time>2026-03-29T15:33:47.999Z</time></trkpt><trkpt lat="42.12842299637265" lon="12.873080670616323"><ele>1003.0</ele><time>2026-03-29T15:33:48.999Z</time></trkpt><trkpt lat="42.128329558489185" lon="12.87308214127688"><ele>1003.0</ele><time>2026-03-29T15:33:49.999Z</time></trkpt><trkpt lat="42.12825129220206" lon="12.873099091186479"><ele>1003.0</ele><time>2026-03-29T15:33:50.999Z</time></trkpt><trkpt lat="42.128178825497066" lon="12.873071585989491"><ele>1007.0</ele><time>2026-03-29T15:33:51.999Z</time></trkpt><trkpt lat="42.128085659790585" lon="12.873024626786155"><ele>1011.0</ele><time>2026-03-29T15:33:52.999Z</time></trkpt><trkpt lat="42.128000977091574" lon="12.872977775722337"><ele>1015.0</ele><time>2026-03-29T15:33:53.999Z</time></trkpt><trkpt lat="42.127921828811914" lon="12.872908472069694"><ele>1019.0</ele><time>2026-03-29T15:33:54.999Z</time></trkpt><trkpt lat="42.127862986802704" lon="12.872846342837867"><ele>1023.0</ele><time>2026-03-29T15:33:55.999Z</time></trkpt><trkpt lat="42.127759066818456" lon="12.872771405608997"><ele>1023.0</ele><time>2026-03-29T15:33:57.999Z</time></trkpt><trkpt lat="42.12769802889259" lon="12.872728897500322"><ele>1023.0</ele><time>2026-03-29T15:33:59.999Z</time></trkpt><trkpt lat="42.127607426964985" lon="12.87269576490492"><ele>1023.0</ele><time>2026-03-29T15:34:02.999Z</time></trkpt><trkpt lat="42.1275112283685" lon="12.872676247372242"><ele>1023.0</ele><time>2026-03-29T15:34:04.999Z</time></trkpt><trkpt lat="42.12741977735943" lon="12.872624786128013"><ele>1023.0</ele><time>2026-03-29T15:34:06.999Z</time></trkpt><trkpt lat="42.12736733080985" lon="12.872542749256224"><ele>1023.0</ele><time>2026-03-29T15:34:08.999Z</time></trkpt><trkpt lat="42.12735851604098" lon="12.872455105487175"><ele>1017.0</ele><time>2026-03-29T15:34:09.999Z</time></trkpt><trkpt lat="42.12734611497133" lon="12.87236545116031"><ele>1011.0</ele><time>2026-03-29T15:34:10.999Z</time></trkpt><trkpt lat="42.127320051017385" lon="12.87227808247013"><ele>1005.0</ele><time>2026-03-29T15:34:11.999Z</time></trkpt><trkpt lat="42.1272869212875" lon="12.872205022143262"><ele>999.0</ele><time>2026-03-29T15:34:12.999Z</time></trkpt><trkpt lat="42.127221028936866" lon="12.872063715216747"><ele>993.0</ele><time>2026-03-29T15:34:14.999Z</time></trkpt><trkpt lat="42.12718381930046" lon="12.871985322701189"><ele>987.0</ele><time>2026-03-29T15:34:15.999Z</time></trkpt><trkpt lat="42.12714348617395" lon="12.871906632277582"><ele>987.0</ele><time>2026-03-29T15:34:16.999Z</time></trkpt><trkpt lat="42.12709314810788" lon="12.871824313073292"><ele>987.0</ele><time>2026-03-29T15:34:17.999Z</time></trkpt><trkpt lat="42.12703410262171" lon="12.871747112106103"><ele>987.0</ele><time>2026-03-29T15:34:18.999Z</time></trkpt><trkpt lat="42.12700082478174" lon="12.871666359166644"><ele>987.0</ele><time>2026-03-29T15:34:19.999Z</time></trkpt><trkpt lat="42.12697357841154" lon="12.871579512954089"><ele>987.0</ele><time>2026-03-29T15:34:20.999Z</time></trkpt><trkpt lat="42.12694580000686" lon="12.87148786052503"><ele>987.0</ele><time>2026-03-29T15:34:21.999Z</time></trkpt><trkpt lat="42.12692029085609" lon="12.871400753166245"><ele>987.0</ele><time>2026-03-29T15:34:22.999Z</time></trkpt><trkpt lat="42.12689207635652" lon="12.871307039607142"><ele>984.8333333333334</ele><time>2026-03-29T15:34:23.999Z</time></trkpt><trkpt lat="42.126856795300945" lon="12.871213597489435"><ele>982.6666666666667</ele><time>2026-03-29T15:34:24.999Z</time></trkpt><trkpt lat="42.12681473304654" lon="12.871094668670453"><ele>980.5</ele><time>2026-03-29T15:34:25.999Z</time></trkpt><trkpt lat="42.126768252099275" lon="12.870976627835992"><ele>978.3333333333334</ele><time>2026-03-29T15:34:26.999Z</time></trkpt><trkpt lat="42.126720740897724" lon="12.870871640102962"><ele>976.1666666666667</ele><time>2026-03-29T15:34:27.999Z</time></trkpt><trkpt lat="42.12667707368144" lon="12.870777310862117"><ele>974.0</ele><time>2026-03-29T15:34:28.999Z</time></trkpt><trkpt lat="42.1266437749442" lon="12.870621896377905"><ele>973.75</ele><time>2026-03-29T15:34:30.999Z</time></trkpt><trkpt lat="42.126565114353824" lon="12.870416425446075"><ele>973.5</ele><time>2026-03-29T15:34:33Z</time></trkpt><trkpt lat="42.126488015918355" lon="12.87027530812794"><ele>973.25</ele><time>2026-03-29T15:34:34Z</time></trkpt><trkpt lat="42.12642417491381" lon="12.87014757605796"><ele>973.0</ele><time>2026-03-29T15:34:35Z</time></trkpt><trkpt lat="42.12637842060711" lon="12.870066439962569"><ele>968.8333333333333</ele><time>2026-03-29T15:34:36Z</time></trkpt><trkpt lat="42.126322013427725" lon="12.869994828610949"><ele>964.6666666666666</ele><time>2026-03-29T15:34:37Z</time></trkpt><trkpt lat="42.126268104167316" lon="12.869926056878851"><ele>960.5</ele><time>2026-03-29T15:34:38Z</time></trkpt><trkpt lat="42.12621818173922" lon="12.869862956290095"><ele>956.3333333333333</ele><time>2026-03-29T15:34:39Z</time></trkpt><trkpt lat="42.12616173610186" lon="12.869797666415288"><ele>952.1666666666666</ele><time>2026-03-29T15:34:40Z</time></trkpt><trkpt lat="42.12606328286108" lon="12.869718548960808"><ele>948.0</ele><time>2026-03-29T15:34:41Z</time></trkpt><trkpt lat="42.12597896920041" lon="12.869634345159628"><ele>948.0</ele><time>2026-03-29T15:34:42Z</time></trkpt><trkpt lat="42.12591010319689" lon="12.869555136893899"><ele>948.0</ele><time>2026-03-29T15:34:43Z</time></trkpt><trkpt lat="42.125797946402244" lon="12.869424338530637"><ele>948.0</ele><time>2026-03-29T15:34:45Z</time></trkpt><trkpt lat="42.1257441187272" lon="12.869362544938019"><ele>948.0</ele><time>2026-03-29T15:34:46Z</time></trkpt><trkpt lat="42.12565852847752" lon="12.869286840873212"><ele>948.0</ele><time>2026-03-29T15:34:48Z</time></trkpt><trkpt lat="42.12551611885268" lon="12.869360292868018"><ele>943.8</ele><time>2026-03-29T15:34:50Z</time></trkpt><trkpt lat="42.12541462265124" lon="12.869459327966657"><ele>939.5999999999999</ele><time>2026-03-29T15:34:51.999Z</time></trkpt><trkpt lat="42.125361483569556" lon="12.86955319514793"><ele>935.4000000000001</ele><time>2026-03-29T15:34:53.999Z</time></trkpt><trkpt lat="42.12531956576286" lon="12.869694160499611"><ele>931.2</ele><time>2026-03-29T15:34:55.999Z</time></trkpt><trkpt lat="42.12525577868435" lon="12.869801041466902"><ele>927.0</ele><time>2026-03-29T15:34:57.999Z</time></trkpt><trkpt lat="42.12521276943424" lon="12.869958206272347"><ele>927.0</ele><time>2026-03-29T15:34:59.999Z</time></trkpt><trkpt lat="42.125164052390545" lon="12.870099228019424"><ele>927.0</ele><time>2026-03-29T15:35:01.999Z</time></trkpt><trkpt lat="42.125158130185966" lon="12.870223797997937"><ele>927.0</ele><time>2026-03-29T15:35:03.999Z</time></trkpt><trkpt lat="42.12515155440564" lon="12.870322395378514"><ele>927.0</ele><time>2026-03-29T15:35:04.999Z</time></trkpt><trkpt lat="42.12514059757732" lon="12.87041832271936"><ele>927.0</ele><time>2026-03-29T15:35:05.999Z</time></trkpt><trkpt lat="42.12512451662718" lon="12.870512598500095"><ele>927.0</ele><time>2026-03-29T15:35:06.999Z</time></trkpt><trkpt lat="42.12512539056624" lon="12.870605065760797"><ele>926.0</ele><time>2026-03-29T15:35:07.999Z</time></trkpt><trkpt lat="42.12509146276503" lon="12.870678378396923"><ele>925.0</ele><time>2026-03-29T15:35:08.999Z</time></trkpt><trkpt lat="42.12498824040965" lon="12.870694028413647"><ele>924.0</ele><time>2026-03-29T15:35:10.999Z</time></trkpt><trkpt lat="42.124911247661466" lon="12.870615818127725"><ele>923.0</ele><time>2026-03-29T15:35:12.999Z</time></trkpt><trkpt lat="42.12482498301884" lon="12.87055827299221"><ele>922.0</ele><time>2026-03-29T15:35:14.999Z</time></trkpt><trkpt lat="42.12475506286751" lon="12.870549516766136"><ele>921.0</ele><time>2026-03-29T15:35:15.999Z</time></trkpt><trkpt lat="42.12469691048383" lon="12.870515764607735"><ele>916.1999999999999</ele><time>2026-03-29T15:35:16.999Z</time></trkpt><trkpt lat="42.1246054959804" lon="12.870448015858383"><ele>911.3999999999999</ele><time>2026-03-29T15:35:18.999Z</time></trkpt><trkpt lat="42.1244697419315" lon="12.870451106607643"><ele>906.6</ele><time>2026-03-29T15:35:20.999Z</time></trkpt><trkpt lat="42.12439824956252" lon="12.87045478425888"><ele>901.8</ele><time>2026-03-29T15:35:21.999Z</time></trkpt><trkpt lat="42.124293368660496" lon="12.870460875661095"><ele>897.0</ele><time>2026-03-29T15:35:23.999Z</time></trkpt><trkpt lat="42.12419333993975" lon="12.870432676272786"><ele>897.0</ele><time>2026-03-29T15:35:25.999Z</time></trkpt><trkpt lat="42.12408864054661" lon="12.870448394468951"><ele>897.0</ele><time>2026-03-29T15:35:27.999Z</time></trkpt><trkpt lat="42.123987203634265" lon="12.870454659647288"><ele>897.0</ele><time>2026-03-29T15:35:29.999Z</time></trkpt><trkpt lat="42.12391852824074" lon="12.870500727011818"><ele>897.0</ele><time>2026-03-29T15:35:31.999Z</time></trkpt><trkpt lat="42.123869560385714" lon="12.870601241616997"><ele>897.0</ele><time>2026-03-29T15:35:34.999Z</time></trkpt><trkpt lat="42.12380537014837" lon="12.870658947944"><ele>893.2</ele><time>2026-03-29T15:35:36.999Z</time></trkpt><trkpt lat="42.12370611296229" lon="12.870630455313165"><ele>889.4000000000001</ele><time>2026-03-29T15:35:38.999Z</time></trkpt><trkpt lat="42.12361492253639" lon="12.870597829488016"><ele>885.5999999999999</ele><time>2026-03-29T15:35:40.999Z</time></trkpt><trkpt lat="42.1234951347145" lon="12.870634684274444"><ele>881.8</ele><time>2026-03-29T15:35:42.999Z</time></trkpt><trkpt lat="42.123391416564374" lon="12.870669966845009"><ele>878.0</ele><time>2026-03-29T15:35:44.999Z</time></trkpt><trkpt lat="42.12329690699618" lon="12.870662889624628"><ele>877.3333333333334</ele><time>2026-03-29T15:35:46.999Z</time></trkpt><trkpt lat="42.12321967522282" lon="12.870595041551786"><ele>876.6666666666667</ele><time>2026-03-29T15:35:48.999Z</time></trkpt><trkpt lat="42.123189168275225" lon="12.87045780118137"><ele>876.0</ele><time>2026-03-29T15:35:50.999Z</time></trkpt><trkpt lat="42.123157885263275" lon="12.87032341445269"><ele>875.3333333333333</ele><time>2026-03-29T15:35:52.999Z</time></trkpt><trkpt lat="42.123104108682185" lon="12.870265795944803"><ele>874.6666666666666</ele><time>2026-03-29T15:35:53.999Z</time></trkpt><trkpt lat="42.12303922838233" lon="12.870278589501108"><ele>874.0</ele><time>2026-03-29T15:35:54.999Z</time></trkpt><trkpt lat="42.12296903746983" lon="12.870310463089401"><ele>873.9999999999999</ele><time>2026-03-29T15:35:55.999Z</time></trkpt><trkpt lat="42.12286402042612" lon="12.870268797882998"><ele>874.0</ele><time>2026-03-29T15:35:57.999Z</time></trkpt><trkpt lat="42.12280468970311" lon="12.870305645754003"><ele>874.0</ele><time>2026-03-29T15:35:59.999Z</time></trkpt><trkpt lat="42.12270403409887" lon="12.870311123299018"><ele>874.0</ele><time>2026-03-29T15:36:35.999Z</time></trkpt><trkpt lat="42.12263480444024" lon="12.870341958802149"><ele>873.9999999999999</ele><time>2026-03-29T15:36:38.999Z</time></trkpt><trkpt lat="42.122576418587144" lon="12.870412257978023"><ele>874.0</ele><time>2026-03-29T15:36:41.999Z</time></trkpt><trkpt lat="42.122467153578235" lon="12.870376957731745"><ele>875.1666666666666</ele><time>2026-03-29T15:36:44.999Z</time></trkpt><trkpt lat="42.12236294256447" lon="12.870365166099333"><ele>876.3333333333333</ele><time>2026-03-29T15:36:46.999Z</time></trkpt><trkpt lat="42.12227293207023" lon="12.870387986650185"><ele>877.5</ele><time>2026-03-29T15:36:50.999Z</time></trkpt><trkpt lat="42.12220185794082" lon="12.870465488475835"><ele>878.6666666666667</ele><time>2026-03-29T15:36:52.999Z</time></trkpt><trkpt lat="42.12215817914189" lon="12.870540614737454"><ele>879.8333333333334</ele><time>2026-03-29T15:36:53.999Z</time></trkpt><trkpt lat="42.122089332348374" lon="12.870599011948476"><ele>881.0</ele><time>2026-03-29T15:36:54.999Z</time></trkpt><trkpt lat="42.12200152680342" lon="12.87060965357759"><ele>881.0</ele><time>2026-03-29T15:36:55.999Z</time></trkpt><trkpt lat="42.12190156485082" lon="12.870599097277095"><ele>880.9999999999999</ele><time>2026-03-29T15:36:56.999Z</time></trkpt><trkpt lat="42.12183331416337" lon="12.870612397896295"><ele>880.9999999999999</ele><time>2026-03-29T15:36:57.999Z</time></trkpt><trkpt lat="42.12168455271229" lon="12.87061713223283"><ele>881.0</ele><time>2026-03-29T15:37:00.999Z</time></trkpt><trkpt lat="42.12157163679291" lon="12.870623029687655"><ele>881.0</ele><time>2026-03-29T15:37:01.999Z</time></trkpt><trkpt lat="42.12144329398782" lon="12.870680324834662"><ele>879.5</ele><time>2026-03-29T15:37:02.999Z</time></trkpt><trkpt lat="42.12131487877056" lon="12.870755983107482"><ele>878.0</ele><time>2026-03-29T15:37:03.999Z</time></trkpt><trkpt lat="42.121186078898646" lon="12.870804156690761"><ele>876.5</ele><time>2026-03-29T15:37:04.999Z</time></trkpt><trkpt lat="42.12108549995769" lon="12.870868792889771"><ele>875.0</ele><time>2026-03-29T15:37:05.999Z</time></trkpt><trkpt lat="42.121013517522414" lon="12.870925524299713"><ele>878.0</ele><time>2026-03-29T15:37:06.999Z</time></trkpt><trkpt lat="42.12093491125724" lon="12.871039045120238"><ele>881.0</ele><time>2026-03-29T15:37:07.999Z</time></trkpt><trkpt lat="42.12085041593195" lon="12.871169793812186"><ele>884.0</ele><time>2026-03-29T15:37:08.999Z</time></trkpt><trkpt lat="42.12076315495385" lon="12.871304438369576"><ele>887.0</ele><time>2026-03-29T15:37:09.999Z</time></trkpt><trkpt lat="42.120687247528735" lon="12.871434805132038"><ele>887.0</ele><time>2026-03-29T15:37:10.999Z</time></trkpt><trkpt lat="42.12058775441499" lon="12.871583439956234"><ele>887.0</ele><time>2026-03-29T15:37:11.999Z</time></trkpt><trkpt lat="42.12047861405464" lon="12.87171586348294"><ele>887.0</ele><time>2026-03-29T15:37:12.999Z</time></trkpt><trkpt lat="42.12040122823514" lon="12.87183207911036"><ele>887.0</ele><time>2026-03-29T15:37:13.999Z</time></trkpt><trkpt lat="42.12033660401466" lon="12.871948965267572"><ele>887.5000000000001</ele><time>2026-03-29T15:37:14.999Z</time></trkpt><trkpt lat="42.120267122093125" lon="12.872018455092823"><ele>888.0</ele><time>2026-03-29T15:37:15.999Z</time></trkpt><trkpt lat="42.12019126649667" lon="12.872067697713229"><ele>888.5</ele><time>2026-03-29T15:37:16.999Z</time></trkpt><trkpt lat="42.12011601204779" lon="12.872108595931511"><ele>889.0</ele><time>2026-03-29T15:37:17.999Z</time></trkpt><trkpt lat="42.12005329520933" lon="12.872158229830193"><ele>889.5000000000001</ele><time>2026-03-29T15:37:18.999Z</time></trkpt><trkpt lat="42.119986320356276" lon="12.872239856412378"><ele>890.0</ele><time>2026-03-29T15:37:19.999Z</time></trkpt><trkpt lat="42.11993201082031" lon="12.872344058554216"><ele>890.6666666666667</ele><time>2026-03-29T15:37:20.999Z</time></trkpt><trkpt lat="42.11989095357335" lon="12.872468645103842"><ele>891.3333333333334</ele><time>2026-03-29T15:37:21.999Z</time></trkpt><trkpt lat="42.11983846223773" lon="12.872578309163702"><ele>892.0</ele><time>2026-03-29T15:37:22.999Z</time></trkpt><trkpt lat="42.11981188980035" lon="12.8726650545908"><ele>892.6666666666667</ele><time>2026-03-29T15:37:23.999Z</time></trkpt><trkpt lat="42.11976639777835" lon="12.872728339521938"><ele>893.3333333333334</ele><time>2026-03-29T15:37:24.999Z</time></trkpt><trkpt lat="42.11966978353918" lon="12.872758694785649"><ele>894.0</ele><time>2026-03-29T15:37:26.999Z</time></trkpt><trkpt lat="42.119593423910025" lon="12.872695917990722"><ele>895.75</ele><time>2026-03-29T15:37:28.999Z</time></trkpt><trkpt lat="42.119590736490466" lon="12.872577549282228"><ele>897.5</ele><time>2026-03-29T15:37:32.999Z</time></trkpt><trkpt lat="42.119661807556284" lon="12.872419833226338"><ele>899.25</ele><time>2026-03-29T15:37:34.999Z</time></trkpt><trkpt lat="42.11972396593859" lon="12.87227053263878"><ele>901.0</ele><time>2026-03-29T15:37:36.999Z</time></trkpt><trkpt lat="42.119778938079996" lon="12.872143798984228"><ele>901.0</ele><time>2026-03-29T15:37:38.999Z</time></trkpt><trkpt lat="42.11983980553533" lon="12.872037698384698"><ele>901.0</ele><time>2026-03-29T15:37:40.999Z</time></trkpt><trkpt lat="42.11994051216908" lon="12.87184902953007"><ele>901.0</ele><time>2026-03-29T15:37:41.999Z</time></trkpt><trkpt lat="42.12002360138824" lon="12.871764456806988"><ele>901.0</ele><time>2026-03-29T15:37:42.999Z</time></trkpt><trkpt lat="42.12009588987395" lon="12.871652403670087"><ele>897.5</ele><time>2026-03-29T15:37:43.999Z</time></trkpt><trkpt lat="42.12018110727115" lon="12.871525353746724"><ele>894.0</ele><time>2026-03-29T15:37:44.999Z</time></trkpt><trkpt lat="42.12023391617447" lon="12.871403992973649"><ele>890.5</ele><time>2026-03-29T15:37:45.999Z</time></trkpt><trkpt lat="42.120282058174546" lon="12.871255846562997"><ele>887.0</ele><time>2026-03-29T15:37:46.999Z</time></trkpt><trkpt lat="42.12033818852891" lon="12.871118408272931"><ele>887.0</ele><time>2026-03-29T15:37:47.999Z</time></trkpt><trkpt lat="42.12038886264219" lon="12.87100417372464"><ele>887.0</ele><time>2026-03-29T15:37:48.999Z</time></trkpt><trkpt lat="42.12044984784431" lon="12.870902985242415"><ele>887.0</ele><time>2026-03-29T15:37:49.999Z</time></trkpt><trkpt lat="42.120531371114204" lon="12.870841815987434"><ele>887.0</ele><time>2026-03-29T15:37:50.999Z</time></trkpt><trkpt lat="42.12062291733159" lon="12.870755245396527"><ele>887.0</ele><time>2026-03-29T15:37:51.999Z</time></trkpt><trkpt lat="42.1207258541671" lon="12.870669957871062"><ele>885.8</ele><time>2026-03-29T15:37:52.999Z</time></trkpt><trkpt lat="42.12078754150152" lon="12.870570159752488"><ele>884.6</ele><time>2026-03-29T15:37:53.999Z</time></trkpt><trkpt lat="42.12083739341477" lon="12.87046247021821"><ele>883.3999999999999</ele><time>2026-03-29T15:37:54.999Z</time></trkpt><trkpt lat="42.12089174834141" lon="12.870332727074848"><ele>882.1999999999999</ele><time>2026-03-29T15:37:55.999Z</time></trkpt><trkpt lat="42.12095827640639" lon="12.870200664962354"><ele>881.0</ele><time>2026-03-29T15:37:56.999Z</time></trkpt><trkpt lat="42.121015364640385" lon="12.87006622647945"><ele>881.0</ele><time>2026-03-29T15:37:57.999Z</time></trkpt><trkpt lat="42.121049031668385" lon="12.869935889752082"><ele>880.9999999999999</ele><time>2026-03-29T15:37:58.999Z</time></trkpt><trkpt lat="42.12106768736402" lon="12.869806843782232"><ele>880.9999999999999</ele><time>2026-03-29T15:37:59.999Z</time></trkpt><trkpt lat="42.12106525324797" lon="12.869709927422452"><ele>881.0</ele><time>2026-03-29T15:38:00.999Z</time></trkpt><trkpt lat="42.12098466784865" lon="12.869609069757882"><ele>881.0</ele><time>2026-03-29T15:38:02.999Z</time></trkpt><trkpt lat="42.12091652421923" lon="12.869574957710416"><ele>881.0000000000001</ele><time>2026-03-29T15:38:03.999Z</time></trkpt><trkpt lat="42.12084178214447" lon="12.869552523287922"><ele>881.0</ele><time>2026-03-29T15:38:04.999Z</time></trkpt><trkpt lat="42.120710207286415" lon="12.869549944827444"><ele>881.0</ele><time>2026-03-29T15:38:06.999Z</time></trkpt><trkpt lat="42.12062688965892" lon="12.869524367983434"><ele>881.0</ele><time>2026-03-29T15:38:07.999Z</time></trkpt><trkpt lat="42.120577212946884" lon="12.869450610484417"><ele>881.0000000000001</ele><time>2026-03-29T15:38:08.999Z</time></trkpt><trkpt lat="42.12056397419977" lon="12.86936075951915"><ele>881.0</ele><time>2026-03-29T15:38:09.999Z</time></trkpt><trkpt lat="42.120577445642716" lon="12.86924884083329"><ele>885.4</ele><time>2026-03-29T15:38:10.999Z</time></trkpt><trkpt lat="42.120628309733355" lon="12.86910760741486"><ele>889.8</ele><time>2026-03-29T15:38:11.999Z</time></trkpt><trkpt lat="42.120650227574004" lon="12.868977146840969"><ele>894.1999999999999</ele><time>2026-03-29T15:38:12.999Z</time></trkpt><trkpt lat="42.12065130480526" lon="12.868867155422482"><ele>898.5999999999999</ele><time>2026-03-29T15:38:13.999Z</time></trkpt><trkpt lat="42.120603592302814" lon="12.86876502089436"><ele>903.0</ele><time>2026-03-29T15:38:14.999Z</time></trkpt><trkpt lat="42.12054730814461" lon="12.868609654876083"><ele>903.0</ele><time>2026-03-29T15:38:15.999Z</time></trkpt><trkpt lat="42.120500202765626" lon="12.868464041345085"><ele>903.0</ele><time>2026-03-29T15:38:16.999Z</time></trkpt><trkpt lat="42.12046254881996" lon="12.868316388979046"><ele>903.0</ele><time>2026-03-29T15:38:17.999Z</time></trkpt><trkpt lat="42.120465321826345" lon="12.86818839283938"><ele>903.0</ele><time>2026-03-29T15:38:18.999Z</time></trkpt><trkpt lat="42.12049636356628" lon="12.868082529524608"><ele>903.0</ele><time>2026-03-29T15:38:19.999Z</time></trkpt><trkpt lat="42.12054787190081" lon="12.867974794707997"><ele>904.2</ele><time>2026-03-29T15:38:20.999Z</time></trkpt><trkpt lat="42.120620495089554" lon="12.867857112342882"><ele>905.4</ele><time>2026-03-29T15:38:21.999Z</time></trkpt><trkpt lat="42.12067804860617" lon="12.867731928094809"><ele>906.6000000000001</ele><time>2026-03-29T15:38:22.999Z</time></trkpt><trkpt lat="42.12070551252146" lon="12.867600944042357"><ele>907.8000000000001</ele><time>2026-03-29T15:38:23.999Z</time></trkpt><trkpt lat="42.12073211936364" lon="12.867472532646394"><ele>909.0</ele><time>2026-03-29T15:38:24.999Z</time></trkpt><trkpt lat="42.12079419683849" lon="12.867365978253575"><ele>906.4000000000001</ele><time>2026-03-29T15:38:25.999Z</time></trkpt><trkpt lat="42.12087955011048" lon="12.867280660827037"><ele>903.8000000000001</ele><time>2026-03-29T15:38:26.999Z</time></trkpt><trkpt lat="42.12098094839419" lon="12.867190544334125"><ele>901.1999999999999</ele><time>2026-03-29T15:38:27.999Z</time></trkpt><trkpt lat="42.121078544032656" lon="12.867122428075467"><ele>898.5999999999999</ele><time>2026-03-29T15:38:28.999Z</time></trkpt><trkpt lat="42.12113792491615" lon="12.86702917035465"><ele>896.0</ele><time>2026-03-29T15:38:29.999Z</time></trkpt><trkpt lat="42.12116936876093" lon="12.866936018634679"><ele>896.0000000000001</ele><time>2026-03-29T15:38:30.999Z</time></trkpt><trkpt lat="42.12116534513506" lon="12.866850515574264"><ele>896.0</ele><time>2026-03-29T15:38:31.999Z</time></trkpt><trkpt lat="42.12113174453865" lon="12.866751523183295"><ele>896.0</ele><time>2026-03-29T15:38:32.999Z</time></trkpt><trkpt lat="42.12108798171898" lon="12.866635521029727"><ele>896.0</ele><time>2026-03-29T15:38:33.999Z</time></trkpt><trkpt lat="42.121041266675704" lon="12.866512704606242"><ele>896.0000000000001</ele><time>2026-03-29T15:38:34.999Z</time></trkpt><trkpt lat="42.121035993354425" lon="12.86640042691131"><ele>896.0</ele><time>2026-03-29T15:38:35.999Z</time></trkpt><trkpt lat="42.12106424968999" lon="12.8663130900764"><ele>898.25</ele><time>2026-03-29T15:38:36.999Z</time></trkpt><trkpt lat="42.121121883079496" lon="12.866201006569774"><ele>900.5</ele><time>2026-03-29T15:38:37.999Z</time></trkpt><trkpt lat="42.121204775016416" lon="12.866086133080069"><ele>902.75</ele><time>2026-03-29T15:38:38.999Z</time></trkpt><trkpt lat="42.121304341537375" lon="12.865975413097251"><ele>905.0</ele><time>2026-03-29T15:38:39.999Z</time></trkpt><trkpt lat="42.12139848492489" lon="12.865850991412914"><ele>907.0</ele><time>2026-03-29T15:38:40.999Z</time></trkpt><trkpt lat="42.12145276723534" lon="12.865730409570554"><ele>909.0</ele><time>2026-03-29T15:38:41.999Z</time></trkpt><trkpt lat="42.1214790539699" lon="12.865624713793444"><ele>911.0</ele><time>2026-03-29T15:38:42.999Z</time></trkpt><trkpt lat="42.121486241757005" lon="12.865467924987856"><ele>913.0</ele><time>2026-03-29T15:38:44.999Z</time></trkpt><trkpt lat="42.12150520439817" lon="12.865311061768413"><ele>915.0</ele><time>2026-03-29T15:38:46.999Z</time></trkpt><trkpt lat="42.121515880502244" lon="12.865180843353345"><ele>912.8333333333334</ele><time>2026-03-29T15:38:47.999Z</time></trkpt><trkpt lat="42.121542333931224" lon="12.865059788946024"><ele>910.6666666666667</ele><time>2026-03-29T15:38:48.999Z</time></trkpt><trkpt lat="42.12159807994206" lon="12.864954978275692"><ele>908.5</ele><time>2026-03-29T15:38:49.999Z</time></trkpt><trkpt lat="42.121649283418925" lon="12.86490222944253"><ele>906.3333333333334</ele><time>2026-03-29T15:38:50.999Z</time></trkpt><trkpt lat="42.121721749772696" lon="12.864860608816649"><ele>904.1666666666667</ele><time>2026-03-29T15:38:51.999Z</time></trkpt><trkpt lat="42.12180711977811" lon="12.864774992163985"><ele>902.0</ele><time>2026-03-29T15:38:52.999Z</time></trkpt><trkpt lat="42.12189328359373" lon="12.864659022215147"><ele>902.0</ele><time>2026-03-29T15:38:53.999Z</time></trkpt><trkpt lat="42.121957172910236" lon="12.864524747787156"><ele>902.0</ele><time>2026-03-29T15:38:54.999Z</time></trkpt><trkpt lat="42.12202500546993" lon="12.864404654900097"><ele>902.0</ele><time>2026-03-29T15:38:55.999Z</time></trkpt><trkpt lat="42.122100336530686" lon="12.864285088282774"><ele>902.0</ele><time>2026-03-29T15:38:56.999Z</time></trkpt><trkpt lat="42.12218434718153" lon="12.864210769620966"><ele>902.0</ele><time>2026-03-29T15:38:57.999Z</time></trkpt><trkpt lat="42.12228922979291" lon="12.864167190266631"><ele>901.2</ele><time>2026-03-29T15:38:58.999Z</time></trkpt><trkpt lat="42.12239900679536" lon="12.864133122901485"><ele>900.4000000000001</ele><time>2026-03-29T15:38:59.999Z</time></trkpt><trkpt lat="42.12249036403948" lon="12.864086588214183"><ele>899.5999999999999</ele><time>2026-03-29T15:39:00.999Z</time></trkpt><trkpt lat="42.12255627209228" lon="12.864009302933148"><ele>898.8</ele><time>2026-03-29T15:39:01.999Z</time></trkpt><trkpt lat="42.122606148736885" lon="12.86391564251555"><ele>898.0</ele><time>2026-03-29T15:39:02.999Z</time></trkpt><trkpt lat="42.12263209990187" lon="12.863766790932358"><ele>898.0</ele><time>2026-03-29T15:39:03.999Z</time></trkpt><trkpt lat="42.122665395908676" lon="12.8635851602037"><ele>898.0</ele><time>2026-03-29T15:39:04.999Z</time></trkpt><trkpt lat="42.12273315552803" lon="12.863439280656104"><ele>898.0</ele><time>2026-03-29T15:39:05.999Z</time></trkpt><trkpt lat="42.12277572036402" lon="12.86331558551631"><ele>898.0</ele><time>2026-03-29T15:39:06.999Z</time></trkpt><trkpt lat="42.1227863369887" lon="12.863169319267431"><ele>901.0</ele><time>2026-03-29T15:39:07.999Z</time></trkpt><trkpt lat="42.12279931869075" lon="12.863044017669917"><ele>904.0</ele><time>2026-03-29T15:39:08.999Z</time></trkpt><trkpt lat="42.12284179092831" lon="12.862916142463087"><ele>907.0</ele><time>2026-03-29T15:39:09.999Z</time></trkpt><trkpt lat="42.122854267042094" lon="12.862814905187374"><ele>910.0</ele><time>2026-03-29T15:39:10.999Z</time></trkpt><trkpt lat="42.12286804218089" lon="12.862725239364638"><ele>913.0</ele><time>2026-03-29T15:39:11.999Z</time></trkpt><trkpt lat="42.12299607714501" lon="12.862642488591584"><ele>913.0</ele><time>2026-03-29T15:39:13.999Z</time></trkpt><trkpt lat="42.123084279201365" lon="12.862629237542848"><ele>913.0</ele><time>2026-03-29T15:39:14.999Z</time></trkpt><trkpt lat="42.12316788582628" lon="12.862644496370901"><ele>913.0</ele><time>2026-03-29T15:39:15.999Z</time></trkpt><trkpt lat="42.12328772283491" lon="12.862656221887345"><ele>913.0</ele><time>2026-03-29T15:39:16.999Z</time></trkpt><trkpt lat="42.123370262273646" lon="12.86263865352549"><ele>913.0</ele><time>2026-03-29T15:39:17.999Z</time></trkpt><trkpt lat="42.12346310024748" lon="12.86262139267697"><ele>914.4</ele><time>2026-03-29T15:39:18.999Z</time></trkpt><trkpt lat="42.123564915002696" lon="12.862625539143018"><ele>915.8</ele><time>2026-03-29T15:39:19.999Z</time></trkpt><trkpt lat="42.123661174926085" lon="12.862563850459994"><ele>917.2</ele><time>2026-03-29T15:39:20.999Z</time></trkpt><trkpt lat="42.123754154705786" lon="12.862516678941786"><ele>918.6</ele><time>2026-03-29T15:39:21.999Z</time></trkpt><trkpt lat="42.12381522245728" lon="12.862436335185242"><ele>920.0</ele><time>2026-03-29T15:39:22.999Z</time></trkpt><trkpt lat="42.123848447177544" lon="12.862335680212652"><ele>920.0000000000001</ele><time>2026-03-29T15:39:23.999Z</time></trkpt><trkpt lat="42.12386210409619" lon="12.862231450165691"><ele>920.0</ele><time>2026-03-29T15:39:24.999Z</time></trkpt><trkpt lat="42.12385447205863" lon="12.862146356513284"><ele>920.0</ele><time>2026-03-29T15:39:25.999Z</time></trkpt><trkpt lat="42.123831488196615" lon="12.862054373177607"><ele>920.0</ele><time>2026-03-29T15:39:26.999Z</time></trkpt><trkpt lat="42.12378840680013" lon="12.861941842743159"><ele>920.0000000000001</ele><time>2026-03-29T15:39:27.999Z</time></trkpt><trkpt lat="42.12375953639271" lon="12.861811146845982"><ele>920.0</ele><time>2026-03-29T15:39:28.999Z</time></trkpt><trkpt lat="42.123750689181406" lon="12.861660704626354"><ele>925.75</ele><time>2026-03-29T15:39:29.999Z</time></trkpt><trkpt lat="42.12373795735912" lon="12.861495088890555"><ele>931.5</ele><time>2026-03-29T15:39:30.999Z</time></trkpt><trkpt lat="42.12374572338697" lon="12.861345423388132"><ele>937.25</ele><time>2026-03-29T15:39:31.999Z</time></trkpt><trkpt lat="42.1237356647686" lon="12.861172720775754"><ele>943.0</ele><time>2026-03-29T15:39:32.999Z</time></trkpt><trkpt lat="42.123727489360235" lon="12.861012787701405"><ele>945.0</ele><time>2026-03-29T15:39:33.999Z</time></trkpt><trkpt lat="42.12369446986709" lon="12.860849026860455"><ele>947.0</ele><time>2026-03-29T15:39:34.999Z</time></trkpt><trkpt lat="42.12366279563331" lon="12.86068579829767"><ele>949.0</ele><time>2026-03-29T15:39:35.999Z</time></trkpt><trkpt lat="42.12361922523583" lon="12.860539394010477"><ele>951.0</ele><time>2026-03-29T15:39:36.999Z</time></trkpt><trkpt lat="42.12356634369274" lon="12.860397278210106"><ele>951.0</ele><time>2026-03-29T15:39:37.999Z</time></trkpt><trkpt lat="42.12351519488617" lon="12.860256422377963"><ele>950.9999999999999</ele><time>2026-03-29T15:39:38.999Z</time></trkpt><trkpt lat="42.12349686133544" lon="12.860135817435278"><ele>950.9999999999999</ele><time>2026-03-29T15:39:39.999Z</time></trkpt><trkpt lat="42.1234780894208" lon="12.859991178516795"><ele>951.0</ele><time>2026-03-29T15:39:40.999Z</time></trkpt><trkpt lat="42.12344427643565" lon="12.859853061091911"><ele>951.0</ele><time>2026-03-29T15:39:41.999Z</time></trkpt><trkpt lat="42.123417348836824" lon="12.859704668509881"><ele>949.8</ele><time>2026-03-29T15:39:42.999Z</time></trkpt><trkpt lat="42.123361156887185" lon="12.859559577922534"><ele>948.5999999999999</ele><time>2026-03-29T15:39:43.999Z</time></trkpt><trkpt lat="42.12335606683251" lon="12.859442115896513"><ele>947.4</ele><time>2026-03-29T15:39:44.999Z</time></trkpt><trkpt lat="42.12338551228267" lon="12.859328882518994"><ele>946.2</ele><time>2026-03-29T15:39:45.999Z</time></trkpt><trkpt lat="42.12342976760576" lon="12.859208504052447"><ele>945.0</ele><time>2026-03-29T15:39:46.999Z</time></trkpt><trkpt lat="42.123525260983534" lon="12.859082013255113"><ele>945.0</ele><time>2026-03-29T15:39:47.999Z</time></trkpt><trkpt lat="42.12360753015662" lon="12.858963817100259"><ele>945.0</ele><time>2026-03-29T15:39:48.999Z</time></trkpt><trkpt lat="42.12368835407397" lon="12.858830146801376"><ele>945.0</ele><time>2026-03-29T15:39:49.999Z</time></trkpt><trkpt lat="42.12374853122549" lon="12.858712322811698"><ele>945.0</ele><time>2026-03-29T15:39:50.999Z</time></trkpt><trkpt lat="42.123788577673466" lon="12.858587858190754"><ele>945.0</ele><time>2026-03-29T15:39:51.999Z</time></trkpt><trkpt lat="42.123798797029615" lon="12.858483480920972"><ele>945.0</ele><time>2026-03-29T15:39:52.999Z</time></trkpt><trkpt lat="42.1237797510905" lon="12.85839825041882"><ele>945.0</ele><time>2026-03-29T15:39:53.999Z</time></trkpt><trkpt lat="42.123758926518796" lon="12.85828462113725"><ele>945.0</ele><time>2026-03-29T15:39:54.999Z</time></trkpt><trkpt lat="42.12377519020526" lon="12.85817025440491"><ele>945.0</ele><time>2026-03-29T15:39:55.999Z</time></trkpt><trkpt lat="42.12381656974222" lon="12.85805606464295"><ele>945.0</ele><time>2026-03-29T15:39:56.999Z</time></trkpt><trkpt lat="42.123880889240105" lon="12.85793327196882"><ele>947.6</ele><time>2026-03-29T15:39:57.999Z</time></trkpt><trkpt lat="42.123946197098284" lon="12.857793114333983"><ele>950.2</ele><time>2026-03-29T15:39:58.999Z</time></trkpt><trkpt lat="42.124005971639825" lon="12.857671806804474"><ele>952.8</ele><time>2026-03-29T15:39:59.999Z</time></trkpt><trkpt lat="42.12407124182743" lon="12.857556964956752"><ele>955.4</ele><time>2026-03-29T15:40:00.999Z</time></trkpt><trkpt lat="42.12414735674465" lon="12.85746652048567"><ele>958.0</ele><time>2026-03-29T15:40:01.999Z</time></trkpt><trkpt lat="42.12420375819697" lon="12.857374728575186"><ele>951.8</ele><time>2026-03-29T15:40:02.999Z</time></trkpt><trkpt lat="42.124272034749815" lon="12.857249211715487"><ele>945.5999999999999</ele><time>2026-03-29T15:40:03.999Z</time></trkpt><trkpt lat="42.12432710834965" lon="12.857120213372216"><ele>939.4000000000001</ele><time>2026-03-29T15:40:04.999Z</time></trkpt><trkpt lat="42.124385868306554" lon="12.857008980330335"><ele>933.2</ele><time>2026-03-29T15:40:05.999Z</time></trkpt><trkpt lat="42.12443165672849" lon="12.856917856882268"><ele>927.0</ele><time>2026-03-29T15:40:06.999Z</time></trkpt><trkpt lat="42.12447003335918" lon="12.856835901072003"><ele>932.0</ele><time>2026-03-29T15:40:07.999Z</time></trkpt><trkpt lat="42.12451874885152" lon="12.856731683915838"><ele>937.0</ele><time>2026-03-29T15:40:08.999Z</time></trkpt><trkpt lat="42.12455612237323" lon="12.856636875801383"><ele>942.0</ele><time>2026-03-29T15:40:09.999Z</time></trkpt><trkpt lat="42.12464154780818" lon="12.856561178788521"><ele>947.0</ele><time>2026-03-29T15:40:10.999Z</time></trkpt><trkpt lat="42.1247268435544" lon="12.856488528286636"><ele>952.0</ele><time>2026-03-29T15:40:11.999Z</time></trkpt><trkpt lat="42.12481973909475" lon="12.856447136386233"><ele>942.0</ele><time>2026-03-29T15:40:12.999Z</time></trkpt><trkpt lat="42.12490371688638" lon="12.856420921546963"><ele>932.0</ele><time>2026-03-29T15:40:13.999Z</time></trkpt><trkpt lat="42.12498573894288" lon="12.856383851469884"><ele>922.0</ele><time>2026-03-29T15:40:14.999Z</time></trkpt><trkpt lat="42.12507714525216" lon="12.856286425286005"><ele>912.0</ele><time>2026-03-29T15:40:15.999Z</time></trkpt><trkpt lat="42.125151158820984" lon="12.856152245953238"><ele>902.0</ele><time>2026-03-29T15:40:16.999Z</time></trkpt><trkpt lat="42.12522583059426" lon="12.856051165245903"><ele>910.25</ele><time>2026-03-29T15:40:17.999Z</time></trkpt><trkpt lat="42.12530764766562" lon="12.855945066383269"><ele>918.5</ele><time>2026-03-29T15:40:18.999Z</time></trkpt><trkpt lat="42.12540609230661" lon="12.855842893847244"><ele>926.75</ele><time>2026-03-29T15:40:19.999Z</time></trkpt><trkpt lat="42.12549553781071" lon="12.855738502424947"><ele>935.0</ele><time>2026-03-29T15:40:20.999Z</time></trkpt><trkpt lat="42.12557281757979" lon="12.855655551337964"><ele>935.0</ele><time>2026-03-29T15:40:21.999Z</time></trkpt><trkpt lat="42.12564606979814" lon="12.855552799941908"><ele>935.0</ele><time>2026-03-29T15:40:22.999Z</time></trkpt><trkpt lat="42.12571818053718" lon="12.855459262622608"><ele>935.0</ele><time>2026-03-29T15:40:23.999Z</time></trkpt><trkpt lat="42.12579549326229" lon="12.855368294734696"><ele>935.0</ele><time>2026-03-29T15:40:24.999Z</time></trkpt><trkpt lat="42.12586850440334" lon="12.855294855668916"><ele>935.0</ele><time>2026-03-29T15:40:25.999Z</time></trkpt><trkpt lat="42.12594060973882" lon="12.855243708220183"><ele>931.8333333333334</ele><time>2026-03-29T15:40:27Z</time></trkpt><trkpt lat="42.126014705938445" lon="12.855197396808794"><ele>928.6666666666667</ele><time>2026-03-29T15:40:28Z</time></trkpt><trkpt lat="42.12609709078801" lon="12.855155482855375"><ele>925.5</ele><time>2026-03-29T15:40:29Z</time></trkpt><trkpt lat="42.12615040317224" lon="12.855109198010034"><ele>922.3333333333333</ele><time>2026-03-29T15:40:30Z</time></trkpt><trkpt lat="42.126193511237375" lon="12.855037811422722"><ele>919.1666666666666</ele><time>2026-03-29T15:40:31Z</time></trkpt><trkpt lat="42.126204004277746" lon="12.854939589044106"><ele>916.0</ele><time>2026-03-29T15:40:32Z</time></trkpt><trkpt lat="42.12615375790325" lon="12.854767839937942"><ele>916.0</ele><time>2026-03-29T15:40:34Z</time></trkpt><trkpt lat="42.12612943305013" lon="12.854639943207648"><ele>916.0</ele><time>2026-03-29T15:40:35Z</time></trkpt><trkpt lat="42.12612078895749" lon="12.854467188374189"><ele>916.0</ele><time>2026-03-29T15:40:36Z</time></trkpt><trkpt lat="42.126116820624446" lon="12.854306124697214"><ele>916.0</ele><time>2026-03-29T15:40:37Z</time></trkpt><trkpt lat="42.12611756564309" lon="12.854160462508466"><ele>917.4</ele><time>2026-03-29T15:40:38Z</time></trkpt><trkpt lat="42.12613051560333" lon="12.854009568477393"><ele>918.8</ele><time>2026-03-29T15:40:39Z</time></trkpt><trkpt lat="42.12612815346241" lon="12.853904903171893"><ele>920.1999999999999</ele><time>2026-03-29T15:40:40Z</time></trkpt><trkpt lat="42.12611633219897" lon="12.853787240852368"><ele>921.5999999999999</ele><time>2026-03-29T15:40:41Z</time></trkpt><trkpt lat="42.12610628877978" lon="12.853671547480198"><ele>923.0</ele><time>2026-03-29T15:40:42Z</time></trkpt><trkpt lat="42.12612700367055" lon="12.853521343147847"><ele>919.1666666666667</ele><time>2026-03-29T15:40:42.999Z</time></trkpt><trkpt lat="42.126155356892056" lon="12.85339741813889"><ele>915.3333333333334</ele><time>2026-03-29T15:40:43.999Z</time></trkpt><trkpt lat="42.12614502580413" lon="12.853311729407192"><ele>911.5</ele><time>2026-03-29T15:40:44.999Z</time></trkpt><trkpt lat="42.12610472418771" lon="12.853217894720796"><ele>907.6666666666667</ele><time>2026-03-29T15:40:45.999Z</time></trkpt><trkpt lat="42.12603908837311" lon="12.8531641104439"><ele>903.8333333333334</ele><time>2026-03-29T15:40:46.999Z</time></trkpt><trkpt lat="42.125954119286924" lon="12.853111591005307"><ele>900.0</ele><time>2026-03-29T15:40:47.999Z</time></trkpt><trkpt lat="42.12584882763347" lon="12.853071115104266"><ele>900.0</ele><time>2026-03-29T15:40:49Z</time></trkpt><trkpt lat="42.12573660861196" lon="12.853061678397797"><ele>900.0</ele><time>2026-03-29T15:40:50Z</time></trkpt><trkpt lat="42.12561795756921" lon="12.853073808522224"><ele>900.0</ele><time>2026-03-29T15:40:51Z</time></trkpt><trkpt lat="42.12549197573565" lon="12.853072467699471"><ele>900.0</ele><time>2026-03-29T15:40:52Z</time></trkpt><trkpt lat="42.12536555747495" lon="12.853045706354553"><ele>901.25</ele><time>2026-03-29T15:40:53Z</time></trkpt><trkpt lat="42.12525893139698" lon="12.852999978095347"><ele>902.5</ele><time>2026-03-29T15:40:54Z</time></trkpt><trkpt lat="42.12514756819064" lon="12.85292997964415"><ele>903.75</ele><time>2026-03-29T15:40:55Z</time></trkpt><trkpt lat="42.12504099318377" lon="12.852876299727003"><ele>905.0</ele><time>2026-03-29T15:40:56Z</time></trkpt><trkpt lat="42.12492810323647" lon="12.85286114878317"><ele>902.0</ele><time>2026-03-29T15:40:57Z</time></trkpt><trkpt lat="42.124801945859375" lon="12.852877323983137"><ele>899.0</ele><time>2026-03-29T15:40:58Z</time></trkpt><trkpt lat="42.12466880731147" lon="12.852915725411581"><ele>896.0</ele><time>2026-03-29T15:40:59Z</time></trkpt><trkpt lat="42.12454636198975" lon="12.852957361647956"><ele>893.0</ele><time>2026-03-29T15:41:00Z</time></trkpt><trkpt lat="42.12442616404492" lon="12.853008048384519"><ele>893.0</ele><time>2026-03-29T15:41:01Z</time></trkpt><trkpt lat="42.12430704262226" lon="12.853077426044631"><ele>893.0</ele><time>2026-03-29T15:41:02Z</time></trkpt><trkpt lat="42.12417769130309" lon="12.8531396394652"><ele>893.0</ele><time>2026-03-29T15:41:03Z</time></trkpt><trkpt lat="42.12404388133744" lon="12.8531972386958"><ele>893.0</ele><time>2026-03-29T15:41:04Z</time></trkpt><trkpt lat="42.12391859703165" lon="12.853256306166855"><ele>888.0</ele><time>2026-03-29T15:41:05Z</time></trkpt><trkpt lat="42.12378871158553" lon="12.853316864522094"><ele>883.0</ele><time>2026-03-29T15:41:06Z</time></trkpt><trkpt lat="42.123653993814294" lon="12.853369082879768"><ele>878.0</ele><time>2026-03-29T15:41:07Z</time></trkpt><trkpt lat="42.12351797253247" lon="12.853406114442208"><ele>873.0</ele><time>2026-03-29T15:41:08Z</time></trkpt><trkpt lat="42.123375146684715" lon="12.853428024369505"><ele>873.0</ele><time>2026-03-29T15:41:09Z</time></trkpt><trkpt lat="42.12324110594433" lon="12.853450935365677"><ele>873.0</ele><time>2026-03-29T15:41:10Z</time></trkpt><trkpt lat="42.123120554708024" lon="12.853465970157657"><ele>873.0</ele><time>2026-03-29T15:41:11Z</time></trkpt><trkpt lat="42.123005805632964" lon="12.853462280155552"><ele>873.0</ele><time>2026-03-29T15:41:12Z</time></trkpt><trkpt lat="42.122874807970156" lon="12.853438837829852"><ele>871.3333333333333</ele><time>2026-03-29T15:41:13Z</time></trkpt><trkpt lat="42.122731278961204" lon="12.853396834207798"><ele>869.6666666666666</ele><time>2026-03-29T15:41:14Z</time></trkpt><trkpt lat="42.12256518226692" lon="12.853349391297304"><ele>868.0</ele><time>2026-03-29T15:41:15Z</time></trkpt><trkpt lat="42.12242478105101" lon="12.85330237242079"><ele>865.8</ele><time>2026-03-29T15:41:16Z</time></trkpt><trkpt lat="42.12232137727039" lon="12.853246645120304"><ele>863.5999999999999</ele><time>2026-03-29T15:41:17Z</time></trkpt><trkpt lat="42.12221294603098" lon="12.853171853586977"><ele>861.4000000000001</ele><time>2026-03-29T15:41:18Z</time></trkpt><trkpt lat="42.12211608937613" lon="12.8531352673854"><ele>859.2</ele><time>2026-03-29T15:41:19Z</time></trkpt><trkpt lat="42.12201280261113" lon="12.85312569447022"><ele>857.0</ele><time>2026-03-29T15:41:20Z</time></trkpt><trkpt lat="42.121900740788625" lon="12.853155212881347"><ele>857.0</ele><time>2026-03-29T15:41:21Z</time></trkpt><trkpt lat="42.12177151248198" lon="12.853222193730264"><ele>857.0</ele><time>2026-03-29T15:41:22Z</time></trkpt><trkpt lat="42.121636493727195" lon="12.853314574879354"><ele>857.0</ele><time>2026-03-29T15:41:23Z</time></trkpt><trkpt lat="42.121509310439635" lon="12.853399606267828"><ele>857.0</ele><time>2026-03-29T15:41:24Z</time></trkpt><trkpt lat="42.12140185401607" lon="12.853480126530279"><ele>859.0</ele><time>2026-03-29T15:41:25Z</time></trkpt><trkpt lat="42.1212977648618" lon="12.853572488975482"><ele>861.0</ele><time>2026-03-29T15:41:26Z</time></trkpt><trkpt lat="42.12119219041371" lon="12.853686431327057"><ele>863.0</ele><time>2026-03-29T15:41:27Z</time></trkpt><trkpt lat="42.1210891567695" lon="12.85380122131719"><ele>865.0</ele><time>2026-03-29T15:41:28Z</time></trkpt><trkpt lat="42.120992707432485" lon="12.853907722079057"><ele>865.0</ele><time>2026-03-29T15:41:29Z</time></trkpt><trkpt lat="42.120899503336645" lon="12.853990044857472"><ele>865.0</ele><time>2026-03-29T15:41:30Z</time></trkpt><trkpt lat="42.12080095115785" lon="12.854057140739798"><ele>865.0</ele><time>2026-03-29T15:41:31Z</time></trkpt><trkpt lat="42.12070966669782" lon="12.854096249513123"><ele>865.0</ele><time>2026-03-29T15:41:32Z</time></trkpt><trkpt lat="42.12059709840745" lon="12.854111813736901"><ele>865.0</ele><time>2026-03-29T15:41:33Z</time></trkpt><trkpt lat="42.12047004019479" lon="12.85411046145859"><ele>865.25</ele><time>2026-03-29T15:41:34Z</time></trkpt><trkpt lat="42.120337138303285" lon="12.854072685027722"><ele>865.5</ele><time>2026-03-29T15:41:35Z</time></trkpt><trkpt lat="42.12019574223627" lon="12.85400428175925"><ele>865.75</ele><time>2026-03-29T15:41:36Z</time></trkpt><trkpt lat="42.1200778691662" lon="12.853937737264426"><ele>866.0</ele><time>2026-03-29T15:41:37Z</time></trkpt><trkpt lat="42.119972826611615" lon="12.853881745176242"><ele>868.25</ele><time>2026-03-29T15:41:38Z</time></trkpt><trkpt lat="42.119856922000466" lon="12.853861996159857"><ele>870.5</ele><time>2026-03-29T15:41:39Z</time></trkpt><trkpt lat="42.11972994210965" lon="12.853861385674104"><ele>872.75</ele><time>2026-03-29T15:41:40Z</time></trkpt><trkpt lat="42.11959241072733" lon="12.853885874644407"><ele>875.0</ele><time>2026-03-29T15:41:41Z</time></trkpt><trkpt lat="42.119481137240896" lon="12.853931616377578"><ele>875.0</ele><time>2026-03-29T15:41:42Z</time></trkpt><trkpt lat="42.119400375047064" lon="12.853922818029696"><ele>875.0</ele><time>2026-03-29T15:41:43Z</time></trkpt><trkpt lat="42.11929312096132" lon="12.853874365360086"><ele>875.0</ele><time>2026-03-29T15:41:44Z</time></trkpt><trkpt lat="42.11917965874018" lon="12.85378333231733"><ele>875.0</ele><time>2026-03-29T15:41:45Z</time></trkpt><trkpt lat="42.119046580251634" lon="12.853676755768884"><ele>879.25</ele><time>2026-03-29T15:41:46Z</time></trkpt><trkpt lat="42.118913342280536" lon="12.853580681639752"><ele>883.5</ele><time>2026-03-29T15:41:47Z</time></trkpt><trkpt lat="42.11879951290963" lon="12.853475668379273"><ele>887.75</ele><time>2026-03-29T15:41:48Z</time></trkpt><trkpt lat="42.11870199537643" lon="12.853339270578832"><ele>892.0</ele><time>2026-03-29T15:41:49Z</time></trkpt><trkpt lat="42.11861850522036" lon="12.853208956282506"><ele>882.5</ele><time>2026-03-29T15:41:50Z</time></trkpt><trkpt lat="42.11854607625353" lon="12.853115139223544"><ele>873.0</ele><time>2026-03-29T15:41:51Z</time></trkpt><trkpt lat="42.11845171996635" lon="12.853078513423304"><ele>863.5</ele><time>2026-03-29T15:41:52Z</time></trkpt><trkpt lat="42.11833974217577" lon="12.853068768263546"><ele>854.0</ele><time>2026-03-29T15:41:53Z</time></trkpt><trkpt lat="42.11818504202916" lon="12.85307845805291"><ele>851.0</ele><time>2026-03-29T15:41:54Z</time></trkpt><trkpt lat="42.118022639546716" lon="12.853120459969261"><ele>848.0</ele><time>2026-03-29T15:41:55Z</time></trkpt><trkpt lat="42.11786837048167" lon="12.853172641439118"><ele>845.0</ele><time>2026-03-29T15:41:56Z</time></trkpt><trkpt lat="42.11768982464683" lon="12.853234978749462"><ele>845.0</ele><time>2026-03-29T15:41:57Z</time></trkpt><trkpt lat="42.117495631143925" lon="12.853294828474054"><ele>845.0</ele><time>2026-03-29T15:41:58Z</time></trkpt><trkpt lat="42.11733301099461" lon="12.853341027387359"><ele>845.0</ele><time>2026-03-29T15:41:59Z</time></trkpt><trkpt lat="42.1171801950517" lon="12.853370398065074"><ele>845.0</ele><time>2026-03-29T15:42:00Z</time></trkpt><trkpt lat="42.117031931329684" lon="12.853391689029149"><ele>845.0</ele><time>2026-03-29T15:42:01Z</time></trkpt><trkpt lat="42.11691196907619" lon="12.853398345909522"><ele>845.0</ele><time>2026-03-29T15:42:02Z</time></trkpt><trkpt lat="42.1167844398256" lon="12.853379678350924"><ele>845.0</ele><time>2026-03-29T15:42:03Z</time></trkpt><trkpt lat="42.11664845195542" lon="12.853331956859597"><ele>849.6</ele><time>2026-03-29T15:42:04Z</time></trkpt><trkpt lat="42.11652948121672" lon="12.853289476130751"><ele>854.2</ele><time>2026-03-29T15:42:05Z</time></trkpt><trkpt lat="42.11644088857073" lon="12.853254535725657"><ele>858.8</ele><time>2026-03-29T15:42:06Z</time></trkpt><trkpt lat="42.11636922028204" lon="12.85320705615527"><ele>863.4</ele><time>2026-03-29T15:42:07Z</time></trkpt><trkpt lat="42.11632055065366" lon="12.853141365057265"><ele>868.0</ele><time>2026-03-29T15:42:08Z</time></trkpt><trkpt lat="42.11631437267646" lon="12.852955584061377"><ele>868.0</ele><time>2026-03-29T15:42:10Z</time></trkpt><trkpt lat="42.116332716944655" lon="12.85282680372126"><ele>868.0</ele><time>2026-03-29T15:42:11Z</time></trkpt><trkpt lat="42.11633132482016" lon="12.85269366889757"><ele>868.0</ele><time>2026-03-29T15:42:12Z</time></trkpt><trkpt lat="42.116301693372044" lon="12.852537003340263"><ele>868.0</ele><time>2026-03-29T15:42:13Z</time></trkpt><trkpt lat="42.116304414594815" lon="12.852369182281416"><ele>868.0</ele><time>2026-03-29T15:42:14Z</time></trkpt><trkpt lat="42.116302376431854" lon="12.852155723638186"><ele>866.2</ele><time>2026-03-29T15:42:15Z</time></trkpt><trkpt lat="42.116295064649336" lon="12.851996522043663"><ele>864.4</ele><time>2026-03-29T15:42:16Z</time></trkpt><trkpt lat="42.116271119663224" lon="12.851874586138067"><ele>862.6000000000001</ele><time>2026-03-29T15:42:17Z</time></trkpt><trkpt lat="42.11621570130312" lon="12.851750172226037"><ele>860.8000000000001</ele><time>2026-03-29T15:42:18Z</time></trkpt><trkpt lat="42.116144694044735" lon="12.851664739040661"><ele>859.0</ele><time>2026-03-29T15:42:19Z</time></trkpt><trkpt lat="42.116066170042046" lon="12.85159682905482"><ele>852.75</ele><time>2026-03-29T15:42:20Z</time></trkpt><trkpt lat="42.115949554619334" lon="12.851564450413516"><ele>846.5</ele><time>2026-03-29T15:42:21Z</time></trkpt><trkpt lat="42.11581464583098" lon="12.851561160514564"><ele>840.25</ele><time>2026-03-29T15:42:22Z</time></trkpt><trkpt lat="42.115674393612466" lon="12.851553930695337"><ele>834.0</ele><time>2026-03-29T15:42:23Z</time></trkpt><trkpt lat="42.11552652062295" lon="12.851582643209886"><ele>832.0</ele><time>2026-03-29T15:42:24Z</time></trkpt><trkpt lat="42.11538348455204" lon="12.851610307648375"><ele>830.0</ele><time>2026-03-29T15:42:25Z</time></trkpt><trkpt lat="42.11525097040214" lon="12.851665478831277"><ele>828.0</ele><time>2026-03-29T15:42:26Z</time></trkpt><trkpt lat="42.115124900500625" lon="12.851724319720407"><ele>826.0</ele><time>2026-03-29T15:42:27Z</time></trkpt><trkpt lat="42.11500589703591" lon="12.851793231839695"><ele>833.4</ele><time>2026-03-29T15:42:28Z</time></trkpt><trkpt lat="42.11490280454252" lon="12.85185842506922"><ele>840.8</ele><time>2026-03-29T15:42:29Z</time></trkpt><trkpt lat="42.114789064017145" lon="12.85190094196538"><ele>848.1999999999999</ele><time>2026-03-29T15:42:30Z</time></trkpt><trkpt lat="42.11468566107931" lon="12.851909210524031"><ele>855.5999999999999</ele><time>2026-03-29T15:42:31Z</time></trkpt><trkpt lat="42.11459982669315" lon="12.8519024390208"><ele>863.0</ele><time>2026-03-29T15:42:32Z</time></trkpt><trkpt lat="42.11452970345389" lon="12.851882691685654"><ele>858.5</ele><time>2026-03-29T15:42:33Z</time></trkpt><trkpt lat="42.11445314816082" lon="12.851734960570413"><ele>854.0</ele><time>2026-03-29T15:42:35Z</time></trkpt><trkpt lat="42.11442239638206" lon="12.85159546575115"><ele>849.5</ele><time>2026-03-29T15:42:36Z</time></trkpt><trkpt lat="42.11440337422171" lon="12.851434926981902"><ele>845.0</ele><time>2026-03-29T15:42:37Z</time></trkpt><trkpt lat="42.114387245092594" lon="12.85127794854101"><ele>845.0</ele><time>2026-03-29T15:42:38Z</time></trkpt><trkpt lat="42.11433869528966" lon="12.851112375584156"><ele>845.0</ele><time>2026-03-29T15:42:39Z</time></trkpt><trkpt lat="42.11428165082781" lon="12.850985370813751"><ele>845.0</ele><time>2026-03-29T15:42:40Z</time></trkpt><trkpt lat="42.11424067299884" lon="12.850884693452683"><ele>845.0</ele><time>2026-03-29T15:42:41Z</time></trkpt><trkpt lat="42.11416506268251" lon="12.850798427269964"><ele>845.0</ele><time>2026-03-29T15:42:42Z</time></trkpt><trkpt lat="42.11408041917812" lon="12.8507447728585"><ele>843.0</ele><time>2026-03-29T15:42:43Z</time></trkpt><trkpt lat="42.11396381912295" lon="12.850693116085267"><ele>841.0</ele><time>2026-03-29T15:42:44Z</time></trkpt><trkpt lat="42.113843367020216" lon="12.850639216245549"><ele>839.0</ele><time>2026-03-29T15:42:45Z</time></trkpt><trkpt lat="42.11373130843662" lon="12.850564760943646"><ele>837.0</ele><time>2026-03-29T15:42:46Z</time></trkpt><trkpt lat="42.11361446996974" lon="12.850495455737427"><ele>837.0</ele><time>2026-03-29T15:42:47Z</time></trkpt><trkpt lat="42.11347013208202" lon="12.850445883625211"><ele>837.0</ele><time>2026-03-29T15:42:48Z</time></trkpt><trkpt lat="42.11330530769579" lon="12.850422495616337"><ele>837.0</ele><time>2026-03-29T15:42:48.999Z</time></trkpt><trkpt lat="42.1131546149521" lon="12.850399329205208"><ele>838.0</ele><time>2026-03-29T15:42:49.999Z</time></trkpt><trkpt lat="42.113012858795365" lon="12.850369034393726"><ele>839.0</ele><time>2026-03-29T15:42:50.999Z</time></trkpt><trkpt lat="42.1128866275342" lon="12.850338393325787"><ele>840.0</ele><time>2026-03-29T15:42:51.999Z</time></trkpt><trkpt lat="42.112772877164915" lon="12.850336293268589"><ele>841.0</ele><time>2026-03-29T15:42:52.999Z</time></trkpt><trkpt lat="42.112654177130004" lon="12.850377196000059"><ele>841.0</ele><time>2026-03-29T15:42:53.999Z</time></trkpt><trkpt lat="42.11253001046415" lon="12.850452467077078"><ele>841.0</ele><time>2026-03-29T15:42:55Z</time></trkpt><trkpt lat="42.112400048299946" lon="12.850560947603489"><ele>841.0</ele><time>2026-03-29T15:42:56Z</time></trkpt><trkpt lat="42.11227158464605" lon="12.850667733511507"><ele>841.0</ele><time>2026-03-29T15:42:57Z</time></trkpt><trkpt lat="42.11214395273763" lon="12.850743571200104"><ele>843.0</ele><time>2026-03-29T15:42:58Z</time></trkpt><trkpt lat="42.11200728518162" lon="12.850774100916981"><ele>845.0</ele><time>2026-03-29T15:42:59Z</time></trkpt><trkpt lat="42.11184854836299" lon="12.85079591570892"><ele>847.0</ele><time>2026-03-29T15:43:00Z</time></trkpt><trkpt lat="42.111674979148994" lon="12.850827394745576"><ele>848.3333333333333</ele><time>2026-03-29T15:43:01Z</time></trkpt><trkpt lat="42.1115127483991" lon="12.850875962552063"><ele>849.6666666666667</ele><time>2026-03-29T15:43:02Z</time></trkpt><trkpt lat="42.11135154981129" lon="12.850947766156347"><ele>851.0</ele><time>2026-03-29T15:43:03Z</time></trkpt><trkpt lat="42.11119185372471" lon="12.851002889496671"><ele>855.0</ele><time>2026-03-29T15:43:04Z</time></trkpt><trkpt lat="42.111036572553786" lon="12.851044487246986"><ele>859.0</ele><time>2026-03-29T15:43:05Z</time></trkpt><trkpt lat="42.11088942392795" lon="12.85106154578579"><ele>863.0</ele><time>2026-03-29T15:43:06Z</time></trkpt><trkpt lat="42.11074815501771" lon="12.85108922830572"><ele>867.0</ele><time>2026-03-29T15:43:07Z</time></trkpt><trkpt lat="42.110604064763166" lon="12.851139861940103"><ele>867.0</ele><time>2026-03-29T15:43:08Z</time></trkpt><trkpt lat="42.11046517247886" lon="12.851223548928719"><ele>867.0</ele><time>2026-03-29T15:43:09Z</time></trkpt><trkpt lat="42.110319593619714" lon="12.85127784233334"><ele>867.0</ele><time>2026-03-29T15:43:10Z</time></trkpt><trkpt lat="42.1101968217537" lon="12.851309472485488"><ele>867.0</ele><time>2026-03-29T15:43:11Z</time></trkpt><trkpt lat="42.110094616726876" lon="12.851347045473357"><ele>867.0</ele><time>2026-03-29T15:43:12Z</time></trkpt><trkpt lat="42.11000144990533" lon="12.851398014073363"><ele>867.0</ele><time>2026-03-29T15:43:13Z</time></trkpt><trkpt lat="42.10990293899191" lon="12.851451187287774"><ele>867.0</ele><time>2026-03-29T15:43:14Z</time></trkpt><trkpt lat="42.10980264368222" lon="12.851462341851803"><ele>867.0</ele><time>2026-03-29T15:43:15Z</time></trkpt><trkpt lat="42.10970098566443" lon="12.851436401535715"><ele>867.0</ele><time>2026-03-29T15:43:16Z</time></trkpt><trkpt lat="42.109592039359335" lon="12.851390508754461"><ele>867.2</ele><time>2026-03-29T15:43:17Z</time></trkpt><trkpt lat="42.10948129913572" lon="12.851366012764776"><ele>867.4000000000001</ele><time>2026-03-29T15:43:18Z</time></trkpt><trkpt lat="42.109394246688915" lon="12.85137876270624"><ele>867.5999999999999</ele><time>2026-03-29T15:43:19Z</time></trkpt><trkpt lat="42.109331118990745" lon="12.85137309505138"><ele>867.8</ele><time>2026-03-29T15:43:20Z</time></trkpt><trkpt lat="42.10925773963911" lon="12.851259309264906"><ele>868.0</ele><time>2026-03-29T15:43:22Z</time></trkpt><trkpt lat="42.109288838528094" lon="12.851113404678141"><ele>868.0</ele><time>2026-03-29T15:43:24Z</time></trkpt><trkpt lat="42.10935425737558" lon="12.851067820260486"><ele>868.0</ele><time>2026-03-29T15:43:25Z</time></trkpt><trkpt lat="42.10941623459402" lon="12.851047283845109"><ele>868.0</ele><time>2026-03-29T15:43:26Z</time></trkpt><trkpt lat="42.10952766581826" lon="12.851051805465655"><ele>868.0</ele><time>2026-03-29T15:43:48Z</time></trkpt><trkpt lat="42.109611732569675" lon="12.850998862285067"><ele>868.0</ele><time>2026-03-29T15:43:50Z</time></trkpt><trkpt lat="42.10975711937738" lon="12.850942679432315"><ele>868.5</ele><time>2026-03-29T15:43:52Z</time></trkpt><trkpt lat="42.10986803295367" lon="12.850894738244763"><ele>869.0</ele><time>2026-03-29T15:43:53Z</time></trkpt><trkpt lat="42.10998435153098" lon="12.850849734866307"><ele>869.5</ele><time>2026-03-29T15:43:54Z</time></trkpt><trkpt lat="42.110114327904036" lon="12.850783299779447"><ele>870.0</ele><time>2026-03-29T15:43:55Z</time></trkpt><trkpt lat="42.1102875716614" lon="12.85070437576465"><ele>865.6666666666667</ele><time>2026-03-29T15:43:56Z</time></trkpt><trkpt lat="42.11045792241911" lon="12.850599015640345"><ele>861.3333333333334</ele><time>2026-03-29T15:43:57Z</time></trkpt><trkpt lat="42.11060900092047" lon="12.850502529268189"><ele>857.0</ele><time>2026-03-29T15:43:58Z</time></trkpt><trkpt lat="42.1107469347175" lon="12.850422025166573"><ele>855.5</ele><time>2026-03-29T15:43:59Z</time></trkpt><trkpt lat="42.110884329161955" lon="12.850356171413015"><ele>854.0</ele><time>2026-03-29T15:44:00Z</time></trkpt><trkpt lat="42.110997588889376" lon="12.850323554710204"><ele>852.5</ele><time>2026-03-29T15:44:01Z</time></trkpt><trkpt lat="42.11109809352066" lon="12.85029881563317"><ele>851.0</ele><time>2026-03-29T15:44:02Z</time></trkpt><trkpt lat="42.11121105675361" lon="12.85024012529426"><ele>851.0</ele><time>2026-03-29T15:44:03Z</time></trkpt><trkpt lat="42.111334681781024" lon="12.850140573163962"><ele>851.0</ele><time>2026-03-29T15:44:04Z</time></trkpt><trkpt lat="42.11147834340499" lon="12.850015418091989"><ele>851.0</ele><time>2026-03-29T15:44:05Z</time></trkpt><trkpt lat="42.11162130227345" lon="12.849897685767361"><ele>849.25</ele><time>2026-03-29T15:44:06Z</time></trkpt><trkpt lat="42.11177056598284" lon="12.849775557692485"><ele>847.5</ele><time>2026-03-29T15:44:07Z</time></trkpt><trkpt lat="42.11188782262611" lon="12.849675728546309"><ele>845.75</ele><time>2026-03-29T15:44:08Z</time></trkpt><trkpt lat="42.11199080170701" lon="12.849599357117992"><ele>844.0</ele><time>2026-03-29T15:44:09Z</time></trkpt><trkpt lat="42.112071876698096" lon="12.849525860280773"><ele>844.0</ele><time>2026-03-29T15:44:10Z</time></trkpt><trkpt lat="42.112138603391244" lon="12.849437047029351"><ele>844.0</ele><time>2026-03-29T15:44:11Z</time></trkpt><trkpt lat="42.1121977532025" lon="12.849298409093773"><ele>844.0</ele><time>2026-03-29T15:44:12Z</time></trkpt><trkpt lat="42.112254836561966" lon="12.849122572668684"><ele>844.0</ele><time>2026-03-29T15:44:13Z</time></trkpt><trkpt lat="42.11233303091112" lon="12.848950601327404"><ele>841.0</ele><time>2026-03-29T15:44:14Z</time></trkpt><trkpt lat="42.112430388577145" lon="12.848806804419361"><ele>838.0</ele><time>2026-03-29T15:44:15Z</time></trkpt><trkpt lat="42.11251298510456" lon="12.848694358573109"><ele>835.0</ele><time>2026-03-29T15:44:16Z</time></trkpt><trkpt lat="42.112602373887846" lon="12.848628426213805"><ele>832.0</ele><time>2026-03-29T15:44:17Z</time></trkpt><trkpt lat="42.11272300926389" lon="12.848578323219565"><ele>832.0</ele><time>2026-03-29T15:44:18Z</time></trkpt><trkpt lat="42.11287911150207" lon="12.848513488624787"><ele>832.0</ele><time>2026-03-29T15:44:19Z</time></trkpt><trkpt lat="42.11303434714143" lon="12.848412886564438"><ele>832.0</ele><time>2026-03-29T15:44:20Z</time></trkpt><trkpt lat="42.11317466453721" lon="12.84833825419142"><ele>832.25</ele><time>2026-03-29T15:44:21Z</time></trkpt><trkpt lat="42.11332223051661" lon="12.848272842145057"><ele>832.5</ele><time>2026-03-29T15:44:22Z</time></trkpt><trkpt lat="42.11345472434404" lon="12.848225229534592"><ele>832.75</ele><time>2026-03-29T15:44:23Z</time></trkpt><trkpt lat="42.113556631542494" lon="12.848189498024414"><ele>833.0</ele><time>2026-03-29T15:44:24Z</time></trkpt><trkpt lat="42.11364645443175" lon="12.848146783322573"><ele>833.0</ele><time>2026-03-29T15:44:25Z</time></trkpt><trkpt lat="42.1137495077536" lon="12.848066790274702"><ele>833.0</ele><time>2026-03-29T15:44:26Z</time></trkpt><trkpt lat="42.11385802891944" lon="12.847961987964421"><ele>833.0</ele><time>2026-03-29T15:44:27Z</time></trkpt><trkpt lat="42.11396020006092" lon="12.847857269166424"><ele>833.0</ele><time>2026-03-29T15:44:28Z</time></trkpt><trkpt lat="42.11408349040482" lon="12.847812069330642"><ele>829.0</ele><time>2026-03-29T15:44:29Z</time></trkpt><trkpt lat="42.11421807436256" lon="12.847811568292592"><ele>825.0</ele><time>2026-03-29T15:44:30Z</time></trkpt><trkpt lat="42.114366542606476" lon="12.847825050309668"><ele>821.0</ele><time>2026-03-29T15:44:31Z</time></trkpt><trkpt lat="42.11451182266327" lon="12.847810467958801"><ele>817.0</ele><time>2026-03-29T15:44:32Z</time></trkpt><trkpt lat="42.11467999455736" lon="12.847846067760294"><ele>817.0</ele><time>2026-03-29T15:44:33Z</time></trkpt><trkpt lat="42.11483592849866" lon="12.847879073628755"><ele>817.0</ele><time>2026-03-29T15:44:34Z</time></trkpt><trkpt lat="42.11496695108819" lon="12.84790955302585"><ele>817.0</ele><time>2026-03-29T15:44:35Z</time></trkpt><trkpt lat="42.11507295291051" lon="12.847941199116415"><ele>817.0</ele><time>2026-03-29T15:44:36Z</time></trkpt><trkpt lat="42.11516850405739" lon="12.847925942022101"><ele>817.6</ele><time>2026-03-29T15:44:37Z</time></trkpt><trkpt lat="42.11525669038672" lon="12.847881015182802"><ele>818.2</ele><time>2026-03-29T15:44:38Z</time></trkpt><trkpt lat="42.115347266083425" lon="12.847829284216756"><ele>818.8</ele><time>2026-03-29T15:44:39Z</time></trkpt><trkpt lat="42.11544415463132" lon="12.847769268814165"><ele>819.4</ele><time>2026-03-29T15:44:40Z</time></trkpt><trkpt lat="42.11555295706208" lon="12.84770556232721"><ele>820.0</ele><time>2026-03-29T15:44:41Z</time></trkpt><trkpt lat="42.11569993678793" lon="12.847658107924888"><ele>833.6666666666666</ele><time>2026-03-29T15:44:42Z</time></trkpt><trkpt lat="42.11588414235107" lon="12.847606706888087"><ele>847.3333333333333</ele><time>2026-03-29T15:44:43Z</time></trkpt><trkpt lat="42.11608820938083" lon="12.847556028452422"><ele>861.0</ele><time>2026-03-29T15:44:44Z</time></trkpt><trkpt lat="42.116266917388664" lon="12.847520200912765"><ele>861.0</ele><time>2026-03-29T15:44:45Z</time></trkpt><trkpt lat="42.116417549500746" lon="12.847503480065129"><ele>861.0</ele><time>2026-03-29T15:44:46Z</time></trkpt><trkpt lat="42.11658125102883" lon="12.847508568164164"><ele>861.0</ele><time>2026-03-29T15:44:47Z</time></trkpt><trkpt lat="42.11674383283951" lon="12.847524131675216"><ele>860.75</ele><time>2026-03-29T15:44:48Z</time></trkpt><trkpt lat="42.11691198418041" lon="12.847549471285596"><ele>860.5</ele><time>2026-03-29T15:44:49Z</time></trkpt><trkpt lat="42.117060535565315" lon="12.847576700874033"><ele>860.25</ele><time>2026-03-29T15:44:50Z</time></trkpt><trkpt lat="42.117173534352034" lon="12.847616471644653"><ele>860.0</ele><time>2026-03-29T15:44:51Z</time></trkpt><trkpt lat="42.117285906883545" lon="12.84764366954819"><ele>861.5</ele><time>2026-03-29T15:44:52Z</time></trkpt><trkpt lat="42.11741179056387" lon="12.84764526368077"><ele>863.0</ele><time>2026-03-29T15:44:53Z</time></trkpt><trkpt lat="42.117540049685545" lon="12.847630802566048"><ele>864.5</ele><time>2026-03-29T15:44:54Z</time></trkpt><trkpt lat="42.11766365665163" lon="12.84760779468383"><ele>866.0</ele><time>2026-03-29T15:44:54.999Z</time></trkpt><trkpt lat="42.11778030519279" lon="12.847568726827589"><ele>866.0</ele><time>2026-03-29T15:44:55.999Z</time></trkpt><trkpt lat="42.117889387061226" lon="12.847519374745634"><ele>866.0</ele><time>2026-03-29T15:44:56.999Z</time></trkpt><trkpt lat="42.117999652070495" lon="12.847449680031113"><ele>866.0</ele><time>2026-03-29T15:44:57.999Z</time></trkpt><trkpt lat="42.11811664204408" lon="12.847379308921775"><ele>866.0</ele><time>2026-03-29T15:44:58.999Z</time></trkpt><trkpt lat="42.11823592240296" lon="12.847313679303111"><ele>864.25</ele><time>2026-03-29T15:44:59.999Z</time></trkpt><trkpt lat="42.11837354243339" lon="12.8472310552737"><ele>862.5</ele><time>2026-03-29T15:45:01Z</time></trkpt><trkpt lat="42.118512545605256" lon="12.847134846406933"><ele>860.75</ele><time>2026-03-29T15:45:02Z</time></trkpt><trkpt lat="42.11864148546222" lon="12.847060686566925"><ele>859.0</ele><time>2026-03-29T15:45:03Z</time></trkpt><trkpt lat="42.11874881057391" lon="12.846991997617682"><ele>859.0</ele><time>2026-03-29T15:45:04Z</time></trkpt><trkpt lat="42.1188417075249" lon="12.846915923652272"><ele>859.0000000000001</ele><time>2026-03-29T15:45:05Z</time></trkpt><trkpt lat="42.1189220254726" lon="12.846827114915795"><ele>859.0000000000001</ele><time>2026-03-29T15:45:06Z</time></trkpt><trkpt lat="42.11898900198475" lon="12.84671480100643"><ele>859.0</ele><time>2026-03-29T15:45:07Z</time></trkpt><trkpt lat="42.119063197057976" lon="12.846595345637171"><ele>859.0</ele><time>2026-03-29T15:45:08Z</time></trkpt><trkpt lat="42.11916144081266" lon="12.846497918042905"><ele>862.75</ele><time>2026-03-29T15:45:09Z</time></trkpt><trkpt lat="42.11925810655489" lon="12.846390898769778"><ele>866.5</ele><time>2026-03-29T15:45:10Z</time></trkpt><trkpt lat="42.119375877012885" lon="12.84631820440392"><ele>870.25</ele><time>2026-03-29T15:45:11Z</time></trkpt><trkpt lat="42.11948985303069" lon="12.846245960966222"><ele>874.0</ele><time>2026-03-29T15:45:12Z</time></trkpt><trkpt lat="42.11959385978642" lon="12.846154565191323"><ele>874.0</ele><time>2026-03-29T15:45:13Z</time></trkpt><trkpt lat="42.119696869399554" lon="12.846069607119496"><ele>874.0</ele><time>2026-03-29T15:45:14Z</time></trkpt><trkpt lat="42.11980315235961" lon="12.845989056398547"><ele>874.0</ele><time>2026-03-29T15:45:15Z</time></trkpt><trkpt lat="42.11991154828647" lon="12.845898931131758"><ele>874.0</ele><time>2026-03-29T15:45:16Z</time></trkpt><trkpt lat="42.120032378788004" lon="12.845814004159612"><ele>877.25</ele><time>2026-03-29T15:45:17Z</time></trkpt><trkpt lat="42.12014356799958" lon="12.84571080671569"><ele>880.5</ele><time>2026-03-29T15:45:18Z</time></trkpt><trkpt lat="42.12026389216091" lon="12.84560466912683"><ele>883.75</ele><time>2026-03-29T15:45:19Z</time></trkpt><trkpt lat="42.120370569951774" lon="12.8454885017356"><ele>887.0</ele><time>2026-03-29T15:45:20Z</time></trkpt><trkpt lat="42.1204644698339" lon="12.845382853076636"><ele>887.0</ele><time>2026-03-29T15:45:21Z</time></trkpt><trkpt lat="42.1205586466312" lon="12.845267154620363"><ele>887.0</ele><time>2026-03-29T15:45:22Z</time></trkpt><trkpt lat="42.12063149051135" lon="12.845164260250076"><ele>887.0</ele><time>2026-03-29T15:45:23Z</time></trkpt><trkpt lat="42.12070407783841" lon="12.845051096734688"><ele>887.0</ele><time>2026-03-29T15:45:24Z</time></trkpt><trkpt lat="42.120753316821904" lon="12.844949259515452"><ele>887.0</ele><time>2026-03-29T15:45:25Z</time></trkpt><trkpt lat="42.12076745129674" lon="12.844850794038601"><ele>887.4000000000001</ele><time>2026-03-29T15:45:26Z</time></trkpt><trkpt lat="42.12076811585245" lon="12.844724964653706"><ele>887.8000000000001</ele><time>2026-03-29T15:45:27Z</time></trkpt><trkpt lat="42.12074577329576" lon="12.844577585691109"><ele>888.2</ele><time>2026-03-29T15:45:28Z</time></trkpt><trkpt lat="42.120736018891996" lon="12.844419513684768"><ele>888.6</ele><time>2026-03-29T15:45:29Z</time></trkpt><trkpt lat="42.120744650138604" lon="12.844249212221522"><ele>889.0</ele><time>2026-03-29T15:45:30Z</time></trkpt><trkpt lat="42.12076259223952" lon="12.844093561197155"><ele>892.5</ele><time>2026-03-29T15:45:31Z</time></trkpt><trkpt lat="42.120808834373776" lon="12.843953280348686"><ele>896.0</ele><time>2026-03-29T15:45:32Z</time></trkpt><trkpt lat="42.120873114471614" lon="12.843807525781601"><ele>899.5</ele><time>2026-03-29T15:45:33Z</time></trkpt><trkpt lat="42.12096784994188" lon="12.843647778294587"><ele>903.0</ele><time>2026-03-29T15:45:34Z</time></trkpt><trkpt lat="42.121040510359" lon="12.843487856861932"><ele>907.5</ele><time>2026-03-29T15:45:35Z</time></trkpt><trkpt lat="42.1210810988427" lon="12.84332609176149"><ele>912.0</ele><time>2026-03-29T15:45:36Z</time></trkpt><trkpt lat="42.12109888474675" lon="12.843158184688628"><ele>916.5</ele><time>2026-03-29T15:45:37Z</time></trkpt><trkpt lat="42.12109412863189" lon="12.842994683573725"><ele>921.0</ele><time>2026-03-29T15:45:38Z</time></trkpt><trkpt lat="42.12108464191257" lon="12.842829267425381"><ele>921.0</ele><time>2026-03-29T15:45:39Z</time></trkpt><trkpt lat="42.121091796126606" lon="12.842665851796262"><ele>921.0</ele><time>2026-03-29T15:45:40Z</time></trkpt><trkpt lat="42.12111463459758" lon="12.842508501429453"><ele>921.0</ele><time>2026-03-29T15:45:41Z</time></trkpt><trkpt lat="42.12116590694136" lon="12.842346954250381"><ele>921.0</ele><time>2026-03-29T15:45:42Z</time></trkpt><trkpt lat="42.12122356388282" lon="12.842186730676161"><ele>921.25</ele><time>2026-03-29T15:45:43Z</time></trkpt><trkpt lat="42.12128487485718" lon="12.84201262514867"><ele>921.5</ele><time>2026-03-29T15:45:44Z</time></trkpt><trkpt lat="42.12135684808878" lon="12.841855349178184"><ele>921.75</ele><time>2026-03-29T15:45:45Z</time></trkpt><trkpt lat="42.121432502021975" lon="12.841713268089945"><ele>922.0</ele><time>2026-03-29T15:45:46Z</time></trkpt><trkpt lat="42.121521634649184" lon="12.841587720966222"><ele>917.8</ele><time>2026-03-29T15:45:47Z</time></trkpt><trkpt lat="42.12161414372871" lon="12.841464334456548"><ele>913.6</ele><time>2026-03-29T15:45:48Z</time></trkpt><trkpt lat="42.12169687552338" lon="12.841352112092592"><ele>909.3999999999999</ele><time>2026-03-29T15:45:49Z</time></trkpt><trkpt lat="42.121750990442315" lon="12.841247974174596"><ele>905.1999999999999</ele><time>2026-03-29T15:45:50Z</time></trkpt><trkpt lat="42.12178570997057" lon="12.84114265536143"><ele>901.0</ele><time>2026-03-29T15:45:51Z</time></trkpt><trkpt lat="42.121794286577675" lon="12.841038386941214"><ele>901.8</ele><time>2026-03-29T15:45:52Z</time></trkpt><trkpt lat="42.12179815367794" lon="12.84092255212043"><ele>902.5999999999999</ele><time>2026-03-29T15:45:53Z</time></trkpt><trkpt lat="42.12181872787844" lon="12.840786314078246"><ele>903.4</ele><time>2026-03-29T15:45:54Z</time></trkpt><trkpt lat="42.12184699899143" lon="12.840624587324193"><ele>904.2</ele><time>2026-03-29T15:45:55Z</time></trkpt><trkpt lat="42.12186608015013" lon="12.840448794275744"><ele>905.0</ele><time>2026-03-29T15:45:56Z</time></trkpt><trkpt lat="42.12187806493833" lon="12.84028450638994"><ele>905.0</ele><time>2026-03-29T15:45:57Z</time></trkpt><trkpt lat="42.12187890854868" lon="12.840140451913289"><ele>905.0</ele><time>2026-03-29T15:45:58Z</time></trkpt><trkpt lat="42.121867006826974" lon="12.840001319736203"><ele>905.0</ele><time>2026-03-29T15:45:59Z</time></trkpt><trkpt lat="42.121842001413704" lon="12.839857862880349"><ele>905.0</ele><time>2026-03-29T15:46:00Z</time></trkpt><trkpt lat="42.12181065668233" lon="12.839726928542117"><ele>905.0</ele><time>2026-03-29T15:46:01Z</time></trkpt><trkpt lat="42.12176793661828" lon="12.839605737641124"><ele>904.1666666666667</ele><time>2026-03-29T15:46:02Z</time></trkpt><trkpt lat="42.121712934126" lon="12.839532758370998"><ele>903.3333333333334</ele><time>2026-03-29T15:46:03Z</time></trkpt><trkpt lat="42.121639403158966" lon="12.83948330396617"><ele>902.5</ele><time>2026-03-29T15:46:04Z</time></trkpt><trkpt lat="42.12156289340456" lon="12.839457359646973"><ele>901.6666666666667</ele><time>2026-03-29T15:46:05Z</time></trkpt><trkpt lat="42.12148514213591" lon="12.83946937925567"><ele>900.8333333333334</ele><time>2026-03-29T15:46:06Z</time></trkpt><trkpt lat="42.12142025982852" lon="12.839501780778917"><ele>900.0</ele><time>2026-03-29T15:46:07Z</time></trkpt><trkpt lat="42.12136256464559" lon="12.83955986340636"><ele>899.8333333333334</ele><time>2026-03-29T15:46:08Z</time></trkpt><trkpt lat="42.12130360146048" lon="12.839643633625942"><ele>899.6666666666667</ele><time>2026-03-29T15:46:09Z</time></trkpt><trkpt lat="42.12126401562045" lon="12.839736110814908"><ele>899.5</ele><time>2026-03-29T15:46:10Z</time></trkpt><trkpt lat="42.121255371489916" lon="12.839835619812861"><ele>899.3333333333334</ele><time>2026-03-29T15:46:11Z</time></trkpt><trkpt lat="42.121262309424054" lon="12.8399509528687"><ele>899.1666666666667</ele><time>2026-03-29T15:46:12Z</time></trkpt><trkpt lat="42.12128484399286" lon="12.840087850227274"><ele>899.0</ele><time>2026-03-29T15:46:13Z</time></trkpt><trkpt lat="42.12130893621572" lon="12.840220818445276"><ele>899.0</ele><time>2026-03-29T15:46:14Z</time></trkpt><trkpt lat="42.12131548845484" lon="12.840349820072685"><ele>899.0000000000001</ele><time>2026-03-29T15:46:15Z</time></trkpt><trkpt lat="42.12128305087705" lon="12.84045099928706"><ele>899.0000000000001</ele><time>2026-03-29T15:46:16Z</time></trkpt><trkpt lat="42.121223322376935" lon="12.840533014742373"><ele>899.0</ele><time>2026-03-29T15:46:17Z</time></trkpt><trkpt lat="42.12114527711411" lon="12.840611843989162"><ele>899.0</ele><time>2026-03-29T15:46:18Z</time></trkpt><trkpt lat="42.12106996071491" lon="12.840685354279588"><ele>899.0</ele><time>2026-03-29T15:46:19Z</time></trkpt><trkpt lat="42.12100574224972" lon="12.840759913072318"><ele>899.0000000000001</ele><time>2026-03-29T15:46:20Z</time></trkpt><trkpt lat="42.120956115823454" lon="12.84084335817056"><ele>899.0000000000001</ele><time>2026-03-29T15:46:21Z</time></trkpt><trkpt lat="42.12088196114569" lon="12.840894962704605"><ele>899.0</ele><time>2026-03-29T15:46:23Z</time></trkpt><trkpt lat="42.12079498664229" lon="12.840937182324316"><ele>899.0</ele><time>2026-03-29T15:46:25Z</time></trkpt><trkpt lat="42.12068267256304" lon="12.84094586074518"><ele>901.1666666666667</ele><time>2026-03-29T15:46:27Z</time></trkpt><trkpt lat="42.12062047162371" lon="12.840924096630925"><ele>903.3333333333334</ele><time>2026-03-29T15:46:28Z</time></trkpt><trkpt lat="42.120563361941876" lon="12.840871345006649"><ele>905.5</ele><time>2026-03-29T15:46:29Z</time></trkpt><trkpt lat="42.120510919542546" lon="12.840809725253676"><ele>907.6666666666667</ele><time>2026-03-29T15:46:30Z</time></trkpt><trkpt lat="42.12041097170968" lon="12.840705658964568"><ele>909.8333333333334</ele><time>2026-03-29T15:46:32Z</time></trkpt><trkpt lat="42.120356811246694" lon="12.840652025690229"><ele>912.0</ele><time>2026-03-29T15:46:33Z</time></trkpt><trkpt lat="42.120297606661985" lon="12.840604936968994"><ele>912.0</ele><time>2026-03-29T15:46:34Z</time></trkpt><trkpt lat="42.12023063343094" lon="12.840550298997996"><ele>912.0</ele><time>2026-03-29T15:46:35Z</time></trkpt><trkpt lat="42.12015574624079" lon="12.84048796916215"><ele>912.0</ele><time>2026-03-29T15:46:36Z</time></trkpt><trkpt lat="42.120077343920244" lon="12.840397528814867"><ele>912.0</ele><time>2026-03-29T15:46:37Z</time></trkpt><trkpt lat="42.119995967041675" lon="12.840316744119827"><ele>912.0</ele><time>2026-03-29T15:46:38Z</time></trkpt><trkpt lat="42.11991375969457" lon="12.840196228934538"><ele>906.5</ele><time>2026-03-29T15:46:39Z</time></trkpt><trkpt lat="42.119827362829035" lon="12.840089197324824"><ele>901.0</ele><time>2026-03-29T15:46:40Z</time></trkpt><trkpt lat="42.11972219171178" lon="12.840012888826731"><ele>895.5</ele><time>2026-03-29T15:46:41Z</time></trkpt><trkpt lat="42.11959367641966" lon="12.839941557821504"><ele>890.0</ele><time>2026-03-29T15:46:42Z</time></trkpt><trkpt lat="42.11946039160505" lon="12.839860512695523"><ele>890.0</ele><time>2026-03-29T15:46:43Z</time></trkpt><trkpt lat="42.119345371440055" lon="12.839778757520806"><ele>890.0</ele><time>2026-03-29T15:46:44Z</time></trkpt><trkpt lat="42.119236509648715" lon="12.839708598203382"><ele>890.0</ele><time>2026-03-29T15:46:45Z</time></trkpt><trkpt lat="42.119127732065095" lon="12.839646238370872"><ele>890.0</ele><time>2026-03-29T15:46:46Z</time></trkpt><trkpt lat="42.11901358772915" lon="12.839612399544446"><ele>889.0</ele><time>2026-03-29T15:46:47Z</time></trkpt><trkpt lat="42.1188886525939" lon="12.839608691513028"><ele>888.0</ele><time>2026-03-29T15:46:48Z</time></trkpt><trkpt lat="42.118735592230216" lon="12.839618173149983"><ele>887.0</ele><time>2026-03-29T15:46:49Z</time></trkpt><trkpt lat="42.118581485732044" lon="12.839616669713283"><ele>886.0</ele><time>2026-03-29T15:46:50Z</time></trkpt><trkpt lat="42.11844339183642" lon="12.83958227758386"><ele>886.0</ele><time>2026-03-29T15:46:51Z</time></trkpt><trkpt lat="42.118326527407284" lon="12.839533017547666"><ele>885.9999999999999</ele><time>2026-03-29T15:46:52Z</time></trkpt><trkpt lat="42.118232488598224" lon="12.83949529825119"><ele>885.9999999999999</ele><time>2026-03-29T15:46:53Z</time></trkpt><trkpt lat="42.118141774553564" lon="12.839496224938486"><ele>886.0</ele><time>2026-03-29T15:46:54Z</time></trkpt><trkpt lat="42.11804566881049" lon="12.839532512645972"><ele>886.0</ele><time>2026-03-29T15:46:55Z</time></trkpt><trkpt lat="42.11794892737102" lon="12.839586777237889"><ele>882.0</ele><time>2026-03-29T15:46:56Z</time></trkpt><trkpt lat="42.11783479789507" lon="12.839657588301101"><ele>878.0</ele><time>2026-03-29T15:46:57Z</time></trkpt><trkpt lat="42.11769027207322" lon="12.839715527483035"><ele>874.0</ele><time>2026-03-29T15:46:58Z</time></trkpt><trkpt lat="42.117517227541704" lon="12.839737134260211"><ele>870.75</ele><time>2026-03-29T15:46:59Z</time></trkpt><trkpt lat="42.11735477979448" lon="12.83973005625033"><ele>867.5</ele><time>2026-03-29T15:47:00Z</time></trkpt><trkpt lat="42.11721789021319" lon="12.839700770408914"><ele>864.25</ele><time>2026-03-29T15:47:01Z</time></trkpt><trkpt lat="42.11709537699691" lon="12.83966147650018"><ele>861.0</ele><time>2026-03-29T15:47:01.999Z</time></trkpt><trkpt lat="42.11696960308265" lon="12.839597336761939"><ele>861.0</ele><time>2026-03-29T15:47:02.999Z</time></trkpt><trkpt lat="42.116835791551686" lon="12.839523543163624"><ele>861.0</ele><time>2026-03-29T15:47:03.999Z</time></trkpt><trkpt lat="42.11670832843642" lon="12.839486542379158"><ele>861.0</ele><time>2026-03-29T15:47:04.999Z</time></trkpt><trkpt lat="42.116598497014195" lon="12.839466362021637"><ele>861.0</ele><time>2026-03-29T15:47:05.999Z</time></trkpt><trkpt lat="42.11649571460898" lon="12.839435651969655"><ele>860.8</ele><time>2026-03-29T15:47:07Z</time></trkpt><trkpt lat="42.116381398984274" lon="12.839394155141262"><ele>860.5999999999999</ele><time>2026-03-29T15:47:08Z</time></trkpt><trkpt lat="42.11627810136672" lon="12.839337433447595"><ele>860.4</ele><time>2026-03-29T15:47:09Z</time></trkpt><trkpt lat="42.116197929967164" lon="12.839294787540583"><ele>860.2</ele><time>2026-03-29T15:47:10Z</time></trkpt><trkpt lat="42.11613241809783" lon="12.839181218041698"><ele>860.0</ele><time>2026-03-29T15:47:12Z</time></trkpt><trkpt lat="42.11614220028616" lon="12.839081902183516"><ele>860.0</ele><time>2026-03-29T15:47:13Z</time></trkpt><trkpt lat="42.11615968765366" lon="12.83898997099087"><ele>860.0</ele><time>2026-03-29T15:47:14Z</time></trkpt><trkpt lat="42.11617204093216" lon="12.838849692818659"><ele>860.0</ele><time>2026-03-29T15:47:15Z</time></trkpt><trkpt lat="42.1161870304668" lon="12.838692882067445"><ele>860.0</ele><time>2026-03-29T15:47:16Z</time></trkpt><trkpt lat="42.11617573168819" lon="12.838547021521373"><ele>860.0</ele><time>2026-03-29T15:47:17Z</time></trkpt><trkpt lat="42.11615772178933" lon="12.838424963276957"><ele>858.6</ele><time>2026-03-29T15:47:18Z</time></trkpt><trkpt lat="42.1161093825429" lon="12.838284523621699"><ele>857.2</ele><time>2026-03-29T15:47:19Z</time></trkpt><trkpt lat="42.11604450526333" lon="12.838171156771079"><ele>855.8</ele><time>2026-03-29T15:47:20Z</time></trkpt><trkpt lat="42.115969339305536" lon="12.838076068851901"><ele>854.4</ele><time>2026-03-29T15:47:21Z</time></trkpt><trkpt lat="42.11588744530653" lon="12.83796568599986"><ele>853.0</ele><time>2026-03-29T15:47:22Z</time></trkpt><trkpt lat="42.115796574687096" lon="12.837868954944964"><ele>851.0</ele><time>2026-03-29T15:47:23Z</time></trkpt><trkpt lat="42.11569383024852" lon="12.837770730661488"><ele>849.0</ele><time>2026-03-29T15:47:24Z</time></trkpt><trkpt lat="42.11559977140949" lon="12.837652223686506"><ele>847.0</ele><time>2026-03-29T15:47:25Z</time></trkpt><trkpt lat="42.115531043961575" lon="12.837525509414078"><ele>845.0</ele><time>2026-03-29T15:47:26Z</time></trkpt><trkpt lat="42.11547340805357" lon="12.837370480236489"><ele>845.0</ele><time>2026-03-29T15:47:27Z</time></trkpt><trkpt lat="42.11541955420169" lon="12.837217436092876"><ele>845.0</ele><time>2026-03-29T15:47:28Z</time></trkpt><trkpt lat="42.11537492099728" lon="12.837110839854889"><ele>845.0</ele><time>2026-03-29T15:47:29Z</time></trkpt><trkpt lat="42.1152712184371" lon="12.837048865733223"><ele>845.0</ele><time>2026-03-29T15:47:31Z</time></trkpt><trkpt lat="42.1151789639032" lon="12.8370579001617"><ele>845.0</ele><time>2026-03-29T15:47:32Z</time></trkpt><trkpt lat="42.115069369325596" lon="12.837073235044945"><ele>845.0</ele><time>2026-03-29T15:47:33Z</time></trkpt><trkpt lat="42.114981365364144" lon="12.837111627837444"><ele>845.0</ele><time>2026-03-29T15:47:34Z</time></trkpt><trkpt lat="42.11489371101463" lon="12.83721135983838"><ele>845.0</ele><time>2026-03-29T15:47:35Z</time></trkpt><trkpt lat="42.11480999505896" lon="12.83728712043604"><ele>845.0</ele><time>2026-03-29T15:47:36Z</time></trkpt><trkpt lat="42.11473018681958" lon="12.837305213519217"><ele>845.0</ele><time>2026-03-29T15:47:37Z</time></trkpt><trkpt lat="42.11465023028058" lon="12.837277145572747"><ele>846.6</ele><time>2026-03-29T15:47:38Z</time></trkpt><trkpt lat="42.114557994161466" lon="12.83721301249399"><ele>848.2</ele><time>2026-03-29T15:47:39Z</time></trkpt><trkpt lat="42.11448247746935" lon="12.837122269343167"><ele>849.8</ele><time>2026-03-29T15:47:40Z</time></trkpt><trkpt lat="42.11439811338105" lon="12.83705577041576"><ele>851.4</ele><time>2026-03-29T15:47:41Z</time></trkpt><trkpt lat="42.11429728761721" lon="12.837000499950607"><ele>853.0</ele><time>2026-03-29T15:47:42Z</time></trkpt><trkpt lat="42.11420319924844" lon="12.836949195639706"><ele>853.0</ele><time>2026-03-29T15:47:43Z</time></trkpt><trkpt lat="42.11410941406038" lon="12.836926084208926"><ele>853.0</ele><time>2026-03-29T15:47:44Z</time></trkpt><trkpt lat="42.11402671469635" lon="12.836920624274514"><ele>853.0</ele><time>2026-03-29T15:47:45Z</time></trkpt><trkpt lat="42.11394281196691" lon="12.836945442328368"><ele>853.0</ele><time>2026-03-29T15:47:46Z</time></trkpt><trkpt lat="42.11386244958259" lon="12.836995967552102"><ele>853.0</ele><time>2026-03-29T15:47:47Z</time></trkpt><trkpt lat="42.11376462252046" lon="12.837066591226016"><ele>851.5999999999999</ele><time>2026-03-29T15:47:48Z</time></trkpt><trkpt lat="42.11365947840217" lon="12.837129306283748"><ele>850.1999999999999</ele><time>2026-03-29T15:47:49Z</time></trkpt><trkpt lat="42.11357846136384" lon="12.837182153365115"><ele>848.8</ele><time>2026-03-29T15:47:50Z</time></trkpt><trkpt lat="42.1135144951716" lon="12.837201322864514"><ele>847.4</ele><time>2026-03-29T15:47:51Z</time></trkpt><trkpt lat="42.11342634108741" lon="12.837127811471033"><ele>846.0</ele><time>2026-03-29T15:47:53Z</time></trkpt><trkpt lat="42.11338342537758" lon="12.837038482322109"><ele>846.0</ele><time>2026-03-29T15:47:54Z</time></trkpt><trkpt lat="42.11333370946808" lon="12.836919594431775"><ele>846.0</ele><time>2026-03-29T15:47:55Z</time></trkpt><trkpt lat="42.11326931721315" lon="12.836796655501455"><ele>846.0</ele><time>2026-03-29T15:47:56Z</time></trkpt><trkpt lat="42.11318917880928" lon="12.836683340943942"><ele>846.0</ele><time>2026-03-29T15:47:57Z</time></trkpt><trkpt lat="42.1131001637587" lon="12.836582353998224"><ele>846.0</ele><time>2026-03-29T15:47:58Z</time></trkpt><trkpt lat="42.11301526190564" lon="12.836486378744889"><ele>848.0</ele><time>2026-03-29T15:47:59Z</time></trkpt><trkpt lat="42.112930890965345" lon="12.8364028620962"><ele>850.0</ele><time>2026-03-29T15:48:00Z</time></trkpt><trkpt lat="42.112847518930444" lon="12.836328075482218"><ele>851.9999999999999</ele><time>2026-03-29T15:48:01Z</time></trkpt><trkpt lat="42.11277089982165" lon="12.836255900107771"><ele>854.0</ele><time>2026-03-29T15:48:02Z</time></trkpt><trkpt lat="42.1127097086734" lon="12.836175449780395"><ele>856.0</ele><time>2026-03-29T15:48:03Z</time></trkpt><trkpt lat="42.11265734899771" lon="12.836088680975832"><ele>856.0</ele><time>2026-03-29T15:48:04Z</time></trkpt><trkpt lat="42.11261323914478" lon="12.83599525393087"><ele>855.9999999999999</ele><time>2026-03-29T15:48:05Z</time></trkpt><trkpt lat="42.112553095586144" lon="12.835891821008236"><ele>855.9999999999999</ele><time>2026-03-29T15:48:06Z</time></trkpt><trkpt lat="42.112481217323726" lon="12.835804720707289"><ele>856.0</ele><time>2026-03-29T15:48:07Z</time></trkpt><trkpt lat="42.112407165262525" lon="12.835727645054387"><ele>856.0</ele><time>2026-03-29T15:48:08Z</time></trkpt><trkpt lat="42.112334504329404" lon="12.835644386938716"><ele>855.0</ele><time>2026-03-29T15:48:09Z</time></trkpt><trkpt lat="42.1122411695846" lon="12.835555590559087"><ele>854.0</ele><time>2026-03-29T15:48:10Z</time></trkpt><trkpt lat="42.112135465491924" lon="12.83548564663586"><ele>853.0</ele><time>2026-03-29T15:48:11Z</time></trkpt><trkpt lat="42.11203128618532" lon="12.8354181338744"><ele>852.0</ele><time>2026-03-29T15:48:12Z</time></trkpt><trkpt lat="42.111923364939" lon="12.835349325651165"><ele>852.0</ele><time>2026-03-29T15:48:13Z</time></trkpt><trkpt lat="42.11181567784167" lon="12.835275991625746"><ele>852.0</ele><time>2026-03-29T15:48:14Z</time></trkpt><trkpt lat="42.11171111501633" lon="12.835198567438567"><ele>852.0</ele><time>2026-03-29T15:48:15Z</time></trkpt><trkpt lat="42.11161458733876" lon="12.8351086719597"><ele>852.0</ele><time>2026-03-29T15:48:16Z</time></trkpt><trkpt lat="42.11150821708195" lon="12.83498535886214"><ele>846.75</ele><time>2026-03-29T15:48:17Z</time></trkpt><trkpt lat="42.111405552339605" lon="12.83485652556097"><ele>841.5</ele><time>2026-03-29T15:48:18Z</time></trkpt><trkpt lat="42.11130601303742" lon="12.83474329668287"><ele>836.25</ele><time>2026-03-29T15:48:19Z</time></trkpt><trkpt lat="42.11120878689494" lon="12.83462096581732"><ele>831.0</ele><time>2026-03-29T15:48:20Z</time></trkpt><trkpt lat="42.111110548243325" lon="12.83447581673441"><ele>831.0</ele><time>2026-03-29T15:48:21Z</time></trkpt><trkpt lat="42.11100641909605" lon="12.834309992522096"><ele>831.0</ele><time>2026-03-29T15:48:22Z</time></trkpt><trkpt lat="42.110904711533806" lon="12.834146790692698"><ele>831.0</ele><time>2026-03-29T15:48:23Z</time></trkpt><trkpt lat="42.11080969735536" lon="12.833995067408749"><ele>828.75</ele><time>2026-03-29T15:48:24Z</time></trkpt><trkpt lat="42.110710648393294" lon="12.833847469898865"><ele>826.5</ele><time>2026-03-29T15:48:25Z</time></trkpt><trkpt lat="42.110630968310275" lon="12.833711182178448"><ele>824.25</ele><time>2026-03-29T15:48:26Z</time></trkpt><trkpt lat="42.11056115965633" lon="12.833594185890094"><ele>822.0</ele><time>2026-03-29T15:48:27Z</time></trkpt><trkpt lat="42.11049497406265" lon="12.833491601964333"><ele>821.2</ele><time>2026-03-29T15:48:28Z</time></trkpt><trkpt lat="42.11043114805718" lon="12.833406109237897"><ele>820.4000000000001</ele><time>2026-03-29T15:48:29Z</time></trkpt><trkpt lat="42.110359297539574" lon="12.833307917457006"><ele>819.5999999999999</ele><time>2026-03-29T15:48:30Z</time></trkpt><trkpt lat="42.110278315060334" lon="12.833211708208793"><ele>818.8</ele><time>2026-03-29T15:48:31Z</time></trkpt><trkpt lat="42.11019451849557" lon="12.83314079626021"><ele>818.0</ele><time>2026-03-29T15:48:32Z</time></trkpt><trkpt lat="42.11011462858929" lon="12.833067558541343"><ele>818.0</ele><time>2026-03-29T15:48:33Z</time></trkpt><trkpt lat="42.110043576249666" lon="12.832970088178657"><ele>818.0</ele><time>2026-03-29T15:48:34Z</time></trkpt><trkpt lat="42.10996278553807" lon="12.832891327928785"><ele>818.0</ele><time>2026-03-29T15:48:35Z</time></trkpt><trkpt lat="42.109889702938425" lon="12.832801418078722"><ele>818.0</ele><time>2026-03-29T15:48:36Z</time></trkpt><trkpt lat="42.10982551770999" lon="12.832678518468773"><ele>818.0</ele><time>2026-03-29T15:48:37Z</time></trkpt><trkpt lat="42.10975373242483" lon="12.832554028078594"><ele>814.5</ele><time>2026-03-29T15:48:38Z</time></trkpt><trkpt lat="42.10967892598159" lon="12.83243098803902"><ele>811.0</ele><time>2026-03-29T15:48:39Z</time></trkpt><trkpt lat="42.109597726705694" lon="12.832297433294867"><ele>807.5</ele><time>2026-03-29T15:48:40Z</time></trkpt><trkpt lat="42.10952049403527" lon="12.832199655691664"><ele>804.0</ele><time>2026-03-29T15:48:41Z</time></trkpt><trkpt lat="42.109429433600745" lon="12.83210942485457"><ele>804.0</ele><time>2026-03-29T15:48:42Z</time></trkpt><trkpt lat="42.10935834671662" lon="12.831993722126866"><ele>804.0</ele><time>2026-03-29T15:48:43Z</time></trkpt><trkpt lat="42.10930673212037" lon="12.831877035907578"><ele>804.0</ele><time>2026-03-29T15:48:44Z</time></trkpt><trkpt lat="42.10927842949085" lon="12.831766981199438"><ele>804.0</ele><time>2026-03-29T15:48:45Z</time></trkpt><trkpt lat="42.10925909106774" lon="12.83166612696961"><ele>804.0</ele><time>2026-03-29T15:48:46Z</time></trkpt><trkpt lat="42.10919287419403" lon="12.831628089913796"><ele>804.0</ele><time>2026-03-29T15:48:48Z</time></trkpt><trkpt lat="42.10911743949651" lon="12.831731146479378"><ele>802.6</ele><time>2026-03-29T15:48:50Z</time></trkpt><trkpt lat="42.109037284683154" lon="12.831846240906557"><ele>801.2</ele><time>2026-03-29T15:48:52Z</time></trkpt><trkpt lat="42.10897611969596" lon="12.831917021940804"><ele>799.8000000000001</ele><time>2026-03-29T15:48:53Z</time></trkpt><trkpt lat="42.1089004511238" lon="12.831947482510587"><ele>798.4000000000001</ele><time>2026-03-29T15:48:54Z</time></trkpt><trkpt lat="42.1088017002822" lon="12.831995051273243"><ele>797.0</ele><time>2026-03-29T15:48:55Z</time></trkpt><trkpt lat="42.10870108418856" lon="12.831995806566633"><ele>797.0</ele><time>2026-03-29T15:48:56Z</time></trkpt><trkpt lat="42.10858562246701" lon="12.832023967904396"><ele>797.0</ele><time>2026-03-29T15:48:57Z</time></trkpt><trkpt lat="42.108479088333894" lon="12.832007619213854"><ele>797.0</ele><time>2026-03-29T15:48:58Z</time></trkpt><trkpt lat="42.108381878353185" lon="12.83197133535167"><ele>797.0</ele><time>2026-03-29T15:48:59Z</time></trkpt><trkpt lat="42.10829745443878" lon="12.831916416930037"><ele>797.0</ele><time>2026-03-29T15:49:00Z</time></trkpt><trkpt lat="42.10822770777732" lon="12.831859975969511"><ele>796.0</ele><time>2026-03-29T15:49:01Z</time></trkpt><trkpt lat="42.10815153276242" lon="12.831787781615615"><ele>795.0</ele><time>2026-03-29T15:49:02Z</time></trkpt><trkpt lat="42.108085267524906" lon="12.831691584760758"><ele>794.0</ele><time>2026-03-29T15:49:03Z</time></trkpt><trkpt lat="42.10802709337729" lon="12.831575894905969"><ele>793.0</ele><time>2026-03-29T15:49:04Z</time></trkpt><trkpt lat="42.10796989250646" lon="12.831448773214321"><ele>792.0</ele><time>2026-03-29T15:49:05Z</time></trkpt><trkpt lat="42.10790237640913" lon="12.831291796152561"><ele>792.0</ele><time>2026-03-29T15:49:06Z</time></trkpt><trkpt lat="42.107830368416195" lon="12.831117650371235"><ele>792.0</ele><time>2026-03-29T15:49:07Z</time></trkpt><trkpt lat="42.107751797267554" lon="12.83093801943828"><ele>792.0</ele><time>2026-03-29T15:49:07.999Z</time></trkpt><trkpt lat="42.10767442956054" lon="12.830756051888685"><ele>792.0</ele><time>2026-03-29T15:49:08.999Z</time></trkpt><trkpt lat="42.1075954522025" lon="12.830579414501177"><ele>792.0</ele><time>2026-03-29T15:49:09.999Z</time></trkpt><trkpt lat="42.10752695569946" lon="12.830400888796428"><ele>792.0</ele><time>2026-03-29T15:49:10.999Z</time></trkpt><trkpt lat="42.1074698102911" lon="12.830240269033894"><ele>792.0</ele><time>2026-03-29T15:49:11.999Z</time></trkpt><trkpt lat="42.107418829764335" lon="12.830088490914333"><ele>791.2</ele><time>2026-03-29T15:49:13Z</time></trkpt><trkpt lat="42.10737482298248" lon="12.829953108070324"><ele>790.4000000000001</ele><time>2026-03-29T15:49:14Z</time></trkpt><trkpt lat="42.10733928846777" lon="12.829832189404113"><ele>789.5999999999999</ele><time>2026-03-29T15:49:15Z</time></trkpt><trkpt lat="42.10731457929862" lon="12.829715744147373"><ele>788.8</ele><time>2026-03-29T15:49:16Z</time></trkpt><trkpt lat="42.10730547476304" lon="12.829604186131412"><ele>788.0</ele><time>2026-03-29T15:49:17Z</time></trkpt><trkpt lat="42.10729932073972" lon="12.82948951830195"><ele>788.0000000000001</ele><time>2026-03-29T15:49:18Z</time></trkpt><trkpt lat="42.10729483499838" lon="12.829374827237658"><ele>788.0</ele><time>2026-03-29T15:49:19Z</time></trkpt><trkpt lat="42.107289354711504" lon="12.829264743053038"><ele>788.0</ele><time>2026-03-29T15:49:20Z</time></trkpt><trkpt lat="42.10728468145666" lon="12.829157945519977"><ele>788.0</ele><time>2026-03-29T15:49:21Z</time></trkpt><trkpt lat="42.107284728388336" lon="12.829041899161252"><ele>788.0000000000001</ele><time>2026-03-29T15:49:22Z</time></trkpt><trkpt lat="42.10729236723785" lon="12.828921635812113"><ele>788.0</ele><time>2026-03-29T15:49:23Z</time></trkpt><trkpt lat="42.10730950732697" lon="12.828797373201565"><ele>786.4</ele><time>2026-03-29T15:49:24Z</time></trkpt><trkpt lat="42.10733144062533" lon="12.828667163796137"><ele>784.8</ele><time>2026-03-29T15:49:25Z</time></trkpt><trkpt lat="42.107354419624684" lon="12.828532692405359"><ele>783.2</ele><time>2026-03-29T15:49:26Z</time></trkpt><trkpt lat="42.10738122445178" lon="12.828388477528147"><ele>781.6</ele><time>2026-03-29T15:49:27Z</time></trkpt><trkpt lat="42.107399209511534" lon="12.828257432143705"><ele>780.0</ele><time>2026-03-29T15:49:28Z</time></trkpt><trkpt lat="42.107406387941936" lon="12.828114422784637"><ele>778.6</ele><time>2026-03-29T15:49:29Z</time></trkpt><trkpt lat="42.10737960974606" lon="12.827987488545643"><ele>777.2</ele><time>2026-03-29T15:49:30Z</time></trkpt><trkpt lat="42.10733856297889" lon="12.827879579441934"><ele>775.8</ele><time>2026-03-29T15:49:31Z</time></trkpt><trkpt lat="42.10729067019335" lon="12.82778899698196"><ele>774.4</ele><time>2026-03-29T15:49:32Z</time></trkpt><trkpt lat="42.107244112760476" lon="12.827727195841423"><ele>773.0</ele><time>2026-03-29T15:49:33Z</time></trkpt><trkpt lat="42.10711352599452" lon="12.827703554369942"><ele>773.0</ele><time>2026-03-29T15:49:35Z</time></trkpt><trkpt lat="42.107025744953006" lon="12.827727668182526"><ele>773.0</ele><time>2026-03-29T15:49:36Z</time></trkpt><trkpt lat="42.106931005721364" lon="12.827748066779478"><ele>773.0</ele><time>2026-03-29T15:49:37Z</time></trkpt><trkpt lat="42.106849511638785" lon="12.827754195755974"><ele>773.0</ele><time>2026-03-29T15:49:38Z</time></trkpt><trkpt lat="42.10678243707901" lon="12.827728748025567"><ele>773.0</ele><time>2026-03-29T15:49:41Z</time></trkpt><trkpt lat="42.106660114188365" lon="12.827686608737691"><ele>773.0</ele><time>2026-03-29T15:51:14Z</time></trkpt><trkpt lat="42.10657965542758" lon="12.827650632919653"><ele>773.0</ele><time>2026-03-29T15:51:15Z</time></trkpt><trkpt lat="42.10649470704978" lon="12.827592594122626"><ele>773.0</ele><time>2026-03-29T15:51:15.999Z</time></trkpt><trkpt lat="42.10639515830591" lon="12.827525673165544"><ele>773.0</ele><time>2026-03-29T15:51:16.999Z</time></trkpt><trkpt lat="42.10627814124007" lon="12.827456578875996"><ele>773.0</ele><time>2026-03-29T15:51:17.999Z</time></trkpt><trkpt lat="42.10615747247224" lon="12.827367746775314"><ele>771.6666666666667</ele><time>2026-03-29T15:51:19Z</time></trkpt><trkpt lat="42.106029675835536" lon="12.827262953294369"><ele>770.3333333333333</ele><time>2026-03-29T15:51:20Z</time></trkpt><trkpt lat="42.1058995710352" lon="12.827146227377737"><ele>769.0</ele><time>2026-03-29T15:51:21Z</time></trkpt><trkpt lat="42.10576790296609" lon="12.827026234770091"><ele>767.3333333333333</ele><time>2026-03-29T15:51:22Z</time></trkpt><trkpt lat="42.105638787210246" lon="12.826892742414321"><ele>765.6666666666666</ele><time>2026-03-29T15:51:23Z</time></trkpt><trkpt lat="42.105506185182065" lon="12.826763103429093"><ele>764.0</ele><time>2026-03-29T15:51:24Z</time></trkpt><trkpt lat="42.105368137224815" lon="12.826658212717733"><ele>763.6666666666666</ele><time>2026-03-29T15:51:25Z</time></trkpt><trkpt lat="42.10523275487185" lon="12.826574215034144"><ele>763.3333333333334</ele><time>2026-03-29T15:51:26Z</time></trkpt><trkpt lat="42.10509023687732" lon="12.826501743963469"><ele>763.0</ele><time>2026-03-29T15:51:27Z</time></trkpt><trkpt lat="42.10493726028842" lon="12.826451938848955"><ele>762.0</ele><time>2026-03-29T15:51:28Z</time></trkpt><trkpt lat="42.10477911026693" lon="12.826408006834852"><ele>761.0</ele><time>2026-03-29T15:51:29Z</time></trkpt><trkpt lat="42.10461591707307" lon="12.826371028133023"><ele>760.0</ele><time>2026-03-29T15:51:30Z</time></trkpt><trkpt lat="42.10446727669739" lon="12.826351604370313"><ele>760.0</ele><time>2026-03-29T15:51:31Z</time></trkpt><trkpt lat="42.104331460197294" lon="12.82635482479598"><ele>760.0</ele><time>2026-03-29T15:51:32Z</time></trkpt><trkpt lat="42.104203779124596" lon="12.826378262845285"><ele>760.0</ele><time>2026-03-29T15:51:33Z</time></trkpt><trkpt lat="42.10407845489453" lon="12.826417720857506"><ele>760.0</ele><time>2026-03-29T15:51:34Z</time></trkpt><trkpt lat="42.103955219572995" lon="12.826482481124566"><ele>761.75</ele><time>2026-03-29T15:51:35Z</time></trkpt><trkpt lat="42.10383159678829" lon="12.826574273332394"><ele>763.5</ele><time>2026-03-29T15:51:36Z</time></trkpt><trkpt lat="42.10371366562639" lon="12.826652012166468"><ele>765.25</ele><time>2026-03-29T15:51:37Z</time></trkpt><trkpt lat="42.10360564019527" lon="12.826699177112685"><ele>767.0</ele><time>2026-03-29T15:51:38Z</time></trkpt><trkpt lat="42.10351145904978" lon="12.826711072826269"><ele>767.0</ele><time>2026-03-29T15:51:39Z</time></trkpt><trkpt lat="42.10342481352372" lon="12.82669585661316"><ele>767.0</ele><time>2026-03-29T15:51:40Z</time></trkpt><trkpt lat="42.103340958410236" lon="12.826654790655992"><ele>767.0</ele><time>2026-03-29T15:51:41Z</time></trkpt><trkpt lat="42.103246095955576" lon="12.826608433851208"><ele>767.0</ele><time>2026-03-29T15:51:42Z</time></trkpt><trkpt lat="42.10314175237651" lon="12.826556729659861"><ele>767.0</ele><time>2026-03-29T15:51:43Z</time></trkpt><trkpt lat="42.103029658809774" lon="12.82651791955755"><ele>766.75</ele><time>2026-03-29T15:51:44Z</time></trkpt><trkpt lat="42.10291691424367" lon="12.826473130856401"><ele>766.5</ele><time>2026-03-29T15:51:45Z</time></trkpt><trkpt lat="42.10278959896336" lon="12.826439919313916"><ele>766.25</ele><time>2026-03-29T15:51:46Z</time></trkpt><trkpt lat="42.10264196033019" lon="12.826444230163686"><ele>766.0</ele><time>2026-03-29T15:51:47Z</time></trkpt><trkpt lat="42.1024952293488" lon="12.82645921149194"><ele>766.5</ele><time>2026-03-29T15:51:48Z</time></trkpt><trkpt lat="42.10234938264102" lon="12.826478718002743"><ele>767.0</ele><time>2026-03-29T15:51:49Z</time></trkpt><trkpt lat="42.102202646569914" lon="12.826499439365362"><ele>767.5</ele><time>2026-03-29T15:51:50Z</time></trkpt><trkpt lat="42.1020536430714" lon="12.826493935361222"><ele>768.0</ele><time>2026-03-29T15:51:51Z</time></trkpt><trkpt lat="42.10191685033846" lon="12.826466791594395"><ele>768.0</ele><time>2026-03-29T15:51:52Z</time></trkpt><trkpt lat="42.10179531210707" lon="12.826473959290706"><ele>768.0</ele><time>2026-03-29T15:51:53Z</time></trkpt><trkpt lat="42.10168363040551" lon="12.826514781247253"><ele>768.0</ele><time>2026-03-29T15:51:54Z</time></trkpt><trkpt lat="42.101570626367064" lon="12.826576234768295"><ele>768.0</ele><time>2026-03-29T15:51:55Z</time></trkpt><trkpt lat="42.10145435367747" lon="12.82662593570568"><ele>769.0</ele><time>2026-03-29T15:51:56Z</time></trkpt><trkpt lat="42.1013361857165" lon="12.826659105515162"><ele>770.0</ele><time>2026-03-29T15:51:57Z</time></trkpt><trkpt lat="42.10123062551587" lon="12.82668702262778"><ele>771.0</ele><time>2026-03-29T15:51:58Z</time></trkpt><trkpt lat="42.101134506291274" lon="12.82672695987547"><ele>772.0</ele><time>2026-03-29T15:51:59Z</time></trkpt><trkpt lat="42.10103772511933" lon="12.826774604256268"><ele>773.0</ele><time>2026-03-29T15:52:00Z</time></trkpt><trkpt lat="42.10093565053411" lon="12.826812523046211"><ele>773.0</ele><time>2026-03-29T15:52:01Z</time></trkpt><trkpt lat="42.10083531688171" lon="12.826846142170412"><ele>773.0</ele><time>2026-03-29T15:52:02Z</time></trkpt><trkpt lat="42.100738907494744" lon="12.82688025076322"><ele>773.0</ele><time>2026-03-29T15:52:03Z</time></trkpt><trkpt lat="42.100638782450375" lon="12.826911596070278"><ele>773.0</ele><time>2026-03-29T15:52:04Z</time></trkpt><trkpt lat="42.10054226607721" lon="12.826936695150968"><ele>773.0</ele><time>2026-03-29T15:52:05Z</time></trkpt><trkpt lat="42.10045024830434" lon="12.82695356005469"><ele>773.2</ele><time>2026-03-29T15:52:06Z</time></trkpt><trkpt lat="42.100349955820526" lon="12.826971302580464"><ele>773.4</ele><time>2026-03-29T15:52:07Z</time></trkpt><trkpt lat="42.10024643901147" lon="12.826984509123498"><ele>773.6</ele><time>2026-03-29T15:52:08Z</time></trkpt><trkpt lat="42.10014502434389" lon="12.826984002474653"><ele>773.8000000000001</ele><time>2026-03-29T15:52:09Z</time></trkpt><trkpt lat="42.100055164182166" lon="12.826952852924316"><ele>774.0</ele><time>2026-03-29T15:52:10Z</time></trkpt><trkpt lat="42.099967323220206" lon="12.826885255988133"><ele>774.25</ele><time>2026-03-29T15:52:11Z</time></trkpt><trkpt lat="42.099874821114625" lon="12.826795176994573"><ele>774.5</ele><time>2026-03-29T15:52:12Z</time></trkpt><trkpt lat="42.09978436546805" lon="12.82668534370067"><ele>774.75</ele><time>2026-03-29T15:52:13Z</time></trkpt><trkpt lat="42.09969116595264" lon="12.826564783819803"><ele>775.0</ele><time>2026-03-29T15:52:14Z</time></trkpt><trkpt lat="42.099585546441766" lon="12.826436582462764"><ele>775.0</ele><time>2026-03-29T15:52:15Z</time></trkpt><trkpt lat="42.09946030535292" lon="12.826301101846488"><ele>775.0</ele><time>2026-03-29T15:52:16Z</time></trkpt><trkpt lat="42.09932800913746" lon="12.826172103709213"><ele>775.0</ele><time>2026-03-29T15:52:17Z</time></trkpt><trkpt lat="42.09919004115293" lon="12.82604771822617"><ele>777.0</ele><time>2026-03-29T15:52:18Z</time></trkpt><trkpt lat="42.099047636118534" lon="12.825929011006561"><ele>779.0</ele><time>2026-03-29T15:52:19Z</time></trkpt><trkpt lat="42.098907129233226" lon="12.825806342348828"><ele>781.0</ele><time>2026-03-29T15:52:20Z</time></trkpt><trkpt lat="42.09878545584758" lon="12.825670409489934"><ele>781.0</ele><time>2026-03-29T15:52:21Z</time></trkpt><trkpt lat="42.09866428623555" lon="12.82552607603799"><ele>781.0</ele><time>2026-03-29T15:52:22Z</time></trkpt><trkpt lat="42.09854560841748" lon="12.82537628762121"><ele>781.0</ele><time>2026-03-29T15:52:23Z</time></trkpt><trkpt lat="42.098429561448164" lon="12.825232748297097"><ele>783.25</ele><time>2026-03-29T15:52:24Z</time></trkpt><trkpt lat="42.0983211798835" lon="12.825085982869517"><ele>785.5</ele><time>2026-03-29T15:52:25Z</time></trkpt><trkpt lat="42.09821515131418" lon="12.824945523950827"><ele>787.75</ele><time>2026-03-29T15:52:26Z</time></trkpt><trkpt lat="42.09811124399819" lon="12.824822741931413"><ele>790.0</ele><time>2026-03-29T15:52:27Z</time></trkpt><trkpt lat="42.09801826982881" lon="12.824718539237132"><ele>790.6</ele><time>2026-03-29T15:52:28Z</time></trkpt><trkpt lat="42.09794802546872" lon="12.824621786487448"><ele>791.2</ele><time>2026-03-29T15:52:29Z</time></trkpt><trkpt lat="42.09791028502696" lon="12.824528843526906"><ele>791.8</ele><time>2026-03-29T15:52:30Z</time></trkpt><trkpt lat="42.097905202972846" lon="12.824423194168423"><ele>792.4</ele><time>2026-03-29T15:52:31Z</time></trkpt><trkpt lat="42.097919229151074" lon="12.824295571915219"><ele>793.0</ele><time>2026-03-29T15:52:32Z</time></trkpt><trkpt lat="42.09793196122779" lon="12.824144839261848"><ele>791.2</ele><time>2026-03-29T15:52:33Z</time></trkpt><trkpt lat="42.097938448849014" lon="12.823990786165977"><ele>789.4</ele><time>2026-03-29T15:52:34Z</time></trkpt><trkpt lat="42.097938300358166" lon="12.82384000198805"><ele>787.6</ele><time>2026-03-29T15:52:35Z</time></trkpt><trkpt lat="42.09794251290571" lon="12.823707803099415"><ele>785.8000000000001</ele><time>2026-03-29T15:52:36Z</time></trkpt><trkpt lat="42.09795376232063" lon="12.823586190412097"><ele>784.0</ele><time>2026-03-29T15:52:37Z</time></trkpt><trkpt lat="42.09797248886438" lon="12.823467093815747"><ele>784.4000000000001</ele><time>2026-03-29T15:52:38Z</time></trkpt><trkpt lat="42.09799747653598" lon="12.82335799048889"><ele>784.8</ele><time>2026-03-29T15:52:39Z</time></trkpt><trkpt lat="42.098035230859495" lon="12.823274751556394"><ele>785.2</ele><time>2026-03-29T15:52:40Z</time></trkpt><trkpt lat="42.098100007952404" lon="12.823205163248657"><ele>785.5999999999999</ele><time>2026-03-29T15:52:41Z</time></trkpt><trkpt lat="42.09819481071975" lon="12.82314030906765"><ele>786.0</ele><time>2026-03-29T15:52:42Z</time></trkpt><trkpt lat="42.09828850283527" lon="12.82306651403623"><ele>786.0</ele><time>2026-03-29T15:52:43Z</time></trkpt><trkpt lat="42.09834529675758" lon="12.822971122261034"><ele>786.0</ele><time>2026-03-29T15:52:44Z</time></trkpt><trkpt lat="42.09837472581468" lon="12.82283893083971"><ele>786.0</ele><time>2026-03-29T15:52:45Z</time></trkpt><trkpt lat="42.09838277448541" lon="12.822690032048818"><ele>786.0</ele><time>2026-03-29T15:52:46Z</time></trkpt><trkpt lat="42.098368621808795" lon="12.82252177327581"><ele>786.0</ele><time>2026-03-29T15:52:47Z</time></trkpt><trkpt lat="42.098336266196085" lon="12.822344343008748"><ele>783.5</ele><time>2026-03-29T15:52:48Z</time></trkpt><trkpt lat="42.09829451432417" lon="12.822175625719852"><ele>781.0</ele><time>2026-03-29T15:52:49Z</time></trkpt><trkpt lat="42.09823800012213" lon="12.822018745208805"><ele>778.5</ele><time>2026-03-29T15:52:50Z</time></trkpt><trkpt lat="42.098156216012306" lon="12.821860989868647"><ele>776.0</ele><time>2026-03-29T15:52:51Z</time></trkpt><trkpt lat="42.098057842504204" lon="12.821704479009993"><ele>766.6666666666667</ele><time>2026-03-29T15:52:52Z</time></trkpt><trkpt lat="42.09794956337105" lon="12.8215528867384"><ele>757.3333333333334</ele><time>2026-03-29T15:52:53Z</time></trkpt><trkpt lat="42.09782973287263" lon="12.82140362446897"><ele>748.0</ele><time>2026-03-29T15:52:54Z</time></trkpt><trkpt lat="42.09771300316675" lon="12.821271685006288"><ele>748.0</ele><time>2026-03-29T15:52:55Z</time></trkpt><trkpt lat="42.09761356437166" lon="12.82115685892753"><ele>748.0</ele><time>2026-03-29T15:52:56Z</time></trkpt><trkpt lat="42.09752724693717" lon="12.821042063775437"><ele>748.0</ele><time>2026-03-29T15:52:57Z</time></trkpt><trkpt lat="42.09743943174423" lon="12.820929490892127"><ele>748.0</ele><time>2026-03-29T15:52:58Z</time></trkpt><trkpt lat="42.097329836250225" lon="12.820819444095386"><ele>745.75</ele><time>2026-03-29T15:52:59Z</time></trkpt><trkpt lat="42.097189865532144" lon="12.820727131282919"><ele>743.5</ele><time>2026-03-29T15:53:00Z</time></trkpt><trkpt lat="42.09706168027704" lon="12.82063562540432"><ele>741.25</ele><time>2026-03-29T15:53:01Z</time></trkpt><trkpt lat="42.09695463673491" lon="12.820561525453446"><ele>739.0</ele><time>2026-03-29T15:53:02Z</time></trkpt><trkpt lat="42.09687149099022" lon="12.8204700611692"><ele>739.0</ele><time>2026-03-29T15:53:03Z</time></trkpt><trkpt lat="42.096783761437095" lon="12.820351140481169"><ele>739.0</ele><time>2026-03-29T15:53:04Z</time></trkpt><trkpt lat="42.09668986393912" lon="12.820195500345354"><ele>739.0</ele><time>2026-03-29T15:53:05Z</time></trkpt><trkpt lat="42.09660211672221" lon="12.820058134419643"><ele>739.0</ele><time>2026-03-29T15:53:06Z</time></trkpt><trkpt lat="42.09652009602287" lon="12.819948519441574"><ele>737.5</ele><time>2026-03-29T15:53:07Z</time></trkpt><trkpt lat="42.09644822293628" lon="12.81985280005947"><ele>736.0</ele><time>2026-03-29T15:53:08Z</time></trkpt><trkpt lat="42.09638838531196" lon="12.819760242290357"><ele>734.5</ele><time>2026-03-29T15:53:09Z</time></trkpt><trkpt lat="42.09634163178729" lon="12.819664649093843"><ele>733.0</ele><time>2026-03-29T15:53:10Z</time></trkpt><trkpt lat="42.09631612641255" lon="12.819572751424984"><ele>731.5</ele><time>2026-03-29T15:53:11Z</time></trkpt><trkpt lat="42.09632680082845" lon="12.819486608122391"><ele>730.0</ele><time>2026-03-29T15:53:12Z</time></trkpt><trkpt lat="42.09636837073552" lon="12.819397097422556"><ele>731.2</ele><time>2026-03-29T15:53:13Z</time></trkpt><trkpt lat="42.09642296142688" lon="12.819311705163715"><ele>732.4</ele><time>2026-03-29T15:53:14Z</time></trkpt><trkpt lat="42.09649024379257" lon="12.8192232141056"><ele>733.5999999999999</ele><time>2026-03-29T15:53:15Z</time></trkpt><trkpt lat="42.09657101092547" lon="12.819129209076758"><ele>734.8</ele><time>2026-03-29T15:53:16Z</time></trkpt><trkpt lat="42.096657457742026" lon="12.819016529948989"><ele>736.0</ele><time>2026-03-29T15:53:17Z</time></trkpt><trkpt lat="42.09675330458564" lon="12.818893752886062"><ele>734.25</ele><time>2026-03-29T15:53:18Z</time></trkpt><trkpt lat="42.09684802570495" lon="12.818758825012576"><ele>732.5</ele><time>2026-03-29T15:53:19Z</time></trkpt><trkpt lat="42.09693824214678" lon="12.818644487613343"><ele>730.75</ele><time>2026-03-29T15:53:19.999Z</time></trkpt><trkpt lat="42.09702419059809" lon="12.818513008303144"><ele>729.0</ele><time>2026-03-29T15:53:20.999Z</time></trkpt><trkpt lat="42.097112940634275" lon="12.818384531271889"><ele>729.0</ele><time>2026-03-29T15:53:21.999Z</time></trkpt><trkpt lat="42.097192026812564" lon="12.81825875404601"><ele>729.0</ele><time>2026-03-29T15:53:22.999Z</time></trkpt><trkpt lat="42.09726245168542" lon="12.81813319754459"><ele>729.0</ele><time>2026-03-29T15:53:23.999Z</time></trkpt><trkpt lat="42.09732154235709" lon="12.818002890537139"><ele>729.0</ele><time>2026-03-29T15:53:25Z</time></trkpt><trkpt lat="42.09736543234017" lon="12.817879668300005"><ele>729.0</ele><time>2026-03-29T15:53:26Z</time></trkpt><trkpt lat="42.097380538643826" lon="12.817729665117652"><ele>729.0</ele><time>2026-03-29T15:53:27Z</time></trkpt><trkpt lat="42.097375258514944" lon="12.817582288666673"><ele>729.0</ele><time>2026-03-29T15:53:28Z</time></trkpt><trkpt lat="42.09734822733334" lon="12.81740019847438"><ele>729.0</ele><time>2026-03-29T15:53:29Z</time></trkpt><trkpt lat="42.097306165204934" lon="12.817239461400188"><ele>724.3333333333334</ele><time>2026-03-29T15:53:30Z</time></trkpt><trkpt lat="42.097231932700666" lon="12.817077560322405"><ele>719.6666666666667</ele><time>2026-03-29T15:53:31Z</time></trkpt><trkpt lat="42.09713916967523" lon="12.816904595814917"><ele>715.0</ele><time>2026-03-29T15:53:32Z</time></trkpt><trkpt lat="42.09704179767631" lon="12.816712653815683"><ele>715.0</ele><time>2026-03-29T15:53:33Z</time></trkpt><trkpt lat="42.09694437527673" lon="12.816508516268598"><ele>715.0</ele><time>2026-03-29T15:53:34Z</time></trkpt><trkpt lat="42.09684505952306" lon="12.816296962325918"><ele>715.0</ele><time>2026-03-29T15:53:35Z</time></trkpt><trkpt lat="42.09675640770523" lon="12.816107633938982"><ele>718.0</ele><time>2026-03-29T15:53:36Z</time></trkpt><trkpt lat="42.096674755311334" lon="12.815938616474796"><ele>721.0</ele><time>2026-03-29T15:53:37Z</time></trkpt><trkpt lat="42.09659918971098" lon="12.81577877872437"><ele>724.0</ele><time>2026-03-29T15:53:38Z</time></trkpt><trkpt lat="42.09652125015276" lon="12.81563715497778"><ele>727.0</ele><time>2026-03-29T15:53:39Z</time></trkpt><trkpt lat="42.09644412499155" lon="12.815507845496615"><ele>724.8</ele><time>2026-03-29T15:53:40Z</time></trkpt><trkpt lat="42.096363227597145" lon="12.815393805146547"><ele>722.6</ele><time>2026-03-29T15:53:41Z</time></trkpt><trkpt lat="42.096264328925386" lon="12.81530032216058"><ele>720.4</ele><time>2026-03-29T15:53:42Z</time></trkpt><trkpt lat="42.09616925453669" lon="12.815235620698154"><ele>718.1999999999999</ele><time>2026-03-29T15:53:43Z</time></trkpt><trkpt lat="42.096085750206036" lon="12.815184826887474"><ele>716.0</ele><time>2026-03-29T15:53:44Z</time></trkpt><trkpt lat="42.09601527583687" lon="12.815136440480222"><ele>716.0000000000001</ele><time>2026-03-29T15:53:45Z</time></trkpt><trkpt lat="42.09594475288455" lon="12.815092921458591"><ele>716.0</ele><time>2026-03-29T15:53:46Z</time></trkpt><trkpt lat="42.09587828966386" lon="12.815049069202717"><ele>716.0</ele><time>2026-03-29T15:53:47Z</time></trkpt><trkpt lat="42.09581520810295" lon="12.815007144306469"><ele>716.0</ele><time>2026-03-29T15:53:48Z</time></trkpt><trkpt lat="42.095749268137766" lon="12.814965730386298"><ele>716.0</ele><time>2026-03-29T15:53:49Z</time></trkpt><trkpt lat="42.095685850972714" lon="12.814927719920847"><ele>716.0000000000001</ele><time>2026-03-29T15:53:50Z</time></trkpt><trkpt lat="42.09561818514312" lon="12.814895243654279"><ele>716.0</ele><time>2026-03-29T15:53:51Z</time></trkpt><trkpt lat="42.09555128530766" lon="12.814860153493573"><ele>711.8</ele><time>2026-03-29T15:53:52Z</time></trkpt><trkpt lat="42.09544847578518" lon="12.814802060560034"><ele>707.5999999999999</ele><time>2026-03-29T15:53:54Z</time></trkpt><trkpt lat="42.095380583412485" lon="12.814764952285143"><ele>703.4</ele><time>2026-03-29T15:53:57Z</time></trkpt><trkpt lat="42.09529535768762" lon="12.814716006679905"><ele>699.2</ele><time>2026-03-29T15:54:00Z</time></trkpt><trkpt lat="42.09518885373215" lon="12.81465395097098"><ele>695.0</ele><time>2026-03-29T15:54:02Z</time></trkpt><trkpt lat="42.095128461664906" lon="12.814625159788836"><ele>695.0</ele><time>2026-03-29T15:54:03Z</time></trkpt><trkpt lat="42.09504034530963" lon="12.814562597263082"><ele>695.0</ele><time>2026-03-29T15:54:05Z</time></trkpt><trkpt lat="42.09494516878383" lon="12.8144971926693"><ele>695.0</ele><time>2026-03-29T15:54:07Z</time></trkpt><trkpt lat="42.09489232158026" lon="12.814449353247147"><ele>695.0</ele><time>2026-03-29T15:54:08Z</time></trkpt><trkpt lat="42.09483710912022" lon="12.814406807274455"><ele>695.0</ele><time>2026-03-29T15:54:09Z</time></trkpt><trkpt lat="42.09478343034533" lon="12.814360581122987"><ele>695.0</ele><time>2026-03-29T15:54:10Z</time></trkpt><trkpt lat="42.0947207333729" lon="12.814315260268593"><ele>694.6</ele><time>2026-03-29T15:54:11Z</time></trkpt><trkpt lat="42.09466556557392" lon="12.81427424689897"><ele>694.2</ele><time>2026-03-29T15:54:12Z</time></trkpt><trkpt lat="42.09455865540212" lon="12.81417754967905"><ele>693.8</ele><time>2026-03-29T15:54:14Z</time></trkpt><trkpt lat="42.09445872674778" lon="12.814070968990283"><ele>693.4</ele><time>2026-03-29T15:54:16Z</time></trkpt><trkpt lat="42.09440871416077" lon="12.81401674548"><ele>693.0</ele><time>2026-03-29T15:54:17Z</time></trkpt><trkpt lat="42.094321666471586" lon="12.813914148564226"><ele>693.0</ele><time>2026-03-29T15:54:19Z</time></trkpt><trkpt lat="42.0942679048453" lon="12.813853506516672"><ele>693.0</ele><time>2026-03-29T15:54:20Z</time></trkpt><trkpt lat="42.09420801686979" lon="12.813765568685836"><ele>693.0</ele><time>2026-03-29T15:54:22Z</time></trkpt><trkpt lat="42.094120337154486" lon="12.813745398010662"><ele>693.0</ele><time>2026-03-29T15:54:40Z</time></trkpt><trkpt lat="42.09407047341631" lon="12.813676092550184"><ele>693.0</ele><time>2026-03-29T15:54:41Z</time></trkpt><trkpt lat="42.09402214584702" lon="12.813580917887212"><ele>693.0</ele><time>2026-03-29T15:54:42Z</time></trkpt><trkpt lat="42.09397966187664" lon="12.813460676327"><ele>691.0</ele><time>2026-03-29T15:54:43Z</time></trkpt><trkpt lat="42.093937851270724" lon="12.813335193879832"><ele>689.0</ele><time>2026-03-29T15:54:44Z</time></trkpt><trkpt lat="42.09389943176327" lon="12.813216314836465"><ele>687.0</ele><time>2026-03-29T15:54:45Z</time></trkpt><trkpt lat="42.09386179765315" lon="12.813111836972903"><ele>685.0</ele><time>2026-03-29T15:54:46Z</time></trkpt><trkpt lat="42.09384375805454" lon="12.813016049098076"><ele>683.0</ele><time>2026-03-29T15:54:47Z</time></trkpt><trkpt lat="42.09381551590904" lon="12.812892010448595"><ele>683.0</ele><time>2026-03-29T15:54:49Z</time></trkpt><trkpt lat="42.093748934440015" lon="12.812912578998528"><ele>683.0</ele><time>2026-03-29T15:54:51Z</time></trkpt><trkpt lat="42.09371965427387" lon="12.813023941595372"><ele>683.0</ele><time>2026-03-29T15:54:53Z</time></trkpt><trkpt lat="42.09370344203812" lon="12.813201725201742"><ele>683.0</ele><time>2026-03-29T15:54:55Z</time></trkpt><trkpt lat="42.093688569451906" lon="12.813337864354548"><ele>683.0</ele><time>2026-03-29T15:54:56Z</time></trkpt><trkpt lat="42.093671772810076" lon="12.8134657973721"><ele>680.5999999999999</ele><time>2026-03-29T15:54:57Z</time></trkpt><trkpt lat="42.093639474316625" lon="12.813581927240294"><ele>678.1999999999999</ele><time>2026-03-29T15:54:58Z</time></trkpt><trkpt lat="42.093626717797285" lon="12.813705421514394"><ele>675.8</ele><time>2026-03-29T15:54:59Z</time></trkpt><trkpt lat="42.093627926308514" lon="12.81384640776863"><ele>673.4</ele><time>2026-03-29T15:55:00Z</time></trkpt><trkpt lat="42.09361568010043" lon="12.813980487910786"><ele>671.0</ele><time>2026-03-29T15:55:01Z</time></trkpt><trkpt lat="42.093604667869585" lon="12.81410367162465"><ele>671.0</ele><time>2026-03-29T15:55:02Z</time></trkpt><trkpt lat="42.093612346841944" lon="12.814213725197018"><ele>671.0</ele><time>2026-03-29T15:55:03Z</time></trkpt><trkpt lat="42.09362930612742" lon="12.814296737634825"><ele>671.0</ele><time>2026-03-29T15:55:04Z</time></trkpt><trkpt lat="42.09367080672177" lon="12.814400530398792"><ele>671.0</ele><time>2026-03-29T15:55:05Z</time></trkpt><trkpt lat="42.09372893118489" lon="12.81448821375252"><ele>671.0</ele><time>2026-03-29T15:55:06Z</time></trkpt><trkpt lat="42.09378980977028" lon="12.814570954672266"><ele>671.0</ele><time>2026-03-29T15:55:07Z</time></trkpt><trkpt lat="42.09384403636865" lon="12.81464448700524"><ele>671.8</ele><time>2026-03-29T15:55:08Z</time></trkpt><trkpt lat="42.09389740162908" lon="12.814746121644834"><ele>672.5999999999999</ele><time>2026-03-29T15:55:09Z</time></trkpt><trkpt lat="42.09397317848247" lon="12.814843909837437"><ele>673.4</ele><time>2026-03-29T15:55:10Z</time></trkpt><trkpt lat="42.09402490206967" lon="12.81489589901087"><ele>674.2</ele><time>2026-03-29T15:55:11Z</time></trkpt><trkpt lat="42.094062727310124" lon="12.815037776870122"><ele>675.0</ele><time>2026-03-29T15:55:12Z</time></trkpt><trkpt lat="42.094102973374106" lon="12.815146370595897"><ele>672.1666666666666</ele><time>2026-03-29T15:55:13Z</time></trkpt><trkpt lat="42.09414857362328" lon="12.81521225977667"><ele>669.3333333333334</ele><time>2026-03-29T15:55:14Z</time></trkpt><trkpt lat="42.09420112115445" lon="12.815307638462539"><ele>666.5</ele><time>2026-03-29T15:55:15Z</time></trkpt><trkpt lat="42.094312783648995" lon="12.815361851850115"><ele>663.6666666666667</ele><time>2026-03-29T15:55:16Z</time></trkpt><trkpt lat="42.09437656297011" lon="12.815454666029963"><ele>660.8333333333334</ele><time>2026-03-29T15:55:18Z</time></trkpt><trkpt lat="42.094313142299995" lon="12.815502997988613"><ele>658.0</ele><time>2026-03-29T15:55:20Z</time></trkpt><trkpt lat="42.09422347574015" lon="12.815433426307806"><ele>658.0</ele><time>2026-03-29T15:55:22Z</time></trkpt><trkpt lat="42.094156648234524" lon="12.815351597187542"><ele>658.0</ele><time>2026-03-29T15:55:23Z</time></trkpt><trkpt lat="42.094072467791" lon="12.815291379133303"><ele>658.0</ele><time>2026-03-29T15:55:24Z</time></trkpt><trkpt lat="42.09399124895755" lon="12.815221641161003"><ele>658.0</ele><time>2026-03-29T15:55:25Z</time></trkpt><trkpt lat="42.09391042521657" lon="12.815162855330971"><ele>658.0</ele><time>2026-03-29T15:55:25.999Z</time></trkpt><trkpt lat="42.09382951193575" lon="12.815120753618402"><ele>658.0</ele><time>2026-03-29T15:55:26.999Z</time></trkpt><trkpt lat="42.09373743723885" lon="12.815095740523851"><ele>658.0</ele><time>2026-03-29T15:55:27.999Z</time></trkpt><trkpt lat="42.09362210183434" lon="12.815092053081413"><ele>658.0</ele><time>2026-03-29T15:55:28.999Z</time></trkpt><trkpt lat="42.09351011584558" lon="12.815044836408086"><ele>658.0</ele><time>2026-03-29T15:55:29.999Z</time></trkpt><trkpt lat="42.09339949389018" lon="12.814999685307846"><ele>658.0</ele><time>2026-03-29T15:55:31Z</time></trkpt><trkpt lat="42.0933023656848" lon="12.81496971857255"><ele>654.5999999999999</ele><time>2026-03-29T15:55:32Z</time></trkpt><trkpt lat="42.09321680176442" lon="12.814935569464588"><ele>651.1999999999999</ele><time>2026-03-29T15:55:33Z</time></trkpt><trkpt lat="42.09312078290779" lon="12.814903478437481"><ele>647.8</ele><time>2026-03-29T15:55:34Z</time></trkpt><trkpt lat="42.093016401062854" lon="12.81484949732391"><ele>644.4</ele><time>2026-03-29T15:55:35Z</time></trkpt><trkpt lat="42.09292190339154" lon="12.814789605980838"><ele>641.0</ele><time>2026-03-29T15:55:36Z</time></trkpt><trkpt lat="42.092828492934906" lon="12.81473580574013"><ele>641.0</ele><time>2026-03-29T15:55:37Z</time></trkpt><trkpt lat="42.092747976492916" lon="12.814672489660131"><ele>641.0</ele><time>2026-03-29T15:55:38Z</time></trkpt><trkpt lat="42.09268201860418" lon="12.814602635539613"><ele>641.0</ele><time>2026-03-29T15:55:39Z</time></trkpt><trkpt lat="42.092613277601615" lon="12.81452429606536"><ele>641.0</ele><time>2026-03-29T15:55:40Z</time></trkpt><trkpt lat="42.09254126493068" lon="12.814428707967524"><ele>641.0</ele><time>2026-03-29T15:55:41Z</time></trkpt><trkpt lat="42.09246764407076" lon="12.814348316039412"><ele>642.0</ele><time>2026-03-29T15:55:42Z</time></trkpt><trkpt lat="42.092384988279306" lon="12.814285961091636"><ele>643.0</ele><time>2026-03-29T15:55:43Z</time></trkpt><trkpt lat="42.092283426380604" lon="12.81427870906828"><ele>644.0</ele><time>2026-03-29T15:55:44Z</time></trkpt><trkpt lat="42.09217020110679" lon="12.814297833700445"><ele>645.0</ele><time>2026-03-29T15:55:45Z</time></trkpt><trkpt lat="42.0920519317321" lon="12.814340561346715"><ele>646.0</ele><time>2026-03-29T15:55:46Z</time></trkpt><trkpt lat="42.09191190399859" lon="12.814376140543194"><ele>645.25</ele><time>2026-03-29T15:55:47Z</time></trkpt><trkpt lat="42.09178563514174" lon="12.814368796647296"><ele>644.5</ele><time>2026-03-29T15:55:48Z</time></trkpt><trkpt lat="42.09167365563582" lon="12.814328075277912"><ele>643.75</ele><time>2026-03-29T15:55:49Z</time></trkpt><trkpt lat="42.09155998410276" lon="12.814319388158875"><ele>643.0</ele><time>2026-03-29T15:55:50Z</time></trkpt><trkpt lat="42.09144300357371" lon="12.814317467127337"><ele>643.0</ele><time>2026-03-29T15:55:51Z</time></trkpt><trkpt lat="42.091338513868116" lon="12.814319674714332"><ele>643.0</ele><time>2026-03-29T15:55:52Z</time></trkpt><trkpt lat="42.09123500757593" lon="12.814328855867839"><ele>643.0</ele><time>2026-03-29T15:55:53Z</time></trkpt><trkpt lat="42.09114144279773" lon="12.814342322139607"><ele>643.0</ele><time>2026-03-29T15:55:54Z</time></trkpt><trkpt lat="42.09104798027753" lon="12.81435414881384"><ele>643.0</ele><time>2026-03-29T15:55:55Z</time></trkpt><trkpt lat="42.09093986273631" lon="12.814361479258544"><ele>640.0</ele><time>2026-03-29T15:55:56Z</time></trkpt><trkpt lat="42.09082914911254" lon="12.814360204960646"><ele>637.0</ele><time>2026-03-29T15:55:57Z</time></trkpt><trkpt lat="42.09073480770963" lon="12.81435699861071"><ele>634.0</ele><time>2026-03-29T15:55:58Z</time></trkpt><trkpt lat="42.090639311744866" lon="12.81434832102453"><ele>631.0</ele><time>2026-03-29T15:55:59Z</time></trkpt><trkpt lat="42.090525664858966" lon="12.814347040775893"><ele>628.0</ele><time>2026-03-29T15:56:00Z</time></trkpt><trkpt lat="42.0904063232846" lon="12.814352406263149"><ele>625.0</ele><time>2026-03-29T15:56:01Z</time></trkpt><trkpt lat="42.0902912913652" lon="12.814346629578852"><ele>622.0</ele><time>2026-03-29T15:56:02Z</time></trkpt><trkpt lat="42.0901653940408" lon="12.814356690853215"><ele>619.0</ele><time>2026-03-29T15:56:03Z</time></trkpt><trkpt lat="42.090054746899" lon="12.81435391428577"><ele>616.0</ele><time>2026-03-29T15:56:04Z</time></trkpt><trkpt lat="42.08994464793283" lon="12.814395988038784"><ele>613.75</ele><time>2026-03-29T15:56:05Z</time></trkpt><trkpt lat="42.089833063961784" lon="12.81443648636153"><ele>611.5</ele><time>2026-03-29T15:56:06Z</time></trkpt><trkpt lat="42.089717806615795" lon="12.814461858356418"><ele>609.25</ele><time>2026-03-29T15:56:07Z</time></trkpt><trkpt lat="42.08960191743263" lon="12.814487943609862"><ele>607.0</ele><time>2026-03-29T15:56:08Z</time></trkpt><trkpt lat="42.08948461080818" lon="12.814533485366562"><ele>607.0</ele><time>2026-03-29T15:56:09Z</time></trkpt><trkpt lat="42.089370667890265" lon="12.814609318279008"><ele>607.0</ele><time>2026-03-29T15:56:10Z</time></trkpt><trkpt lat="42.08924727300246" lon="12.814660863039725"><ele>607.0</ele><time>2026-03-29T15:56:11Z</time></trkpt><trkpt lat="42.08910948304572" lon="12.8147174875055"><ele>607.0</ele><time>2026-03-29T15:56:12Z</time></trkpt><trkpt lat="42.08898049945023" lon="12.814785524566236"><ele>607.75</ele><time>2026-03-29T15:56:13Z</time></trkpt><trkpt lat="42.088870477109936" lon="12.814817447640765"><ele>608.5</ele><time>2026-03-29T15:56:14Z</time></trkpt><trkpt lat="42.08874466641502" lon="12.814879533541674"><ele>609.25</ele><time>2026-03-29T15:56:15Z</time></trkpt><trkpt lat="42.0886261219699" lon="12.814938860250457"><ele>610.0</ele><time>2026-03-29T15:56:16Z</time></trkpt><trkpt lat="42.08851542680682" lon="12.814986161085155"><ele>610.0</ele><time>2026-03-29T15:56:17Z</time></trkpt><trkpt lat="42.088406804091825" lon="12.815038619862397"><ele>610.0</ele><time>2026-03-29T15:56:18Z</time></trkpt><trkpt lat="42.08830688128367" lon="12.815119000940257"><ele>610.0</ele><time>2026-03-29T15:56:19Z</time></trkpt><trkpt lat="42.088203457605864" lon="12.815177269081838"><ele>610.0</ele><time>2026-03-29T15:56:20Z</time></trkpt><trkpt lat="42.08810089474342" lon="12.815225238149882"><ele>605.5</ele><time>2026-03-29T15:56:21Z</time></trkpt><trkpt lat="42.08800097236115" lon="12.815270739370181"><ele>601.0</ele><time>2026-03-29T15:56:22Z</time></trkpt><trkpt lat="42.087891172800404" lon="12.815336007685378"><ele>596.5</ele><time>2026-03-29T15:56:23Z</time></trkpt><trkpt lat="42.087780795418915" lon="12.815392277100045"><ele>592.0</ele><time>2026-03-29T15:56:24Z</time></trkpt><trkpt lat="42.08765816195157" lon="12.815480300161939"><ele>592.0</ele><time>2026-03-29T15:56:25Z</time></trkpt><trkpt lat="42.08753502939304" lon="12.81556555132731"><ele>592.0</ele><time>2026-03-29T15:56:26Z</time></trkpt><trkpt lat="42.087412107577975" lon="12.815635979569217"><ele>592.0</ele><time>2026-03-29T15:56:27Z</time></trkpt><trkpt lat="42.08729943994221" lon="12.815697749935483"><ele>592.0</ele><time>2026-03-29T15:56:28Z</time></trkpt><trkpt lat="42.08719180094126" lon="12.81576332471319"><ele>592.8333333333334</ele><time>2026-03-29T15:56:29Z</time></trkpt><trkpt lat="42.087096762689974" lon="12.815824866214271"><ele>593.6666666666667</ele><time>2026-03-29T15:56:30Z</time></trkpt><trkpt lat="42.087012021507775" lon="12.815868960713674"><ele>594.5</ele><time>2026-03-29T15:56:31Z</time></trkpt><trkpt lat="42.08693246973596" lon="12.815906619166306"><ele>595.3333333333334</ele><time>2026-03-29T15:56:32Z</time></trkpt><trkpt lat="42.086857279533454" lon="12.81595402628273"><ele>596.1666666666666</ele><time>2026-03-29T15:56:33Z</time></trkpt><trkpt lat="42.086788494354685" lon="12.816004647500352"><ele>597.0</ele><time>2026-03-29T15:56:34Z</time></trkpt><trkpt lat="42.08672696004261" lon="12.816033425219821"><ele>593.2</ele><time>2026-03-29T15:56:35Z</time></trkpt><trkpt lat="42.08663278897629" lon="12.816077024959291"><ele>589.4000000000001</ele><time>2026-03-29T15:56:36Z</time></trkpt><trkpt lat="42.08653657465005" lon="12.816127633116999"><ele>585.5999999999999</ele><time>2026-03-29T15:56:37Z</time></trkpt><trkpt lat="42.08645538089618" lon="12.816179728022114"><ele>581.8</ele><time>2026-03-29T15:56:38Z</time></trkpt><trkpt lat="42.08637857644164" lon="12.81622513654678"><ele>578.0</ele><time>2026-03-29T15:56:39Z</time></trkpt><trkpt lat="42.08631041290262" lon="12.816309573080387"><ele>578.0</ele><time>2026-03-29T15:56:40Z</time></trkpt><trkpt lat="42.08623827055262" lon="12.8163664112072"><ele>578.0</ele><time>2026-03-29T15:56:41Z</time></trkpt><trkpt lat="42.086161645889874" lon="12.816441966209164"><ele>578.0</ele><time>2026-03-29T15:56:42Z</time></trkpt><trkpt lat="42.08607326693317" lon="12.816536739889605"><ele>578.0</ele><time>2026-03-29T15:56:43Z</time></trkpt><trkpt lat="42.08598418927927" lon="12.816662429426051"><ele>578.0</ele><time>2026-03-29T15:56:44Z</time></trkpt><trkpt lat="42.085906294542234" lon="12.816763002134694"><ele>575.0</ele><time>2026-03-29T15:56:45Z</time></trkpt><trkpt lat="42.08583563452928" lon="12.816848611572812"><ele>572.0</ele><time>2026-03-29T15:56:46Z</time></trkpt><trkpt lat="42.08574951187826" lon="12.816959284057157"><ele>569.0</ele><time>2026-03-29T15:56:47Z</time></trkpt><trkpt lat="42.0856457806199" lon="12.817062077417631"><ele>566.0</ele><time>2026-03-29T15:56:48Z</time></trkpt><trkpt lat="42.085550253004286" lon="12.817153119475362"><ele>566.0</ele><time>2026-03-29T15:56:49Z</time></trkpt><trkpt lat="42.08545547943088" lon="12.817244412693206"><ele>566.0</ele><time>2026-03-29T15:56:50Z</time></trkpt><trkpt lat="42.08536820156765" lon="12.817324032488141"><ele>566.0</ele><time>2026-03-29T15:56:51Z</time></trkpt><trkpt lat="42.08527646356652" lon="12.817420200228804"><ele>566.0</ele><time>2026-03-29T15:56:52Z</time></trkpt><trkpt lat="42.08518431988816" lon="12.817512917151806"><ele>566.0</ele><time>2026-03-29T15:56:53Z</time></trkpt><trkpt lat="42.08509224411223" lon="12.817592558814967"><ele>566.0</ele><time>2026-03-29T15:56:54Z</time></trkpt><trkpt lat="42.08500939492868" lon="12.817676759523497"><ele>566.0</ele><time>2026-03-29T15:56:55Z</time></trkpt><trkpt lat="42.084926749194175" lon="12.8177876078178"><ele>566.0</ele><time>2026-03-29T15:56:56Z</time></trkpt><trkpt lat="42.08483886009034" lon="12.817875766190571"><ele>566.0</ele><time>2026-03-29T15:56:57Z</time></trkpt><trkpt lat="42.084760132051635" lon="12.817946778589894"><ele>562.6</ele><time>2026-03-29T15:56:58Z</time></trkpt><trkpt lat="42.08466797446748" lon="12.818035552560934"><ele>559.2</ele><time>2026-03-29T15:56:59Z</time></trkpt><trkpt lat="42.08457073485205" lon="12.818142576061266"><ele>555.8</ele><time>2026-03-29T15:57:00Z</time></trkpt><trkpt lat="42.0844889139414" lon="12.818224874782771"><ele>552.4</ele><time>2026-03-29T15:57:01Z</time></trkpt><trkpt lat="42.084404084942726" lon="12.818301507377049"><ele>549.0</ele><time>2026-03-29T15:57:02Z</time></trkpt><trkpt lat="42.08431828586372" lon="12.818362522579056"><ele>549.0</ele><time>2026-03-29T15:57:03Z</time></trkpt><trkpt lat="42.0842097180425" lon="12.818423420757677"><ele>549.0</ele><time>2026-03-29T15:57:04Z</time></trkpt><trkpt lat="42.08408385636274" lon="12.81849856707005"><ele>549.0</ele><time>2026-03-29T15:57:05Z</time></trkpt><trkpt lat="42.08395462515779" lon="12.81860509458913"><ele>549.0</ele><time>2026-03-29T15:57:06Z</time></trkpt><trkpt lat="42.08382784521728" lon="12.818698679862399"><ele>545.75</ele><time>2026-03-29T15:57:07Z</time></trkpt><trkpt lat="42.08370041848116" lon="12.818795582789583"><ele>542.5</ele><time>2026-03-29T15:57:08Z</time></trkpt><trkpt lat="42.08358885835974" lon="12.818872375624146"><ele>539.25</ele><time>2026-03-29T15:57:09Z</time></trkpt><trkpt lat="42.08348504328798" lon="12.818946718820024"><ele>536.0</ele><time>2026-03-29T15:57:10Z</time></trkpt><trkpt lat="42.083364927420156" lon="12.819007644363667"><ele>534.5</ele><time>2026-03-29T15:57:11Z</time></trkpt><trkpt lat="42.08324035778159" lon="12.819051113403836"><ele>533.0</ele><time>2026-03-29T15:57:12Z</time></trkpt><trkpt lat="42.08311740719312" lon="12.819091348660098"><ele>531.5</ele><time>2026-03-29T15:57:13Z</time></trkpt><trkpt lat="42.08300816495911" lon="12.819130425987913"><ele>530.0</ele><time>2026-03-29T15:57:14Z</time></trkpt><trkpt lat="42.08290888010559" lon="12.819163930723898"><ele>530.0</ele><time>2026-03-29T15:57:15Z</time></trkpt><trkpt lat="42.0828036677246" lon="12.819199621243852"><ele>530.0</ele><time>2026-03-29T15:57:16Z</time></trkpt><trkpt lat="42.08269433904222" lon="12.819247398999499"><ele>530.0</ele><time>2026-03-29T15:57:17Z</time></trkpt><trkpt lat="42.082582562927655" lon="12.819286209820685"><ele>530.0</ele><time>2026-03-29T15:57:18Z</time></trkpt><trkpt lat="42.08247235308287" lon="12.819312369252973"><ele>526.6</ele><time>2026-03-29T15:57:19Z</time></trkpt><trkpt lat="42.082366226645384" lon="12.819321296393397"><ele>523.2</ele><time>2026-03-29T15:57:20Z</time></trkpt><trkpt lat="42.08227272174032" lon="12.819340972971217"><ele>519.8</ele><time>2026-03-29T15:57:21Z</time></trkpt><trkpt lat="42.082174086719384" lon="12.819393941516182"><ele>516.4</ele><time>2026-03-29T15:57:22Z</time></trkpt><trkpt lat="42.08207311551893" lon="12.819427665127547"><ele>513.0</ele><time>2026-03-29T15:57:23Z</time></trkpt><trkpt lat="42.08197306021888" lon="12.81942623912957"><ele>513.0</ele><time>2026-03-29T15:57:24Z</time></trkpt><trkpt lat="42.08188509563183" lon="12.819398012089891"><ele>513.0</ele><time>2026-03-29T15:57:25Z</time></trkpt><trkpt lat="42.08179406003259" lon="12.81939950019355"><ele>513.0</ele><time>2026-03-29T15:57:26Z</time></trkpt><trkpt lat="42.0817124322767" lon="12.819365127320292"><ele>513.0</ele><time>2026-03-29T15:57:27Z</time></trkpt><trkpt lat="42.081625561575656" lon="12.81932552724785"><ele>513.0</ele><time>2026-03-29T15:57:28Z</time></trkpt><trkpt lat="42.08155497814865" lon="12.81924768064096"><ele>511.0</ele><time>2026-03-29T15:57:29Z</time></trkpt><trkpt lat="42.08146273862733" lon="12.819189965150727"><ele>508.99999999999994</ele><time>2026-03-29T15:57:30Z</time></trkpt><trkpt lat="42.08137991351812" lon="12.819112167680744"><ele>506.99999999999994</ele><time>2026-03-29T15:57:31Z</time></trkpt><trkpt lat="42.08131216316005" lon="12.819035212770073"><ele>505.0</ele><time>2026-03-29T15:57:32Z</time></trkpt><trkpt lat="42.08126770504935" lon="12.818962378929827"><ele>503.0</ele><time>2026-03-29T15:57:33Z</time></trkpt><trkpt lat="42.08119694581397" lon="12.818861436695036"><ele>502.99999999999994</ele><time>2026-03-29T15:57:35Z</time></trkpt><trkpt lat="42.08115500250943" lon="12.818797119894636"><ele>503.0</ele><time>2026-03-29T15:57:35.999Z</time></trkpt><trkpt lat="42.08109205824506" lon="12.818715156519954"><ele>503.0</ele><time>2026-03-29T15:57:37Z</time></trkpt><trkpt lat="42.08103682721556" lon="12.818624386682737"><ele>503.0</ele><time>2026-03-29T15:57:38Z</time></trkpt><trkpt lat="42.08099256194596" lon="12.818516923284157"><ele>502.99999999999994</ele><time>2026-03-29T15:57:39Z</time></trkpt><trkpt lat="42.08095057224844" lon="12.818406087142815"><ele>503.0</ele><time>2026-03-29T15:57:40Z</time></trkpt><trkpt lat="42.080906482970505" lon="12.818273868663665"><ele>503.4</ele><time>2026-03-29T15:57:41Z</time></trkpt><trkpt lat="42.0808918427237" lon="12.818128419915363"><ele>503.79999999999995</ele><time>2026-03-29T15:57:42Z</time></trkpt><trkpt lat="42.080883546197825" lon="12.818019669048995"><ele>504.2</ele><time>2026-03-29T15:57:43Z</time></trkpt><trkpt lat="42.080869768760444" lon="12.817867765419477"><ele>504.6</ele><time>2026-03-29T15:57:44Z</time></trkpt><trkpt lat="42.08085580511827" lon="12.817715772054346"><ele>505.0</ele><time>2026-03-29T15:57:45Z</time></trkpt><trkpt lat="42.0808453168137" lon="12.81756315755585"><ele>505.0</ele><time>2026-03-29T15:57:46Z</time></trkpt><trkpt lat="42.08083954144525" lon="12.817413839184773"><ele>505.0</ele><time>2026-03-29T15:57:47Z</time></trkpt><trkpt lat="42.08080175919635" lon="12.817275447441505"><ele>505.0</ele><time>2026-03-29T15:57:48Z</time></trkpt><trkpt lat="42.080755788067364" lon="12.817127659941889"><ele>505.0</ele><time>2026-03-29T15:57:49Z</time></trkpt><trkpt lat="42.0806992533733" lon="12.81699503168171"><ele>504.50000000000006</ele><time>2026-03-29T15:57:50Z</time></trkpt><trkpt lat="42.080671479909896" lon="12.816890573763462"><ele>504.0</ele><time>2026-03-29T15:57:51Z</time></trkpt><trkpt lat="42.08066039153409" lon="12.816791878142947"><ele>503.5</ele><time>2026-03-29T15:57:52Z</time></trkpt><trkpt lat="42.08065439463396" lon="12.816688442898892"><ele>503.0</ele><time>2026-03-29T15:57:53Z</time></trkpt><trkpt lat="42.08067384596499" lon="12.816565865589327"><ele>502.50000000000006</ele><time>2026-03-29T15:57:54Z</time></trkpt><trkpt lat="42.080695321296396" lon="12.816430099715673"><ele>502.0</ele><time>2026-03-29T15:57:55Z</time></trkpt><trkpt lat="42.08069180858376" lon="12.816268806099375"><ele>501.6666666666667</ele><time>2026-03-29T15:57:56Z</time></trkpt><trkpt lat="42.080688544688726" lon="12.816121321872236"><ele>501.33333333333337</ele><time>2026-03-29T15:57:57Z</time></trkpt><trkpt lat="42.08065854431344" lon="12.816012242162568"><ele>501.0</ele><time>2026-03-29T15:57:58Z</time></trkpt><trkpt lat="42.08062077593341" lon="12.81591819732344"><ele>500.66666666666663</ele><time>2026-03-29T15:57:59Z</time></trkpt><trkpt lat="42.08057902644397" lon="12.815821243212884"><ele>500.3333333333333</ele><time>2026-03-29T15:58:00Z</time></trkpt><trkpt lat="42.080537818233026" lon="12.815729477843458"><ele>500.0</ele><time>2026-03-29T15:58:01Z</time></trkpt><trkpt lat="42.08049330020398" lon="12.815555541297119"><ele>498.8</ele><time>2026-03-29T15:58:03Z</time></trkpt><trkpt lat="42.08048815606787" lon="12.815461325181118"><ele>497.6</ele><time>2026-03-29T15:58:04Z</time></trkpt><trkpt lat="42.080499742428955" lon="12.815355527671795"><ele>496.4</ele><time>2026-03-29T15:58:05Z</time></trkpt><trkpt lat="42.08050821661744" lon="12.815237505651362"><ele>495.2</ele><time>2026-03-29T15:58:07Z</time></trkpt><trkpt lat="42.08042160248024" lon="12.815184351949767"><ele>494.0</ele><time>2026-03-29T15:58:09Z</time></trkpt><trkpt lat="42.08033253328358" lon="12.815036982169847"><ele>493.25</ele><time>2026-03-29T15:58:11Z</time></trkpt><trkpt lat="42.08027109609917" lon="12.81495950259988"><ele>492.5</ele><time>2026-03-29T15:58:12Z</time></trkpt><trkpt lat="42.080219753952115" lon="12.814821937183227"><ele>491.75</ele><time>2026-03-29T15:58:13Z</time></trkpt><trkpt lat="42.08015704933727" lon="12.814714867185085"><ele>491.0</ele><time>2026-03-29T15:58:14Z</time></trkpt><trkpt lat="42.08009963695989" lon="12.814458821733684"><ele>489.75</ele><time>2026-03-29T15:58:16Z</time></trkpt><trkpt lat="42.080033141266924" lon="12.814284882476244"><ele>488.5</ele><time>2026-03-29T15:58:17Z</time></trkpt><trkpt lat="42.07998676160496" lon="12.81412075904567"><ele>487.25</ele><time>2026-03-29T15:58:18Z</time></trkpt><trkpt lat="42.07993620111874" lon="12.813961832213796"><ele>486.0</ele><time>2026-03-29T15:58:19Z</time></trkpt><trkpt lat="42.07988242049781" lon="12.813791965706491"><ele>490.0</ele><time>2026-03-29T15:58:20Z</time></trkpt><trkpt lat="42.07982789416279" lon="12.813624785597124"><ele>494.0</ele><time>2026-03-29T15:58:21Z</time></trkpt><trkpt lat="42.07977988467653" lon="12.813459477828374"><ele>498.0</ele><time>2026-03-29T15:58:22Z</time></trkpt><trkpt lat="42.079727135377325" lon="12.813317268229365"><ele>502.0</ele><time>2026-03-29T15:58:23Z</time></trkpt><trkpt lat="42.079667952533775" lon="12.813165120950055"><ele>502.0</ele><time>2026-03-29T15:58:24Z</time></trkpt><trkpt lat="42.079618325342125" lon="12.813022185118138"><ele>502.00000000000006</ele><time>2026-03-29T15:58:25Z</time></trkpt><trkpt lat="42.079553085322566" lon="12.81291774810347"><ele>502.00000000000006</ele><time>2026-03-29T15:58:26Z</time></trkpt><trkpt lat="42.079500511119946" lon="12.812829839917425"><ele>502.0</ele><time>2026-03-29T15:58:27Z</time></trkpt><trkpt lat="42.079449874560915" lon="12.812737833898044"><ele>502.0</ele><time>2026-03-29T15:58:28Z</time></trkpt><trkpt lat="42.07940741929824" lon="12.812651935998536"><ele>502.20000000000005</ele><time>2026-03-29T15:58:29Z</time></trkpt><trkpt lat="42.07939296027528" lon="12.81255460885242"><ele>502.40000000000003</ele><time>2026-03-29T15:58:31Z</time></trkpt><trkpt lat="42.079429505444445" lon="12.812381650057254"><ele>502.59999999999997</ele><time>2026-03-29T15:58:33Z</time></trkpt><trkpt lat="42.07944591235895" lon="12.812270156956968"><ele>502.79999999999995</ele><time>2026-03-29T15:58:34Z</time></trkpt><trkpt lat="42.0794542056264" lon="12.812122432131536"><ele>503.0</ele><time>2026-03-29T15:58:35Z</time></trkpt><trkpt lat="42.07946796935133" lon="12.811974858148458"><ele>503.0</ele><time>2026-03-29T15:58:36Z</time></trkpt><trkpt lat="42.07949321350914" lon="12.811819635601152"><ele>503.0</ele><time>2026-03-29T15:58:37Z</time></trkpt><trkpt lat="42.07951676288753" lon="12.811618469957574"><ele>503.0</ele><time>2026-03-29T15:58:38Z</time></trkpt><trkpt lat="42.079538047542606" lon="12.811453182199834"><ele>503.0</ele><time>2026-03-29T15:58:39Z</time></trkpt><trkpt lat="42.07956095744205" lon="12.811337269887128"><ele>503.0</ele><time>2026-03-29T15:58:40Z</time></trkpt><trkpt lat="42.079600931860575" lon="12.811237507575587"><ele>502.99999999999994</ele><time>2026-03-29T15:58:41Z</time></trkpt><trkpt lat="42.07967568043318" lon="12.811192664498048"><ele>502.99999999999994</ele><time>2026-03-29T15:58:42Z</time></trkpt><trkpt lat="42.079757545755186" lon="12.811105860852464"><ele>503.0</ele><time>2026-03-29T15:58:43Z</time></trkpt><trkpt lat="42.0798606330543" lon="12.811029126185755"><ele>503.0</ele><time>2026-03-29T15:58:44Z</time></trkpt><trkpt lat="42.079957603881894" lon="12.810988870229998"><ele>499.0</ele><time>2026-03-29T15:58:45Z</time></trkpt><trkpt lat="42.080011819174715" lon="12.810882144778926"><ele>494.99999999999994</ele><time>2026-03-29T15:58:47Z</time></trkpt><trkpt lat="42.08000277432153" lon="12.810783520848569"><ele>490.99999999999994</ele><time>2026-03-29T15:58:49Z</time></trkpt><trkpt lat="42.07996436931134" lon="12.810638635984692"><ele>487.0</ele><time>2026-03-29T15:58:51Z</time></trkpt><trkpt lat="42.079953435910234" lon="12.810513131141688"><ele>483.0</ele><time>2026-03-29T15:58:52Z</time></trkpt><trkpt lat="42.07994517578707" lon="12.810385718830572"><ele>485.2</ele><time>2026-03-29T15:58:53Z</time></trkpt><trkpt lat="42.07992417769638" lon="12.810213431563787"><ele>487.4</ele><time>2026-03-29T15:58:54Z</time></trkpt><trkpt lat="42.07991496441505" lon="12.810079094919075"><ele>489.59999999999997</ele><time>2026-03-29T15:58:55Z</time></trkpt><trkpt lat="42.079903014401204" lon="12.80994025160883"><ele>491.79999999999995</ele><time>2026-03-29T15:58:56Z</time></trkpt><trkpt lat="42.07988476310425" lon="12.809787474502201"><ele>494.0</ele><time>2026-03-29T15:58:57Z</time></trkpt><trkpt lat="42.07986856528984" lon="12.809666378768432"><ele>493.99999999999994</ele><time>2026-03-29T15:58:58Z</time></trkpt><trkpt lat="42.079846268717745" lon="12.809576130215852"><ele>494.0</ele><time>2026-03-29T15:58:59Z</time></trkpt><trkpt lat="42.07985403767617" lon="12.80948251778082"><ele>494.0</ele><time>2026-03-29T15:59:00Z</time></trkpt><trkpt lat="42.07984720204609" lon="12.809323741667635"><ele>494.0</ele><time>2026-03-29T15:59:02Z</time></trkpt><trkpt lat="42.079827776005935" lon="12.809232545205445"><ele>493.99999999999994</ele><time>2026-03-29T15:59:03Z</time></trkpt><trkpt lat="42.07980675170862" lon="12.809107937539073"><ele>494.0</ele><time>2026-03-29T15:59:04Z</time></trkpt><trkpt lat="42.079790788894414" lon="12.808962760485274"><ele>491.6</ele><time>2026-03-29T15:59:05Z</time></trkpt><trkpt lat="42.0797802798207" lon="12.808810514348236"><ele>489.2</ele><time>2026-03-29T15:59:06Z</time></trkpt><trkpt lat="42.0797682987504" lon="12.808675341509895"><ele>486.80000000000007</ele><time>2026-03-29T15:59:07Z</time></trkpt><trkpt lat="42.079757689897" lon="12.808549859992073"><ele>484.40000000000003</ele><time>2026-03-29T15:59:08Z</time></trkpt><trkpt lat="42.079761757329365" lon="12.808457222790576"><ele>482.0</ele><time>2026-03-29T15:59:09Z</time></trkpt><trkpt lat="42.0797430386732" lon="12.80833173005521"><ele>479.6</ele><time>2026-03-29T15:59:11Z</time></trkpt><trkpt lat="42.07967539315687" lon="12.808241205912271"><ele>477.20000000000005</ele><time>2026-03-29T15:59:13Z</time></trkpt><trkpt lat="42.07957094940265" lon="12.80809943471938"><ele>474.8</ele><time>2026-03-29T15:59:15Z</time></trkpt><trkpt lat="42.079513794938265" lon="12.8079942998745"><ele>472.4</ele><time>2026-03-29T15:59:16Z</time></trkpt><trkpt lat="42.079470539668" lon="12.80787140132697"><ele>470.0</ele><time>2026-03-29T15:59:17Z</time></trkpt><trkpt lat="42.07943606827976" lon="12.807783595086041"><ele>469.8</ele><time>2026-03-29T15:59:18Z</time></trkpt><trkpt lat="42.07941514749249" lon="12.807599961311338"><ele>469.6</ele><time>2026-03-29T15:59:20Z</time></trkpt><trkpt lat="42.07944972958593" lon="12.8074809558566"><ele>469.4</ele><time>2026-03-29T15:59:21Z</time></trkpt><trkpt lat="42.07949441992808" lon="12.807355213148531"><ele>469.2</ele><time>2026-03-29T15:59:22Z</time></trkpt><trkpt lat="42.07955730273024" lon="12.807248264926697"><ele>469.0</ele><time>2026-03-29T15:59:23Z</time></trkpt><trkpt lat="42.07958098196923" lon="12.80711061595285"><ele>469.0</ele><time>2026-03-29T15:59:24Z</time></trkpt><trkpt lat="42.07966710098692" lon="12.807024630662195"><ele>469.0</ele><time>2026-03-29T15:59:25Z</time></trkpt><trkpt lat="42.079741368577274" lon="12.806916054913875"><ele>469.0</ele><time>2026-03-29T15:59:26Z</time></trkpt><trkpt lat="42.0797957168766" lon="12.806809393793655"><ele>469.0</ele><time>2026-03-29T15:59:27Z</time></trkpt><trkpt lat="42.079844564773445" lon="12.80670997570484"><ele>469.0</ele><time>2026-03-29T15:59:28Z</time></trkpt><trkpt lat="42.07989627774261" lon="12.806637066643374"><ele>470.79999999999995</ele><time>2026-03-29T15:59:29Z</time></trkpt><trkpt lat="42.079922293791746" lon="12.80655356567095"><ele>472.59999999999997</ele><time>2026-03-29T15:59:30Z</time></trkpt><trkpt lat="42.07993520685762" lon="12.806439758967148"><ele>474.4</ele><time>2026-03-29T15:59:31Z</time></trkpt><trkpt lat="42.079934327460926" lon="12.806297113287258"><ele>476.2</ele><time>2026-03-29T15:59:32Z</time></trkpt><trkpt lat="42.07993989906405" lon="12.806123990212699"><ele>478.0</ele><time>2026-03-29T15:59:33Z</time></trkpt><trkpt lat="42.07996004002583" lon="12.805952086947151"><ele>473.0</ele><time>2026-03-29T15:59:33.999Z</time></trkpt><trkpt lat="42.079992051018756" lon="12.805777233504289"><ele>468.0</ele><time>2026-03-29T15:59:34.999Z</time></trkpt><trkpt lat="42.08002338555887" lon="12.805607895237967"><ele>463.0</ele><time>2026-03-29T15:59:35.999Z</time></trkpt><trkpt lat="42.080045676005945" lon="12.805446760561635"><ele>458.0</ele><time>2026-03-29T15:59:36.999Z</time></trkpt><trkpt lat="42.080069337247906" lon="12.80529443139591"><ele>458.2</ele><time>2026-03-29T15:59:37.999Z</time></trkpt><trkpt lat="42.08008784156161" lon="12.80515357371252"><ele>458.4</ele><time>2026-03-29T15:59:38.999Z</time></trkpt><trkpt lat="42.08010261569181" lon="12.805021186226886"><ele>458.59999999999997</ele><time>2026-03-29T15:59:39.999Z</time></trkpt><trkpt lat="42.08011953242675" lon="12.804892731001166"><ele>458.79999999999995</ele><time>2026-03-29T15:59:40.999Z</time></trkpt><trkpt lat="42.080153340194315" lon="12.804774038707396"><ele>459.0</ele><time>2026-03-29T15:59:41.999Z</time></trkpt><trkpt lat="42.080218554663396" lon="12.804656450491931"><ele>459.0</ele><time>2026-03-29T15:59:43Z</time></trkpt><trkpt lat="42.08028111336208" lon="12.804530396652497"><ele>459.0</ele><time>2026-03-29T15:59:44Z</time></trkpt><trkpt lat="42.08033572690933" lon="12.804432759965767"><ele>459.0</ele><time>2026-03-29T15:59:45Z</time></trkpt><trkpt lat="42.08040080674093" lon="12.804330695769037"><ele>459.0</ele><time>2026-03-29T15:59:46Z</time></trkpt><trkpt lat="42.08047046157759" lon="12.804231477243508"><ele>459.0</ele><time>2026-03-29T15:59:47Z</time></trkpt><trkpt lat="42.08053005056344" lon="12.80414339679186"><ele>458.3333333333333</ele><time>2026-03-29T15:59:48Z</time></trkpt><trkpt lat="42.08057304055225" lon="12.804065006246878"><ele>457.66666666666663</ele><time>2026-03-29T15:59:49Z</time></trkpt><trkpt lat="42.080599758478556" lon="12.803983316635817"><ele>457.0</ele><time>2026-03-29T15:59:50Z</time></trkpt><trkpt lat="42.08064947610144" lon="12.803884900980457"><ele>456.3333333333333</ele><time>2026-03-29T15:59:51Z</time></trkpt><trkpt lat="42.08070154769611" lon="12.803779365965847"><ele>455.66666666666663</ele><time>2026-03-29T15:59:52Z</time></trkpt><trkpt lat="42.0807526057259" lon="12.803675233555964"><ele>455.0</ele><time>2026-03-29T15:59:53Z</time></trkpt><trkpt lat="42.08081518683791" lon="12.803573494910916"><ele>454.4</ele><time>2026-03-29T15:59:54Z</time></trkpt><trkpt lat="42.08087315599428" lon="12.803457219914003"><ele>453.8</ele><time>2026-03-29T15:59:55Z</time></trkpt><trkpt lat="42.08089967047236" lon="12.803354224074823"><ele>453.20000000000005</ele><time>2026-03-29T15:59:56Z</time></trkpt><trkpt lat="42.080905601268924" lon="12.803221079670868"><ele>452.6</ele><time>2026-03-29T15:59:58Z</time></trkpt><trkpt lat="42.08084506082682" lon="12.803173277666128"><ele>452.0</ele><time>2026-03-29T16:00:00Z</time></trkpt><trkpt lat="42.080740408185804" lon="12.803169613708398"><ele>452.0</ele><time>2026-03-29T16:00:02Z</time></trkpt><trkpt lat="42.08067629343565" lon="12.803119328987837"><ele>452.00000000000006</ele><time>2026-03-29T16:00:04Z</time></trkpt><trkpt lat="42.08068737799196" lon="12.802962010181584"><ele>452.00000000000006</ele><time>2026-03-29T16:00:07Z</time></trkpt><trkpt lat="42.08071819782044" lon="12.80284820661198"><ele>452.0</ele><time>2026-03-29T16:00:09Z</time></trkpt><trkpt lat="42.080766237972774" lon="12.802638455117348"><ele>452.0</ele><time>2026-03-29T16:00:10Z</time></trkpt><trkpt lat="42.080790781067506" lon="12.802433322504019"><ele>443.0</ele><time>2026-03-29T16:00:11Z</time></trkpt><trkpt lat="42.080808691245984" lon="12.802184306886518"><ele>434.0</ele><time>2026-03-29T16:00:12Z</time></trkpt><trkpt lat="42.08082941145847" lon="12.801991259285515"><ele>425.0</ele><time>2026-03-29T16:00:13Z</time></trkpt><trkpt lat="42.080869854006394" lon="12.801804417638905"><ele>423.66666666666663</ele><time>2026-03-29T16:00:14Z</time></trkpt><trkpt lat="42.08089761875917" lon="12.801576169437698"><ele>422.33333333333337</ele><time>2026-03-29T16:00:15Z</time></trkpt><trkpt lat="42.080944366479464" lon="12.801369584070692"><ele>421.0</ele><time>2026-03-29T16:00:16Z</time></trkpt><trkpt lat="42.08099728829811" lon="12.801162555303465"><ele>421.33333333333337</ele><time>2026-03-29T16:00:17Z</time></trkpt><trkpt lat="42.08107020409519" lon="12.800934323638948"><ele>421.66666666666663</ele><time>2026-03-29T16:00:18Z</time></trkpt><trkpt lat="42.081141439454" lon="12.800706114556196"><ele>422.0</ele><time>2026-03-29T16:00:19Z</time></trkpt><trkpt lat="42.08120827474547" lon="12.800483274031691"><ele>422.0</ele><time>2026-03-29T16:00:20Z</time></trkpt><trkpt lat="42.08122603301643" lon="12.800248548314546"><ele>422.0</ele><time>2026-03-29T16:00:21Z</time></trkpt><trkpt lat="42.081287185642736" lon="12.800051745047652"><ele>422.0</ele><time>2026-03-29T16:00:22Z</time></trkpt><trkpt lat="42.081340879973574" lon="12.799881916171099"><ele>422.8</ele><time>2026-03-29T16:00:23Z</time></trkpt><trkpt lat="42.081379391427596" lon="12.799778272474146"><ele>423.6</ele><time>2026-03-29T16:00:24Z</time></trkpt><trkpt lat="42.08138648999045" lon="12.79964147177417"><ele>424.40000000000003</ele><time>2026-03-29T16:00:26Z</time></trkpt><trkpt lat="42.08139433024193" lon="12.799538479217377"><ele>425.20000000000005</ele><time>2026-03-29T16:00:27Z</time></trkpt><trkpt lat="42.081408936477715" lon="12.799391568611973"><ele>426.0</ele><time>2026-03-29T16:00:28Z</time></trkpt><trkpt lat="42.08145423849167" lon="12.799264743338231"><ele>426.0</ele><time>2026-03-29T16:00:29Z</time></trkpt><trkpt lat="42.081496163974336" lon="12.799159013704697"><ele>426.0</ele><time>2026-03-29T16:00:30Z</time></trkpt><trkpt lat="42.0815351805047" lon="12.799060100814515"><ele>426.0</ele><time>2026-03-29T16:00:31Z</time></trkpt><trkpt lat="42.08155723388796" lon="12.798949459521948"><ele>426.0</ele><time>2026-03-29T16:00:32Z</time></trkpt><trkpt lat="42.0815830144423" lon="12.798849740901899"><ele>426.0</ele><time>2026-03-29T16:00:33Z</time></trkpt><trkpt lat="42.08160403709067" lon="12.798740979409951"><ele>426.0</ele><time>2026-03-29T16:00:34Z</time></trkpt><trkpt lat="42.08162591273505" lon="12.798623589863848"><ele>421.20000000000005</ele><time>2026-03-29T16:00:35Z</time></trkpt><trkpt lat="42.081650385245815" lon="12.798494471439605"><ele>416.40000000000003</ele><time>2026-03-29T16:00:36Z</time></trkpt><trkpt lat="42.08168438314974" lon="12.798358943427365"><ele>411.6</ele><time>2026-03-29T16:00:37Z</time></trkpt><trkpt lat="42.08171639315387" lon="12.79822422574808"><ele>406.8</ele><time>2026-03-29T16:00:38Z</time></trkpt><trkpt lat="42.08174414978724" lon="12.798103117003341"><ele>402.0</ele><time>2026-03-29T16:00:39Z</time></trkpt><trkpt lat="42.08179403832925" lon="12.798005954844797"><ele>402.0</ele><time>2026-03-29T16:00:40Z</time></trkpt><trkpt lat="42.081858333792916" lon="12.797914655048263"><ele>402.0</ele><time>2026-03-29T16:00:41Z</time></trkpt><trkpt lat="42.08195569328259" lon="12.797822160223165"><ele>402.0</ele><time>2026-03-29T16:00:42Z</time></trkpt><trkpt lat="42.08206153182637" lon="12.797742676548381"><ele>402.0</ele><time>2026-03-29T16:00:43Z</time></trkpt><trkpt lat="42.082144129841865" lon="12.797668236134403"><ele>402.0</ele><time>2026-03-29T16:00:44Z</time></trkpt><trkpt lat="42.08225233299075" lon="12.797640199152882"><ele>402.5</ele><time>2026-03-29T16:00:45Z</time></trkpt><trkpt lat="42.0823278874107" lon="12.79759455308253"><ele>403.0</ele><time>2026-03-29T16:00:46Z</time></trkpt><trkpt lat="42.082394087382596" lon="12.797566277532642"><ele>403.5</ele><time>2026-03-29T16:00:47Z</time></trkpt><trkpt lat="42.0824359737318" lon="12.797502232385419"><ele>404.0</ele><time>2026-03-29T16:00:48Z</time></trkpt><trkpt lat="42.08248178393593" lon="12.797418617381409"><ele>404.5</ele><time>2026-03-29T16:00:49Z</time></trkpt><trkpt lat="42.082542624583674" lon="12.797318901745118"><ele>405.0</ele><time>2026-03-29T16:00:50Z</time></trkpt><trkpt lat="42.08260664404769" lon="12.797221955158523"><ele>401.8</ele><time>2026-03-29T16:00:51Z</time></trkpt><trkpt lat="42.08265022756653" lon="12.79712703216932"><ele>398.6</ele><time>2026-03-29T16:00:52Z</time></trkpt><trkpt lat="42.0826983602193" lon="12.797027021797831"><ele>395.4</ele><time>2026-03-29T16:00:53Z</time></trkpt><trkpt lat="42.08274901887171" lon="12.796909401476483"><ele>392.2</ele><time>2026-03-29T16:00:54Z</time></trkpt><trkpt lat="42.08280353045833" lon="12.796779462442448"><ele>389.0</ele><time>2026-03-29T16:00:55Z</time></trkpt><trkpt lat="42.082854020087765" lon="12.796640286755464"><ele>389.0</ele><time>2026-03-29T16:00:56Z</time></trkpt><trkpt lat="42.08290610418792" lon="12.796502146514332"><ele>389.0</ele><time>2026-03-29T16:00:57Z</time></trkpt><trkpt lat="42.082965707304304" lon="12.796360436743644"><ele>389.0</ele><time>2026-03-29T16:00:58Z</time></trkpt><trkpt lat="42.083035413551606" lon="12.796232432202606"><ele>389.0</ele><time>2026-03-29T16:00:59Z</time></trkpt><trkpt lat="42.0830973608625" lon="12.796115778320098"><ele>387.6</ele><time>2026-03-29T16:01:00Z</time></trkpt><trkpt lat="42.08313557736306" lon="12.795977273689081"><ele>386.2</ele><time>2026-03-29T16:01:01Z</time></trkpt><trkpt lat="42.08315748611963" lon="12.795887710602036"><ele>384.8</ele><time>2026-03-29T16:01:02Z</time></trkpt><trkpt lat="42.083125313757655" lon="12.7957449708961"><ele>383.40000000000003</ele><time>2026-03-29T16:01:04Z</time></trkpt><trkpt lat="42.08306608126965" lon="12.795581384632106"><ele>382.0</ele><time>2026-03-29T16:01:06Z</time></trkpt><trkpt lat="42.08302010665497" lon="12.7954741981639"><ele>382.0</ele><time>2026-03-29T16:01:07Z</time></trkpt><trkpt lat="42.08299317299648" lon="12.795349118154842"><ele>382.0</ele><time>2026-03-29T16:01:08Z</time></trkpt><trkpt lat="42.08297734575883" lon="12.795200901903291"><ele>382.0</ele><time>2026-03-29T16:01:09Z</time></trkpt><trkpt lat="42.08298204123097" lon="12.795041807868264"><ele>382.0</ele><time>2026-03-29T16:01:10Z</time></trkpt><trkpt lat="42.08300855884105" lon="12.794868110082927"><ele>380.8</ele><time>2026-03-29T16:01:11Z</time></trkpt><trkpt lat="42.08302329489324" lon="12.794679035510441"><ele>379.6</ele><time>2026-03-29T16:01:12Z</time></trkpt><trkpt lat="42.08301765726957" lon="12.79453210067294"><ele>378.40000000000003</ele><time>2026-03-29T16:01:13Z</time></trkpt><trkpt lat="42.083001739482754" lon="12.794431216716013"><ele>377.20000000000005</ele><time>2026-03-29T16:01:14Z</time></trkpt><trkpt lat="42.08296747183954" lon="12.794336507385228"><ele>376.0</ele><time>2026-03-29T16:01:15Z</time></trkpt><trkpt lat="42.08290687348025" lon="12.794224508108332"><ele>374.6</ele><time>2026-03-29T16:01:16Z</time></trkpt><trkpt lat="42.08284508044793" lon="12.7941203685837"><ele>373.20000000000005</ele><time>2026-03-29T16:01:17Z</time></trkpt><trkpt lat="42.08277224745829" lon="12.793993953599497"><ele>371.79999999999995</ele><time>2026-03-29T16:01:18Z</time></trkpt><trkpt lat="42.08270407540901" lon="12.793860401772932"><ele>370.4</ele><time>2026-03-29T16:01:19Z</time></trkpt><trkpt lat="42.082634501913354" lon="12.793767451886357"><ele>369.0</ele><time>2026-03-29T16:01:20Z</time></trkpt><trkpt lat="42.08253521061118" lon="12.793660883045264"><ele>369.0</ele><time>2026-03-29T16:01:21Z</time></trkpt><trkpt lat="42.08244948163992" lon="12.793532314106946"><ele>369.0</ele><time>2026-03-29T16:01:22Z</time></trkpt><trkpt lat="42.08241383175345" lon="12.793439800461416"><ele>369.0</ele><time>2026-03-29T16:01:23Z</time></trkpt><trkpt lat="42.08239452780029" lon="12.793308806848124"><ele>369.0</ele><time>2026-03-29T16:01:24Z</time></trkpt><trkpt lat="42.0823650201232" lon="12.793165333537102"><ele>369.0</ele><time>2026-03-29T16:01:25Z</time></trkpt><trkpt lat="42.082348780609124" lon="12.793011849148394"><ele>369.6</ele><time>2026-03-29T16:01:26Z</time></trkpt><trkpt lat="42.08236188575031" lon="12.79288181597072"><ele>370.2</ele><time>2026-03-29T16:01:27Z</time></trkpt><trkpt lat="42.08239554945191" lon="12.792782046929318"><ele>370.8</ele><time>2026-03-29T16:01:28Z</time></trkpt><trkpt lat="42.082419310744626" lon="12.792661242291787"><ele>371.40000000000003</ele><time>2026-03-29T16:01:29Z</time></trkpt><trkpt lat="42.082439931416744" lon="12.792529093228456"><ele>372.0</ele><time>2026-03-29T16:01:30Z</time></trkpt><trkpt lat="42.08245528671514" lon="12.792394772853756"><ele>369.5</ele><time>2026-03-29T16:01:31Z</time></trkpt><trkpt lat="42.08245931402036" lon="12.792252461692502"><ele>367.0</ele><time>2026-03-29T16:01:32Z</time></trkpt><trkpt lat="42.08245895672178" lon="12.792106258953115"><ele>364.5</ele><time>2026-03-29T16:01:33Z</time></trkpt><trkpt lat="42.08247275232684" lon="12.791943706485586"><ele>362.0</ele><time>2026-03-29T16:01:34Z</time></trkpt><trkpt lat="42.08249286584583" lon="12.791768507756657"><ele>362.0</ele><time>2026-03-29T16:01:35Z</time></trkpt><trkpt lat="42.082500273574766" lon="12.791573232939198"><ele>362.0</ele><time>2026-03-29T16:01:36Z</time></trkpt><trkpt lat="42.0825029707957" lon="12.791373437372412"><ele>362.0</ele><time>2026-03-29T16:01:37Z</time></trkpt><trkpt lat="42.082512796038564" lon="12.791192126015304"><ele>362.0</ele><time>2026-03-29T16:01:38Z</time></trkpt><trkpt lat="42.082523591441706" lon="12.79101475660587"><ele>362.5</ele><time>2026-03-29T16:01:39Z</time></trkpt><trkpt lat="42.08254587177751" lon="12.790848944261766"><ele>363.0</ele><time>2026-03-29T16:01:40Z</time></trkpt><trkpt lat="42.08257688310093" lon="12.79067240882925"><ele>363.5</ele><time>2026-03-29T16:01:41Z</time></trkpt><trkpt lat="42.08263482472105" lon="12.790435405427123"><ele>364.0</ele><time>2026-03-29T16:01:42Z</time></trkpt><trkpt lat="42.082686590731534" lon="12.790271438405103"><ele>364.0</ele><time>2026-03-29T16:01:43Z</time></trkpt><trkpt lat="42.08275404883297" lon="12.790183311129422"><ele>364.0</ele><time>2026-03-29T16:01:44Z</time></trkpt><trkpt lat="42.082801750576465" lon="12.790108358815587"><ele>364.0</ele><time>2026-03-29T16:01:45Z</time></trkpt><trkpt lat="42.08282715189022" lon="12.789982817854208"><ele>364.0</ele><time>2026-03-29T16:01:45.999Z</time></trkpt><trkpt lat="42.08292634635101" lon="12.789916365031788"><ele>364.0</ele><time>2026-03-29T16:01:46.999Z</time></trkpt><trkpt lat="42.08303041652663" lon="12.789832582056622"><ele>362.75</ele><time>2026-03-29T16:01:47.999Z</time></trkpt><trkpt lat="42.083147300141185" lon="12.789772497313523"><ele>361.5</ele><time>2026-03-29T16:01:49Z</time></trkpt><trkpt lat="42.08327153648072" lon="12.789703546960023"><ele>360.25</ele><time>2026-03-29T16:01:50Z</time></trkpt><trkpt lat="42.083403179251285" lon="12.789633023851659"><ele>359.0</ele><time>2026-03-29T16:01:51Z</time></trkpt><trkpt lat="42.08352172625536" lon="12.78957192082004"><ele>356.5</ele><time>2026-03-29T16:01:52Z</time></trkpt><trkpt lat="42.08363589938139" lon="12.789526690714245"><ele>354.0</ele><time>2026-03-29T16:01:53Z</time></trkpt><trkpt lat="42.08375633680263" lon="12.789495355936054"><ele>351.5</ele><time>2026-03-29T16:01:54Z</time></trkpt><trkpt lat="42.08387314335967" lon="12.789486914604103"><ele>349.0</ele><time>2026-03-29T16:01:55Z</time></trkpt><trkpt lat="42.08397926604027" lon="12.789474559317105"><ele>349.0</ele><time>2026-03-29T16:01:56Z</time></trkpt><trkpt lat="42.08407141202517" lon="12.789432670063523"><ele>349.0</ele><time>2026-03-29T16:01:57Z</time></trkpt><trkpt lat="42.084148223033694" lon="12.78937572200779"><ele>349.0</ele><time>2026-03-29T16:01:58Z</time></trkpt><trkpt lat="42.08421347394147" lon="12.789275609229017"><ele>349.0</ele><time>2026-03-29T16:01:59Z</time></trkpt><trkpt lat="42.0842698387511" lon="12.789144841260288"><ele>349.0</ele><time>2026-03-29T16:02:00Z</time></trkpt><trkpt lat="42.084351055073746" lon="12.789013429768398"><ele>347.5</ele><time>2026-03-29T16:02:01Z</time></trkpt><trkpt lat="42.084440097702014" lon="12.788899796816487"><ele>346.0</ele><time>2026-03-29T16:02:02Z</time></trkpt><trkpt lat="42.08453550825126" lon="12.78877381682881"><ele>344.5</ele><time>2026-03-29T16:02:03Z</time></trkpt><trkpt lat="42.08462230934926" lon="12.788655257266488"><ele>343.0</ele><time>2026-03-29T16:02:04Z</time></trkpt><trkpt lat="42.084690955424456" lon="12.788541767043583"><ele>342.25</ele><time>2026-03-29T16:02:05Z</time></trkpt><trkpt lat="42.0847884474541" lon="12.788416668516144"><ele>341.5</ele><time>2026-03-29T16:02:06Z</time></trkpt><trkpt lat="42.08487632574705" lon="12.788275761247341"><ele>340.75</ele><time>2026-03-29T16:02:07Z</time></trkpt><trkpt lat="42.08494481471763" lon="12.788149493951904"><ele>340.0</ele><time>2026-03-29T16:02:08Z</time></trkpt><trkpt lat="42.08508369597757" lon="12.787818585861055"><ele>337.5</ele><time>2026-03-29T16:02:10Z</time></trkpt><trkpt lat="42.08512978536693" lon="12.787626256376656"><ele>335.0</ele><time>2026-03-29T16:02:11Z</time></trkpt><trkpt lat="42.08518234400753" lon="12.787446096779128"><ele>332.5</ele><time>2026-03-29T16:02:12Z</time></trkpt><trkpt lat="42.085243608336775" lon="12.787260869494485"><ele>330.0</ele><time>2026-03-29T16:02:13Z</time></trkpt><trkpt lat="42.08532397046823" lon="12.787082074061969"><ele>330.0</ele><time>2026-03-29T16:02:14Z</time></trkpt><trkpt lat="42.0854016366636" lon="12.786892319200984"><ele>330.0</ele><time>2026-03-29T16:02:15Z</time></trkpt><trkpt lat="42.085470344973444" lon="12.786699871760524"><ele>330.0</ele><time>2026-03-29T16:02:16Z</time></trkpt><trkpt lat="42.085538262913204" lon="12.786522832148455"><ele>329.0</ele><time>2026-03-29T16:02:17Z</time></trkpt><trkpt lat="42.08561344086108" lon="12.786374036788718"><ele>328.0</ele><time>2026-03-29T16:02:18Z</time></trkpt><trkpt lat="42.08568524890013" lon="12.786251981718557"><ele>327.0</ele><time>2026-03-29T16:02:19Z</time></trkpt><trkpt lat="42.08573712838555" lon="12.786139592227276"><ele>326.0</ele><time>2026-03-29T16:02:20Z</time></trkpt><trkpt lat="42.08578896166929" lon="12.786005431983758"><ele>324.75</ele><time>2026-03-29T16:02:21Z</time></trkpt><trkpt lat="42.085837610331026" lon="12.785852373423683"><ele>323.5</ele><time>2026-03-29T16:02:22Z</time></trkpt><trkpt lat="42.085893581186646" lon="12.78569135700033"><ele>322.25</ele><time>2026-03-29T16:02:23Z</time></trkpt><trkpt lat="42.085948841158526" lon="12.78552745830427"><ele>321.0</ele><time>2026-03-29T16:02:24Z</time></trkpt><trkpt lat="42.08599895949722" lon="12.785372083542399"><ele>321.0</ele><time>2026-03-29T16:02:25Z</time></trkpt><trkpt lat="42.08605403747502" lon="12.785223453106942"><ele>321.0</ele><time>2026-03-29T16:02:26Z</time></trkpt><trkpt lat="42.086108631499314" lon="12.785087697791152"><ele>321.0</ele><time>2026-03-29T16:02:27Z</time></trkpt><trkpt lat="42.08615456886653" lon="12.78496306963859"><ele>321.0</ele><time>2026-03-29T16:02:28Z</time></trkpt><trkpt lat="42.0862108807141" lon="12.784842829321937"><ele>321.0</ele><time>2026-03-29T16:02:29Z</time></trkpt><trkpt lat="42.086276057929545" lon="12.78471528621677"><ele>319.75</ele><time>2026-03-29T16:02:30Z</time></trkpt><trkpt lat="42.086353553773954" lon="12.784590859973541"><ele>318.5</ele><time>2026-03-29T16:02:31Z</time></trkpt><trkpt lat="42.08643780737085" lon="12.784469351077735"><ele>317.25</ele><time>2026-03-29T16:02:32Z</time></trkpt><trkpt lat="42.08652598702949" lon="12.784341465878331"><ele>316.0</ele><time>2026-03-29T16:02:33Z</time></trkpt><trkpt lat="42.08661618471182" lon="12.784202381889365"><ele>315.25</ele><time>2026-03-29T16:02:34Z</time></trkpt><trkpt lat="42.086704097547575" lon="12.7840563503394"><ele>314.5</ele><time>2026-03-29T16:02:35Z</time></trkpt><trkpt lat="42.08678536170361" lon="12.78392151797677"><ele>313.75</ele><time>2026-03-29T16:02:36Z</time></trkpt><trkpt lat="42.086860081188455" lon="12.783789662351078"><ele>313.0</ele><time>2026-03-29T16:02:37Z</time></trkpt><trkpt lat="42.08693021190529" lon="12.78365554809179"><ele>312.25</ele><time>2026-03-29T16:02:38Z</time></trkpt><trkpt lat="42.08700734880694" lon="12.78350117696958"><ele>311.5</ele><time>2026-03-29T16:02:39Z</time></trkpt><trkpt lat="42.087094818761905" lon="12.783352319370415"><ele>310.75</ele><time>2026-03-29T16:02:40Z</time></trkpt><trkpt lat="42.0871897466507" lon="12.783205508160085"><ele>310.0</ele><time>2026-03-29T16:02:41Z</time></trkpt><trkpt lat="42.08728702566148" lon="12.783057077444704"><ele>310.0</ele><time>2026-03-29T16:02:42Z</time></trkpt><trkpt lat="42.087367330318635" lon="12.782901637145628"><ele>310.0</ele><time>2026-03-29T16:02:43Z</time></trkpt><trkpt lat="42.08742023728317" lon="12.782728619367774"><ele>310.0</ele><time>2026-03-29T16:02:44Z</time></trkpt><trkpt lat="42.087483247970816" lon="12.782553930902965"><ele>310.0</ele><time>2026-03-29T16:02:45Z</time></trkpt><trkpt lat="42.08756683935408" lon="12.782382806896868"><ele>308.25</ele><time>2026-03-29T16:02:46Z</time></trkpt><trkpt lat="42.08765891792633" lon="12.782226461252685"><ele>306.5</ele><time>2026-03-29T16:02:47Z</time></trkpt><trkpt lat="42.08773900691772" lon="12.782077607332056"><ele>304.75</ele><time>2026-03-29T16:02:48Z</time></trkpt><trkpt lat="42.087797907452675" lon="12.781944259077365"><ele>303.0</ele><time>2026-03-29T16:02:49Z</time></trkpt><trkpt lat="42.08786127160212" lon="12.781826857707232"><ele>302.75</ele><time>2026-03-29T16:02:50Z</time></trkpt><trkpt lat="42.087950523290026" lon="12.781715893858863"><ele>302.5</ele><time>2026-03-29T16:02:51Z</time></trkpt><trkpt lat="42.08805884659759" lon="12.78161238673231"><ele>302.25</ele><time>2026-03-29T16:02:52Z</time></trkpt><trkpt lat="42.088173111416324" lon="12.781511742938449"><ele>302.0</ele><time>2026-03-29T16:02:53Z</time></trkpt><trkpt lat="42.08828505961676" lon="12.781370514332243"><ele>301.0</ele><time>2026-03-29T16:02:54Z</time></trkpt><trkpt lat="42.08839433877834" lon="12.781228857222073"><ele>300.0</ele><time>2026-03-29T16:02:55Z</time></trkpt><trkpt lat="42.08849586569336" lon="12.781081441210072"><ele>299.0</ele><time>2026-03-29T16:02:56Z</time></trkpt><trkpt lat="42.088588934061384" lon="12.780922614047233"><ele>299.0</ele><time>2026-03-29T16:02:57Z</time></trkpt><trkpt lat="42.08867604396853" lon="12.780751460778607"><ele>299.0</ele><time>2026-03-29T16:02:58Z</time></trkpt><trkpt lat="42.08876511583725" lon="12.780582659004132"><ele>299.0</ele><time>2026-03-29T16:02:59Z</time></trkpt><trkpt lat="42.08886963840971" lon="12.78042133978536"><ele>299.0</ele><time>2026-03-29T16:03:00Z</time></trkpt><trkpt lat="42.088975714533646" lon="12.780257955569882"><ele>299.0</ele><time>2026-03-29T16:03:01Z</time></trkpt><trkpt lat="42.089086715938286" lon="12.780097125837521"><ele>299.0</ele><time>2026-03-29T16:03:02Z</time></trkpt><trkpt lat="42.08918666071142" lon="12.77994203789202"><ele>298.0</ele><time>2026-03-29T16:03:03Z</time></trkpt><trkpt lat="42.089268519776596" lon="12.779802492410038"><ele>297.0</ele><time>2026-03-29T16:03:04Z</time></trkpt><trkpt lat="42.08933416542339" lon="12.779674932410312"><ele>296.0</ele><time>2026-03-29T16:03:05Z</time></trkpt><trkpt lat="42.08940084741257" lon="12.779540389860156"><ele>295.0</ele><time>2026-03-29T16:03:06Z</time></trkpt><trkpt lat="42.08946169111707" lon="12.779409870199945"><ele>294.4</ele><time>2026-03-29T16:03:07Z</time></trkpt><trkpt lat="42.08950456076063" lon="12.779283355133293"><ele>293.8</ele><time>2026-03-29T16:03:08Z</time></trkpt><trkpt lat="42.08952155593591" lon="12.779164505416666"><ele>293.2</ele><time>2026-03-29T16:03:09Z</time></trkpt><trkpt lat="42.08950895607355" lon="12.779027296611186"><ele>292.6</ele><time>2026-03-29T16:03:10Z</time></trkpt><trkpt lat="42.08949618679066" lon="12.778879272146947"><ele>292.0</ele><time>2026-03-29T16:03:11Z</time></trkpt><trkpt lat="42.08952887823787" lon="12.77872948035838"><ele>292.0</ele><time>2026-03-29T16:03:12Z</time></trkpt><trkpt lat="42.0895927471797" lon="12.778600810210083"><ele>292.0</ele><time>2026-03-29T16:03:13Z</time></trkpt><trkpt lat="42.0896890082181" lon="12.778486282654939"><ele>292.0</ele><time>2026-03-29T16:03:14Z</time></trkpt><trkpt lat="42.08978693826415" lon="12.778346359324388"><ele>292.0</ele><time>2026-03-29T16:03:15Z</time></trkpt><trkpt lat="42.089870008553795" lon="12.778177655516206"><ele>290.66666666666663</ele><time>2026-03-29T16:03:16Z</time></trkpt><trkpt lat="42.089937806231525" lon="12.777988702560084"><ele>289.3333333333333</ele><time>2026-03-29T16:03:17Z</time></trkpt><trkpt lat="42.08998497871413" lon="12.777795422825136"><ele>288.0</ele><time>2026-03-29T16:03:18Z</time></trkpt><trkpt lat="42.0900152001175" lon="12.777586297542502"><ele>287.6666666666667</ele><time>2026-03-29T16:03:19Z</time></trkpt><trkpt lat="42.090035134346635" lon="12.777369682409988"><ele>287.33333333333337</ele><time>2026-03-29T16:03:20Z</time></trkpt><trkpt lat="42.09004918332462" lon="12.777150762416909"><ele>287.0</ele><time>2026-03-29T16:03:21Z</time></trkpt><trkpt lat="42.09007084339963" lon="12.776948556227726"><ele>286.25</ele><time>2026-03-29T16:03:22Z</time></trkpt><trkpt lat="42.09009877906069" lon="12.77675641809527"><ele>285.5</ele><time>2026-03-29T16:03:23Z</time></trkpt><trkpt lat="42.090127625600076" lon="12.776567402168018"><ele>284.75</ele><time>2026-03-29T16:03:24Z</time></trkpt><trkpt lat="42.09016300257934" lon="12.77638487058943"><ele>284.0</ele><time>2026-03-29T16:03:25Z</time></trkpt><trkpt lat="42.09019137362166" lon="12.776207797071152"><ele>284.0</ele><time>2026-03-29T16:03:26Z</time></trkpt><trkpt lat="42.09021095439758" lon="12.776034768467193"><ele>284.0</ele><time>2026-03-29T16:03:27Z</time></trkpt><trkpt lat="42.0902293158182" lon="12.775856483567852"><ele>284.0</ele><time>2026-03-29T16:03:28Z</time></trkpt><trkpt lat="42.09024986567992" lon="12.775693268868352"><ele>284.0</ele><time>2026-03-29T16:03:29Z</time></trkpt><trkpt lat="42.09026577383611" lon="12.775522853611553"><ele>283.4</ele><time>2026-03-29T16:03:30Z</time></trkpt><trkpt lat="42.09029461647389" lon="12.775373511011676"><ele>282.79999999999995</ele><time>2026-03-29T16:03:31Z</time></trkpt><trkpt lat="42.09035425142995" lon="12.77524797267768"><ele>282.20000000000005</ele><time>2026-03-29T16:03:32Z</time></trkpt><trkpt lat="42.09037767071844" lon="12.775134424086046"><ele>281.6</ele><time>2026-03-29T16:03:33Z</time></trkpt><trkpt lat="42.0904660824811" lon="12.775030702535714"><ele>281.0</ele><time>2026-03-29T16:03:35Z</time></trkpt><trkpt lat="42.09055431789928" lon="12.77507482163416"><ele>280.40000000000003</ele><time>2026-03-29T16:03:36Z</time></trkpt><trkpt lat="42.09065821200742" lon="12.774982321159579"><ele>279.8</ele><time>2026-03-29T16:03:38Z</time></trkpt><trkpt lat="42.09064238225482" lon="12.774864275542965"><ele>279.20000000000005</ele><time>2026-03-29T16:03:39Z</time></trkpt><trkpt lat="42.09056954700731" lon="12.774743105978306"><ele>278.6</ele><time>2026-03-29T16:03:41Z</time></trkpt><trkpt lat="42.09048497043906" lon="12.774725570704682"><ele>278.0</ele><time>2026-03-29T16:03:42Z</time></trkpt><trkpt lat="42.09037815863025" lon="12.7747209179069"><ele>278.0</ele><time>2026-03-29T16:03:43Z</time></trkpt><trkpt lat="42.09026053381618" lon="12.774712898443394"><ele>278.0</ele><time>2026-03-29T16:03:44Z</time></trkpt><trkpt lat="42.090134058911254" lon="12.774673922525595"><ele>278.0</ele><time>2026-03-29T16:03:45Z</time></trkpt><trkpt lat="42.08999412221554" lon="12.774647548573657"><ele>278.0</ele><time>2026-03-29T16:03:46Z</time></trkpt><trkpt lat="42.08984706633618" lon="12.774685388383052"><ele>275.33333333333337</ele><time>2026-03-29T16:03:47Z</time></trkpt><trkpt lat="42.08965980834246" lon="12.77478199312394"><ele>272.6666666666667</ele><time>2026-03-29T16:03:48Z</time></trkpt><trkpt lat="42.08948675165212" lon="12.774861717506283"><ele>270.0</ele><time>2026-03-29T16:03:49Z</time></trkpt><trkpt lat="42.08931004077233" lon="12.774934029301777"><ele>270.0</ele><time>2026-03-29T16:03:49.999Z</time></trkpt><trkpt lat="42.08913553501365" lon="12.775005788137973"><ele>270.0</ele><time>2026-03-29T16:03:50.999Z</time></trkpt><trkpt lat="42.08896973650888" lon="12.775091018362904"><ele>270.0</ele><time>2026-03-29T16:03:51.999Z</time></trkpt><trkpt lat="42.088822651865755" lon="12.775188754239236"><ele>270.3333333333333</ele><time>2026-03-29T16:03:52.999Z</time></trkpt><trkpt lat="42.08868411853735" lon="12.775312867072373"><ele>270.66666666666663</ele><time>2026-03-29T16:03:53.999Z</time></trkpt><trkpt lat="42.08856387513284" lon="12.775468257548836"><ele>271.0</ele><time>2026-03-29T16:03:55Z</time></trkpt><trkpt lat="42.08845904043876" lon="12.775639696893588"><ele>271.0</ele><time>2026-03-29T16:03:56Z</time></trkpt><trkpt lat="42.08835280242964" lon="12.775804898399402"><ele>271.0</ele><time>2026-03-29T16:03:57Z</time></trkpt><trkpt lat="42.08823826878607" lon="12.775924860265546"><ele>271.0</ele><time>2026-03-29T16:03:58Z</time></trkpt><trkpt lat="42.088120410939794" lon="12.775994358483132"><ele>271.0</ele><time>2026-03-29T16:03:59Z</time></trkpt><trkpt lat="42.08800403884863" lon="12.776020394788945"><ele>271.5</ele><time>2026-03-29T16:04:00Z</time></trkpt><trkpt lat="42.08787860438487" lon="12.776007031995968"><ele>272.0</ele><time>2026-03-29T16:04:01Z</time></trkpt><trkpt lat="42.087748030502546" lon="12.775967484423555"><ele>272.5</ele><time>2026-03-29T16:04:02Z</time></trkpt><trkpt lat="42.08760732557074" lon="12.775901353298844"><ele>273.0</ele><time>2026-03-29T16:04:03Z</time></trkpt><trkpt lat="42.087470467012515" lon="12.775830210185628"><ele>274.75</ele><time>2026-03-29T16:04:04Z</time></trkpt><trkpt lat="42.08734505055748" lon="12.775736110655334"><ele>276.5</ele><time>2026-03-29T16:04:05Z</time></trkpt><trkpt lat="42.087224062851234" lon="12.775622648015007"><ele>278.25</ele><time>2026-03-29T16:04:06Z</time></trkpt><trkpt lat="42.087096790114174" lon="12.775505151531753"><ele>280.0</ele><time>2026-03-29T16:04:07Z</time></trkpt><trkpt lat="42.0869706504105" lon="12.775386438670273"><ele>280.0</ele><time>2026-03-29T16:04:08Z</time></trkpt><trkpt lat="42.086839677444516" lon="12.775287156941229"><ele>280.0</ele><time>2026-03-29T16:04:09Z</time></trkpt><trkpt lat="42.08670768373557" lon="12.775214677163103"><ele>280.0</ele><time>2026-03-29T16:04:10Z</time></trkpt><trkpt lat="42.08656924193261" lon="12.775164354039758"><ele>280.0</ele><time>2026-03-29T16:04:11Z</time></trkpt><trkpt lat="42.08644402122057" lon="12.775088782751654"><ele>279.25</ele><time>2026-03-29T16:04:12Z</time></trkpt><trkpt lat="42.086336659606374" lon="12.774988345666936"><ele>278.5</ele><time>2026-03-29T16:04:13Z</time></trkpt><trkpt lat="42.086245197039474" lon="12.774876236695386"><ele>277.75</ele><time>2026-03-29T16:04:14Z</time></trkpt><trkpt lat="42.086169044679394" lon="12.774743898908207"><ele>277.0</ele><time>2026-03-29T16:04:15Z</time></trkpt><trkpt lat="42.086107206660905" lon="12.774585964736616"><ele>277.0</ele><time>2026-03-29T16:04:16Z</time></trkpt><trkpt lat="42.08605383725423" lon="12.77443115587141"><ele>277.0</ele><time>2026-03-29T16:04:17Z</time></trkpt><trkpt lat="42.08599810403347" lon="12.774267840049493"><ele>277.0</ele><time>2026-03-29T16:04:18Z</time></trkpt><trkpt lat="42.08592717905984" lon="12.774134095249982"><ele>277.0</ele><time>2026-03-29T16:04:19Z</time></trkpt><trkpt lat="42.08583407697962" lon="12.774027606147307"><ele>273.75</ele><time>2026-03-29T16:04:20Z</time></trkpt><trkpt lat="42.085723200830394" lon="12.773952155852887"><ele>270.5</ele><time>2026-03-29T16:04:21Z</time></trkpt><trkpt lat="42.085594311661396" lon="12.773902207222957"><ele>267.25</ele><time>2026-03-29T16:04:22Z</time></trkpt><trkpt lat="42.08544971716319" lon="12.773860798599891"><ele>264.0</ele><time>2026-03-29T16:04:23Z</time></trkpt><trkpt lat="42.08529556754112" lon="12.773809573331244"><ele>264.0</ele><time>2026-03-29T16:04:24Z</time></trkpt><trkpt lat="42.085138506327276" lon="12.77373486043079"><ele>264.0</ele><time>2026-03-29T16:04:25Z</time></trkpt><trkpt lat="42.084985961234345" lon="12.773632034090125"><ele>264.0</ele><time>2026-03-29T16:04:26Z</time></trkpt><trkpt lat="42.08483518049979" lon="12.773500178493931"><ele>262.6666666666667</ele><time>2026-03-29T16:04:27Z</time></trkpt><trkpt lat="42.08468440442694" lon="12.773353931588659"><ele>261.33333333333337</ele><time>2026-03-29T16:04:28Z</time></trkpt><trkpt lat="42.084536560648495" lon="12.773189521391883"><ele>260.0</ele><time>2026-03-29T16:04:29Z</time></trkpt><trkpt lat="42.08438665930514" lon="12.773022244133973"><ele>260.0</ele><time>2026-03-29T16:04:30Z</time></trkpt><trkpt lat="42.08423044154437" lon="12.772861838970535"><ele>260.0</ele><time>2026-03-29T16:04:31Z</time></trkpt><trkpt lat="42.0840776837598" lon="12.772698210588828"><ele>260.0</ele><time>2026-03-29T16:04:32Z</time></trkpt><trkpt lat="42.083939794691354" lon="12.772549488725032"><ele>261.75</ele><time>2026-03-29T16:04:33Z</time></trkpt><trkpt lat="42.08381742798111" lon="12.772415824495418"><ele>263.5</ele><time>2026-03-29T16:04:34Z</time></trkpt><trkpt lat="42.08372359424957" lon="12.7722875754646"><ele>265.25</ele><time>2026-03-29T16:04:35Z</time></trkpt><trkpt lat="42.08366375258193" lon="12.772147776358437"><ele>267.0</ele><time>2026-03-29T16:04:36Z</time></trkpt><trkpt lat="42.08363129493187" lon="12.77198904590259"><ele>268.25</ele><time>2026-03-29T16:04:37Z</time></trkpt><trkpt lat="42.08363495101752" lon="12.771824001385129"><ele>269.5</ele><time>2026-03-29T16:04:38Z</time></trkpt><trkpt lat="42.08367116131066" lon="12.771663433114819"><ele>270.75</ele><time>2026-03-29T16:04:39Z</time></trkpt><trkpt lat="42.083736385985674" lon="12.771502921194942"><ele>272.0</ele><time>2026-03-29T16:04:40Z</time></trkpt><trkpt lat="42.083821464084984" lon="12.77133889512212"><ele>272.0</ele><time>2026-03-29T16:04:41Z</time></trkpt><trkpt lat="42.08389930818335" lon="12.771163044122265"><ele>272.0</ele><time>2026-03-29T16:04:42Z</time></trkpt><trkpt lat="42.083956141644556" lon="12.770972536155833"><ele>272.0</ele><time>2026-03-29T16:04:43Z</time></trkpt><trkpt lat="42.08399933474361" lon="12.770761371317052"><ele>273.0</ele><time>2026-03-29T16:04:44Z</time></trkpt><trkpt lat="42.08402196154676" lon="12.770538800462553"><ele>274.0</ele><time>2026-03-29T16:04:45Z</time></trkpt><trkpt lat="42.08402939818984" lon="12.770303503576631"><ele>275.0</ele><time>2026-03-29T16:04:46Z</time></trkpt><trkpt lat="42.084026684615836" lon="12.770058762626391"><ele>275.0</ele><time>2026-03-29T16:04:47Z</time></trkpt><trkpt lat="42.08402255013636" lon="12.769807837471525"><ele>275.0</ele><time>2026-03-29T16:04:48Z</time></trkpt><trkpt lat="42.084021079894434" lon="12.769555276448699"><ele>275.0</ele><time>2026-03-29T16:04:49Z</time></trkpt><trkpt lat="42.08402172273661" lon="12.769298873155241"><ele>277.33333333333337</ele><time>2026-03-29T16:04:50Z</time></trkpt><trkpt lat="42.084025897055945" lon="12.769039738306667"><ele>279.6666666666667</ele><time>2026-03-29T16:04:51Z</time></trkpt><trkpt lat="42.08403285716966" lon="12.768784950307218"><ele>282.0</ele><time>2026-03-29T16:04:52Z</time></trkpt><trkpt lat="42.08404921636069" lon="12.76852456444722"><ele>284.3333333333333</ele><time>2026-03-29T16:04:53Z</time></trkpt><trkpt lat="42.084076304736946" lon="12.768262726473681"><ele>286.66666666666663</ele><time>2026-03-29T16:04:54Z</time></trkpt><trkpt lat="42.08411242820606" lon="12.768000810928436"><ele>289.0</ele><time>2026-03-29T16:04:55Z</time></trkpt><trkpt lat="42.084154143947586" lon="12.767740720532949"><ele>281.3333333333333</ele><time>2026-03-29T16:04:56Z</time></trkpt><trkpt lat="42.084199938749826" lon="12.767487803859417"><ele>273.6666666666667</ele><time>2026-03-29T16:04:57Z</time></trkpt><trkpt lat="42.08424014420184" lon="12.767241764046393"><ele>266.0</ele><time>2026-03-29T16:04:58Z</time></trkpt><trkpt lat="42.08428083381257" lon="12.767002671727639"><ele>268.0</ele><time>2026-03-29T16:04:59Z</time></trkpt><trkpt lat="42.084317117949894" lon="12.766767472570956"><ele>270.0</ele><time>2026-03-29T16:05:00Z</time></trkpt><trkpt lat="42.08433884738037" lon="12.766528675592674"><ele>272.0</ele><time>2026-03-29T16:05:01Z</time></trkpt><trkpt lat="42.084355749645084" lon="12.766293850618457"><ele>272.0</ele><time>2026-03-29T16:05:02Z</time></trkpt><trkpt lat="42.084359901315366" lon="12.76605894759577"><ele>272.0</ele><time>2026-03-29T16:05:03Z</time></trkpt><trkpt lat="42.084349857932914" lon="12.765828145326166"><ele>272.0</ele><time>2026-03-29T16:05:04Z</time></trkpt><trkpt lat="42.08432011835973" lon="12.765603744885162"><ele>272.6666666666667</ele><time>2026-03-29T16:05:05Z</time></trkpt><trkpt lat="42.08427257224933" lon="12.765391123530419"><ele>273.3333333333333</ele><time>2026-03-29T16:05:06Z</time></trkpt><trkpt lat="42.08420688223729" lon="12.765184926580261"><ele>274.0</ele><time>2026-03-29T16:05:07Z</time></trkpt><trkpt lat="42.08414202980118" lon="12.76499582893262"><ele>278.0</ele><time>2026-03-29T16:05:08Z</time></trkpt><trkpt lat="42.084081029641055" lon="12.764827288698125"><ele>282.0</ele><time>2026-03-29T16:05:09Z</time></trkpt><trkpt lat="42.08400667694748" lon="12.76467942411907"><ele>286.0</ele><time>2026-03-29T16:05:10Z</time></trkpt><trkpt lat="42.08392413914668" lon="12.76453405908174"><ele>290.0</ele><time>2026-03-29T16:05:11Z</time></trkpt><trkpt lat="42.08383786966577" lon="12.764380240701659"><ele>287.75</ele><time>2026-03-29T16:05:12Z</time></trkpt><trkpt lat="42.08376356686705" lon="12.764231449013348"><ele>285.5</ele><time>2026-03-29T16:05:13Z</time></trkpt><trkpt lat="42.08368497691014" lon="12.76408001623082"><ele>283.25</ele><time>2026-03-29T16:05:14Z</time></trkpt><trkpt lat="42.083601217374344" lon="12.763942679012054"><ele>281.0</ele><time>2026-03-29T16:05:15Z</time></trkpt><trkpt lat="42.08350458905024" lon="12.763835937559866"><ele>281.0</ele><time>2026-03-29T16:05:16Z</time></trkpt><trkpt lat="42.08339833079386" lon="12.763769516124379"><ele>281.0</ele><time>2026-03-29T16:05:17Z</time></trkpt><trkpt lat="42.083285298459735" lon="12.763738312083424"><ele>281.0</ele><time>2026-03-29T16:05:18Z</time></trkpt><trkpt lat="42.083169510933935" lon="12.763720845025553"><ele>281.0</ele><time>2026-03-29T16:05:19Z</time></trkpt><trkpt lat="42.083048189539674" lon="12.763697827646755"><ele>281.0</ele><time>2026-03-29T16:05:20Z</time></trkpt><trkpt lat="42.08292904018199" lon="12.763646379375215"><ele>281.0</ele><time>2026-03-29T16:05:21Z</time></trkpt><trkpt lat="42.08281802191273" lon="12.763565900769901"><ele>281.0</ele><time>2026-03-29T16:05:22Z</time></trkpt><trkpt lat="42.08270774197617" lon="12.76347205758586"><ele>281.0</ele><time>2026-03-29T16:05:23Z</time></trkpt><trkpt lat="42.082597673748865" lon="12.763372640390346"><ele>281.0</ele><time>2026-03-29T16:05:24Z</time></trkpt><trkpt lat="42.08249020809979" lon="12.763268879534007"><ele>281.0</ele><time>2026-03-29T16:05:25Z</time></trkpt><trkpt lat="42.082379283239085" lon="12.763168915673035"><ele>281.0</ele><time>2026-03-29T16:05:26Z</time></trkpt><trkpt lat="42.08226527164712" lon="12.763070109000356"><ele>281.0</ele><time>2026-03-29T16:05:27Z</time></trkpt><trkpt lat="42.08215273395957" lon="12.762972027976337"><ele>281.25</ele><time>2026-03-29T16:05:28Z</time></trkpt><trkpt lat="42.082043584864316" lon="12.76288320296187"><ele>281.5</ele><time>2026-03-29T16:05:29Z</time></trkpt><trkpt lat="42.081940343598546" lon="12.762783267090319"><ele>281.75</ele><time>2026-03-29T16:05:30Z</time></trkpt><trkpt lat="42.08184207215624" lon="12.762672338155502"><ele>282.0</ele><time>2026-03-29T16:05:31Z</time></trkpt><trkpt lat="42.08175222454484" lon="12.762563179342692"><ele>282.0</ele><time>2026-03-29T16:05:32Z</time></trkpt><trkpt lat="42.08165698310946" lon="12.762443413292617"><ele>282.0</ele><time>2026-03-29T16:05:33Z</time></trkpt><trkpt lat="42.08155658867849" lon="12.76233983303649"><ele>282.0</ele><time>2026-03-29T16:05:34Z</time></trkpt><trkpt lat="42.08144945970573" lon="12.762266478264804"><ele>282.0</ele><time>2026-03-29T16:05:35Z</time></trkpt><trkpt lat="42.08133158735426" lon="12.762227506533288"><ele>282.25</ele><time>2026-03-29T16:05:36Z</time></trkpt><trkpt lat="42.08120811278623" lon="12.762220249320622"><ele>282.5</ele><time>2026-03-29T16:05:37Z</time></trkpt><trkpt lat="42.08107788072143" lon="12.762235699375164"><ele>282.75</ele><time>2026-03-29T16:05:38Z</time></trkpt><trkpt lat="42.08093930994248" lon="12.762293550026973"><ele>283.0</ele><time>2026-03-29T16:05:39Z</time></trkpt><trkpt lat="42.080798859466434" lon="12.76238583276483"><ele>280.66666666666663</ele><time>2026-03-29T16:05:40Z</time></trkpt><trkpt lat="42.080655635972306" lon="12.762486244361636"><ele>278.3333333333333</ele><time>2026-03-29T16:05:41Z</time></trkpt><trkpt lat="42.08050619836112" lon="12.762588174695376"><ele>276.0</ele><time>2026-03-29T16:05:42Z</time></trkpt><trkpt lat="42.080346677839316" lon="12.762696406935067"><ele>278.0</ele><time>2026-03-29T16:05:43Z</time></trkpt><trkpt lat="42.080181245070165" lon="12.762814383267704"><ele>280.0</ele><time>2026-03-29T16:05:44Z</time></trkpt><trkpt lat="42.080011913741174" lon="12.762942235288156"><ele>282.0</ele><time>2026-03-29T16:05:45Z</time></trkpt><trkpt lat="42.07983769612883" lon="12.763072461398767"><ele>282.0</ele><time>2026-03-29T16:05:46Z</time></trkpt><trkpt lat="42.07965305870454" lon="12.763195200073879"><ele>282.0</ele><time>2026-03-29T16:05:47Z</time></trkpt><trkpt lat="42.0794574339667" lon="12.763292637023842"><ele>282.0</ele><time>2026-03-29T16:05:48Z</time></trkpt><trkpt lat="42.07926896859217" lon="12.763409478073541"><ele>283.0</ele><time>2026-03-29T16:05:49Z</time></trkpt><trkpt lat="42.079077379999454" lon="12.763530862061033"><ele>284.0</ele><time>2026-03-29T16:05:50Z</time></trkpt><trkpt lat="42.07890833063131" lon="12.763672676334181"><ele>285.0</ele><time>2026-03-29T16:05:51Z</time></trkpt><trkpt lat="42.07872500926213" lon="12.763804791112003"><ele>285.0</ele><time>2026-03-29T16:05:52Z</time></trkpt><trkpt lat="42.078547872442535" lon="12.763939869029025"><ele>285.0</ele><time>2026-03-29T16:05:53Z</time></trkpt><trkpt lat="42.078360334662364" lon="12.764042440397606"><ele>285.0</ele><time>2026-03-29T16:05:54Z</time></trkpt><trkpt lat="42.07818742173169" lon="12.764177591312231"><ele>283.0</ele><time>2026-03-29T16:05:55Z</time></trkpt><trkpt lat="42.078004999985446" lon="12.764287283732349"><ele>281.0</ele><time>2026-03-29T16:05:56Z</time></trkpt><trkpt lat="42.07782557562667" lon="12.764395133918942"><ele>279.0</ele><time>2026-03-29T16:05:57Z</time></trkpt><trkpt lat="42.07764628239443" lon="12.764495957712176"><ele>281.6666666666667</ele><time>2026-03-29T16:05:58Z</time></trkpt><trkpt lat="42.077470937147524" lon="12.764592165286718"><ele>284.33333333333337</ele><time>2026-03-29T16:05:59Z</time></trkpt><trkpt lat="42.07731588762516" lon="12.764692701600314"><ele>287.0</ele><time>2026-03-29T16:05:59.999Z</time></trkpt><trkpt lat="42.07717338859747" lon="12.764782127452014"><ele>287.0</ele><time>2026-03-29T16:06:01Z</time></trkpt><trkpt lat="42.07706042668149" lon="12.764916295549154"><ele>287.0</ele><time>2026-03-29T16:06:02Z</time></trkpt><trkpt lat="42.07698095405053" lon="12.765091010113336"><ele>287.0</ele><time>2026-03-29T16:06:03Z</time></trkpt><trkpt lat="42.0768888462586" lon="12.765258073222544"><ele>289.0</ele><time>2026-03-29T16:06:04Z</time></trkpt><trkpt lat="42.07677510151325" lon="12.765403694609029"><ele>291.0</ele><time>2026-03-29T16:06:05Z</time></trkpt><trkpt lat="42.07665474995197" lon="12.765505118791816"><ele>293.0</ele><time>2026-03-29T16:06:06Z</time></trkpt><trkpt lat="42.076534695421884" lon="12.765552386028013"><ele>295.0</ele><time>2026-03-29T16:06:07Z</time></trkpt><trkpt lat="42.076415032947885" lon="12.7655514925419"><ele>295.0</ele><time>2026-03-29T16:06:08Z</time></trkpt><trkpt lat="42.076300370664335" lon="12.765479565988553"><ele>295.0</ele><time>2026-03-29T16:06:09Z</time></trkpt><trkpt lat="42.076187963860086" lon="12.76538419622689"><ele>295.0</ele><time>2026-03-29T16:06:10Z</time></trkpt><trkpt lat="42.076072524724744" lon="12.765275146499281"><ele>295.0</ele><time>2026-03-29T16:06:11Z</time></trkpt><trkpt lat="42.07593932855758" lon="12.76517985917319"><ele>291.3333333333333</ele><time>2026-03-29T16:06:12Z</time></trkpt><trkpt lat="42.07578993639126" lon="12.765138925160345"><ele>287.6666666666667</ele><time>2026-03-29T16:06:13Z</time></trkpt><trkpt lat="42.07563833825719" lon="12.765141677862017"><ele>284.0</ele><time>2026-03-29T16:06:14Z</time></trkpt><trkpt lat="42.07548341924579" lon="12.765191479300965"><ele>288.6666666666667</ele><time>2026-03-29T16:06:15Z</time></trkpt><trkpt lat="42.07532261089915" lon="12.765258866757478"><ele>293.3333333333333</ele><time>2026-03-29T16:06:16Z</time></trkpt><trkpt lat="42.075166261782094" lon="12.765382675355477"><ele>298.0</ele><time>2026-03-29T16:06:17Z</time></trkpt><trkpt lat="42.0749955006932" lon="12.765480574540613"><ele>297.0</ele><time>2026-03-29T16:06:18Z</time></trkpt><trkpt lat="42.07483120976788" lon="12.765550934915545"><ele>296.0</ele><time>2026-03-29T16:06:19Z</time></trkpt><trkpt lat="42.074654032701986" lon="12.765588416764018"><ele>295.0</ele><time>2026-03-29T16:06:20Z</time></trkpt><trkpt lat="42.07446505294153" lon="12.765555088428814"><ele>295.0</ele><time>2026-03-29T16:06:21Z</time></trkpt><trkpt lat="42.07427423954105" lon="12.76555113472731"><ele>295.0</ele><time>2026-03-29T16:06:22Z</time></trkpt><trkpt lat="42.07408116034684" lon="12.765557023934502"><ele>295.0</ele><time>2026-03-29T16:06:23Z</time></trkpt><trkpt lat="42.073907476403825" lon="12.765598972770468"><ele>293.3333333333333</ele><time>2026-03-29T16:06:24Z</time></trkpt><trkpt lat="42.07374211512175" lon="12.765675710624425"><ele>291.6666666666667</ele><time>2026-03-29T16:06:25Z</time></trkpt><trkpt lat="42.07356397882862" lon="12.765719336957131"><ele>290.0</ele><time>2026-03-29T16:06:26Z</time></trkpt><trkpt lat="42.07339049328441" lon="12.765784861547548"><ele>289.25</ele><time>2026-03-29T16:06:27Z</time></trkpt><trkpt lat="42.07323658272223" lon="12.765848428145128"><ele>288.5</ele><time>2026-03-29T16:06:28Z</time></trkpt><trkpt lat="42.07309690910089" lon="12.765906477437692"><ele>287.75</ele><time>2026-03-29T16:06:29Z</time></trkpt><trkpt lat="42.07296975236702" lon="12.765959878747926"><ele>287.0</ele><time>2026-03-29T16:06:30Z</time></trkpt><trkpt lat="42.07284987098093" lon="12.766013062887698"><ele>289.0</ele><time>2026-03-29T16:06:31Z</time></trkpt><trkpt lat="42.07272325175188" lon="12.766069236265452"><ele>291.0</ele><time>2026-03-29T16:06:32Z</time></trkpt><trkpt lat="42.072594657252985" lon="12.766127012684757"><ele>293.0</ele><time>2026-03-29T16:06:33Z</time></trkpt><trkpt lat="42.072467760774856" lon="12.766184505670783"><ele>295.0</ele><time>2026-03-29T16:06:34Z</time></trkpt><trkpt lat="42.07235117237916" lon="12.766236049813182"><ele>295.0</ele><time>2026-03-29T16:06:35Z</time></trkpt><trkpt lat="42.07224206906586" lon="12.76628397591746"><ele>295.0</ele><time>2026-03-29T16:06:36Z</time></trkpt><trkpt lat="42.07213045960001" lon="12.766333001241708"><ele>295.0</ele><time>2026-03-29T16:06:37Z</time></trkpt><trkpt lat="42.072014954290154" lon="12.766378420419063"><ele>295.0</ele><time>2026-03-29T16:06:38Z</time></trkpt><trkpt lat="42.07189196386709" lon="12.766422451760967"><ele>295.0</ele><time>2026-03-29T16:06:39Z</time></trkpt><trkpt lat="42.07177153552657" lon="12.766459625326684"><ele>295.0</ele><time>2026-03-29T16:06:40Z</time></trkpt><trkpt lat="42.07166072883865" lon="12.76648959002381"><ele>295.0</ele><time>2026-03-29T16:06:41Z</time></trkpt><trkpt lat="42.07155493864005" lon="12.766514548762808"><ele>295.0</ele><time>2026-03-29T16:06:42Z</time></trkpt><trkpt lat="42.071455018605" lon="12.766535423865532"><ele>295.0</ele><time>2026-03-29T16:06:43Z</time></trkpt><trkpt lat="42.07135251788672" lon="12.76655109458158"><ele>296.2</ele><time>2026-03-29T16:06:44Z</time></trkpt><trkpt lat="42.071248600747715" lon="12.766560323371158"><ele>297.4</ele><time>2026-03-29T16:06:45Z</time></trkpt><trkpt lat="42.07113800654491" lon="12.766564903190371"><ele>298.6</ele><time>2026-03-29T16:06:46Z</time></trkpt><trkpt lat="42.07102232668213" lon="12.766569323970172"><ele>299.8</ele><time>2026-03-29T16:06:47Z</time></trkpt><trkpt lat="42.07091197063273" lon="12.76660112349134"><ele>301.0</ele><time>2026-03-29T16:06:48Z</time></trkpt><trkpt lat="42.07081645747816" lon="12.766568924269983"><ele>299.8</ele><time>2026-03-29T16:06:49Z</time></trkpt><trkpt lat="42.07072865888219" lon="12.766574431982466"><ele>298.6</ele><time>2026-03-29T16:06:50Z</time></trkpt><trkpt lat="42.0706271516517" lon="12.766608911190849"><ele>297.4</ele><time>2026-03-29T16:06:51Z</time></trkpt><trkpt lat="42.07051357468136" lon="12.766572209651024"><ele>296.2</ele><time>2026-03-29T16:06:52Z</time></trkpt><trkpt lat="42.07040184649688" lon="12.766556338375848"><ele>295.0</ele><time>2026-03-29T16:06:53Z</time></trkpt><trkpt lat="42.07029898362321" lon="12.766545392807494"><ele>295.0</ele><time>2026-03-29T16:06:54Z</time></trkpt><trkpt lat="42.07020398424852" lon="12.766534051067785"><ele>295.0</ele><time>2026-03-29T16:06:55Z</time></trkpt><trkpt lat="42.07010650162957" lon="12.766596282678096"><ele>295.0</ele><time>2026-03-29T16:06:56Z</time></trkpt><trkpt lat="42.070018371816815" lon="12.766591609668376"><ele>295.0</ele><time>2026-03-29T16:06:57Z</time></trkpt><trkpt lat="42.06993630068821" lon="12.766594156049912"><ele>295.0</ele><time>2026-03-29T16:06:58Z</time></trkpt><trkpt lat="42.069844917277536" lon="12.766604450316906"><ele>295.4</ele><time>2026-03-29T16:06:59Z</time></trkpt><trkpt lat="42.06974712725079" lon="12.766621449092382"><ele>295.8</ele><time>2026-03-29T16:07:00Z</time></trkpt><trkpt lat="42.06964946076134" lon="12.766654835440752"><ele>296.2</ele><time>2026-03-29T16:07:01Z</time></trkpt><trkpt lat="42.06956031041487" lon="12.766683567655098"><ele>296.6</ele><time>2026-03-29T16:07:02Z</time></trkpt><trkpt lat="42.069483205139385" lon="12.766709340655863"><ele>297.0</ele><time>2026-03-29T16:07:03Z</time></trkpt><trkpt lat="42.06938360200612" lon="12.766717080765176"><ele>297.0</ele><time>2026-03-29T16:07:05Z</time></trkpt></trkseg></trk></gpx>